<?xml version='1.0' encoding='UTF-8'?><gpx version="1.1" creator="JPX - https://github.com/jenetics/jpx" xmlns="http://www.topografix.com/GPX/1/1"><trk><trkseg><trkpt lat="44.882554" lon="7.3279839"><ele>377.79999999999995</ele><time>2026-04-26T08:12:24.745Z</time></trkpt><trkpt lat="44.8826496" lon="7.3280225"><ele>377.6</ele><time>2026-04-26T08:12:26.745Z</time></trkpt><trkpt lat="44.8827599" lon="7.3280509"><ele>377.4</ele><time>2026-04-26T08:12:28.745Z</time></trkpt><trkpt lat="44.8828732" lon="7.3280807"><ele>377.20000000000005</ele><time>2026-04-26T08:12:30.745Z</time></trkpt><trkpt lat="44.8829478" lon="7.3280989"><ele>377.0</ele><time>2026-04-26T08:12:32.745Z</time></trkpt><trkpt lat="44.8830174" lon="7.3280855"><ele>377.0</ele><time>2026-04-26T08:12:34.745Z</time></trkpt><trkpt lat="44.8830551" lon="7.3279849"><ele>377.0</ele><time>2026-04-26T08:12:36.745Z</time></trkpt><trkpt lat="44.8830762" lon="7.3278364"><ele>377.0</ele><time>2026-04-26T08:12:38.745Z</time></trkpt><trkpt lat="44.883094" lon="7.3276635"><ele>377.0</ele><time>2026-04-26T08:12:40.745Z</time></trkpt><trkpt lat="44.8831125" lon="7.3275716"><ele>377.0</ele><time>2026-04-26T08:12:41.745Z</time></trkpt><trkpt lat="44.8831362" lon="7.3273952"><ele>377.0</ele><time>2026-04-26T08:12:43.745Z</time></trkpt><trkpt lat="44.8831459" lon="7.3272976"><ele>377.0</ele><time>2026-04-26T08:12:44.745Z</time></trkpt><trkpt lat="44.8831612" lon="7.3271279"><ele>377.0</ele><time>2026-04-26T08:12:46.745Z</time></trkpt><trkpt lat="44.8831771" lon="7.3269635"><ele>377.0</ele><time>2026-04-26T08:12:48.745Z</time></trkpt><trkpt lat="44.8831943" lon="7.3268047"><ele>377.0</ele><time>2026-04-26T08:12:50.745Z</time></trkpt><trkpt lat="44.8832136" lon="7.3266318"><ele>377.1428571428571</ele><time>2026-04-26T08:12:52.745Z</time></trkpt><trkpt lat="44.8832262" lon="7.3265414"><ele>377.2857142857143</ele><time>2026-04-26T08:12:53.745Z</time></trkpt><trkpt lat="44.8832328" lon="7.3264492"><ele>377.42857142857144</ele><time>2026-04-26T08:12:54.745Z</time></trkpt><trkpt lat="44.8832404" lon="7.3263532"><ele>377.57142857142856</ele><time>2026-04-26T08:12:55.745Z</time></trkpt><trkpt lat="44.8832508" lon="7.326262"><ele>377.7142857142857</ele><time>2026-04-26T08:12:56.745Z</time></trkpt><trkpt lat="44.8832593" lon="7.3261718"><ele>377.85714285714283</ele><time>2026-04-26T08:12:57.745Z</time></trkpt><trkpt lat="44.8832683" lon="7.3260838"><ele>378.0</ele><time>2026-04-26T08:12:58.745Z</time></trkpt><trkpt lat="44.8832745" lon="7.3259928"><ele>378.0</ele><time>2026-04-26T08:12:59.745Z</time></trkpt><trkpt lat="44.8833105" lon="7.325837"><ele>378.0</ele><time>2026-04-26T08:13:01.745Z</time></trkpt><trkpt lat="44.8833712" lon="7.325741"><ele>378.0</ele><time>2026-04-26T08:13:03.745Z</time></trkpt><trkpt lat="44.8834653" lon="7.3257215"><ele>378.0</ele><time>2026-04-26T08:13:05.745Z</time></trkpt><trkpt lat="44.8835278" lon="7.3257391"><ele>378.0</ele><time>2026-04-26T08:13:06.745Z</time></trkpt><trkpt lat="44.8836047" lon="7.3257623"><ele>378.0</ele><time>2026-04-26T08:13:07.744Z</time></trkpt><trkpt lat="44.8836842" lon="7.325792"><ele>378.1666666666667</ele><time>2026-04-26T08:13:08.745Z</time></trkpt><trkpt lat="44.8837547" lon="7.3258136"><ele>378.3333333333333</ele><time>2026-04-26T08:13:09.745Z</time></trkpt><trkpt lat="44.8838191" lon="7.3258307"><ele>378.5</ele><time>2026-04-26T08:13:10.745Z</time></trkpt><trkpt lat="44.8839349" lon="7.3258596"><ele>378.66666666666663</ele><time>2026-04-26T08:13:12.745Z</time></trkpt><trkpt lat="44.8840309" lon="7.3258873"><ele>378.8333333333333</ele><time>2026-04-26T08:13:14.745Z</time></trkpt><trkpt lat="44.8841019" lon="7.3259205"><ele>379.0</ele><time>2026-04-26T08:13:16.744Z</time></trkpt><trkpt lat="44.8841639" lon="7.3259452"><ele>379.00000000000006</ele><time>2026-04-26T08:13:19.745Z</time></trkpt><trkpt lat="44.884237" lon="7.3259657"><ele>379.0</ele><time>2026-04-26T08:13:22.745Z</time></trkpt><trkpt lat="44.8843156" lon="7.3259678"><ele>379.0</ele><time>2026-04-26T08:13:25.745Z</time></trkpt><trkpt lat="44.8842415" lon="7.3259018"><ele>379.0</ele><time>2026-04-26T08:13:29.745Z</time></trkpt><trkpt lat="44.8841768" lon="7.3259123"><ele>379.0</ele><time>2026-04-26T08:13:30.745Z</time></trkpt><trkpt lat="44.8841134" lon="7.3258929"><ele>379.00000000000006</ele><time>2026-04-26T08:13:31.745Z</time></trkpt><trkpt lat="44.884044" lon="7.3258728"><ele>379.0</ele><time>2026-04-26T08:13:32.745Z</time></trkpt><trkpt lat="44.8839686" lon="7.3258539"><ele>379.0</ele><time>2026-04-26T08:13:33.745Z</time></trkpt><trkpt lat="44.8838975" lon="7.3258344"><ele>379.0</ele><time>2026-04-26T08:13:34.745Z</time></trkpt><trkpt lat="44.8838267" lon="7.3258088"><ele>379.0</ele><time>2026-04-26T08:13:35.745Z</time></trkpt><trkpt lat="44.8837506" lon="7.3257843"><ele>379.0</ele><time>2026-04-26T08:13:36.745Z</time></trkpt><trkpt lat="44.8836741" lon="7.3257549"><ele>379.0</ele><time>2026-04-26T08:13:37.745Z</time></trkpt><trkpt lat="44.8835988" lon="7.3257163"><ele>379.0</ele><time>2026-04-26T08:13:38.745Z</time></trkpt><trkpt lat="44.8835173" lon="7.3256664"><ele>379.0</ele><time>2026-04-26T08:13:39.745Z</time></trkpt><trkpt lat="44.8834322" lon="7.3256075"><ele>379.0</ele><time>2026-04-26T08:13:40.745Z</time></trkpt><trkpt lat="44.8833629" lon="7.3255559"><ele>379.0</ele><time>2026-04-26T08:13:41.745Z</time></trkpt><trkpt lat="44.8832711" lon="7.3254758"><ele>379.0</ele><time>2026-04-26T08:13:43.745Z</time></trkpt><trkpt lat="44.8831853" lon="7.3254043"><ele>379.0</ele><time>2026-04-26T08:13:45.745Z</time></trkpt><trkpt lat="44.8830663" lon="7.3253222"><ele>379.0</ele><time>2026-04-26T08:13:47.745Z</time></trkpt><trkpt lat="44.8829904" lon="7.3252758"><ele>379.0</ele><time>2026-04-26T08:13:48.745Z</time></trkpt><trkpt lat="44.8829011" lon="7.3252256"><ele>379.0</ele><time>2026-04-26T08:13:49.745Z</time></trkpt><trkpt lat="44.8828083" lon="7.3251783"><ele>379.0</ele><time>2026-04-26T08:13:50.745Z</time></trkpt><trkpt lat="44.8827239" lon="7.3251348"><ele>379.0</ele><time>2026-04-26T08:13:51.745Z</time></trkpt><trkpt lat="44.8826419" lon="7.325092"><ele>378.66666666666663</ele><time>2026-04-26T08:13:52.745Z</time></trkpt><trkpt lat="44.88257" lon="7.325049"><ele>378.3333333333333</ele><time>2026-04-26T08:13:53.745Z</time></trkpt><trkpt lat="44.8825045" lon="7.3250099"><ele>378.0</ele><time>2026-04-26T08:13:54.745Z</time></trkpt><trkpt lat="44.8824457" lon="7.3249761"><ele>377.6666666666667</ele><time>2026-04-26T08:13:55.745Z</time></trkpt><trkpt lat="44.8823461" lon="7.3249185"><ele>377.33333333333337</ele><time>2026-04-26T08:13:57.745Z</time></trkpt><trkpt lat="44.8822454" lon="7.3248541"><ele>377.0</ele><time>2026-04-26T08:13:59.745Z</time></trkpt><trkpt lat="44.8821647" lon="7.3248117"><ele>377.0</ele><time>2026-04-26T08:14:01.745Z</time></trkpt><trkpt lat="44.8820888" lon="7.3247742"><ele>377.0</ele><time>2026-04-26T08:14:04.744Z</time></trkpt><trkpt lat="44.882017" lon="7.3247423"><ele>377.0</ele><time>2026-04-26T08:14:25.745Z</time></trkpt><trkpt lat="44.8819476" lon="7.3246932"><ele>377.0</ele><time>2026-04-26T08:14:27.745Z</time></trkpt><trkpt lat="44.8818645" lon="7.3246433"><ele>377.0</ele><time>2026-04-26T08:14:30.745Z</time></trkpt><trkpt lat="44.8817888" lon="7.3246196"><ele>377.0</ele><time>2026-04-26T08:14:33.745Z</time></trkpt><trkpt lat="44.8817738" lon="7.3245153"><ele>377.1666666666667</ele><time>2026-04-26T08:14:35.744Z</time></trkpt><trkpt lat="44.8818002" lon="7.3244328"><ele>377.33333333333337</ele><time>2026-04-26T08:14:36.745Z</time></trkpt><trkpt lat="44.8818236" lon="7.324327"><ele>377.5</ele><time>2026-04-26T08:14:37.745Z</time></trkpt><trkpt lat="44.8818478" lon="7.3242172"><ele>377.6666666666667</ele><time>2026-04-26T08:14:38.745Z</time></trkpt><trkpt lat="44.8818754" lon="7.3240833"><ele>377.8333333333333</ele><time>2026-04-26T08:14:39.745Z</time></trkpt><trkpt lat="44.8819034" lon="7.3239638"><ele>378.0</ele><time>2026-04-26T08:14:40.745Z</time></trkpt><trkpt lat="44.8819333" lon="7.3238356"><ele>378.0</ele><time>2026-04-26T08:14:41.745Z</time></trkpt><trkpt lat="44.8819624" lon="7.3237123"><ele>378.0</ele><time>2026-04-26T08:14:42.745Z</time></trkpt><trkpt lat="44.8819891" lon="7.3235908"><ele>378.0</ele><time>2026-04-26T08:14:43.745Z</time></trkpt><trkpt lat="44.8820229" lon="7.3234706"><ele>378.0</ele><time>2026-04-26T08:14:44.745Z</time></trkpt><trkpt lat="44.8820537" lon="7.3233541"><ele>378.0</ele><time>2026-04-26T08:14:45.745Z</time></trkpt><trkpt lat="44.8820823" lon="7.3232492"><ele>378.0</ele><time>2026-04-26T08:14:46.745Z</time></trkpt><trkpt lat="44.8821135" lon="7.3231369"><ele>378.0</ele><time>2026-04-26T08:14:47.745Z</time></trkpt><trkpt lat="44.8821503" lon="7.3230167"><ele>378.0</ele><time>2026-04-26T08:14:48.745Z</time></trkpt><trkpt lat="44.8821874" lon="7.3228856"><ele>378.0</ele><time>2026-04-26T08:14:49.744Z</time></trkpt><trkpt lat="44.8822279" lon="7.3227459"><ele>378.0</ele><time>2026-04-26T08:14:50.745Z</time></trkpt><trkpt lat="44.8822718" lon="7.3226038"><ele>378.0</ele><time>2026-04-26T08:14:51.745Z</time></trkpt><trkpt lat="44.8823117" lon="7.3224708"><ele>378.0</ele><time>2026-04-26T08:14:52.745Z</time></trkpt><trkpt lat="44.8823602" lon="7.3223331"><ele>378.0</ele><time>2026-04-26T08:14:53.745Z</time></trkpt><trkpt lat="44.8824089" lon="7.3221913"><ele>378.0</ele><time>2026-04-26T08:14:54.745Z</time></trkpt><trkpt lat="44.8824632" lon="7.3220476"><ele>378.0</ele><time>2026-04-26T08:14:55.745Z</time></trkpt><trkpt lat="44.8825146" lon="7.3219135"><ele>378.0</ele><time>2026-04-26T08:14:56.745Z</time></trkpt><trkpt lat="44.8825677" lon="7.3217837"><ele>378.0</ele><time>2026-04-26T08:14:57.745Z</time></trkpt><trkpt lat="44.8826104" lon="7.3216616"><ele>378.0</ele><time>2026-04-26T08:14:58.745Z</time></trkpt><trkpt lat="44.8826512" lon="7.3215557"><ele>378.0</ele><time>2026-04-26T08:14:59.745Z</time></trkpt><trkpt lat="44.8826908" lon="7.3214558"><ele>378.0</ele><time>2026-04-26T08:15:00.745Z</time></trkpt><trkpt lat="44.8827301" lon="7.3213625"><ele>378.0</ele><time>2026-04-26T08:15:01.744Z</time></trkpt><trkpt lat="44.8827834" lon="7.32124"><ele>378.0</ele><time>2026-04-26T08:15:02.745Z</time></trkpt><trkpt lat="44.8828478" lon="7.3210978"><ele>378.5</ele><time>2026-04-26T08:15:03.745Z</time></trkpt><trkpt lat="44.8829252" lon="7.3209424"><ele>379.0</ele><time>2026-04-26T08:15:04.745Z</time></trkpt><trkpt lat="44.8830009" lon="7.3207944"><ele>379.5</ele><time>2026-04-26T08:15:05.745Z</time></trkpt><trkpt lat="44.883093" lon="7.3206778"><ele>380.0</ele><time>2026-04-26T08:15:06.745Z</time></trkpt><trkpt lat="44.883184" lon="7.3205413"><ele>380.4</ele><time>2026-04-26T08:15:07.745Z</time></trkpt><trkpt lat="44.8832667" lon="7.3204136"><ele>380.8</ele><time>2026-04-26T08:15:08.745Z</time></trkpt><trkpt lat="44.8833399" lon="7.3203046"><ele>381.20000000000005</ele><time>2026-04-26T08:15:09.745Z</time></trkpt><trkpt lat="44.8834051" lon="7.3202045"><ele>381.6</ele><time>2026-04-26T08:15:10.745Z</time></trkpt><trkpt lat="44.8834657" lon="7.3201151"><ele>382.0</ele><time>2026-04-26T08:15:11.745Z</time></trkpt><trkpt lat="44.8835184" lon="7.3200321"><ele>382.16666666666663</ele><time>2026-04-26T08:15:12.745Z</time></trkpt><trkpt lat="44.8835717" lon="7.3199639"><ele>382.3333333333333</ele><time>2026-04-26T08:15:13.745Z</time></trkpt><trkpt lat="44.8836333" lon="7.3199092"><ele>382.5</ele><time>2026-04-26T08:15:14.745Z</time></trkpt><trkpt lat="44.8837069" lon="7.3198808"><ele>382.6666666666667</ele><time>2026-04-26T08:15:15.745Z</time></trkpt><trkpt lat="44.8837863" lon="7.3198755"><ele>382.83333333333337</ele><time>2026-04-26T08:15:16.745Z</time></trkpt><trkpt lat="44.8838696" lon="7.3198771"><ele>383.0</ele><time>2026-04-26T08:15:17.745Z</time></trkpt><trkpt lat="44.8839591" lon="7.3198806"><ele>383.0</ele><time>2026-04-26T08:15:18.745Z</time></trkpt><trkpt lat="44.8840539" lon="7.3198921"><ele>383.0</ele><time>2026-04-26T08:15:19.745Z</time></trkpt><trkpt lat="44.8841494" lon="7.3198963"><ele>383.0</ele><time>2026-04-26T08:15:20.745Z</time></trkpt><trkpt lat="44.8842424" lon="7.3199009"><ele>383.0</ele><time>2026-04-26T08:15:21.744Z</time></trkpt><trkpt lat="44.8843335" lon="7.3199053"><ele>383.0</ele><time>2026-04-26T08:15:22.745Z</time></trkpt><trkpt lat="44.8844228" lon="7.3199095"><ele>383.1666666666667</ele><time>2026-04-26T08:15:23.745Z</time></trkpt><trkpt lat="44.8845087" lon="7.3199182"><ele>383.33333333333337</ele><time>2026-04-26T08:15:24.745Z</time></trkpt><trkpt lat="44.8845886" lon="7.3199254"><ele>383.5</ele><time>2026-04-26T08:15:25.745Z</time></trkpt><trkpt lat="44.8846627" lon="7.3199333"><ele>383.6666666666667</ele><time>2026-04-26T08:15:26.745Z</time></trkpt><trkpt lat="44.8847302" lon="7.3199388"><ele>383.8333333333333</ele><time>2026-04-26T08:15:27.745Z</time></trkpt><trkpt lat="44.8847963" lon="7.3199436"><ele>384.0</ele><time>2026-04-26T08:15:28.745Z</time></trkpt><trkpt lat="44.8849019" lon="7.3199533"><ele>384.0</ele><time>2026-04-26T08:15:30.745Z</time></trkpt><trkpt lat="44.8849768" lon="7.319977"><ele>384.0</ele><time>2026-04-26T08:15:32.745Z</time></trkpt><trkpt lat="44.8850453" lon="7.3199857"><ele>384.0</ele><time>2026-04-26T08:15:34.745Z</time></trkpt><trkpt lat="44.885127" lon="7.3199903"><ele>384.0</ele><time>2026-04-26T08:15:36.745Z</time></trkpt><trkpt lat="44.8852121" lon="7.3199957"><ele>384.0</ele><time>2026-04-26T08:15:38.745Z</time></trkpt><trkpt lat="44.8852857" lon="7.3200007"><ele>384.0</ele><time>2026-04-26T08:15:40.745Z</time></trkpt><trkpt lat="44.8853528" lon="7.319995"><ele>385.0</ele><time>2026-04-26T08:16:15.745Z</time></trkpt><trkpt lat="44.8854363" lon="7.3199993"><ele>386.0</ele><time>2026-04-26T08:16:18.745Z</time></trkpt><trkpt lat="44.8854973" lon="7.320096"><ele>387.0</ele><time>2026-04-26T08:16:22.745Z</time></trkpt><trkpt lat="44.8855109" lon="7.3202487"><ele>388.0</ele><time>2026-04-26T08:16:24.745Z</time></trkpt><trkpt lat="44.885515" lon="7.3203408"><ele>389.0</ele><time>2026-04-26T08:16:25.744Z</time></trkpt><trkpt lat="44.8855124" lon="7.3205148"><ele>388.49999999999994</ele><time>2026-04-26T08:16:27.745Z</time></trkpt><trkpt lat="44.885506" lon="7.320671"><ele>388.0</ele><time>2026-04-26T08:16:29.745Z</time></trkpt><trkpt lat="44.8855039" lon="7.3207921"><ele>387.5</ele><time>2026-04-26T08:16:31.745Z</time></trkpt><trkpt lat="44.8855386" lon="7.3208825"><ele>387.0</ele><time>2026-04-26T08:16:33.745Z</time></trkpt><trkpt lat="44.8856384" lon="7.3208939"><ele>386.49999999999994</ele><time>2026-04-26T08:16:35.745Z</time></trkpt><trkpt lat="44.8857017" lon="7.3208829"><ele>386.0</ele><time>2026-04-26T08:16:36.745Z</time></trkpt><trkpt lat="44.8857652" lon="7.3208676"><ele>385.99999999999994</ele><time>2026-04-26T08:16:37.745Z</time></trkpt><trkpt lat="44.8858854" lon="7.3208268"><ele>386.0</ele><time>2026-04-26T08:16:39.745Z</time></trkpt><trkpt lat="44.8859478" lon="7.3207897"><ele>386.0</ele><time>2026-04-26T08:16:40.745Z</time></trkpt><trkpt lat="44.8860299" lon="7.3207627"><ele>386.0</ele><time>2026-04-26T08:16:41.744Z</time></trkpt><trkpt lat="44.8861246" lon="7.3207582"><ele>385.99999999999994</ele><time>2026-04-26T08:16:42.744Z</time></trkpt><trkpt lat="44.8862008" lon="7.3207484"><ele>386.0</ele><time>2026-04-26T08:16:43.745Z</time></trkpt><trkpt lat="44.8862694" lon="7.320724"><ele>386.6</ele><time>2026-04-26T08:16:44.745Z</time></trkpt><trkpt lat="44.886339" lon="7.3206571"><ele>387.20000000000005</ele><time>2026-04-26T08:16:45.745Z</time></trkpt><trkpt lat="44.8864166" lon="7.3205496"><ele>387.79999999999995</ele><time>2026-04-26T08:16:46.745Z</time></trkpt><trkpt lat="44.8864957" lon="7.3204474"><ele>388.4</ele><time>2026-04-26T08:16:47.745Z</time></trkpt><trkpt lat="44.8865689" lon="7.3203444"><ele>389.0</ele><time>2026-04-26T08:16:48.745Z</time></trkpt><trkpt lat="44.8866449" lon="7.3202346"><ele>389.0</ele><time>2026-04-26T08:16:49.745Z</time></trkpt><trkpt lat="44.8867251" lon="7.32012"><ele>389.0</ele><time>2026-04-26T08:16:50.745Z</time></trkpt><trkpt lat="44.8868109" lon="7.3199981"><ele>389.0</ele><time>2026-04-26T08:16:51.745Z</time></trkpt><trkpt lat="44.8868924" lon="7.3198853"><ele>389.0</ele><time>2026-04-26T08:16:52.745Z</time></trkpt><trkpt lat="44.8869776" lon="7.3197736"><ele>389.25</ele><time>2026-04-26T08:16:53.745Z</time></trkpt><trkpt lat="44.8870595" lon="7.3196576"><ele>389.5</ele><time>2026-04-26T08:16:54.745Z</time></trkpt><trkpt lat="44.8871468" lon="7.3195427"><ele>389.75</ele><time>2026-04-26T08:16:55.745Z</time></trkpt><trkpt lat="44.8872494" lon="7.3194196"><ele>390.0</ele><time>2026-04-26T08:16:56.745Z</time></trkpt><trkpt lat="44.8873716" lon="7.3193059"><ele>390.0</ele><time>2026-04-26T08:16:57.745Z</time></trkpt><trkpt lat="44.8875006" lon="7.3192156"><ele>390.0</ele><time>2026-04-26T08:16:58.745Z</time></trkpt><trkpt lat="44.8876183" lon="7.3191447"><ele>390.0</ele><time>2026-04-26T08:16:59.744Z</time></trkpt><trkpt lat="44.8877293" lon="7.3190863"><ele>390.0</ele><time>2026-04-26T08:17:00.745Z</time></trkpt><trkpt lat="44.8878408" lon="7.3190318"><ele>390.5</ele><time>2026-04-26T08:17:01.745Z</time></trkpt><trkpt lat="44.8879497" lon="7.3189709"><ele>391.0</ele><time>2026-04-26T08:17:02.745Z</time></trkpt><trkpt lat="44.8880596" lon="7.3189118"><ele>391.5</ele><time>2026-04-26T08:17:03.745Z</time></trkpt><trkpt lat="44.8881698" lon="7.3188563"><ele>392.0</ele><time>2026-04-26T08:17:04.745Z</time></trkpt><trkpt lat="44.8882713" lon="7.3188066"><ele>392.25</ele><time>2026-04-26T08:17:05.745Z</time></trkpt><trkpt lat="44.8883731" lon="7.3187467"><ele>392.5</ele><time>2026-04-26T08:17:06.745Z</time></trkpt><trkpt lat="44.8884754" lon="7.3186877"><ele>392.75</ele><time>2026-04-26T08:17:07.745Z</time></trkpt><trkpt lat="44.8885844" lon="7.3186264"><ele>393.0</ele><time>2026-04-26T08:17:08.745Z</time></trkpt><trkpt lat="44.8886911" lon="7.3185587"><ele>393.75</ele><time>2026-04-26T08:17:09.745Z</time></trkpt><trkpt lat="44.8887906" lon="7.3184972"><ele>394.5</ele><time>2026-04-26T08:17:10.745Z</time></trkpt><trkpt lat="44.8888866" lon="7.3184418"><ele>395.25</ele><time>2026-04-26T08:17:11.745Z</time></trkpt><trkpt lat="44.8889984" lon="7.3183661"><ele>396.0</ele><time>2026-04-26T08:17:12.745Z</time></trkpt><trkpt lat="44.8891138" lon="7.3182888"><ele>396.0</ele><time>2026-04-26T08:17:13.745Z</time></trkpt><trkpt lat="44.8892354" lon="7.3182116"><ele>396.0</ele><time>2026-04-26T08:17:14.745Z</time></trkpt><trkpt lat="44.8893564" lon="7.3181306"><ele>396.0</ele><time>2026-04-26T08:17:15.745Z</time></trkpt><trkpt lat="44.8894795" lon="7.3180441"><ele>396.0</ele><time>2026-04-26T08:17:16.745Z</time></trkpt><trkpt lat="44.8896048" lon="7.3179616"><ele>396.0</ele><time>2026-04-26T08:17:17.745Z</time></trkpt><trkpt lat="44.8897325" lon="7.3178856"><ele>396.0</ele><time>2026-04-26T08:17:18.745Z</time></trkpt><trkpt lat="44.8898695" lon="7.3178223"><ele>396.0</ele><time>2026-04-26T08:17:19.744Z</time></trkpt><trkpt lat="44.890017" lon="7.317772"><ele>396.0</ele><time>2026-04-26T08:17:20.745Z</time></trkpt><trkpt lat="44.8901606" lon="7.3177389"><ele>396.0</ele><time>2026-04-26T08:17:21.745Z</time></trkpt><trkpt lat="44.8903059" lon="7.3177165"><ele>396.0</ele><time>2026-04-26T08:17:22.744Z</time></trkpt><trkpt lat="44.8904609" lon="7.3177042"><ele>396.0</ele><time>2026-04-26T08:17:23.745Z</time></trkpt><trkpt lat="44.8906315" lon="7.317695"><ele>396.0</ele><time>2026-04-26T08:17:24.745Z</time></trkpt><trkpt lat="44.8908113" lon="7.3176868"><ele>396.0</ele><time>2026-04-26T08:17:25.745Z</time></trkpt><trkpt lat="44.8910022" lon="7.3176822"><ele>396.0</ele><time>2026-04-26T08:17:26.745Z</time></trkpt><trkpt lat="44.891199" lon="7.3176728"><ele>396.66666666666663</ele><time>2026-04-26T08:17:27.745Z</time></trkpt><trkpt lat="44.8914042" lon="7.3176569"><ele>397.3333333333333</ele><time>2026-04-26T08:17:28.745Z</time></trkpt><trkpt lat="44.8916137" lon="7.3176347"><ele>398.0</ele><time>2026-04-26T08:17:29.745Z</time></trkpt><trkpt lat="44.8918101" lon="7.3176101"><ele>399.3333333333333</ele><time>2026-04-26T08:17:30.745Z</time></trkpt><trkpt lat="44.891997" lon="7.3175834"><ele>400.66666666666663</ele><time>2026-04-26T08:17:31.745Z</time></trkpt><trkpt lat="44.8921716" lon="7.3175618"><ele>402.0</ele><time>2026-04-26T08:17:32.745Z</time></trkpt><trkpt lat="44.8923319" lon="7.3175389"><ele>402.0</ele><time>2026-04-26T08:17:33.745Z</time></trkpt><trkpt lat="44.8924912" lon="7.3175196"><ele>402.0</ele><time>2026-04-26T08:17:34.745Z</time></trkpt><trkpt lat="44.8926465" lon="7.3174988"><ele>402.0</ele><time>2026-04-26T08:17:35.744Z</time></trkpt><trkpt lat="44.8928048" lon="7.3174795"><ele>402.0</ele><time>2026-04-26T08:17:36.745Z</time></trkpt><trkpt lat="44.8929624" lon="7.3174616"><ele>402.0</ele><time>2026-04-26T08:17:37.745Z</time></trkpt><trkpt lat="44.8931315" lon="7.3174389"><ele>402.0</ele><time>2026-04-26T08:17:38.745Z</time></trkpt><trkpt lat="44.8933093" lon="7.3174162"><ele>402.66666666666663</ele><time>2026-04-26T08:17:39.745Z</time></trkpt><trkpt lat="44.8935022" lon="7.3173926"><ele>403.3333333333333</ele><time>2026-04-26T08:17:40.745Z</time></trkpt><trkpt lat="44.893712" lon="7.3173634"><ele>404.0</ele><time>2026-04-26T08:17:41.745Z</time></trkpt><trkpt lat="44.8939282" lon="7.3173323"><ele>404.0</ele><time>2026-04-26T08:17:42.745Z</time></trkpt><trkpt lat="44.8941423" lon="7.3173056"><ele>404.0</ele><time>2026-04-26T08:17:43.745Z</time></trkpt><trkpt lat="44.8943731" lon="7.3172763"><ele>404.0</ele><time>2026-04-26T08:17:44.745Z</time></trkpt><trkpt lat="44.8945981" lon="7.317252"><ele>404.3333333333333</ele><time>2026-04-26T08:17:45.745Z</time></trkpt><trkpt lat="44.8948175" lon="7.3172273"><ele>404.66666666666663</ele><time>2026-04-26T08:17:46.745Z</time></trkpt><trkpt lat="44.8950217" lon="7.3172008"><ele>405.0</ele><time>2026-04-26T08:17:47.745Z</time></trkpt><trkpt lat="44.8952213" lon="7.3171747"><ele>405.0</ele><time>2026-04-26T08:17:48.745Z</time></trkpt><trkpt lat="44.895416" lon="7.317147"><ele>405.0</ele><time>2026-04-26T08:17:49.745Z</time></trkpt><trkpt lat="44.8956099" lon="7.3171225"><ele>405.0</ele><time>2026-04-26T08:17:50.745Z</time></trkpt><trkpt lat="44.8958" lon="7.3170982"><ele>406.33333333333337</ele><time>2026-04-26T08:17:51.745Z</time></trkpt><trkpt lat="44.8959899" lon="7.3170734"><ele>407.6666666666667</ele><time>2026-04-26T08:17:52.745Z</time></trkpt><trkpt lat="44.8961791" lon="7.3170475"><ele>409.0</ele><time>2026-04-26T08:17:53.745Z</time></trkpt><trkpt lat="44.8963635" lon="7.3170249"><ele>409.0</ele><time>2026-04-26T08:17:54.745Z</time></trkpt><trkpt lat="44.896543" lon="7.3169995"><ele>409.0</ele><time>2026-04-26T08:17:55.745Z</time></trkpt><trkpt lat="44.8967242" lon="7.3169759"><ele>409.0</ele><time>2026-04-26T08:17:56.745Z</time></trkpt><trkpt lat="44.8969098" lon="7.3169501"><ele>410.0</ele><time>2026-04-26T08:17:57.745Z</time></trkpt><trkpt lat="44.8970894" lon="7.3169243"><ele>411.0</ele><time>2026-04-26T08:17:58.745Z</time></trkpt><trkpt lat="44.8972598" lon="7.3169"><ele>412.0</ele><time>2026-04-26T08:17:59.745Z</time></trkpt><trkpt lat="44.8974188" lon="7.3168762"><ele>412.0</ele><time>2026-04-26T08:18:00.745Z</time></trkpt><trkpt lat="44.8975578" lon="7.3168552"><ele>412.0</ele><time>2026-04-26T08:18:01.745Z</time></trkpt><trkpt lat="44.8976794" lon="7.3168391"><ele>412.0</ele><time>2026-04-26T08:18:02.745Z</time></trkpt><trkpt lat="44.8977844" lon="7.3168241"><ele>412.0</ele><time>2026-04-26T08:18:03.745Z</time></trkpt><trkpt lat="44.8978885" lon="7.3168089"><ele>413.0</ele><time>2026-04-26T08:18:04.745Z</time></trkpt><trkpt lat="44.8979906" lon="7.3167902"><ele>414.0</ele><time>2026-04-26T08:18:05.745Z</time></trkpt><trkpt lat="44.8981035" lon="7.3167706"><ele>415.0</ele><time>2026-04-26T08:18:06.745Z</time></trkpt><trkpt lat="44.8982297" lon="7.316749"><ele>416.0</ele><time>2026-04-26T08:18:07.745Z</time></trkpt><trkpt lat="44.8983583" lon="7.3167258"><ele>416.75</ele><time>2026-04-26T08:18:08.744Z</time></trkpt><trkpt lat="44.8984896" lon="7.3167035"><ele>417.5</ele><time>2026-04-26T08:18:09.745Z</time></trkpt><trkpt lat="44.8986185" lon="7.3166802"><ele>418.25</ele><time>2026-04-26T08:18:10.745Z</time></trkpt><trkpt lat="44.8987515" lon="7.3166559"><ele>419.0</ele><time>2026-04-26T08:18:11.745Z</time></trkpt><trkpt lat="44.8988801" lon="7.3166278"><ele>419.0</ele><time>2026-04-26T08:18:12.745Z</time></trkpt><trkpt lat="44.8990068" lon="7.3166008"><ele>419.0</ele><time>2026-04-26T08:18:13.745Z</time></trkpt><trkpt lat="44.8991263" lon="7.316577"><ele>419.0</ele><time>2026-04-26T08:18:14.745Z</time></trkpt><trkpt lat="44.8992524" lon="7.3165543"><ele>419.0</ele><time>2026-04-26T08:18:15.745Z</time></trkpt><trkpt lat="44.8993808" lon="7.3165266"><ele>419.25</ele><time>2026-04-26T08:18:16.745Z</time></trkpt><trkpt lat="44.8995214" lon="7.3164922"><ele>419.5</ele><time>2026-04-26T08:18:17.745Z</time></trkpt><trkpt lat="44.8996656" lon="7.3164585"><ele>419.75</ele><time>2026-04-26T08:18:18.745Z</time></trkpt><trkpt lat="44.8998077" lon="7.3164272"><ele>420.0</ele><time>2026-04-26T08:18:19.745Z</time></trkpt><trkpt lat="44.8999413" lon="7.3163942"><ele>420.0</ele><time>2026-04-26T08:18:20.745Z</time></trkpt><trkpt lat="44.9000796" lon="7.3163576"><ele>420.0</ele><time>2026-04-26T08:18:21.745Z</time></trkpt><trkpt lat="44.9002191" lon="7.3163223"><ele>420.0</ele><time>2026-04-26T08:18:22.745Z</time></trkpt><trkpt lat="44.900367" lon="7.3162798"><ele>420.0</ele><time>2026-04-26T08:18:23.745Z</time></trkpt><trkpt lat="44.9005181" lon="7.3162384"><ele>420.66666666666663</ele><time>2026-04-26T08:18:24.745Z</time></trkpt><trkpt lat="44.9006789" lon="7.316193"><ele>421.3333333333333</ele><time>2026-04-26T08:18:25.745Z</time></trkpt><trkpt lat="44.9008341" lon="7.3161476"><ele>422.0</ele><time>2026-04-26T08:18:26.745Z</time></trkpt><trkpt lat="44.9009973" lon="7.3160998"><ele>422.66666666666663</ele><time>2026-04-26T08:18:27.745Z</time></trkpt><trkpt lat="44.9011712" lon="7.3160463"><ele>423.33333333333337</ele><time>2026-04-26T08:18:28.745Z</time></trkpt><trkpt lat="44.901344" lon="7.3159964"><ele>424.0</ele><time>2026-04-26T08:18:29.745Z</time></trkpt><trkpt lat="44.9015165" lon="7.3159482"><ele>424.0</ele><time>2026-04-26T08:18:30.745Z</time></trkpt><trkpt lat="44.9016849" lon="7.3158965"><ele>424.0</ele><time>2026-04-26T08:18:31.745Z</time></trkpt><trkpt lat="44.9018527" lon="7.3158461"><ele>424.0</ele><time>2026-04-26T08:18:32.745Z</time></trkpt><trkpt lat="44.9020224" lon="7.3157936"><ele>425.6666666666667</ele><time>2026-04-26T08:18:33.745Z</time></trkpt><trkpt lat="44.9021939" lon="7.3157416"><ele>427.33333333333337</ele><time>2026-04-26T08:18:34.745Z</time></trkpt><trkpt lat="44.9023649" lon="7.3156897"><ele>429.0</ele><time>2026-04-26T08:18:35.745Z</time></trkpt><trkpt lat="44.9025347" lon="7.3156357"><ele>429.33333333333337</ele><time>2026-04-26T08:18:36.745Z</time></trkpt><trkpt lat="44.902702" lon="7.3155855"><ele>429.6666666666667</ele><time>2026-04-26T08:18:37.744Z</time></trkpt><trkpt lat="44.9028787" lon="7.3155254"><ele>430.0</ele><time>2026-04-26T08:18:38.745Z</time></trkpt><trkpt lat="44.9030642" lon="7.3154655"><ele>430.33333333333337</ele><time>2026-04-26T08:18:39.745Z</time></trkpt><trkpt lat="44.9032556" lon="7.3154045"><ele>430.66666666666663</ele><time>2026-04-26T08:18:40.745Z</time></trkpt><trkpt lat="44.9034486" lon="7.3153446"><ele>431.0</ele><time>2026-04-26T08:18:41.745Z</time></trkpt><trkpt lat="44.9036308" lon="7.3152909"><ele>431.0</ele><time>2026-04-26T08:18:42.744Z</time></trkpt><trkpt lat="44.9038056" lon="7.3152368"><ele>431.0</ele><time>2026-04-26T08:18:43.745Z</time></trkpt><trkpt lat="44.9039742" lon="7.315185"><ele>431.0</ele><time>2026-04-26T08:18:44.745Z</time></trkpt><trkpt lat="44.9041497" lon="7.3151322"><ele>433.3333333333333</ele><time>2026-04-26T08:18:45.745Z</time></trkpt><trkpt lat="44.9043199" lon="7.3150779"><ele>435.66666666666663</ele><time>2026-04-26T08:18:46.745Z</time></trkpt><trkpt lat="44.9044838" lon="7.31503"><ele>438.0</ele><time>2026-04-26T08:18:47.745Z</time></trkpt><trkpt lat="44.904642" lon="7.3149779"><ele>438.0</ele><time>2026-04-26T08:18:48.745Z</time></trkpt><trkpt lat="44.904794" lon="7.3149293"><ele>438.0</ele><time>2026-04-26T08:18:49.745Z</time></trkpt><trkpt lat="44.9049443" lon="7.314885"><ele>438.0</ele><time>2026-04-26T08:18:50.745Z</time></trkpt><trkpt lat="44.9050944" lon="7.3148435"><ele>438.0</ele><time>2026-04-26T08:18:51.745Z</time></trkpt><trkpt lat="44.9052526" lon="7.3147921"><ele>438.0</ele><time>2026-04-26T08:18:52.745Z</time></trkpt><trkpt lat="44.9054144" lon="7.3147444"><ele>438.0</ele><time>2026-04-26T08:18:53.745Z</time></trkpt><trkpt lat="44.9055676" lon="7.3146984"><ele>437.75</ele><time>2026-04-26T08:18:54.745Z</time></trkpt><trkpt lat="44.9057104" lon="7.3146568"><ele>437.5</ele><time>2026-04-26T08:18:55.745Z</time></trkpt><trkpt lat="44.9058434" lon="7.3146145"><ele>437.25</ele><time>2026-04-26T08:18:56.745Z</time></trkpt><trkpt lat="44.9059627" lon="7.31458"><ele>437.0</ele><time>2026-04-26T08:18:57.745Z</time></trkpt><trkpt lat="44.9060618" lon="7.3145507"><ele>437.49999999999994</ele><time>2026-04-26T08:18:58.745Z</time></trkpt><trkpt lat="44.9061467" lon="7.3145325"><ele>438.0</ele><time>2026-04-26T08:18:59.744Z</time></trkpt><trkpt lat="44.9062268" lon="7.3145315"><ele>438.5</ele><time>2026-04-26T08:19:00.745Z</time></trkpt><trkpt lat="44.9063159" lon="7.3145152"><ele>439.0</ele><time>2026-04-26T08:19:01.745Z</time></trkpt><trkpt lat="44.9064033" lon="7.3144721"><ele>439.49999999999994</ele><time>2026-04-26T08:19:02.745Z</time></trkpt><trkpt lat="44.9064944" lon="7.3144276"><ele>440.0</ele><time>2026-04-26T08:19:03.745Z</time></trkpt><trkpt lat="44.9065929" lon="7.3143898"><ele>440.0</ele><time>2026-04-26T08:19:04.745Z</time></trkpt><trkpt lat="44.9067063" lon="7.3143515"><ele>440.0</ele><time>2026-04-26T08:19:05.745Z</time></trkpt><trkpt lat="44.9068179" lon="7.3143165"><ele>440.0</ele><time>2026-04-26T08:19:06.745Z</time></trkpt><trkpt lat="44.906933" lon="7.3142827"><ele>440.0</ele><time>2026-04-26T08:19:07.745Z</time></trkpt><trkpt lat="44.9070552" lon="7.3142419"><ele>441.0</ele><time>2026-04-26T08:19:08.745Z</time></trkpt><trkpt lat="44.9071769" lon="7.3141977"><ele>442.0</ele><time>2026-04-26T08:19:09.745Z</time></trkpt><trkpt lat="44.9072927" lon="7.3141526"><ele>443.0</ele><time>2026-04-26T08:19:10.745Z</time></trkpt><trkpt lat="44.9074072" lon="7.3140921"><ele>444.0</ele><time>2026-04-26T08:19:11.745Z</time></trkpt><trkpt lat="44.9075105" lon="7.3140059"><ele>444.25</ele><time>2026-04-26T08:19:12.745Z</time></trkpt><trkpt lat="44.9076098" lon="7.3138995"><ele>444.5</ele><time>2026-04-26T08:19:13.745Z</time></trkpt><trkpt lat="44.9077088" lon="7.3137703"><ele>444.75</ele><time>2026-04-26T08:19:14.745Z</time></trkpt><trkpt lat="44.907804" lon="7.3136196"><ele>445.0</ele><time>2026-04-26T08:19:15.745Z</time></trkpt><trkpt lat="44.9078953" lon="7.3134747"><ele>445.0</ele><time>2026-04-26T08:19:16.745Z</time></trkpt><trkpt lat="44.9079821" lon="7.3133361"><ele>445.0</ele><time>2026-04-26T08:19:17.745Z</time></trkpt><trkpt lat="44.9080757" lon="7.3131872"><ele>445.0</ele><time>2026-04-26T08:19:18.744Z</time></trkpt><trkpt lat="44.9081688" lon="7.3130399"><ele>445.0</ele><time>2026-04-26T08:19:19.745Z</time></trkpt><trkpt lat="44.9082596" lon="7.3128836"><ele>446.0</ele><time>2026-04-26T08:19:20.745Z</time></trkpt><trkpt lat="44.9083579" lon="7.3127198"><ele>447.0</ele><time>2026-04-26T08:19:21.745Z</time></trkpt><trkpt lat="44.9084583" lon="7.3125592"><ele>448.0</ele><time>2026-04-26T08:19:22.745Z</time></trkpt><trkpt lat="44.9085519" lon="7.3124118"><ele>449.0</ele><time>2026-04-26T08:19:23.745Z</time></trkpt><trkpt lat="44.9087289" lon="7.3121194"><ele>449.25</ele><time>2026-04-26T08:19:25.745Z</time></trkpt><trkpt lat="44.9088198" lon="7.3119699"><ele>449.5</ele><time>2026-04-26T08:19:26.745Z</time></trkpt><trkpt lat="44.9089122" lon="7.3118182"><ele>449.75</ele><time>2026-04-26T08:19:27.745Z</time></trkpt><trkpt lat="44.9090094" lon="7.3116625"><ele>450.0</ele><time>2026-04-26T08:19:28.745Z</time></trkpt><trkpt lat="44.9090976" lon="7.3115218"><ele>452.0</ele><time>2026-04-26T08:19:29.745Z</time></trkpt><trkpt lat="44.9091784" lon="7.3113898"><ele>454.0</ele><time>2026-04-26T08:19:30.745Z</time></trkpt><trkpt lat="44.9092529" lon="7.3112727"><ele>456.0</ele><time>2026-04-26T08:19:31.745Z</time></trkpt><trkpt lat="44.9093278" lon="7.3111528"><ele>458.0</ele><time>2026-04-26T08:19:32.745Z</time></trkpt><trkpt lat="44.9094127" lon="7.3110333"><ele>458.59999999999997</ele><time>2026-04-26T08:19:33.745Z</time></trkpt><trkpt lat="44.9094936" lon="7.3109323"><ele>459.19999999999993</ele><time>2026-04-26T08:19:34.745Z</time></trkpt><trkpt lat="44.9095879" lon="7.310857"><ele>459.8</ele><time>2026-04-26T08:19:35.745Z</time></trkpt><trkpt lat="44.9096925" lon="7.3107935"><ele>460.4</ele><time>2026-04-26T08:19:36.745Z</time></trkpt><trkpt lat="44.9098023" lon="7.31075"><ele>461.0</ele><time>2026-04-26T08:19:37.745Z</time></trkpt><trkpt lat="44.9099192" lon="7.3107069"><ele>461.0</ele><time>2026-04-26T08:19:38.745Z</time></trkpt><trkpt lat="44.9100378" lon="7.3106846"><ele>461.0</ele><time>2026-04-26T08:19:39.745Z</time></trkpt><trkpt lat="44.9101655" lon="7.3106993"><ele>461.0</ele><time>2026-04-26T08:19:40.745Z</time></trkpt><trkpt lat="44.910291" lon="7.3107119"><ele>461.0</ele><time>2026-04-26T08:19:41.745Z</time></trkpt><trkpt lat="44.9104142" lon="7.3107085"><ele>461.5</ele><time>2026-04-26T08:19:42.745Z</time></trkpt><trkpt lat="44.9105384" lon="7.3106796"><ele>462.0</ele><time>2026-04-26T08:19:43.745Z</time></trkpt><trkpt lat="44.9106595" lon="7.310651"><ele>462.5</ele><time>2026-04-26T08:19:44.745Z</time></trkpt><trkpt lat="44.9107729" lon="7.3106204"><ele>463.0</ele><time>2026-04-26T08:19:45.745Z</time></trkpt><trkpt lat="44.9108802" lon="7.3105559"><ele>464.25</ele><time>2026-04-26T08:19:46.745Z</time></trkpt><trkpt lat="44.9109742" lon="7.310458"><ele>465.5</ele><time>2026-04-26T08:19:47.745Z</time></trkpt><trkpt lat="44.9110669" lon="7.3103296"><ele>466.75</ele><time>2026-04-26T08:19:48.745Z</time></trkpt><trkpt lat="44.9111698" lon="7.3102027"><ele>468.0</ele><time>2026-04-26T08:19:49.745Z</time></trkpt><trkpt lat="44.9112865" lon="7.3100943"><ele>468.0</ele><time>2026-04-26T08:19:50.745Z</time></trkpt><trkpt lat="44.9114019" lon="7.3100007"><ele>468.0</ele><time>2026-04-26T08:19:51.745Z</time></trkpt><trkpt lat="44.9115159" lon="7.3099133"><ele>468.0</ele><time>2026-04-26T08:19:52.744Z</time></trkpt><trkpt lat="44.9116324" lon="7.3098335"><ele>468.0</ele><time>2026-04-26T08:19:53.745Z</time></trkpt><trkpt lat="44.9117546" lon="7.3097605"><ele>470.0</ele><time>2026-04-26T08:19:54.745Z</time></trkpt><trkpt lat="44.911888" lon="7.3096998"><ele>472.0</ele><time>2026-04-26T08:19:55.745Z</time></trkpt><trkpt lat="44.9120309" lon="7.3096476"><ele>474.0</ele><time>2026-04-26T08:19:56.745Z</time></trkpt><trkpt lat="44.9121651" lon="7.3096058"><ele>476.0</ele><time>2026-04-26T08:19:57.745Z</time></trkpt><trkpt lat="44.9122979" lon="7.3095663"><ele>476.0</ele><time>2026-04-26T08:19:58.745Z</time></trkpt><trkpt lat="44.9124305" lon="7.3095337"><ele>476.0</ele><time>2026-04-26T08:19:59.745Z</time></trkpt><trkpt lat="44.9125641" lon="7.3095082"><ele>476.0</ele><time>2026-04-26T08:20:00.745Z</time></trkpt><trkpt lat="44.9126937" lon="7.3094819"><ele>476.0</ele><time>2026-04-26T08:20:01.745Z</time></trkpt><trkpt lat="44.9128217" lon="7.3094448"><ele>477.0</ele><time>2026-04-26T08:20:02.745Z</time></trkpt><trkpt lat="44.9129502" lon="7.3093956"><ele>478.0</ele><time>2026-04-26T08:20:03.745Z</time></trkpt><trkpt lat="44.9130722" lon="7.3093255"><ele>479.0</ele><time>2026-04-26T08:20:04.745Z</time></trkpt><trkpt lat="44.9131834" lon="7.3092642"><ele>480.0</ele><time>2026-04-26T08:20:05.745Z</time></trkpt><trkpt lat="44.9133031" lon="7.3091941"><ele>480.0</ele><time>2026-04-26T08:20:06.745Z</time></trkpt><trkpt lat="44.9134185" lon="7.3091233"><ele>480.0</ele><time>2026-04-26T08:20:07.745Z</time></trkpt><trkpt lat="44.9135376" lon="7.3090707"><ele>480.0</ele><time>2026-04-26T08:20:08.745Z</time></trkpt><trkpt lat="44.9136531" lon="7.3090315"><ele>480.0</ele><time>2026-04-26T08:20:09.745Z</time></trkpt><trkpt lat="44.9137629" lon="7.3090025"><ele>480.0</ele><time>2026-04-26T08:20:10.745Z</time></trkpt><trkpt lat="44.9138579" lon="7.3089911"><ele>480.0</ele><time>2026-04-26T08:20:11.745Z</time></trkpt><trkpt lat="44.9139451" lon="7.3089795"><ele>480.0</ele><time>2026-04-26T08:20:12.745Z</time></trkpt><trkpt lat="44.9140207" lon="7.3089741"><ele>480.0</ele><time>2026-04-26T08:20:13.745Z</time></trkpt><trkpt lat="44.9140882" lon="7.3089696"><ele>480.0</ele><time>2026-04-26T08:20:14.745Z</time></trkpt><trkpt lat="44.9141962" lon="7.3089435"><ele>480.0</ele><time>2026-04-26T08:20:16.745Z</time></trkpt><trkpt lat="44.9142748" lon="7.3090038"><ele>480.0</ele><time>2026-04-26T08:20:18.745Z</time></trkpt><trkpt lat="44.9142868" lon="7.3091199"><ele>480.0</ele><time>2026-04-26T08:20:20.745Z</time></trkpt><trkpt lat="44.9143018" lon="7.3092098"><ele>480.0</ele><time>2026-04-26T08:20:36.745Z</time></trkpt><trkpt lat="44.9143355" lon="7.3093142"><ele>480.0</ele><time>2026-04-26T08:20:38.745Z</time></trkpt><trkpt lat="44.9143804" lon="7.3094738"><ele>480.0</ele><time>2026-04-26T08:20:40.745Z</time></trkpt><trkpt lat="44.9144119" lon="7.3095671"><ele>480.0</ele><time>2026-04-26T08:20:41.745Z</time></trkpt><trkpt lat="44.9144529" lon="7.3096803"><ele>479.6666666666667</ele><time>2026-04-26T08:20:42.745Z</time></trkpt><trkpt lat="44.9144934" lon="7.3097858"><ele>479.33333333333337</ele><time>2026-04-26T08:20:43.745Z</time></trkpt><trkpt lat="44.9145337" lon="7.3098869"><ele>479.0</ele><time>2026-04-26T08:20:44.745Z</time></trkpt><trkpt lat="44.9145676" lon="7.3099924"><ele>478.6666666666667</ele><time>2026-04-26T08:20:45.744Z</time></trkpt><trkpt lat="44.914606" lon="7.3100986"><ele>478.33333333333337</ele><time>2026-04-26T08:20:46.745Z</time></trkpt><trkpt lat="44.9146409" lon="7.3101952"><ele>478.0</ele><time>2026-04-26T08:20:47.745Z</time></trkpt><trkpt lat="44.9146702" lon="7.3103025"><ele>478.00000000000006</ele><time>2026-04-26T08:20:48.745Z</time></trkpt><trkpt lat="44.9146816" lon="7.3104222"><ele>478.0</ele><time>2026-04-26T08:20:49.745Z</time></trkpt><trkpt lat="44.9146914" lon="7.310546"><ele>478.0</ele><time>2026-04-26T08:20:50.745Z</time></trkpt><trkpt lat="44.9146927" lon="7.3106635"><ele>478.0</ele><time>2026-04-26T08:20:51.745Z</time></trkpt><trkpt lat="44.9147006" lon="7.3107705"><ele>478.00000000000006</ele><time>2026-04-26T08:20:52.745Z</time></trkpt><trkpt lat="44.9147153" lon="7.3108655"><ele>478.0</ele><time>2026-04-26T08:20:53.745Z</time></trkpt><trkpt lat="44.914752" lon="7.3109433"><ele>478.0</ele><time>2026-04-26T08:20:54.745Z</time></trkpt><trkpt lat="44.9148157" lon="7.3109944"><ele>477.99999999999994</ele><time>2026-04-26T08:20:55.745Z</time></trkpt><trkpt lat="44.9148993" lon="7.3110172"><ele>477.99999999999994</ele><time>2026-04-26T08:20:56.745Z</time></trkpt><trkpt lat="44.9150026" lon="7.3110146"><ele>478.0</ele><time>2026-04-26T08:20:57.745Z</time></trkpt><trkpt lat="44.9151239" lon="7.3109918"><ele>478.0</ele><time>2026-04-26T08:20:58.745Z</time></trkpt><trkpt lat="44.915232" lon="7.3109625"><ele>479.50000000000006</ele><time>2026-04-26T08:20:59.745Z</time></trkpt><trkpt lat="44.9153375" lon="7.3109238"><ele>481.0</ele><time>2026-04-26T08:21:00.745Z</time></trkpt><trkpt lat="44.9154381" lon="7.3108932"><ele>482.5</ele><time>2026-04-26T08:21:01.745Z</time></trkpt><trkpt lat="44.9155095" lon="7.3108831"><ele>484.0</ele><time>2026-04-26T08:21:02.745Z</time></trkpt><trkpt lat="44.9155754" lon="7.3108747"><ele>485.50000000000006</ele><time>2026-04-26T08:21:03.745Z</time></trkpt><trkpt lat="44.9156396" lon="7.3108698"><ele>487.0</ele><time>2026-04-26T08:21:04.745Z</time></trkpt><trkpt lat="44.9157376" lon="7.3109021"><ele>487.0</ele><time>2026-04-26T08:21:06.744Z</time></trkpt><trkpt lat="44.9157793" lon="7.310977"><ele>487.0</ele><time>2026-04-26T08:21:08.745Z</time></trkpt><trkpt lat="44.9157263" lon="7.3110488"><ele>487.0</ele><time>2026-04-26T08:21:10.745Z</time></trkpt><trkpt lat="44.915672" lon="7.3111191"><ele>487.0</ele><time>2026-04-26T08:21:12.745Z</time></trkpt><trkpt lat="44.9157211" lon="7.311211"><ele>487.0</ele><time>2026-04-26T08:21:14.745Z</time></trkpt><trkpt lat="44.9157931" lon="7.3112111"><ele>487.0</ele><time>2026-04-26T08:21:15.744Z</time></trkpt><trkpt lat="44.9158611" lon="7.3112427"><ele>487.0</ele><time>2026-04-26T08:21:16.744Z</time></trkpt><trkpt lat="44.9159342" lon="7.3112867"><ele>490.5</ele><time>2026-04-26T08:21:17.745Z</time></trkpt><trkpt lat="44.9160215" lon="7.3113635"><ele>494.0</ele><time>2026-04-26T08:21:18.745Z</time></trkpt><trkpt lat="44.9161126" lon="7.3114749"><ele>497.5</ele><time>2026-04-26T08:21:19.745Z</time></trkpt><trkpt lat="44.9162083" lon="7.311597"><ele>501.0</ele><time>2026-04-26T08:21:20.745Z</time></trkpt><trkpt lat="44.9162982" lon="7.3117028"><ele>502.20000000000005</ele><time>2026-04-26T08:21:21.745Z</time></trkpt><trkpt lat="44.9164045" lon="7.3117941"><ele>503.40000000000003</ele><time>2026-04-26T08:21:22.745Z</time></trkpt><trkpt lat="44.9165007" lon="7.3118695"><ele>504.6</ele><time>2026-04-26T08:21:23.745Z</time></trkpt><trkpt lat="44.9165685" lon="7.3119621"><ele>505.8</ele><time>2026-04-26T08:21:24.745Z</time></trkpt><trkpt lat="44.9166252" lon="7.3120891"><ele>507.0</ele><time>2026-04-26T08:21:25.745Z</time></trkpt><trkpt lat="44.9166825" lon="7.312231"><ele>510.0</ele><time>2026-04-26T08:21:26.745Z</time></trkpt><trkpt lat="44.9167434" lon="7.3123677"><ele>513.0</ele><time>2026-04-26T08:21:27.744Z</time></trkpt><trkpt lat="44.9168183" lon="7.3125099"><ele>516.0</ele><time>2026-04-26T08:21:28.745Z</time></trkpt><trkpt lat="44.9168883" lon="7.3126215"><ele>519.0</ele><time>2026-04-26T08:21:29.745Z</time></trkpt><trkpt lat="44.9169474" lon="7.3127162"><ele>522.0</ele><time>2026-04-26T08:21:30.745Z</time></trkpt><trkpt lat="44.9169911" lon="7.3128093"><ele>522.0</ele><time>2026-04-26T08:21:31.745Z</time></trkpt><trkpt lat="44.9170253" lon="7.3129183"><ele>522.0</ele><time>2026-04-26T08:21:32.745Z</time></trkpt><trkpt lat="44.9170351" lon="7.3130336"><ele>522.0</ele><time>2026-04-26T08:21:33.745Z</time></trkpt><trkpt lat="44.9170257" lon="7.3131538"><ele>522.0</ele><time>2026-04-26T08:21:34.745Z</time></trkpt><trkpt lat="44.9170033" lon="7.3132694"><ele>522.0</ele><time>2026-04-26T08:21:35.745Z</time></trkpt><trkpt lat="44.9169576" lon="7.3133933"><ele>522.0</ele><time>2026-04-26T08:21:36.745Z</time></trkpt><trkpt lat="44.9169073" lon="7.3135279"><ele>523.2</ele><time>2026-04-26T08:21:37.745Z</time></trkpt><trkpt lat="44.9168778" lon="7.3136616"><ele>524.4000000000001</ele><time>2026-04-26T08:21:38.745Z</time></trkpt><trkpt lat="44.916866" lon="7.3138213"><ele>525.5999999999999</ele><time>2026-04-26T08:21:39.745Z</time></trkpt><trkpt lat="44.9168552" lon="7.3139764"><ele>526.8</ele><time>2026-04-26T08:21:40.745Z</time></trkpt><trkpt lat="44.9168417" lon="7.3141252"><ele>528.0</ele><time>2026-04-26T08:21:41.745Z</time></trkpt><trkpt lat="44.9168274" lon="7.3142587"><ele>529.0</ele><time>2026-04-26T08:21:42.745Z</time></trkpt><trkpt lat="44.9167992" lon="7.3143901"><ele>530.0</ele><time>2026-04-26T08:21:43.745Z</time></trkpt><trkpt lat="44.9167513" lon="7.3145247"><ele>531.0</ele><time>2026-04-26T08:21:44.745Z</time></trkpt><trkpt lat="44.916688" lon="7.3146482"><ele>532.0</ele><time>2026-04-26T08:21:45.745Z</time></trkpt><trkpt lat="44.9166315" lon="7.3147553"><ele>533.0</ele><time>2026-04-26T08:21:46.745Z</time></trkpt><trkpt lat="44.9165868" lon="7.31487"><ele>534.1999999999999</ele><time>2026-04-26T08:21:47.745Z</time></trkpt><trkpt lat="44.9165549" lon="7.3150034"><ele>535.4</ele><time>2026-04-26T08:21:48.745Z</time></trkpt><trkpt lat="44.91653" lon="7.3151537"><ele>536.5999999999999</ele><time>2026-04-26T08:21:49.744Z</time></trkpt><trkpt lat="44.916507" lon="7.3153162"><ele>537.8</ele><time>2026-04-26T08:21:50.744Z</time></trkpt><trkpt lat="44.91648" lon="7.3154772"><ele>539.0</ele><time>2026-04-26T08:21:51.744Z</time></trkpt><trkpt lat="44.9164484" lon="7.3156234"><ele>540.8</ele><time>2026-04-26T08:21:52.744Z</time></trkpt><trkpt lat="44.9164168" lon="7.3157757"><ele>542.5999999999999</ele><time>2026-04-26T08:21:53.745Z</time></trkpt><trkpt lat="44.9163656" lon="7.3159168"><ele>544.4</ele><time>2026-04-26T08:21:54.745Z</time></trkpt><trkpt lat="44.9163208" lon="7.3160617"><ele>546.1999999999999</ele><time>2026-04-26T08:21:55.745Z</time></trkpt><trkpt lat="44.9162726" lon="7.3162041"><ele>548.0</ele><time>2026-04-26T08:21:56.745Z</time></trkpt><trkpt lat="44.9162436" lon="7.3163515"><ele>548.5</ele><time>2026-04-26T08:21:57.745Z</time></trkpt><trkpt lat="44.9162263" lon="7.3164847"><ele>549.0</ele><time>2026-04-26T08:21:58.744Z</time></trkpt><trkpt lat="44.9162198" lon="7.3165978"><ele>549.5</ele><time>2026-04-26T08:21:59.745Z</time></trkpt><trkpt lat="44.9162192" lon="7.3166953"><ele>550.0</ele><time>2026-04-26T08:22:00.745Z</time></trkpt><trkpt lat="44.9162193" lon="7.3168509"><ele>550.5</ele><time>2026-04-26T08:22:02.745Z</time></trkpt><trkpt lat="44.9162275" lon="7.3169502"><ele>551.0</ele><time>2026-04-26T08:22:04.745Z</time></trkpt><trkpt lat="44.9162832" lon="7.3170276"><ele>551.0</ele><time>2026-04-26T08:22:11.745Z</time></trkpt><trkpt lat="44.9163875" lon="7.3169922"><ele>551.0</ele><time>2026-04-26T08:22:13.745Z</time></trkpt><trkpt lat="44.9164457" lon="7.3169461"><ele>551.0</ele><time>2026-04-26T08:22:14.745Z</time></trkpt><trkpt lat="44.9164994" lon="7.3168967"><ele>551.0</ele><time>2026-04-26T08:22:15.745Z</time></trkpt><trkpt lat="44.9165741" lon="7.3168282"><ele>551.0</ele><time>2026-04-26T08:22:16.745Z</time></trkpt><trkpt lat="44.9166733" lon="7.3167314"><ele>551.0</ele><time>2026-04-26T08:22:17.745Z</time></trkpt><trkpt lat="44.9167862" lon="7.3166326"><ele>553.0</ele><time>2026-04-26T08:22:18.745Z</time></trkpt><trkpt lat="44.9169056" lon="7.3165356"><ele>555.0</ele><time>2026-04-26T08:22:19.745Z</time></trkpt><trkpt lat="44.9170418" lon="7.3164234"><ele>557.0</ele><time>2026-04-26T08:22:20.745Z</time></trkpt><trkpt lat="44.9171879" lon="7.3163066"><ele>557.0</ele><time>2026-04-26T08:22:21.745Z</time></trkpt><trkpt lat="44.91732" lon="7.3162011"><ele>557.0</ele><time>2026-04-26T08:22:22.745Z</time></trkpt><trkpt lat="44.9174325" lon="7.3161104"><ele>557.0</ele><time>2026-04-26T08:22:23.745Z</time></trkpt><trkpt lat="44.9175342" lon="7.3160293"><ele>557.0</ele><time>2026-04-26T08:22:24.745Z</time></trkpt><trkpt lat="44.9176331" lon="7.3159473"><ele>557.8000000000001</ele><time>2026-04-26T08:22:25.745Z</time></trkpt><trkpt lat="44.9177256" lon="7.3158662"><ele>558.6</ele><time>2026-04-26T08:22:26.745Z</time></trkpt><trkpt lat="44.9178061" lon="7.3157903"><ele>559.4000000000001</ele><time>2026-04-26T08:22:27.745Z</time></trkpt><trkpt lat="44.9178769" lon="7.3157229"><ele>560.2</ele><time>2026-04-26T08:22:28.745Z</time></trkpt><trkpt lat="44.9179489" lon="7.3156627"><ele>561.0</ele><time>2026-04-26T08:22:29.745Z</time></trkpt><trkpt lat="44.9180154" lon="7.315609"><ele>561.0</ele><time>2026-04-26T08:22:30.745Z</time></trkpt><trkpt lat="44.9180769" lon="7.3155619"><ele>561.0</ele><time>2026-04-26T08:22:31.745Z</time></trkpt><trkpt lat="44.918165" lon="7.3155198"><ele>561.0</ele><time>2026-04-26T08:22:33.745Z</time></trkpt><trkpt lat="44.9182328" lon="7.3155467"><ele>561.0</ele><time>2026-04-26T08:22:35.745Z</time></trkpt><trkpt lat="44.918307" lon="7.3155994"><ele>561.0</ele><time>2026-04-26T08:22:37.745Z</time></trkpt><trkpt lat="44.9183711" lon="7.3156577"><ele>561.0</ele><time>2026-04-26T08:22:39.745Z</time></trkpt><trkpt lat="44.9184233" lon="7.3157119"><ele>562.1666666666666</ele><time>2026-04-26T08:22:42.745Z</time></trkpt><trkpt lat="44.9185005" lon="7.3157498"><ele>563.3333333333334</ele><time>2026-04-26T08:28:33.745Z</time></trkpt><trkpt lat="44.9185635" lon="7.3157741"><ele>564.5</ele><time>2026-04-26T08:28:34.745Z</time></trkpt><trkpt lat="44.9186273" lon="7.3157963"><ele>565.6666666666667</ele><time>2026-04-26T08:28:35.745Z</time></trkpt><trkpt lat="44.9187047" lon="7.3158165"><ele>566.8333333333334</ele><time>2026-04-26T08:28:36.745Z</time></trkpt><trkpt lat="44.9187954" lon="7.3158332"><ele>568.0</ele><time>2026-04-26T08:28:37.745Z</time></trkpt><trkpt lat="44.9188999" lon="7.315848"><ele>568.0</ele><time>2026-04-26T08:28:38.745Z</time></trkpt><trkpt lat="44.9189897" lon="7.3158632"><ele>568.0</ele><time>2026-04-26T08:28:39.745Z</time></trkpt><trkpt lat="44.9190766" lon="7.3158775"><ele>568.0</ele><time>2026-04-26T08:28:40.745Z</time></trkpt><trkpt lat="44.9191669" lon="7.3158827"><ele>568.0</ele><time>2026-04-26T08:28:41.745Z</time></trkpt><trkpt lat="44.9192572" lon="7.3158786"><ele>568.0</ele><time>2026-04-26T08:28:42.745Z</time></trkpt><trkpt lat="44.9193436" lon="7.3158666"><ele>568.0</ele><time>2026-04-26T08:28:43.745Z</time></trkpt><trkpt lat="44.9194271" lon="7.3158502"><ele>568.4</ele><time>2026-04-26T08:28:44.745Z</time></trkpt><trkpt lat="44.9194953" lon="7.3158043"><ele>568.8</ele><time>2026-04-26T08:28:45.744Z</time></trkpt><trkpt lat="44.9195864" lon="7.3157603"><ele>569.2</ele><time>2026-04-26T08:28:46.745Z</time></trkpt><trkpt lat="44.919673" lon="7.3156932"><ele>569.6</ele><time>2026-04-26T08:28:47.745Z</time></trkpt><trkpt lat="44.919758" lon="7.3156108"><ele>570.0</ele><time>2026-04-26T08:28:48.745Z</time></trkpt><trkpt lat="44.9198311" lon="7.3155273"><ele>570.0</ele><time>2026-04-26T08:28:49.745Z</time></trkpt><trkpt lat="44.9199002" lon="7.3154563"><ele>570.0</ele><time>2026-04-26T08:28:50.745Z</time></trkpt><trkpt lat="44.9199693" lon="7.3153836"><ele>570.0</ele><time>2026-04-26T08:28:51.745Z</time></trkpt><trkpt lat="44.9200366" lon="7.3153303"><ele>570.0</ele><time>2026-04-26T08:28:52.745Z</time></trkpt><trkpt lat="44.9200945" lon="7.315278"><ele>570.0</ele><time>2026-04-26T08:28:53.745Z</time></trkpt><trkpt lat="44.920154" lon="7.3152199"><ele>570.0</ele><time>2026-04-26T08:28:54.745Z</time></trkpt><trkpt lat="44.9202414" lon="7.3151119"><ele>570.0</ele><time>2026-04-26T08:28:56.745Z</time></trkpt><trkpt lat="44.920303" lon="7.3150173"><ele>570.0</ele><time>2026-04-26T08:28:58.745Z</time></trkpt><trkpt lat="44.920346" lon="7.3149205"><ele>570.0</ele><time>2026-04-26T08:29:00.745Z</time></trkpt><trkpt lat="44.9203789" lon="7.314809"><ele>570.0</ele><time>2026-04-26T08:29:02.744Z</time></trkpt><trkpt lat="44.9203794" lon="7.3147012"><ele>570.0</ele><time>2026-04-26T08:29:04.745Z</time></trkpt><trkpt lat="44.9203233" lon="7.3146547"><ele>570.0</ele><time>2026-04-26T08:29:06.745Z</time></trkpt><trkpt lat="44.9202209" lon="7.3146809"><ele>571.8333333333334</ele><time>2026-04-26T08:29:08.745Z</time></trkpt><trkpt lat="44.9201216" lon="7.314653"><ele>573.6666666666666</ele><time>2026-04-26T08:29:10.745Z</time></trkpt><trkpt lat="44.9200527" lon="7.31451"><ele>575.5</ele><time>2026-04-26T08:29:12.745Z</time></trkpt><trkpt lat="44.9200317" lon="7.3144234"><ele>577.3333333333333</ele><time>2026-04-26T08:29:13.745Z</time></trkpt><trkpt lat="44.92001" lon="7.3143395"><ele>579.1666666666666</ele><time>2026-04-26T08:29:14.745Z</time></trkpt><trkpt lat="44.9199812" lon="7.3142539"><ele>581.0</ele><time>2026-04-26T08:29:15.745Z</time></trkpt><trkpt lat="44.9199658" lon="7.314158"><ele>581.0</ele><time>2026-04-26T08:29:16.745Z</time></trkpt><trkpt lat="44.9199419" lon="7.3139955"><ele>581.0</ele><time>2026-04-26T08:29:18.745Z</time></trkpt><trkpt lat="44.9199753" lon="7.3138574"><ele>581.0</ele><time>2026-04-26T08:29:20.745Z</time></trkpt><trkpt lat="44.9200317" lon="7.3137296"><ele>581.0</ele><time>2026-04-26T08:29:22.745Z</time></trkpt><trkpt lat="44.9201116" lon="7.3136358"><ele>581.0</ele><time>2026-04-26T08:29:24.745Z</time></trkpt><trkpt lat="44.920212" lon="7.3135503"><ele>583.2</ele><time>2026-04-26T08:29:26.745Z</time></trkpt><trkpt lat="44.9202726" lon="7.3134928"><ele>585.4000000000001</ele><time>2026-04-26T08:29:27.745Z</time></trkpt><trkpt lat="44.9203413" lon="7.3134071"><ele>587.6</ele><time>2026-04-26T08:29:28.745Z</time></trkpt><trkpt lat="44.9204228" lon="7.3133082"><ele>589.8000000000001</ele><time>2026-04-26T08:29:29.745Z</time></trkpt><trkpt lat="44.9204898" lon="7.3132334"><ele>592.0</ele><time>2026-04-26T08:29:30.745Z</time></trkpt><trkpt lat="44.9205679" lon="7.3131498"><ele>592.0</ele><time>2026-04-26T08:29:31.745Z</time></trkpt><trkpt lat="44.9206559" lon="7.3130829"><ele>592.0</ele><time>2026-04-26T08:29:32.745Z</time></trkpt><trkpt lat="44.9207391" lon="7.3130392"><ele>592.0</ele><time>2026-04-26T08:29:33.745Z</time></trkpt><trkpt lat="44.9208091" lon="7.3130222"><ele>592.0</ele><time>2026-04-26T08:29:34.745Z</time></trkpt><trkpt lat="44.9208826" lon="7.3130366"><ele>592.0</ele><time>2026-04-26T08:29:35.745Z</time></trkpt><trkpt lat="44.9209623" lon="7.3130763"><ele>592.0</ele><time>2026-04-26T08:29:36.745Z</time></trkpt><trkpt lat="44.9210439" lon="7.3131176"><ele>592.1666666666667</ele><time>2026-04-26T08:29:37.745Z</time></trkpt><trkpt lat="44.9211214" lon="7.3131584"><ele>592.3333333333334</ele><time>2026-04-26T08:29:38.745Z</time></trkpt><trkpt lat="44.9211907" lon="7.3131671"><ele>592.5</ele><time>2026-04-26T08:29:39.745Z</time></trkpt><trkpt lat="44.9212692" lon="7.3131618"><ele>592.6666666666666</ele><time>2026-04-26T08:29:40.745Z</time></trkpt><trkpt lat="44.9213429" lon="7.3131429"><ele>592.8333333333333</ele><time>2026-04-26T08:29:41.745Z</time></trkpt><trkpt lat="44.9214116" lon="7.3130728"><ele>593.0</ele><time>2026-04-26T08:29:42.745Z</time></trkpt><trkpt lat="44.9214833" lon="7.313019"><ele>594.6</ele><time>2026-04-26T08:29:43.745Z</time></trkpt><trkpt lat="44.9215519" lon="7.3129219"><ele>596.1999999999999</ele><time>2026-04-26T08:29:44.745Z</time></trkpt><trkpt lat="44.9216271" lon="7.3128307"><ele>597.8</ele><time>2026-04-26T08:29:45.745Z</time></trkpt><trkpt lat="44.9217002" lon="7.3127457"><ele>599.4</ele><time>2026-04-26T08:29:46.745Z</time></trkpt><trkpt lat="44.9217744" lon="7.3126537"><ele>601.0</ele><time>2026-04-26T08:29:47.745Z</time></trkpt><trkpt lat="44.9218494" lon="7.3125698"><ele>602.8333333333334</ele><time>2026-04-26T08:29:48.745Z</time></trkpt><trkpt lat="44.9219165" lon="7.312493"><ele>604.6666666666667</ele><time>2026-04-26T08:29:49.745Z</time></trkpt><trkpt lat="44.9219756" lon="7.3124323"><ele>606.5</ele><time>2026-04-26T08:29:50.745Z</time></trkpt><trkpt lat="44.9220305" lon="7.3123578"><ele>608.3333333333334</ele><time>2026-04-26T08:29:51.745Z</time></trkpt><trkpt lat="44.9221047" lon="7.3122263"><ele>610.1666666666666</ele><time>2026-04-26T08:29:53.745Z</time></trkpt><trkpt lat="44.9221124" lon="7.3121088"><ele>612.0</ele><time>2026-04-26T08:29:54.745Z</time></trkpt><trkpt lat="44.9221213" lon="7.3120043"><ele>612.0</ele><time>2026-04-26T08:29:55.745Z</time></trkpt><trkpt lat="44.9221222" lon="7.3118963"><ele>612.0</ele><time>2026-04-26T08:29:56.745Z</time></trkpt><trkpt lat="44.9221353" lon="7.3117942"><ele>612.0</ele><time>2026-04-26T08:29:57.744Z</time></trkpt><trkpt lat="44.9221569" lon="7.3116974"><ele>612.0</ele><time>2026-04-26T08:29:58.745Z</time></trkpt><trkpt lat="44.9221931" lon="7.311607"><ele>612.0</ele><time>2026-04-26T08:29:59.745Z</time></trkpt><trkpt lat="44.9222378" lon="7.311531"><ele>612.0</ele><time>2026-04-26T08:30:00.745Z</time></trkpt><trkpt lat="44.9222845" lon="7.3114529"><ele>612.0</ele><time>2026-04-26T08:30:01.745Z</time></trkpt><trkpt lat="44.922338" lon="7.3113986"><ele>612.0</ele><time>2026-04-26T08:30:02.745Z</time></trkpt><trkpt lat="44.9224016" lon="7.3113418"><ele>612.0</ele><time>2026-04-26T08:30:03.745Z</time></trkpt><trkpt lat="44.9224619" lon="7.3112902"><ele>612.0</ele><time>2026-04-26T08:30:04.745Z</time></trkpt><trkpt lat="44.9225576" lon="7.3111783"><ele>612.0</ele><time>2026-04-26T08:30:06.745Z</time></trkpt><trkpt lat="44.9226087" lon="7.3110222"><ele>612.0</ele><time>2026-04-26T08:30:08.745Z</time></trkpt><trkpt lat="44.9226125" lon="7.3109166"><ele>616.8333333333334</ele><time>2026-04-26T08:30:09.745Z</time></trkpt><trkpt lat="44.9226227" lon="7.3107973"><ele>621.6666666666666</ele><time>2026-04-26T08:30:10.745Z</time></trkpt><trkpt lat="44.9226307" lon="7.3106742"><ele>626.5</ele><time>2026-04-26T08:30:11.745Z</time></trkpt><trkpt lat="44.922639" lon="7.3105695"><ele>631.3333333333333</ele><time>2026-04-26T08:30:12.745Z</time></trkpt><trkpt lat="44.9226513" lon="7.3104654"><ele>636.1666666666666</ele><time>2026-04-26T08:30:13.745Z</time></trkpt><trkpt lat="44.9226839" lon="7.3102932"><ele>641.0</ele><time>2026-04-26T08:30:15.745Z</time></trkpt><trkpt lat="44.9227134" lon="7.3102074"><ele>641.0</ele><time>2026-04-26T08:30:16.744Z</time></trkpt><trkpt lat="44.9227513" lon="7.3101244"><ele>641.0</ele><time>2026-04-26T08:30:17.745Z</time></trkpt><trkpt lat="44.9228002" lon="7.3100425"><ele>641.0</ele><time>2026-04-26T08:30:18.745Z</time></trkpt><trkpt lat="44.9228397" lon="7.3099295"><ele>641.0</ele><time>2026-04-26T08:30:19.745Z</time></trkpt><trkpt lat="44.9228773" lon="7.3098103"><ele>641.0</ele><time>2026-04-26T08:30:20.745Z</time></trkpt><trkpt lat="44.9229093" lon="7.3096791"><ele>641.0</ele><time>2026-04-26T08:30:21.745Z</time></trkpt><trkpt lat="44.9229327" lon="7.309557"><ele>641.0</ele><time>2026-04-26T08:30:22.745Z</time></trkpt><trkpt lat="44.9229518" lon="7.3094569"><ele>641.0</ele><time>2026-04-26T08:30:23.745Z</time></trkpt><trkpt lat="44.9229682" lon="7.309343"><ele>641.0</ele><time>2026-04-26T08:30:24.745Z</time></trkpt><trkpt lat="44.9229969" lon="7.30924"><ele>641.0</ele><time>2026-04-26T08:30:25.745Z</time></trkpt><trkpt lat="44.9230348" lon="7.3091254"><ele>641.0</ele><time>2026-04-26T08:30:26.745Z</time></trkpt><trkpt lat="44.9230828" lon="7.3089832"><ele>641.0</ele><time>2026-04-26T08:30:27.745Z</time></trkpt><trkpt lat="44.92313" lon="7.3088375"><ele>640.4</ele><time>2026-04-26T08:30:28.745Z</time></trkpt><trkpt lat="44.9231656" lon="7.3087135"><ele>639.8</ele><time>2026-04-26T08:30:29.745Z</time></trkpt><trkpt lat="44.923206" lon="7.308599"><ele>639.1999999999999</ele><time>2026-04-26T08:30:30.745Z</time></trkpt><trkpt lat="44.9232521" lon="7.3084936"><ele>638.5999999999999</ele><time>2026-04-26T08:30:31.744Z</time></trkpt><trkpt lat="44.923301" lon="7.3083898"><ele>638.0</ele><time>2026-04-26T08:30:32.745Z</time></trkpt><trkpt lat="44.9233471" lon="7.3082819"><ele>638.0</ele><time>2026-04-26T08:30:33.745Z</time></trkpt><trkpt lat="44.9233914" lon="7.3081601"><ele>638.0</ele><time>2026-04-26T08:30:34.745Z</time></trkpt><trkpt lat="44.9234345" lon="7.3080377"><ele>638.0</ele><time>2026-04-26T08:30:35.745Z</time></trkpt><trkpt lat="44.9234769" lon="7.307906"><ele>638.0</ele><time>2026-04-26T08:30:36.745Z</time></trkpt><trkpt lat="44.9235221" lon="7.307787"><ele>638.0</ele><time>2026-04-26T08:30:37.745Z</time></trkpt><trkpt lat="44.9235686" lon="7.3076685"><ele>639.1666666666666</ele><time>2026-04-26T08:30:38.745Z</time></trkpt><trkpt lat="44.9236243" lon="7.3075639"><ele>640.3333333333333</ele><time>2026-04-26T08:30:39.744Z</time></trkpt><trkpt lat="44.9236578" lon="7.3074287"><ele>641.5</ele><time>2026-04-26T08:30:40.745Z</time></trkpt><trkpt lat="44.923714" lon="7.3073369"><ele>642.6666666666666</ele><time>2026-04-26T08:30:41.745Z</time></trkpt><trkpt lat="44.923765" lon="7.3072533"><ele>643.8333333333334</ele><time>2026-04-26T08:30:42.745Z</time></trkpt><trkpt lat="44.9238276" lon="7.3071757"><ele>645.0</ele><time>2026-04-26T08:30:43.745Z</time></trkpt><trkpt lat="44.9238866" lon="7.3070986"><ele>645.0</ele><time>2026-04-26T08:30:44.745Z</time></trkpt><trkpt lat="44.9239478" lon="7.3070077"><ele>645.0</ele><time>2026-04-26T08:30:45.745Z</time></trkpt><trkpt lat="44.9240087" lon="7.3069342"><ele>645.0</ele><time>2026-04-26T08:30:46.745Z</time></trkpt><trkpt lat="44.924066" lon="7.3068834"><ele>645.0</ele><time>2026-04-26T08:30:47.745Z</time></trkpt><trkpt lat="44.9241243" lon="7.3068495"><ele>645.0</ele><time>2026-04-26T08:30:48.745Z</time></trkpt><trkpt lat="44.9242114" lon="7.3067924"><ele>645.0</ele><time>2026-04-26T08:30:50.744Z</time></trkpt><trkpt lat="44.9242883" lon="7.3067278"><ele>645.2</ele><time>2026-04-26T08:30:52.745Z</time></trkpt><trkpt lat="44.9243702" lon="7.3066543"><ele>645.4</ele><time>2026-04-26T08:30:54.745Z</time></trkpt><trkpt lat="44.924445" lon="7.3065861"><ele>645.5999999999999</ele><time>2026-04-26T08:30:56.744Z</time></trkpt><trkpt lat="44.9245387" lon="7.3065165"><ele>645.8</ele><time>2026-04-26T08:30:58.745Z</time></trkpt><trkpt lat="44.9246227" lon="7.3064183"><ele>646.0</ele><time>2026-04-26T08:31:00.745Z</time></trkpt><trkpt lat="44.9247179" lon="7.3063146"><ele>646.0</ele><time>2026-04-26T08:31:02.745Z</time></trkpt><trkpt lat="44.9247749" lon="7.3062686"><ele>646.0</ele><time>2026-04-26T08:31:03.745Z</time></trkpt><trkpt lat="44.9248298" lon="7.3062076"><ele>646.0</ele><time>2026-04-26T08:31:04.745Z</time></trkpt><trkpt lat="44.9248894" lon="7.3061422"><ele>646.0</ele><time>2026-04-26T08:31:05.745Z</time></trkpt><trkpt lat="44.9249444" lon="7.3060647"><ele>646.0</ele><time>2026-04-26T08:31:06.744Z</time></trkpt><trkpt lat="44.9250066" lon="7.3059684"><ele>646.0</ele><time>2026-04-26T08:31:07.745Z</time></trkpt><trkpt lat="44.925071" lon="7.3058797"><ele>647.6666666666667</ele><time>2026-04-26T08:31:08.745Z</time></trkpt><trkpt lat="44.9251412" lon="7.3058066"><ele>649.3333333333334</ele><time>2026-04-26T08:31:09.745Z</time></trkpt><trkpt lat="44.9252058" lon="7.3057235"><ele>651.0</ele><time>2026-04-26T08:31:10.745Z</time></trkpt><trkpt lat="44.9252676" lon="7.3056512"><ele>652.6666666666666</ele><time>2026-04-26T08:31:11.745Z</time></trkpt><trkpt lat="44.9253297" lon="7.3055526"><ele>654.3333333333333</ele><time>2026-04-26T08:31:12.745Z</time></trkpt><trkpt lat="44.9253879" lon="7.305463"><ele>656.0</ele><time>2026-04-26T08:31:13.745Z</time></trkpt><trkpt lat="44.9254321" lon="7.3053758"><ele>656.0</ele><time>2026-04-26T08:31:14.745Z</time></trkpt><trkpt lat="44.9254785" lon="7.3053018"><ele>656.0</ele><time>2026-04-26T08:31:15.745Z</time></trkpt><trkpt lat="44.9255296" lon="7.3052347"><ele>656.0</ele><time>2026-04-26T08:31:16.745Z</time></trkpt><trkpt lat="44.9256344" lon="7.3051433"><ele>656.0</ele><time>2026-04-26T08:31:18.745Z</time></trkpt><trkpt lat="44.9256992" lon="7.3051219"><ele>656.0</ele><time>2026-04-26T08:31:19.745Z</time></trkpt><trkpt lat="44.9257692" lon="7.3051267"><ele>656.0</ele><time>2026-04-26T08:31:20.745Z</time></trkpt><trkpt lat="44.9258816" lon="7.3050775"><ele>659.8</ele><time>2026-04-26T08:31:22.745Z</time></trkpt><trkpt lat="44.9259283" lon="7.3049616"><ele>663.5999999999999</ele><time>2026-04-26T08:31:23.745Z</time></trkpt><trkpt lat="44.9259696" lon="7.3048818"><ele>667.4</ele><time>2026-04-26T08:31:24.745Z</time></trkpt><trkpt lat="44.9259939" lon="7.3047659"><ele>671.2</ele><time>2026-04-26T08:31:25.745Z</time></trkpt><trkpt lat="44.926002" lon="7.3046458"><ele>675.0</ele><time>2026-04-26T08:31:26.745Z</time></trkpt><trkpt lat="44.9259746" lon="7.3044832"><ele>675.0</ele><time>2026-04-26T08:31:27.745Z</time></trkpt><trkpt lat="44.9259623" lon="7.3043718"><ele>675.0</ele><time>2026-04-26T08:31:28.745Z</time></trkpt><trkpt lat="44.9259513" lon="7.3042602"><ele>675.0</ele><time>2026-04-26T08:31:29.745Z</time></trkpt><trkpt lat="44.9259722" lon="7.3040912"><ele>675.0</ele><time>2026-04-26T08:31:31.745Z</time></trkpt><trkpt lat="44.9260122" lon="7.3039954"><ele>675.0</ele><time>2026-04-26T08:31:32.745Z</time></trkpt><trkpt lat="44.9260684" lon="7.303932"><ele>675.0</ele><time>2026-04-26T08:31:33.745Z</time></trkpt><trkpt lat="44.9261287" lon="7.3038443"><ele>674.3333333333334</ele><time>2026-04-26T08:31:34.745Z</time></trkpt><trkpt lat="44.9261938" lon="7.303753"><ele>673.6666666666666</ele><time>2026-04-26T08:31:35.745Z</time></trkpt><trkpt lat="44.9262459" lon="7.3036371"><ele>673.0</ele><time>2026-04-26T08:31:36.745Z</time></trkpt><trkpt lat="44.9262913" lon="7.3035474"><ele>672.3333333333333</ele><time>2026-04-26T08:31:37.745Z</time></trkpt><trkpt lat="44.9263277" lon="7.3034496"><ele>671.6666666666666</ele><time>2026-04-26T08:31:38.745Z</time></trkpt><trkpt lat="44.92638" lon="7.3033838"><ele>671.0</ele><time>2026-04-26T08:31:39.745Z</time></trkpt><trkpt lat="44.9264949" lon="7.3033274"><ele>671.0</ele><time>2026-04-26T08:31:41.745Z</time></trkpt><trkpt lat="44.9265595" lon="7.3033166"><ele>671.0</ele><time>2026-04-26T08:31:42.745Z</time></trkpt><trkpt lat="44.9266376" lon="7.3033334"><ele>671.0</ele><time>2026-04-26T08:31:43.745Z</time></trkpt><trkpt lat="44.9267574" lon="7.3033793"><ele>671.0</ele><time>2026-04-26T08:31:45.745Z</time></trkpt><trkpt lat="44.9268122" lon="7.3034366"><ele>671.0</ele><time>2026-04-26T08:31:46.745Z</time></trkpt><trkpt lat="44.9268681" lon="7.3034971"><ele>671.0</ele><time>2026-04-26T08:31:47.745Z</time></trkpt><trkpt lat="44.9269297" lon="7.3035516"><ele>670.6666666666666</ele><time>2026-04-26T08:31:48.745Z</time></trkpt><trkpt lat="44.926983" lon="7.3036179"><ele>670.3333333333333</ele><time>2026-04-26T08:31:49.745Z</time></trkpt><trkpt lat="44.9270867" lon="7.3037137"><ele>670.0</ele><time>2026-04-26T08:31:51.745Z</time></trkpt><trkpt lat="44.9271501" lon="7.30373"><ele>669.6666666666666</ele><time>2026-04-26T08:31:52.745Z</time></trkpt><trkpt lat="44.9272191" lon="7.3037175"><ele>669.3333333333334</ele><time>2026-04-26T08:31:53.745Z</time></trkpt><trkpt lat="44.9272859" lon="7.3037032"><ele>669.0</ele><time>2026-04-26T08:31:54.745Z</time></trkpt><trkpt lat="44.9273617" lon="7.303681"><ele>669.0</ele><time>2026-04-26T08:31:55.744Z</time></trkpt><trkpt lat="44.9274334" lon="7.3036521"><ele>669.0</ele><time>2026-04-26T08:31:56.745Z</time></trkpt><trkpt lat="44.9275087" lon="7.3036119"><ele>669.0</ele><time>2026-04-26T08:31:57.745Z</time></trkpt><trkpt lat="44.9275793" lon="7.3035874"><ele>669.0</ele><time>2026-04-26T08:31:58.745Z</time></trkpt><trkpt lat="44.9276524" lon="7.3035765"><ele>669.0</ele><time>2026-04-26T08:31:59.745Z</time></trkpt><trkpt lat="44.92774" lon="7.3035556"><ele>669.0</ele><time>2026-04-26T08:32:00.745Z</time></trkpt><trkpt lat="44.9278163" lon="7.3035451"><ele>670.8333333333334</ele><time>2026-04-26T08:32:01.745Z</time></trkpt><trkpt lat="44.9278887" lon="7.3035215"><ele>672.6666666666666</ele><time>2026-04-26T08:32:02.745Z</time></trkpt><trkpt lat="44.9279708" lon="7.3035143"><ele>674.5</ele><time>2026-04-26T08:32:03.745Z</time></trkpt><trkpt lat="44.9280483" lon="7.3035085"><ele>676.3333333333333</ele><time>2026-04-26T08:32:04.745Z</time></trkpt><trkpt lat="44.9281183" lon="7.3035026"><ele>678.1666666666666</ele><time>2026-04-26T08:32:05.745Z</time></trkpt><trkpt lat="44.9281948" lon="7.3034917"><ele>680.0</ele><time>2026-04-26T08:32:06.745Z</time></trkpt><trkpt lat="44.9282715" lon="7.3034688"><ele>681.2</ele><time>2026-04-26T08:32:07.745Z</time></trkpt><trkpt lat="44.9284018" lon="7.3033893"><ele>682.4</ele><time>2026-04-26T08:32:09.744Z</time></trkpt><trkpt lat="44.9284625" lon="7.3033536"><ele>683.5999999999999</ele><time>2026-04-26T08:32:10.745Z</time></trkpt><trkpt lat="44.9285258" lon="7.3033163"><ele>684.8</ele><time>2026-04-26T08:32:11.745Z</time></trkpt><trkpt lat="44.9286406" lon="7.3032542"><ele>686.0</ele><time>2026-04-26T08:32:13.745Z</time></trkpt><trkpt lat="44.9287421" lon="7.303186"><ele>686.0</ele><time>2026-04-26T08:32:15.745Z</time></trkpt><trkpt lat="44.92883" lon="7.303131"><ele>686.0</ele><time>2026-04-26T08:32:17.745Z</time></trkpt><trkpt lat="44.9289015" lon="7.3030608"><ele>686.0</ele><time>2026-04-26T08:32:19.745Z</time></trkpt><trkpt lat="44.9289975" lon="7.3030165"><ele>686.0</ele><time>2026-04-26T08:32:21.745Z</time></trkpt><trkpt lat="44.9290946" lon="7.3030191"><ele>686.0</ele><time>2026-04-26T08:32:23.745Z</time></trkpt><trkpt lat="44.9291988" lon="7.3030989"><ele>685.0</ele><time>2026-04-26T08:32:25.745Z</time></trkpt><trkpt lat="44.9292621" lon="7.3031495"><ele>684.0</ele><time>2026-04-26T08:32:26.745Z</time></trkpt><trkpt lat="44.9293315" lon="7.3031918"><ele>683.0</ele><time>2026-04-26T08:32:27.745Z</time></trkpt><trkpt lat="44.9294238" lon="7.3032332"><ele>682.0</ele><time>2026-04-26T08:32:28.745Z</time></trkpt><trkpt lat="44.9295167" lon="7.3032526"><ele>681.0</ele><time>2026-04-26T08:32:29.744Z</time></trkpt><trkpt lat="44.9295872" lon="7.303282"><ele>680.0</ele><time>2026-04-26T08:32:30.745Z</time></trkpt><trkpt lat="44.9296665" lon="7.3033089"><ele>680.0</ele><time>2026-04-26T08:32:31.745Z</time></trkpt><trkpt lat="44.929746" lon="7.3033313"><ele>680.0</ele><time>2026-04-26T08:32:32.745Z</time></trkpt><trkpt lat="44.9298244" lon="7.3033545"><ele>680.0</ele><time>2026-04-26T08:32:33.745Z</time></trkpt><trkpt lat="44.9298948" lon="7.3033901"><ele>680.0</ele><time>2026-04-26T08:32:34.745Z</time></trkpt><trkpt lat="44.9299619" lon="7.3034028"><ele>680.0</ele><time>2026-04-26T08:32:35.745Z</time></trkpt><trkpt lat="44.9300294" lon="7.3034426"><ele>680.0</ele><time>2026-04-26T08:32:36.745Z</time></trkpt><trkpt lat="44.9301481" lon="7.3035182"><ele>684.1666666666666</ele><time>2026-04-26T08:32:38.745Z</time></trkpt><trkpt lat="44.9302155" lon="7.3035671"><ele>688.3333333333333</ele><time>2026-04-26T08:32:39.745Z</time></trkpt><trkpt lat="44.9302704" lon="7.303619"><ele>692.5</ele><time>2026-04-26T08:32:40.745Z</time></trkpt><trkpt lat="44.9303657" lon="7.3036562"><ele>696.6666666666666</ele><time>2026-04-26T08:32:42.745Z</time></trkpt><trkpt lat="44.9304115" lon="7.3035716"><ele>700.8333333333334</ele><time>2026-04-26T08:32:44.745Z</time></trkpt><trkpt lat="44.9304171" lon="7.3034238"><ele>705.0</ele><time>2026-04-26T08:32:46.744Z</time></trkpt><trkpt lat="44.9304057" lon="7.3033318"><ele>705.0</ele><time>2026-04-26T08:32:47.745Z</time></trkpt><trkpt lat="44.9304021" lon="7.3032297"><ele>705.0</ele><time>2026-04-26T08:32:48.745Z</time></trkpt><trkpt lat="44.9304038" lon="7.3031247"><ele>705.0</ele><time>2026-04-26T08:32:49.745Z</time></trkpt><trkpt lat="44.9303947" lon="7.3030307"><ele>705.0</ele><time>2026-04-26T08:32:50.745Z</time></trkpt><trkpt lat="44.9303899" lon="7.3029263"><ele>705.0</ele><time>2026-04-26T08:32:51.745Z</time></trkpt><trkpt lat="44.930358" lon="7.3027839"><ele>705.0</ele><time>2026-04-26T08:32:52.745Z</time></trkpt><trkpt lat="44.9303413" lon="7.3026676"><ele>704.0</ele><time>2026-04-26T08:32:53.745Z</time></trkpt><trkpt lat="44.9303421" lon="7.3025752"><ele>703.0</ele><time>2026-04-26T08:32:54.745Z</time></trkpt><trkpt lat="44.9303153" lon="7.3024816"><ele>702.0</ele><time>2026-04-26T08:32:55.745Z</time></trkpt><trkpt lat="44.9303121" lon="7.3023838"><ele>701.0</ele><time>2026-04-26T08:32:56.745Z</time></trkpt><trkpt lat="44.930316" lon="7.3022785"><ele>700.0</ele><time>2026-04-26T08:32:57.745Z</time></trkpt><trkpt lat="44.9303036" lon="7.3021022"><ele>699.0</ele><time>2026-04-26T08:32:59.745Z</time></trkpt><trkpt lat="44.9302716" lon="7.3019347"><ele>699.0</ele><time>2026-04-26T08:33:01.745Z</time></trkpt><trkpt lat="44.9302568" lon="7.3018288"><ele>699.0</ele><time>2026-04-26T08:33:02.745Z</time></trkpt><trkpt lat="44.9302758" lon="7.3017234"><ele>699.0</ele><time>2026-04-26T08:33:03.745Z</time></trkpt><trkpt lat="44.9302933" lon="7.3016017"><ele>699.0</ele><time>2026-04-26T08:33:04.745Z</time></trkpt><trkpt lat="44.9303091" lon="7.3014825"><ele>699.0</ele><time>2026-04-26T08:33:05.745Z</time></trkpt><trkpt lat="44.9303265" lon="7.3013724"><ele>699.0</ele><time>2026-04-26T08:33:06.745Z</time></trkpt><trkpt lat="44.9303476" lon="7.3012791"><ele>699.0</ele><time>2026-04-26T08:33:07.745Z</time></trkpt><trkpt lat="44.9303592" lon="7.301171"><ele>699.0</ele><time>2026-04-26T08:33:08.745Z</time></trkpt><trkpt lat="44.9303771" lon="7.3010655"><ele>699.0</ele><time>2026-04-26T08:33:09.745Z</time></trkpt><trkpt lat="44.9303769" lon="7.3009696"><ele>699.0</ele><time>2026-04-26T08:33:10.745Z</time></trkpt><trkpt lat="44.9303779" lon="7.3008684"><ele>699.0</ele><time>2026-04-26T08:33:11.745Z</time></trkpt><trkpt lat="44.9303449" lon="7.30077"><ele>699.0</ele><time>2026-04-26T08:33:12.745Z</time></trkpt><trkpt lat="44.9303164" lon="7.3006879"><ele>699.0</ele><time>2026-04-26T08:33:13.745Z</time></trkpt><trkpt lat="44.930233" lon="7.300583"><ele>699.8333333333334</ele><time>2026-04-26T08:33:14.745Z</time></trkpt><trkpt lat="44.9301842" lon="7.3004896"><ele>700.6666666666666</ele><time>2026-04-26T08:33:15.745Z</time></trkpt><trkpt lat="44.9301331" lon="7.3004166"><ele>701.5</ele><time>2026-04-26T08:33:16.745Z</time></trkpt><trkpt lat="44.9300754" lon="7.3002606"><ele>702.3333333333333</ele><time>2026-04-26T08:33:18.745Z</time></trkpt><trkpt lat="44.9300648" lon="7.3001624"><ele>703.1666666666666</ele><time>2026-04-26T08:33:19.745Z</time></trkpt><trkpt lat="44.9300552" lon="7.3000689"><ele>704.0</ele><time>2026-04-26T08:33:20.745Z</time></trkpt><trkpt lat="44.9300585" lon="7.2999584"><ele>704.0</ele><time>2026-04-26T08:33:21.745Z</time></trkpt><trkpt lat="44.9300618" lon="7.2998507"><ele>704.0</ele><time>2026-04-26T08:33:22.745Z</time></trkpt><trkpt lat="44.9300571" lon="7.2997276"><ele>704.0</ele><time>2026-04-26T08:33:23.745Z</time></trkpt><trkpt lat="44.9300469" lon="7.299611"><ele>704.0</ele><time>2026-04-26T08:33:24.745Z</time></trkpt><trkpt lat="44.9300475" lon="7.2995016"><ele>704.0</ele><time>2026-04-26T08:33:25.745Z</time></trkpt><trkpt lat="44.9300634" lon="7.2994062"><ele>704.0</ele><time>2026-04-26T08:33:26.745Z</time></trkpt><trkpt lat="44.9300954" lon="7.2993051"><ele>703.0</ele><time>2026-04-26T08:33:27.745Z</time></trkpt><trkpt lat="44.9301562" lon="7.2992527"><ele>702.0</ele><time>2026-04-26T08:33:28.745Z</time></trkpt><trkpt lat="44.9302493" lon="7.2991813"><ele>701.0</ele><time>2026-04-26T08:33:29.745Z</time></trkpt><trkpt lat="44.9303203" lon="7.2991208"><ele>700.0</ele><time>2026-04-26T08:33:30.745Z</time></trkpt><trkpt lat="44.9303997" lon="7.2990506"><ele>699.0</ele><time>2026-04-26T08:33:31.745Z</time></trkpt><trkpt lat="44.9304818" lon="7.2989657"><ele>697.0</ele><time>2026-04-26T08:33:32.745Z</time></trkpt><trkpt lat="44.9305654" lon="7.2988822"><ele>695.0</ele><time>2026-04-26T08:33:33.745Z</time></trkpt><trkpt lat="44.9306384" lon="7.29882"><ele>693.0</ele><time>2026-04-26T08:33:34.745Z</time></trkpt><trkpt lat="44.9307153" lon="7.2987519"><ele>691.0</ele><time>2026-04-26T08:33:35.745Z</time></trkpt><trkpt lat="44.9307889" lon="7.2986707"><ele>689.0</ele><time>2026-04-26T08:33:36.745Z</time></trkpt><trkpt lat="44.9308582" lon="7.2985886"><ele>690.3333333333333</ele><time>2026-04-26T08:33:37.745Z</time></trkpt><trkpt lat="44.9309144" lon="7.2985186"><ele>691.6666666666666</ele><time>2026-04-26T08:33:38.745Z</time></trkpt><trkpt lat="44.9309652" lon="7.2984517"><ele>693.0</ele><time>2026-04-26T08:33:39.745Z</time></trkpt><trkpt lat="44.9310175" lon="7.2983602"><ele>694.3333333333334</ele><time>2026-04-26T08:33:40.745Z</time></trkpt><trkpt lat="44.9310509" lon="7.2982534"><ele>695.6666666666667</ele><time>2026-04-26T08:33:41.745Z</time></trkpt><trkpt lat="44.9310968" lon="7.2981626"><ele>697.0</ele><time>2026-04-26T08:33:42.745Z</time></trkpt><trkpt lat="44.9311423" lon="7.2980771"><ele>697.0</ele><time>2026-04-26T08:33:43.745Z</time></trkpt><trkpt lat="44.9311936" lon="7.297991"><ele>697.0</ele><time>2026-04-26T08:33:44.745Z</time></trkpt><trkpt lat="44.931244" lon="7.2979053"><ele>697.0</ele><time>2026-04-26T08:33:45.745Z</time></trkpt><trkpt lat="44.9312952" lon="7.2978274"><ele>697.0</ele><time>2026-04-26T08:33:46.744Z</time></trkpt><trkpt lat="44.9313659" lon="7.2977462"><ele>697.0</ele><time>2026-04-26T08:33:47.745Z</time></trkpt><trkpt lat="44.9314286" lon="7.2976665"><ele>697.0</ele><time>2026-04-26T08:33:48.745Z</time></trkpt><trkpt lat="44.9315014" lon="7.2975985"><ele>697.0</ele><time>2026-04-26T08:33:49.745Z</time></trkpt><trkpt lat="44.9315716" lon="7.2975545"><ele>697.0</ele><time>2026-04-26T08:33:50.745Z</time></trkpt><trkpt lat="44.9316428" lon="7.2974971"><ele>697.0</ele><time>2026-04-26T08:33:51.745Z</time></trkpt><trkpt lat="44.9317161" lon="7.2974721"><ele>697.0</ele><time>2026-04-26T08:33:52.745Z</time></trkpt><trkpt lat="44.9317906" lon="7.2974566"><ele>697.0</ele><time>2026-04-26T08:33:53.745Z</time></trkpt><trkpt lat="44.9318698" lon="7.2974722"><ele>697.0</ele><time>2026-04-26T08:33:54.745Z</time></trkpt><trkpt lat="44.9319906" lon="7.2975313"><ele>696.4000000000001</ele><time>2026-04-26T08:33:56.745Z</time></trkpt><trkpt lat="44.9321007" lon="7.2976585"><ele>695.8000000000001</ele><time>2026-04-26T08:33:58.745Z</time></trkpt><trkpt lat="44.9321585" lon="7.2977518"><ele>695.2</ele><time>2026-04-26T08:33:59.745Z</time></trkpt><trkpt lat="44.9322088" lon="7.2978626"><ele>694.6</ele><time>2026-04-26T08:34:00.744Z</time></trkpt><trkpt lat="44.9322652" lon="7.2979353"><ele>694.0</ele><time>2026-04-26T08:34:01.744Z</time></trkpt><trkpt lat="44.9323605" lon="7.2980517"><ele>694.0</ele><time>2026-04-26T08:34:03.745Z</time></trkpt><trkpt lat="44.9324386" lon="7.2980634"><ele>694.0</ele><time>2026-04-26T08:34:04.745Z</time></trkpt><trkpt lat="44.9325879" lon="7.2980622"><ele>694.0</ele><time>2026-04-26T08:34:06.745Z</time></trkpt><trkpt lat="44.9326661" lon="7.2980581"><ele>694.0</ele><time>2026-04-26T08:34:07.745Z</time></trkpt><trkpt lat="44.9327333" lon="7.2980588"><ele>694.0</ele><time>2026-04-26T08:34:08.745Z</time></trkpt><trkpt lat="44.9328049" lon="7.2980477"><ele>694.0</ele><time>2026-04-26T08:34:09.745Z</time></trkpt><trkpt lat="44.9328761" lon="7.2980418"><ele>694.5</ele><time>2026-04-26T08:34:10.745Z</time></trkpt><trkpt lat="44.9329522" lon="7.2980221"><ele>695.0</ele><time>2026-04-26T08:34:11.745Z</time></trkpt><trkpt lat="44.9330068" lon="7.2979282"><ele>695.5</ele><time>2026-04-26T08:34:12.745Z</time></trkpt><trkpt lat="44.9330645" lon="7.2978782"><ele>696.0</ele><time>2026-04-26T08:34:13.744Z</time></trkpt><trkpt lat="44.9331176" lon="7.2978188"><ele>696.5</ele><time>2026-04-26T08:34:14.745Z</time></trkpt><trkpt lat="44.9332141" lon="7.2977469"><ele>697.0</ele><time>2026-04-26T08:34:16.745Z</time></trkpt><trkpt lat="44.9333212" lon="7.297705"><ele>696.6</ele><time>2026-04-26T08:34:18.745Z</time></trkpt><trkpt lat="44.93345" lon="7.2976368"><ele>696.2</ele><time>2026-04-26T08:34:20.745Z</time></trkpt><trkpt lat="44.9335631" lon="7.2975824"><ele>695.8</ele><time>2026-04-26T08:34:22.745Z</time></trkpt><trkpt lat="44.933626" lon="7.2975635"><ele>695.4</ele><time>2026-04-26T08:34:23.745Z</time></trkpt><trkpt lat="44.9337031" lon="7.2975628"><ele>695.0</ele><time>2026-04-26T08:34:24.745Z</time></trkpt><trkpt lat="44.9337734" lon="7.297582"><ele>695.0000000000001</ele><time>2026-04-26T08:34:25.745Z</time></trkpt><trkpt lat="44.9338449" lon="7.2976187"><ele>695.0</ele><time>2026-04-26T08:34:26.745Z</time></trkpt><trkpt lat="44.9339116" lon="7.29765"><ele>695.0</ele><time>2026-04-26T08:34:27.745Z</time></trkpt><trkpt lat="44.9339688" lon="7.2976909"><ele>695.0</ele><time>2026-04-26T08:34:28.745Z</time></trkpt><trkpt lat="44.9340296" lon="7.297761"><ele>695.0</ele><time>2026-04-26T08:34:29.744Z</time></trkpt><trkpt lat="44.9340994" lon="7.2978217"><ele>695.0000000000001</ele><time>2026-04-26T08:34:30.745Z</time></trkpt><trkpt lat="44.9341457" lon="7.2978884"><ele>695.0</ele><time>2026-04-26T08:34:31.745Z</time></trkpt><trkpt lat="44.934162" lon="7.2979778"><ele>695.0</ele><time>2026-04-26T08:34:32.745Z</time></trkpt><trkpt lat="44.9341786" lon="7.2980713"><ele>695.0</ele><time>2026-04-26T08:34:33.745Z</time></trkpt><trkpt lat="44.9341821" lon="7.2981709"><ele>695.0</ele><time>2026-04-26T08:34:34.745Z</time></trkpt><trkpt lat="44.9341807" lon="7.298279"><ele>695.0</ele><time>2026-04-26T08:34:35.744Z</time></trkpt><trkpt lat="44.9341851" lon="7.298391"><ele>695.0</ele><time>2026-04-26T08:34:36.745Z</time></trkpt><trkpt lat="44.9341793" lon="7.2985103"><ele>695.0</ele><time>2026-04-26T08:34:37.745Z</time></trkpt><trkpt lat="44.9341775" lon="7.2986204"><ele>697.1666666666666</ele><time>2026-04-26T08:34:38.745Z</time></trkpt><trkpt lat="44.934197" lon="7.2987348"><ele>699.3333333333333</ele><time>2026-04-26T08:34:39.745Z</time></trkpt><trkpt lat="44.9341885" lon="7.2988448"><ele>701.5</ele><time>2026-04-26T08:34:40.745Z</time></trkpt><trkpt lat="44.9341926" lon="7.2989684"><ele>703.6666666666666</ele><time>2026-04-26T08:34:41.745Z</time></trkpt><trkpt lat="44.9341908" lon="7.2990901"><ele>705.8333333333334</ele><time>2026-04-26T08:34:42.745Z</time></trkpt><trkpt lat="44.9341789" lon="7.2992015"><ele>708.0</ele><time>2026-04-26T08:34:43.745Z</time></trkpt><trkpt lat="44.9341631" lon="7.2993085"><ele>709.8333333333334</ele><time>2026-04-26T08:34:44.745Z</time></trkpt><trkpt lat="44.9341527" lon="7.2994161"><ele>711.6666666666666</ele><time>2026-04-26T08:34:45.745Z</time></trkpt><trkpt lat="44.9341409" lon="7.2995121"><ele>713.5</ele><time>2026-04-26T08:34:46.744Z</time></trkpt><trkpt lat="44.9341375" lon="7.2996108"><ele>715.3333333333333</ele><time>2026-04-26T08:34:47.745Z</time></trkpt><trkpt lat="44.9341416" lon="7.2997301"><ele>717.1666666666666</ele><time>2026-04-26T08:34:48.745Z</time></trkpt><trkpt lat="44.9341439" lon="7.2998433"><ele>719.0</ele><time>2026-04-26T08:34:49.745Z</time></trkpt><trkpt lat="44.9341537" lon="7.299956"><ele>718.5</ele><time>2026-04-26T08:34:50.745Z</time></trkpt><trkpt lat="44.9341765" lon="7.3000699"><ele>718.0</ele><time>2026-04-26T08:34:51.745Z</time></trkpt><trkpt lat="44.9341995" lon="7.3001779"><ele>717.5</ele><time>2026-04-26T08:34:52.745Z</time></trkpt><trkpt lat="44.9342372" lon="7.3003634"><ele>717.0</ele><time>2026-04-26T08:34:54.745Z</time></trkpt><trkpt lat="44.9342682" lon="7.3004563"><ele>716.5</ele><time>2026-04-26T08:34:55.745Z</time></trkpt><trkpt lat="44.9343055" lon="7.3005384"><ele>716.0</ele><time>2026-04-26T08:34:56.745Z</time></trkpt><trkpt lat="44.9343627" lon="7.3006169"><ele>719.0</ele><time>2026-04-26T08:34:57.745Z</time></trkpt><trkpt lat="44.9344549" lon="7.3007411"><ele>722.0</ele><time>2026-04-26T08:34:59.745Z</time></trkpt><trkpt lat="44.9345046" lon="7.3008873"><ele>725.0</ele><time>2026-04-26T08:35:01.745Z</time></trkpt><trkpt lat="44.9345184" lon="7.3009792"><ele>728.0</ele><time>2026-04-26T08:35:02.745Z</time></trkpt><trkpt lat="44.9344846" lon="7.3011461"><ele>731.0</ele><time>2026-04-26T08:35:04.745Z</time></trkpt><trkpt lat="44.9344498" lon="7.3013259"><ele>733.4</ele><time>2026-04-26T08:35:06.745Z</time></trkpt><trkpt lat="44.9344392" lon="7.3014935"><ele>735.8</ele><time>2026-04-26T08:35:08.745Z</time></trkpt><trkpt lat="44.9344741" lon="7.3015947"><ele>738.1999999999999</ele><time>2026-04-26T08:35:09.745Z</time></trkpt><trkpt lat="44.9345078" lon="7.3016761"><ele>740.5999999999999</ele><time>2026-04-26T08:35:10.745Z</time></trkpt><trkpt lat="44.9345398" lon="7.3017566"><ele>743.0</ele><time>2026-04-26T08:35:11.745Z</time></trkpt><trkpt lat="44.9346041" lon="7.3019133"><ele>743.0</ele><time>2026-04-26T08:35:13.745Z</time></trkpt><trkpt lat="44.9346374" lon="7.302"><ele>743.0</ele><time>2026-04-26T08:35:14.745Z</time></trkpt><trkpt lat="44.9346669" lon="7.3020977"><ele>743.0</ele><time>2026-04-26T08:35:15.744Z</time></trkpt><trkpt lat="44.9347027" lon="7.3021845"><ele>743.0</ele><time>2026-04-26T08:35:16.745Z</time></trkpt><trkpt lat="44.9347689" lon="7.3023218"><ele>743.0</ele><time>2026-04-26T08:35:18.745Z</time></trkpt><trkpt lat="44.934855" lon="7.3024139"><ele>743.0</ele><time>2026-04-26T08:35:20.745Z</time></trkpt><trkpt lat="44.9349028" lon="7.3024873"><ele>745.0</ele><time>2026-04-26T08:35:21.745Z</time></trkpt><trkpt lat="44.9349817" lon="7.3026336"><ele>747.0</ele><time>2026-04-26T08:35:23.744Z</time></trkpt><trkpt lat="44.935" lon="7.3027209"><ele>749.0</ele><time>2026-04-26T08:35:24.745Z</time></trkpt><trkpt lat="44.935029" lon="7.3028644"><ele>751.0</ele><time>2026-04-26T08:35:26.745Z</time></trkpt><trkpt lat="44.9350262" lon="7.3030254"><ele>753.0</ele><time>2026-04-26T08:35:28.745Z</time></trkpt><trkpt lat="44.9349988" lon="7.3031775"><ele>755.5999999999999</ele><time>2026-04-26T08:35:30.745Z</time></trkpt><trkpt lat="44.9349999" lon="7.3033232"><ele>758.1999999999999</ele><time>2026-04-26T08:35:32.745Z</time></trkpt><trkpt lat="44.9350786" lon="7.3034215"><ele>760.8</ele><time>2026-04-26T08:35:34.745Z</time></trkpt><trkpt lat="44.9351902" lon="7.3034429"><ele>763.4</ele><time>2026-04-26T08:35:36.745Z</time></trkpt><trkpt lat="44.9352925" lon="7.3033696"><ele>766.0</ele><time>2026-04-26T08:35:38.744Z</time></trkpt><trkpt lat="44.9353521" lon="7.3032992"><ele>766.5</ele><time>2026-04-26T08:35:40.745Z</time></trkpt><trkpt lat="44.9354407" lon="7.303379"><ele>767.0</ele><time>2026-04-26T08:35:43.745Z</time></trkpt><trkpt lat="44.9354902" lon="7.3035051"><ele>767.5</ele><time>2026-04-26T08:35:45.745Z</time></trkpt><trkpt lat="44.9355148" lon="7.3035892"><ele>768.0</ele><time>2026-04-26T08:35:46.745Z</time></trkpt><trkpt lat="44.9355567" lon="7.3037092"><ele>768.4999999999999</ele><time>2026-04-26T08:35:48.745Z</time></trkpt><trkpt lat="44.9356101" lon="7.3037711"><ele>769.0</ele><time>2026-04-26T08:35:49.745Z</time></trkpt><trkpt lat="44.9356729" lon="7.3038608"><ele>770.6666666666666</ele><time>2026-04-26T08:35:51.745Z</time></trkpt><trkpt lat="44.9356288" lon="7.3039347"><ele>772.3333333333333</ele><time>2026-04-26T08:35:53.745Z</time></trkpt><trkpt lat="44.9355619" lon="7.3039769"><ele>774.0</ele><time>2026-04-26T08:35:55.745Z</time></trkpt><trkpt lat="44.9354493" lon="7.3040552"><ele>775.6666666666667</ele><time>2026-04-26T08:35:57.745Z</time></trkpt><trkpt lat="44.9353847" lon="7.3041148"><ele>777.3333333333334</ele><time>2026-04-26T08:35:58.745Z</time></trkpt><trkpt lat="44.9353232" lon="7.3041811"><ele>779.0</ele><time>2026-04-26T08:35:59.745Z</time></trkpt><trkpt lat="44.9352625" lon="7.3042383"><ele>779.0</ele><time>2026-04-26T08:36:00.745Z</time></trkpt><trkpt lat="44.9351604" lon="7.3043145"><ele>779.0</ele><time>2026-04-26T08:36:02.745Z</time></trkpt><trkpt lat="44.935046" lon="7.3043724"><ele>779.0</ele><time>2026-04-26T08:36:04.745Z</time></trkpt><trkpt lat="44.9349807" lon="7.3043918"><ele>779.0</ele><time>2026-04-26T08:36:05.745Z</time></trkpt><trkpt lat="44.934856" lon="7.3044089"><ele>779.0</ele><time>2026-04-26T08:36:07.744Z</time></trkpt><trkpt lat="44.9347927" lon="7.3044142"><ele>779.0000000000001</ele><time>2026-04-26T08:36:08.745Z</time></trkpt><trkpt lat="44.9347298" lon="7.3043607"><ele>779.0</ele><time>2026-04-26T08:36:09.745Z</time></trkpt><trkpt lat="44.9346602" lon="7.3043047"><ele>779.0</ele><time>2026-04-26T08:36:10.745Z</time></trkpt><trkpt lat="44.9345915" lon="7.3042454"><ele>779.0</ele><time>2026-04-26T08:36:11.745Z</time></trkpt><trkpt lat="44.9345315" lon="7.3041829"><ele>779.0000000000001</ele><time>2026-04-26T08:36:12.745Z</time></trkpt><trkpt lat="44.9344626" lon="7.3041118"><ele>779.0</ele><time>2026-04-26T08:36:13.745Z</time></trkpt><trkpt lat="44.9344043" lon="7.3040613"><ele>779.0000000000001</ele><time>2026-04-26T08:36:14.745Z</time></trkpt><trkpt lat="44.934286" lon="7.3040381"><ele>779.0</ele><time>2026-04-26T08:36:16.745Z</time></trkpt><trkpt lat="44.934221" lon="7.304053"><ele>779.0</ele><time>2026-04-26T08:36:17.745Z</time></trkpt><trkpt lat="44.9341791" lon="7.3041234"><ele>779.0</ele><time>2026-04-26T08:36:19.745Z</time></trkpt><trkpt lat="44.9342418" lon="7.3042158"><ele>779.0000000000001</ele><time>2026-04-26T08:36:22.745Z</time></trkpt><trkpt lat="44.9343367" lon="7.304268"><ele>779.0</ele><time>2026-04-26T08:36:24.745Z</time></trkpt><trkpt lat="44.9344202" lon="7.3043626"><ele>779.0</ele><time>2026-04-26T08:36:26.745Z</time></trkpt><trkpt lat="44.9344695" lon="7.304517"><ele>779.0</ele><time>2026-04-26T08:36:28.745Z</time></trkpt><trkpt lat="44.9345144" lon="7.3046187"><ele>779.0</ele><time>2026-04-26T08:36:29.745Z</time></trkpt><trkpt lat="44.9345938" lon="7.3047467"><ele>779.0</ele><time>2026-04-26T08:36:31.744Z</time></trkpt><trkpt lat="44.9346517" lon="7.3048938"><ele>779.0</ele><time>2026-04-26T08:36:33.745Z</time></trkpt><trkpt lat="44.9347425" lon="7.3050124"><ele>781.8333333333334</ele><time>2026-04-26T08:36:35.745Z</time></trkpt><trkpt lat="44.934822" lon="7.3050363"><ele>784.6666666666667</ele><time>2026-04-26T08:36:37.745Z</time></trkpt><trkpt lat="44.9349048" lon="7.3050128"><ele>787.5</ele><time>2026-04-26T08:36:39.745Z</time></trkpt><trkpt lat="44.9349818" lon="7.3050309"><ele>790.3333333333333</ele><time>2026-04-26T08:36:41.745Z</time></trkpt><trkpt lat="44.9350615" lon="7.3050672"><ele>793.1666666666666</ele><time>2026-04-26T08:36:44.745Z</time></trkpt><trkpt lat="44.9351468" lon="7.3051449"><ele>796.0</ele><time>2026-04-26T08:36:46.745Z</time></trkpt><trkpt lat="44.9352394" lon="7.3052756"><ele>796.0</ele><time>2026-04-26T08:36:48.745Z</time></trkpt><trkpt lat="44.9352955" lon="7.3053221"><ele>796.0</ele><time>2026-04-26T08:36:49.745Z</time></trkpt><trkpt lat="44.9354004" lon="7.3053707"><ele>796.0</ele><time>2026-04-26T08:36:51.745Z</time></trkpt><trkpt lat="44.9355097" lon="7.3053872"><ele>796.0</ele><time>2026-04-26T08:36:53.745Z</time></trkpt><trkpt lat="44.9356271" lon="7.3054201"><ele>796.0</ele><time>2026-04-26T08:36:55.745Z</time></trkpt><trkpt lat="44.9356915" lon="7.305419"><ele>795.9999999999999</ele><time>2026-04-26T08:36:56.745Z</time></trkpt><trkpt lat="44.9357584" lon="7.3054241"><ele>796.0</ele><time>2026-04-26T08:36:57.745Z</time></trkpt><trkpt lat="44.9358834" lon="7.3054667"><ele>796.0</ele><time>2026-04-26T08:36:59.745Z</time></trkpt><trkpt lat="44.9359585" lon="7.3055075"><ele>796.0</ele><time>2026-04-26T08:37:00.745Z</time></trkpt><trkpt lat="44.9360385" lon="7.3055275"><ele>795.9999999999999</ele><time>2026-04-26T08:37:01.745Z</time></trkpt><trkpt lat="44.9361038" lon="7.3055363"><ele>796.0</ele><time>2026-04-26T08:37:02.745Z</time></trkpt><trkpt lat="44.9362212" lon="7.3055644"><ele>800.0</ele><time>2026-04-26T08:37:04.745Z</time></trkpt><trkpt lat="44.93632" lon="7.305608"><ele>804.0</ele><time>2026-04-26T08:37:06.745Z</time></trkpt><trkpt lat="44.9364332" lon="7.3055908"><ele>808.0</ele><time>2026-04-26T08:37:08.745Z</time></trkpt><trkpt lat="44.9365137" lon="7.3055847"><ele>812.0</ele><time>2026-04-26T08:37:09.745Z</time></trkpt><trkpt lat="44.9365912" lon="7.3055872"><ele>816.0</ele><time>2026-04-26T08:37:10.745Z</time></trkpt><trkpt lat="44.9367191" lon="7.3056281"><ele>817.5</ele><time>2026-04-26T08:37:12.745Z</time></trkpt><trkpt lat="44.9367913" lon="7.3056503"><ele>819.0</ele><time>2026-04-26T08:37:13.745Z</time></trkpt><trkpt lat="44.9368656" lon="7.3056976"><ele>820.5</ele><time>2026-04-26T08:37:14.745Z</time></trkpt><trkpt lat="44.9369403" lon="7.305729"><ele>822.0</ele><time>2026-04-26T08:37:15.745Z</time></trkpt><trkpt lat="44.9370619" lon="7.305735"><ele>823.5</ele><time>2026-04-26T08:37:17.745Z</time></trkpt><trkpt lat="44.9371373" lon="7.3057258"><ele>825.0</ele><time>2026-04-26T08:37:18.745Z</time></trkpt><trkpt lat="44.9372079" lon="7.3057211"><ele>825.0</ele><time>2026-04-26T08:37:19.745Z</time></trkpt><trkpt lat="44.9373262" lon="7.3057732"><ele>825.0</ele><time>2026-04-26T08:37:21.745Z</time></trkpt><trkpt lat="44.9373864" lon="7.3058136"><ele>825.0</ele><time>2026-04-26T08:37:22.745Z</time></trkpt><trkpt lat="44.9374761" lon="7.3058998"><ele>825.0</ele><time>2026-04-26T08:37:24.745Z</time></trkpt><trkpt lat="44.9375736" lon="7.305991"><ele>825.0</ele><time>2026-04-26T08:37:26.745Z</time></trkpt><trkpt lat="44.9376701" lon="7.306088"><ele>825.8333333333334</ele><time>2026-04-26T08:37:28.745Z</time></trkpt><trkpt lat="44.9377385" lon="7.3061921"><ele>826.6666666666667</ele><time>2026-04-26T08:37:30.745Z</time></trkpt><trkpt lat="44.9377767" lon="7.3062706"><ele>827.5</ele><time>2026-04-26T08:37:31.745Z</time></trkpt><trkpt lat="44.9378648" lon="7.3063164"><ele>828.3333333333334</ele><time>2026-04-26T08:37:33.744Z</time></trkpt><trkpt lat="44.9379275" lon="7.3062549"><ele>829.1666666666667</ele><time>2026-04-26T08:37:35.745Z</time></trkpt><trkpt lat="44.9379425" lon="7.3061226"><ele>830.0</ele><time>2026-04-26T08:37:37.745Z</time></trkpt><trkpt lat="44.9379485" lon="7.3059845"><ele>830.0000000000001</ele><time>2026-04-26T08:37:39.745Z</time></trkpt><trkpt lat="44.9379482" lon="7.3058864"><ele>830.0</ele><time>2026-04-26T08:37:41.745Z</time></trkpt><trkpt lat="44.9379379" lon="7.3057767"><ele>830.0</ele><time>2026-04-26T08:37:43.745Z</time></trkpt><trkpt lat="44.9379539" lon="7.3056489"><ele>830.0</ele><time>2026-04-26T08:37:45.745Z</time></trkpt><trkpt lat="44.9379678" lon="7.3055539"><ele>830.0000000000001</ele><time>2026-04-26T08:37:47.745Z</time></trkpt><trkpt lat="44.9379712" lon="7.3054063"><ele>830.0</ele><time>2026-04-26T08:37:49.745Z</time></trkpt><trkpt lat="44.9379821" lon="7.3052571"><ele>829.4</ele><time>2026-04-26T08:37:51.745Z</time></trkpt><trkpt lat="44.9380108" lon="7.3051071"><ele>828.8</ele><time>2026-04-26T08:37:53.745Z</time></trkpt><trkpt lat="44.9380551" lon="7.3049885"><ele>828.2</ele><time>2026-04-26T08:37:55.745Z</time></trkpt><trkpt lat="44.9381185" lon="7.3049541"><ele>827.6</ele><time>2026-04-26T08:37:57.745Z</time></trkpt><trkpt lat="44.9382395" lon="7.3049565"><ele>827.0</ele><time>2026-04-26T08:37:59.745Z</time></trkpt><trkpt lat="44.9383507" lon="7.3049045"><ele>825.5000000000001</ele><time>2026-04-26T08:38:01.745Z</time></trkpt><trkpt lat="44.9384161" lon="7.3048497"><ele>824.0</ele><time>2026-04-26T08:38:02.745Z</time></trkpt><trkpt lat="44.9384717" lon="7.3047845"><ele>822.5</ele><time>2026-04-26T08:38:03.745Z</time></trkpt><trkpt lat="44.938531" lon="7.3047423"><ele>821.0</ele><time>2026-04-26T08:38:04.745Z</time></trkpt><trkpt lat="44.9385854" lon="7.3046963"><ele>819.5000000000001</ele><time>2026-04-26T08:38:05.744Z</time></trkpt><trkpt lat="44.9386436" lon="7.3046589"><ele>818.0</ele><time>2026-04-26T08:38:06.745Z</time></trkpt><trkpt lat="44.9387571" lon="7.3045567"><ele>818.0000000000001</ele><time>2026-04-26T08:38:08.745Z</time></trkpt><trkpt lat="44.9388111" lon="7.3044974"><ele>818.0</ele><time>2026-04-26T08:38:09.745Z</time></trkpt><trkpt lat="44.9389243" lon="7.3044107"><ele>818.0</ele><time>2026-04-26T08:38:11.745Z</time></trkpt><trkpt lat="44.939008" lon="7.3043666"><ele>818.0</ele><time>2026-04-26T08:38:12.744Z</time></trkpt><trkpt lat="44.9390747" lon="7.304327"><ele>818.0000000000001</ele><time>2026-04-26T08:38:13.745Z</time></trkpt><trkpt lat="44.9391571" lon="7.3043078"><ele>818.0</ele><time>2026-04-26T08:38:14.745Z</time></trkpt><trkpt lat="44.9392231" lon="7.3042876"><ele>813.5000000000001</ele><time>2026-04-26T08:38:15.745Z</time></trkpt><trkpt lat="44.9392949" lon="7.3042905"><ele>809.0</ele><time>2026-04-26T08:38:16.745Z</time></trkpt><trkpt lat="44.9393596" lon="7.3042882"><ele>804.5</ele><time>2026-04-26T08:38:17.745Z</time></trkpt><trkpt lat="44.939434" lon="7.3042485"><ele>800.0</ele><time>2026-04-26T08:38:19.745Z</time></trkpt><trkpt lat="44.9395071" lon="7.3041614"><ele>795.5000000000001</ele><time>2026-04-26T08:38:21.745Z</time></trkpt><trkpt lat="44.9395338" lon="7.3040003"><ele>791.0</ele><time>2026-04-26T08:38:23.745Z</time></trkpt><trkpt lat="44.9395502" lon="7.3038168"><ele>791.0</ele><time>2026-04-26T08:38:25.745Z</time></trkpt><trkpt lat="44.9395514" lon="7.3037154"><ele>791.0</ele><time>2026-04-26T08:38:26.745Z</time></trkpt><trkpt lat="44.9395413" lon="7.3036088"><ele>791.0</ele><time>2026-04-26T08:38:27.745Z</time></trkpt><trkpt lat="44.9395585" lon="7.3034223"><ele>791.0</ele><time>2026-04-26T08:38:29.745Z</time></trkpt><trkpt lat="44.9395761" lon="7.3033008"><ele>791.0</ele><time>2026-04-26T08:38:30.745Z</time></trkpt><trkpt lat="44.9395836" lon="7.303185"><ele>791.0000000000001</ele><time>2026-04-26T08:38:31.745Z</time></trkpt><trkpt lat="44.9395889" lon="7.3030839"><ele>791.0</ele><time>2026-04-26T08:38:32.745Z</time></trkpt><trkpt lat="44.9396118" lon="7.3029949"><ele>791.0</ele><time>2026-04-26T08:38:33.745Z</time></trkpt><trkpt lat="44.939629" lon="7.3029056"><ele>791.0</ele><time>2026-04-26T08:38:34.745Z</time></trkpt><trkpt lat="44.9396554" lon="7.3027998"><ele>791.0000000000001</ele><time>2026-04-26T08:38:35.745Z</time></trkpt><trkpt lat="44.9396768" lon="7.3026767"><ele>791.0</ele><time>2026-04-26T08:38:36.745Z</time></trkpt><trkpt lat="44.9396952" lon="7.3025589"><ele>792.6666666666667</ele><time>2026-04-26T08:38:37.745Z</time></trkpt><trkpt lat="44.9396989" lon="7.3024557"><ele>794.3333333333334</ele><time>2026-04-26T08:38:38.745Z</time></trkpt><trkpt lat="44.939714" lon="7.3023472"><ele>796.0</ele><time>2026-04-26T08:38:39.745Z</time></trkpt><trkpt lat="44.9397219" lon="7.3022498"><ele>797.6666666666667</ele><time>2026-04-26T08:38:40.745Z</time></trkpt><trkpt lat="44.9397322" lon="7.3021612"><ele>799.3333333333334</ele><time>2026-04-26T08:38:41.745Z</time></trkpt><trkpt lat="44.9397356" lon="7.3020156"><ele>801.0</ele><time>2026-04-26T08:38:43.745Z</time></trkpt><trkpt lat="44.939743" lon="7.301904"><ele>802.5</ele><time>2026-04-26T08:38:46.745Z</time></trkpt><trkpt lat="44.9397669" lon="7.3017993"><ele>804.0</ele><time>2026-04-26T08:39:16.745Z</time></trkpt><trkpt lat="44.9397348" lon="7.3017005"><ele>805.5</ele><time>2026-04-26T08:39:19.745Z</time></trkpt><trkpt lat="44.9396742" lon="7.301615"><ele>807.0</ele><time>2026-04-26T08:39:22.745Z</time></trkpt><trkpt lat="44.9396269" lon="7.3015472"><ele>808.5</ele><time>2026-04-26T08:39:24.745Z</time></trkpt><trkpt lat="44.9395737" lon="7.3014573"><ele>810.0</ele><time>2026-04-26T08:39:26.745Z</time></trkpt><trkpt lat="44.9395241" lon="7.3013648"><ele>812.2</ele><time>2026-04-26T08:39:28.745Z</time></trkpt><trkpt lat="44.9395177" lon="7.3012288"><ele>814.4</ele><time>2026-04-26T08:39:30.745Z</time></trkpt><trkpt lat="44.9395204" lon="7.3010802"><ele>816.5999999999999</ele><time>2026-04-26T08:39:32.745Z</time></trkpt><trkpt lat="44.9395219" lon="7.3008809"><ele>818.8</ele><time>2026-04-26T08:39:34.745Z</time></trkpt><trkpt lat="44.939514" lon="7.3007804"><ele>821.0</ele><time>2026-04-26T08:39:35.745Z</time></trkpt><trkpt lat="44.9394872" lon="7.3006878"><ele>821.0</ele><time>2026-04-26T08:39:36.745Z</time></trkpt><trkpt lat="44.9394812" lon="7.3005923"><ele>821.0</ele><time>2026-04-26T08:39:37.745Z</time></trkpt><trkpt lat="44.939468" lon="7.3004293"><ele>821.0</ele><time>2026-04-26T08:39:39.745Z</time></trkpt><trkpt lat="44.9394774" lon="7.3002571"><ele>821.0</ele><time>2026-04-26T08:39:41.745Z</time></trkpt><trkpt lat="44.9395018" lon="7.3000913"><ele>821.0</ele><time>2026-04-26T08:39:43.745Z</time></trkpt><trkpt lat="44.9395101" lon="7.3000008"><ele>821.4</ele><time>2026-04-26T08:39:44.745Z</time></trkpt><trkpt lat="44.9395195" lon="7.2999107"><ele>821.8</ele><time>2026-04-26T08:39:45.745Z</time></trkpt><trkpt lat="44.9395308" lon="7.2997497"><ele>822.1999999999999</ele><time>2026-04-26T08:39:47.744Z</time></trkpt><trkpt lat="44.9395433" lon="7.2996202"><ele>822.5999999999999</ele><time>2026-04-26T08:39:49.745Z</time></trkpt><trkpt lat="44.9395568" lon="7.2994861"><ele>823.0</ele><time>2026-04-26T08:39:51.745Z</time></trkpt><trkpt lat="44.9395575" lon="7.2993415"><ele>823.0</ele><time>2026-04-26T08:39:53.745Z</time></trkpt><trkpt lat="44.9395531" lon="7.2991944"><ele>823.0</ele><time>2026-04-26T08:39:55.745Z</time></trkpt><trkpt lat="44.9395351" lon="7.2991031"><ele>823.0</ele><time>2026-04-26T08:39:56.745Z</time></trkpt><trkpt lat="44.9394872" lon="7.2990292"><ele>823.0</ele><time>2026-04-26T08:39:57.745Z</time></trkpt><trkpt lat="44.9394053" lon="7.2988871"><ele>823.0</ele><time>2026-04-26T08:39:59.745Z</time></trkpt><trkpt lat="44.9393277" lon="7.2987603"><ele>825.8</ele><time>2026-04-26T08:40:01.745Z</time></trkpt><trkpt lat="44.9392641" lon="7.2986874"><ele>828.5999999999999</ele><time>2026-04-26T08:40:02.745Z</time></trkpt><trkpt lat="44.9391969" lon="7.298634"><ele>831.4000000000001</ele><time>2026-04-26T08:40:03.745Z</time></trkpt><trkpt lat="44.9391277" lon="7.2985226"><ele>834.2</ele><time>2026-04-26T08:40:05.745Z</time></trkpt><trkpt lat="44.9391025" lon="7.2983818"><ele>837.0</ele><time>2026-04-26T08:40:07.745Z</time></trkpt><trkpt lat="44.9391029" lon="7.2982568"><ele>836.2</ele><time>2026-04-26T08:40:09.745Z</time></trkpt><trkpt lat="44.9391166" lon="7.2981334"><ele>835.4000000000001</ele><time>2026-04-26T08:40:11.745Z</time></trkpt><trkpt lat="44.9391448" lon="7.2979829"><ele>834.5999999999999</ele><time>2026-04-26T08:40:13.745Z</time></trkpt><trkpt lat="44.9391774" lon="7.2978529"><ele>833.8</ele><time>2026-04-26T08:40:15.745Z</time></trkpt><trkpt lat="44.9392342" lon="7.2977188"><ele>833.0</ele><time>2026-04-26T08:40:17.745Z</time></trkpt><trkpt lat="44.9392985" lon="7.2975834"><ele>833.0000000000001</ele><time>2026-04-26T08:40:19.745Z</time></trkpt><trkpt lat="44.9393268" lon="7.2974802"><ele>833.0</ele><time>2026-04-26T08:40:20.744Z</time></trkpt><trkpt lat="44.9393553" lon="7.2973879"><ele>833.0</ele><time>2026-04-26T08:40:21.745Z</time></trkpt><trkpt lat="44.939393" lon="7.2972753"><ele>833.0</ele><time>2026-04-26T08:40:22.745Z</time></trkpt><trkpt lat="44.939431" lon="7.2971833"><ele>833.0000000000001</ele><time>2026-04-26T08:40:23.745Z</time></trkpt><trkpt lat="44.9394676" lon="7.2970746"><ele>833.0</ele><time>2026-04-26T08:40:24.744Z</time></trkpt><trkpt lat="44.9394774" lon="7.2969522"><ele>828.2</ele><time>2026-04-26T08:40:25.745Z</time></trkpt><trkpt lat="44.9394749" lon="7.2968428"><ele>823.4</ele><time>2026-04-26T08:40:26.745Z</time></trkpt><trkpt lat="44.9395081" lon="7.2966821"><ele>818.6</ele><time>2026-04-26T08:40:28.745Z</time></trkpt><trkpt lat="44.9395763" lon="7.2965706"><ele>813.8000000000001</ele><time>2026-04-26T08:40:30.745Z</time></trkpt><trkpt lat="44.9396443" lon="7.296477"><ele>809.0</ele><time>2026-04-26T08:40:32.745Z</time></trkpt><trkpt lat="44.9397096" lon="7.2963674"><ele>807.8000000000001</ele><time>2026-04-26T08:40:34.745Z</time></trkpt><trkpt lat="44.9397795" lon="7.2962734"><ele>806.6</ele><time>2026-04-26T08:40:36.745Z</time></trkpt><trkpt lat="44.9398517" lon="7.2961873"><ele>805.4</ele><time>2026-04-26T08:40:38.745Z</time></trkpt><trkpt lat="44.9399372" lon="7.2961357"><ele>804.2</ele><time>2026-04-26T08:40:40.745Z</time></trkpt><trkpt lat="44.9400382" lon="7.2960571"><ele>803.0</ele><time>2026-04-26T08:40:42.745Z</time></trkpt><trkpt lat="44.9401018" lon="7.2960055"><ele>803.0</ele><time>2026-04-26T08:40:43.745Z</time></trkpt><trkpt lat="44.9401447" lon="7.2959377"><ele>803.0</ele><time>2026-04-26T08:40:44.745Z</time></trkpt><trkpt lat="44.9402113" lon="7.2958053"><ele>803.0</ele><time>2026-04-26T08:40:46.745Z</time></trkpt><trkpt lat="44.9402912" lon="7.2957416"><ele>803.0</ele><time>2026-04-26T08:40:48.745Z</time></trkpt><trkpt lat="44.9403885" lon="7.2957406"><ele>803.0</ele><time>2026-04-26T08:40:50.745Z</time></trkpt><trkpt lat="44.9404985" lon="7.2957192"><ele>803.0000000000001</ele><time>2026-04-26T08:40:52.745Z</time></trkpt><trkpt lat="44.9405749" lon="7.2956437"><ele>803.0</ele><time>2026-04-26T08:40:54.745Z</time></trkpt><trkpt lat="44.9406423" lon="7.2955852"><ele>803.0</ele><time>2026-04-26T08:40:56.745Z</time></trkpt><trkpt lat="44.9407178" lon="7.2955315"><ele>803.0</ele><time>2026-04-26T08:40:58.745Z</time></trkpt><trkpt lat="44.9407794" lon="7.2954472"><ele>803.0000000000001</ele><time>2026-04-26T08:41:00.745Z</time></trkpt><trkpt lat="44.9408238" lon="7.2953293"><ele>803.0</ele><time>2026-04-26T08:41:02.745Z</time></trkpt><trkpt lat="44.9408479" lon="7.2952222"><ele>802.0000000000001</ele><time>2026-04-26T08:41:03.745Z</time></trkpt><trkpt lat="44.9408905" lon="7.2951371"><ele>801.0</ele><time>2026-04-26T08:41:04.745Z</time></trkpt><trkpt lat="44.9409314" lon="7.2950632"><ele>800.0</ele><time>2026-04-26T08:41:05.745Z</time></trkpt><trkpt lat="44.9409683" lon="7.294983"><ele>799.0</ele><time>2026-04-26T08:41:06.745Z</time></trkpt><trkpt lat="44.941038" lon="7.2948334"><ele>798.0000000000001</ele><time>2026-04-26T08:41:08.745Z</time></trkpt><trkpt lat="44.9410737" lon="7.2947493"><ele>797.0</ele><time>2026-04-26T08:41:09.745Z</time></trkpt><trkpt lat="44.9410948" lon="7.2946482"><ele>797.0000000000001</ele><time>2026-04-26T08:41:10.745Z</time></trkpt><trkpt lat="44.9411327" lon="7.2945737"><ele>797.0</ele><time>2026-04-26T08:41:11.745Z</time></trkpt><trkpt lat="44.9411688" lon="7.2944917"><ele>797.0</ele><time>2026-04-26T08:41:12.745Z</time></trkpt><trkpt lat="44.9412059" lon="7.2944133"><ele>797.0</ele><time>2026-04-26T08:41:13.745Z</time></trkpt><trkpt lat="44.9412387" lon="7.2943315"><ele>797.0000000000001</ele><time>2026-04-26T08:41:14.745Z</time></trkpt><trkpt lat="44.9413213" lon="7.2942057"><ele>797.0</ele><time>2026-04-26T08:41:16.745Z</time></trkpt><trkpt lat="44.9414012" lon="7.2940945"><ele>797.0</ele><time>2026-04-26T08:41:18.745Z</time></trkpt><trkpt lat="44.9414824" lon="7.2939948"><ele>797.0</ele><time>2026-04-26T08:41:20.745Z</time></trkpt><trkpt lat="44.9415691" lon="7.2939135"><ele>797.0</ele><time>2026-04-26T08:41:22.745Z</time></trkpt><trkpt lat="44.9416563" lon="7.2938558"><ele>797.0</ele><time>2026-04-26T08:41:24.745Z</time></trkpt><trkpt lat="44.9417256" lon="7.2937638"><ele>797.0</ele><time>2026-04-26T08:41:26.745Z</time></trkpt><trkpt lat="44.9417774" lon="7.2936539"><ele>790.6</ele><time>2026-04-26T08:41:28.745Z</time></trkpt><trkpt lat="44.9418326" lon="7.2935611"><ele>784.2</ele><time>2026-04-26T08:41:30.745Z</time></trkpt><trkpt lat="44.9419135" lon="7.2934873"><ele>777.8</ele><time>2026-04-26T08:41:32.745Z</time></trkpt><trkpt lat="44.9420119" lon="7.2934901"><ele>771.4</ele><time>2026-04-26T08:41:34.744Z</time></trkpt><trkpt lat="44.9421094" lon="7.2935207"><ele>765.0</ele><time>2026-04-26T08:41:36.745Z</time></trkpt><trkpt lat="44.9422276" lon="7.2935467"><ele>765.0</ele><time>2026-04-26T08:41:38.745Z</time></trkpt><trkpt lat="44.9423405" lon="7.2935599"><ele>765.0</ele><time>2026-04-26T08:41:40.745Z</time></trkpt><trkpt lat="44.9424468" lon="7.2936037"><ele>765.0</ele><time>2026-04-26T08:41:42.745Z</time></trkpt><trkpt lat="44.9425486" lon="7.2936623"><ele>765.0</ele><time>2026-04-26T08:41:44.745Z</time></trkpt><trkpt lat="44.9426412" lon="7.2936564"><ele>765.0</ele><time>2026-04-26T08:41:46.745Z</time></trkpt><trkpt lat="44.9427557" lon="7.2935578"><ele>764.6666666666666</ele><time>2026-04-26T08:41:48.745Z</time></trkpt><trkpt lat="44.942818" lon="7.293516"><ele>764.3333333333334</ele><time>2026-04-26T08:41:49.745Z</time></trkpt><trkpt lat="44.9428834" lon="7.2934772"><ele>764.0</ele><time>2026-04-26T08:41:50.745Z</time></trkpt><trkpt lat="44.9429556" lon="7.2934525"><ele>763.6666666666667</ele><time>2026-04-26T08:41:51.745Z</time></trkpt><trkpt lat="44.9430288" lon="7.2934505"><ele>763.3333333333334</ele><time>2026-04-26T08:41:52.744Z</time></trkpt><trkpt lat="44.9431043" lon="7.293447"><ele>763.0</ele><time>2026-04-26T08:41:53.745Z</time></trkpt><trkpt lat="44.9431969" lon="7.2934419"><ele>763.0</ele><time>2026-04-26T08:41:54.745Z</time></trkpt><trkpt lat="44.9432838" lon="7.2934442"><ele>763.0</ele><time>2026-04-26T08:41:55.745Z</time></trkpt><trkpt lat="44.9434047" lon="7.2934164"><ele>763.0</ele><time>2026-04-26T08:41:57.745Z</time></trkpt><trkpt lat="44.9435106" lon="7.2934882"><ele>763.0</ele><time>2026-04-26T08:41:59.745Z</time></trkpt><trkpt lat="44.943562" lon="7.293548"><ele>763.0</ele><time>2026-04-26T08:42:00.745Z</time></trkpt><trkpt lat="44.9436458" lon="7.293666"><ele>765.3333333333334</ele><time>2026-04-26T08:42:02.745Z</time></trkpt><trkpt lat="44.9437035" lon="7.2937164"><ele>767.6666666666667</ele><time>2026-04-26T08:42:03.745Z</time></trkpt><trkpt lat="44.9437653" lon="7.2937539"><ele>770.0</ele><time>2026-04-26T08:42:04.745Z</time></trkpt><trkpt lat="44.9438739" lon="7.2938044"><ele>772.3333333333334</ele><time>2026-04-26T08:42:06.745Z</time></trkpt><trkpt lat="44.9439326" lon="7.2938479"><ele>774.6666666666666</ele><time>2026-04-26T08:42:07.745Z</time></trkpt><trkpt lat="44.9440249" lon="7.2939128"><ele>777.0</ele><time>2026-04-26T08:42:09.745Z</time></trkpt><trkpt lat="44.944111" lon="7.2939531"><ele>778.8</ele><time>2026-04-26T08:42:11.745Z</time></trkpt><trkpt lat="44.9441915" lon="7.2939658"><ele>780.6</ele><time>2026-04-26T08:42:13.745Z</time></trkpt><trkpt lat="44.9442682" lon="7.2939563"><ele>782.4</ele><time>2026-04-26T08:42:15.745Z</time></trkpt><trkpt lat="44.9443183" lon="7.2938495"><ele>784.1999999999999</ele><time>2026-04-26T08:42:17.745Z</time></trkpt><trkpt lat="44.9443561" lon="7.2937054"><ele>786.0</ele><time>2026-04-26T08:42:19.745Z</time></trkpt><trkpt lat="44.9443803" lon="7.2935471"><ele>786.25</ele><time>2026-04-26T08:42:21.745Z</time></trkpt><trkpt lat="44.9444038" lon="7.2933943"><ele>786.5</ele><time>2026-04-26T08:42:23.745Z</time></trkpt><trkpt lat="44.9444226" lon="7.2932404"><ele>786.75</ele><time>2026-04-26T08:42:25.744Z</time></trkpt><trkpt lat="44.9444017" lon="7.2930947"><ele>787.0</ele><time>2026-04-26T08:42:27.745Z</time></trkpt><trkpt lat="44.9443496" lon="7.2929331"><ele>787.0</ele><time>2026-04-26T08:42:29.745Z</time></trkpt><trkpt lat="44.9443147" lon="7.2928391"><ele>787.0</ele><time>2026-04-26T08:42:30.745Z</time></trkpt><trkpt lat="44.9442512" lon="7.2926941"><ele>787.0</ele><time>2026-04-26T08:42:32.745Z</time></trkpt><trkpt lat="44.9441903" lon="7.2925497"><ele>787.0</ele><time>2026-04-26T08:42:34.745Z</time></trkpt><trkpt lat="44.9441688" lon="7.2924026"><ele>787.0</ele><time>2026-04-26T08:42:36.745Z</time></trkpt><trkpt lat="44.9442095" lon="7.2922632"><ele>781.2</ele><time>2026-04-26T08:42:38.745Z</time></trkpt><trkpt lat="44.9442908" lon="7.2921568"><ele>775.4000000000001</ele><time>2026-04-26T08:42:40.745Z</time></trkpt><trkpt lat="44.9443896" lon="7.292104"><ele>769.5999999999999</ele><time>2026-04-26T08:42:42.745Z</time></trkpt><trkpt lat="44.9444886" lon="7.292096"><ele>763.8</ele><time>2026-04-26T08:42:44.745Z</time></trkpt><trkpt lat="44.9445854" lon="7.2920803"><ele>758.0</ele><time>2026-04-26T08:42:46.745Z</time></trkpt><trkpt lat="44.9446876" lon="7.2920554"><ele>758.0</ele><time>2026-04-26T08:42:48.745Z</time></trkpt><trkpt lat="44.9448084" lon="7.2920185"><ele>758.0</ele><time>2026-04-26T08:42:50.745Z</time></trkpt><trkpt lat="44.9448822" lon="7.2920298"><ele>758.0</ele><time>2026-04-26T08:42:51.745Z</time></trkpt><trkpt lat="44.9449456" lon="7.2920322"><ele>758.0</ele><time>2026-04-26T08:42:52.745Z</time></trkpt><trkpt lat="44.9450167" lon="7.292048"><ele>758.0</ele><time>2026-04-26T08:42:53.745Z</time></trkpt><trkpt lat="44.9450864" lon="7.2920745"><ele>758.0</ele><time>2026-04-26T08:42:54.745Z</time></trkpt><trkpt lat="44.9451613" lon="7.2921273"><ele>759.5</ele><time>2026-04-26T08:42:55.745Z</time></trkpt><trkpt lat="44.9452265" lon="7.2921843"><ele>761.0</ele><time>2026-04-26T08:42:56.745Z</time></trkpt><trkpt lat="44.9452794" lon="7.2922429"><ele>762.5</ele><time>2026-04-26T08:42:57.745Z</time></trkpt><trkpt lat="44.9453254" lon="7.2923152"><ele>764.0</ele><time>2026-04-26T08:42:58.745Z</time></trkpt><trkpt lat="44.9454221" lon="7.2924257"><ele>765.5</ele><time>2026-04-26T08:43:00.745Z</time></trkpt><trkpt lat="44.9454778" lon="7.292468"><ele>767.0</ele><time>2026-04-26T08:43:01.745Z</time></trkpt><trkpt lat="44.9455579" lon="7.2924792"><ele>767.0</ele><time>2026-04-26T08:43:02.745Z</time></trkpt><trkpt lat="44.9456242" lon="7.2924967"><ele>767.0</ele><time>2026-04-26T08:43:03.744Z</time></trkpt><trkpt lat="44.9457184" lon="7.2926064"><ele>767.0</ele><time>2026-04-26T08:43:05.745Z</time></trkpt><trkpt lat="44.9458016" lon="7.292701"><ele>767.0</ele><time>2026-04-26T08:43:07.745Z</time></trkpt><trkpt lat="44.9459018" lon="7.2926736"><ele>767.0</ele><time>2026-04-26T08:43:09.745Z</time></trkpt><trkpt lat="44.9459627" lon="7.2926241"><ele>767.0</ele><time>2026-04-26T08:43:10.745Z</time></trkpt><trkpt lat="44.9460154" lon="7.2925638"><ele>767.0</ele><time>2026-04-26T08:43:11.745Z</time></trkpt><trkpt lat="44.9460689" lon="7.2924984"><ele>767.0</ele><time>2026-04-26T08:43:12.745Z</time></trkpt><trkpt lat="44.9461437" lon="7.2923727"><ele>767.0</ele><time>2026-04-26T08:43:14.745Z</time></trkpt><trkpt lat="44.9462122" lon="7.2922678"><ele>767.0</ele><time>2026-04-26T08:43:16.745Z</time></trkpt><trkpt lat="44.9463036" lon="7.292207"><ele>764.1666666666666</ele><time>2026-04-26T08:43:18.745Z</time></trkpt><trkpt lat="44.9464074" lon="7.2921971"><ele>761.3333333333333</ele><time>2026-04-26T08:43:20.745Z</time></trkpt><trkpt lat="44.9464823" lon="7.292201"><ele>758.5</ele><time>2026-04-26T08:43:22.745Z</time></trkpt><trkpt lat="44.946545" lon="7.2921914"><ele>755.6666666666666</ele><time>2026-04-26T08:43:24.745Z</time></trkpt><trkpt lat="44.9465464" lon="7.2921002"><ele>752.8333333333334</ele><time>2026-04-26T08:43:27.745Z</time></trkpt><trkpt lat="44.9464341" lon="7.2920575"><ele>750.0</ele><time>2026-04-26T08:43:29.745Z</time></trkpt><trkpt lat="44.9463647" lon="7.2920477"><ele>750.0</ele><time>2026-04-26T08:43:30.745Z</time></trkpt><trkpt lat="44.9462852" lon="7.2920305"><ele>750.0</ele><time>2026-04-26T08:43:31.745Z</time></trkpt><trkpt lat="44.9462107" lon="7.2920288"><ele>750.0</ele><time>2026-04-26T08:43:32.745Z</time></trkpt><trkpt lat="44.9461383" lon="7.2920432"><ele>750.0</ele><time>2026-04-26T08:43:33.745Z</time></trkpt><trkpt lat="44.9460692" lon="7.2920498"><ele>750.0</ele><time>2026-04-26T08:43:34.745Z</time></trkpt><trkpt lat="44.9459913" lon="7.2920451"><ele>750.0</ele><time>2026-04-26T08:43:35.745Z</time></trkpt><trkpt lat="44.9459099" lon="7.2920191"><ele>749.0</ele><time>2026-04-26T08:43:36.745Z</time></trkpt><trkpt lat="44.9458269" lon="7.2919867"><ele>748.0</ele><time>2026-04-26T08:43:37.745Z</time></trkpt><trkpt lat="44.945749" lon="7.2919362"><ele>747.0</ele><time>2026-04-26T08:43:38.745Z</time></trkpt><trkpt lat="44.9456725" lon="7.29189"><ele>746.0</ele><time>2026-04-26T08:43:39.745Z</time></trkpt><trkpt lat="44.9455943" lon="7.2918364"><ele>745.0</ele><time>2026-04-26T08:43:40.745Z</time></trkpt><trkpt lat="44.9455134" lon="7.2917771"><ele>744.0</ele><time>2026-04-26T08:43:41.745Z</time></trkpt><trkpt lat="44.9454406" lon="7.2916928"><ele>744.0</ele><time>2026-04-26T08:43:42.745Z</time></trkpt><trkpt lat="44.9453713" lon="7.2915973"><ele>744.0</ele><time>2026-04-26T08:43:43.744Z</time></trkpt><trkpt lat="44.9453054" lon="7.2915009"><ele>744.0</ele><time>2026-04-26T08:43:44.745Z</time></trkpt><trkpt lat="44.9452387" lon="7.2914003"><ele>744.0</ele><time>2026-04-26T08:43:45.745Z</time></trkpt><trkpt lat="44.9451707" lon="7.2912855"><ele>744.0</ele><time>2026-04-26T08:43:46.745Z</time></trkpt><trkpt lat="44.945105" lon="7.2911614"><ele>743.0</ele><time>2026-04-26T08:43:47.745Z</time></trkpt><trkpt lat="44.9450116" lon="7.2910694"><ele>742.0</ele><time>2026-04-26T08:43:48.745Z</time></trkpt><trkpt lat="44.9449282" lon="7.2909733"><ele>741.0</ele><time>2026-04-26T08:43:49.745Z</time></trkpt><trkpt lat="44.9448389" lon="7.2908863"><ele>740.0</ele><time>2026-04-26T08:43:50.745Z</time></trkpt><trkpt lat="44.9447569" lon="7.2908039"><ele>739.0</ele><time>2026-04-26T08:43:51.745Z</time></trkpt><trkpt lat="44.9446628" lon="7.2907577"><ele>739.0</ele><time>2026-04-26T08:43:52.745Z</time></trkpt><trkpt lat="44.94456" lon="7.2907406"><ele>739.0</ele><time>2026-04-26T08:43:53.745Z</time></trkpt><trkpt lat="44.9444557" lon="7.2907259"><ele>739.0</ele><time>2026-04-26T08:43:54.745Z</time></trkpt><trkpt lat="44.9443467" lon="7.2907573"><ele>739.0</ele><time>2026-04-26T08:43:55.744Z</time></trkpt><trkpt lat="44.9442482" lon="7.2907691"><ele>739.0</ele><time>2026-04-26T08:43:56.745Z</time></trkpt><trkpt lat="44.9441415" lon="7.2907514"><ele>739.2</ele><time>2026-04-26T08:43:57.745Z</time></trkpt><trkpt lat="44.9440371" lon="7.2907042"><ele>739.4000000000001</ele><time>2026-04-26T08:43:58.745Z</time></trkpt><trkpt lat="44.943947" lon="7.2906444"><ele>739.6</ele><time>2026-04-26T08:43:59.745Z</time></trkpt><trkpt lat="44.9438613" lon="7.2905545"><ele>739.8</ele><time>2026-04-26T08:44:00.745Z</time></trkpt><trkpt lat="44.9437726" lon="7.2904512"><ele>740.0</ele><time>2026-04-26T08:44:01.745Z</time></trkpt><trkpt lat="44.9436762" lon="7.2903495"><ele>740.0</ele><time>2026-04-26T08:44:02.745Z</time></trkpt><trkpt lat="44.9436052" lon="7.2902524"><ele>740.0</ele><time>2026-04-26T08:44:03.745Z</time></trkpt><trkpt lat="44.9435458" lon="7.2901537"><ele>740.0</ele><time>2026-04-26T08:44:04.745Z</time></trkpt><trkpt lat="44.9434922" lon="7.2900654"><ele>740.0</ele><time>2026-04-26T08:44:05.745Z</time></trkpt><trkpt lat="44.9434282" lon="7.290004"><ele>740.0</ele><time>2026-04-26T08:44:06.745Z</time></trkpt><trkpt lat="44.9433458" lon="7.2899695"><ele>740.0</ele><time>2026-04-26T08:44:07.745Z</time></trkpt><trkpt lat="44.9432491" lon="7.2899581"><ele>737.0</ele><time>2026-04-26T08:44:08.745Z</time></trkpt><trkpt lat="44.9431532" lon="7.2899543"><ele>734.0</ele><time>2026-04-26T08:44:09.745Z</time></trkpt><trkpt lat="44.9430646" lon="7.2899354"><ele>731.0</ele><time>2026-04-26T08:44:10.745Z</time></trkpt><trkpt lat="44.9429903" lon="7.2898976"><ele>728.0</ele><time>2026-04-26T08:44:11.745Z</time></trkpt><trkpt lat="44.9429192" lon="7.2898698"><ele>725.0</ele><time>2026-04-26T08:44:12.745Z</time></trkpt><trkpt lat="44.9428455" lon="7.2898876"><ele>722.0</ele><time>2026-04-26T08:44:13.745Z</time></trkpt><trkpt lat="44.942764" lon="7.2899591"><ele>722.0</ele><time>2026-04-26T08:44:14.745Z</time></trkpt><trkpt lat="44.9426899" lon="7.2900511"><ele>722.0</ele><time>2026-04-26T08:44:15.745Z</time></trkpt><trkpt lat="44.9426103" lon="7.2901197"><ele>722.0</ele><time>2026-04-26T08:44:16.744Z</time></trkpt><trkpt lat="44.9425191" lon="7.2901873"><ele>722.0</ele><time>2026-04-26T08:44:17.745Z</time></trkpt><trkpt lat="44.9424197" lon="7.290224"><ele>722.0</ele><time>2026-04-26T08:44:18.745Z</time></trkpt><trkpt lat="44.9423138" lon="7.2902702"><ele>721.75</ele><time>2026-04-26T08:44:19.745Z</time></trkpt><trkpt lat="44.9422045" lon="7.290351"><ele>721.5</ele><time>2026-04-26T08:44:20.745Z</time></trkpt><trkpt lat="44.9420998" lon="7.2904289"><ele>721.25</ele><time>2026-04-26T08:44:21.745Z</time></trkpt><trkpt lat="44.9419931" lon="7.2904988"><ele>721.0</ele><time>2026-04-26T08:44:22.745Z</time></trkpt><trkpt lat="44.9418884" lon="7.2905572"><ele>721.0</ele><time>2026-04-26T08:44:23.745Z</time></trkpt><trkpt lat="44.9417777" lon="7.2905908"><ele>721.0</ele><time>2026-04-26T08:44:24.745Z</time></trkpt><trkpt lat="44.9416643" lon="7.2906151"><ele>721.0</ele><time>2026-04-26T08:44:25.745Z</time></trkpt><trkpt lat="44.9415442" lon="7.2906469"><ele>721.0</ele><time>2026-04-26T08:44:26.745Z</time></trkpt><trkpt lat="44.9414249" lon="7.2906605"><ele>716.75</ele><time>2026-04-26T08:44:27.745Z</time></trkpt><trkpt lat="44.9412994" lon="7.2906713"><ele>712.5</ele><time>2026-04-26T08:44:28.745Z</time></trkpt><trkpt lat="44.9411831" lon="7.290659"><ele>708.25</ele><time>2026-04-26T08:44:29.745Z</time></trkpt><trkpt lat="44.9410665" lon="7.2906445"><ele>704.0</ele><time>2026-04-26T08:44:30.745Z</time></trkpt><trkpt lat="44.9409529" lon="7.2906193"><ele>701.0</ele><time>2026-04-26T08:44:31.744Z</time></trkpt><trkpt lat="44.9408488" lon="7.2905909"><ele>698.0</ele><time>2026-04-26T08:44:32.745Z</time></trkpt><trkpt lat="44.9407363" lon="7.2905893"><ele>695.0</ele><time>2026-04-26T08:44:33.745Z</time></trkpt><trkpt lat="44.9406181" lon="7.290654"><ele>692.0</ele><time>2026-04-26T08:44:34.745Z</time></trkpt><trkpt lat="44.9404869" lon="7.2907509"><ele>692.0</ele><time>2026-04-26T08:44:35.745Z</time></trkpt><trkpt lat="44.9403701" lon="7.2908289"><ele>692.0</ele><time>2026-04-26T08:44:36.744Z</time></trkpt><trkpt lat="44.9402508" lon="7.2908864"><ele>692.0</ele><time>2026-04-26T08:44:37.745Z</time></trkpt><trkpt lat="44.9401342" lon="7.2909387"><ele>692.0</ele><time>2026-04-26T08:44:38.744Z</time></trkpt><trkpt lat="44.940028" lon="7.2910174"><ele>692.25</ele><time>2026-04-26T08:44:39.745Z</time></trkpt><trkpt lat="44.9399284" lon="7.2911374"><ele>692.5</ele><time>2026-04-26T08:44:40.745Z</time></trkpt><trkpt lat="44.9398299" lon="7.2912395"><ele>692.75</ele><time>2026-04-26T08:44:41.745Z</time></trkpt><trkpt lat="44.9397207" lon="7.2913265"><ele>693.0</ele><time>2026-04-26T08:44:42.745Z</time></trkpt><trkpt lat="44.9395854" lon="7.2914125"><ele>690.3333333333334</ele><time>2026-04-26T08:44:43.745Z</time></trkpt><trkpt lat="44.9394442" lon="7.2915015"><ele>687.6666666666667</ele><time>2026-04-26T08:44:44.745Z</time></trkpt><trkpt lat="44.9393056" lon="7.2915858"><ele>685.0</ele><time>2026-04-26T08:44:45.745Z</time></trkpt><trkpt lat="44.9391667" lon="7.2916612"><ele>685.0</ele><time>2026-04-26T08:44:46.745Z</time></trkpt><trkpt lat="44.939031" lon="7.2917332"><ele>685.0</ele><time>2026-04-26T08:44:47.745Z</time></trkpt><trkpt lat="44.9389031" lon="7.2917992"><ele>685.0</ele><time>2026-04-26T08:44:48.745Z</time></trkpt><trkpt lat="44.9387903" lon="7.2918665"><ele>685.0</ele><time>2026-04-26T08:44:49.745Z</time></trkpt><trkpt lat="44.9386871" lon="7.2919571"><ele>685.0</ele><time>2026-04-26T08:44:50.745Z</time></trkpt><trkpt lat="44.9386017" lon="7.2920793"><ele>685.0</ele><time>2026-04-26T08:44:51.745Z</time></trkpt><trkpt lat="44.938537" lon="7.2922228"><ele>685.0</ele><time>2026-04-26T08:44:52.745Z</time></trkpt><trkpt lat="44.9384819" lon="7.2923695"><ele>685.0</ele><time>2026-04-26T08:44:53.745Z</time></trkpt><trkpt lat="44.938418" lon="7.2924939"><ele>683.5</ele><time>2026-04-26T08:44:54.745Z</time></trkpt><trkpt lat="44.9383369" lon="7.2926015"><ele>682.0</ele><time>2026-04-26T08:44:55.745Z</time></trkpt><trkpt lat="44.9382439" lon="7.2927154"><ele>680.5</ele><time>2026-04-26T08:44:56.745Z</time></trkpt><trkpt lat="44.9381691" lon="7.2928487"><ele>679.0</ele><time>2026-04-26T08:44:57.745Z</time></trkpt><trkpt lat="44.9380968" lon="7.2929789"><ele>676.25</ele><time>2026-04-26T08:44:58.745Z</time></trkpt><trkpt lat="44.9380157" lon="7.2930984"><ele>673.5</ele><time>2026-04-26T08:44:59.745Z</time></trkpt><trkpt lat="44.9379214" lon="7.2932102"><ele>670.75</ele><time>2026-04-26T08:45:00.745Z</time></trkpt><trkpt lat="44.9378218" lon="7.2933156"><ele>668.0</ele><time>2026-04-26T08:45:01.745Z</time></trkpt><trkpt lat="44.9377231" lon="7.2934036"><ele>668.0</ele><time>2026-04-26T08:45:02.745Z</time></trkpt><trkpt lat="44.9376315" lon="7.2934984"><ele>668.0</ele><time>2026-04-26T08:45:03.745Z</time></trkpt><trkpt lat="44.9375582" lon="7.2936041"><ele>668.0</ele><time>2026-04-26T08:45:04.745Z</time></trkpt><trkpt lat="44.9374724" lon="7.2936984"><ele>668.0</ele><time>2026-04-26T08:45:05.745Z</time></trkpt><trkpt lat="44.9373832" lon="7.2937776"><ele>668.0</ele><time>2026-04-26T08:45:06.745Z</time></trkpt><trkpt lat="44.9372986" lon="7.2938604"><ele>665.5999999999999</ele><time>2026-04-26T08:45:07.745Z</time></trkpt><trkpt lat="44.937228" lon="7.2939483"><ele>663.1999999999999</ele><time>2026-04-26T08:45:08.745Z</time></trkpt><trkpt lat="44.937163" lon="7.2940691"><ele>660.8</ele><time>2026-04-26T08:45:09.745Z</time></trkpt><trkpt lat="44.9371138" lon="7.2941664"><ele>658.4</ele><time>2026-04-26T08:45:10.745Z</time></trkpt><trkpt lat="44.9370447" lon="7.2942473"><ele>656.0</ele><time>2026-04-26T08:45:11.745Z</time></trkpt><trkpt lat="44.9369552" lon="7.294284"><ele>656.0</ele><time>2026-04-26T08:45:12.745Z</time></trkpt><trkpt lat="44.9368501" lon="7.2943028"><ele>656.0</ele><time>2026-04-26T08:45:13.745Z</time></trkpt><trkpt lat="44.9367361" lon="7.2943212"><ele>656.0</ele><time>2026-04-26T08:45:14.745Z</time></trkpt><trkpt lat="44.9366051" lon="7.2943455"><ele>656.0</ele><time>2026-04-26T08:45:15.745Z</time></trkpt><trkpt lat="44.9364571" lon="7.2943742"><ele>659.6666666666666</ele><time>2026-04-26T08:45:16.745Z</time></trkpt><trkpt lat="44.9362876" lon="7.2944181"><ele>663.3333333333334</ele><time>2026-04-26T08:45:17.745Z</time></trkpt><trkpt lat="44.9361227" lon="7.2944807"><ele>667.0</ele><time>2026-04-26T08:45:18.745Z</time></trkpt><trkpt lat="44.9359419" lon="7.2945664"><ele>669.6666666666667</ele><time>2026-04-26T08:45:19.745Z</time></trkpt><trkpt lat="44.9357729" lon="7.2946666"><ele>672.3333333333334</ele><time>2026-04-26T08:45:20.745Z</time></trkpt><trkpt lat="44.9356107" lon="7.2947546"><ele>675.0</ele><time>2026-04-26T08:45:21.745Z</time></trkpt><trkpt lat="44.9354592" lon="7.2948437"><ele>668.0</ele><time>2026-04-26T08:45:22.745Z</time></trkpt><trkpt lat="44.9353212" lon="7.2949399"><ele>661.0</ele><time>2026-04-26T08:45:23.745Z</time></trkpt><trkpt lat="44.9351881" lon="7.295015"><ele>654.0</ele><time>2026-04-26T08:45:24.745Z</time></trkpt><trkpt lat="44.9350573" lon="7.2950771"><ele>647.0</ele><time>2026-04-26T08:45:25.745Z</time></trkpt><trkpt lat="44.9349362" lon="7.2951337"><ele>647.0</ele><time>2026-04-26T08:45:26.745Z</time></trkpt><trkpt lat="44.9348192" lon="7.2951818"><ele>647.0</ele><time>2026-04-26T08:45:27.745Z</time></trkpt><trkpt lat="44.9347092" lon="7.29523"><ele>647.0</ele><time>2026-04-26T08:45:28.745Z</time></trkpt><trkpt lat="44.9346045" lon="7.2952672"><ele>647.0</ele><time>2026-04-26T08:45:29.745Z</time></trkpt><trkpt lat="44.9345127" lon="7.2953017"><ele>647.0</ele><time>2026-04-26T08:45:30.745Z</time></trkpt><trkpt lat="44.9344277" lon="7.2953466"><ele>647.0</ele><time>2026-04-26T08:45:31.745Z</time></trkpt><trkpt lat="44.9343593" lon="7.2953905"><ele>647.0</ele><time>2026-04-26T08:45:32.745Z</time></trkpt><trkpt lat="44.9342973" lon="7.2954461"><ele>647.0</ele><time>2026-04-26T08:45:33.745Z</time></trkpt><trkpt lat="44.9342376" lon="7.2954941"><ele>647.0</ele><time>2026-04-26T08:45:34.745Z</time></trkpt><trkpt lat="44.9341707" lon="7.2954903"><ele>647.0</ele><time>2026-04-26T08:45:35.745Z</time></trkpt><trkpt lat="44.9341004" lon="7.2954473"><ele>647.0</ele><time>2026-04-26T08:45:36.745Z</time></trkpt><trkpt lat="44.9340212" lon="7.2953967"><ele>647.0</ele><time>2026-04-26T08:45:37.745Z</time></trkpt><trkpt lat="44.9339171" lon="7.2953455"><ele>645.0</ele><time>2026-04-26T08:45:38.745Z</time></trkpt><trkpt lat="44.9338179" lon="7.2952984"><ele>643.0</ele><time>2026-04-26T08:45:39.745Z</time></trkpt><trkpt lat="44.9337244" lon="7.2952493"><ele>641.0</ele><time>2026-04-26T08:45:40.745Z</time></trkpt><trkpt lat="44.933634" lon="7.2952035"><ele>639.0</ele><time>2026-04-26T08:45:41.745Z</time></trkpt><trkpt lat="44.9335436" lon="7.2951763"><ele>637.0</ele><time>2026-04-26T08:45:42.745Z</time></trkpt><trkpt lat="44.9334614" lon="7.2951791"><ele>635.0</ele><time>2026-04-26T08:45:43.745Z</time></trkpt><trkpt lat="44.9333812" lon="7.2952213"><ele>633.0</ele><time>2026-04-26T08:45:44.745Z</time></trkpt><trkpt lat="44.9333041" lon="7.2952835"><ele>631.0</ele><time>2026-04-26T08:45:45.745Z</time></trkpt><trkpt lat="44.9332163" lon="7.2953936"><ele>629.0</ele><time>2026-04-26T08:45:46.745Z</time></trkpt><trkpt lat="44.9331204" lon="7.2954522"><ele>627.0</ele><time>2026-04-26T08:45:47.745Z</time></trkpt><trkpt lat="44.9330246" lon="7.2954767"><ele>627.0</ele><time>2026-04-26T08:45:48.745Z</time></trkpt><trkpt lat="44.9329147" lon="7.2954466"><ele>627.0</ele><time>2026-04-26T08:45:49.745Z</time></trkpt><trkpt lat="44.9327885" lon="7.2953954"><ele>627.0</ele><time>2026-04-26T08:45:50.745Z</time></trkpt><trkpt lat="44.9326623" lon="7.2953546"><ele>627.0</ele><time>2026-04-26T08:45:51.745Z</time></trkpt><trkpt lat="44.9325446" lon="7.2953254"><ele>626.6666666666666</ele><time>2026-04-26T08:45:52.745Z</time></trkpt><trkpt lat="44.9324566" lon="7.2952565"><ele>626.3333333333334</ele><time>2026-04-26T08:45:53.745Z</time></trkpt><trkpt lat="44.9323934" lon="7.2951901"><ele>626.0</ele><time>2026-04-26T08:45:54.745Z</time></trkpt><trkpt lat="44.9323531" lon="7.295093"><ele>625.6666666666667</ele><time>2026-04-26T08:45:55.744Z</time></trkpt><trkpt lat="44.9323349" lon="7.2950005"><ele>625.3333333333334</ele><time>2026-04-26T08:45:56.745Z</time></trkpt><trkpt lat="44.9323034" lon="7.2949186"><ele>625.0</ele><time>2026-04-26T08:45:57.745Z</time></trkpt><trkpt lat="44.932257" lon="7.2948456"><ele>625.0</ele><time>2026-04-26T08:45:58.745Z</time></trkpt><trkpt lat="44.9321821" lon="7.2947819"><ele>625.0</ele><time>2026-04-26T08:45:59.744Z</time></trkpt><trkpt lat="44.9320944" lon="7.2946884"><ele>625.0</ele><time>2026-04-26T08:46:00.745Z</time></trkpt><trkpt lat="44.9320069" lon="7.294603"><ele>625.0</ele><time>2026-04-26T08:46:01.745Z</time></trkpt><trkpt lat="44.9319046" lon="7.2945277"><ele>625.0</ele><time>2026-04-26T08:46:02.745Z</time></trkpt><trkpt lat="44.9317944" lon="7.2944711"><ele>627.5</ele><time>2026-04-26T08:46:03.745Z</time></trkpt><trkpt lat="44.9316575" lon="7.2944576"><ele>630.0</ele><time>2026-04-26T08:46:04.744Z</time></trkpt><trkpt lat="44.9315151" lon="7.29447"><ele>632.5</ele><time>2026-04-26T08:46:05.745Z</time></trkpt><trkpt lat="44.9313758" lon="7.294503"><ele>635.0</ele><time>2026-04-26T08:46:06.745Z</time></trkpt><trkpt lat="44.9312463" lon="7.2945347"><ele>635.0</ele><time>2026-04-26T08:46:07.745Z</time></trkpt><trkpt lat="44.9311236" lon="7.2945542"><ele>635.0</ele><time>2026-04-26T08:46:08.745Z</time></trkpt><trkpt lat="44.9310051" lon="7.2945943"><ele>635.0</ele><time>2026-04-26T08:46:09.745Z</time></trkpt><trkpt lat="44.9308955" lon="7.2946399"><ele>635.0</ele><time>2026-04-26T08:46:10.745Z</time></trkpt><trkpt lat="44.930791" lon="7.2947096"><ele>627.75</ele><time>2026-04-26T08:46:11.745Z</time></trkpt><trkpt lat="44.9306939" lon="7.2947678"><ele>620.5</ele><time>2026-04-26T08:46:12.745Z</time></trkpt><trkpt lat="44.9306045" lon="7.2948331"><ele>613.25</ele><time>2026-04-26T08:46:13.745Z</time></trkpt><trkpt lat="44.9305155" lon="7.2949476"><ele>606.0</ele><time>2026-04-26T08:46:14.745Z</time></trkpt><trkpt lat="44.9304288" lon="7.2950709"><ele>606.0</ele><time>2026-04-26T08:46:15.745Z</time></trkpt><trkpt lat="44.9303515" lon="7.295178"><ele>606.0</ele><time>2026-04-26T08:46:16.745Z</time></trkpt><trkpt lat="44.9302711" lon="7.2952874"><ele>606.0</ele><time>2026-04-26T08:46:17.745Z</time></trkpt><trkpt lat="44.9301978" lon="7.2953977"><ele>606.0</ele><time>2026-04-26T08:46:18.745Z</time></trkpt><trkpt lat="44.9301273" lon="7.2954774"><ele>606.0</ele><time>2026-04-26T08:46:19.745Z</time></trkpt><trkpt lat="44.9300448" lon="7.2955608"><ele>605.3333333333334</ele><time>2026-04-26T08:46:21.745Z</time></trkpt><trkpt lat="44.9299648" lon="7.2955762"><ele>604.6666666666666</ele><time>2026-04-26T08:46:24.745Z</time></trkpt><trkpt lat="44.9299365" lon="7.2954863"><ele>604.0</ele><time>2026-04-26T08:46:26.745Z</time></trkpt><trkpt lat="44.9299245" lon="7.2953147"><ele>603.3333333333333</ele><time>2026-04-26T08:46:28.745Z</time></trkpt><trkpt lat="44.9299307" lon="7.2952225"><ele>602.6666666666666</ele><time>2026-04-26T08:46:29.745Z</time></trkpt><trkpt lat="44.9299389" lon="7.2951005"><ele>602.0</ele><time>2026-04-26T08:46:30.745Z</time></trkpt><trkpt lat="44.9299461" lon="7.2949878"><ele>602.0</ele><time>2026-04-26T08:46:31.745Z</time></trkpt><trkpt lat="44.9299612" lon="7.2948366"><ele>602.0</ele><time>2026-04-26T08:46:32.745Z</time></trkpt><trkpt lat="44.9299829" lon="7.2946587"><ele>602.0</ele><time>2026-04-26T08:46:33.745Z</time></trkpt><trkpt lat="44.930004" lon="7.2944887"><ele>602.0</ele><time>2026-04-26T08:46:34.745Z</time></trkpt><trkpt lat="44.9300383" lon="7.29431"><ele>605.5</ele><time>2026-04-26T08:46:35.745Z</time></trkpt><trkpt lat="44.9300778" lon="7.2941552"><ele>609.0</ele><time>2026-04-26T08:46:36.745Z</time></trkpt><trkpt lat="44.9301103" lon="7.2940004"><ele>612.5</ele><time>2026-04-26T08:46:37.745Z</time></trkpt><trkpt lat="44.930163" lon="7.2938471"><ele>616.0</ele><time>2026-04-26T08:46:38.745Z</time></trkpt><trkpt lat="44.9302318" lon="7.2937011"><ele>617.4</ele><time>2026-04-26T08:46:39.745Z</time></trkpt><trkpt lat="44.9302897" lon="7.2935626"><ele>618.8</ele><time>2026-04-26T08:46:40.745Z</time></trkpt><trkpt lat="44.9303426" lon="7.293444"><ele>620.1999999999999</ele><time>2026-04-26T08:46:41.745Z</time></trkpt><trkpt lat="44.9304002" lon="7.2933352"><ele>621.6</ele><time>2026-04-26T08:46:42.745Z</time></trkpt><trkpt lat="44.9304594" lon="7.2932235"><ele>623.0</ele><time>2026-04-26T08:46:43.745Z</time></trkpt><trkpt lat="44.9305253" lon="7.2931203"><ele>623.8333333333333</ele><time>2026-04-26T08:46:44.745Z</time></trkpt><trkpt lat="44.9305894" lon="7.2930372"><ele>624.6666666666666</ele><time>2026-04-26T08:46:45.744Z</time></trkpt><trkpt lat="44.930657" lon="7.2929597"><ele>625.5</ele><time>2026-04-26T08:46:46.745Z</time></trkpt><trkpt lat="44.9307324" lon="7.2928934"><ele>626.3333333333334</ele><time>2026-04-26T08:46:47.745Z</time></trkpt><trkpt lat="44.9308134" lon="7.2928431"><ele>627.1666666666667</ele><time>2026-04-26T08:46:48.745Z</time></trkpt><trkpt lat="44.9308827" lon="7.2927797"><ele>628.0</ele><time>2026-04-26T08:46:49.745Z</time></trkpt><trkpt lat="44.9309451" lon="7.2926979"><ele>629.8571428571428</ele><time>2026-04-26T08:46:50.745Z</time></trkpt><trkpt lat="44.9310055" lon="7.2926134"><ele>631.7142857142857</ele><time>2026-04-26T08:46:51.745Z</time></trkpt><trkpt lat="44.9310634" lon="7.2925449"><ele>633.5714285714286</ele><time>2026-04-26T08:46:52.745Z</time></trkpt><trkpt lat="44.9311125" lon="7.2924837"><ele>635.4285714285713</ele><time>2026-04-26T08:46:53.745Z</time></trkpt><trkpt lat="44.9311651" lon="7.2924305"><ele>637.2857142857142</ele><time>2026-04-26T08:46:54.745Z</time></trkpt><trkpt lat="44.9312291" lon="7.2924022"><ele>639.1428571428571</ele><time>2026-04-26T08:46:55.745Z</time></trkpt><trkpt lat="44.9312929" lon="7.2923694"><ele>641.0</ele><time>2026-04-26T08:46:56.745Z</time></trkpt><trkpt lat="44.9313571" lon="7.2923174"><ele>641.1999999999999</ele><time>2026-04-26T08:46:57.745Z</time></trkpt><trkpt lat="44.9314164" lon="7.2922356"><ele>641.4</ele><time>2026-04-26T08:46:58.745Z</time></trkpt><trkpt lat="44.9314812" lon="7.2921194"><ele>641.6</ele><time>2026-04-26T08:46:59.745Z</time></trkpt><trkpt lat="44.9315577" lon="7.2919952"><ele>641.8</ele><time>2026-04-26T08:47:00.745Z</time></trkpt><trkpt lat="44.9316383" lon="7.2918635"><ele>642.0</ele><time>2026-04-26T08:47:01.745Z</time></trkpt><trkpt lat="44.9317059" lon="7.2917521"><ele>644.0</ele><time>2026-04-26T08:47:02.745Z</time></trkpt><trkpt lat="44.9317682" lon="7.2916663"><ele>646.0</ele><time>2026-04-26T08:47:03.745Z</time></trkpt><trkpt lat="44.9318159" lon="7.2915867"><ele>648.0</ele><time>2026-04-26T08:47:04.745Z</time></trkpt><trkpt lat="44.9318351" lon="7.2914873"><ele>650.0</ele><time>2026-04-26T08:47:05.745Z</time></trkpt><trkpt lat="44.9318541" lon="7.2913887"><ele>652.0</ele><time>2026-04-26T08:47:06.745Z</time></trkpt><trkpt lat="44.9318549" lon="7.2912471"><ele>654.0</ele><time>2026-04-26T08:47:07.745Z</time></trkpt><trkpt lat="44.9318742" lon="7.2911222"><ele>654.0</ele><time>2026-04-26T08:47:08.745Z</time></trkpt><trkpt lat="44.9319026" lon="7.2909959"><ele>654.0</ele><time>2026-04-26T08:47:09.745Z</time></trkpt><trkpt lat="44.931948" lon="7.2908876"><ele>654.0</ele><time>2026-04-26T08:47:10.745Z</time></trkpt><trkpt lat="44.9320183" lon="7.2908008"><ele>654.0</ele><time>2026-04-26T08:47:11.745Z</time></trkpt><trkpt lat="44.9321057" lon="7.2907155"><ele>654.0</ele><time>2026-04-26T08:47:12.745Z</time></trkpt><trkpt lat="44.9322038" lon="7.2906555"><ele>654.0</ele><time>2026-04-26T08:47:13.745Z</time></trkpt><trkpt lat="44.9322836" lon="7.2906028"><ele>654.0</ele><time>2026-04-26T08:47:14.745Z</time></trkpt><trkpt lat="44.9323513" lon="7.2905307"><ele>654.0</ele><time>2026-04-26T08:47:15.745Z</time></trkpt><trkpt lat="44.9324244" lon="7.2904624"><ele>654.0</ele><time>2026-04-26T08:47:16.745Z</time></trkpt><trkpt lat="44.9324724" lon="7.2903503"><ele>654.0</ele><time>2026-04-26T08:47:17.745Z</time></trkpt><trkpt lat="44.9325296" lon="7.2902277"><ele>658.2</ele><time>2026-04-26T08:47:18.745Z</time></trkpt><trkpt lat="44.9325843" lon="7.2901069"><ele>662.4000000000001</ele><time>2026-04-26T08:47:19.744Z</time></trkpt><trkpt lat="44.9326463" lon="7.2900189"><ele>666.6</ele><time>2026-04-26T08:47:20.745Z</time></trkpt><trkpt lat="44.9327195" lon="7.2899293"><ele>670.8</ele><time>2026-04-26T08:47:21.745Z</time></trkpt><trkpt lat="44.9327957" lon="7.2898578"><ele>675.0</ele><time>2026-04-26T08:47:22.745Z</time></trkpt><trkpt lat="44.9328561" lon="7.2897974"><ele>675.0</ele><time>2026-04-26T08:47:23.745Z</time></trkpt><trkpt lat="44.9329081" lon="7.2897098"><ele>675.0</ele><time>2026-04-26T08:47:25.745Z</time></trkpt><trkpt lat="44.9328539" lon="7.2896472"><ele>675.0</ele><time>2026-04-26T08:47:27.745Z</time></trkpt><trkpt lat="44.9327444" lon="7.2896904"><ele>675.0</ele><time>2026-04-26T08:47:29.745Z</time></trkpt><trkpt lat="44.9326769" lon="7.2897357"><ele>675.0</ele><time>2026-04-26T08:47:30.745Z</time></trkpt><trkpt lat="44.9325965" lon="7.2897769"><ele>675.0</ele><time>2026-04-26T08:47:31.745Z</time></trkpt><trkpt lat="44.9325091" lon="7.2898354"><ele>673.1666666666666</ele><time>2026-04-26T08:47:32.745Z</time></trkpt><trkpt lat="44.9324328" lon="7.2899162"><ele>671.3333333333334</ele><time>2026-04-26T08:47:33.745Z</time></trkpt><trkpt lat="44.9323707" lon="7.2899767"><ele>669.5</ele><time>2026-04-26T08:47:34.745Z</time></trkpt><trkpt lat="44.9323031" lon="7.2900224"><ele>667.6666666666667</ele><time>2026-04-26T08:47:35.745Z</time></trkpt><trkpt lat="44.9322375" lon="7.2900778"><ele>665.8333333333334</ele><time>2026-04-26T08:47:36.745Z</time></trkpt><trkpt lat="44.9321561" lon="7.2901013"><ele>664.0</ele><time>2026-04-26T08:47:37.745Z</time></trkpt><trkpt lat="44.9320613" lon="7.2901116"><ele>664.0</ele><time>2026-04-26T08:47:38.745Z</time></trkpt><trkpt lat="44.9319634" lon="7.2901219"><ele>664.0</ele><time>2026-04-26T08:47:39.745Z</time></trkpt><trkpt lat="44.9318632" lon="7.2901389"><ele>664.0</ele><time>2026-04-26T08:47:40.745Z</time></trkpt><trkpt lat="44.9317637" lon="7.2901673"><ele>664.0</ele><time>2026-04-26T08:47:41.745Z</time></trkpt><trkpt lat="44.9316822" lon="7.2901981"><ele>664.0</ele><time>2026-04-26T08:47:42.745Z</time></trkpt><trkpt lat="44.9316013" lon="7.2902302"><ele>666.4000000000001</ele><time>2026-04-26T08:47:43.745Z</time></trkpt><trkpt lat="44.9314975" lon="7.2902834"><ele>668.8</ele><time>2026-04-26T08:47:45.745Z</time></trkpt><trkpt lat="44.9314286" lon="7.2902524"><ele>671.2</ele><time>2026-04-26T08:47:47.745Z</time></trkpt><trkpt lat="44.9314709" lon="7.2901286"><ele>673.5999999999999</ele><time>2026-04-26T08:47:49.745Z</time></trkpt><trkpt lat="44.9314764" lon="7.2900268"><ele>676.0</ele><time>2026-04-26T08:47:51.745Z</time></trkpt><trkpt lat="44.9314633" lon="7.2898562"><ele>676.0</ele><time>2026-04-26T08:47:53.745Z</time></trkpt><trkpt lat="44.9314672" lon="7.2897634"><ele>676.0</ele><time>2026-04-26T08:47:54.745Z</time></trkpt><trkpt lat="44.9314503" lon="7.289669"><ele>676.0</ele><time>2026-04-26T08:47:55.745Z</time></trkpt><trkpt lat="44.9314311" lon="7.2895575"><ele>676.0</ele><time>2026-04-26T08:47:56.745Z</time></trkpt><trkpt lat="44.931393" lon="7.2894315"><ele>676.0</ele><time>2026-04-26T08:47:57.745Z</time></trkpt><trkpt lat="44.9313537" lon="7.2893212"><ele>676.0</ele><time>2026-04-26T08:47:58.745Z</time></trkpt><trkpt lat="44.9313068" lon="7.2892068"><ele>679.8333333333334</ele><time>2026-04-26T08:47:59.745Z</time></trkpt><trkpt lat="44.9312596" lon="7.2891109"><ele>683.6666666666667</ele><time>2026-04-26T08:48:00.745Z</time></trkpt><trkpt lat="44.931209" lon="7.2890202"><ele>687.5</ele><time>2026-04-26T08:48:01.744Z</time></trkpt><trkpt lat="44.9311733" lon="7.2889379"><ele>691.3333333333334</ele><time>2026-04-26T08:48:02.744Z</time></trkpt><trkpt lat="44.9310899" lon="7.2888066"><ele>695.1666666666666</ele><time>2026-04-26T08:48:04.745Z</time></trkpt><trkpt lat="44.9310231" lon="7.2887574"><ele>699.0</ele><time>2026-04-26T08:48:05.745Z</time></trkpt><trkpt lat="44.9309163" lon="7.2887058"><ele>698.5</ele><time>2026-04-26T08:48:07.745Z</time></trkpt><trkpt lat="44.9308266" lon="7.2887697"><ele>698.0</ele><time>2026-04-26T08:48:09.745Z</time></trkpt><trkpt lat="44.9308049" lon="7.2888775"><ele>697.5</ele><time>2026-04-26T08:48:10.745Z</time></trkpt><trkpt lat="44.9307822" lon="7.2889982"><ele>697.0</ele><time>2026-04-26T08:48:11.745Z</time></trkpt><trkpt lat="44.9307425" lon="7.2891161"><ele>696.5</ele><time>2026-04-26T08:48:12.745Z</time></trkpt><trkpt lat="44.930695" lon="7.2892099"><ele>696.0</ele><time>2026-04-26T08:48:13.745Z</time></trkpt><trkpt lat="44.9306386" lon="7.2893036"><ele>696.0</ele><time>2026-04-26T08:48:14.745Z</time></trkpt><trkpt lat="44.9305677" lon="7.2893881"><ele>696.0</ele><time>2026-04-26T08:48:15.745Z</time></trkpt><trkpt lat="44.9304845" lon="7.2894531"><ele>696.0</ele><time>2026-04-26T08:48:16.745Z</time></trkpt><trkpt lat="44.9304073" lon="7.2895182"><ele>696.0</ele><time>2026-04-26T08:48:17.745Z</time></trkpt><trkpt lat="44.9303314" lon="7.2895924"><ele>696.0</ele><time>2026-04-26T08:48:18.745Z</time></trkpt><trkpt lat="44.9302497" lon="7.28964"><ele>696.0</ele><time>2026-04-26T08:48:19.745Z</time></trkpt><trkpt lat="44.9301602" lon="7.2896945"><ele>696.0</ele><time>2026-04-26T08:48:20.745Z</time></trkpt><trkpt lat="44.9300773" lon="7.2897512"><ele>696.0</ele><time>2026-04-26T08:48:21.745Z</time></trkpt><trkpt lat="44.9300037" lon="7.2898137"><ele>696.0</ele><time>2026-04-26T08:48:22.745Z</time></trkpt><trkpt lat="44.9299364" lon="7.2898911"><ele>696.0</ele><time>2026-04-26T08:48:23.745Z</time></trkpt><trkpt lat="44.9298779" lon="7.2900044"><ele>694.3333333333334</ele><time>2026-04-26T08:48:24.744Z</time></trkpt><trkpt lat="44.9298151" lon="7.2901104"><ele>692.6666666666666</ele><time>2026-04-26T08:48:25.745Z</time></trkpt><trkpt lat="44.9297533" lon="7.290226"><ele>691.0</ele><time>2026-04-26T08:48:26.745Z</time></trkpt><trkpt lat="44.9297057" lon="7.2903218"><ele>689.3333333333333</ele><time>2026-04-26T08:48:27.745Z</time></trkpt><trkpt lat="44.9296631" lon="7.2904145"><ele>687.6666666666666</ele><time>2026-04-26T08:48:28.745Z</time></trkpt><trkpt lat="44.929618" lon="7.2905002"><ele>686.0</ele><time>2026-04-26T08:48:29.745Z</time></trkpt><trkpt lat="44.9295468" lon="7.2905976"><ele>686.0</ele><time>2026-04-26T08:48:30.744Z</time></trkpt><trkpt lat="44.9294591" lon="7.2906701"><ele>686.0</ele><time>2026-04-26T08:48:31.745Z</time></trkpt><trkpt lat="44.9293609" lon="7.2907772"><ele>686.0</ele><time>2026-04-26T08:48:32.745Z</time></trkpt><trkpt lat="44.9292904" lon="7.2908657"><ele>686.0</ele><time>2026-04-26T08:48:33.745Z</time></trkpt><trkpt lat="44.929218" lon="7.2909409"><ele>686.0</ele><time>2026-04-26T08:48:34.745Z</time></trkpt><trkpt lat="44.9291647" lon="7.2910302"><ele>692.1999999999999</ele><time>2026-04-26T08:48:35.745Z</time></trkpt><trkpt lat="44.9291117" lon="7.2911993"><ele>698.4</ele><time>2026-04-26T08:48:37.745Z</time></trkpt><trkpt lat="44.9290323" lon="7.2912919"><ele>704.6</ele><time>2026-04-26T08:48:39.745Z</time></trkpt><trkpt lat="44.9289576" lon="7.2912493"><ele>710.8</ele><time>2026-04-26T08:48:41.745Z</time></trkpt><trkpt lat="44.9289647" lon="7.2911311"><ele>717.0</ele><time>2026-04-26T08:48:43.745Z</time></trkpt><trkpt lat="44.9289805" lon="7.291038"><ele>717.0</ele><time>2026-04-26T08:48:44.745Z</time></trkpt><trkpt lat="44.9290028" lon="7.2909145"><ele>717.0</ele><time>2026-04-26T08:48:45.745Z</time></trkpt><trkpt lat="44.9290237" lon="7.2908021"><ele>717.0</ele><time>2026-04-26T08:48:46.745Z</time></trkpt><trkpt lat="44.9290633" lon="7.2906441"><ele>717.0</ele><time>2026-04-26T08:48:48.745Z</time></trkpt><trkpt lat="44.9290448" lon="7.2905407"><ele>717.0</ele><time>2026-04-26T08:48:50.745Z</time></trkpt><trkpt lat="44.9289571" lon="7.2905532"><ele>721.4000000000001</ele><time>2026-04-26T08:48:52.745Z</time></trkpt><trkpt lat="44.9288445" lon="7.2905684"><ele>725.8000000000001</ele><time>2026-04-26T08:48:54.745Z</time></trkpt><trkpt lat="44.9287595" lon="7.2904414"><ele>730.2</ele><time>2026-04-26T08:48:56.745Z</time></trkpt><trkpt lat="44.9287188" lon="7.2903385"><ele>734.6</ele><time>2026-04-26T08:48:57.745Z</time></trkpt><trkpt lat="44.9286821" lon="7.2902413"><ele>739.0</ele><time>2026-04-26T08:48:58.745Z</time></trkpt><trkpt lat="44.9286427" lon="7.2901514"><ele>739.0</ele><time>2026-04-26T08:48:59.745Z</time></trkpt><trkpt lat="44.9285939" lon="7.2900661"><ele>739.0</ele><time>2026-04-26T08:49:00.745Z</time></trkpt><trkpt lat="44.9285325" lon="7.2899325"><ele>739.0</ele><time>2026-04-26T08:49:02.744Z</time></trkpt><trkpt lat="44.928543" lon="7.2898325"><ele>739.0</ele><time>2026-04-26T08:49:04.745Z</time></trkpt><trkpt lat="44.9286298" lon="7.2898097"><ele>739.0</ele><time>2026-04-26T08:49:06.745Z</time></trkpt><trkpt lat="44.9287004" lon="7.2898336"><ele>739.0</ele><time>2026-04-26T08:49:07.745Z</time></trkpt><trkpt lat="44.928778" lon="7.2898389"><ele>739.0</ele><time>2026-04-26T08:49:08.745Z</time></trkpt><trkpt lat="44.9288511" lon="7.2898356"><ele>739.0</ele><time>2026-04-26T08:49:09.745Z</time></trkpt><trkpt lat="44.9289266" lon="7.2898196"><ele>739.0</ele><time>2026-04-26T08:49:10.745Z</time></trkpt><trkpt lat="44.9289964" lon="7.2897931"><ele>739.0</ele><time>2026-04-26T08:49:11.745Z</time></trkpt><trkpt lat="44.929061" lon="7.2897545"><ele>739.0</ele><time>2026-04-26T08:49:12.745Z</time></trkpt><trkpt lat="44.9291239" lon="7.2896849"><ele>739.0</ele><time>2026-04-26T08:49:13.745Z</time></trkpt><trkpt lat="44.9291801" lon="7.2895811"><ele>737.1666666666667</ele><time>2026-04-26T08:49:14.745Z</time></trkpt><trkpt lat="44.9292371" lon="7.2894875"><ele>735.3333333333334</ele><time>2026-04-26T08:49:15.745Z</time></trkpt><trkpt lat="44.9292959" lon="7.2894047"><ele>733.5</ele><time>2026-04-26T08:49:16.745Z</time></trkpt><trkpt lat="44.9293609" lon="7.2893199"><ele>731.6666666666666</ele><time>2026-04-26T08:49:17.745Z</time></trkpt><trkpt lat="44.9294175" lon="7.2892218"><ele>729.8333333333333</ele><time>2026-04-26T08:49:18.745Z</time></trkpt><trkpt lat="44.9294718" lon="7.2891257"><ele>728.0</ele><time>2026-04-26T08:49:19.745Z</time></trkpt><trkpt lat="44.9295143" lon="7.28903"><ele>728.0</ele><time>2026-04-26T08:49:20.745Z</time></trkpt><trkpt lat="44.9295524" lon="7.2889402"><ele>728.0</ele><time>2026-04-26T08:49:21.745Z</time></trkpt><trkpt lat="44.9296026" lon="7.2888057"><ele>728.0</ele><time>2026-04-26T08:49:23.745Z</time></trkpt><trkpt lat="44.9295776" lon="7.288717"><ele>728.0</ele><time>2026-04-26T08:49:25.745Z</time></trkpt><trkpt lat="44.9295159" lon="7.2887462"><ele>728.0</ele><time>2026-04-26T08:49:27.745Z</time></trkpt><trkpt lat="44.9294565" lon="7.2888327"><ele>728.0</ele><time>2026-04-26T08:49:29.745Z</time></trkpt><trkpt lat="44.9294011" lon="7.2888966"><ele>728.0</ele><time>2026-04-26T08:49:30.745Z</time></trkpt><trkpt lat="44.9293464" lon="7.2889451"><ele>728.0</ele><time>2026-04-26T08:49:31.745Z</time></trkpt><trkpt lat="44.9292445" lon="7.2890572"><ele>728.0</ele><time>2026-04-26T08:49:33.745Z</time></trkpt><trkpt lat="44.9291949" lon="7.2891186"><ele>728.0</ele><time>2026-04-26T08:49:34.745Z</time></trkpt><trkpt lat="44.9291337" lon="7.2891504"><ele>728.0</ele><time>2026-04-26T08:49:35.745Z</time></trkpt><trkpt lat="44.9290709" lon="7.289175"><ele>728.0</ele><time>2026-04-26T08:49:36.745Z</time></trkpt><trkpt lat="44.9290006" lon="7.2891459"><ele>732.5</ele><time>2026-04-26T08:49:37.745Z</time></trkpt><trkpt lat="44.9289387" lon="7.2891119"><ele>737.0</ele><time>2026-04-26T08:49:38.745Z</time></trkpt><trkpt lat="44.9288927" lon="7.2890509"><ele>741.5</ele><time>2026-04-26T08:49:39.745Z</time></trkpt><trkpt lat="44.9288834" lon="7.2888832"><ele>746.0</ele><time>2026-04-26T08:49:41.745Z</time></trkpt><trkpt lat="44.928973" lon="7.2887892"><ele>750.5</ele><time>2026-04-26T08:49:43.745Z</time></trkpt><trkpt lat="44.929037" lon="7.2887458"><ele>755.0</ele><time>2026-04-26T08:49:44.745Z</time></trkpt><trkpt lat="44.929102" lon="7.2886912"><ele>758.4</ele><time>2026-04-26T08:49:45.744Z</time></trkpt><trkpt lat="44.9291605" lon="7.2886322"><ele>761.8</ele><time>2026-04-26T08:49:46.745Z</time></trkpt><trkpt lat="44.9292094" lon="7.2885396"><ele>765.2</ele><time>2026-04-26T08:49:47.745Z</time></trkpt><trkpt lat="44.9291938" lon="7.2883282"><ele>768.6</ele><time>2026-04-26T08:49:49.745Z</time></trkpt><trkpt lat="44.9291989" lon="7.2882208"><ele>772.0</ele><time>2026-04-26T08:49:50.745Z</time></trkpt><trkpt lat="44.9291585" lon="7.2881339"><ele>774.6666666666666</ele><time>2026-04-26T08:49:51.745Z</time></trkpt><trkpt lat="44.9291131" lon="7.288059"><ele>777.3333333333333</ele><time>2026-04-26T08:49:52.745Z</time></trkpt><trkpt lat="44.9290445" lon="7.2879895"><ele>780.0</ele><time>2026-04-26T08:49:53.745Z</time></trkpt><trkpt lat="44.9289895" lon="7.2879228"><ele>782.6666666666667</ele><time>2026-04-26T08:49:54.744Z</time></trkpt><trkpt lat="44.9289529" lon="7.2878371"><ele>785.3333333333334</ele><time>2026-04-26T08:49:55.745Z</time></trkpt><trkpt lat="44.9289275" lon="7.2876932"><ele>788.0</ele><time>2026-04-26T08:49:57.745Z</time></trkpt><trkpt lat="44.9289665" lon="7.2876041"><ele>788.0000000000001</ele><time>2026-04-26T08:49:58.745Z</time></trkpt><trkpt lat="44.9290056" lon="7.2875112"><ele>788.0</ele><time>2026-04-26T08:49:59.745Z</time></trkpt><trkpt lat="44.9290496" lon="7.2874015"><ele>788.0</ele><time>2026-04-26T08:50:00.745Z</time></trkpt><trkpt lat="44.9290912" lon="7.2873016"><ele>788.0</ele><time>2026-04-26T08:50:01.745Z</time></trkpt><trkpt lat="44.9291163" lon="7.2872019"><ele>788.0000000000001</ele><time>2026-04-26T08:50:02.745Z</time></trkpt><trkpt lat="44.9291288" lon="7.2871001"><ele>788.0</ele><time>2026-04-26T08:50:03.745Z</time></trkpt><trkpt lat="44.9291465" lon="7.2869882"><ele>789.0000000000001</ele><time>2026-04-26T08:50:04.745Z</time></trkpt><trkpt lat="44.9291561" lon="7.2868703"><ele>790.0</ele><time>2026-04-26T08:50:05.745Z</time></trkpt><trkpt lat="44.9291661" lon="7.286735"><ele>791.0</ele><time>2026-04-26T08:50:06.745Z</time></trkpt><trkpt lat="44.9291628" lon="7.2866278"><ele>792.0</ele><time>2026-04-26T08:50:07.745Z</time></trkpt><trkpt lat="44.9291783" lon="7.2865311"><ele>793.0000000000001</ele><time>2026-04-26T08:50:08.745Z</time></trkpt><trkpt lat="44.929229" lon="7.2863945"><ele>794.0</ele><time>2026-04-26T08:50:10.745Z</time></trkpt><trkpt lat="44.929335" lon="7.2863114"><ele>794.0000000000001</ele><time>2026-04-26T08:50:12.745Z</time></trkpt><trkpt lat="44.9294224" lon="7.2862751"><ele>794.0</ele><time>2026-04-26T08:50:13.745Z</time></trkpt><trkpt lat="44.9294762" lon="7.2862156"><ele>794.0</ele><time>2026-04-26T08:50:14.744Z</time></trkpt><trkpt lat="44.9295248" lon="7.2861534"><ele>794.0</ele><time>2026-04-26T08:50:15.745Z</time></trkpt><trkpt lat="44.9295407" lon="7.2860007"><ele>794.0000000000001</ele><time>2026-04-26T08:50:17.745Z</time></trkpt><trkpt lat="44.929526" lon="7.2859097"><ele>794.0</ele><time>2026-04-26T08:50:18.745Z</time></trkpt><trkpt lat="44.9294816" lon="7.285769"><ele>794.0000000000001</ele><time>2026-04-26T08:50:20.745Z</time></trkpt><trkpt lat="44.9294008" lon="7.2857087"><ele>794.0</ele><time>2026-04-26T08:50:22.745Z</time></trkpt><trkpt lat="44.9292969" lon="7.2857679"><ele>794.0</ele><time>2026-04-26T08:50:24.745Z</time></trkpt><trkpt lat="44.9292413" lon="7.2858295"><ele>794.0</ele><time>2026-04-26T08:50:25.745Z</time></trkpt><trkpt lat="44.9291667" lon="7.2858765"><ele>794.0000000000001</ele><time>2026-04-26T08:50:26.745Z</time></trkpt><trkpt lat="44.9291087" lon="7.2859257"><ele>794.0</ele><time>2026-04-26T08:50:27.744Z</time></trkpt><trkpt lat="44.9290516" lon="7.285986"><ele>798.25</ele><time>2026-04-26T08:50:28.744Z</time></trkpt><trkpt lat="44.9289576" lon="7.2861013"><ele>802.5</ele><time>2026-04-26T08:50:30.745Z</time></trkpt><trkpt lat="44.9288714" lon="7.2862138"><ele>806.75</ele><time>2026-04-26T08:50:32.745Z</time></trkpt><trkpt lat="44.9287718" lon="7.2862459"><ele>811.0</ele><time>2026-04-26T08:50:34.745Z</time></trkpt><trkpt lat="44.9286858" lon="7.2861475"><ele>811.0</ele><time>2026-04-26T08:50:36.745Z</time></trkpt><trkpt lat="44.9286741" lon="7.2860572"><ele>811.0</ele><time>2026-04-26T08:50:37.745Z</time></trkpt><trkpt lat="44.9286474" lon="7.2858939"><ele>811.0</ele><time>2026-04-26T08:50:39.745Z</time></trkpt><trkpt lat="44.9286199" lon="7.2857245"><ele>811.0</ele><time>2026-04-26T08:50:41.745Z</time></trkpt><trkpt lat="44.9286264" lon="7.285563"><ele>811.0</ele><time>2026-04-26T08:50:43.745Z</time></trkpt><trkpt lat="44.9286392" lon="7.2854706"><ele>813.8</ele><time>2026-04-26T08:50:44.744Z</time></trkpt><trkpt lat="44.9286571" lon="7.2853282"><ele>816.5999999999999</ele><time>2026-04-26T08:50:46.745Z</time></trkpt><trkpt lat="44.9286283" lon="7.2852359"><ele>819.4</ele><time>2026-04-26T08:50:48.744Z</time></trkpt><trkpt lat="44.9285258" lon="7.285208"><ele>822.2</ele><time>2026-04-26T08:50:50.745Z</time></trkpt><trkpt lat="44.9284139" lon="7.2851935"><ele>825.0</ele><time>2026-04-26T08:50:52.745Z</time></trkpt><trkpt lat="44.9283538" lon="7.2851526"><ele>827.1666666666666</ele><time>2026-04-26T08:50:53.745Z</time></trkpt><trkpt lat="44.9282974" lon="7.2851064"><ele>829.3333333333333</ele><time>2026-04-26T08:50:54.745Z</time></trkpt><trkpt lat="44.9282376" lon="7.2850677"><ele>831.5</ele><time>2026-04-26T08:50:55.745Z</time></trkpt><trkpt lat="44.9281844" lon="7.2850201"><ele>833.6666666666666</ele><time>2026-04-26T08:50:56.745Z</time></trkpt><trkpt lat="44.9280783" lon="7.2849624"><ele>835.8333333333333</ele><time>2026-04-26T08:50:58.745Z</time></trkpt><trkpt lat="44.9279725" lon="7.2849069"><ele>838.0</ele><time>2026-04-26T08:51:00.745Z</time></trkpt><trkpt lat="44.9278755" lon="7.2848541"><ele>842.9999999999999</ele><time>2026-04-26T08:51:02.745Z</time></trkpt><trkpt lat="44.927838" lon="7.2847486"><ele>848.0</ele><time>2026-04-26T08:51:04.745Z</time></trkpt><trkpt lat="44.9278792" lon="7.2846708"><ele>853.0</ele><time>2026-04-26T08:51:07.745Z</time></trkpt><trkpt lat="44.9279711" lon="7.2846997"><ele>858.0</ele><time>2026-04-26T08:51:09.745Z</time></trkpt><trkpt lat="44.9280417" lon="7.2846907"><ele>862.9999999999999</ele><time>2026-04-26T08:51:10.745Z</time></trkpt><trkpt lat="44.928108" lon="7.284678"><ele>868.0</ele><time>2026-04-26T08:51:11.745Z</time></trkpt><trkpt lat="44.928178" lon="7.2846703"><ele>867.9999999999999</ele><time>2026-04-26T08:51:12.745Z</time></trkpt><trkpt lat="44.9282455" lon="7.2846538"><ele>868.0</ele><time>2026-04-26T08:51:13.745Z</time></trkpt><trkpt lat="44.9283547" lon="7.2846331"><ele>868.0</ele><time>2026-04-26T08:51:15.745Z</time></trkpt><trkpt lat="44.9284643" lon="7.2846126"><ele>868.0</ele><time>2026-04-26T08:51:17.745Z</time></trkpt><trkpt lat="44.9285182" lon="7.2845649"><ele>867.9999999999999</ele><time>2026-04-26T08:51:18.745Z</time></trkpt><trkpt lat="44.9285901" lon="7.2844912"><ele>868.0</ele><time>2026-04-26T08:51:20.745Z</time></trkpt><trkpt lat="44.9286322" lon="7.2844121"><ele>867.9999999999999</ele><time>2026-04-26T08:51:22.745Z</time></trkpt><trkpt lat="44.9285631" lon="7.2843671"><ele>868.0</ele><time>2026-04-26T08:51:26.745Z</time></trkpt><trkpt lat="44.9284983" lon="7.2844352"><ele>868.0</ele><time>2026-04-26T08:51:28.745Z</time></trkpt><trkpt lat="44.9283912" lon="7.2844422"><ele>868.0</ele><time>2026-04-26T08:51:30.745Z</time></trkpt><trkpt lat="44.9282838" lon="7.2844516"><ele>867.9999999999999</ele><time>2026-04-26T08:51:32.745Z</time></trkpt><trkpt lat="44.9282073" lon="7.2844509"><ele>868.0</ele><time>2026-04-26T08:51:34.745Z</time></trkpt><trkpt lat="44.9281777" lon="7.2843489"><ele>868.0</ele><time>2026-04-26T08:51:37.745Z</time></trkpt><trkpt lat="44.9282486" lon="7.2842799"><ele>868.0</ele><time>2026-04-26T08:51:40.745Z</time></trkpt><trkpt lat="44.9283449" lon="7.2841979"><ele>868.0</ele><time>2026-04-26T08:51:42.745Z</time></trkpt><trkpt lat="44.9284017" lon="7.2841555"><ele>868.0</ele><time>2026-04-26T08:51:43.744Z</time></trkpt><trkpt lat="44.9284683" lon="7.2840411"><ele>868.0</ele><time>2026-04-26T08:51:45.745Z</time></trkpt><trkpt lat="44.9284839" lon="7.2839018"><ele>866.5999999999999</ele><time>2026-04-26T08:51:47.745Z</time></trkpt><trkpt lat="44.9284925" lon="7.2838103"><ele>865.1999999999999</ele><time>2026-04-26T08:51:48.745Z</time></trkpt><trkpt lat="44.9284907" lon="7.2836462"><ele>863.8</ele><time>2026-04-26T08:51:50.745Z</time></trkpt><trkpt lat="44.928493" lon="7.283555"><ele>862.4</ele><time>2026-04-26T08:51:51.745Z</time></trkpt><trkpt lat="44.9284996" lon="7.2833508"><ele>861.0</ele><time>2026-04-26T08:51:53.745Z</time></trkpt><trkpt lat="44.9285129" lon="7.2832144"><ele>864.0</ele><time>2026-04-26T08:51:54.745Z</time></trkpt><trkpt lat="44.9285221" lon="7.2830857"><ele>867.0</ele><time>2026-04-26T08:51:55.745Z</time></trkpt><trkpt lat="44.9285347" lon="7.2829976"><ele>870.0</ele><time>2026-04-26T08:51:56.745Z</time></trkpt><trkpt lat="44.9285359" lon="7.2828733"><ele>873.0</ele><time>2026-04-26T08:51:57.745Z</time></trkpt><trkpt lat="44.928531" lon="7.2827772"><ele>876.0</ele><time>2026-04-26T08:51:58.745Z</time></trkpt><trkpt lat="44.9285124" lon="7.2826603"><ele>879.0</ele><time>2026-04-26T08:51:59.745Z</time></trkpt><trkpt lat="44.9284962" lon="7.2825664"><ele>879.0</ele><time>2026-04-26T08:52:00.745Z</time></trkpt><trkpt lat="44.9285005" lon="7.2824098"><ele>879.0000000000001</ele><time>2026-04-26T08:52:02.745Z</time></trkpt><trkpt lat="44.9285468" lon="7.2822799"><ele>879.0000000000001</ele><time>2026-04-26T08:52:04.745Z</time></trkpt><trkpt lat="44.9286151" lon="7.2822098"><ele>879.0</ele><time>2026-04-26T08:52:05.745Z</time></trkpt><trkpt lat="44.9286894" lon="7.2821496"><ele>879.0</ele><time>2026-04-26T08:52:06.745Z</time></trkpt><trkpt lat="44.9287425" lon="7.282083"><ele>881.6666666666666</ele><time>2026-04-26T08:52:07.745Z</time></trkpt><trkpt lat="44.9288008" lon="7.2820111"><ele>884.3333333333333</ele><time>2026-04-26T08:52:08.745Z</time></trkpt><trkpt lat="44.9288507" lon="7.2819304"><ele>887.0</ele><time>2026-04-26T08:52:09.745Z</time></trkpt><trkpt lat="44.9288917" lon="7.2818606"><ele>889.6666666666666</ele><time>2026-04-26T08:52:10.745Z</time></trkpt><trkpt lat="44.9289403" lon="7.2818029"><ele>892.3333333333333</ele><time>2026-04-26T08:52:11.745Z</time></trkpt><trkpt lat="44.9290216" lon="7.2816964"><ele>895.0</ele><time>2026-04-26T08:52:13.745Z</time></trkpt><trkpt lat="44.9290174" lon="7.2816068"><ele>895.0</ele><time>2026-04-26T08:52:16.745Z</time></trkpt><trkpt lat="44.928948" lon="7.2816566"><ele>895.0</ele><time>2026-04-26T08:52:19.745Z</time></trkpt><trkpt lat="44.9288566" lon="7.281696"><ele>895.0</ele><time>2026-04-26T08:52:21.745Z</time></trkpt><trkpt lat="44.9287793" lon="7.2817266"><ele>895.0</ele><time>2026-04-26T08:52:22.745Z</time></trkpt><trkpt lat="44.92866" lon="7.2817647"><ele>895.0</ele><time>2026-04-26T08:52:24.745Z</time></trkpt><trkpt lat="44.9285276" lon="7.2817897"><ele>895.0</ele><time>2026-04-26T08:52:26.745Z</time></trkpt><trkpt lat="44.9284511" lon="7.2818259"><ele>895.0</ele><time>2026-04-26T08:52:27.745Z</time></trkpt><trkpt lat="44.9283362" lon="7.2818547"><ele>895.0</ele><time>2026-04-26T08:52:29.745Z</time></trkpt><trkpt lat="44.9282477" lon="7.2819251"><ele>895.0</ele><time>2026-04-26T08:52:31.745Z</time></trkpt><trkpt lat="44.9281548" lon="7.2820447"><ele>895.0</ele><time>2026-04-26T08:52:33.745Z</time></trkpt><trkpt lat="44.9281177" lon="7.2821311"><ele>894.9999999999999</ele><time>2026-04-26T08:52:34.745Z</time></trkpt><trkpt lat="44.9280777" lon="7.2822108"><ele>895.0</ele><time>2026-04-26T08:52:35.745Z</time></trkpt><trkpt lat="44.9279876" lon="7.2823875"><ele>895.0</ele><time>2026-04-26T08:52:37.745Z</time></trkpt><trkpt lat="44.9279287" lon="7.2824438"><ele>895.0</ele><time>2026-04-26T08:52:38.745Z</time></trkpt><trkpt lat="44.9278755" lon="7.2825"><ele>894.9999999999999</ele><time>2026-04-26T08:52:39.745Z</time></trkpt><trkpt lat="44.9278143" lon="7.2825369"><ele>895.0</ele><time>2026-04-26T08:52:40.745Z</time></trkpt><trkpt lat="44.9277459" lon="7.2825803"><ele>895.0</ele><time>2026-04-26T08:52:41.745Z</time></trkpt><trkpt lat="44.9276845" lon="7.282601"><ele>895.0</ele><time>2026-04-26T08:52:42.745Z</time></trkpt><trkpt lat="44.9276214" lon="7.2826161"><ele>895.0</ele><time>2026-04-26T08:52:43.745Z</time></trkpt><trkpt lat="44.9275548" lon="7.2826329"><ele>895.0</ele><time>2026-04-26T08:52:44.745Z</time></trkpt><trkpt lat="44.9274796" lon="7.2826263"><ele>895.0</ele><time>2026-04-26T08:52:45.745Z</time></trkpt><trkpt lat="44.9274062" lon="7.2826195"><ele>895.0</ele><time>2026-04-26T08:52:46.745Z</time></trkpt><trkpt lat="44.9273403" lon="7.2825921"><ele>895.0</ele><time>2026-04-26T08:52:47.745Z</time></trkpt><trkpt lat="44.9272697" lon="7.2825776"><ele>898.8</ele><time>2026-04-26T08:52:48.745Z</time></trkpt><trkpt lat="44.9271891" lon="7.282547"><ele>902.6</ele><time>2026-04-26T08:52:50.745Z</time></trkpt><trkpt lat="44.9271194" lon="7.2825056"><ele>906.4000000000001</ele><time>2026-04-26T08:53:03.745Z</time></trkpt><trkpt lat="44.9270683" lon="7.2824487"><ele>910.2</ele><time>2026-04-26T08:53:05.745Z</time></trkpt><trkpt lat="44.9269643" lon="7.2823541"><ele>914.0</ele><time>2026-04-26T08:53:07.745Z</time></trkpt><trkpt lat="44.9268748" lon="7.2822539"><ele>915.3333333333334</ele><time>2026-04-26T08:53:09.745Z</time></trkpt><trkpt lat="44.9267994" lon="7.282111"><ele>916.6666666666667</ele><time>2026-04-26T08:53:11.745Z</time></trkpt><trkpt lat="44.9267291" lon="7.2820404"><ele>918.0</ele><time>2026-04-26T08:53:12.745Z</time></trkpt><trkpt lat="44.9266734" lon="7.2819724"><ele>919.3333333333333</ele><time>2026-04-26T08:53:13.745Z</time></trkpt><trkpt lat="44.9266276" lon="7.2819059"><ele>920.6666666666666</ele><time>2026-04-26T08:53:14.745Z</time></trkpt><trkpt lat="44.9265616" lon="7.2818441"><ele>922.0</ele><time>2026-04-26T08:53:15.744Z</time></trkpt><trkpt lat="44.9265035" lon="7.2817814"><ele>921.9999999999999</ele><time>2026-04-26T08:53:16.745Z</time></trkpt><trkpt lat="44.9264429" lon="7.2817183"><ele>922.0</ele><time>2026-04-26T08:53:17.745Z</time></trkpt><trkpt lat="44.926381" lon="7.2816499"><ele>922.0</ele><time>2026-04-26T08:53:18.745Z</time></trkpt><trkpt lat="44.9263163" lon="7.2815772"><ele>922.0</ele><time>2026-04-26T08:53:19.745Z</time></trkpt><trkpt lat="44.9262523" lon="7.2815044"><ele>921.9999999999999</ele><time>2026-04-26T08:53:20.745Z</time></trkpt><trkpt lat="44.9261955" lon="7.2814412"><ele>922.0</ele><time>2026-04-26T08:53:21.745Z</time></trkpt><trkpt lat="44.9261315" lon="7.2813773"><ele>920.9999999999999</ele><time>2026-04-26T08:53:22.745Z</time></trkpt><trkpt lat="44.9260752" lon="7.2813083"><ele>920.0</ele><time>2026-04-26T08:53:23.745Z</time></trkpt><trkpt lat="44.9260155" lon="7.2812368"><ele>919.0</ele><time>2026-04-26T08:53:24.745Z</time></trkpt><trkpt lat="44.9259394" lon="7.2811616"><ele>918.0</ele><time>2026-04-26T08:53:25.745Z</time></trkpt><trkpt lat="44.9258699" lon="7.2810965"><ele>916.9999999999999</ele><time>2026-04-26T08:53:26.745Z</time></trkpt><trkpt lat="44.9258253" lon="7.2810264"><ele>916.0</ele><time>2026-04-26T08:53:27.745Z</time></trkpt><trkpt lat="44.9257644" lon="7.2809682"><ele>916.0</ele><time>2026-04-26T08:53:28.745Z</time></trkpt><trkpt lat="44.9257117" lon="7.2808869"><ele>915.9999999999999</ele><time>2026-04-26T08:53:29.745Z</time></trkpt><trkpt lat="44.9256597" lon="7.2808125"><ele>915.9999999999999</ele><time>2026-04-26T08:53:30.745Z</time></trkpt><trkpt lat="44.9255817" lon="7.2806743"><ele>916.0</ele><time>2026-04-26T08:53:32.745Z</time></trkpt><trkpt lat="44.925485" lon="7.280624"><ele>916.0</ele><time>2026-04-26T08:53:34.745Z</time></trkpt><trkpt lat="44.925376" lon="7.280681"><ele>915.9999999999999</ele><time>2026-04-26T08:53:36.745Z</time></trkpt><trkpt lat="44.9252676" lon="7.2807061"><ele>916.0</ele><time>2026-04-26T08:53:38.745Z</time></trkpt><trkpt lat="44.9252081" lon="7.2806721"><ele>916.0</ele><time>2026-04-26T08:53:39.745Z</time></trkpt><trkpt lat="44.9251467" lon="7.2806487"><ele>916.0</ele><time>2026-04-26T08:53:40.745Z</time></trkpt><trkpt lat="44.9250827" lon="7.280597"><ele>915.9999999999999</ele><time>2026-04-26T08:53:41.745Z</time></trkpt><trkpt lat="44.925021" lon="7.2805598"><ele>916.0</ele><time>2026-04-26T08:53:42.745Z</time></trkpt><trkpt lat="44.9249522" lon="7.2805053"><ele>924.0</ele><time>2026-04-26T08:53:43.745Z</time></trkpt><trkpt lat="44.9248477" lon="7.2804743"><ele>932.0</ele><time>2026-04-26T08:53:45.745Z</time></trkpt><trkpt lat="44.9247391" lon="7.2805188"><ele>940.0</ele><time>2026-04-26T08:53:47.745Z</time></trkpt><trkpt lat="44.9246212" lon="7.2805063"><ele>948.0</ele><time>2026-04-26T08:53:49.745Z</time></trkpt><trkpt lat="44.9245007" lon="7.2804549"><ele>948.0</ele><time>2026-04-26T08:53:51.745Z</time></trkpt><trkpt lat="44.9243975" lon="7.2803829"><ele>948.0</ele><time>2026-04-26T08:53:53.745Z</time></trkpt><trkpt lat="44.9243081" lon="7.2802956"><ele>948.0</ele><time>2026-04-26T08:53:55.744Z</time></trkpt><trkpt lat="44.9242624" lon="7.2802247"><ele>948.0</ele><time>2026-04-26T08:53:56.745Z</time></trkpt><trkpt lat="44.9241857" lon="7.2800816"><ele>948.0</ele><time>2026-04-26T08:53:58.745Z</time></trkpt><trkpt lat="44.9241408" lon="7.2800085"><ele>947.8571428571427</ele><time>2026-04-26T08:53:59.745Z</time></trkpt><trkpt lat="44.924092" lon="7.2799317"><ele>947.7142857142857</ele><time>2026-04-26T08:54:00.745Z</time></trkpt><trkpt lat="44.9240447" lon="7.2798596"><ele>947.5714285714284</ele><time>2026-04-26T08:54:01.745Z</time></trkpt><trkpt lat="44.9239941" lon="7.2797883"><ele>947.4285714285713</ele><time>2026-04-26T08:54:02.745Z</time></trkpt><trkpt lat="44.9239457" lon="7.2797258"><ele>947.2857142857142</ele><time>2026-04-26T08:54:03.745Z</time></trkpt><trkpt lat="44.9238929" lon="7.279662"><ele>947.1428571428571</ele><time>2026-04-26T08:54:04.745Z</time></trkpt><trkpt lat="44.9238418" lon="7.2795922"><ele>947.0</ele><time>2026-04-26T08:54:05.745Z</time></trkpt><trkpt lat="44.9237978" lon="7.2795204"><ele>947.0</ele><time>2026-04-26T08:54:06.745Z</time></trkpt><trkpt lat="44.9237601" lon="7.2794477"><ele>947.0</ele><time>2026-04-26T08:54:07.745Z</time></trkpt><trkpt lat="44.9236901" lon="7.279305"><ele>947.0</ele><time>2026-04-26T08:54:09.745Z</time></trkpt><trkpt lat="44.923651" lon="7.2792239"><ele>947.0</ele><time>2026-04-26T08:54:10.745Z</time></trkpt><trkpt lat="44.9235626" lon="7.2790813"><ele>947.0</ele><time>2026-04-26T08:54:12.745Z</time></trkpt><trkpt lat="44.9235089" lon="7.2790285"><ele>947.0</ele><time>2026-04-26T08:54:13.745Z</time></trkpt><trkpt lat="44.923449" lon="7.2789757"><ele>946.9999999999999</ele><time>2026-04-26T08:54:14.745Z</time></trkpt><trkpt lat="44.9233922" lon="7.2789241"><ele>947.0</ele><time>2026-04-26T08:54:15.745Z</time></trkpt><trkpt lat="44.9233228" lon="7.2788743"><ele>947.0</ele><time>2026-04-26T08:54:16.745Z</time></trkpt><trkpt lat="44.9232512" lon="7.2788229"><ele>946.9999999999999</ele><time>2026-04-26T08:54:17.745Z</time></trkpt><trkpt lat="44.9231865" lon="7.27877"><ele>947.0</ele><time>2026-04-26T08:54:18.745Z</time></trkpt><trkpt lat="44.9231273" lon="7.2787177"><ele>947.0</ele><time>2026-04-26T08:54:19.745Z</time></trkpt><trkpt lat="44.9230257" lon="7.278609"><ele>946.8</ele><time>2026-04-26T08:54:21.745Z</time></trkpt><trkpt lat="44.9229403" lon="7.2784681"><ele>946.6</ele><time>2026-04-26T08:54:23.745Z</time></trkpt><trkpt lat="44.9228931" lon="7.278393"><ele>946.3999999999999</ele><time>2026-04-26T08:54:24.745Z</time></trkpt><trkpt lat="44.9228497" lon="7.2783126"><ele>946.1999999999999</ele><time>2026-04-26T08:54:25.745Z</time></trkpt><trkpt lat="44.9227928" lon="7.2781765"><ele>946.0</ele><time>2026-04-26T08:54:27.744Z</time></trkpt><trkpt lat="44.9227646" lon="7.2780704"><ele>945.9999999999999</ele><time>2026-04-26T08:54:29.745Z</time></trkpt><trkpt lat="44.9228069" lon="7.2780005"><ele>946.0</ele><time>2026-04-26T08:54:33.745Z</time></trkpt><trkpt lat="44.922894" lon="7.2780255"><ele>946.0</ele><time>2026-04-26T08:54:43.745Z</time></trkpt><trkpt lat="44.9229665" lon="7.2780252"><ele>946.0</ele><time>2026-04-26T08:54:44.745Z</time></trkpt><trkpt lat="44.9230433" lon="7.2779959"><ele>945.9999999999999</ele><time>2026-04-26T08:54:45.745Z</time></trkpt><trkpt lat="44.9231206" lon="7.2779518"><ele>946.0</ele><time>2026-04-26T08:54:46.745Z</time></trkpt><trkpt lat="44.9231805" lon="7.2779071"><ele>946.0</ele><time>2026-04-26T08:54:47.745Z</time></trkpt><trkpt lat="44.9232416" lon="7.2778637"><ele>945.9999999999999</ele><time>2026-04-26T08:54:48.745Z</time></trkpt><trkpt lat="44.9233382" lon="7.2777766"><ele>945.9999999999999</ele><time>2026-04-26T08:54:50.745Z</time></trkpt><trkpt lat="44.9234273" lon="7.277722"><ele>946.0</ele><time>2026-04-26T08:54:52.745Z</time></trkpt><trkpt lat="44.9235068" lon="7.2776379"><ele>946.0</ele><time>2026-04-26T08:54:54.745Z</time></trkpt><trkpt lat="44.9235592" lon="7.2775503"><ele>946.5999999999999</ele><time>2026-04-26T08:54:56.745Z</time></trkpt><trkpt lat="44.9236009" lon="7.2774459"><ele>947.1999999999999</ele><time>2026-04-26T08:54:58.745Z</time></trkpt><trkpt lat="44.9236481" lon="7.2772867"><ele>947.8000000000001</ele><time>2026-04-26T08:55:00.745Z</time></trkpt><trkpt lat="44.9237279" lon="7.2771482"><ele>948.4000000000001</ele><time>2026-04-26T08:55:02.745Z</time></trkpt><trkpt lat="44.9237757" lon="7.2770768"><ele>949.0</ele><time>2026-04-26T08:55:03.745Z</time></trkpt><trkpt lat="44.9238755" lon="7.2769626"><ele>948.9999999999999</ele><time>2026-04-26T08:55:05.745Z</time></trkpt><trkpt lat="44.9239376" lon="7.2768949"><ele>949.0</ele><time>2026-04-26T08:55:06.745Z</time></trkpt><trkpt lat="44.9240058" lon="7.2768511"><ele>949.0</ele><time>2026-04-26T08:55:07.745Z</time></trkpt><trkpt lat="44.924065" lon="7.2768188"><ele>949.0</ele><time>2026-04-26T08:55:08.745Z</time></trkpt><trkpt lat="44.9241983" lon="7.2768126"><ele>948.9999999999999</ele><time>2026-04-26T08:55:10.745Z</time></trkpt><trkpt lat="44.9242605" lon="7.2768473"><ele>949.0</ele><time>2026-04-26T08:55:11.745Z</time></trkpt><trkpt lat="44.9243386" lon="7.2768769"><ele>948.8000000000001</ele><time>2026-04-26T08:55:12.745Z</time></trkpt><trkpt lat="44.9244185" lon="7.2769224"><ele>948.6000000000001</ele><time>2026-04-26T08:55:13.745Z</time></trkpt><trkpt lat="44.9245149" lon="7.2769673"><ele>948.4</ele><time>2026-04-26T08:55:14.745Z</time></trkpt><trkpt lat="44.9246166" lon="7.277016"><ele>948.2</ele><time>2026-04-26T08:55:15.745Z</time></trkpt><trkpt lat="44.9247124" lon="7.2770637"><ele>948.0</ele><time>2026-04-26T08:55:16.745Z</time></trkpt><trkpt lat="44.9248001" lon="7.2771178"><ele>948.0</ele><time>2026-04-26T08:55:17.745Z</time></trkpt><trkpt lat="44.9248843" lon="7.2771656"><ele>948.0</ele><time>2026-04-26T08:55:18.745Z</time></trkpt><trkpt lat="44.9249786" lon="7.2771844"><ele>948.0</ele><time>2026-04-26T08:55:19.745Z</time></trkpt><trkpt lat="44.9250534" lon="7.2771409"><ele>948.0</ele><time>2026-04-26T08:55:20.745Z</time></trkpt><trkpt lat="44.9251635" lon="7.2771009"><ele>948.0</ele><time>2026-04-26T08:55:21.745Z</time></trkpt><trkpt lat="44.9252468" lon="7.277061"><ele>951.4</ele><time>2026-04-26T08:55:22.745Z</time></trkpt><trkpt lat="44.9253325" lon="7.2770138"><ele>954.8</ele><time>2026-04-26T08:55:23.745Z</time></trkpt><trkpt lat="44.9254246" lon="7.2769415"><ele>958.2</ele><time>2026-04-26T08:55:24.745Z</time></trkpt><trkpt lat="44.9255252" lon="7.2768605"><ele>961.6</ele><time>2026-04-26T08:55:25.745Z</time></trkpt><trkpt lat="44.9256094" lon="7.2767903"><ele>965.0</ele><time>2026-04-26T08:55:26.745Z</time></trkpt><trkpt lat="44.9256966" lon="7.2767422"><ele>965.0</ele><time>2026-04-26T08:55:27.745Z</time></trkpt><trkpt lat="44.9257656" lon="7.2766845"><ele>965.0</ele><time>2026-04-26T08:55:28.745Z</time></trkpt><trkpt lat="44.9258498" lon="7.2766217"><ele>965.0</ele><time>2026-04-26T08:55:29.745Z</time></trkpt><trkpt lat="44.9259248" lon="7.2765583"><ele>965.0</ele><time>2026-04-26T08:55:30.745Z</time></trkpt><trkpt lat="44.9260077" lon="7.2764864"><ele>965.0</ele><time>2026-04-26T08:55:31.745Z</time></trkpt><trkpt lat="44.9260978" lon="7.2764165"><ele>969.0000000000001</ele><time>2026-04-26T08:55:32.745Z</time></trkpt><trkpt lat="44.926179" lon="7.2763578"><ele>973.0</ele><time>2026-04-26T08:55:33.745Z</time></trkpt><trkpt lat="44.9262584" lon="7.2763009"><ele>977.0</ele><time>2026-04-26T08:55:34.745Z</time></trkpt><trkpt lat="44.9263442" lon="7.2762632"><ele>981.0</ele><time>2026-04-26T08:55:35.745Z</time></trkpt><trkpt lat="44.9264089" lon="7.2762392"><ele>985.0000000000001</ele><time>2026-04-26T08:55:36.745Z</time></trkpt><trkpt lat="44.926478" lon="7.2761241"><ele>989.0</ele><time>2026-04-26T08:55:38.745Z</time></trkpt><trkpt lat="44.9264896" lon="7.275966"><ele>989.0000000000001</ele><time>2026-04-26T08:55:40.745Z</time></trkpt><trkpt lat="44.9264711" lon="7.2758467"><ele>989.0</ele><time>2026-04-26T08:55:41.745Z</time></trkpt><trkpt lat="44.9264402" lon="7.2757162"><ele>989.0</ele><time>2026-04-26T08:55:42.745Z</time></trkpt><trkpt lat="44.9263935" lon="7.2756212"><ele>989.0</ele><time>2026-04-26T08:55:43.745Z</time></trkpt><trkpt lat="44.9263587" lon="7.2755356"><ele>989.0000000000001</ele><time>2026-04-26T08:55:44.745Z</time></trkpt><trkpt lat="44.9262867" lon="7.2754623"><ele>989.0</ele><time>2026-04-26T08:55:45.745Z</time></trkpt><trkpt lat="44.9262063" lon="7.2754153"><ele>988.1666666666667</ele><time>2026-04-26T08:55:46.745Z</time></trkpt><trkpt lat="44.9261255" lon="7.2753633"><ele>987.3333333333334</ele><time>2026-04-26T08:55:47.745Z</time></trkpt><trkpt lat="44.9260562" lon="7.2753047"><ele>986.5</ele><time>2026-04-26T08:55:48.745Z</time></trkpt><trkpt lat="44.9259966" lon="7.2752454"><ele>985.6666666666667</ele><time>2026-04-26T08:55:49.745Z</time></trkpt><trkpt lat="44.9259329" lon="7.2751843"><ele>984.8333333333334</ele><time>2026-04-26T08:55:50.745Z</time></trkpt><trkpt lat="44.9258764" lon="7.2751176"><ele>984.0</ele><time>2026-04-26T08:55:51.745Z</time></trkpt><trkpt lat="44.9258362" lon="7.2750276"><ele>984.0</ele><time>2026-04-26T08:55:52.745Z</time></trkpt><trkpt lat="44.9258163" lon="7.2749412"><ele>984.0000000000001</ele><time>2026-04-26T08:55:53.745Z</time></trkpt><trkpt lat="44.9257938" lon="7.2747808"><ele>984.0000000000001</ele><time>2026-04-26T08:55:55.745Z</time></trkpt><trkpt lat="44.9257976" lon="7.2746502"><ele>984.0</ele><time>2026-04-26T08:55:57.745Z</time></trkpt><trkpt lat="44.9258128" lon="7.2745187"><ele>984.0</ele><time>2026-04-26T08:55:59.745Z</time></trkpt><trkpt lat="44.9258425" lon="7.2744065"><ele>984.2</ele><time>2026-04-26T08:56:01.745Z</time></trkpt><trkpt lat="44.9258701" lon="7.274286"><ele>984.4000000000001</ele><time>2026-04-26T08:56:03.744Z</time></trkpt><trkpt lat="44.9259195" lon="7.2741682"><ele>984.6</ele><time>2026-04-26T08:56:05.745Z</time></trkpt><trkpt lat="44.9259723" lon="7.2740449"><ele>984.8</ele><time>2026-04-26T08:56:07.745Z</time></trkpt><trkpt lat="44.9260326" lon="7.2739084"><ele>985.0</ele><time>2026-04-26T08:56:09.745Z</time></trkpt><trkpt lat="44.9260659" lon="7.2738287"><ele>987.6</ele><time>2026-04-26T08:56:10.745Z</time></trkpt><trkpt lat="44.9260943" lon="7.2737423"><ele>990.2</ele><time>2026-04-26T08:56:11.745Z</time></trkpt><trkpt lat="44.9261455" lon="7.2736049"><ele>992.8</ele><time>2026-04-26T08:56:13.745Z</time></trkpt><trkpt lat="44.9262101" lon="7.2734583"><ele>995.4</ele><time>2026-04-26T08:56:15.745Z</time></trkpt><trkpt lat="44.9262628" lon="7.2732936"><ele>998.0</ele><time>2026-04-26T08:56:17.745Z</time></trkpt><trkpt lat="44.926298" lon="7.2732022"><ele>998.0000000000001</ele><time>2026-04-26T08:56:18.745Z</time></trkpt><trkpt lat="44.9263338" lon="7.2731207"><ele>998.0</ele><time>2026-04-26T08:56:19.745Z</time></trkpt><trkpt lat="44.92638" lon="7.2730295"><ele>998.0000000000001</ele><time>2026-04-26T08:56:20.745Z</time></trkpt><trkpt lat="44.9264281" lon="7.2729531"><ele>998.0000000000001</ele><time>2026-04-26T08:56:21.745Z</time></trkpt><trkpt lat="44.926474" lon="7.2728718"><ele>998.0</ele><time>2026-04-26T08:56:22.744Z</time></trkpt><trkpt lat="44.9265295" lon="7.2728039"><ele>998.0000000000001</ele><time>2026-04-26T08:56:23.745Z</time></trkpt><trkpt lat="44.9265933" lon="7.2727585"><ele>998.0000000000001</ele><time>2026-04-26T08:56:24.745Z</time></trkpt><trkpt lat="44.9266542" lon="7.2726987"><ele>996.3333333333334</ele><time>2026-04-26T08:56:25.745Z</time></trkpt><trkpt lat="44.926717" lon="7.2726637"><ele>994.6666666666667</ele><time>2026-04-26T08:56:26.745Z</time></trkpt><trkpt lat="44.9267796" lon="7.2726133"><ele>993.0</ele><time>2026-04-26T08:56:27.745Z</time></trkpt><trkpt lat="44.9268412" lon="7.2725657"><ele>991.3333333333333</ele><time>2026-04-26T08:56:28.745Z</time></trkpt><trkpt lat="44.9269028" lon="7.2725312"><ele>989.6666666666666</ele><time>2026-04-26T08:56:29.745Z</time></trkpt><trkpt lat="44.927032" lon="7.2725408"><ele>988.0</ele><time>2026-04-26T08:56:31.745Z</time></trkpt><trkpt lat="44.92715" lon="7.2725667"><ele>988.0</ele><time>2026-04-26T08:56:33.745Z</time></trkpt><trkpt lat="44.927235" lon="7.2726281"><ele>988.0</ele><time>2026-04-26T08:56:35.745Z</time></trkpt><trkpt lat="44.9273208" lon="7.2726979"><ele>988.0</ele><time>2026-04-26T08:56:37.745Z</time></trkpt><trkpt lat="44.9274086" lon="7.2727674"><ele>988.0</ele><time>2026-04-26T08:56:39.745Z</time></trkpt><trkpt lat="44.9274868" lon="7.2728269"><ele>988.0</ele><time>2026-04-26T08:56:41.745Z</time></trkpt><trkpt lat="44.9275612" lon="7.2729137"><ele>990.0</ele><time>2026-04-26T08:56:43.745Z</time></trkpt><trkpt lat="44.9276774" lon="7.2729785"><ele>992.0</ele><time>2026-04-26T08:56:45.745Z</time></trkpt><trkpt lat="44.927792" lon="7.2730429"><ele>994.0</ele><time>2026-04-26T08:56:47.745Z</time></trkpt><trkpt lat="44.9278524" lon="7.2730702"><ele>996.0</ele><time>2026-04-26T08:56:48.745Z</time></trkpt><trkpt lat="44.9279675" lon="7.2730961"><ele>998.0</ele><time>2026-04-26T08:56:50.744Z</time></trkpt><trkpt lat="44.9280768" lon="7.273164"><ele>998.0</ele><time>2026-04-26T08:56:52.745Z</time></trkpt><trkpt lat="44.9281681" lon="7.2731748"><ele>998.0</ele><time>2026-04-26T08:56:54.745Z</time></trkpt><trkpt lat="44.9282693" lon="7.2730755"><ele>998.0</ele><time>2026-04-26T08:56:56.745Z</time></trkpt><trkpt lat="44.9283165" lon="7.2729861"><ele>998.0</ele><time>2026-04-26T08:56:57.745Z</time></trkpt><trkpt lat="44.9283758" lon="7.2728832"><ele>998.0</ele><time>2026-04-26T08:56:58.745Z</time></trkpt><trkpt lat="44.9284345" lon="7.2727443"><ele>997.8333333333334</ele><time>2026-04-26T08:56:59.745Z</time></trkpt><trkpt lat="44.9284891" lon="7.2726443"><ele>997.6666666666667</ele><time>2026-04-26T08:57:00.745Z</time></trkpt><trkpt lat="44.9285296" lon="7.2725399"><ele>997.5</ele><time>2026-04-26T08:57:01.745Z</time></trkpt><trkpt lat="44.9285765" lon="7.2724284"><ele>997.3333333333333</ele><time>2026-04-26T08:57:02.745Z</time></trkpt><trkpt lat="44.9286177" lon="7.2723265"><ele>997.1666666666666</ele><time>2026-04-26T08:57:03.745Z</time></trkpt><trkpt lat="44.9286682" lon="7.2722592"><ele>997.0</ele><time>2026-04-26T08:57:04.744Z</time></trkpt><trkpt lat="44.9287702" lon="7.2721912"><ele>996.9999999999999</ele><time>2026-04-26T08:57:06.745Z</time></trkpt><trkpt lat="44.928884" lon="7.2722287"><ele>997.0</ele><time>2026-04-26T08:57:08.745Z</time></trkpt><trkpt lat="44.9289415" lon="7.2722891"><ele>997.0</ele><time>2026-04-26T08:57:09.745Z</time></trkpt><trkpt lat="44.9289965" lon="7.2723704"><ele>997.0</ele><time>2026-04-26T08:57:10.745Z</time></trkpt><trkpt lat="44.9290408" lon="7.2724749"><ele>996.9999999999999</ele><time>2026-04-26T08:57:11.745Z</time></trkpt><trkpt lat="44.9290868" lon="7.2725769"><ele>997.0</ele><time>2026-04-26T08:57:12.745Z</time></trkpt><trkpt lat="44.9291447" lon="7.2726838"><ele>998.5</ele><time>2026-04-26T08:57:13.745Z</time></trkpt><trkpt lat="44.9292068" lon="7.2728111"><ele>1000.0</ele><time>2026-04-26T08:57:14.745Z</time></trkpt><trkpt lat="44.9292799" lon="7.272948"><ele>1001.5</ele><time>2026-04-26T08:57:15.745Z</time></trkpt><trkpt lat="44.9293608" lon="7.2730773"><ele>1003.0</ele><time>2026-04-26T08:57:16.745Z</time></trkpt><trkpt lat="44.9294372" lon="7.273193"><ele>1004.4999999999999</ele><time>2026-04-26T08:57:17.745Z</time></trkpt><trkpt lat="44.9295186" lon="7.2732959"><ele>1006.0</ele><time>2026-04-26T08:57:18.745Z</time></trkpt><trkpt lat="44.9295848" lon="7.27339"><ele>1007.5</ele><time>2026-04-26T08:57:19.744Z</time></trkpt><trkpt lat="44.9296343" lon="7.273478"><ele>1009.0</ele><time>2026-04-26T08:57:20.745Z</time></trkpt><trkpt lat="44.9296758" lon="7.2735653"><ele>1010.4999999999999</ele><time>2026-04-26T08:57:21.745Z</time></trkpt><trkpt lat="44.9297166" lon="7.2736714"><ele>1012.0</ele><time>2026-04-26T08:57:22.745Z</time></trkpt><trkpt lat="44.9297457" lon="7.2737934"><ele>1012.0</ele><time>2026-04-26T08:57:23.745Z</time></trkpt><trkpt lat="44.9297558" lon="7.2739086"><ele>1012.0</ele><time>2026-04-26T08:57:24.745Z</time></trkpt><trkpt lat="44.9297518" lon="7.274038"><ele>1012.0</ele><time>2026-04-26T08:57:25.745Z</time></trkpt><trkpt lat="44.9297599" lon="7.2741785"><ele>1012.0</ele><time>2026-04-26T08:57:26.745Z</time></trkpt><trkpt lat="44.9297772" lon="7.2743178"><ele>1012.0</ele><time>2026-04-26T08:57:27.745Z</time></trkpt><trkpt lat="44.9297995" lon="7.2744285"><ele>1013.2</ele><time>2026-04-26T08:57:28.745Z</time></trkpt><trkpt lat="44.9298203" lon="7.2745372"><ele>1014.4000000000001</ele><time>2026-04-26T08:57:29.745Z</time></trkpt><trkpt lat="44.9298362" lon="7.2746299"><ele>1015.5999999999999</ele><time>2026-04-26T08:57:30.745Z</time></trkpt><trkpt lat="44.9298736" lon="7.2748048"><ele>1016.8</ele><time>2026-04-26T08:57:32.745Z</time></trkpt><trkpt lat="44.9299117" lon="7.2748785"><ele>1018.0</ele><time>2026-04-26T08:57:33.745Z</time></trkpt><trkpt lat="44.9300241" lon="7.2749587"><ele>1018.1666666666666</ele><time>2026-04-26T08:57:35.745Z</time></trkpt><trkpt lat="44.9300961" lon="7.2749602"><ele>1018.3333333333333</ele><time>2026-04-26T08:57:36.745Z</time></trkpt><trkpt lat="44.9301753" lon="7.2749328"><ele>1018.5</ele><time>2026-04-26T08:57:37.745Z</time></trkpt><trkpt lat="44.9302636" lon="7.2748933"><ele>1018.6666666666667</ele><time>2026-04-26T08:57:38.745Z</time></trkpt><trkpt lat="44.93036" lon="7.2748531"><ele>1018.8333333333334</ele><time>2026-04-26T08:57:39.745Z</time></trkpt><trkpt lat="44.9304603" lon="7.2748268"><ele>1019.0</ele><time>2026-04-26T08:57:40.745Z</time></trkpt><trkpt lat="44.9305532" lon="7.274803"><ele>1019.0</ele><time>2026-04-26T08:57:41.745Z</time></trkpt><trkpt lat="44.9306591" lon="7.2747754"><ele>1019.0000000000001</ele><time>2026-04-26T08:57:42.745Z</time></trkpt><trkpt lat="44.9307484" lon="7.27475"><ele>1019.0000000000001</ele><time>2026-04-26T08:57:43.745Z</time></trkpt><trkpt lat="44.9308444" lon="7.2747281"><ele>1019.0</ele><time>2026-04-26T08:57:44.745Z</time></trkpt><trkpt lat="44.9309359" lon="7.2747303"><ele>1019.0</ele><time>2026-04-26T08:57:45.745Z</time></trkpt><trkpt lat="44.9310225" lon="7.2747474"><ele>1020.8333333333334</ele><time>2026-04-26T08:57:46.745Z</time></trkpt><trkpt lat="44.9310987" lon="7.2747777"><ele>1022.6666666666667</ele><time>2026-04-26T08:57:47.745Z</time></trkpt><trkpt lat="44.9311785" lon="7.274798"><ele>1024.5</ele><time>2026-04-26T08:57:48.745Z</time></trkpt><trkpt lat="44.931251" lon="7.274794"><ele>1026.3333333333333</ele><time>2026-04-26T08:57:49.745Z</time></trkpt><trkpt lat="44.9313139" lon="7.2747662"><ele>1028.1666666666665</ele><time>2026-04-26T08:57:50.745Z</time></trkpt><trkpt lat="44.9313749" lon="7.2747178"><ele>1030.0</ele><time>2026-04-26T08:57:51.745Z</time></trkpt><trkpt lat="44.931436" lon="7.2746324"><ele>1031.4</ele><time>2026-04-26T08:57:52.745Z</time></trkpt><trkpt lat="44.9314922" lon="7.2745217"><ele>1032.8</ele><time>2026-04-26T08:57:53.745Z</time></trkpt><trkpt lat="44.9315502" lon="7.2744151"><ele>1034.2</ele><time>2026-04-26T08:57:54.745Z</time></trkpt><trkpt lat="44.9316086" lon="7.2743136"><ele>1035.6</ele><time>2026-04-26T08:57:55.745Z</time></trkpt><trkpt lat="44.9316796" lon="7.2742493"><ele>1037.0</ele><time>2026-04-26T08:57:56.745Z</time></trkpt><trkpt lat="44.931747" lon="7.2741849"><ele>1039.6</ele><time>2026-04-26T08:57:57.745Z</time></trkpt><trkpt lat="44.9318177" lon="7.2741115"><ele>1042.2</ele><time>2026-04-26T08:57:58.745Z</time></trkpt><trkpt lat="44.9318961" lon="7.2740424"><ele>1044.8</ele><time>2026-04-26T08:57:59.745Z</time></trkpt><trkpt lat="44.9319746" lon="7.2739602"><ele>1047.4</ele><time>2026-04-26T08:58:00.745Z</time></trkpt><trkpt lat="44.9320466" lon="7.273887"><ele>1050.0</ele><time>2026-04-26T08:58:01.745Z</time></trkpt><trkpt lat="44.9321162" lon="7.2738113"><ele>1050.8333333333333</ele><time>2026-04-26T08:58:02.745Z</time></trkpt><trkpt lat="44.932177" lon="7.2737332"><ele>1051.6666666666667</ele><time>2026-04-26T08:58:03.745Z</time></trkpt><trkpt lat="44.9322272" lon="7.2736733"><ele>1052.5</ele><time>2026-04-26T08:58:04.745Z</time></trkpt><trkpt lat="44.9322907" lon="7.2736228"><ele>1053.3333333333335</ele><time>2026-04-26T08:58:05.745Z</time></trkpt><trkpt lat="44.9323765" lon="7.2736653"><ele>1054.1666666666667</ele><time>2026-04-26T08:58:07.745Z</time></trkpt><trkpt lat="44.9324665" lon="7.2737849"><ele>1055.0</ele><time>2026-04-26T08:58:09.745Z</time></trkpt><trkpt lat="44.932508" lon="7.2738906"><ele>1056.4</ele><time>2026-04-26T08:58:10.745Z</time></trkpt><trkpt lat="44.9325585" lon="7.2739972"><ele>1057.8</ele><time>2026-04-26T08:58:11.745Z</time></trkpt><trkpt lat="44.9326347" lon="7.2741142"><ele>1059.2</ele><time>2026-04-26T08:58:12.745Z</time></trkpt><trkpt lat="44.9326878" lon="7.2742415"><ele>1060.6</ele><time>2026-04-26T08:58:13.745Z</time></trkpt><trkpt lat="44.9327473" lon="7.2743479"><ele>1062.0</ele><time>2026-04-26T08:58:14.745Z</time></trkpt><trkpt lat="44.932802" lon="7.2744217"><ele>1062.0</ele><time>2026-04-26T08:58:15.745Z</time></trkpt><trkpt lat="44.9328644" lon="7.2744699"><ele>1062.0</ele><time>2026-04-26T08:58:16.745Z</time></trkpt><trkpt lat="44.9329319" lon="7.2745001"><ele>1062.0</ele><time>2026-04-26T08:58:17.745Z</time></trkpt><trkpt lat="44.9330298" lon="7.2745164"><ele>1062.0</ele><time>2026-04-26T08:58:19.745Z</time></trkpt><trkpt lat="44.9331004" lon="7.2744957"><ele>1062.0</ele><time>2026-04-26T08:58:20.744Z</time></trkpt><trkpt lat="44.9331813" lon="7.2744532"><ele>1062.0</ele><time>2026-04-26T08:58:21.745Z</time></trkpt><trkpt lat="44.9332657" lon="7.2744035"><ele>1062.0</ele><time>2026-04-26T08:58:22.745Z</time></trkpt><trkpt lat="44.9333443" lon="7.2743697"><ele>1062.0</ele><time>2026-04-26T08:58:23.745Z</time></trkpt><trkpt lat="44.933434" lon="7.2743175"><ele>1062.0</ele><time>2026-04-26T08:58:24.745Z</time></trkpt><trkpt lat="44.9335319" lon="7.2742496"><ele>1062.0</ele><time>2026-04-26T08:58:25.745Z</time></trkpt><trkpt lat="44.9336363" lon="7.274205"><ele>1062.0</ele><time>2026-04-26T08:58:26.745Z</time></trkpt><trkpt lat="44.9337174" lon="7.2741409"><ele>1060.8</ele><time>2026-04-26T08:58:27.745Z</time></trkpt><trkpt lat="44.9338004" lon="7.2740704"><ele>1059.6</ele><time>2026-04-26T08:58:28.745Z</time></trkpt><trkpt lat="44.9338881" lon="7.2739776"><ele>1058.3999999999999</ele><time>2026-04-26T08:58:29.745Z</time></trkpt><trkpt lat="44.9339738" lon="7.2738808"><ele>1057.2</ele><time>2026-04-26T08:58:30.745Z</time></trkpt><trkpt lat="44.9340582" lon="7.2738004"><ele>1056.0</ele><time>2026-04-26T08:58:31.745Z</time></trkpt><trkpt lat="44.9341505" lon="7.2737236"><ele>1059.0</ele><time>2026-04-26T08:58:32.745Z</time></trkpt><trkpt lat="44.9342364" lon="7.2736517"><ele>1062.0</ele><time>2026-04-26T08:58:33.745Z</time></trkpt><trkpt lat="44.9343338" lon="7.2735877"><ele>1065.0</ele><time>2026-04-26T08:58:34.745Z</time></trkpt><trkpt lat="44.9344395" lon="7.2735462"><ele>1068.0</ele><time>2026-04-26T08:58:35.745Z</time></trkpt><trkpt lat="44.9345524" lon="7.2734851"><ele>1071.0</ele><time>2026-04-26T08:58:36.745Z</time></trkpt><trkpt lat="44.9346478" lon="7.2734453"><ele>1071.0</ele><time>2026-04-26T08:58:37.745Z</time></trkpt><trkpt lat="44.9347587" lon="7.2734096"><ele>1071.0</ele><time>2026-04-26T08:58:38.745Z</time></trkpt><trkpt lat="44.9348638" lon="7.2733637"><ele>1071.0</ele><time>2026-04-26T08:58:39.745Z</time></trkpt><trkpt lat="44.9349684" lon="7.2733323"><ele>1071.0</ele><time>2026-04-26T08:58:40.745Z</time></trkpt><trkpt lat="44.9350531" lon="7.2732871"><ele>1071.0</ele><time>2026-04-26T08:58:41.745Z</time></trkpt><trkpt lat="44.9351181" lon="7.2732169"><ele>1072.2</ele><time>2026-04-26T08:58:42.745Z</time></trkpt><trkpt lat="44.9351826" lon="7.2731489"><ele>1073.3999999999999</ele><time>2026-04-26T08:58:43.745Z</time></trkpt><trkpt lat="44.9352516" lon="7.2730444"><ele>1074.6</ele><time>2026-04-26T08:58:44.745Z</time></trkpt><trkpt lat="44.935321" lon="7.2729523"><ele>1075.8</ele><time>2026-04-26T08:58:45.745Z</time></trkpt><trkpt lat="44.9353849" lon="7.2728196"><ele>1077.0</ele><time>2026-04-26T08:58:46.744Z</time></trkpt><trkpt lat="44.935439" lon="7.2727183"><ele>1079.1666666666667</ele><time>2026-04-26T08:58:47.745Z</time></trkpt><trkpt lat="44.9355003" lon="7.2726378"><ele>1081.3333333333333</ele><time>2026-04-26T08:58:48.745Z</time></trkpt><trkpt lat="44.9355583" lon="7.272585"><ele>1083.5</ele><time>2026-04-26T08:58:49.745Z</time></trkpt><trkpt lat="44.935617" lon="7.2725426"><ele>1085.6666666666665</ele><time>2026-04-26T08:58:50.745Z</time></trkpt><trkpt lat="44.9356801" lon="7.2725015"><ele>1087.8333333333333</ele><time>2026-04-26T08:58:51.745Z</time></trkpt><trkpt lat="44.9357528" lon="7.2724444"><ele>1090.0</ele><time>2026-04-26T08:58:52.745Z</time></trkpt><trkpt lat="44.9358149" lon="7.2723715"><ele>1090.0</ele><time>2026-04-26T08:58:53.745Z</time></trkpt><trkpt lat="44.9358676" lon="7.2722932"><ele>1090.0</ele><time>2026-04-26T08:58:54.745Z</time></trkpt><trkpt lat="44.9359142" lon="7.2722083"><ele>1090.0</ele><time>2026-04-26T08:58:55.745Z</time></trkpt><trkpt lat="44.9359431" lon="7.2721012"><ele>1090.0</ele><time>2026-04-26T08:58:56.745Z</time></trkpt><trkpt lat="44.9359941" lon="7.2720207"><ele>1090.0</ele><time>2026-04-26T08:58:57.745Z</time></trkpt><trkpt lat="44.9360663" lon="7.2719688"><ele>1090.0</ele><time>2026-04-26T08:58:58.745Z</time></trkpt><trkpt lat="44.9361725" lon="7.2718957"><ele>1093.8333333333333</ele><time>2026-04-26T08:59:00.745Z</time></trkpt><trkpt lat="44.9362556" lon="7.271831"><ele>1097.6666666666665</ele><time>2026-04-26T08:59:02.745Z</time></trkpt><trkpt lat="44.9362706" lon="7.2717085"><ele>1101.5</ele><time>2026-04-26T08:59:04.745Z</time></trkpt><trkpt lat="44.9361962" lon="7.2715819"><ele>1105.3333333333333</ele><time>2026-04-26T08:59:06.745Z</time></trkpt><trkpt lat="44.936149" lon="7.2715185"><ele>1109.1666666666667</ele><time>2026-04-26T08:59:07.745Z</time></trkpt><trkpt lat="44.9361048" lon="7.2714453"><ele>1113.0</ele><time>2026-04-26T08:59:08.745Z</time></trkpt><trkpt lat="44.9360491" lon="7.2713701"><ele>1112.6</ele><time>2026-04-26T08:59:09.745Z</time></trkpt><trkpt lat="44.9359527" lon="7.2713139"><ele>1112.1999999999998</ele><time>2026-04-26T08:59:10.745Z</time></trkpt><trkpt lat="44.93586" lon="7.2712718"><ele>1111.8</ele><time>2026-04-26T08:59:11.745Z</time></trkpt><trkpt lat="44.9357778" lon="7.2712155"><ele>1111.3999999999999</ele><time>2026-04-26T08:59:12.745Z</time></trkpt><trkpt lat="44.9356982" lon="7.2711407"><ele>1111.0</ele><time>2026-04-26T08:59:13.745Z</time></trkpt><trkpt lat="44.9356394" lon="7.2710656"><ele>1111.0</ele><time>2026-04-26T08:59:14.745Z</time></trkpt><trkpt lat="44.9355949" lon="7.2709829"><ele>1111.0</ele><time>2026-04-26T08:59:15.745Z</time></trkpt><trkpt lat="44.93554" lon="7.2709067"><ele>1111.0</ele><time>2026-04-26T08:59:16.745Z</time></trkpt><trkpt lat="44.935509" lon="7.2707424"><ele>1111.0</ele><time>2026-04-26T08:59:18.745Z</time></trkpt><trkpt lat="44.9355293" lon="7.2706532"><ele>1111.0</ele><time>2026-04-26T08:59:19.745Z</time></trkpt><trkpt lat="44.9355617" lon="7.2705569"><ele>1111.0</ele><time>2026-04-26T08:59:20.745Z</time></trkpt><trkpt lat="44.9356083" lon="7.2704711"><ele>1111.1666666666665</ele><time>2026-04-26T08:59:21.745Z</time></trkpt><trkpt lat="44.935654" lon="7.2704008"><ele>1111.3333333333333</ele><time>2026-04-26T08:59:22.745Z</time></trkpt><trkpt lat="44.9357318" lon="7.2703512"><ele>1111.5</ele><time>2026-04-26T08:59:23.745Z</time></trkpt><trkpt lat="44.9358115" lon="7.2703069"><ele>1111.6666666666667</ele><time>2026-04-26T08:59:24.744Z</time></trkpt><trkpt lat="44.935901" lon="7.2702763"><ele>1111.8333333333335</ele><time>2026-04-26T08:59:25.745Z</time></trkpt><trkpt lat="44.9359883" lon="7.2702515"><ele>1112.0</ele><time>2026-04-26T08:59:26.745Z</time></trkpt><trkpt lat="44.9360649" lon="7.2701958"><ele>1114.8</ele><time>2026-04-26T08:59:27.745Z</time></trkpt><trkpt lat="44.9361277" lon="7.2701224"><ele>1117.6</ele><time>2026-04-26T08:59:28.745Z</time></trkpt><trkpt lat="44.9361713" lon="7.2700173"><ele>1120.3999999999999</ele><time>2026-04-26T08:59:29.745Z</time></trkpt><trkpt lat="44.9362146" lon="7.2699027"><ele>1123.2</ele><time>2026-04-26T08:59:30.745Z</time></trkpt><trkpt lat="44.936262" lon="7.2697674"><ele>1126.0</ele><time>2026-04-26T08:59:31.745Z</time></trkpt><trkpt lat="44.9363124" lon="7.2696487"><ele>1126.0</ele><time>2026-04-26T08:59:32.745Z</time></trkpt><trkpt lat="44.9363539" lon="7.2695471"><ele>1126.0</ele><time>2026-04-26T08:59:33.745Z</time></trkpt><trkpt lat="44.9364001" lon="7.2694547"><ele>1126.0</ele><time>2026-04-26T08:59:34.745Z</time></trkpt><trkpt lat="44.9364477" lon="7.2693894"><ele>1126.0</ele><time>2026-04-26T08:59:35.745Z</time></trkpt><trkpt lat="44.9365027" lon="7.2693408"><ele>1126.0</ele><time>2026-04-26T08:59:36.745Z</time></trkpt><trkpt lat="44.93663" lon="7.2693505"><ele>1126.0</ele><time>2026-04-26T08:59:38.745Z</time></trkpt><trkpt lat="44.9366943" lon="7.2693967"><ele>1129.5</ele><time>2026-04-26T08:59:39.745Z</time></trkpt><trkpt lat="44.9367358" lon="7.2694799"><ele>1133.0</ele><time>2026-04-26T08:59:40.745Z</time></trkpt><trkpt lat="44.9367744" lon="7.2695843"><ele>1136.5</ele><time>2026-04-26T08:59:41.745Z</time></trkpt><trkpt lat="44.9368068" lon="7.2696941"><ele>1140.0</ele><time>2026-04-26T08:59:42.745Z</time></trkpt><trkpt lat="44.9368491" lon="7.2698013"><ele>1143.5</ele><time>2026-04-26T08:59:43.745Z</time></trkpt><trkpt lat="44.9369108" lon="7.2698934"><ele>1147.0</ele><time>2026-04-26T08:59:44.745Z</time></trkpt><trkpt lat="44.9369911" lon="7.2699957"><ele>1147.0</ele><time>2026-04-26T08:59:45.745Z</time></trkpt><trkpt lat="44.9370718" lon="7.2700939"><ele>1147.0</ele><time>2026-04-26T08:59:46.745Z</time></trkpt><trkpt lat="44.9371551" lon="7.2701737"><ele>1147.0</ele><time>2026-04-26T08:59:47.745Z</time></trkpt><trkpt lat="44.9372251" lon="7.2702318"><ele>1147.0</ele><time>2026-04-26T08:59:48.745Z</time></trkpt><trkpt lat="44.9372899" lon="7.2702873"><ele>1147.0</ele><time>2026-04-26T08:59:49.745Z</time></trkpt><trkpt lat="44.9373525" lon="7.2703284"><ele>1147.0</ele><time>2026-04-26T08:59:50.745Z</time></trkpt><trkpt lat="44.9374633" lon="7.2703819"><ele>1147.4</ele><time>2026-04-26T08:59:52.745Z</time></trkpt><trkpt lat="44.9375677" lon="7.270423"><ele>1147.8000000000002</ele><time>2026-04-26T08:59:54.745Z</time></trkpt><trkpt lat="44.9376674" lon="7.2704426"><ele>1148.2</ele><time>2026-04-26T08:59:56.745Z</time></trkpt><trkpt lat="44.9377396" lon="7.2704479"><ele>1148.6000000000001</ele><time>2026-04-26T08:59:57.745Z</time></trkpt><trkpt lat="44.9378573" lon="7.2704403"><ele>1149.0</ele><time>2026-04-26T08:59:59.745Z</time></trkpt><trkpt lat="44.937951" lon="7.2703919"><ele>1149.0</ele><time>2026-04-26T09:00:01.745Z</time></trkpt><trkpt lat="44.9380427" lon="7.2703262"><ele>1149.0</ele><time>2026-04-26T09:00:03.745Z</time></trkpt><trkpt lat="44.9381183" lon="7.2702526"><ele>1149.0</ele><time>2026-04-26T09:00:05.745Z</time></trkpt><trkpt lat="44.9381932" lon="7.2701877"><ele>1149.0</ele><time>2026-04-26T09:00:07.745Z</time></trkpt><trkpt lat="44.9382712" lon="7.2701338"><ele>1149.0</ele><time>2026-04-26T09:00:09.745Z</time></trkpt><trkpt lat="44.9383487" lon="7.2700704"><ele>1147.6000000000001</ele><time>2026-04-26T09:00:11.745Z</time></trkpt><trkpt lat="44.9384273" lon="7.2699989"><ele>1146.2</ele><time>2026-04-26T09:00:13.745Z</time></trkpt><trkpt lat="44.9385174" lon="7.2699504"><ele>1144.8000000000002</ele><time>2026-04-26T09:00:15.745Z</time></trkpt><trkpt lat="44.9386053" lon="7.2698885"><ele>1143.4</ele><time>2026-04-26T09:00:17.745Z</time></trkpt><trkpt lat="44.9386985" lon="7.2698533"><ele>1142.0</ele><time>2026-04-26T09:00:19.744Z</time></trkpt><trkpt lat="44.9388071" lon="7.2698229"><ele>1142.0</ele><time>2026-04-26T09:00:21.745Z</time></trkpt><trkpt lat="44.9389125" lon="7.2698655"><ele>1142.0</ele><time>2026-04-26T09:00:23.745Z</time></trkpt><trkpt lat="44.9389799" lon="7.269906"><ele>1142.0</ele><time>2026-04-26T09:00:24.745Z</time></trkpt><trkpt lat="44.939063" lon="7.2700189"><ele>1142.0</ele><time>2026-04-26T09:00:26.745Z</time></trkpt><trkpt lat="44.9390972" lon="7.2701159"><ele>1142.0</ele><time>2026-04-26T09:00:27.745Z</time></trkpt><trkpt lat="44.9391322" lon="7.2702113"><ele>1142.0</ele><time>2026-04-26T09:00:28.745Z</time></trkpt><trkpt lat="44.9391669" lon="7.2703276"><ele>1142.0</ele><time>2026-04-26T09:00:29.745Z</time></trkpt><trkpt lat="44.9392036" lon="7.2704456"><ele>1142.0</ele><time>2026-04-26T09:00:30.745Z</time></trkpt><trkpt lat="44.9392347" lon="7.2705468"><ele>1142.0</ele><time>2026-04-26T09:00:31.745Z</time></trkpt><trkpt lat="44.9392818" lon="7.2706409"><ele>1142.0</ele><time>2026-04-26T09:00:32.745Z</time></trkpt><trkpt lat="44.9393324" lon="7.2707358"><ele>1142.0</ele><time>2026-04-26T09:00:33.745Z</time></trkpt><trkpt lat="44.939395" lon="7.2708085"><ele>1141.0</ele><time>2026-04-26T09:00:34.745Z</time></trkpt><trkpt lat="44.9394862" lon="7.2708651"><ele>1140.0</ele><time>2026-04-26T09:00:35.745Z</time></trkpt><trkpt lat="44.9395776" lon="7.2709143"><ele>1139.0</ele><time>2026-04-26T09:00:36.745Z</time></trkpt><trkpt lat="44.9396771" lon="7.2709573"><ele>1138.0</ele><time>2026-04-26T09:00:37.745Z</time></trkpt><trkpt lat="44.9397833" lon="7.2710015"><ele>1137.0</ele><time>2026-04-26T09:00:38.745Z</time></trkpt><trkpt lat="44.9398843" lon="7.2710376"><ele>1137.0</ele><time>2026-04-26T09:00:39.745Z</time></trkpt><trkpt lat="44.939988" lon="7.2710669"><ele>1137.0</ele><time>2026-04-26T09:00:40.745Z</time></trkpt><trkpt lat="44.9401097" lon="7.2710772"><ele>1137.0</ele><time>2026-04-26T09:00:41.744Z</time></trkpt><trkpt lat="44.9402293" lon="7.2710974"><ele>1137.0</ele><time>2026-04-26T09:00:42.745Z</time></trkpt><trkpt lat="44.9403338" lon="7.2711123"><ele>1137.0</ele><time>2026-04-26T09:00:43.745Z</time></trkpt><trkpt lat="44.9404424" lon="7.2711224"><ele>1137.0</ele><time>2026-04-26T09:00:44.744Z</time></trkpt><trkpt lat="44.9405332" lon="7.2711541"><ele>1137.0</ele><time>2026-04-26T09:00:45.745Z</time></trkpt><trkpt lat="44.9406248" lon="7.2711763"><ele>1137.0</ele><time>2026-04-26T09:00:46.745Z</time></trkpt><trkpt lat="44.9407112" lon="7.2712082"><ele>1137.0</ele><time>2026-04-26T09:00:47.745Z</time></trkpt><trkpt lat="44.940786" lon="7.2712371"><ele>1137.0</ele><time>2026-04-26T09:00:48.745Z</time></trkpt><trkpt lat="44.9408505" lon="7.2712655"><ele>1137.0</ele><time>2026-04-26T09:00:49.745Z</time></trkpt><trkpt lat="44.9409119" lon="7.2713058"><ele>1137.0</ele><time>2026-04-26T09:00:50.745Z</time></trkpt><trkpt lat="44.9409994" lon="7.2714289"><ele>1137.0</ele><time>2026-04-26T09:00:52.745Z</time></trkpt><trkpt lat="44.9410246" lon="7.2715179"><ele>1137.0</ele><time>2026-04-26T09:00:53.745Z</time></trkpt><trkpt lat="44.9410517" lon="7.271619"><ele>1137.0</ele><time>2026-04-26T09:00:54.745Z</time></trkpt><trkpt lat="44.9410909" lon="7.2716928"><ele>1139.6</ele><time>2026-04-26T09:00:55.745Z</time></trkpt><trkpt lat="44.9411436" lon="7.2717469"><ele>1142.2</ele><time>2026-04-26T09:00:56.745Z</time></trkpt><trkpt lat="44.9412551" lon="7.2718106"><ele>1144.8</ele><time>2026-04-26T09:00:58.745Z</time></trkpt><trkpt lat="44.9413435" lon="7.2718587"><ele>1147.4</ele><time>2026-04-26T09:01:00.745Z</time></trkpt><trkpt lat="44.9414349" lon="7.2719176"><ele>1150.0</ele><time>2026-04-26T09:01:02.745Z</time></trkpt><trkpt lat="44.9415345" lon="7.2720611"><ele>1150.0</ele><time>2026-04-26T09:01:04.745Z</time></trkpt><trkpt lat="44.9415918" lon="7.272156"><ele>1150.0</ele><time>2026-04-26T09:01:05.745Z</time></trkpt><trkpt lat="44.941646" lon="7.2722455"><ele>1150.0</ele><time>2026-04-26T09:01:06.745Z</time></trkpt><trkpt lat="44.9417257" lon="7.2723561"><ele>1150.0</ele><time>2026-04-26T09:01:08.744Z</time></trkpt><trkpt lat="44.9418017" lon="7.27238"><ele>1150.0</ele><time>2026-04-26T09:01:09.745Z</time></trkpt><trkpt lat="44.9418607" lon="7.2724163"><ele>1150.0</ele><time>2026-04-26T09:01:10.745Z</time></trkpt><trkpt lat="44.9419357" lon="7.2723992"><ele>1149.0</ele><time>2026-04-26T09:01:11.745Z</time></trkpt><trkpt lat="44.9420781" lon="7.2723232"><ele>1148.0</ele><time>2026-04-26T09:01:13.745Z</time></trkpt><trkpt lat="44.9422043" lon="7.2722822"><ele>1147.0</ele><time>2026-04-26T09:01:15.745Z</time></trkpt><trkpt lat="44.9422898" lon="7.2722904"><ele>1146.0</ele><time>2026-04-26T09:01:16.745Z</time></trkpt><trkpt lat="44.9423555" lon="7.2723008"><ele>1145.0</ele><time>2026-04-26T09:01:17.745Z</time></trkpt><trkpt lat="44.9424229" lon="7.2723288"><ele>1145.0</ele><time>2026-04-26T09:01:18.745Z</time></trkpt><trkpt lat="44.9424902" lon="7.2723196"><ele>1145.0</ele><time>2026-04-26T09:01:19.745Z</time></trkpt><trkpt lat="44.9425892" lon="7.2722884"><ele>1145.0</ele><time>2026-04-26T09:01:20.745Z</time></trkpt><trkpt lat="44.942666" lon="7.2722399"><ele>1145.0</ele><time>2026-04-26T09:01:21.745Z</time></trkpt><trkpt lat="44.942741" lon="7.2721906"><ele>1145.0</ele><time>2026-04-26T09:01:22.745Z</time></trkpt><trkpt lat="44.9428103" lon="7.2721574"><ele>1145.0</ele><time>2026-04-26T09:01:23.745Z</time></trkpt><trkpt lat="44.9428878" lon="7.2721535"><ele>1147.0</ele><time>2026-04-26T09:01:24.745Z</time></trkpt><trkpt lat="44.9429349" lon="7.2722202"><ele>1149.0</ele><time>2026-04-26T09:01:25.745Z</time></trkpt><trkpt lat="44.9429987" lon="7.2722983"><ele>1151.0</ele><time>2026-04-26T09:01:26.745Z</time></trkpt><trkpt lat="44.9430612" lon="7.2723848"><ele>1153.0</ele><time>2026-04-26T09:01:27.745Z</time></trkpt><trkpt lat="44.9431619" lon="7.272465"><ele>1155.0</ele><time>2026-04-26T09:01:28.745Z</time></trkpt><trkpt lat="44.9432466" lon="7.2725415"><ele>1155.0</ele><time>2026-04-26T09:01:29.745Z</time></trkpt><trkpt lat="44.9433304" lon="7.2726093"><ele>1155.0</ele><time>2026-04-26T09:01:30.745Z</time></trkpt><trkpt lat="44.9433936" lon="7.2726692"><ele>1155.0</ele><time>2026-04-26T09:01:31.745Z</time></trkpt><trkpt lat="44.9434635" lon="7.2727163"><ele>1155.0</ele><time>2026-04-26T09:01:32.745Z</time></trkpt><trkpt lat="44.943535" lon="7.2727363"><ele>1155.0</ele><time>2026-04-26T09:01:33.745Z</time></trkpt><trkpt lat="44.9436033" lon="7.2727442"><ele>1155.0</ele><time>2026-04-26T09:01:34.745Z</time></trkpt><trkpt lat="44.9436862" lon="7.2727282"><ele>1156.4</ele><time>2026-04-26T09:01:35.745Z</time></trkpt><trkpt lat="44.9437648" lon="7.2727153"><ele>1157.8</ele><time>2026-04-26T09:01:36.745Z</time></trkpt><trkpt lat="44.9438502" lon="7.2726872"><ele>1159.2</ele><time>2026-04-26T09:01:37.745Z</time></trkpt><trkpt lat="44.9439397" lon="7.2726532"><ele>1160.6</ele><time>2026-04-26T09:01:38.745Z</time></trkpt><trkpt lat="44.9440396" lon="7.2725853"><ele>1162.0</ele><time>2026-04-26T09:01:39.745Z</time></trkpt><trkpt lat="44.9441355" lon="7.2725397"><ele>1162.0</ele><time>2026-04-26T09:01:40.745Z</time></trkpt><trkpt lat="44.9442039" lon="7.272492"><ele>1162.0</ele><time>2026-04-26T09:01:41.745Z</time></trkpt><trkpt lat="44.9442782" lon="7.2724579"><ele>1162.0</ele><time>2026-04-26T09:01:42.745Z</time></trkpt><trkpt lat="44.9443617" lon="7.2724068"><ele>1162.0</ele><time>2026-04-26T09:01:43.745Z</time></trkpt><trkpt lat="44.9444387" lon="7.2723888"><ele>1162.0</ele><time>2026-04-26T09:01:44.744Z</time></trkpt><trkpt lat="44.9445165" lon="7.2723931"><ele>1162.0</ele><time>2026-04-26T09:01:45.745Z</time></trkpt><trkpt lat="44.9446002" lon="7.2724099"><ele>1161.6666666666665</ele><time>2026-04-26T09:01:46.745Z</time></trkpt><trkpt lat="44.9446641" lon="7.272445"><ele>1161.3333333333333</ele><time>2026-04-26T09:01:47.745Z</time></trkpt><trkpt lat="44.9447397" lon="7.2724782"><ele>1161.0</ele><time>2026-04-26T09:01:48.745Z</time></trkpt><trkpt lat="44.9448222" lon="7.2725209"><ele>1160.6666666666667</ele><time>2026-04-26T09:01:49.745Z</time></trkpt><trkpt lat="44.9449059" lon="7.2725935"><ele>1160.3333333333335</ele><time>2026-04-26T09:01:50.745Z</time></trkpt><trkpt lat="44.9449786" lon="7.2726532"><ele>1160.0</ele><time>2026-04-26T09:01:51.745Z</time></trkpt><trkpt lat="44.9450535" lon="7.2726913"><ele>1159.6666666666667</ele><time>2026-04-26T09:01:52.745Z</time></trkpt><trkpt lat="44.9451316" lon="7.2727437"><ele>1159.3333333333335</ele><time>2026-04-26T09:01:53.745Z</time></trkpt><trkpt lat="44.945207" lon="7.2728017"><ele>1159.0</ele><time>2026-04-26T09:01:54.745Z</time></trkpt><trkpt lat="44.9452916" lon="7.2728602"><ele>1158.6666666666667</ele><time>2026-04-26T09:01:55.745Z</time></trkpt><trkpt lat="44.9453784" lon="7.2729216"><ele>1158.3333333333333</ele><time>2026-04-26T09:01:56.745Z</time></trkpt><trkpt lat="44.9454467" lon="7.2729861"><ele>1158.0</ele><time>2026-04-26T09:01:57.745Z</time></trkpt><trkpt lat="44.9455113" lon="7.2730429"><ele>1158.0</ele><time>2026-04-26T09:01:58.745Z</time></trkpt><trkpt lat="44.9455739" lon="7.2730898"><ele>1158.0</ele><time>2026-04-26T09:01:59.745Z</time></trkpt><trkpt lat="44.9456793" lon="7.2731105"><ele>1158.0</ele><time>2026-04-26T09:02:01.745Z</time></trkpt><trkpt lat="44.9457876" lon="7.2730586"><ele>1158.0</ele><time>2026-04-26T09:02:03.745Z</time></trkpt><trkpt lat="44.9459035" lon="7.2729829"><ele>1158.0</ele><time>2026-04-26T09:02:05.745Z</time></trkpt><trkpt lat="44.9459691" lon="7.2729414"><ele>1155.0</ele><time>2026-04-26T09:02:06.745Z</time></trkpt><trkpt lat="44.9460263" lon="7.2729033"><ele>1152.0</ele><time>2026-04-26T09:02:07.745Z</time></trkpt><trkpt lat="44.9460834" lon="7.2728484"><ele>1149.0</ele><time>2026-04-26T09:02:08.745Z</time></trkpt><trkpt lat="44.9461494" lon="7.2727953"><ele>1146.0</ele><time>2026-04-26T09:02:09.745Z</time></trkpt><trkpt lat="44.9462208" lon="7.2727249"><ele>1143.0</ele><time>2026-04-26T09:02:10.745Z</time></trkpt><trkpt lat="44.9462837" lon="7.2726414"><ele>1140.0</ele><time>2026-04-26T09:02:11.745Z</time></trkpt><trkpt lat="44.9463511" lon="7.2725584"><ele>1140.0</ele><time>2026-04-26T09:02:12.745Z</time></trkpt><trkpt lat="44.9463999" lon="7.2724682"><ele>1140.0</ele><time>2026-04-26T09:02:13.745Z</time></trkpt><trkpt lat="44.946456" lon="7.2723825"><ele>1140.0</ele><time>2026-04-26T09:02:14.745Z</time></trkpt><trkpt lat="44.9465154" lon="7.2722932"><ele>1140.0</ele><time>2026-04-26T09:02:15.745Z</time></trkpt><trkpt lat="44.9465776" lon="7.2722045"><ele>1140.0</ele><time>2026-04-26T09:02:16.745Z</time></trkpt><trkpt lat="44.946642" lon="7.2721277"><ele>1140.0</ele><time>2026-04-26T09:02:17.745Z</time></trkpt><trkpt lat="44.9467163" lon="7.2720518"><ele>1140.6</ele><time>2026-04-26T09:02:18.745Z</time></trkpt><trkpt lat="44.9468052" lon="7.2719528"><ele>1141.2</ele><time>2026-04-26T09:02:19.745Z</time></trkpt><trkpt lat="44.9468912" lon="7.271867"><ele>1141.8</ele><time>2026-04-26T09:02:20.745Z</time></trkpt><trkpt lat="44.9469705" lon="7.2717964"><ele>1142.4</ele><time>2026-04-26T09:02:21.745Z</time></trkpt><trkpt lat="44.9470495" lon="7.2717459"><ele>1143.0</ele><time>2026-04-26T09:02:22.745Z</time></trkpt><trkpt lat="44.9471447" lon="7.2717126"><ele>1143.0</ele><time>2026-04-26T09:02:23.745Z</time></trkpt><trkpt lat="44.9472393" lon="7.2717032"><ele>1143.0</ele><time>2026-04-26T09:02:24.745Z</time></trkpt><trkpt lat="44.9473388" lon="7.2716941"><ele>1143.0</ele><time>2026-04-26T09:02:25.745Z</time></trkpt><trkpt lat="44.9474302" lon="7.2716847"><ele>1143.0</ele><time>2026-04-26T09:02:26.745Z</time></trkpt><trkpt lat="44.947522" lon="7.2716684"><ele>1143.0</ele><time>2026-04-26T09:02:27.745Z</time></trkpt><trkpt lat="44.9476223" lon="7.2716466"><ele>1142.8</ele><time>2026-04-26T09:02:28.745Z</time></trkpt><trkpt lat="44.9477184" lon="7.2716261"><ele>1142.6</ele><time>2026-04-26T09:02:29.745Z</time></trkpt><trkpt lat="44.9478065" lon="7.271595"><ele>1142.4</ele><time>2026-04-26T09:02:30.745Z</time></trkpt><trkpt lat="44.9479043" lon="7.2715239"><ele>1142.2</ele><time>2026-04-26T09:02:31.745Z</time></trkpt><trkpt lat="44.9479969" lon="7.2714614"><ele>1142.0</ele><time>2026-04-26T09:02:32.745Z</time></trkpt><trkpt lat="44.9480779" lon="7.271407"><ele>1141.3333333333335</ele><time>2026-04-26T09:02:33.745Z</time></trkpt><trkpt lat="44.9481599" lon="7.2713682"><ele>1140.6666666666667</ele><time>2026-04-26T09:02:34.745Z</time></trkpt><trkpt lat="44.9482402" lon="7.2713332"><ele>1140.0</ele><time>2026-04-26T09:02:35.745Z</time></trkpt><trkpt lat="44.9483149" lon="7.271323"><ele>1139.3333333333333</ele><time>2026-04-26T09:02:36.745Z</time></trkpt><trkpt lat="44.9483754" lon="7.271351"><ele>1138.6666666666665</ele><time>2026-04-26T09:02:37.745Z</time></trkpt><trkpt lat="44.9484481" lon="7.271395"><ele>1138.0</ele><time>2026-04-26T09:02:38.745Z</time></trkpt><trkpt lat="44.9485192" lon="7.2714712"><ele>1137.0</ele><time>2026-04-26T09:02:39.745Z</time></trkpt><trkpt lat="44.948596" lon="7.2715617"><ele>1136.0</ele><time>2026-04-26T09:02:40.745Z</time></trkpt><trkpt lat="44.9486668" lon="7.2716726"><ele>1135.0</ele><time>2026-04-26T09:02:41.745Z</time></trkpt><trkpt lat="44.9487357" lon="7.2717906"><ele>1134.0</ele><time>2026-04-26T09:02:42.745Z</time></trkpt><trkpt lat="44.9487962" lon="7.2718986"><ele>1133.0</ele><time>2026-04-26T09:02:43.745Z</time></trkpt><trkpt lat="44.9488545" lon="7.2720064"><ele>1133.0</ele><time>2026-04-26T09:02:44.745Z</time></trkpt><trkpt lat="44.948909" lon="7.272121"><ele>1133.0</ele><time>2026-04-26T09:02:45.744Z</time></trkpt><trkpt lat="44.9489687" lon="7.2722263"><ele>1133.0</ele><time>2026-04-26T09:02:46.745Z</time></trkpt><trkpt lat="44.9490166" lon="7.2723066"><ele>1133.0</ele><time>2026-04-26T09:02:47.745Z</time></trkpt><trkpt lat="44.9490644" lon="7.2723721"><ele>1133.0</ele><time>2026-04-26T09:02:48.745Z</time></trkpt><trkpt lat="44.9491273" lon="7.2724291"><ele>1133.0</ele><time>2026-04-26T09:02:49.745Z</time></trkpt><trkpt lat="44.9491817" lon="7.2724856"><ele>1132.3333333333335</ele><time>2026-04-26T09:02:50.745Z</time></trkpt><trkpt lat="44.9492646" lon="7.2725395"><ele>1131.6666666666667</ele><time>2026-04-26T09:02:51.745Z</time></trkpt><trkpt lat="44.9493475" lon="7.2725794"><ele>1131.0</ele><time>2026-04-26T09:02:52.745Z</time></trkpt><trkpt lat="44.9494218" lon="7.2726084"><ele>1130.3333333333333</ele><time>2026-04-26T09:02:53.745Z</time></trkpt><trkpt lat="44.9495057" lon="7.2726119"><ele>1129.6666666666665</ele><time>2026-04-26T09:02:54.745Z</time></trkpt><trkpt lat="44.949582" lon="7.2726186"><ele>1129.0</ele><time>2026-04-26T09:02:55.745Z</time></trkpt><trkpt lat="44.949659" lon="7.2726188"><ele>1129.0</ele><time>2026-04-26T09:02:56.745Z</time></trkpt><trkpt lat="44.9497543" lon="7.2725937"><ele>1129.0</ele><time>2026-04-26T09:02:57.745Z</time></trkpt><trkpt lat="44.9498377" lon="7.2725814"><ele>1129.0</ele><time>2026-04-26T09:02:58.745Z</time></trkpt><trkpt lat="44.9499227" lon="7.2725691"><ele>1129.0</ele><time>2026-04-26T09:02:59.745Z</time></trkpt><trkpt lat="44.9500149" lon="7.272559"><ele>1129.0</ele><time>2026-04-26T09:03:00.745Z</time></trkpt><trkpt lat="44.9501046" lon="7.2725492"><ele>1129.0</ele><time>2026-04-26T09:03:01.745Z</time></trkpt><trkpt lat="44.9501898" lon="7.2725551"><ele>1127.6666666666665</ele><time>2026-04-26T09:03:02.745Z</time></trkpt><trkpt lat="44.9502759" lon="7.2725524"><ele>1126.3333333333333</ele><time>2026-04-26T09:03:03.745Z</time></trkpt><trkpt lat="44.9503618" lon="7.2725596"><ele>1125.0</ele><time>2026-04-26T09:03:04.745Z</time></trkpt><trkpt lat="44.9504548" lon="7.2725671"><ele>1123.6666666666667</ele><time>2026-04-26T09:03:05.745Z</time></trkpt><trkpt lat="44.950534" lon="7.2725721"><ele>1122.3333333333335</ele><time>2026-04-26T09:03:06.745Z</time></trkpt><trkpt lat="44.9506116" lon="7.272605"><ele>1121.0</ele><time>2026-04-26T09:03:07.744Z</time></trkpt><trkpt lat="44.9506992" lon="7.2726485"><ele>1121.0</ele><time>2026-04-26T09:03:08.745Z</time></trkpt><trkpt lat="44.9507983" lon="7.2727115"><ele>1121.0</ele><time>2026-04-26T09:03:09.744Z</time></trkpt><trkpt lat="44.9508906" lon="7.2727861"><ele>1121.0</ele><time>2026-04-26T09:03:10.745Z</time></trkpt><trkpt lat="44.9509747" lon="7.272861"><ele>1121.0</ele><time>2026-04-26T09:03:11.745Z</time></trkpt><trkpt lat="44.9510571" lon="7.2729405"><ele>1121.0</ele><time>2026-04-26T09:03:12.745Z</time></trkpt><trkpt lat="44.9511261" lon="7.273016"><ele>1121.8333333333335</ele><time>2026-04-26T09:03:13.745Z</time></trkpt><trkpt lat="44.9511783" lon="7.2730707"><ele>1122.6666666666667</ele><time>2026-04-26T09:03:14.745Z</time></trkpt><trkpt lat="44.9512437" lon="7.2731653"><ele>1123.5</ele><time>2026-04-26T09:03:16.745Z</time></trkpt><trkpt lat="44.9513237" lon="7.2732432"><ele>1124.3333333333333</ele><time>2026-04-26T09:03:34.745Z</time></trkpt><trkpt lat="44.9513813" lon="7.2732932"><ele>1125.1666666666665</ele><time>2026-04-26T09:03:35.745Z</time></trkpt><trkpt lat="44.9514653" lon="7.2734173"><ele>1126.0</ele><time>2026-04-26T09:03:37.745Z</time></trkpt><trkpt lat="44.9515093" lon="7.2734828"><ele>1126.6666666666665</ele><time>2026-04-26T09:03:38.744Z</time></trkpt><trkpt lat="44.9515923" lon="7.2735468"><ele>1127.3333333333333</ele><time>2026-04-26T09:03:40.745Z</time></trkpt><trkpt lat="44.9516434" lon="7.2734802"><ele>1128.0</ele><time>2026-04-26T09:03:41.745Z</time></trkpt><trkpt lat="44.9516863" lon="7.2733975"><ele>1128.6666666666667</ele><time>2026-04-26T09:03:42.745Z</time></trkpt><trkpt lat="44.9517355" lon="7.2732872"><ele>1129.3333333333335</ele><time>2026-04-26T09:03:43.745Z</time></trkpt><trkpt lat="44.951785" lon="7.2731788"><ele>1130.0</ele><time>2026-04-26T09:03:44.745Z</time></trkpt><trkpt lat="44.9518431" lon="7.273101"><ele>1132.5</ele><time>2026-04-26T09:03:45.745Z</time></trkpt><trkpt lat="44.951901" lon="7.2730277"><ele>1135.0</ele><time>2026-04-26T09:03:46.745Z</time></trkpt><trkpt lat="44.9519751" lon="7.2729584"><ele>1137.5</ele><time>2026-04-26T09:03:47.745Z</time></trkpt><trkpt lat="44.9520481" lon="7.2729247"><ele>1140.0</ele><time>2026-04-26T09:03:48.745Z</time></trkpt><trkpt lat="44.9521273" lon="7.2729131"><ele>1142.5</ele><time>2026-04-26T09:03:49.745Z</time></trkpt><trkpt lat="44.9522201" lon="7.2729137"><ele>1145.0</ele><time>2026-04-26T09:03:50.745Z</time></trkpt><trkpt lat="44.952301" lon="7.2729509"><ele>1145.0</ele><time>2026-04-26T09:03:51.744Z</time></trkpt><trkpt lat="44.9523797" lon="7.273013"><ele>1145.0</ele><time>2026-04-26T09:03:52.745Z</time></trkpt><trkpt lat="44.9524669" lon="7.2730966"><ele>1145.0</ele><time>2026-04-26T09:03:53.745Z</time></trkpt><trkpt lat="44.9525448" lon="7.2732088"><ele>1145.0</ele><time>2026-04-26T09:03:54.745Z</time></trkpt><trkpt lat="44.9526219" lon="7.2733051"><ele>1145.0</ele><time>2026-04-26T09:03:55.745Z</time></trkpt><trkpt lat="44.952715" lon="7.2734077"><ele>1148.0</ele><time>2026-04-26T09:03:56.745Z</time></trkpt><trkpt lat="44.9527904" lon="7.2734964"><ele>1151.0</ele><time>2026-04-26T09:03:57.745Z</time></trkpt><trkpt lat="44.9528662" lon="7.2735786"><ele>1154.0</ele><time>2026-04-26T09:03:58.745Z</time></trkpt><trkpt lat="44.9529341" lon="7.2736034"><ele>1157.0</ele><time>2026-04-26T09:03:59.745Z</time></trkpt><trkpt lat="44.9530677" lon="7.2735699"><ele>1160.0</ele><time>2026-04-26T09:04:01.745Z</time></trkpt><trkpt lat="44.9531371" lon="7.2734716"><ele>1160.0</ele><time>2026-04-26T09:04:02.745Z</time></trkpt><trkpt lat="44.9532087" lon="7.2733586"><ele>1160.0</ele><time>2026-04-26T09:04:03.745Z</time></trkpt><trkpt lat="44.9532882" lon="7.273234"><ele>1160.0</ele><time>2026-04-26T09:04:04.745Z</time></trkpt><trkpt lat="44.9533567" lon="7.2731234"><ele>1160.0</ele><time>2026-04-26T09:04:05.745Z</time></trkpt><trkpt lat="44.9534328" lon="7.2730224"><ele>1160.0</ele><time>2026-04-26T09:04:06.745Z</time></trkpt><trkpt lat="44.9535083" lon="7.2729333"><ele>1161.0</ele><time>2026-04-26T09:04:07.745Z</time></trkpt><trkpt lat="44.9535908" lon="7.272851"><ele>1162.0</ele><time>2026-04-26T09:04:08.745Z</time></trkpt><trkpt lat="44.9536914" lon="7.2727983"><ele>1163.0</ele><time>2026-04-26T09:04:09.745Z</time></trkpt><trkpt lat="44.9537924" lon="7.2727618"><ele>1164.0</ele><time>2026-04-26T09:04:10.745Z</time></trkpt><trkpt lat="44.9539074" lon="7.2727446"><ele>1165.0</ele><time>2026-04-26T09:04:11.744Z</time></trkpt><trkpt lat="44.9540142" lon="7.2727205"><ele>1165.0</ele><time>2026-04-26T09:04:12.745Z</time></trkpt><trkpt lat="44.9541136" lon="7.2727026"><ele>1165.0</ele><time>2026-04-26T09:04:13.745Z</time></trkpt><trkpt lat="44.9542092" lon="7.2726809"><ele>1165.0</ele><time>2026-04-26T09:04:14.745Z</time></trkpt><trkpt lat="44.9542943" lon="7.2726703"><ele>1165.0</ele><time>2026-04-26T09:04:15.745Z</time></trkpt><trkpt lat="44.9543699" lon="7.2726701"><ele>1165.0</ele><time>2026-04-26T09:04:16.745Z</time></trkpt><trkpt lat="44.9544429" lon="7.2726779"><ele>1165.0</ele><time>2026-04-26T09:04:17.745Z</time></trkpt><trkpt lat="44.9545574" lon="7.2726907"><ele>1166.0</ele><time>2026-04-26T09:04:19.745Z</time></trkpt><trkpt lat="44.9546422" lon="7.2727231"><ele>1167.0</ele><time>2026-04-26T09:04:21.745Z</time></trkpt><trkpt lat="44.9547263" lon="7.272764"><ele>1168.0</ele><time>2026-04-26T09:04:23.745Z</time></trkpt><trkpt lat="44.9548188" lon="7.2728152"><ele>1169.0</ele><time>2026-04-26T09:04:25.745Z</time></trkpt><trkpt lat="44.9549266" lon="7.2729016"><ele>1170.0</ele><time>2026-04-26T09:04:27.745Z</time></trkpt><trkpt lat="44.9550435" lon="7.2729612"><ele>1172.2</ele><time>2026-04-26T09:04:29.745Z</time></trkpt><trkpt lat="44.955157" lon="7.2730266"><ele>1174.4</ele><time>2026-04-26T09:04:31.745Z</time></trkpt><trkpt lat="44.9552735" lon="7.2731055"><ele>1176.6</ele><time>2026-04-26T09:04:33.745Z</time></trkpt><trkpt lat="44.9553333" lon="7.2731531"><ele>1178.8</ele><time>2026-04-26T09:04:34.745Z</time></trkpt><trkpt lat="44.95539" lon="7.2732015"><ele>1181.0</ele><time>2026-04-26T09:04:35.744Z</time></trkpt><trkpt lat="44.9554518" lon="7.2732532"><ele>1181.5</ele><time>2026-04-26T09:04:36.745Z</time></trkpt><trkpt lat="44.9555022" lon="7.2733153"><ele>1182.0</ele><time>2026-04-26T09:04:37.745Z</time></trkpt><trkpt lat="44.9555521" lon="7.2733717"><ele>1182.5</ele><time>2026-04-26T09:04:38.745Z</time></trkpt><trkpt lat="44.9556102" lon="7.2734512"><ele>1183.0</ele><time>2026-04-26T09:04:39.745Z</time></trkpt><trkpt lat="44.9556726" lon="7.2735198"><ele>1183.5</ele><time>2026-04-26T09:04:40.745Z</time></trkpt><trkpt lat="44.95574" lon="7.2735789"><ele>1184.0</ele><time>2026-04-26T09:04:41.745Z</time></trkpt><trkpt lat="44.9558258" lon="7.2736145"><ele>1181.5</ele><time>2026-04-26T09:04:42.745Z</time></trkpt><trkpt lat="44.9559046" lon="7.2736296"><ele>1179.0</ele><time>2026-04-26T09:04:43.745Z</time></trkpt><trkpt lat="44.9559687" lon="7.2736406"><ele>1176.5</ele><time>2026-04-26T09:04:44.745Z</time></trkpt><trkpt lat="44.9560777" lon="7.2737027"><ele>1174.0</ele><time>2026-04-26T09:04:46.745Z</time></trkpt><trkpt lat="44.9561812" lon="7.2737983"><ele>1171.5</ele><time>2026-04-26T09:04:48.745Z</time></trkpt><trkpt lat="44.956224" lon="7.2738649"><ele>1169.0</ele><time>2026-04-26T09:04:49.745Z</time></trkpt><trkpt lat="44.9562787" lon="7.2740494"><ele>1168.6000000000001</ele><time>2026-04-26T09:04:51.745Z</time></trkpt><trkpt lat="44.956312" lon="7.2741709"><ele>1168.2</ele><time>2026-04-26T09:04:52.745Z</time></trkpt><trkpt lat="44.9563426" lon="7.2742965"><ele>1167.8000000000002</ele><time>2026-04-26T09:04:53.745Z</time></trkpt><trkpt lat="44.9563714" lon="7.2744348"><ele>1167.4</ele><time>2026-04-26T09:04:54.745Z</time></trkpt><trkpt lat="44.9563953" lon="7.2745672"><ele>1167.0</ele><time>2026-04-26T09:04:55.745Z</time></trkpt><trkpt lat="44.9564255" lon="7.2747044"><ele>1167.2</ele><time>2026-04-26T09:04:56.745Z</time></trkpt><trkpt lat="44.9564519" lon="7.2748284"><ele>1167.4</ele><time>2026-04-26T09:04:57.745Z</time></trkpt><trkpt lat="44.9564857" lon="7.2749605"><ele>1167.6</ele><time>2026-04-26T09:04:58.745Z</time></trkpt><trkpt lat="44.9565155" lon="7.2751006"><ele>1167.8</ele><time>2026-04-26T09:04:59.745Z</time></trkpt><trkpt lat="44.9565485" lon="7.2752515"><ele>1168.0</ele><time>2026-04-26T09:05:00.745Z</time></trkpt><trkpt lat="44.9565785" lon="7.2753917"><ele>1168.0</ele><time>2026-04-26T09:05:01.745Z</time></trkpt><trkpt lat="44.9566125" lon="7.2755223"><ele>1168.0</ele><time>2026-04-26T09:05:02.745Z</time></trkpt><trkpt lat="44.9566547" lon="7.2756352"><ele>1168.0</ele><time>2026-04-26T09:05:03.745Z</time></trkpt><trkpt lat="44.9567142" lon="7.2757409"><ele>1168.0</ele><time>2026-04-26T09:05:04.745Z</time></trkpt><trkpt lat="44.9567961" lon="7.2758212"><ele>1168.0</ele><time>2026-04-26T09:05:05.744Z</time></trkpt><trkpt lat="44.9568785" lon="7.2758959"><ele>1165.6</ele><time>2026-04-26T09:05:06.745Z</time></trkpt><trkpt lat="44.9569716" lon="7.2759652"><ele>1163.1999999999998</ele><time>2026-04-26T09:05:07.745Z</time></trkpt><trkpt lat="44.9570599" lon="7.2760327"><ele>1160.8</ele><time>2026-04-26T09:05:08.745Z</time></trkpt><trkpt lat="44.9571427" lon="7.2761053"><ele>1158.3999999999999</ele><time>2026-04-26T09:05:09.745Z</time></trkpt><trkpt lat="44.9572238" lon="7.2761774"><ele>1156.0</ele><time>2026-04-26T09:05:10.745Z</time></trkpt><trkpt lat="44.9573025" lon="7.2762429"><ele>1156.0</ele><time>2026-04-26T09:05:11.745Z</time></trkpt><trkpt lat="44.9573678" lon="7.2762985"><ele>1156.0</ele><time>2026-04-26T09:05:12.745Z</time></trkpt><trkpt lat="44.9574214" lon="7.2763514"><ele>1156.0</ele><time>2026-04-26T09:05:13.745Z</time></trkpt><trkpt lat="44.9575103" lon="7.2764556"><ele>1156.0</ele><time>2026-04-26T09:05:15.745Z</time></trkpt><trkpt lat="44.9575759" lon="7.2765783"><ele>1156.0</ele><time>2026-04-26T09:05:17.745Z</time></trkpt><trkpt lat="44.9576318" lon="7.2767"><ele>1155.2</ele><time>2026-04-26T09:05:19.745Z</time></trkpt><trkpt lat="44.9576948" lon="7.2768208"><ele>1154.3999999999999</ele><time>2026-04-26T09:05:21.745Z</time></trkpt><trkpt lat="44.9577673" lon="7.2769363"><ele>1153.6</ele><time>2026-04-26T09:05:23.745Z</time></trkpt><trkpt lat="44.9578641" lon="7.2770198"><ele>1152.8</ele><time>2026-04-26T09:05:25.745Z</time></trkpt><trkpt lat="44.9579252" lon="7.2770427"><ele>1152.0</ele><time>2026-04-26T09:05:26.745Z</time></trkpt><trkpt lat="44.9579911" lon="7.2770565"><ele>1152.0</ele><time>2026-04-26T09:05:27.745Z</time></trkpt><trkpt lat="44.9580637" lon="7.2770562"><ele>1152.0</ele><time>2026-04-26T09:05:28.745Z</time></trkpt><trkpt lat="44.9581362" lon="7.2770446"><ele>1152.0</ele><time>2026-04-26T09:05:29.745Z</time></trkpt><trkpt lat="44.9582038" lon="7.2770255"><ele>1152.0</ele><time>2026-04-26T09:05:30.745Z</time></trkpt><trkpt lat="44.9582672" lon="7.2769933"><ele>1152.0</ele><time>2026-04-26T09:05:31.745Z</time></trkpt><trkpt lat="44.9583812" lon="7.2769196"><ele>1152.0</ele><time>2026-04-26T09:05:33.745Z</time></trkpt><trkpt lat="44.9584388" lon="7.2768778"><ele>1153.8333333333333</ele><time>2026-04-26T09:05:34.745Z</time></trkpt><trkpt lat="44.9584913" lon="7.276827"><ele>1155.6666666666667</ele><time>2026-04-26T09:05:35.745Z</time></trkpt><trkpt lat="44.9586127" lon="7.2767352"><ele>1157.5</ele><time>2026-04-26T09:05:37.745Z</time></trkpt><trkpt lat="44.9586788" lon="7.2766865"><ele>1159.3333333333335</ele><time>2026-04-26T09:05:38.745Z</time></trkpt><trkpt lat="44.9587465" lon="7.2766464"><ele>1161.1666666666667</ele><time>2026-04-26T09:05:39.745Z</time></trkpt><trkpt lat="44.9588231" lon="7.2766306"><ele>1163.0</ele><time>2026-04-26T09:05:40.745Z</time></trkpt><trkpt lat="44.9589057" lon="7.2766337"><ele>1163.0</ele><time>2026-04-26T09:05:41.745Z</time></trkpt><trkpt lat="44.9589848" lon="7.2766501"><ele>1163.0</ele><time>2026-04-26T09:05:42.745Z</time></trkpt><trkpt lat="44.9590567" lon="7.2766755"><ele>1163.0</ele><time>2026-04-26T09:05:43.745Z</time></trkpt><trkpt lat="44.9591354" lon="7.2767254"><ele>1163.0</ele><time>2026-04-26T09:05:44.745Z</time></trkpt><trkpt lat="44.9591991" lon="7.2767994"><ele>1163.0</ele><time>2026-04-26T09:05:45.744Z</time></trkpt><trkpt lat="44.959268" lon="7.2768609"><ele>1163.0</ele><time>2026-04-26T09:05:46.745Z</time></trkpt><trkpt lat="44.9593449" lon="7.2769243"><ele>1164.0</ele><time>2026-04-26T09:05:47.745Z</time></trkpt><trkpt lat="44.9594243" lon="7.2769833"><ele>1165.0</ele><time>2026-04-26T09:05:48.745Z</time></trkpt><trkpt lat="44.9595136" lon="7.2770335"><ele>1166.0</ele><time>2026-04-26T09:05:49.745Z</time></trkpt><trkpt lat="44.9596045" lon="7.2770852"><ele>1167.0</ele><time>2026-04-26T09:05:50.745Z</time></trkpt><trkpt lat="44.9596824" lon="7.2771348"><ele>1168.0</ele><time>2026-04-26T09:05:51.745Z</time></trkpt><trkpt lat="44.9597661" lon="7.2771799"><ele>1168.0</ele><time>2026-04-26T09:05:52.745Z</time></trkpt><trkpt lat="44.9598512" lon="7.277227"><ele>1168.0</ele><time>2026-04-26T09:05:53.745Z</time></trkpt><trkpt lat="44.9599352" lon="7.2772662"><ele>1168.0</ele><time>2026-04-26T09:05:54.744Z</time></trkpt><trkpt lat="44.9600144" lon="7.2772947"><ele>1168.0</ele><time>2026-04-26T09:05:55.745Z</time></trkpt><trkpt lat="44.9600941" lon="7.2773066"><ele>1168.0</ele><time>2026-04-26T09:05:56.745Z</time></trkpt><trkpt lat="44.9601714" lon="7.2773136"><ele>1168.0</ele><time>2026-04-26T09:05:57.745Z</time></trkpt><trkpt lat="44.9602506" lon="7.277314"><ele>1167.5</ele><time>2026-04-26T09:05:58.745Z</time></trkpt><trkpt lat="44.9603298" lon="7.2773157"><ele>1167.0</ele><time>2026-04-26T09:05:59.745Z</time></trkpt><trkpt lat="44.9604122" lon="7.2773215"><ele>1166.5</ele><time>2026-04-26T09:06:00.744Z</time></trkpt><trkpt lat="44.9604919" lon="7.2773236"><ele>1166.0</ele><time>2026-04-26T09:06:01.745Z</time></trkpt><trkpt lat="44.9605697" lon="7.2773366"><ele>1165.5</ele><time>2026-04-26T09:06:02.745Z</time></trkpt><trkpt lat="44.9606427" lon="7.2773589"><ele>1165.0</ele><time>2026-04-26T09:06:03.745Z</time></trkpt><trkpt lat="44.9607107" lon="7.2773977"><ele>1164.9999999999998</ele><time>2026-04-26T09:06:04.745Z</time></trkpt><trkpt lat="44.9607794" lon="7.277434"><ele>1165.0</ele><time>2026-04-26T09:06:05.745Z</time></trkpt><trkpt lat="44.9608524" lon="7.2774673"><ele>1165.0</ele><time>2026-04-26T09:06:06.745Z</time></trkpt><trkpt lat="44.9609215" lon="7.2774985"><ele>1165.0</ele><time>2026-04-26T09:06:07.745Z</time></trkpt><trkpt lat="44.9609886" lon="7.2775212"><ele>1165.0</ele><time>2026-04-26T09:06:08.744Z</time></trkpt><trkpt lat="44.9610539" lon="7.2775495"><ele>1164.9999999999998</ele><time>2026-04-26T09:06:09.745Z</time></trkpt><trkpt lat="44.9611176" lon="7.2775841"><ele>1165.0</ele><time>2026-04-26T09:06:10.744Z</time></trkpt><trkpt lat="44.9611812" lon="7.2776242"><ele>1163.8571428571427</ele><time>2026-04-26T09:06:11.745Z</time></trkpt><trkpt lat="44.9612373" lon="7.2776882"><ele>1162.7142857142858</ele><time>2026-04-26T09:06:12.745Z</time></trkpt><trkpt lat="44.9612853" lon="7.2777684"><ele>1161.5714285714284</ele><time>2026-04-26T09:06:13.745Z</time></trkpt><trkpt lat="44.9613181" lon="7.2778611"><ele>1160.4285714285713</ele><time>2026-04-26T09:06:14.745Z</time></trkpt><trkpt lat="44.9613478" lon="7.2779479"><ele>1159.2857142857142</ele><time>2026-04-26T09:06:15.745Z</time></trkpt><trkpt lat="44.9613804" lon="7.2780339"><ele>1158.142857142857</ele><time>2026-04-26T09:06:16.745Z</time></trkpt><trkpt lat="44.9614045" lon="7.2781235"><ele>1157.0</ele><time>2026-04-26T09:06:17.745Z</time></trkpt><trkpt lat="44.96142" lon="7.2782157"><ele>1157.0</ele><time>2026-04-26T09:06:18.745Z</time></trkpt><trkpt lat="44.9614151" lon="7.2783105"><ele>1157.0</ele><time>2026-04-26T09:06:19.745Z</time></trkpt><trkpt lat="44.9614104" lon="7.2784"><ele>1157.0</ele><time>2026-04-26T09:06:20.745Z</time></trkpt><trkpt lat="44.9614323" lon="7.2784936"><ele>1157.0</ele><time>2026-04-26T09:06:21.745Z</time></trkpt><trkpt lat="44.9614738" lon="7.2786054"><ele>1157.0</ele><time>2026-04-26T09:06:22.745Z</time></trkpt><trkpt lat="44.9615269" lon="7.2787318"><ele>1157.0</ele><time>2026-04-26T09:06:23.744Z</time></trkpt><trkpt lat="44.9615747" lon="7.2788544"><ele>1157.1666666666667</ele><time>2026-04-26T09:06:24.745Z</time></trkpt><trkpt lat="44.9616192" lon="7.2789651"><ele>1157.3333333333335</ele><time>2026-04-26T09:06:25.745Z</time></trkpt><trkpt lat="44.9616646" lon="7.2790694"><ele>1157.5</ele><time>2026-04-26T09:06:26.745Z</time></trkpt><trkpt lat="44.9617099" lon="7.279169"><ele>1157.6666666666667</ele><time>2026-04-26T09:06:27.745Z</time></trkpt><trkpt lat="44.9617441" lon="7.2792651"><ele>1157.8333333333333</ele><time>2026-04-26T09:06:28.745Z</time></trkpt><trkpt lat="44.9617746" lon="7.2793527"><ele>1158.0</ele><time>2026-04-26T09:06:29.745Z</time></trkpt><trkpt lat="44.9618286" lon="7.2794907"><ele>1156.0</ele><time>2026-04-26T09:06:31.745Z</time></trkpt><trkpt lat="44.9618984" lon="7.2795774"><ele>1156.0</ele><time>2026-04-26T09:06:33.745Z</time></trkpt><trkpt lat="44.9619702" lon="7.2795381"><ele>1156.0</ele><time>2026-04-26T09:06:35.745Z</time></trkpt><trkpt lat="44.9619775" lon="7.2794189"><ele>1156.0</ele><time>2026-04-26T09:06:37.745Z</time></trkpt><trkpt lat="44.9619938" lon="7.2793212"><ele>1156.0</ele><time>2026-04-26T09:06:39.744Z</time></trkpt><trkpt lat="44.9620603" lon="7.279283"><ele>1156.0</ele><time>2026-04-26T09:06:42.745Z</time></trkpt></trkseg><trkseg><trkpt lat="44.9620408" lon="7.2792696"><ele>1156.0</ele><time>2026-04-26T09:30:27.745Z</time></trkpt><trkpt lat="44.9619761" lon="7.2793699"><ele>1156.0</ele><time>2026-04-26T09:30:30.746Z</time></trkpt><trkpt lat="44.9619788" lon="7.2794957"><ele>1156.0</ele><time>2026-04-26T09:30:32.746Z</time></trkpt><trkpt lat="44.9619013" lon="7.2795551"><ele>1156.0</ele><time>2026-04-26T09:30:35.746Z</time></trkpt><trkpt lat="44.9618287" lon="7.2794766"><ele>1156.0</ele><time>2026-04-26T09:30:37.746Z</time></trkpt><trkpt lat="44.9617893" lon="7.2793902"><ele>1156.0</ele><time>2026-04-26T09:30:38.745Z</time></trkpt><trkpt lat="44.9617471" lon="7.2792837"><ele>1156.2</ele><time>2026-04-26T09:30:39.746Z</time></trkpt><trkpt lat="44.961694" lon="7.2791466"><ele>1156.3999999999999</ele><time>2026-04-26T09:30:40.746Z</time></trkpt><trkpt lat="44.9616471" lon="7.2790216"><ele>1156.6</ele><time>2026-04-26T09:30:41.746Z</time></trkpt><trkpt lat="44.9615988" lon="7.2789022"><ele>1156.8</ele><time>2026-04-26T09:30:42.746Z</time></trkpt><trkpt lat="44.9615534" lon="7.2787954"><ele>1157.0</ele><time>2026-04-26T09:30:43.746Z</time></trkpt><trkpt lat="44.9615093" lon="7.2786876"><ele>1157.0</ele><time>2026-04-26T09:30:44.746Z</time></trkpt><trkpt lat="44.9614712" lon="7.2785941"><ele>1157.0</ele><time>2026-04-26T09:30:45.746Z</time></trkpt><trkpt lat="44.961434" lon="7.2785212"><ele>1157.0</ele><time>2026-04-26T09:30:46.746Z</time></trkpt><trkpt lat="44.9614272" lon="7.2783622"><ele>1157.0</ele><time>2026-04-26T09:30:48.746Z</time></trkpt><trkpt lat="44.9614303" lon="7.2782719"><ele>1157.0</ele><time>2026-04-26T09:30:49.745Z</time></trkpt><trkpt lat="44.9614108" lon="7.2781645"><ele>1157.0</ele><time>2026-04-26T09:30:50.746Z</time></trkpt><trkpt lat="44.9613847" lon="7.278049"><ele>1156.1666666666667</ele><time>2026-04-26T09:30:51.746Z</time></trkpt><trkpt lat="44.9613587" lon="7.2779579"><ele>1155.3333333333335</ele><time>2026-04-26T09:30:52.746Z</time></trkpt><trkpt lat="44.9613237" lon="7.277863"><ele>1154.5</ele><time>2026-04-26T09:30:53.746Z</time></trkpt><trkpt lat="44.9612875" lon="7.2777704"><ele>1153.6666666666667</ele><time>2026-04-26T09:30:54.746Z</time></trkpt><trkpt lat="44.9612371" lon="7.2776873"><ele>1152.8333333333333</ele><time>2026-04-26T09:30:55.746Z</time></trkpt><trkpt lat="44.9611759" lon="7.2776201"><ele>1152.0</ele><time>2026-04-26T09:30:56.746Z</time></trkpt><trkpt lat="44.9611071" lon="7.2775685"><ele>1152.0</ele><time>2026-04-26T09:30:57.746Z</time></trkpt><trkpt lat="44.9609766" lon="7.27751"><ele>1152.0</ele><time>2026-04-26T09:30:59.746Z</time></trkpt><trkpt lat="44.9609033" lon="7.2774736"><ele>1152.0</ele><time>2026-04-26T09:31:00.746Z</time></trkpt><trkpt lat="44.960825" lon="7.277436"><ele>1152.0</ele><time>2026-04-26T09:31:01.746Z</time></trkpt><trkpt lat="44.9607407" lon="7.2773957"><ele>1152.0</ele><time>2026-04-26T09:31:02.746Z</time></trkpt><trkpt lat="44.960659" lon="7.2773591"><ele>1154.1666666666667</ele><time>2026-04-26T09:31:03.746Z</time></trkpt><trkpt lat="44.9605794" lon="7.2773371"><ele>1156.3333333333333</ele><time>2026-04-26T09:31:04.746Z</time></trkpt><trkpt lat="44.9604922" lon="7.2773186"><ele>1158.5</ele><time>2026-04-26T09:31:05.746Z</time></trkpt><trkpt lat="44.9604166" lon="7.2773077"><ele>1160.6666666666665</ele><time>2026-04-26T09:31:06.746Z</time></trkpt><trkpt lat="44.9603431" lon="7.277298"><ele>1162.8333333333333</ele><time>2026-04-26T09:31:07.746Z</time></trkpt><trkpt lat="44.9602702" lon="7.2772985"><ele>1165.0</ele><time>2026-04-26T09:31:08.746Z</time></trkpt><trkpt lat="44.9601968" lon="7.2772948"><ele>1165.0</ele><time>2026-04-26T09:31:09.745Z</time></trkpt><trkpt lat="44.9601207" lon="7.2772976"><ele>1165.0</ele><time>2026-04-26T09:31:10.745Z</time></trkpt><trkpt lat="44.9600569" lon="7.2772863"><ele>1165.0</ele><time>2026-04-26T09:31:11.746Z</time></trkpt><trkpt lat="44.9599838" lon="7.2772706"><ele>1165.0</ele><time>2026-04-26T09:31:12.746Z</time></trkpt><trkpt lat="44.9599021" lon="7.2772433"><ele>1165.0</ele><time>2026-04-26T09:31:13.746Z</time></trkpt><trkpt lat="44.9598046" lon="7.2771979"><ele>1165.0</ele><time>2026-04-26T09:31:14.745Z</time></trkpt><trkpt lat="44.959706" lon="7.2771509"><ele>1165.5</ele><time>2026-04-26T09:31:15.746Z</time></trkpt><trkpt lat="44.9596225" lon="7.2771052"><ele>1166.0</ele><time>2026-04-26T09:31:16.746Z</time></trkpt><trkpt lat="44.959547" lon="7.2770573"><ele>1166.5</ele><time>2026-04-26T09:31:17.746Z</time></trkpt><trkpt lat="44.959473" lon="7.2770183"><ele>1167.0</ele><time>2026-04-26T09:31:18.746Z</time></trkpt><trkpt lat="44.9594117" lon="7.2769794"><ele>1167.5</ele><time>2026-04-26T09:31:19.746Z</time></trkpt><trkpt lat="44.9593536" lon="7.2769358"><ele>1168.0</ele><time>2026-04-26T09:31:20.746Z</time></trkpt><trkpt lat="44.9592974" lon="7.2768806"><ele>1168.0</ele><time>2026-04-26T09:31:21.746Z</time></trkpt><trkpt lat="44.9592408" lon="7.2768247"><ele>1168.0</ele><time>2026-04-26T09:31:22.745Z</time></trkpt><trkpt lat="44.959184" lon="7.2767649"><ele>1168.0</ele><time>2026-04-26T09:31:23.746Z</time></trkpt><trkpt lat="44.9591214" lon="7.2767079"><ele>1168.0</ele><time>2026-04-26T09:31:24.745Z</time></trkpt><trkpt lat="44.9590497" lon="7.2766646"><ele>1168.0</ele><time>2026-04-26T09:31:25.745Z</time></trkpt><trkpt lat="44.9589794" lon="7.2766373"><ele>1168.0</ele><time>2026-04-26T09:31:26.746Z</time></trkpt><trkpt lat="44.9589044" lon="7.2766272"><ele>1168.0</ele><time>2026-04-26T09:31:27.746Z</time></trkpt><trkpt lat="44.9588301" lon="7.2766245"><ele>1167.1666666666665</ele><time>2026-04-26T09:31:28.746Z</time></trkpt><trkpt lat="44.9587475" lon="7.2766448"><ele>1166.3333333333333</ele><time>2026-04-26T09:31:29.746Z</time></trkpt><trkpt lat="44.9586781" lon="7.2766734"><ele>1165.5</ele><time>2026-04-26T09:31:30.746Z</time></trkpt><trkpt lat="44.9586165" lon="7.2767051"><ele>1164.6666666666667</ele><time>2026-04-26T09:31:31.746Z</time></trkpt><trkpt lat="44.9585523" lon="7.2767507"><ele>1163.8333333333335</ele><time>2026-04-26T09:31:34.746Z</time></trkpt><trkpt lat="44.9584855" lon="7.2768274"><ele>1163.0</ele><time>2026-04-26T09:31:56.746Z</time></trkpt><trkpt lat="44.9584276" lon="7.2768833"><ele>1161.1666666666667</ele><time>2026-04-26T09:31:57.746Z</time></trkpt><trkpt lat="44.9583644" lon="7.2769302"><ele>1159.3333333333335</ele><time>2026-04-26T09:31:58.746Z</time></trkpt><trkpt lat="44.9582806" lon="7.2769838"><ele>1157.5</ele><time>2026-04-26T09:31:59.746Z</time></trkpt><trkpt lat="44.9581938" lon="7.2770233"><ele>1155.6666666666667</ele><time>2026-04-26T09:32:00.746Z</time></trkpt><trkpt lat="44.9581071" lon="7.2770458"><ele>1153.8333333333333</ele><time>2026-04-26T09:32:01.746Z</time></trkpt><trkpt lat="44.9580132" lon="7.2770468"><ele>1152.0</ele><time>2026-04-26T09:32:02.746Z</time></trkpt><trkpt lat="44.957922" lon="7.2770273"><ele>1152.0</ele><time>2026-04-26T09:32:03.746Z</time></trkpt><trkpt lat="44.9578386" lon="7.2769912"><ele>1152.0</ele><time>2026-04-26T09:32:04.746Z</time></trkpt><trkpt lat="44.9577653" lon="7.2769224"><ele>1152.0</ele><time>2026-04-26T09:32:05.746Z</time></trkpt><trkpt lat="44.9576992" lon="7.2768351"><ele>1152.0</ele><time>2026-04-26T09:32:06.746Z</time></trkpt><trkpt lat="44.9576469" lon="7.2767338"><ele>1152.0</ele><time>2026-04-26T09:32:07.746Z</time></trkpt><trkpt lat="44.9575993" lon="7.276621"><ele>1152.0</ele><time>2026-04-26T09:32:08.746Z</time></trkpt><trkpt lat="44.9575377" lon="7.2765238"><ele>1152.8</ele><time>2026-04-26T09:32:09.746Z</time></trkpt><trkpt lat="44.9574593" lon="7.2764196"><ele>1153.6</ele><time>2026-04-26T09:32:10.746Z</time></trkpt><trkpt lat="44.95737" lon="7.2763214"><ele>1154.3999999999999</ele><time>2026-04-26T09:32:11.746Z</time></trkpt><trkpt lat="44.9572867" lon="7.2762464"><ele>1155.2</ele><time>2026-04-26T09:32:12.746Z</time></trkpt><trkpt lat="44.9571946" lon="7.276172"><ele>1156.0</ele><time>2026-04-26T09:32:13.746Z</time></trkpt><trkpt lat="44.9570953" lon="7.2760812"><ele>1156.0</ele><time>2026-04-26T09:32:14.746Z</time></trkpt><trkpt lat="44.9569929" lon="7.2760043"><ele>1156.0</ele><time>2026-04-26T09:32:15.746Z</time></trkpt><trkpt lat="44.956895" lon="7.2759335"><ele>1156.0</ele><time>2026-04-26T09:32:16.746Z</time></trkpt><trkpt lat="44.9568025" lon="7.275849"><ele>1156.0</ele><time>2026-04-26T09:32:17.746Z</time></trkpt><trkpt lat="44.9567225" lon="7.2757706"><ele>1156.0</ele><time>2026-04-26T09:32:18.745Z</time></trkpt><trkpt lat="44.9566624" lon="7.2756783"><ele>1158.3999999999999</ele><time>2026-04-26T09:32:19.746Z</time></trkpt><trkpt lat="44.9566172" lon="7.2755624"><ele>1160.8</ele><time>2026-04-26T09:32:20.746Z</time></trkpt><trkpt lat="44.9565782" lon="7.2754334"><ele>1163.1999999999998</ele><time>2026-04-26T09:32:21.746Z</time></trkpt><trkpt lat="44.9565408" lon="7.2752848"><ele>1165.6</ele><time>2026-04-26T09:32:22.746Z</time></trkpt><trkpt lat="44.9565135" lon="7.27511"><ele>1168.0</ele><time>2026-04-26T09:32:23.746Z</time></trkpt><trkpt lat="44.9564747" lon="7.2749464"><ele>1168.0</ele><time>2026-04-26T09:32:24.746Z</time></trkpt><trkpt lat="44.9564432" lon="7.2748001"><ele>1168.0</ele><time>2026-04-26T09:32:25.746Z</time></trkpt><trkpt lat="44.9564138" lon="7.2746492"><ele>1168.0</ele><time>2026-04-26T09:32:26.745Z</time></trkpt><trkpt lat="44.9563804" lon="7.2744946"><ele>1168.0</ele><time>2026-04-26T09:32:27.746Z</time></trkpt><trkpt lat="44.9563461" lon="7.2743487"><ele>1168.0</ele><time>2026-04-26T09:32:28.746Z</time></trkpt><trkpt lat="44.9563084" lon="7.2742015"><ele>1167.8</ele><time>2026-04-26T09:32:29.746Z</time></trkpt><trkpt lat="44.9562801" lon="7.2740707"><ele>1167.6</ele><time>2026-04-26T09:32:30.746Z</time></trkpt><trkpt lat="44.9562424" lon="7.2739455"><ele>1167.4</ele><time>2026-04-26T09:32:31.746Z</time></trkpt><trkpt lat="44.9562025" lon="7.273844"><ele>1167.2</ele><time>2026-04-26T09:32:32.746Z</time></trkpt><trkpt lat="44.956136" lon="7.2737534"><ele>1167.0</ele><time>2026-04-26T09:32:33.746Z</time></trkpt><trkpt lat="44.9560631" lon="7.2736956"><ele>1167.3333333333333</ele><time>2026-04-26T09:32:34.746Z</time></trkpt><trkpt lat="44.9559867" lon="7.2736584"><ele>1167.6666666666667</ele><time>2026-04-26T09:32:35.745Z</time></trkpt><trkpt lat="44.9559016" lon="7.2736476"><ele>1168.0</ele><time>2026-04-26T09:32:36.746Z</time></trkpt><trkpt lat="44.9558142" lon="7.27363"><ele>1168.3333333333335</ele><time>2026-04-26T09:32:37.746Z</time></trkpt><trkpt lat="44.9557351" lon="7.273592"><ele>1168.6666666666667</ele><time>2026-04-26T09:32:38.746Z</time></trkpt><trkpt lat="44.9556585" lon="7.2735276"><ele>1169.0</ele><time>2026-04-26T09:32:39.746Z</time></trkpt><trkpt lat="44.9555779" lon="7.2734568"><ele>1171.4</ele><time>2026-04-26T09:32:40.746Z</time></trkpt><trkpt lat="44.9555021" lon="7.2733742"><ele>1173.8000000000002</ele><time>2026-04-26T09:32:41.746Z</time></trkpt><trkpt lat="44.9554393" lon="7.2732911"><ele>1176.1999999999998</ele><time>2026-04-26T09:32:42.746Z</time></trkpt><trkpt lat="44.9553595" lon="7.273213"><ele>1178.6</ele><time>2026-04-26T09:32:43.746Z</time></trkpt><trkpt lat="44.9552882" lon="7.2731489"><ele>1181.0</ele><time>2026-04-26T09:32:44.746Z</time></trkpt><trkpt lat="44.9552121" lon="7.2730897"><ele>1181.0</ele><time>2026-04-26T09:32:45.746Z</time></trkpt><trkpt lat="44.9551347" lon="7.2730472"><ele>1181.0</ele><time>2026-04-26T09:32:46.746Z</time></trkpt><trkpt lat="44.9550706" lon="7.2730071"><ele>1181.0</ele><time>2026-04-26T09:32:47.746Z</time></trkpt><trkpt lat="44.9550125" lon="7.2729684"><ele>1181.0</ele><time>2026-04-26T09:32:48.746Z</time></trkpt><trkpt lat="44.954952" lon="7.2729324"><ele>1181.0</ele><time>2026-04-26T09:32:49.746Z</time></trkpt><trkpt lat="44.954894" lon="7.2728968"><ele>1181.0</ele><time>2026-04-26T09:32:50.746Z</time></trkpt><trkpt lat="44.954781" lon="7.2728113"><ele>1178.8</ele><time>2026-04-26T09:32:52.746Z</time></trkpt><trkpt lat="44.9546738" lon="7.27276"><ele>1176.6</ele><time>2026-04-26T09:32:54.746Z</time></trkpt><trkpt lat="44.9545906" lon="7.2727259"><ele>1174.4</ele><time>2026-04-26T09:32:56.746Z</time></trkpt><trkpt lat="44.9544634" lon="7.2727139"><ele>1172.2</ele><time>2026-04-26T09:32:58.746Z</time></trkpt><trkpt lat="44.9543771" lon="7.2726852"><ele>1170.0</ele><time>2026-04-26T09:32:59.746Z</time></trkpt><trkpt lat="44.9542937" lon="7.2726824"><ele>1169.0</ele><time>2026-04-26T09:33:00.746Z</time></trkpt><trkpt lat="44.9542005" lon="7.2726937"><ele>1168.0</ele><time>2026-04-26T09:33:01.745Z</time></trkpt><trkpt lat="44.9541082" lon="7.2727052"><ele>1167.0</ele><time>2026-04-26T09:33:02.746Z</time></trkpt><trkpt lat="44.9540106" lon="7.2727204"><ele>1166.0</ele><time>2026-04-26T09:33:03.746Z</time></trkpt><trkpt lat="44.9538911" lon="7.2727406"><ele>1165.0</ele><time>2026-04-26T09:33:04.746Z</time></trkpt><trkpt lat="44.953808" lon="7.2727509"><ele>1165.0</ele><time>2026-04-26T09:33:05.746Z</time></trkpt><trkpt lat="44.9537079" lon="7.2727797"><ele>1165.0</ele><time>2026-04-26T09:33:06.746Z</time></trkpt><trkpt lat="44.9536105" lon="7.2728358"><ele>1165.0</ele><time>2026-04-26T09:33:07.746Z</time></trkpt><trkpt lat="44.9535225" lon="7.2729046"><ele>1165.0</ele><time>2026-04-26T09:33:08.746Z</time></trkpt><trkpt lat="44.9534434" lon="7.2729977"><ele>1165.0</ele><time>2026-04-26T09:33:09.746Z</time></trkpt><trkpt lat="44.9533605" lon="7.2731044"><ele>1164.0</ele><time>2026-04-26T09:33:10.746Z</time></trkpt><trkpt lat="44.9532844" lon="7.273239"><ele>1163.0</ele><time>2026-04-26T09:33:11.746Z</time></trkpt><trkpt lat="44.953221" lon="7.2733681"><ele>1162.0</ele><time>2026-04-26T09:33:12.746Z</time></trkpt><trkpt lat="44.953159" lon="7.2734736"><ele>1161.0</ele><time>2026-04-26T09:33:13.746Z</time></trkpt><trkpt lat="44.9530961" lon="7.2735603"><ele>1160.0</ele><time>2026-04-26T09:33:14.746Z</time></trkpt><trkpt lat="44.9530173" lon="7.2736164"><ele>1160.0</ele><time>2026-04-26T09:33:15.746Z</time></trkpt><trkpt lat="44.9529455" lon="7.273618"><ele>1160.0</ele><time>2026-04-26T09:33:16.746Z</time></trkpt><trkpt lat="44.9528716" lon="7.2735753"><ele>1160.0</ele><time>2026-04-26T09:33:17.746Z</time></trkpt><trkpt lat="44.9527914" lon="7.2734846"><ele>1160.0</ele><time>2026-04-26T09:33:18.746Z</time></trkpt><trkpt lat="44.9526922" lon="7.2733723"><ele>1160.0</ele><time>2026-04-26T09:33:19.746Z</time></trkpt><trkpt lat="44.9525879" lon="7.2732524"><ele>1157.4</ele><time>2026-04-26T09:33:20.746Z</time></trkpt><trkpt lat="44.9524954" lon="7.2731405"><ele>1154.8</ele><time>2026-04-26T09:33:21.746Z</time></trkpt><trkpt lat="44.9524091" lon="7.273053"><ele>1152.2</ele><time>2026-04-26T09:33:22.746Z</time></trkpt><trkpt lat="44.9523161" lon="7.2729849"><ele>1149.6</ele><time>2026-04-26T09:33:23.746Z</time></trkpt><trkpt lat="44.9522322" lon="7.2729227"><ele>1147.0</ele><time>2026-04-26T09:33:24.746Z</time></trkpt><trkpt lat="44.9521444" lon="7.2728988"><ele>1147.0</ele><time>2026-04-26T09:33:25.746Z</time></trkpt><trkpt lat="44.9520579" lon="7.2728933"><ele>1147.0</ele><time>2026-04-26T09:33:26.746Z</time></trkpt><trkpt lat="44.9519826" lon="7.2729285"><ele>1147.0</ele><time>2026-04-26T09:33:27.746Z</time></trkpt><trkpt lat="44.9519045" lon="7.2729827"><ele>1147.0</ele><time>2026-04-26T09:33:28.746Z</time></trkpt><trkpt lat="44.951828" lon="7.2730921"><ele>1147.0</ele><time>2026-04-26T09:33:29.746Z</time></trkpt><trkpt lat="44.9517621" lon="7.2731914"><ele>1147.0</ele><time>2026-04-26T09:33:30.746Z</time></trkpt><trkpt lat="44.9517104" lon="7.2732745"><ele>1147.0</ele><time>2026-04-26T09:33:31.746Z</time></trkpt><trkpt lat="44.9516761" lon="7.2733864"><ele>1147.0</ele><time>2026-04-26T09:33:32.746Z</time></trkpt><trkpt lat="44.9516429" lon="7.2734621"><ele>1147.0</ele><time>2026-04-26T09:33:33.746Z</time></trkpt><trkpt lat="44.9515605" lon="7.2735428"><ele>1147.0</ele><time>2026-04-26T09:33:35.746Z</time></trkpt><trkpt lat="44.9514713" lon="7.2734574"><ele>1147.0</ele><time>2026-04-26T09:33:37.746Z</time></trkpt><trkpt lat="44.9514287" lon="7.2733878"><ele>1143.6</ele><time>2026-04-26T09:33:38.746Z</time></trkpt><trkpt lat="44.9513509" lon="7.273272"><ele>1140.2</ele><time>2026-04-26T09:33:40.746Z</time></trkpt><trkpt lat="44.9513056" lon="7.2732091"><ele>1136.8</ele><time>2026-04-26T09:33:43.746Z</time></trkpt><trkpt lat="44.9513342" lon="7.2730621"><ele>1133.4</ele><time>2026-04-26T09:33:50.746Z</time></trkpt><trkpt lat="44.9514075" lon="7.2729435"><ele>1130.0</ele><time>2026-04-26T09:33:52.746Z</time></trkpt><trkpt lat="44.9514659" lon="7.2728127"><ele>1129.2</ele><time>2026-04-26T09:33:54.746Z</time></trkpt><trkpt lat="44.9515002" lon="7.2726647"><ele>1128.4</ele><time>2026-04-26T09:33:56.746Z</time></trkpt><trkpt lat="44.9515121" lon="7.2725742"><ele>1127.6</ele><time>2026-04-26T09:33:57.746Z</time></trkpt><trkpt lat="44.9515128" lon="7.2724027"><ele>1126.8</ele><time>2026-04-26T09:33:59.746Z</time></trkpt><trkpt lat="44.9514957" lon="7.2723126"><ele>1126.0</ele><time>2026-04-26T09:34:00.746Z</time></trkpt><trkpt lat="44.9514809" lon="7.2721411"><ele>1123.8</ele><time>2026-04-26T09:34:02.746Z</time></trkpt><trkpt lat="44.9515072" lon="7.2719716"><ele>1121.6</ele><time>2026-04-26T09:34:04.746Z</time></trkpt><trkpt lat="44.9515282" lon="7.2718864"><ele>1119.4</ele><time>2026-04-26T09:34:05.746Z</time></trkpt><trkpt lat="44.9515881" lon="7.2717151"><ele>1117.2</ele><time>2026-04-26T09:34:07.746Z</time></trkpt><trkpt lat="44.9516232" lon="7.2716387"><ele>1115.0</ele><time>2026-04-26T09:34:08.746Z</time></trkpt><trkpt lat="44.9516584" lon="7.2715497"><ele>1115.0</ele><time>2026-04-26T09:34:09.745Z</time></trkpt><trkpt lat="44.9517051" lon="7.271471"><ele>1115.0</ele><time>2026-04-26T09:34:10.746Z</time></trkpt><trkpt lat="44.9517503" lon="7.2713943"><ele>1115.0</ele><time>2026-04-26T09:34:11.746Z</time></trkpt><trkpt lat="44.9517976" lon="7.2713184"><ele>1115.0</ele><time>2026-04-26T09:34:12.745Z</time></trkpt><trkpt lat="44.9518593" lon="7.2712377"><ele>1115.0</ele><time>2026-04-26T09:34:13.746Z</time></trkpt><trkpt lat="44.9518929" lon="7.2711458"><ele>1115.0</ele><time>2026-04-26T09:34:14.746Z</time></trkpt><trkpt lat="44.951938" lon="7.2710604"><ele>1115.0</ele><time>2026-04-26T09:34:15.746Z</time></trkpt><trkpt lat="44.9519778" lon="7.2709705"><ele>1115.6666666666667</ele><time>2026-04-26T09:34:16.746Z</time></trkpt><trkpt lat="44.9519952" lon="7.2708702"><ele>1116.3333333333335</ele><time>2026-04-26T09:34:17.746Z</time></trkpt><trkpt lat="44.9520331" lon="7.2707825"><ele>1117.0</ele><time>2026-04-26T09:34:18.746Z</time></trkpt><trkpt lat="44.952076" lon="7.2706812"><ele>1117.6666666666667</ele><time>2026-04-26T09:34:19.746Z</time></trkpt><trkpt lat="44.9521083" lon="7.270589"><ele>1118.3333333333333</ele><time>2026-04-26T09:34:20.746Z</time></trkpt><trkpt lat="44.9521488" lon="7.2704363"><ele>1119.0</ele><time>2026-04-26T09:34:22.746Z</time></trkpt><trkpt lat="44.9521658" lon="7.2703479"><ele>1116.6666666666667</ele><time>2026-04-26T09:34:23.746Z</time></trkpt><trkpt lat="44.9521766" lon="7.270239"><ele>1114.3333333333333</ele><time>2026-04-26T09:34:24.746Z</time></trkpt><trkpt lat="44.952173" lon="7.2701124"><ele>1112.0</ele><time>2026-04-26T09:34:25.746Z</time></trkpt><trkpt lat="44.9521884" lon="7.2699965"><ele>1109.6666666666665</ele><time>2026-04-26T09:34:26.746Z</time></trkpt><trkpt lat="44.9521844" lon="7.2698803"><ele>1107.3333333333333</ele><time>2026-04-26T09:34:27.746Z</time></trkpt><trkpt lat="44.9521794" lon="7.269752"><ele>1105.0</ele><time>2026-04-26T09:34:28.746Z</time></trkpt><trkpt lat="44.9521866" lon="7.2696307"><ele>1102.1666666666665</ele><time>2026-04-26T09:34:29.746Z</time></trkpt><trkpt lat="44.9521969" lon="7.2695207"><ele>1099.3333333333333</ele><time>2026-04-26T09:34:30.746Z</time></trkpt><trkpt lat="44.9522111" lon="7.2694249"><ele>1096.5</ele><time>2026-04-26T09:34:31.746Z</time></trkpt><trkpt lat="44.9522338" lon="7.269327"><ele>1093.6666666666667</ele><time>2026-04-26T09:34:32.746Z</time></trkpt><trkpt lat="44.9522603" lon="7.2691788"><ele>1090.8333333333335</ele><time>2026-04-26T09:34:34.746Z</time></trkpt><trkpt lat="44.952213" lon="7.2690824"><ele>1088.0</ele><time>2026-04-26T09:34:36.746Z</time></trkpt><trkpt lat="44.952099" lon="7.2691205"><ele>1088.0</ele><time>2026-04-26T09:34:38.746Z</time></trkpt><trkpt lat="44.9520262" lon="7.2691649"><ele>1088.0</ele><time>2026-04-26T09:34:39.746Z</time></trkpt><trkpt lat="44.9519407" lon="7.2692132"><ele>1088.0</ele><time>2026-04-26T09:34:40.746Z</time></trkpt><trkpt lat="44.9518676" lon="7.2692544"><ele>1088.0</ele><time>2026-04-26T09:34:41.746Z</time></trkpt><trkpt lat="44.9518038" lon="7.2693038"><ele>1088.0</ele><time>2026-04-26T09:34:42.746Z</time></trkpt><trkpt lat="44.9517511" lon="7.2693815"><ele>1088.0</ele><time>2026-04-26T09:34:43.746Z</time></trkpt><trkpt lat="44.9516666" lon="7.2694612"><ele>1085.8333333333335</ele><time>2026-04-26T09:34:44.746Z</time></trkpt><trkpt lat="44.9515996" lon="7.2695333"><ele>1083.6666666666667</ele><time>2026-04-26T09:34:45.746Z</time></trkpt><trkpt lat="44.9515426" lon="7.2695947"><ele>1081.5</ele><time>2026-04-26T09:34:46.746Z</time></trkpt><trkpt lat="44.9514226" lon="7.2695892"><ele>1079.3333333333333</ele><time>2026-04-26T09:34:48.746Z</time></trkpt><trkpt lat="44.951351" lon="7.2695687"><ele>1077.1666666666665</ele><time>2026-04-26T09:34:49.745Z</time></trkpt><trkpt lat="44.9512698" lon="7.2695265"><ele>1075.0</ele><time>2026-04-26T09:34:50.746Z</time></trkpt><trkpt lat="44.9512182" lon="7.269456"><ele>1075.0</ele><time>2026-04-26T09:34:51.746Z</time></trkpt><trkpt lat="44.9511432" lon="7.2693291"><ele>1075.0</ele><time>2026-04-26T09:34:53.746Z</time></trkpt><trkpt lat="44.9511187" lon="7.2691479"><ele>1075.0</ele><time>2026-04-26T09:34:55.746Z</time></trkpt><trkpt lat="44.9511323" lon="7.2690379"><ele>1075.0</ele><time>2026-04-26T09:34:56.745Z</time></trkpt><trkpt lat="44.9511407" lon="7.2689239"><ele>1075.0</ele><time>2026-04-26T09:34:57.746Z</time></trkpt><trkpt lat="44.951162" lon="7.2688269"><ele>1072.8333333333333</ele><time>2026-04-26T09:34:58.746Z</time></trkpt><trkpt lat="44.9511802" lon="7.2687111"><ele>1070.6666666666665</ele><time>2026-04-26T09:34:59.746Z</time></trkpt><trkpt lat="44.9511969" lon="7.2686046"><ele>1068.5</ele><time>2026-04-26T09:35:00.746Z</time></trkpt><trkpt lat="44.9512097" lon="7.2685016"><ele>1066.3333333333333</ele><time>2026-04-26T09:35:01.746Z</time></trkpt><trkpt lat="44.9512238" lon="7.2683983"><ele>1064.1666666666667</ele><time>2026-04-26T09:35:02.746Z</time></trkpt><trkpt lat="44.9512042" lon="7.2682768"><ele>1062.0</ele><time>2026-04-26T09:35:03.746Z</time></trkpt><trkpt lat="44.9511908" lon="7.2681577"><ele>1058.8</ele><time>2026-04-26T09:35:04.746Z</time></trkpt><trkpt lat="44.9511845" lon="7.2680335"><ele>1055.6</ele><time>2026-04-26T09:35:05.746Z</time></trkpt><trkpt lat="44.9511809" lon="7.2679118"><ele>1052.3999999999999</ele><time>2026-04-26T09:35:06.746Z</time></trkpt><trkpt lat="44.9511814" lon="7.2677757"><ele>1049.2</ele><time>2026-04-26T09:35:07.746Z</time></trkpt><trkpt lat="44.9511763" lon="7.2676269"><ele>1046.0</ele><time>2026-04-26T09:35:08.746Z</time></trkpt><trkpt lat="44.9511713" lon="7.2674936"><ele>1046.0</ele><time>2026-04-26T09:35:09.745Z</time></trkpt><trkpt lat="44.951166" lon="7.2673601"><ele>1046.0</ele><time>2026-04-26T09:35:10.746Z</time></trkpt><trkpt lat="44.9511728" lon="7.2672316"><ele>1046.0</ele><time>2026-04-26T09:35:11.745Z</time></trkpt><trkpt lat="44.9511833" lon="7.2671059"><ele>1046.0</ele><time>2026-04-26T09:35:12.746Z</time></trkpt><trkpt lat="44.9512001" lon="7.2669741"><ele>1046.0</ele><time>2026-04-26T09:35:13.746Z</time></trkpt><trkpt lat="44.9512024" lon="7.2668625"><ele>1046.0</ele><time>2026-04-26T09:35:14.746Z</time></trkpt><trkpt lat="44.9512041" lon="7.2667531"><ele>1043.8333333333335</ele><time>2026-04-26T09:35:15.746Z</time></trkpt><trkpt lat="44.9511935" lon="7.266646"><ele>1041.6666666666667</ele><time>2026-04-26T09:35:16.746Z</time></trkpt><trkpt lat="44.9511771" lon="7.2665343"><ele>1039.5</ele><time>2026-04-26T09:35:17.746Z</time></trkpt><trkpt lat="44.9511536" lon="7.2664255"><ele>1037.3333333333333</ele><time>2026-04-26T09:35:18.746Z</time></trkpt><trkpt lat="44.9511213" lon="7.2663133"><ele>1035.1666666666665</ele><time>2026-04-26T09:35:19.746Z</time></trkpt><trkpt lat="44.9510864" lon="7.2662145"><ele>1033.0</ele><time>2026-04-26T09:35:20.746Z</time></trkpt><trkpt lat="44.9510577" lon="7.2661055"><ele>1031.5</ele><time>2026-04-26T09:35:21.746Z</time></trkpt><trkpt lat="44.9510427" lon="7.2660067"><ele>1030.0</ele><time>2026-04-26T09:35:22.746Z</time></trkpt><trkpt lat="44.9510227" lon="7.2658857"><ele>1028.5</ele><time>2026-04-26T09:35:23.746Z</time></trkpt><trkpt lat="44.9510033" lon="7.2657759"><ele>1027.0</ele><time>2026-04-26T09:35:24.746Z</time></trkpt><trkpt lat="44.950991" lon="7.265666"><ele>1025.5</ele><time>2026-04-26T09:35:25.746Z</time></trkpt><trkpt lat="44.9509619" lon="7.2655558"><ele>1024.0</ele><time>2026-04-26T09:35:26.746Z</time></trkpt><trkpt lat="44.9509217" lon="7.2654544"><ele>1025.6000000000001</ele><time>2026-04-26T09:35:27.746Z</time></trkpt><trkpt lat="44.9508693" lon="7.2653613"><ele>1027.2</ele><time>2026-04-26T09:35:28.746Z</time></trkpt><trkpt lat="44.9507981" lon="7.2652909"><ele>1028.8000000000002</ele><time>2026-04-26T09:35:29.746Z</time></trkpt><trkpt lat="44.9507126" lon="7.2652331"><ele>1030.4</ele><time>2026-04-26T09:35:30.746Z</time></trkpt><trkpt lat="44.9506199" lon="7.2651863"><ele>1032.0</ele><time>2026-04-26T09:35:31.746Z</time></trkpt><trkpt lat="44.9505272" lon="7.2651331"><ele>1032.0</ele><time>2026-04-26T09:35:32.746Z</time></trkpt><trkpt lat="44.9504606" lon="7.2650519"><ele>1032.0</ele><time>2026-04-26T09:35:33.746Z</time></trkpt><trkpt lat="44.9503835" lon="7.264969"><ele>1032.0</ele><time>2026-04-26T09:35:34.746Z</time></trkpt><trkpt lat="44.9503185" lon="7.2648873"><ele>1032.0</ele><time>2026-04-26T09:35:35.746Z</time></trkpt><trkpt lat="44.9502463" lon="7.2648095"><ele>1032.0</ele><time>2026-04-26T09:35:36.746Z</time></trkpt><trkpt lat="44.9501682" lon="7.2647453"><ele>1032.3333333333333</ele><time>2026-04-26T09:35:37.746Z</time></trkpt><trkpt lat="44.9500902" lon="7.2646844"><ele>1032.6666666666667</ele><time>2026-04-26T09:35:38.746Z</time></trkpt><trkpt lat="44.9500241" lon="7.2646319"><ele>1033.0</ele><time>2026-04-26T09:35:39.746Z</time></trkpt><trkpt lat="44.9499619" lon="7.2645448"><ele>1033.3333333333335</ele><time>2026-04-26T09:35:40.746Z</time></trkpt><trkpt lat="44.9499052" lon="7.2644456"><ele>1033.6666666666667</ele><time>2026-04-26T09:35:41.746Z</time></trkpt><trkpt lat="44.9498549" lon="7.2643509"><ele>1034.0</ele><time>2026-04-26T09:35:42.746Z</time></trkpt><trkpt lat="44.9498224" lon="7.2642669"><ele>1034.0</ele><time>2026-04-26T09:35:43.746Z</time></trkpt><trkpt lat="44.9497847" lon="7.2641712"><ele>1034.0</ele><time>2026-04-26T09:35:44.746Z</time></trkpt><trkpt lat="44.9497837" lon="7.2640627"><ele>1034.0</ele><time>2026-04-26T09:35:45.746Z</time></trkpt><trkpt lat="44.9498015" lon="7.2638589"><ele>1034.0</ele><time>2026-04-26T09:35:47.746Z</time></trkpt><trkpt lat="44.9498062" lon="7.2637388"><ele>1034.0</ele><time>2026-04-26T09:35:48.746Z</time></trkpt><trkpt lat="44.9498086" lon="7.2636178"><ele>1032.0</ele><time>2026-04-26T09:35:49.746Z</time></trkpt><trkpt lat="44.9498106" lon="7.2635014"><ele>1030.0</ele><time>2026-04-26T09:35:50.746Z</time></trkpt><trkpt lat="44.9498077" lon="7.2633824"><ele>1028.0</ele><time>2026-04-26T09:35:51.746Z</time></trkpt><trkpt lat="44.9497949" lon="7.2632747"><ele>1026.0</ele><time>2026-04-26T09:35:52.746Z</time></trkpt><trkpt lat="44.949786" lon="7.2631589"><ele>1024.0</ele><time>2026-04-26T09:35:53.745Z</time></trkpt><trkpt lat="44.949787" lon="7.2630502"><ele>1022.0</ele><time>2026-04-26T09:35:54.746Z</time></trkpt><trkpt lat="44.9497817" lon="7.2629536"><ele>1019.6666666666667</ele><time>2026-04-26T09:35:55.746Z</time></trkpt><trkpt lat="44.9497595" lon="7.2628485"><ele>1017.3333333333334</ele><time>2026-04-26T09:35:56.746Z</time></trkpt><trkpt lat="44.9497302" lon="7.2627381"><ele>1015.0</ele><time>2026-04-26T09:35:57.746Z</time></trkpt><trkpt lat="44.9496901" lon="7.2626543"><ele>1012.6666666666667</ele><time>2026-04-26T09:35:58.746Z</time></trkpt><trkpt lat="44.9496385" lon="7.2625935"><ele>1010.3333333333334</ele><time>2026-04-26T09:35:59.746Z</time></trkpt><trkpt lat="44.9495631" lon="7.2624897"><ele>1008.0</ele><time>2026-04-26T09:36:01.746Z</time></trkpt><trkpt lat="44.9495202" lon="7.262388"><ele>1005.0</ele><time>2026-04-26T09:36:03.746Z</time></trkpt><trkpt lat="44.9494951" lon="7.2622586"><ele>1002.0</ele><time>2026-04-26T09:36:05.746Z</time></trkpt><trkpt lat="44.9494458" lon="7.2621463"><ele>999.0</ele><time>2026-04-26T09:36:07.746Z</time></trkpt><trkpt lat="44.9494158" lon="7.262065"><ele>996.0</ele><time>2026-04-26T09:36:08.746Z</time></trkpt><trkpt lat="44.9493786" lon="7.2619847"><ele>993.0</ele><time>2026-04-26T09:36:09.746Z</time></trkpt><trkpt lat="44.949359" lon="7.2618983"><ele>990.0</ele><time>2026-04-26T09:36:10.746Z</time></trkpt><trkpt lat="44.9493095" lon="7.2617322"><ele>990.0</ele><time>2026-04-26T09:36:12.746Z</time></trkpt><trkpt lat="44.9492825" lon="7.2616494"><ele>990.0</ele><time>2026-04-26T09:36:13.746Z</time></trkpt><trkpt lat="44.9492506" lon="7.2615726"><ele>990.0</ele><time>2026-04-26T09:36:14.746Z</time></trkpt><trkpt lat="44.9492216" lon="7.2614893"><ele>990.0</ele><time>2026-04-26T09:36:15.746Z</time></trkpt><trkpt lat="44.9491867" lon="7.2613092"><ele>990.0</ele><time>2026-04-26T09:36:17.746Z</time></trkpt><trkpt lat="44.9491642" lon="7.2611443"><ele>990.0</ele><time>2026-04-26T09:36:19.746Z</time></trkpt><trkpt lat="44.94915" lon="7.2610574"><ele>992.4</ele><time>2026-04-26T09:36:20.746Z</time></trkpt><trkpt lat="44.9491526" lon="7.2609684"><ele>994.8</ele><time>2026-04-26T09:36:21.745Z</time></trkpt><trkpt lat="44.9491433" lon="7.2607972"><ele>997.2</ele><time>2026-04-26T09:36:23.746Z</time></trkpt><trkpt lat="44.949116" lon="7.2606175"><ele>999.6</ele><time>2026-04-26T09:36:25.746Z</time></trkpt><trkpt lat="44.9491048" lon="7.2605233"><ele>1002.0</ele><time>2026-04-26T09:36:26.746Z</time></trkpt><trkpt lat="44.9490991" lon="7.2604216"><ele>1002.0</ele><time>2026-04-26T09:36:27.746Z</time></trkpt><trkpt lat="44.9490914" lon="7.2603148"><ele>1002.0</ele><time>2026-04-26T09:36:28.746Z</time></trkpt><trkpt lat="44.9490861" lon="7.260209"><ele>1002.0</ele><time>2026-04-26T09:36:29.746Z</time></trkpt><trkpt lat="44.9490771" lon="7.2601094"><ele>1002.0</ele><time>2026-04-26T09:36:30.746Z</time></trkpt><trkpt lat="44.9490664" lon="7.2600182"><ele>1002.0</ele><time>2026-04-26T09:36:31.746Z</time></trkpt><trkpt lat="44.949032" lon="7.2598566"><ele>1002.0</ele><time>2026-04-26T09:36:33.746Z</time></trkpt><trkpt lat="44.949025" lon="7.2597362"><ele>1000.3333333333334</ele><time>2026-04-26T09:36:34.746Z</time></trkpt><trkpt lat="44.9490022" lon="7.2596209"><ele>998.6666666666667</ele><time>2026-04-26T09:36:35.746Z</time></trkpt><trkpt lat="44.9489795" lon="7.259504"><ele>997.0</ele><time>2026-04-26T09:36:36.746Z</time></trkpt><trkpt lat="44.9489658" lon="7.2593922"><ele>995.3333333333334</ele><time>2026-04-26T09:36:37.746Z</time></trkpt><trkpt lat="44.948926" lon="7.2593077"><ele>993.6666666666667</ele><time>2026-04-26T09:36:38.746Z</time></trkpt><trkpt lat="44.9489038" lon="7.2592086"><ele>992.0</ele><time>2026-04-26T09:36:39.746Z</time></trkpt><trkpt lat="44.9488745" lon="7.2591258"><ele>992.0</ele><time>2026-04-26T09:36:40.746Z</time></trkpt><trkpt lat="44.9488232" lon="7.259037"><ele>992.0000000000001</ele><time>2026-04-26T09:36:41.746Z</time></trkpt><trkpt lat="44.9487949" lon="7.2589501"><ele>992.0</ele><time>2026-04-26T09:36:42.746Z</time></trkpt><trkpt lat="44.9487481" lon="7.2588803"><ele>992.0</ele><time>2026-04-26T09:36:43.746Z</time></trkpt><trkpt lat="44.9487231" lon="7.2587837"><ele>992.0000000000001</ele><time>2026-04-26T09:36:44.746Z</time></trkpt><trkpt lat="44.9487012" lon="7.2586901"><ele>992.0</ele><time>2026-04-26T09:36:45.746Z</time></trkpt><trkpt lat="44.9486853" lon="7.2585905"><ele>992.0</ele><time>2026-04-26T09:36:46.746Z</time></trkpt><trkpt lat="44.9486685" lon="7.2584247"><ele>989.3333333333334</ele><time>2026-04-26T09:36:48.746Z</time></trkpt><trkpt lat="44.9486288" lon="7.2582778"><ele>986.6666666666667</ele><time>2026-04-26T09:36:50.746Z</time></trkpt><trkpt lat="44.9485939" lon="7.2581995"><ele>984.0</ele><time>2026-04-26T09:36:51.746Z</time></trkpt><trkpt lat="44.9485595" lon="7.2581079"><ele>981.3333333333333</ele><time>2026-04-26T09:36:52.746Z</time></trkpt><trkpt lat="44.9485286" lon="7.2580245"><ele>978.6666666666666</ele><time>2026-04-26T09:36:53.746Z</time></trkpt><trkpt lat="44.9484945" lon="7.257921"><ele>976.0</ele><time>2026-04-26T09:36:54.746Z</time></trkpt><trkpt lat="44.948456" lon="7.257807"><ele>975.9999999999999</ele><time>2026-04-26T09:36:55.745Z</time></trkpt><trkpt lat="44.948413" lon="7.2577072"><ele>976.0</ele><time>2026-04-26T09:36:56.746Z</time></trkpt><trkpt lat="44.9483738" lon="7.257615"><ele>976.0</ele><time>2026-04-26T09:36:57.746Z</time></trkpt><trkpt lat="44.9483431" lon="7.2574886"><ele>976.0</ele><time>2026-04-26T09:36:58.746Z</time></trkpt><trkpt lat="44.9483144" lon="7.2573932"><ele>975.9999999999999</ele><time>2026-04-26T09:36:59.746Z</time></trkpt><trkpt lat="44.948292" lon="7.2573013"><ele>976.0</ele><time>2026-04-26T09:37:00.746Z</time></trkpt><trkpt lat="44.9482179" lon="7.2571736"><ele>976.0</ele><time>2026-04-26T09:37:02.746Z</time></trkpt><trkpt lat="44.9481169" lon="7.2570951"><ele>975.9999999999999</ele><time>2026-04-26T09:37:04.746Z</time></trkpt><trkpt lat="44.948059" lon="7.2570554"><ele>975.9999999999999</ele><time>2026-04-26T09:37:05.746Z</time></trkpt><trkpt lat="44.9479414" lon="7.2570019"><ele>976.0</ele><time>2026-04-26T09:37:07.746Z</time></trkpt><trkpt lat="44.9478397" lon="7.256948"><ele>976.0</ele><time>2026-04-26T09:37:09.746Z</time></trkpt><trkpt lat="44.9477385" lon="7.2568279"><ele>976.0</ele><time>2026-04-26T09:37:11.746Z</time></trkpt><trkpt lat="44.9476897" lon="7.2567653"><ele>975.9999999999999</ele><time>2026-04-26T09:37:12.746Z</time></trkpt><trkpt lat="44.9476409" lon="7.2566469"><ele>975.9999999999999</ele><time>2026-04-26T09:37:14.746Z</time></trkpt><trkpt lat="44.9475431" lon="7.2565426"><ele>976.0</ele><time>2026-04-26T09:37:16.746Z</time></trkpt><trkpt lat="44.9474819" lon="7.2565087"><ele>976.0</ele><time>2026-04-26T09:37:17.745Z</time></trkpt><trkpt lat="44.947415" lon="7.2563769"><ele>975.0</ele><time>2026-04-26T09:37:19.746Z</time></trkpt><trkpt lat="44.9473586" lon="7.2562262"><ele>973.9999999999999</ele><time>2026-04-26T09:37:21.746Z</time></trkpt><trkpt lat="44.9472654" lon="7.256125"><ele>972.9999999999999</ele><time>2026-04-26T09:37:23.745Z</time></trkpt><trkpt lat="44.9472083" lon="7.256087"><ele>972.0</ele><time>2026-04-26T09:37:24.746Z</time></trkpt><trkpt lat="44.9471414" lon="7.2560566"><ele>971.0</ele><time>2026-04-26T09:37:25.746Z</time></trkpt><trkpt lat="44.9470244" lon="7.2559885"><ele>971.0000000000001</ele><time>2026-04-26T09:37:27.745Z</time></trkpt><trkpt lat="44.9469292" lon="7.2559424"><ele>971.0</ele><time>2026-04-26T09:37:29.746Z</time></trkpt><trkpt lat="44.9468474" lon="7.2559142"><ele>971.0</ele><time>2026-04-26T09:37:31.746Z</time></trkpt><trkpt lat="44.9467466" lon="7.2559129"><ele>971.0</ele><time>2026-04-26T09:37:33.746Z</time></trkpt><trkpt lat="44.9466744" lon="7.2559396"><ele>971.0000000000001</ele><time>2026-04-26T09:37:35.746Z</time></trkpt><trkpt lat="44.9466043" lon="7.2559857"><ele>971.0</ele><time>2026-04-26T09:37:37.746Z</time></trkpt><trkpt lat="44.9465269" lon="7.2560661"><ele>971.4</ele><time>2026-04-26T09:37:39.746Z</time></trkpt><trkpt lat="44.9464397" lon="7.2561705"><ele>971.8</ele><time>2026-04-26T09:37:41.746Z</time></trkpt><trkpt lat="44.9463545" lon="7.2562793"><ele>972.1999999999999</ele><time>2026-04-26T09:37:43.746Z</time></trkpt><trkpt lat="44.946294" lon="7.2563476"><ele>972.5999999999999</ele><time>2026-04-26T09:37:44.746Z</time></trkpt><trkpt lat="44.9462299" lon="7.2564153"><ele>973.0</ele><time>2026-04-26T09:37:45.746Z</time></trkpt><trkpt lat="44.9461842" lon="7.2564872"><ele>970.5999999999999</ele><time>2026-04-26T09:37:46.746Z</time></trkpt><trkpt lat="44.9461301" lon="7.2565574"><ele>968.1999999999999</ele><time>2026-04-26T09:37:47.746Z</time></trkpt><trkpt lat="44.94604" lon="7.2566894"><ele>965.8</ele><time>2026-04-26T09:37:49.746Z</time></trkpt><trkpt lat="44.9459618" lon="7.2568177"><ele>963.4</ele><time>2026-04-26T09:37:51.746Z</time></trkpt><trkpt lat="44.9458908" lon="7.2569596"><ele>961.0</ele><time>2026-04-26T09:37:53.746Z</time></trkpt><trkpt lat="44.9458621" lon="7.2570412"><ele>960.9999999999999</ele><time>2026-04-26T09:37:54.746Z</time></trkpt><trkpt lat="44.9458366" lon="7.2571226"><ele>961.0</ele><time>2026-04-26T09:37:55.746Z</time></trkpt><trkpt lat="44.9458041" lon="7.2572111"><ele>961.0</ele><time>2026-04-26T09:37:56.746Z</time></trkpt><trkpt lat="44.9457789" lon="7.2572977"><ele>961.0</ele><time>2026-04-26T09:37:57.746Z</time></trkpt><trkpt lat="44.9457297" lon="7.2574704"><ele>960.9999999999999</ele><time>2026-04-26T09:37:59.746Z</time></trkpt><trkpt lat="44.9457004" lon="7.257564"><ele>961.0</ele><time>2026-04-26T09:38:00.746Z</time></trkpt><trkpt lat="44.9456725" lon="7.2576607"><ele>964.5999999999999</ele><time>2026-04-26T09:38:01.746Z</time></trkpt><trkpt lat="44.9456697" lon="7.2577529"><ele>968.1999999999999</ele><time>2026-04-26T09:38:02.746Z</time></trkpt><trkpt lat="44.9456669" lon="7.2579221"><ele>971.8000000000001</ele><time>2026-04-26T09:38:04.746Z</time></trkpt><trkpt lat="44.945658" lon="7.2580906"><ele>975.4000000000001</ele><time>2026-04-26T09:38:06.746Z</time></trkpt><trkpt lat="44.9456169" lon="7.2581983"><ele>979.0</ele><time>2026-04-26T09:38:09.746Z</time></trkpt><trkpt lat="44.9455447" lon="7.2582444"><ele>978.9999999999999</ele><time>2026-04-26T09:38:12.746Z</time></trkpt><trkpt lat="44.9454743" lon="7.2582204"><ele>979.0</ele><time>2026-04-26T09:38:14.746Z</time></trkpt><trkpt lat="44.9453994" lon="7.2581845"><ele>979.0</ele><time>2026-04-26T09:38:16.746Z</time></trkpt><trkpt lat="44.9453177" lon="7.2581597"><ele>979.0</ele><time>2026-04-26T09:38:18.746Z</time></trkpt><trkpt lat="44.9452052" lon="7.258112"><ele>978.9999999999999</ele><time>2026-04-26T09:38:20.746Z</time></trkpt><trkpt lat="44.945137" lon="7.2580692"><ele>979.0</ele><time>2026-04-26T09:38:22.746Z</time></trkpt><trkpt lat="44.9450775" lon="7.258038"><ele>976.8000000000001</ele><time>2026-04-26T09:38:24.746Z</time></trkpt><trkpt lat="44.9450081" lon="7.2579978"><ele>974.6000000000001</ele><time>2026-04-26T09:38:26.746Z</time></trkpt><trkpt lat="44.9449164" lon="7.2580138"><ele>972.4</ele><time>2026-04-26T09:38:28.746Z</time></trkpt><trkpt lat="44.9448156" lon="7.2580401"><ele>970.2</ele><time>2026-04-26T09:38:30.746Z</time></trkpt><trkpt lat="44.9447216" lon="7.2581136"><ele>968.0</ele><time>2026-04-26T09:38:32.746Z</time></trkpt><trkpt lat="44.9446598" lon="7.2581697"><ele>968.0000000000001</ele><time>2026-04-26T09:38:33.746Z</time></trkpt><trkpt lat="44.9445924" lon="7.2582436"><ele>968.0</ele><time>2026-04-26T09:38:34.746Z</time></trkpt><trkpt lat="44.9445334" lon="7.2582962"><ele>968.0</ele><time>2026-04-26T09:38:35.746Z</time></trkpt><trkpt lat="44.9444772" lon="7.2583482"><ele>968.0</ele><time>2026-04-26T09:38:36.746Z</time></trkpt><trkpt lat="44.9444056" lon="7.2584272"><ele>968.0000000000001</ele><time>2026-04-26T09:38:37.746Z</time></trkpt><trkpt lat="44.9443401" lon="7.2584893"><ele>968.0</ele><time>2026-04-26T09:38:38.745Z</time></trkpt><trkpt lat="44.9442621" lon="7.2585478"><ele>968.5000000000001</ele><time>2026-04-26T09:38:39.746Z</time></trkpt><trkpt lat="44.9441873" lon="7.2586285"><ele>969.0</ele><time>2026-04-26T09:38:40.746Z</time></trkpt><trkpt lat="44.9441229" lon="7.2587076"><ele>969.5</ele><time>2026-04-26T09:38:41.746Z</time></trkpt><trkpt lat="44.9440609" lon="7.2587771"><ele>970.0</ele><time>2026-04-26T09:38:42.746Z</time></trkpt><trkpt lat="44.9439971" lon="7.2588722"><ele>970.5000000000001</ele><time>2026-04-26T09:38:43.746Z</time></trkpt><trkpt lat="44.9439378" lon="7.2589511"><ele>971.0</ele><time>2026-04-26T09:38:44.746Z</time></trkpt><trkpt lat="44.9438897" lon="7.2590253"><ele>971.0000000000001</ele><time>2026-04-26T09:38:45.746Z</time></trkpt><trkpt lat="44.9438464" lon="7.2591049"><ele>971.0</ele><time>2026-04-26T09:38:46.746Z</time></trkpt><trkpt lat="44.9437986" lon="7.2591704"><ele>971.0</ele><time>2026-04-26T09:38:47.746Z</time></trkpt><trkpt lat="44.943736" lon="7.2592286"><ele>971.0</ele><time>2026-04-26T09:38:48.746Z</time></trkpt><trkpt lat="44.9436711" lon="7.2592785"><ele>971.0000000000001</ele><time>2026-04-26T09:38:49.746Z</time></trkpt><trkpt lat="44.9436129" lon="7.2593366"><ele>971.0</ele><time>2026-04-26T09:38:50.746Z</time></trkpt><trkpt lat="44.9435086" lon="7.2594459"><ele>971.0</ele><time>2026-04-26T09:38:52.746Z</time></trkpt><trkpt lat="44.9434503" lon="7.2594951"><ele>970.9999999999999</ele><time>2026-04-26T09:38:53.746Z</time></trkpt><trkpt lat="44.943348" lon="7.2595794"><ele>970.9999999999999</ele><time>2026-04-26T09:38:55.746Z</time></trkpt><trkpt lat="44.9432832" lon="7.2596465"><ele>971.0</ele><time>2026-04-26T09:38:57.746Z</time></trkpt><trkpt lat="44.9432417" lon="7.2597819"><ele>971.0</ele><time>2026-04-26T09:38:59.746Z</time></trkpt><trkpt lat="44.9432269" lon="7.2599243"><ele>968.5000000000001</ele><time>2026-04-26T09:39:01.746Z</time></trkpt><trkpt lat="44.9432337" lon="7.2600643"><ele>966.0</ele><time>2026-04-26T09:39:03.746Z</time></trkpt><trkpt lat="44.9432589" lon="7.2601828"><ele>963.5</ele><time>2026-04-26T09:39:05.746Z</time></trkpt><trkpt lat="44.9432822" lon="7.2602776"><ele>961.0</ele><time>2026-04-26T09:39:07.746Z</time></trkpt><trkpt lat="44.9432811" lon="7.2603743"><ele>958.5000000000001</ele><time>2026-04-26T09:39:10.746Z</time></trkpt><trkpt lat="44.9432319" lon="7.2604546"><ele>956.0</ele><time>2026-04-26T09:39:14.746Z</time></trkpt><trkpt lat="44.9431606" lon="7.260501"><ele>956.0000000000001</ele><time>2026-04-26T09:39:17.746Z</time></trkpt><trkpt lat="44.9430999" lon="7.2604697"><ele>956.0</ele><time>2026-04-26T09:39:19.746Z</time></trkpt><trkpt lat="44.9430291" lon="7.2604275"><ele>956.0</ele><time>2026-04-26T09:39:21.746Z</time></trkpt><trkpt lat="44.942961" lon="7.2604149"><ele>956.0</ele><time>2026-04-26T09:39:23.746Z</time></trkpt><trkpt lat="44.9428817" lon="7.2604489"><ele>956.0000000000001</ele><time>2026-04-26T09:39:25.746Z</time></trkpt><trkpt lat="44.9428046" lon="7.2605405"><ele>956.0</ele><time>2026-04-26T09:39:27.746Z</time></trkpt><trkpt lat="44.9427444" lon="7.2606034"><ele>957.0</ele><time>2026-04-26T09:39:28.746Z</time></trkpt><trkpt lat="44.942636" lon="7.2607245"><ele>957.9999999999999</ele><time>2026-04-26T09:39:30.746Z</time></trkpt><trkpt lat="44.9425525" lon="7.2607999"><ele>958.9999999999999</ele><time>2026-04-26T09:39:32.746Z</time></trkpt><trkpt lat="44.9424995" lon="7.2608739"><ele>960.0</ele><time>2026-04-26T09:39:34.745Z</time></trkpt><trkpt lat="44.9424251" lon="7.2609064"><ele>961.0</ele><time>2026-04-26T09:39:37.746Z</time></trkpt><trkpt lat="44.9423699" lon="7.2608276"><ele>961.0</ele><time>2026-04-26T09:39:41.746Z</time></trkpt><trkpt lat="44.9424029" lon="7.2607044"><ele>960.9999999999999</ele><time>2026-04-26T09:39:44.746Z</time></trkpt><trkpt lat="44.9424393" lon="7.2605677"><ele>960.9999999999999</ele><time>2026-04-26T09:39:46.746Z</time></trkpt><trkpt lat="44.9424533" lon="7.2604785"><ele>961.0</ele><time>2026-04-26T09:39:47.746Z</time></trkpt><trkpt lat="44.9424697" lon="7.2603816"><ele>961.0</ele><time>2026-04-26T09:39:48.746Z</time></trkpt><trkpt lat="44.9424952" lon="7.2602109"><ele>960.0</ele><time>2026-04-26T09:39:50.746Z</time></trkpt><trkpt lat="44.9425348" lon="7.260072"><ele>958.9999999999999</ele><time>2026-04-26T09:39:52.746Z</time></trkpt><trkpt lat="44.9425578" lon="7.2599243"><ele>957.9999999999999</ele><time>2026-04-26T09:39:54.746Z</time></trkpt><trkpt lat="44.9425495" lon="7.2597486"><ele>957.0</ele><time>2026-04-26T09:39:56.746Z</time></trkpt><trkpt lat="44.9425272" lon="7.259641"><ele>956.0</ele><time>2026-04-26T09:39:57.746Z</time></trkpt><trkpt lat="44.9425061" lon="7.259525"><ele>954.1999999999999</ele><time>2026-04-26T09:39:58.746Z</time></trkpt><trkpt lat="44.9425003" lon="7.2594078"><ele>952.3999999999999</ele><time>2026-04-26T09:39:59.746Z</time></trkpt><trkpt lat="44.9424949" lon="7.2592782"><ele>950.6</ele><time>2026-04-26T09:40:00.746Z</time></trkpt><trkpt lat="44.94249" lon="7.2591794"><ele>948.8</ele><time>2026-04-26T09:40:01.746Z</time></trkpt><trkpt lat="44.9425065" lon="7.2589848"><ele>947.0</ele><time>2026-04-26T09:40:03.746Z</time></trkpt><trkpt lat="44.9425041" lon="7.2588888"><ele>947.0000000000001</ele><time>2026-04-26T09:40:04.746Z</time></trkpt><trkpt lat="44.942499" lon="7.2587901"><ele>947.0</ele><time>2026-04-26T09:40:05.746Z</time></trkpt><trkpt lat="44.9424704" lon="7.2586982"><ele>947.0</ele><time>2026-04-26T09:40:06.746Z</time></trkpt><trkpt lat="44.9424642" lon="7.2585376"><ele>947.0</ele><time>2026-04-26T09:40:08.746Z</time></trkpt><trkpt lat="44.9424764" lon="7.2584156"><ele>947.0000000000001</ele><time>2026-04-26T09:40:10.746Z</time></trkpt><trkpt lat="44.9425302" lon="7.2583043"><ele>947.0</ele><time>2026-04-26T09:40:12.746Z</time></trkpt><trkpt lat="44.9425962" lon="7.2581917"><ele>940.0</ele><time>2026-04-26T09:40:14.746Z</time></trkpt><trkpt lat="44.942665" lon="7.2580741"><ele>933.0</ele><time>2026-04-26T09:40:16.746Z</time></trkpt><trkpt lat="44.9426843" lon="7.2579228"><ele>926.0</ele><time>2026-04-26T09:40:18.746Z</time></trkpt><trkpt lat="44.9426679" lon="7.2577886"><ele>919.0</ele><time>2026-04-26T09:40:20.746Z</time></trkpt><trkpt lat="44.9426581" lon="7.2576865"><ele>912.0</ele><time>2026-04-26T09:40:21.746Z</time></trkpt><trkpt lat="44.9426472" lon="7.2575958"><ele>912.0</ele><time>2026-04-26T09:40:22.746Z</time></trkpt><trkpt lat="44.9426392" lon="7.2574733"><ele>911.9999999999999</ele><time>2026-04-26T09:40:23.746Z</time></trkpt><trkpt lat="44.9426417" lon="7.2573642"><ele>912.0</ele><time>2026-04-26T09:40:24.746Z</time></trkpt><trkpt lat="44.9426493" lon="7.2572583"><ele>912.0</ele><time>2026-04-26T09:40:25.746Z</time></trkpt><trkpt lat="44.9426734" lon="7.2571534"><ele>911.9999999999999</ele><time>2026-04-26T09:40:26.746Z</time></trkpt><trkpt lat="44.9426931" lon="7.2570672"><ele>912.0</ele><time>2026-04-26T09:40:27.745Z</time></trkpt><trkpt lat="44.9427097" lon="7.2569762"><ele>912.0</ele><time>2026-04-26T09:40:28.746Z</time></trkpt><trkpt lat="44.9427387" lon="7.256894"><ele>911.4285714285713</ele><time>2026-04-26T09:40:29.745Z</time></trkpt><trkpt lat="44.9427704" lon="7.2568145"><ele>910.8571428571428</ele><time>2026-04-26T09:40:30.746Z</time></trkpt><trkpt lat="44.9427903" lon="7.2567284"><ele>910.2857142857142</ele><time>2026-04-26T09:40:31.746Z</time></trkpt><trkpt lat="44.9427967" lon="7.2566331"><ele>909.7142857142858</ele><time>2026-04-26T09:40:32.746Z</time></trkpt><trkpt lat="44.9427864" lon="7.2565429"><ele>909.1428571428572</ele><time>2026-04-26T09:40:33.746Z</time></trkpt><trkpt lat="44.9427546" lon="7.2564476"><ele>908.5714285714287</ele><time>2026-04-26T09:40:34.745Z</time></trkpt><trkpt lat="44.9427091" lon="7.2563506"><ele>908.0</ele><time>2026-04-26T09:40:35.746Z</time></trkpt><trkpt lat="44.9426493" lon="7.2562503"><ele>906.3333333333334</ele><time>2026-04-26T09:40:36.746Z</time></trkpt><trkpt lat="44.9426174" lon="7.2561672"><ele>904.6666666666667</ele><time>2026-04-26T09:40:37.745Z</time></trkpt><trkpt lat="44.9425781" lon="7.2560807"><ele>903.0</ele><time>2026-04-26T09:40:38.746Z</time></trkpt><trkpt lat="44.9425609" lon="7.2559778"><ele>901.3333333333333</ele><time>2026-04-26T09:40:39.746Z</time></trkpt><trkpt lat="44.9425712" lon="7.2558718"><ele>899.6666666666666</ele><time>2026-04-26T09:40:40.746Z</time></trkpt><trkpt lat="44.9425271" lon="7.255776"><ele>898.0</ele><time>2026-04-26T09:40:41.746Z</time></trkpt><trkpt lat="44.9424748" lon="7.2556123"><ele>905.4</ele><time>2026-04-26T09:40:43.746Z</time></trkpt><trkpt lat="44.9424507" lon="7.2554603"><ele>912.8</ele><time>2026-04-26T09:40:45.746Z</time></trkpt><trkpt lat="44.9424721" lon="7.2553076"><ele>920.2</ele><time>2026-04-26T09:40:47.746Z</time></trkpt><trkpt lat="44.9424973" lon="7.255224"><ele>927.6</ele><time>2026-04-26T09:40:48.746Z</time></trkpt><trkpt lat="44.9425327" lon="7.2550677"><ele>935.0</ele><time>2026-04-26T09:40:50.746Z</time></trkpt><trkpt lat="44.9425172" lon="7.2548288"><ele>934.0000000000001</ele><time>2026-04-26T09:40:52.746Z</time></trkpt><trkpt lat="44.9425069" lon="7.2547134"><ele>933.0</ele><time>2026-04-26T09:40:53.746Z</time></trkpt><trkpt lat="44.942508" lon="7.2546108"><ele>932.0000000000001</ele><time>2026-04-26T09:40:54.746Z</time></trkpt><trkpt lat="44.942511" lon="7.2545143"><ele>931.0000000000001</ele><time>2026-04-26T09:40:55.746Z</time></trkpt><trkpt lat="44.942509" lon="7.2544252"><ele>930.0</ele><time>2026-04-26T09:40:56.746Z</time></trkpt><trkpt lat="44.942499" lon="7.2543215"><ele>929.0000000000001</ele><time>2026-04-26T09:40:57.746Z</time></trkpt><trkpt lat="44.9424811" lon="7.254203"><ele>928.0000000000001</ele><time>2026-04-26T09:40:58.746Z</time></trkpt><trkpt lat="44.9424433" lon="7.2540847"><ele>927.9999999999999</ele><time>2026-04-26T09:40:59.746Z</time></trkpt><trkpt lat="44.9424087" lon="7.2539655"><ele>928.0</ele><time>2026-04-26T09:41:00.746Z</time></trkpt><trkpt lat="44.9423829" lon="7.253876"><ele>928.0</ele><time>2026-04-26T09:41:01.746Z</time></trkpt><trkpt lat="44.9423615" lon="7.2537879"><ele>928.0</ele><time>2026-04-26T09:41:02.745Z</time></trkpt><trkpt lat="44.9423371" lon="7.2537024"><ele>927.9999999999999</ele><time>2026-04-26T09:41:03.746Z</time></trkpt><trkpt lat="44.9423056" lon="7.2535651"><ele>928.0</ele><time>2026-04-26T09:41:05.746Z</time></trkpt><trkpt lat="44.9422499" lon="7.2534394"><ele>925.8</ele><time>2026-04-26T09:41:07.746Z</time></trkpt><trkpt lat="44.9421799" lon="7.2533141"><ele>923.5999999999999</ele><time>2026-04-26T09:41:09.746Z</time></trkpt><trkpt lat="44.9421169" lon="7.253177"><ele>921.4000000000001</ele><time>2026-04-26T09:41:11.746Z</time></trkpt><trkpt lat="44.9420832" lon="7.2530425"><ele>919.2</ele><time>2026-04-26T09:41:13.746Z</time></trkpt><trkpt lat="44.9420713" lon="7.252953"><ele>917.0</ele><time>2026-04-26T09:41:14.746Z</time></trkpt><trkpt lat="44.9420584" lon="7.252862"><ele>913.4000000000001</ele><time>2026-04-26T09:41:15.746Z</time></trkpt><trkpt lat="44.9420314" lon="7.252693"><ele>909.8000000000001</ele><time>2026-04-26T09:41:17.746Z</time></trkpt><trkpt lat="44.9420135" lon="7.2526033"><ele>906.2</ele><time>2026-04-26T09:41:18.746Z</time></trkpt><trkpt lat="44.9419633" lon="7.2524572"><ele>902.6</ele><time>2026-04-26T09:41:20.746Z</time></trkpt><trkpt lat="44.9419267" lon="7.2523808"><ele>899.0</ele><time>2026-04-26T09:41:21.746Z</time></trkpt><trkpt lat="44.9418802" lon="7.2522524"><ele>896.4000000000001</ele><time>2026-04-26T09:41:23.746Z</time></trkpt><trkpt lat="44.9418217" lon="7.2521526"><ele>893.8000000000001</ele><time>2026-04-26T09:41:25.746Z</time></trkpt><trkpt lat="44.9417797" lon="7.2519968"><ele>891.1999999999999</ele><time>2026-04-26T09:41:27.746Z</time></trkpt><trkpt lat="44.9417596" lon="7.2517886"><ele>888.5999999999999</ele><time>2026-04-26T09:41:29.746Z</time></trkpt><trkpt lat="44.9417446" lon="7.2516649"><ele>886.0</ele><time>2026-04-26T09:41:30.746Z</time></trkpt><trkpt lat="44.9417128" lon="7.2515515"><ele>888.8333333333333</ele><time>2026-04-26T09:41:31.746Z</time></trkpt><trkpt lat="44.941696" lon="7.2514561"><ele>891.6666666666666</ele><time>2026-04-26T09:41:32.746Z</time></trkpt><trkpt lat="44.9416752" lon="7.2513607"><ele>894.5</ele><time>2026-04-26T09:41:33.746Z</time></trkpt><trkpt lat="44.9416453" lon="7.2512678"><ele>897.3333333333333</ele><time>2026-04-26T09:41:34.746Z</time></trkpt><trkpt lat="44.9416061" lon="7.2511203"><ele>900.1666666666666</ele><time>2026-04-26T09:41:36.746Z</time></trkpt><trkpt lat="44.9415395" lon="7.2509977"><ele>903.0</ele><time>2026-04-26T09:41:38.746Z</time></trkpt><trkpt lat="44.9414858" lon="7.2509049"><ele>903.0</ele><time>2026-04-26T09:41:40.746Z</time></trkpt><trkpt lat="44.9414011" lon="7.2508465"><ele>903.0</ele><time>2026-04-26T09:41:42.745Z</time></trkpt><trkpt lat="44.941301" lon="7.2507785"><ele>903.0</ele><time>2026-04-26T09:41:44.746Z</time></trkpt><trkpt lat="44.9412335" lon="7.2507418"><ele>903.0</ele><time>2026-04-26T09:41:45.746Z</time></trkpt><trkpt lat="44.9411459" lon="7.2507079"><ele>903.0</ele><time>2026-04-26T09:41:46.746Z</time></trkpt><trkpt lat="44.941063" lon="7.2506716"><ele>901.8333333333334</ele><time>2026-04-26T09:41:47.746Z</time></trkpt><trkpt lat="44.9409776" lon="7.250605"><ele>900.6666666666667</ele><time>2026-04-26T09:41:48.746Z</time></trkpt><trkpt lat="44.9408941" lon="7.2505637"><ele>899.5</ele><time>2026-04-26T09:41:49.746Z</time></trkpt><trkpt lat="44.940828" lon="7.2505172"><ele>898.3333333333334</ele><time>2026-04-26T09:41:50.746Z</time></trkpt><trkpt lat="44.9407489" lon="7.2504807"><ele>897.1666666666667</ele><time>2026-04-26T09:41:51.746Z</time></trkpt><trkpt lat="44.9406777" lon="7.2504356"><ele>896.0</ele><time>2026-04-26T09:41:52.746Z</time></trkpt><trkpt lat="44.9406325" lon="7.2503691"><ele>896.0000000000001</ele><time>2026-04-26T09:41:53.746Z</time></trkpt><trkpt lat="44.940554" lon="7.2502601"><ele>896.0</ele><time>2026-04-26T09:41:55.746Z</time></trkpt><trkpt lat="44.9404786" lon="7.2501746"><ele>896.0</ele><time>2026-04-26T09:41:57.746Z</time></trkpt><trkpt lat="44.9404425" lon="7.250077"><ele>896.0</ele><time>2026-04-26T09:42:00.746Z</time></trkpt><trkpt lat="44.9404865" lon="7.2500072"><ele>896.0000000000001</ele><time>2026-04-26T09:42:03.746Z</time></trkpt><trkpt lat="44.9405527" lon="7.2500233"><ele>896.0</ele><time>2026-04-26T09:42:05.746Z</time></trkpt><trkpt lat="44.9406215" lon="7.2500775"><ele>896.0000000000001</ele><time>2026-04-26T09:42:07.745Z</time></trkpt><trkpt lat="44.940715" lon="7.2501654"><ele>896.0</ele><time>2026-04-26T09:42:09.746Z</time></trkpt><trkpt lat="44.9407804" lon="7.2502024"><ele>896.0</ele><time>2026-04-26T09:42:10.746Z</time></trkpt><trkpt lat="44.9408455" lon="7.2502415"><ele>896.0</ele><time>2026-04-26T09:42:11.746Z</time></trkpt><trkpt lat="44.9409256" lon="7.2502847"><ele>896.0000000000001</ele><time>2026-04-26T09:42:12.746Z</time></trkpt><trkpt lat="44.941001" lon="7.2503162"><ele>896.0</ele><time>2026-04-26T09:42:13.746Z</time></trkpt><trkpt lat="44.9410671" lon="7.2503406"><ele>892.1999999999999</ele><time>2026-04-26T09:42:14.746Z</time></trkpt><trkpt lat="44.9411378" lon="7.2503549"><ele>888.3999999999999</ele><time>2026-04-26T09:42:15.746Z</time></trkpt><trkpt lat="44.9412095" lon="7.250364"><ele>884.6</ele><time>2026-04-26T09:42:16.746Z</time></trkpt><trkpt lat="44.9412755" lon="7.2503583"><ele>880.8</ele><time>2026-04-26T09:42:17.746Z</time></trkpt><trkpt lat="44.9414004" lon="7.2503621"><ele>877.0</ele><time>2026-04-26T09:42:19.746Z</time></trkpt><trkpt lat="44.9415158" lon="7.2503676"><ele>876.9999999999999</ele><time>2026-04-26T09:42:21.746Z</time></trkpt><trkpt lat="44.9416249" lon="7.2503547"><ele>877.0</ele><time>2026-04-26T09:42:23.745Z</time></trkpt><trkpt lat="44.9416915" lon="7.2503601"><ele>877.0</ele><time>2026-04-26T09:42:24.746Z</time></trkpt><trkpt lat="44.9417544" lon="7.2503455"><ele>877.0</ele><time>2026-04-26T09:42:25.746Z</time></trkpt><trkpt lat="44.9418195" lon="7.2503642"><ele>876.9999999999999</ele><time>2026-04-26T09:42:26.746Z</time></trkpt><trkpt lat="44.9418829" lon="7.2503741"><ele>877.0</ele><time>2026-04-26T09:42:27.746Z</time></trkpt><trkpt lat="44.9419819" lon="7.2503965"><ele>876.3333333333333</ele><time>2026-04-26T09:42:29.746Z</time></trkpt><trkpt lat="44.942072" lon="7.2504463"><ele>875.6666666666666</ele><time>2026-04-26T09:42:31.745Z</time></trkpt><trkpt lat="44.9421458" lon="7.2505261"><ele>875.0</ele><time>2026-04-26T09:42:33.746Z</time></trkpt><trkpt lat="44.9422114" lon="7.2506273"><ele>874.3333333333333</ele><time>2026-04-26T09:42:35.746Z</time></trkpt><trkpt lat="44.9422535" lon="7.250697"><ele>873.6666666666666</ele><time>2026-04-26T09:42:36.746Z</time></trkpt><trkpt lat="44.942296" lon="7.2507631"><ele>873.0</ele><time>2026-04-26T09:42:37.746Z</time></trkpt><trkpt lat="44.9423473" lon="7.2508264"><ele>873.0</ele><time>2026-04-26T09:42:38.746Z</time></trkpt><trkpt lat="44.942391" lon="7.250894"><ele>873.0</ele><time>2026-04-26T09:42:39.746Z</time></trkpt><trkpt lat="44.9424572" lon="7.2510145"><ele>873.0</ele><time>2026-04-26T09:42:41.746Z</time></trkpt><trkpt lat="44.9425227" lon="7.2511238"><ele>873.0</ele><time>2026-04-26T09:42:43.746Z</time></trkpt><trkpt lat="44.9425332" lon="7.2512194"><ele>873.0</ele><time>2026-04-26T09:42:44.746Z</time></trkpt><trkpt lat="44.9425677" lon="7.2513047"><ele>873.0</ele><time>2026-04-26T09:42:45.746Z</time></trkpt><trkpt lat="44.9425759" lon="7.2514066"><ele>868.1666666666666</ele><time>2026-04-26T09:42:46.746Z</time></trkpt><trkpt lat="44.9425952" lon="7.2514996"><ele>863.3333333333333</ele><time>2026-04-26T09:42:47.746Z</time></trkpt><trkpt lat="44.9426282" lon="7.2516633"><ele>858.5</ele><time>2026-04-26T09:42:49.746Z</time></trkpt><trkpt lat="44.942669" lon="7.2518"><ele>853.6666666666666</ele><time>2026-04-26T09:42:51.746Z</time></trkpt><trkpt lat="44.942675" lon="7.2519153"><ele>848.8333333333333</ele><time>2026-04-26T09:42:53.746Z</time></trkpt><trkpt lat="44.9427076" lon="7.2519996"><ele>844.0</ele><time>2026-04-26T09:42:56.746Z</time></trkpt><trkpt lat="44.9427487" lon="7.2519262"><ele>843.9999999999999</ele><time>2026-04-26T09:43:01.746Z</time></trkpt><trkpt lat="44.9427172" lon="7.2518289"><ele>844.0</ele><time>2026-04-26T09:43:03.746Z</time></trkpt><trkpt lat="44.9426998" lon="7.2517015"><ele>844.0</ele><time>2026-04-26T09:43:05.745Z</time></trkpt><trkpt lat="44.9426962" lon="7.2516115"><ele>844.0</ele><time>2026-04-26T09:43:06.746Z</time></trkpt><trkpt lat="44.9426916" lon="7.2514416"><ele>843.9999999999999</ele><time>2026-04-26T09:43:08.745Z</time></trkpt><trkpt lat="44.9426986" lon="7.2513434"><ele>844.0</ele><time>2026-04-26T09:43:09.746Z</time></trkpt><trkpt lat="44.9427119" lon="7.2511826"><ele>842.1666666666666</ele><time>2026-04-26T09:43:11.746Z</time></trkpt><trkpt lat="44.942718" lon="7.2510877"><ele>840.3333333333333</ele><time>2026-04-26T09:43:12.746Z</time></trkpt><trkpt lat="44.9427192" lon="7.2509883"><ele>838.5</ele><time>2026-04-26T09:43:13.746Z</time></trkpt><trkpt lat="44.9426748" lon="7.2508295"><ele>836.6666666666667</ele><time>2026-04-26T09:43:15.746Z</time></trkpt><trkpt lat="44.9426614" lon="7.2507288"><ele>834.8333333333334</ele><time>2026-04-26T09:43:16.746Z</time></trkpt><trkpt lat="44.9426391" lon="7.2506306"><ele>833.0</ele><time>2026-04-26T09:43:17.745Z</time></trkpt><trkpt lat="44.9425957" lon="7.2505163"><ele>830.4</ele><time>2026-04-26T09:43:18.746Z</time></trkpt><trkpt lat="44.9425529" lon="7.2503614"><ele>827.8</ele><time>2026-04-26T09:43:19.746Z</time></trkpt><trkpt lat="44.9425259" lon="7.2502193"><ele>825.2</ele><time>2026-04-26T09:43:20.746Z</time></trkpt><trkpt lat="44.9424844" lon="7.2501117"><ele>822.6</ele><time>2026-04-26T09:43:21.746Z</time></trkpt><trkpt lat="44.9424586" lon="7.2500176"><ele>820.0</ele><time>2026-04-26T09:43:22.746Z</time></trkpt><trkpt lat="44.9424129" lon="7.2498534"><ele>820.8</ele><time>2026-04-26T09:43:24.746Z</time></trkpt><trkpt lat="44.9423063" lon="7.2497542"><ele>821.6</ele><time>2026-04-26T09:43:26.746Z</time></trkpt><trkpt lat="44.9422412" lon="7.2497142"><ele>822.4000000000001</ele><time>2026-04-26T09:43:27.746Z</time></trkpt><trkpt lat="44.9421559" lon="7.2496792"><ele>823.2</ele><time>2026-04-26T09:43:28.746Z</time></trkpt><trkpt lat="44.9420668" lon="7.2496295"><ele>824.0</ele><time>2026-04-26T09:43:29.745Z</time></trkpt><trkpt lat="44.9419795" lon="7.2495841"><ele>824.0000000000001</ele><time>2026-04-26T09:43:30.746Z</time></trkpt><trkpt lat="44.9419038" lon="7.2495492"><ele>824.0</ele><time>2026-04-26T09:43:31.746Z</time></trkpt><trkpt lat="44.9418251" lon="7.2495295"><ele>824.0</ele><time>2026-04-26T09:43:32.746Z</time></trkpt><trkpt lat="44.9417553" lon="7.2494892"><ele>824.0</ele><time>2026-04-26T09:43:33.746Z</time></trkpt><trkpt lat="44.9416925" lon="7.2494577"><ele>824.0000000000001</ele><time>2026-04-26T09:43:34.746Z</time></trkpt><trkpt lat="44.9416361" lon="7.2494151"><ele>824.0</ele><time>2026-04-26T09:43:35.746Z</time></trkpt><trkpt lat="44.9415457" lon="7.2493119"><ele>824.4000000000001</ele><time>2026-04-26T09:43:37.745Z</time></trkpt><trkpt lat="44.9414623" lon="7.2492031"><ele>824.8</ele><time>2026-04-26T09:43:39.746Z</time></trkpt><trkpt lat="44.9413936" lon="7.2491068"><ele>825.2</ele><time>2026-04-26T09:43:41.746Z</time></trkpt><trkpt lat="44.9413511" lon="7.2489891"><ele>825.5999999999999</ele><time>2026-04-26T09:43:43.746Z</time></trkpt><trkpt lat="44.9413054" lon="7.2488316"><ele>826.0</ele><time>2026-04-26T09:43:45.746Z</time></trkpt><trkpt lat="44.9412715" lon="7.2486627"><ele>826.0</ele><time>2026-04-26T09:43:47.746Z</time></trkpt><trkpt lat="44.9412455" lon="7.2485666"><ele>826.0</ele><time>2026-04-26T09:43:48.745Z</time></trkpt><trkpt lat="44.9412327" lon="7.248461"><ele>826.0</ele><time>2026-04-26T09:43:49.746Z</time></trkpt><trkpt lat="44.9412243" lon="7.2483652"><ele>826.0</ele><time>2026-04-26T09:43:50.746Z</time></trkpt><trkpt lat="44.9411856" lon="7.2481996"><ele>826.0</ele><time>2026-04-26T09:43:52.746Z</time></trkpt><trkpt lat="44.9411276" lon="7.2480623"><ele>824.1666666666666</ele><time>2026-04-26T09:43:54.746Z</time></trkpt><trkpt lat="44.9410824" lon="7.2479905"><ele>822.3333333333333</ele><time>2026-04-26T09:43:55.746Z</time></trkpt><trkpt lat="44.9410395" lon="7.2478997"><ele>820.5</ele><time>2026-04-26T09:43:56.746Z</time></trkpt><trkpt lat="44.940995" lon="7.2478155"><ele>818.6666666666667</ele><time>2026-04-26T09:43:57.745Z</time></trkpt><trkpt lat="44.9409917" lon="7.2477186"><ele>816.8333333333334</ele><time>2026-04-26T09:43:58.746Z</time></trkpt><trkpt lat="44.9410048" lon="7.2475379"><ele>815.0</ele><time>2026-04-26T09:44:00.746Z</time></trkpt><trkpt lat="44.9410469" lon="7.2474494"><ele>813.4</ele><time>2026-04-26T09:44:01.746Z</time></trkpt><trkpt lat="44.9410989" lon="7.2472831"><ele>811.8</ele><time>2026-04-26T09:44:03.746Z</time></trkpt><trkpt lat="44.9410922" lon="7.2471355"><ele>810.2</ele><time>2026-04-26T09:44:05.746Z</time></trkpt><trkpt lat="44.9410605" lon="7.2469592"><ele>808.6</ele><time>2026-04-26T09:44:07.746Z</time></trkpt><trkpt lat="44.9410273" lon="7.2468715"><ele>807.0</ele><time>2026-04-26T09:44:08.746Z</time></trkpt><trkpt lat="44.9409871" lon="7.2467755"><ele>807.0</ele><time>2026-04-26T09:44:09.746Z</time></trkpt><trkpt lat="44.9409547" lon="7.2466986"><ele>807.0</ele><time>2026-04-26T09:44:10.746Z</time></trkpt><trkpt lat="44.9409044" lon="7.2466164"><ele>807.0</ele><time>2026-04-26T09:44:11.746Z</time></trkpt><trkpt lat="44.9408641" lon="7.2465421"><ele>807.0</ele><time>2026-04-26T09:44:12.745Z</time></trkpt><trkpt lat="44.9408163" lon="7.2464622"><ele>807.0</ele><time>2026-04-26T09:44:13.746Z</time></trkpt><trkpt lat="44.9407254" lon="7.2463529"><ele>807.0</ele><time>2026-04-26T09:44:15.746Z</time></trkpt><trkpt lat="44.9406383" lon="7.2462834"><ele>807.25</ele><time>2026-04-26T09:44:17.746Z</time></trkpt><trkpt lat="44.9405114" lon="7.246267"><ele>807.5</ele><time>2026-04-26T09:44:19.746Z</time></trkpt><trkpt lat="44.9404054" lon="7.2462788"><ele>807.75</ele><time>2026-04-26T09:44:21.746Z</time></trkpt><trkpt lat="44.9403004" lon="7.24631"><ele>808.0</ele><time>2026-04-26T09:44:23.745Z</time></trkpt><trkpt lat="44.9401849" lon="7.2463558"><ele>807.9999999999999</ele><time>2026-04-26T09:44:25.746Z</time></trkpt><trkpt lat="44.9401259" lon="7.2463929"><ele>808.0</ele><time>2026-04-26T09:44:26.746Z</time></trkpt><trkpt lat="44.9400512" lon="7.2464583"><ele>808.0</ele><time>2026-04-26T09:44:27.746Z</time></trkpt><trkpt lat="44.9399875" lon="7.246509"><ele>808.0</ele><time>2026-04-26T09:44:28.746Z</time></trkpt><trkpt lat="44.9399039" lon="7.2465804"><ele>807.9999999999999</ele><time>2026-04-26T09:44:29.746Z</time></trkpt><trkpt lat="44.9398389" lon="7.2466331"><ele>808.0</ele><time>2026-04-26T09:44:30.746Z</time></trkpt><trkpt lat="44.9397811" lon="7.2467144"><ele>810.4999999999999</ele><time>2026-04-26T09:44:31.746Z</time></trkpt><trkpt lat="44.9397314" lon="7.246788"><ele>813.0</ele><time>2026-04-26T09:44:32.746Z</time></trkpt><trkpt lat="44.9396701" lon="7.2468543"><ele>815.5</ele><time>2026-04-26T09:44:33.746Z</time></trkpt><trkpt lat="44.9396198" lon="7.2469248"><ele>818.0</ele><time>2026-04-26T09:44:34.746Z</time></trkpt><trkpt lat="44.9395691" lon="7.2469788"><ele>820.4999999999999</ele><time>2026-04-26T09:44:35.746Z</time></trkpt><trkpt lat="44.9394795" lon="7.2470828"><ele>823.0</ele><time>2026-04-26T09:44:37.746Z</time></trkpt><trkpt lat="44.9394193" lon="7.2471208"><ele>823.0</ele><time>2026-04-26T09:44:38.745Z</time></trkpt><trkpt lat="44.9393069" lon="7.2472002"><ele>823.0</ele><time>2026-04-26T09:44:40.746Z</time></trkpt><trkpt lat="44.9392399" lon="7.2472448"><ele>823.0</ele><time>2026-04-26T09:44:41.746Z</time></trkpt><trkpt lat="44.9391863" lon="7.2473035"><ele>823.0</ele><time>2026-04-26T09:44:42.746Z</time></trkpt><trkpt lat="44.9390841" lon="7.2474027"><ele>823.0</ele><time>2026-04-26T09:44:44.746Z</time></trkpt><trkpt lat="44.9389895" lon="7.2475242"><ele>824.3333333333333</ele><time>2026-04-26T09:44:46.746Z</time></trkpt><trkpt lat="44.9389431" lon="7.2475964"><ele>825.6666666666666</ele><time>2026-04-26T09:44:47.746Z</time></trkpt><trkpt lat="44.9388969" lon="7.2476715"><ele>827.0</ele><time>2026-04-26T09:44:48.746Z</time></trkpt><trkpt lat="44.9388543" lon="7.2477439"><ele>828.3333333333333</ele><time>2026-04-26T09:44:49.746Z</time></trkpt><trkpt lat="44.938814" lon="7.2479026"><ele>829.6666666666666</ele><time>2026-04-26T09:44:51.746Z</time></trkpt><trkpt lat="44.9387978" lon="7.2479892"><ele>831.0</ele><time>2026-04-26T09:44:52.746Z</time></trkpt><trkpt lat="44.9387625" lon="7.2481384"><ele>830.9999999999999</ele><time>2026-04-26T09:44:54.746Z</time></trkpt><trkpt lat="44.9387104" lon="7.2482025"><ele>831.0</ele><time>2026-04-26T09:44:55.746Z</time></trkpt><trkpt lat="44.9386607" lon="7.2482633"><ele>831.0</ele><time>2026-04-26T09:44:56.746Z</time></trkpt><trkpt lat="44.9385792" lon="7.2482974"><ele>831.0</ele><time>2026-04-26T09:44:57.746Z</time></trkpt><trkpt lat="44.9385121" lon="7.2483378"><ele>831.0</ele><time>2026-04-26T09:44:58.746Z</time></trkpt><trkpt lat="44.9384551" lon="7.2484183"><ele>830.9999999999999</ele><time>2026-04-26T09:44:59.746Z</time></trkpt><trkpt lat="44.9383988" lon="7.2484618"><ele>831.0</ele><time>2026-04-26T09:45:00.746Z</time></trkpt><trkpt lat="44.938337" lon="7.248508"><ele>826.5999999999999</ele><time>2026-04-26T09:45:01.745Z</time></trkpt><trkpt lat="44.9382588" lon="7.2485414"><ele>822.2</ele><time>2026-04-26T09:45:02.745Z</time></trkpt><trkpt lat="44.938132" lon="7.2486274"><ele>817.8</ele><time>2026-04-26T09:45:04.746Z</time></trkpt><trkpt lat="44.9380761" lon="7.2486868"><ele>813.4000000000001</ele><time>2026-04-26T09:45:05.746Z</time></trkpt><trkpt lat="44.9379926" lon="7.248803"><ele>809.0</ele><time>2026-04-26T09:45:07.746Z</time></trkpt><trkpt lat="44.9379735" lon="7.2489674"><ele>809.0000000000001</ele><time>2026-04-26T09:45:09.746Z</time></trkpt><trkpt lat="44.937991" lon="7.249122"><ele>809.0</ele><time>2026-04-26T09:45:11.746Z</time></trkpt><trkpt lat="44.9379735" lon="7.2492235"><ele>809.0</ele><time>2026-04-26T09:45:13.745Z</time></trkpt><trkpt lat="44.9379005" lon="7.2492549"><ele>809.0</ele><time>2026-04-26T09:45:16.746Z</time></trkpt><trkpt lat="44.9378641" lon="7.2491152"><ele>809.0000000000001</ele><time>2026-04-26T09:45:19.746Z</time></trkpt><trkpt lat="44.9378542" lon="7.2490191"><ele>809.0</ele><time>2026-04-26T09:45:20.746Z</time></trkpt><trkpt lat="44.9378307" lon="7.2489322"><ele>805.8333333333334</ele><time>2026-04-26T09:45:21.746Z</time></trkpt><trkpt lat="44.9378123" lon="7.2488374"><ele>802.6666666666667</ele><time>2026-04-26T09:45:22.746Z</time></trkpt><trkpt lat="44.9378098" lon="7.2486759"><ele>799.5</ele><time>2026-04-26T09:45:24.746Z</time></trkpt><trkpt lat="44.9378165" lon="7.2485832"><ele>796.3333333333333</ele><time>2026-04-26T09:45:25.746Z</time></trkpt><trkpt lat="44.937844" lon="7.2484992"><ele>793.1666666666666</ele><time>2026-04-26T09:45:26.746Z</time></trkpt><trkpt lat="44.9378793" lon="7.2484128"><ele>790.0</ele><time>2026-04-26T09:45:27.746Z</time></trkpt><trkpt lat="44.9379536" lon="7.2482809"><ele>789.9999999999999</ele><time>2026-04-26T09:45:29.746Z</time></trkpt><trkpt lat="44.9380233" lon="7.2482091"><ele>790.0</ele><time>2026-04-26T09:45:31.746Z</time></trkpt><trkpt lat="44.9380385" lon="7.2481091"><ele>790.0</ele><time>2026-04-26T09:45:33.746Z</time></trkpt><trkpt lat="44.9379626" lon="7.2480879"><ele>790.0</ele><time>2026-04-26T09:45:35.746Z</time></trkpt><trkpt lat="44.9378934" lon="7.2481241"><ele>789.9999999999999</ele><time>2026-04-26T09:45:36.746Z</time></trkpt><trkpt lat="44.9378107" lon="7.2481646"><ele>790.0</ele><time>2026-04-26T09:45:37.745Z</time></trkpt><trkpt lat="44.9377352" lon="7.248205"><ele>790.0</ele><time>2026-04-26T09:45:38.746Z</time></trkpt><trkpt lat="44.9376575" lon="7.2482398"><ele>790.0</ele><time>2026-04-26T09:45:39.746Z</time></trkpt><trkpt lat="44.9375529" lon="7.2483116"><ele>790.0</ele><time>2026-04-26T09:45:41.746Z</time></trkpt><trkpt lat="44.9374775" lon="7.2483467"><ele>790.0</ele><time>2026-04-26T09:45:43.746Z</time></trkpt><trkpt lat="44.9374718" lon="7.248247"><ele>790.0</ele><time>2026-04-26T09:45:46.746Z</time></trkpt><trkpt lat="44.9375772" lon="7.2481281"><ele>786.9999999999999</ele><time>2026-04-26T09:45:48.746Z</time></trkpt><trkpt lat="44.9376296" lon="7.2480442"><ele>784.0</ele><time>2026-04-26T09:45:49.746Z</time></trkpt><trkpt lat="44.9376927" lon="7.2479517"><ele>781.0</ele><time>2026-04-26T09:45:50.746Z</time></trkpt><trkpt lat="44.9377527" lon="7.2478733"><ele>778.0</ele><time>2026-04-26T09:45:51.746Z</time></trkpt><trkpt lat="44.9378204" lon="7.2478045"><ele>774.9999999999999</ele><time>2026-04-26T09:45:52.746Z</time></trkpt><trkpt lat="44.9379041" lon="7.2477514"><ele>772.0</ele><time>2026-04-26T09:45:53.746Z</time></trkpt><trkpt lat="44.9379783" lon="7.2476845"><ele>772.0</ele><time>2026-04-26T09:45:54.746Z</time></trkpt><trkpt lat="44.938038" lon="7.2475989"><ele>772.0</ele><time>2026-04-26T09:45:55.746Z</time></trkpt><trkpt lat="44.9380782" lon="7.2475029"><ele>772.0</ele><time>2026-04-26T09:45:56.746Z</time></trkpt><trkpt lat="44.9381027" lon="7.2473862"><ele>772.0</ele><time>2026-04-26T09:45:57.746Z</time></trkpt><trkpt lat="44.9381238" lon="7.2472407"><ele>772.0</ele><time>2026-04-26T09:45:58.746Z</time></trkpt><trkpt lat="44.9381303" lon="7.2471024"><ele>768.6</ele><time>2026-04-26T09:45:59.746Z</time></trkpt><trkpt lat="44.9381179" lon="7.2469637"><ele>765.2</ele><time>2026-04-26T09:46:00.746Z</time></trkpt><trkpt lat="44.9380953" lon="7.2468274"><ele>761.8</ele><time>2026-04-26T09:46:01.746Z</time></trkpt><trkpt lat="44.9380856" lon="7.2466927"><ele>758.4</ele><time>2026-04-26T09:46:02.746Z</time></trkpt><trkpt lat="44.9380927" lon="7.2465556"><ele>755.0</ele><time>2026-04-26T09:46:03.746Z</time></trkpt><trkpt lat="44.9381067" lon="7.2464135"><ele>751.8</ele><time>2026-04-26T09:46:04.746Z</time></trkpt><trkpt lat="44.9381266" lon="7.2462707"><ele>748.6</ele><time>2026-04-26T09:46:05.746Z</time></trkpt><trkpt lat="44.9381584" lon="7.246124"><ele>745.4000000000001</ele><time>2026-04-26T09:46:06.746Z</time></trkpt><trkpt lat="44.9382012" lon="7.2459929"><ele>742.2</ele><time>2026-04-26T09:46:07.746Z</time></trkpt><trkpt lat="44.9382588" lon="7.2458571"><ele>739.0</ele><time>2026-04-26T09:46:08.746Z</time></trkpt><trkpt lat="44.9383128" lon="7.2457236"><ele>735.8333333333334</ele><time>2026-04-26T09:46:09.746Z</time></trkpt><trkpt lat="44.9383626" lon="7.2456051"><ele>732.6666666666667</ele><time>2026-04-26T09:46:10.746Z</time></trkpt><trkpt lat="44.9384082" lon="7.2454904"><ele>729.5</ele><time>2026-04-26T09:46:11.746Z</time></trkpt><trkpt lat="44.9384512" lon="7.2453935"><ele>726.3333333333334</ele><time>2026-04-26T09:46:12.746Z</time></trkpt><trkpt lat="44.9385061" lon="7.2453216"><ele>723.1666666666666</ele><time>2026-04-26T09:46:13.746Z</time></trkpt><trkpt lat="44.9385757" lon="7.2452532"><ele>720.0</ele><time>2026-04-26T09:46:14.746Z</time></trkpt><trkpt lat="44.9386455" lon="7.245173"><ele>725.0</ele><time>2026-04-26T09:46:15.746Z</time></trkpt><trkpt lat="44.938702" lon="7.2450886"><ele>730.0</ele><time>2026-04-26T09:46:16.746Z</time></trkpt><trkpt lat="44.9387481" lon="7.244995"><ele>735.0</ele><time>2026-04-26T09:46:17.746Z</time></trkpt><trkpt lat="44.9387907" lon="7.2448344"><ele>740.0</ele><time>2026-04-26T09:46:19.746Z</time></trkpt><trkpt lat="44.9387856" lon="7.2447238"><ele>745.0</ele><time>2026-04-26T09:46:21.746Z</time></trkpt><trkpt lat="44.9386924" lon="7.2447155"><ele>748.25</ele><time>2026-04-26T09:46:23.745Z</time></trkpt><trkpt lat="44.9386411" lon="7.2449228"><ele>751.5</ele><time>2026-04-26T09:46:25.746Z</time></trkpt><trkpt lat="44.9385959" lon="7.2449917"><ele>754.75</ele><time>2026-04-26T09:46:26.746Z</time></trkpt><trkpt lat="44.938481" lon="7.2450469"><ele>758.0</ele><time>2026-04-26T09:46:28.746Z</time></trkpt><trkpt lat="44.9383748" lon="7.2450675"><ele>758.0</ele><time>2026-04-26T09:46:30.746Z</time></trkpt><trkpt lat="44.9383031" lon="7.2450397"><ele>758.0</ele><time>2026-04-26T09:46:32.746Z</time></trkpt><trkpt lat="44.938332" lon="7.244956"><ele>758.0</ele><time>2026-04-26T09:46:34.746Z</time></trkpt><trkpt lat="44.938411" lon="7.2448986"><ele>758.0</ele><time>2026-04-26T09:46:36.745Z</time></trkpt><trkpt lat="44.9384611" lon="7.2447262"><ele>758.0</ele><time>2026-04-26T09:46:38.746Z</time></trkpt><trkpt lat="44.9384742" lon="7.2446242"><ele>758.0</ele><time>2026-04-26T09:46:39.746Z</time></trkpt><trkpt lat="44.9384881" lon="7.2445078"><ele>755.8333333333333</ele><time>2026-04-26T09:46:40.746Z</time></trkpt><trkpt lat="44.938494" lon="7.244388"><ele>753.6666666666666</ele><time>2026-04-26T09:46:41.746Z</time></trkpt><trkpt lat="44.9385108" lon="7.2442613"><ele>751.5</ele><time>2026-04-26T09:46:42.746Z</time></trkpt><trkpt lat="44.9385264" lon="7.2441379"><ele>749.3333333333334</ele><time>2026-04-26T09:46:43.745Z</time></trkpt><trkpt lat="44.9385369" lon="7.24402"><ele>747.1666666666667</ele><time>2026-04-26T09:46:44.746Z</time></trkpt><trkpt lat="44.9385397" lon="7.2439046"><ele>745.0</ele><time>2026-04-26T09:46:45.746Z</time></trkpt><trkpt lat="44.9385486" lon="7.2437904"><ele>742.5</ele><time>2026-04-26T09:46:46.746Z</time></trkpt><trkpt lat="44.9385707" lon="7.243693"><ele>740.0</ele><time>2026-04-26T09:46:47.746Z</time></trkpt><trkpt lat="44.938588" lon="7.2435932"><ele>737.5</ele><time>2026-04-26T09:46:48.746Z</time></trkpt><trkpt lat="44.9386049" lon="7.2434456"><ele>735.0</ele><time>2026-04-26T09:46:50.746Z</time></trkpt><trkpt lat="44.9385874" lon="7.243335"><ele>732.5</ele><time>2026-04-26T09:46:52.746Z</time></trkpt><trkpt lat="44.9385831" lon="7.2431908"><ele>730.0</ele><time>2026-04-26T09:46:54.746Z</time></trkpt><trkpt lat="44.938614" lon="7.2430903"><ele>726.0</ele><time>2026-04-26T09:46:55.746Z</time></trkpt><trkpt lat="44.9386492" lon="7.2429966"><ele>722.0</ele><time>2026-04-26T09:46:56.746Z</time></trkpt><trkpt lat="44.9386854" lon="7.2428914"><ele>718.0</ele><time>2026-04-26T09:46:57.746Z</time></trkpt><trkpt lat="44.938726" lon="7.2427885"><ele>714.0</ele><time>2026-04-26T09:46:58.746Z</time></trkpt><trkpt lat="44.9387617" lon="7.2426958"><ele>710.0</ele><time>2026-04-26T09:46:59.746Z</time></trkpt><trkpt lat="44.9388112" lon="7.2425904"><ele>706.0</ele><time>2026-04-26T09:47:00.746Z</time></trkpt><trkpt lat="44.9388659" lon="7.2424618"><ele>706.0</ele><time>2026-04-26T09:47:01.746Z</time></trkpt><trkpt lat="44.9389303" lon="7.2423354"><ele>706.0</ele><time>2026-04-26T09:47:02.746Z</time></trkpt><trkpt lat="44.93899" lon="7.2422094"><ele>706.0</ele><time>2026-04-26T09:47:03.746Z</time></trkpt><trkpt lat="44.9390475" lon="7.2420776"><ele>706.0</ele><time>2026-04-26T09:47:04.746Z</time></trkpt><trkpt lat="44.939106" lon="7.2419522"><ele>706.0</ele><time>2026-04-26T09:47:05.746Z</time></trkpt><trkpt lat="44.9391597" lon="7.2418143"><ele>702.1999999999999</ele><time>2026-04-26T09:47:06.746Z</time></trkpt><trkpt lat="44.9391935" lon="7.241666"><ele>698.4</ele><time>2026-04-26T09:47:07.746Z</time></trkpt><trkpt lat="44.9392153" lon="7.2415247"><ele>694.6</ele><time>2026-04-26T09:47:08.746Z</time></trkpt><trkpt lat="44.9392378" lon="7.2413824"><ele>690.8</ele><time>2026-04-26T09:47:09.746Z</time></trkpt><trkpt lat="44.9392608" lon="7.241245"><ele>687.0</ele><time>2026-04-26T09:47:10.745Z</time></trkpt><trkpt lat="44.93929" lon="7.2411145"><ele>686.2</ele><time>2026-04-26T09:47:11.746Z</time></trkpt><trkpt lat="44.939326" lon="7.2409845"><ele>685.4000000000001</ele><time>2026-04-26T09:47:12.746Z</time></trkpt><trkpt lat="44.9393708" lon="7.2408459"><ele>684.5999999999999</ele><time>2026-04-26T09:47:13.746Z</time></trkpt><trkpt lat="44.9394144" lon="7.2407057"><ele>683.8</ele><time>2026-04-26T09:47:14.746Z</time></trkpt><trkpt lat="44.9394599" lon="7.2405669"><ele>683.0</ele><time>2026-04-26T09:47:15.746Z</time></trkpt><trkpt lat="44.9395113" lon="7.2404362"><ele>680.2</ele><time>2026-04-26T09:47:16.746Z</time></trkpt><trkpt lat="44.9395735" lon="7.2403119"><ele>677.4</ele><time>2026-04-26T09:47:17.746Z</time></trkpt><trkpt lat="44.9396398" lon="7.240207"><ele>674.6</ele><time>2026-04-26T09:47:18.746Z</time></trkpt><trkpt lat="44.9397028" lon="7.2401278"><ele>671.8000000000001</ele><time>2026-04-26T09:47:19.745Z</time></trkpt><trkpt lat="44.9397728" lon="7.2400631"><ele>669.0</ele><time>2026-04-26T09:47:20.746Z</time></trkpt><trkpt lat="44.9398502" lon="7.2400423"><ele>669.0</ele><time>2026-04-26T09:47:21.746Z</time></trkpt><trkpt lat="44.9399316" lon="7.2400568"><ele>669.0</ele><time>2026-04-26T09:47:22.746Z</time></trkpt><trkpt lat="44.9399973" lon="7.2401066"><ele>669.0</ele><time>2026-04-26T09:47:23.746Z</time></trkpt><trkpt lat="44.9400408" lon="7.2401827"><ele>669.0</ele><time>2026-04-26T09:47:24.746Z</time></trkpt><trkpt lat="44.9400709" lon="7.2402657"><ele>669.0</ele><time>2026-04-26T09:47:25.746Z</time></trkpt><trkpt lat="44.9400978" lon="7.240356"><ele>669.0</ele><time>2026-04-26T09:47:26.746Z</time></trkpt><trkpt lat="44.9401004" lon="7.2404518"><ele>669.0</ele><time>2026-04-26T09:47:27.746Z</time></trkpt><trkpt lat="44.9400997" lon="7.2405479"><ele>667.3333333333334</ele><time>2026-04-26T09:47:28.746Z</time></trkpt><trkpt lat="44.9400986" lon="7.2406402"><ele>665.6666666666666</ele><time>2026-04-26T09:47:29.746Z</time></trkpt><trkpt lat="44.9400915" lon="7.2407318"><ele>664.0</ele><time>2026-04-26T09:47:30.746Z</time></trkpt><trkpt lat="44.9401327" lon="7.2408666"><ele>662.3333333333333</ele><time>2026-04-26T09:47:32.746Z</time></trkpt><trkpt lat="44.9402047" lon="7.2408901"><ele>660.6666666666666</ele><time>2026-04-26T09:47:34.746Z</time></trkpt><trkpt lat="44.9402476" lon="7.2408017"><ele>659.0</ele><time>2026-04-26T09:47:36.746Z</time></trkpt><trkpt lat="44.94027" lon="7.2406095"><ele>655.5</ele><time>2026-04-26T09:47:38.746Z</time></trkpt><trkpt lat="44.9402777" lon="7.2405047"><ele>652.0</ele><time>2026-04-26T09:47:39.746Z</time></trkpt><trkpt lat="44.9402822" lon="7.2404026"><ele>648.5</ele><time>2026-04-26T09:47:40.746Z</time></trkpt><trkpt lat="44.9402822" lon="7.2403104"><ele>645.0</ele><time>2026-04-26T09:47:41.746Z</time></trkpt><trkpt lat="44.9402619" lon="7.2401305"><ele>641.5</ele><time>2026-04-26T09:47:43.746Z</time></trkpt><trkpt lat="44.9402306" lon="7.2400321"><ele>638.0</ele><time>2026-04-26T09:47:44.746Z</time></trkpt><trkpt lat="44.9401848" lon="7.2399281"><ele>638.0</ele><time>2026-04-26T09:47:45.746Z</time></trkpt><trkpt lat="44.9401391" lon="7.2398261"><ele>638.0</ele><time>2026-04-26T09:47:46.746Z</time></trkpt><trkpt lat="44.9400917" lon="7.2397236"><ele>638.0</ele><time>2026-04-26T09:47:47.746Z</time></trkpt><trkpt lat="44.9400378" lon="7.2396264"><ele>638.0</ele><time>2026-04-26T09:47:48.745Z</time></trkpt><trkpt lat="44.9399813" lon="7.2395313"><ele>638.0</ele><time>2026-04-26T09:47:49.746Z</time></trkpt><trkpt lat="44.9399173" lon="7.2394502"><ele>638.0</ele><time>2026-04-26T09:47:50.746Z</time></trkpt><trkpt lat="44.9398476" lon="7.2393875"><ele>640.4</ele><time>2026-04-26T09:47:51.746Z</time></trkpt><trkpt lat="44.9397757" lon="7.2393679"><ele>642.8</ele><time>2026-04-26T09:47:52.746Z</time></trkpt><trkpt lat="44.9396954" lon="7.2393851"><ele>645.2</ele><time>2026-04-26T09:47:53.745Z</time></trkpt><trkpt lat="44.9396176" lon="7.2394542"><ele>647.6</ele><time>2026-04-26T09:47:54.746Z</time></trkpt><trkpt lat="44.939518" lon="7.2395484"><ele>650.0</ele><time>2026-04-26T09:47:55.746Z</time></trkpt><trkpt lat="44.9394069" lon="7.2396553"><ele>650.0</ele><time>2026-04-26T09:47:56.746Z</time></trkpt><trkpt lat="44.9393073" lon="7.2397398"><ele>650.0</ele><time>2026-04-26T09:47:57.746Z</time></trkpt><trkpt lat="44.9392089" lon="7.2397985"><ele>650.0</ele><time>2026-04-26T09:47:58.746Z</time></trkpt><trkpt lat="44.9391145" lon="7.2398385"><ele>650.0</ele><time>2026-04-26T09:47:59.746Z</time></trkpt><trkpt lat="44.9390223" lon="7.2398611"><ele>650.0</ele><time>2026-04-26T09:48:00.746Z</time></trkpt><trkpt lat="44.9389368" lon="7.2398615"><ele>648.6666666666666</ele><time>2026-04-26T09:48:01.746Z</time></trkpt><trkpt lat="44.9388628" lon="7.2398357"><ele>647.3333333333333</ele><time>2026-04-26T09:48:02.746Z</time></trkpt><trkpt lat="44.938796" lon="7.2397576"><ele>646.0</ele><time>2026-04-26T09:48:03.746Z</time></trkpt><trkpt lat="44.938741" lon="7.2396708"><ele>644.6666666666666</ele><time>2026-04-26T09:48:04.746Z</time></trkpt><trkpt lat="44.9386884" lon="7.2395931"><ele>643.3333333333334</ele><time>2026-04-26T09:48:05.746Z</time></trkpt><trkpt lat="44.9386205" lon="7.2395282"><ele>642.0</ele><time>2026-04-26T09:48:06.745Z</time></trkpt><trkpt lat="44.9385251" lon="7.2395212"><ele>642.0</ele><time>2026-04-26T09:48:07.746Z</time></trkpt><trkpt lat="44.9384322" lon="7.2395088"><ele>642.0</ele><time>2026-04-26T09:48:08.746Z</time></trkpt><trkpt lat="44.9383429" lon="7.2394765"><ele>642.0</ele><time>2026-04-26T09:48:09.746Z</time></trkpt><trkpt lat="44.9382624" lon="7.2394049"><ele>642.0</ele><time>2026-04-26T09:48:10.746Z</time></trkpt><trkpt lat="44.9381837" lon="7.239297"><ele>642.0</ele><time>2026-04-26T09:48:11.746Z</time></trkpt><trkpt lat="44.9381113" lon="7.2391689"><ele>640.8000000000001</ele><time>2026-04-26T09:48:12.746Z</time></trkpt><trkpt lat="44.9380433" lon="7.2390427"><ele>639.6</ele><time>2026-04-26T09:48:13.746Z</time></trkpt><trkpt lat="44.937981" lon="7.2389167"><ele>638.4000000000001</ele><time>2026-04-26T09:48:14.746Z</time></trkpt><trkpt lat="44.9379265" lon="7.2388037"><ele>637.2</ele><time>2026-04-26T09:48:15.746Z</time></trkpt><trkpt lat="44.9378734" lon="7.2387027"><ele>636.0</ele><time>2026-04-26T09:48:16.746Z</time></trkpt><trkpt lat="44.9378281" lon="7.2386235"><ele>633.6666666666666</ele><time>2026-04-26T09:48:17.746Z</time></trkpt><trkpt lat="44.9377675" lon="7.2385709"><ele>631.3333333333334</ele><time>2026-04-26T09:48:18.746Z</time></trkpt><trkpt lat="44.9376908" lon="7.238573"><ele>629.0</ele><time>2026-04-26T09:48:19.746Z</time></trkpt><trkpt lat="44.9376146" lon="7.238622"><ele>626.6666666666667</ele><time>2026-04-26T09:48:20.746Z</time></trkpt><trkpt lat="44.9375292" lon="7.2386983"><ele>624.3333333333334</ele><time>2026-04-26T09:48:21.746Z</time></trkpt><trkpt lat="44.9374363" lon="7.2387947"><ele>622.0</ele><time>2026-04-26T09:48:22.746Z</time></trkpt><trkpt lat="44.9373314" lon="7.2389112"><ele>624.0</ele><time>2026-04-26T09:48:23.746Z</time></trkpt><trkpt lat="44.9372276" lon="7.2390288"><ele>626.0</ele><time>2026-04-26T09:48:24.746Z</time></trkpt><trkpt lat="44.9371265" lon="7.2391349"><ele>628.0</ele><time>2026-04-26T09:48:25.746Z</time></trkpt><trkpt lat="44.9370299" lon="7.2392383"><ele>630.0</ele><time>2026-04-26T09:48:26.746Z</time></trkpt><trkpt lat="44.9369319" lon="7.2393365"><ele>630.0</ele><time>2026-04-26T09:48:27.746Z</time></trkpt><trkpt lat="44.9368465" lon="7.2394311"><ele>630.0</ele><time>2026-04-26T09:48:28.746Z</time></trkpt><trkpt lat="44.9367573" lon="7.2395298"><ele>630.0</ele><time>2026-04-26T09:48:29.746Z</time></trkpt><trkpt lat="44.9366747" lon="7.2396337"><ele>630.0</ele><time>2026-04-26T09:48:30.746Z</time></trkpt><trkpt lat="44.9365912" lon="7.2397367"><ele>630.0</ele><time>2026-04-26T09:48:31.746Z</time></trkpt><trkpt lat="44.9365261" lon="7.239824"><ele>627.8</ele><time>2026-04-26T09:48:32.746Z</time></trkpt><trkpt lat="44.9364684" lon="7.2399159"><ele>625.6</ele><time>2026-04-26T09:48:33.746Z</time></trkpt><trkpt lat="44.9364168" lon="7.2400019"><ele>623.4</ele><time>2026-04-26T09:48:34.746Z</time></trkpt><trkpt lat="44.9363267" lon="7.2400923"><ele>621.2</ele><time>2026-04-26T09:48:36.746Z</time></trkpt><trkpt lat="44.9362933" lon="7.240002"><ele>619.0</ele><time>2026-04-26T09:48:37.746Z</time></trkpt><trkpt lat="44.9363219" lon="7.2398442"><ele>616.5</ele><time>2026-04-26T09:48:39.746Z</time></trkpt><trkpt lat="44.9363861" lon="7.2397225"><ele>614.0</ele><time>2026-04-26T09:48:40.746Z</time></trkpt><trkpt lat="44.9364623" lon="7.2395535"><ele>611.5</ele><time>2026-04-26T09:48:41.746Z</time></trkpt><trkpt lat="44.9365486" lon="7.2393549"><ele>609.0</ele><time>2026-04-26T09:48:42.746Z</time></trkpt><trkpt lat="44.936631" lon="7.2391483"><ele>611.6666666666666</ele><time>2026-04-26T09:48:43.746Z</time></trkpt><trkpt lat="44.9367111" lon="7.2389321"><ele>614.3333333333333</ele><time>2026-04-26T09:48:44.746Z</time></trkpt><trkpt lat="44.9367725" lon="7.2387116"><ele>617.0</ele><time>2026-04-26T09:48:45.746Z</time></trkpt><trkpt lat="44.9368463" lon="7.2385013"><ele>617.0</ele><time>2026-04-26T09:48:46.746Z</time></trkpt><trkpt lat="44.9369073" lon="7.2382896"><ele>617.0</ele><time>2026-04-26T09:48:47.746Z</time></trkpt><trkpt lat="44.9369676" lon="7.2381009"><ele>617.0</ele><time>2026-04-26T09:48:48.746Z</time></trkpt><trkpt lat="44.9370387" lon="7.237919"><ele>611.5</ele><time>2026-04-26T09:48:49.746Z</time></trkpt><trkpt lat="44.9371266" lon="7.2377488"><ele>606.0</ele><time>2026-04-26T09:48:50.746Z</time></trkpt><trkpt lat="44.9372289" lon="7.2375983"><ele>600.5</ele><time>2026-04-26T09:48:51.746Z</time></trkpt><trkpt lat="44.9373341" lon="7.2374616"><ele>595.0</ele><time>2026-04-26T09:48:52.746Z</time></trkpt><trkpt lat="44.9374404" lon="7.2373437"><ele>592.0</ele><time>2026-04-26T09:48:53.746Z</time></trkpt><trkpt lat="44.9375352" lon="7.2372244"><ele>589.0</ele><time>2026-04-26T09:48:54.746Z</time></trkpt><trkpt lat="44.9376152" lon="7.2371006"><ele>586.0</ele><time>2026-04-26T09:48:55.746Z</time></trkpt><trkpt lat="44.9376772" lon="7.2369518"><ele>583.0</ele><time>2026-04-26T09:48:56.746Z</time></trkpt><trkpt lat="44.9377298" lon="7.2367834"><ele>583.0</ele><time>2026-04-26T09:48:57.746Z</time></trkpt><trkpt lat="44.9377725" lon="7.2366239"><ele>583.0</ele><time>2026-04-26T09:48:58.746Z</time></trkpt><trkpt lat="44.937812" lon="7.236466"><ele>583.0</ele><time>2026-04-26T09:48:59.746Z</time></trkpt><trkpt lat="44.9378462" lon="7.2363186"><ele>583.0</ele><time>2026-04-26T09:49:00.746Z</time></trkpt><trkpt lat="44.9378787" lon="7.2361934"><ele>583.0</ele><time>2026-04-26T09:49:01.746Z</time></trkpt><trkpt lat="44.9379266" lon="7.2360791"><ele>581.0</ele><time>2026-04-26T09:49:02.746Z</time></trkpt><trkpt lat="44.9379991" lon="7.2359891"><ele>579.0</ele><time>2026-04-26T09:49:03.746Z</time></trkpt><trkpt lat="44.9380902" lon="7.2359139"><ele>577.0</ele><time>2026-04-26T09:49:04.746Z</time></trkpt><trkpt lat="44.9381807" lon="7.235851"><ele>575.0</ele><time>2026-04-26T09:49:05.746Z</time></trkpt><trkpt lat="44.9382686" lon="7.2358177"><ele>573.0</ele><time>2026-04-26T09:49:06.746Z</time></trkpt><trkpt lat="44.9383706" lon="7.2358218"><ele>572.1999999999999</ele><time>2026-04-26T09:49:07.746Z</time></trkpt><trkpt lat="44.9384747" lon="7.2358343"><ele>571.4</ele><time>2026-04-26T09:49:08.746Z</time></trkpt><trkpt lat="44.9385785" lon="7.2358432"><ele>570.5999999999999</ele><time>2026-04-26T09:49:09.746Z</time></trkpt><trkpt lat="44.9386836" lon="7.2358562"><ele>569.8</ele><time>2026-04-26T09:49:10.746Z</time></trkpt><trkpt lat="44.9387835" lon="7.2358746"><ele>569.0</ele><time>2026-04-26T09:49:11.746Z</time></trkpt><trkpt lat="44.938879" lon="7.2358889"><ele>569.0</ele><time>2026-04-26T09:49:12.746Z</time></trkpt><trkpt lat="44.9389685" lon="7.23589"><ele>569.0</ele><time>2026-04-26T09:49:13.746Z</time></trkpt><trkpt lat="44.9390525" lon="7.235873"><ele>569.0</ele><time>2026-04-26T09:49:14.746Z</time></trkpt><trkpt lat="44.9391191" lon="7.2357904"><ele>569.0</ele><time>2026-04-26T09:49:15.746Z</time></trkpt><trkpt lat="44.9391806" lon="7.2356901"><ele>569.0</ele><time>2026-04-26T09:49:16.746Z</time></trkpt><trkpt lat="44.9392474" lon="7.2355821"><ele>567.0</ele><time>2026-04-26T09:49:17.746Z</time></trkpt><trkpt lat="44.9393155" lon="7.2354847"><ele>565.0</ele><time>2026-04-26T09:49:18.746Z</time></trkpt><trkpt lat="44.9393869" lon="7.2354062"><ele>563.0</ele><time>2026-04-26T09:49:19.746Z</time></trkpt><trkpt lat="44.9394672" lon="7.2353438"><ele>561.0</ele><time>2026-04-26T09:49:20.746Z</time></trkpt><trkpt lat="44.9395538" lon="7.2353059"><ele>559.0</ele><time>2026-04-26T09:49:21.746Z</time></trkpt><trkpt lat="44.9396388" lon="7.2352607"><ele>559.0</ele><time>2026-04-26T09:49:22.746Z</time></trkpt><trkpt lat="44.9397048" lon="7.2351732"><ele>559.0</ele><time>2026-04-26T09:49:23.746Z</time></trkpt><trkpt lat="44.939766" lon="7.2350492"><ele>559.0</ele><time>2026-04-26T09:49:24.746Z</time></trkpt><trkpt lat="44.9398209" lon="7.23491"><ele>559.0</ele><time>2026-04-26T09:49:25.746Z</time></trkpt><trkpt lat="44.9398702" lon="7.2347821"><ele>559.0</ele><time>2026-04-26T09:49:26.746Z</time></trkpt><trkpt lat="44.9399209" lon="7.234648"><ele>559.1666666666667</ele><time>2026-04-26T09:49:27.746Z</time></trkpt><trkpt lat="44.9399572" lon="7.234523"><ele>559.3333333333334</ele><time>2026-04-26T09:49:28.746Z</time></trkpt><trkpt lat="44.9399985" lon="7.2344069"><ele>559.5</ele><time>2026-04-26T09:49:29.746Z</time></trkpt><trkpt lat="44.9400342" lon="7.2342981"><ele>559.6666666666666</ele><time>2026-04-26T09:49:30.746Z</time></trkpt><trkpt lat="44.9400667" lon="7.234196"><ele>559.8333333333333</ele><time>2026-04-26T09:49:31.746Z</time></trkpt><trkpt lat="44.9400989" lon="7.2340999"><ele>560.0</ele><time>2026-04-26T09:49:32.746Z</time></trkpt><trkpt lat="44.9401292" lon="7.2340139"><ele>559.6</ele><time>2026-04-26T09:49:33.746Z</time></trkpt><trkpt lat="44.9401617" lon="7.2339245"><ele>559.2</ele><time>2026-04-26T09:49:34.746Z</time></trkpt><trkpt lat="44.9402121" lon="7.233787"><ele>558.8</ele><time>2026-04-26T09:49:36.746Z</time></trkpt><trkpt lat="44.9402942" lon="7.2336876"><ele>558.4</ele><time>2026-04-26T09:49:38.746Z</time></trkpt><trkpt lat="44.9403636" lon="7.2336011"><ele>558.0</ele><time>2026-04-26T09:49:40.746Z</time></trkpt><trkpt lat="44.9403706" lon="7.2334792"><ele>558.0</ele><time>2026-04-26T09:49:42.746Z</time></trkpt><trkpt lat="44.9403421" lon="7.2333585"><ele>558.0</ele><time>2026-04-26T09:49:44.746Z</time></trkpt><trkpt lat="44.9403129" lon="7.2332453"><ele>558.0</ele><time>2026-04-26T09:49:46.746Z</time></trkpt><trkpt lat="44.9403403" lon="7.2331181"><ele>558.0</ele><time>2026-04-26T09:49:48.746Z</time></trkpt><trkpt lat="44.9403856" lon="7.2329891"><ele>558.0</ele><time>2026-04-26T09:49:50.746Z</time></trkpt><trkpt lat="44.9404221" lon="7.2328538"><ele>557.8</ele><time>2026-04-26T09:49:52.746Z</time></trkpt><trkpt lat="44.9404194" lon="7.2327189"><ele>557.5999999999999</ele><time>2026-04-26T09:49:54.746Z</time></trkpt><trkpt lat="44.9403752" lon="7.2325797"><ele>557.4000000000001</ele><time>2026-04-26T09:49:56.746Z</time></trkpt><trkpt lat="44.9403386" lon="7.2324391"><ele>557.2</ele><time>2026-04-26T09:49:58.746Z</time></trkpt><trkpt lat="44.9403139" lon="7.2322793"><ele>557.0</ele><time>2026-04-26T09:50:00.746Z</time></trkpt><trkpt lat="44.9402985" lon="7.2321483"><ele>556.5</ele><time>2026-04-26T09:50:02.746Z</time></trkpt><trkpt lat="44.940333" lon="7.2320099"><ele>556.0</ele><time>2026-04-26T09:50:04.746Z</time></trkpt><trkpt lat="44.9403606" lon="7.2319298"><ele>555.5</ele><time>2026-04-26T09:50:05.746Z</time></trkpt><trkpt lat="44.9403835" lon="7.2318358"><ele>555.0</ele><time>2026-04-26T09:50:06.746Z</time></trkpt><trkpt lat="44.9404189" lon="7.2317454"><ele>554.5</ele><time>2026-04-26T09:50:07.746Z</time></trkpt><trkpt lat="44.9404429" lon="7.2316498"><ele>554.0</ele><time>2026-04-26T09:50:08.746Z</time></trkpt><trkpt lat="44.9404495" lon="7.2315531"><ele>553.4</ele><time>2026-04-26T09:50:09.746Z</time></trkpt><trkpt lat="44.9404663" lon="7.2314621"><ele>552.8</ele><time>2026-04-26T09:50:10.746Z</time></trkpt><trkpt lat="44.9404864" lon="7.2313121"><ele>552.2</ele><time>2026-04-26T09:50:12.746Z</time></trkpt><trkpt lat="44.9405092" lon="7.2311688"><ele>551.6</ele><time>2026-04-26T09:50:14.746Z</time></trkpt><trkpt lat="44.9405451" lon="7.2310943"><ele>551.0</ele><time>2026-04-26T09:50:15.746Z</time></trkpt><trkpt lat="44.9406417" lon="7.2309756"><ele>551.0</ele><time>2026-04-26T09:50:17.746Z</time></trkpt><trkpt lat="44.940702" lon="7.2309078"><ele>551.0</ele><time>2026-04-26T09:50:18.746Z</time></trkpt><trkpt lat="44.9407681" lon="7.2308513"><ele>551.0</ele><time>2026-04-26T09:50:19.746Z</time></trkpt><trkpt lat="44.9408295" lon="7.2308014"><ele>551.0</ele><time>2026-04-26T09:50:20.746Z</time></trkpt><trkpt lat="44.940896" lon="7.2307468"><ele>551.0</ele><time>2026-04-26T09:50:21.746Z</time></trkpt><trkpt lat="44.940968" lon="7.2306842"><ele>551.0</ele><time>2026-04-26T09:50:22.746Z</time></trkpt><trkpt lat="44.941041" lon="7.2306034"><ele>551.2</ele><time>2026-04-26T09:50:23.746Z</time></trkpt><trkpt lat="44.9411066" lon="7.2305039"><ele>551.4000000000001</ele><time>2026-04-26T09:50:24.746Z</time></trkpt><trkpt lat="44.9411611" lon="7.2303936"><ele>551.6</ele><time>2026-04-26T09:50:25.746Z</time></trkpt><trkpt lat="44.9412108" lon="7.2302896"><ele>551.8000000000001</ele><time>2026-04-26T09:50:26.746Z</time></trkpt><trkpt lat="44.9412574" lon="7.2301878"><ele>552.0</ele><time>2026-04-26T09:50:27.746Z</time></trkpt><trkpt lat="44.9413041" lon="7.2300781"><ele>552.0</ele><time>2026-04-26T09:50:28.745Z</time></trkpt><trkpt lat="44.9413555" lon="7.2299679"><ele>552.0</ele><time>2026-04-26T09:50:29.746Z</time></trkpt><trkpt lat="44.9414073" lon="7.2298522"><ele>552.0</ele><time>2026-04-26T09:50:30.746Z</time></trkpt><trkpt lat="44.9414617" lon="7.2297435"><ele>552.0</ele><time>2026-04-26T09:50:31.746Z</time></trkpt><trkpt lat="44.9415108" lon="7.2296358"><ele>552.0</ele><time>2026-04-26T09:50:32.746Z</time></trkpt><trkpt lat="44.9415551" lon="7.2295362"><ele>551.5</ele><time>2026-04-26T09:50:33.746Z</time></trkpt><trkpt lat="44.9415997" lon="7.2294417"><ele>551.0</ele><time>2026-04-26T09:50:34.746Z</time></trkpt><trkpt lat="44.9416422" lon="7.229348"><ele>550.5</ele><time>2026-04-26T09:50:35.746Z</time></trkpt><trkpt lat="44.9416821" lon="7.2292561"><ele>550.0</ele><time>2026-04-26T09:50:36.746Z</time></trkpt><trkpt lat="44.9417161" lon="7.2291628"><ele>549.5</ele><time>2026-04-26T09:50:37.746Z</time></trkpt><trkpt lat="44.9417411" lon="7.2290699"><ele>549.0</ele><time>2026-04-26T09:50:38.746Z</time></trkpt><trkpt lat="44.9417474" lon="7.2289132"><ele>548.8571428571429</ele><time>2026-04-26T09:50:40.746Z</time></trkpt><trkpt lat="44.9417404" lon="7.228812"><ele>548.7142857142858</ele><time>2026-04-26T09:50:43.746Z</time></trkpt><trkpt lat="44.9417071" lon="7.2287184"><ele>548.5714285714287</ele><time>2026-04-26T09:50:57.746Z</time></trkpt><trkpt lat="44.9416965" lon="7.2286258"><ele>548.4285714285714</ele><time>2026-04-26T09:51:08.746Z</time></trkpt><trkpt lat="44.941728" lon="7.2284917"><ele>548.2857142857143</ele><time>2026-04-26T09:51:11.746Z</time></trkpt><trkpt lat="44.9417698" lon="7.2284202"><ele>548.1428571428572</ele><time>2026-04-26T09:51:12.746Z</time></trkpt><trkpt lat="44.9418162" lon="7.2283463"><ele>548.0</ele><time>2026-04-26T09:51:13.745Z</time></trkpt><trkpt lat="44.9418679" lon="7.2282638"><ele>548.0</ele><time>2026-04-26T09:51:14.746Z</time></trkpt><trkpt lat="44.9419285" lon="7.2281738"><ele>548.0</ele><time>2026-04-26T09:51:15.746Z</time></trkpt><trkpt lat="44.9419915" lon="7.2280786"><ele>548.0</ele><time>2026-04-26T09:51:16.746Z</time></trkpt><trkpt lat="44.9420473" lon="7.2279921"><ele>548.0</ele><time>2026-04-26T09:51:17.746Z</time></trkpt><trkpt lat="44.9421049" lon="7.2278977"><ele>548.0</ele><time>2026-04-26T09:51:18.746Z</time></trkpt><trkpt lat="44.9421664" lon="7.2277994"><ele>548.0</ele><time>2026-04-26T09:51:19.746Z</time></trkpt><trkpt lat="44.9422282" lon="7.2276987"><ele>548.0</ele><time>2026-04-26T09:51:20.745Z</time></trkpt><trkpt lat="44.9422865" lon="7.2276042"><ele>548.0</ele><time>2026-04-26T09:51:21.746Z</time></trkpt><trkpt lat="44.9423428" lon="7.2275147"><ele>548.0</ele><time>2026-04-26T09:51:22.746Z</time></trkpt><trkpt lat="44.9423928" lon="7.2274306"><ele>548.0</ele><time>2026-04-26T09:51:23.746Z</time></trkpt><trkpt lat="44.9424347" lon="7.2273586"><ele>548.0</ele><time>2026-04-26T09:51:24.746Z</time></trkpt><trkpt lat="44.9425197" lon="7.2272174"><ele>548.0</ele><time>2026-04-26T09:51:26.746Z</time></trkpt><trkpt lat="44.942578" lon="7.2271218"><ele>548.1999999999999</ele><time>2026-04-26T09:51:27.746Z</time></trkpt><trkpt lat="44.9426423" lon="7.2270096"><ele>548.4</ele><time>2026-04-26T09:51:28.746Z</time></trkpt><trkpt lat="44.9427056" lon="7.2269022"><ele>548.5999999999999</ele><time>2026-04-26T09:51:29.746Z</time></trkpt><trkpt lat="44.9427667" lon="7.2268002"><ele>548.8</ele><time>2026-04-26T09:51:30.746Z</time></trkpt><trkpt lat="44.9428402" lon="7.2266744"><ele>549.0</ele><time>2026-04-26T09:51:31.746Z</time></trkpt><trkpt lat="44.9429262" lon="7.2265242"><ele>548.25</ele><time>2026-04-26T09:51:32.746Z</time></trkpt><trkpt lat="44.9430111" lon="7.2263916"><ele>547.5</ele><time>2026-04-26T09:51:33.746Z</time></trkpt><trkpt lat="44.9430977" lon="7.2262555"><ele>546.75</ele><time>2026-04-26T09:51:34.746Z</time></trkpt><trkpt lat="44.9431863" lon="7.2261061"><ele>546.0</ele><time>2026-04-26T09:51:35.746Z</time></trkpt><trkpt lat="44.9432955" lon="7.2259393"><ele>547.0</ele><time>2026-04-26T09:51:36.746Z</time></trkpt><trkpt lat="44.9434247" lon="7.2257771"><ele>548.0</ele><time>2026-04-26T09:51:37.746Z</time></trkpt><trkpt lat="44.9435628" lon="7.2256292"><ele>549.0</ele><time>2026-04-26T09:51:38.746Z</time></trkpt><trkpt lat="44.9437038" lon="7.2254902"><ele>549.3333333333334</ele><time>2026-04-26T09:51:39.746Z</time></trkpt><trkpt lat="44.9438417" lon="7.2253706"><ele>549.6666666666667</ele><time>2026-04-26T09:51:40.746Z</time></trkpt><trkpt lat="44.9439846" lon="7.2252554"><ele>550.0</ele><time>2026-04-26T09:51:41.746Z</time></trkpt><trkpt lat="44.9441261" lon="7.2251509"><ele>552.0</ele><time>2026-04-26T09:51:42.746Z</time></trkpt><trkpt lat="44.9442663" lon="7.2250474"><ele>554.0</ele><time>2026-04-26T09:51:43.746Z</time></trkpt><trkpt lat="44.9444156" lon="7.2249433"><ele>556.0</ele><time>2026-04-26T09:51:44.746Z</time></trkpt><trkpt lat="44.9445623" lon="7.224837"><ele>554.3333333333334</ele><time>2026-04-26T09:51:45.746Z</time></trkpt><trkpt lat="44.9447097" lon="7.2247345"><ele>552.6666666666666</ele><time>2026-04-26T09:51:46.746Z</time></trkpt><trkpt lat="44.9448509" lon="7.2246359"><ele>551.0</ele><time>2026-04-26T09:51:47.746Z</time></trkpt><trkpt lat="44.944989" lon="7.2245426"><ele>552.25</ele><time>2026-04-26T09:51:48.746Z</time></trkpt><trkpt lat="44.945122" lon="7.2244461"><ele>553.5</ele><time>2026-04-26T09:51:49.745Z</time></trkpt><trkpt lat="44.9452615" lon="7.2243535"><ele>554.75</ele><time>2026-04-26T09:51:50.746Z</time></trkpt><trkpt lat="44.9453918" lon="7.2242655"><ele>556.0</ele><time>2026-04-26T09:51:51.746Z</time></trkpt><trkpt lat="44.9455182" lon="7.2241796"><ele>556.0</ele><time>2026-04-26T09:51:52.745Z</time></trkpt><trkpt lat="44.9456409" lon="7.224086"><ele>556.0</ele><time>2026-04-26T09:51:53.746Z</time></trkpt><trkpt lat="44.9457557" lon="7.2239804"><ele>556.0</ele><time>2026-04-26T09:51:54.746Z</time></trkpt><trkpt lat="44.9458628" lon="7.2238542"><ele>556.0</ele><time>2026-04-26T09:51:55.746Z</time></trkpt><trkpt lat="44.9459614" lon="7.2237074"><ele>558.6666666666667</ele><time>2026-04-26T09:51:56.746Z</time></trkpt><trkpt lat="44.946063" lon="7.2235396"><ele>561.3333333333334</ele><time>2026-04-26T09:51:57.745Z</time></trkpt><trkpt lat="44.9461644" lon="7.2233647"><ele>564.0</ele><time>2026-04-26T09:51:58.746Z</time></trkpt><trkpt lat="44.9462602" lon="7.2231986"><ele>563.25</ele><time>2026-04-26T09:51:59.746Z</time></trkpt><trkpt lat="44.9463518" lon="7.22304"><ele>562.5</ele><time>2026-04-26T09:52:00.746Z</time></trkpt><trkpt lat="44.9464414" lon="7.2228784"><ele>561.75</ele><time>2026-04-26T09:52:01.746Z</time></trkpt><trkpt lat="44.9465292" lon="7.2227204"><ele>561.0</ele><time>2026-04-26T09:52:02.746Z</time></trkpt><trkpt lat="44.9466196" lon="7.2225624"><ele>561.75</ele><time>2026-04-26T09:52:03.745Z</time></trkpt><trkpt lat="44.9467145" lon="7.2224032"><ele>562.5</ele><time>2026-04-26T09:52:04.746Z</time></trkpt><trkpt lat="44.9468109" lon="7.2222428"><ele>563.25</ele><time>2026-04-26T09:52:05.746Z</time></trkpt><trkpt lat="44.9468944" lon="7.2220832"><ele>564.0</ele><time>2026-04-26T09:52:06.746Z</time></trkpt><trkpt lat="44.9469647" lon="7.221923"><ele>564.0</ele><time>2026-04-26T09:52:07.746Z</time></trkpt><trkpt lat="44.9470183" lon="7.2217666"><ele>564.0</ele><time>2026-04-26T09:52:08.746Z</time></trkpt><trkpt lat="44.9470612" lon="7.2216085"><ele>564.0</ele><time>2026-04-26T09:52:09.746Z</time></trkpt><trkpt lat="44.9471034" lon="7.2214539"><ele>564.0</ele><time>2026-04-26T09:52:10.746Z</time></trkpt><trkpt lat="44.9471441" lon="7.2213032"><ele>563.25</ele><time>2026-04-26T09:52:11.746Z</time></trkpt><trkpt lat="44.9471846" lon="7.2211451"><ele>562.5</ele><time>2026-04-26T09:52:12.746Z</time></trkpt><trkpt lat="44.9472306" lon="7.2209896"><ele>561.75</ele><time>2026-04-26T09:52:13.746Z</time></trkpt><trkpt lat="44.9472842" lon="7.2208333"><ele>561.0</ele><time>2026-04-26T09:52:14.746Z</time></trkpt><trkpt lat="44.9473441" lon="7.2206731"><ele>560.0</ele><time>2026-04-26T09:52:15.745Z</time></trkpt><trkpt lat="44.9474072" lon="7.2205103"><ele>559.0</ele><time>2026-04-26T09:52:16.746Z</time></trkpt><trkpt lat="44.9474751" lon="7.2203442"><ele>558.0</ele><time>2026-04-26T09:52:17.746Z</time></trkpt><trkpt lat="44.947548" lon="7.2201794"><ele>557.0</ele><time>2026-04-26T09:52:18.746Z</time></trkpt><trkpt lat="44.9476204" lon="7.2200119"><ele>559.0</ele><time>2026-04-26T09:52:19.746Z</time></trkpt><trkpt lat="44.9476928" lon="7.2198346"><ele>561.0</ele><time>2026-04-26T09:52:20.746Z</time></trkpt><trkpt lat="44.947773" lon="7.2196591"><ele>563.0</ele><time>2026-04-26T09:52:21.746Z</time></trkpt><trkpt lat="44.9478539" lon="7.219477"><ele>565.0</ele><time>2026-04-26T09:52:22.746Z</time></trkpt><trkpt lat="44.9479359" lon="7.2192861"><ele>565.0</ele><time>2026-04-26T09:52:23.746Z</time></trkpt><trkpt lat="44.9480227" lon="7.2190864"><ele>565.0</ele><time>2026-04-26T09:52:24.746Z</time></trkpt><trkpt lat="44.948115" lon="7.2188765"><ele>565.0</ele><time>2026-04-26T09:52:25.746Z</time></trkpt><trkpt lat="44.9482037" lon="7.2186889"><ele>562.3333333333334</ele><time>2026-04-26T09:52:26.746Z</time></trkpt><trkpt lat="44.9483025" lon="7.2185162"><ele>559.6666666666666</ele><time>2026-04-26T09:52:27.746Z</time></trkpt><trkpt lat="44.948417" lon="7.2183564"><ele>557.0</ele><time>2026-04-26T09:52:28.746Z</time></trkpt><trkpt lat="44.9485431" lon="7.2182023"><ele>558.3333333333333</ele><time>2026-04-26T09:52:29.746Z</time></trkpt><trkpt lat="44.9486768" lon="7.2180558"><ele>559.6666666666666</ele><time>2026-04-26T09:52:30.746Z</time></trkpt><trkpt lat="44.9488127" lon="7.2179225"><ele>561.0</ele><time>2026-04-26T09:52:31.746Z</time></trkpt><trkpt lat="44.9489426" lon="7.2177952"><ele>561.0</ele><time>2026-04-26T09:52:32.746Z</time></trkpt><trkpt lat="44.9490635" lon="7.2176752"><ele>561.0</ele><time>2026-04-26T09:52:33.746Z</time></trkpt><trkpt lat="44.9491823" lon="7.2175564"><ele>561.0</ele><time>2026-04-26T09:52:34.746Z</time></trkpt><trkpt lat="44.9493046" lon="7.2174414"><ele>561.0</ele><time>2026-04-26T09:52:35.746Z</time></trkpt><trkpt lat="44.949426" lon="7.2173196"><ele>563.0</ele><time>2026-04-26T09:52:36.746Z</time></trkpt><trkpt lat="44.9495431" lon="7.2171821"><ele>565.0</ele><time>2026-04-26T09:52:37.745Z</time></trkpt><trkpt lat="44.9496505" lon="7.2170204"><ele>567.0</ele><time>2026-04-26T09:52:38.746Z</time></trkpt><trkpt lat="44.9497485" lon="7.2168409"><ele>567.0</ele><time>2026-04-26T09:52:39.746Z</time></trkpt><trkpt lat="44.9498419" lon="7.216659"><ele>567.0</ele><time>2026-04-26T09:52:40.746Z</time></trkpt><trkpt lat="44.9499303" lon="7.2164877"><ele>567.0</ele><time>2026-04-26T09:52:41.746Z</time></trkpt><trkpt lat="44.9500169" lon="7.2163147"><ele>569.0</ele><time>2026-04-26T09:52:42.746Z</time></trkpt><trkpt lat="44.9500971" lon="7.2161384"><ele>571.0</ele><time>2026-04-26T09:52:43.746Z</time></trkpt><trkpt lat="44.9501763" lon="7.2159648"><ele>573.0</ele><time>2026-04-26T09:52:44.746Z</time></trkpt><trkpt lat="44.9502491" lon="7.215799"><ele>575.0</ele><time>2026-04-26T09:52:45.746Z</time></trkpt><trkpt lat="44.9503094" lon="7.2156492"><ele>575.0</ele><time>2026-04-26T09:52:46.746Z</time></trkpt><trkpt lat="44.9503646" lon="7.2155075"><ele>575.0</ele><time>2026-04-26T09:52:47.746Z</time></trkpt><trkpt lat="44.9504192" lon="7.2153693"><ele>575.0</ele><time>2026-04-26T09:52:48.745Z</time></trkpt><trkpt lat="44.9504708" lon="7.2152421"><ele>575.0</ele><time>2026-04-26T09:52:49.745Z</time></trkpt><trkpt lat="44.9505239" lon="7.2151185"><ele>575.0</ele><time>2026-04-26T09:52:50.746Z</time></trkpt><trkpt lat="44.9505787" lon="7.2149984"><ele>575.0</ele><time>2026-04-26T09:52:51.746Z</time></trkpt><trkpt lat="44.9506329" lon="7.2148747"><ele>575.0</ele><time>2026-04-26T09:52:52.746Z</time></trkpt><trkpt lat="44.9506813" lon="7.2147567"><ele>575.0</ele><time>2026-04-26T09:52:53.746Z</time></trkpt><trkpt lat="44.9507242" lon="7.2146521"><ele>575.0</ele><time>2026-04-26T09:52:54.746Z</time></trkpt><trkpt lat="44.950766" lon="7.2145551"><ele>575.0</ele><time>2026-04-26T09:52:55.746Z</time></trkpt><trkpt lat="44.950803" lon="7.2144753"><ele>575.0</ele><time>2026-04-26T09:52:56.746Z</time></trkpt><trkpt lat="44.9508774" lon="7.2143907"><ele>575.1666666666666</ele><time>2026-04-26T09:52:58.746Z</time></trkpt><trkpt lat="44.9509435" lon="7.21438"><ele>575.3333333333333</ele><time>2026-04-26T09:53:00.746Z</time></trkpt><trkpt lat="44.9510084" lon="7.214319"><ele>575.5</ele><time>2026-04-26T09:53:04.745Z</time></trkpt><trkpt lat="44.9510002" lon="7.2141993"><ele>575.6666666666666</ele><time>2026-04-26T09:56:03.746Z</time></trkpt><trkpt lat="44.9509622" lon="7.2141086"><ele>575.8333333333334</ele><time>2026-04-26T09:56:05.745Z</time></trkpt><trkpt lat="44.9510078" lon="7.2139421"><ele>576.0</ele><time>2026-04-26T09:56:07.746Z</time></trkpt><trkpt lat="44.95105" lon="7.213849"><ele>576.0</ele><time>2026-04-26T09:56:08.746Z</time></trkpt><trkpt lat="44.9511026" lon="7.2137374"><ele>576.0</ele><time>2026-04-26T09:56:09.746Z</time></trkpt><trkpt lat="44.951154" lon="7.2136192"><ele>576.0</ele><time>2026-04-26T09:56:10.746Z</time></trkpt><trkpt lat="44.9512162" lon="7.2134731"><ele>576.0</ele><time>2026-04-26T09:56:11.746Z</time></trkpt><trkpt lat="44.9512876" lon="7.2133035"><ele>575.0</ele><time>2026-04-26T09:56:12.746Z</time></trkpt><trkpt lat="44.9513719" lon="7.213123"><ele>574.0</ele><time>2026-04-26T09:56:13.746Z</time></trkpt><trkpt lat="44.9514672" lon="7.2129265"><ele>573.0</ele><time>2026-04-26T09:56:14.746Z</time></trkpt><trkpt lat="44.9515594" lon="7.2127601"><ele>573.0</ele><time>2026-04-26T09:56:15.746Z</time></trkpt><trkpt lat="44.9516615" lon="7.2126168"><ele>573.0</ele><time>2026-04-26T09:56:16.746Z</time></trkpt><trkpt lat="44.9517814" lon="7.2124903"><ele>573.0</ele><time>2026-04-26T09:56:17.746Z</time></trkpt><trkpt lat="44.9519243" lon="7.2123803"><ele>575.6666666666666</ele><time>2026-04-26T09:56:18.746Z</time></trkpt><trkpt lat="44.9520692" lon="7.2122644"><ele>578.3333333333333</ele><time>2026-04-26T09:56:19.746Z</time></trkpt><trkpt lat="44.9522133" lon="7.212141"><ele>581.0</ele><time>2026-04-26T09:56:20.746Z</time></trkpt><trkpt lat="44.9523564" lon="7.2120104"><ele>581.0</ele><time>2026-04-26T09:56:21.746Z</time></trkpt><trkpt lat="44.9524599" lon="7.211831"><ele>581.0</ele><time>2026-04-26T09:56:22.746Z</time></trkpt><trkpt lat="44.9525512" lon="7.2116348"><ele>581.0</ele><time>2026-04-26T09:56:23.746Z</time></trkpt><trkpt lat="44.9526283" lon="7.2114002"><ele>584.3333333333333</ele><time>2026-04-26T09:56:24.746Z</time></trkpt><trkpt lat="44.9527004" lon="7.2111428"><ele>587.6666666666666</ele><time>2026-04-26T09:56:25.746Z</time></trkpt><trkpt lat="44.9527757" lon="7.2108684"><ele>591.0</ele><time>2026-04-26T09:56:26.746Z</time></trkpt><trkpt lat="44.9528509" lon="7.2105954"><ele>591.0</ele><time>2026-04-26T09:56:27.746Z</time></trkpt><trkpt lat="44.9529279" lon="7.2103127"><ele>591.0</ele><time>2026-04-26T09:56:28.746Z</time></trkpt><trkpt lat="44.9530001" lon="7.2100494"><ele>591.0</ele><time>2026-04-26T09:56:29.746Z</time></trkpt><trkpt lat="44.9530932" lon="7.2098007"><ele>589.3333333333334</ele><time>2026-04-26T09:56:30.746Z</time></trkpt><trkpt lat="44.9532013" lon="7.2095748"><ele>587.6666666666667</ele><time>2026-04-26T09:56:31.746Z</time></trkpt><trkpt lat="44.9533314" lon="7.2093515"><ele>586.0</ele><time>2026-04-26T09:56:32.746Z</time></trkpt><trkpt lat="44.9534613" lon="7.2091149"><ele>589.6666666666667</ele><time>2026-04-26T09:56:33.746Z</time></trkpt><trkpt lat="44.9535804" lon="7.208853"><ele>593.3333333333334</ele><time>2026-04-26T09:56:34.746Z</time></trkpt><trkpt lat="44.9536912" lon="7.208575"><ele>597.0</ele><time>2026-04-26T09:56:35.746Z</time></trkpt><trkpt lat="44.9537777" lon="7.208302"><ele>595.6666666666666</ele><time>2026-04-26T09:56:36.746Z</time></trkpt><trkpt lat="44.9538557" lon="7.2080407"><ele>594.3333333333333</ele><time>2026-04-26T09:56:37.746Z</time></trkpt><trkpt lat="44.9539323" lon="7.2077853"><ele>593.0</ele><time>2026-04-26T09:56:38.746Z</time></trkpt><trkpt lat="44.9540116" lon="7.2075485"><ele>594.3333333333333</ele><time>2026-04-26T09:56:39.746Z</time></trkpt><trkpt lat="44.9540931" lon="7.2073227"><ele>595.6666666666666</ele><time>2026-04-26T09:56:40.746Z</time></trkpt><trkpt lat="44.9541853" lon="7.2071067"><ele>597.0</ele><time>2026-04-26T09:56:41.746Z</time></trkpt><trkpt lat="44.9542735" lon="7.206893"><ele>597.0</ele><time>2026-04-26T09:56:42.746Z</time></trkpt><trkpt lat="44.9543643" lon="7.2066863"><ele>597.0</ele><time>2026-04-26T09:56:43.745Z</time></trkpt><trkpt lat="44.9544669" lon="7.2064687"><ele>597.0</ele><time>2026-04-26T09:56:44.746Z</time></trkpt><trkpt lat="44.9545735" lon="7.2062721"><ele>596.0</ele><time>2026-04-26T09:56:45.746Z</time></trkpt><trkpt lat="44.9546812" lon="7.2060985"><ele>595.0</ele><time>2026-04-26T09:56:46.746Z</time></trkpt><trkpt lat="44.9548081" lon="7.205944"><ele>594.0</ele><time>2026-04-26T09:56:47.746Z</time></trkpt><trkpt lat="44.9549543" lon="7.205798"><ele>598.3333333333334</ele><time>2026-04-26T09:56:48.746Z</time></trkpt><trkpt lat="44.9550911" lon="7.2056422"><ele>602.6666666666667</ele><time>2026-04-26T09:56:49.746Z</time></trkpt><trkpt lat="44.9552015" lon="7.2054598"><ele>607.0</ele><time>2026-04-26T09:56:50.746Z</time></trkpt><trkpt lat="44.9552901" lon="7.2052541"><ele>607.0</ele><time>2026-04-26T09:56:51.746Z</time></trkpt><trkpt lat="44.9553537" lon="7.2050337"><ele>607.0</ele><time>2026-04-26T09:56:52.746Z</time></trkpt><trkpt lat="44.9553943" lon="7.2048133"><ele>607.0</ele><time>2026-04-26T09:56:53.745Z</time></trkpt><trkpt lat="44.9554174" lon="7.2045911"><ele>606.0</ele><time>2026-04-26T09:56:54.746Z</time></trkpt><trkpt lat="44.9554319" lon="7.2043808"><ele>605.0</ele><time>2026-04-26T09:56:55.746Z</time></trkpt><trkpt lat="44.9554452" lon="7.204176"><ele>604.0</ele><time>2026-04-26T09:56:56.746Z</time></trkpt><trkpt lat="44.9554573" lon="7.2039673"><ele>603.0</ele><time>2026-04-26T09:56:57.746Z</time></trkpt><trkpt lat="44.955467" lon="7.2037536"><ele>602.25</ele><time>2026-04-26T09:56:58.746Z</time></trkpt><trkpt lat="44.95548" lon="7.2035411"><ele>601.5</ele><time>2026-04-26T09:56:59.746Z</time></trkpt><trkpt lat="44.955492" lon="7.20333"><ele>600.75</ele><time>2026-04-26T09:57:00.746Z</time></trkpt><trkpt lat="44.9555056" lon="7.2031331"><ele>600.0</ele><time>2026-04-26T09:57:01.746Z</time></trkpt><trkpt lat="44.9555171" lon="7.2029517"><ele>600.0</ele><time>2026-04-26T09:57:02.746Z</time></trkpt><trkpt lat="44.9555246" lon="7.2027981"><ele>600.0</ele><time>2026-04-26T09:57:03.746Z</time></trkpt><trkpt lat="44.9555183" lon="7.2026634"><ele>600.0</ele><time>2026-04-26T09:57:04.746Z</time></trkpt><trkpt lat="44.9554942" lon="7.2025556"><ele>600.0</ele><time>2026-04-26T09:57:05.746Z</time></trkpt><trkpt lat="44.9554395" lon="7.2024801"><ele>600.0</ele><time>2026-04-26T09:57:06.746Z</time></trkpt><trkpt lat="44.9553478" lon="7.2023984"><ele>600.2</ele><time>2026-04-26T09:57:08.746Z</time></trkpt><trkpt lat="44.9552993" lon="7.2023168"><ele>600.4</ele><time>2026-04-26T09:57:10.746Z</time></trkpt><trkpt lat="44.9553067" lon="7.2022216"><ele>600.6</ele><time>2026-04-26T09:57:12.746Z</time></trkpt><trkpt lat="44.9553615" lon="7.2020506"><ele>600.8</ele><time>2026-04-26T09:57:14.746Z</time></trkpt><trkpt lat="44.9553968" lon="7.2019465"><ele>601.0</ele><time>2026-04-26T09:57:15.746Z</time></trkpt><trkpt lat="44.9554266" lon="7.2018187"><ele>601.0</ele><time>2026-04-26T09:57:16.746Z</time></trkpt><trkpt lat="44.9554443" lon="7.201663"><ele>601.0</ele><time>2026-04-26T09:57:17.746Z</time></trkpt><trkpt lat="44.9554461" lon="7.201485"><ele>601.0</ele><time>2026-04-26T09:57:18.746Z</time></trkpt><trkpt lat="44.9554376" lon="7.2013069"><ele>601.0</ele><time>2026-04-26T09:57:19.745Z</time></trkpt><trkpt lat="44.9554232" lon="7.2011164"><ele>601.25</ele><time>2026-04-26T09:57:20.746Z</time></trkpt><trkpt lat="44.9554104" lon="7.2009482"><ele>601.5</ele><time>2026-04-26T09:57:21.746Z</time></trkpt><trkpt lat="44.9553981" lon="7.2007842"><ele>601.75</ele><time>2026-04-26T09:57:22.746Z</time></trkpt><trkpt lat="44.9553871" lon="7.200633"><ele>602.0</ele><time>2026-04-26T09:57:23.746Z</time></trkpt><trkpt lat="44.9553773" lon="7.2004828"><ele>602.0</ele><time>2026-04-26T09:57:24.746Z</time></trkpt><trkpt lat="44.9553693" lon="7.2003314"><ele>602.0</ele><time>2026-04-26T09:57:25.746Z</time></trkpt><trkpt lat="44.9553589" lon="7.2001746"><ele>602.0</ele><time>2026-04-26T09:57:26.746Z</time></trkpt><trkpt lat="44.9553448" lon="7.2000211"><ele>602.0</ele><time>2026-04-26T09:57:27.746Z</time></trkpt><trkpt lat="44.955334" lon="7.1998765"><ele>602.0</ele><time>2026-04-26T09:57:28.746Z</time></trkpt><trkpt lat="44.9553246" lon="7.1997354"><ele>602.2</ele><time>2026-04-26T09:57:29.746Z</time></trkpt><trkpt lat="44.9553156" lon="7.1995978"><ele>602.4000000000001</ele><time>2026-04-26T09:57:30.746Z</time></trkpt><trkpt lat="44.9553054" lon="7.199461"><ele>602.5999999999999</ele><time>2026-04-26T09:57:31.746Z</time></trkpt><trkpt lat="44.9552934" lon="7.1993258"><ele>602.8</ele><time>2026-04-26T09:57:32.746Z</time></trkpt><trkpt lat="44.9552805" lon="7.199187"><ele>603.0</ele><time>2026-04-26T09:57:33.746Z</time></trkpt><trkpt lat="44.9552662" lon="7.1990485"><ele>604.4</ele><time>2026-04-26T09:57:34.746Z</time></trkpt><trkpt lat="44.9552521" lon="7.1989093"><ele>605.8</ele><time>2026-04-26T09:57:35.746Z</time></trkpt><trkpt lat="44.9552363" lon="7.1987651"><ele>607.2</ele><time>2026-04-26T09:57:36.746Z</time></trkpt><trkpt lat="44.9552138" lon="7.1986144"><ele>608.6</ele><time>2026-04-26T09:57:37.746Z</time></trkpt><trkpt lat="44.9551826" lon="7.1984498"><ele>610.0</ele><time>2026-04-26T09:57:38.746Z</time></trkpt><trkpt lat="44.9551369" lon="7.1982785"><ele>611.75</ele><time>2026-04-26T09:57:39.746Z</time></trkpt><trkpt lat="44.9550834" lon="7.1981053"><ele>613.5</ele><time>2026-04-26T09:57:40.746Z</time></trkpt><trkpt lat="44.9550179" lon="7.1979472"><ele>615.25</ele><time>2026-04-26T09:57:41.746Z</time></trkpt><trkpt lat="44.9549468" lon="7.1978016"><ele>617.0</ele><time>2026-04-26T09:57:42.746Z</time></trkpt><trkpt lat="44.9548717" lon="7.1976615"><ele>615.75</ele><time>2026-04-26T09:57:43.746Z</time></trkpt><trkpt lat="44.9547932" lon="7.1975422"><ele>614.5</ele><time>2026-04-26T09:57:44.746Z</time></trkpt><trkpt lat="44.9547025" lon="7.1974255"><ele>613.25</ele><time>2026-04-26T09:57:45.746Z</time></trkpt><trkpt lat="44.9545973" lon="7.1973058"><ele>612.0</ele><time>2026-04-26T09:57:46.745Z</time></trkpt><trkpt lat="44.9544876" lon="7.1972082"><ele>612.0</ele><time>2026-04-26T09:57:47.746Z</time></trkpt><trkpt lat="44.9543738" lon="7.1971211"><ele>612.0</ele><time>2026-04-26T09:57:48.746Z</time></trkpt><trkpt lat="44.9542635" lon="7.197034"><ele>612.0</ele><time>2026-04-26T09:57:49.746Z</time></trkpt><trkpt lat="44.9541484" lon="7.1969523"><ele>612.0</ele><time>2026-04-26T09:57:50.746Z</time></trkpt><trkpt lat="44.9540344" lon="7.1968657"><ele>610.75</ele><time>2026-04-26T09:57:51.745Z</time></trkpt><trkpt lat="44.9539205" lon="7.1967624"><ele>609.5</ele><time>2026-04-26T09:57:52.746Z</time></trkpt><trkpt lat="44.9538129" lon="7.1966455"><ele>608.25</ele><time>2026-04-26T09:57:53.745Z</time></trkpt><trkpt lat="44.9537159" lon="7.1965199"><ele>607.0</ele><time>2026-04-26T09:57:54.746Z</time></trkpt><trkpt lat="44.9536283" lon="7.196383"><ele>609.75</ele><time>2026-04-26T09:57:55.746Z</time></trkpt><trkpt lat="44.9535482" lon="7.1962289"><ele>612.5</ele><time>2026-04-26T09:57:56.746Z</time></trkpt><trkpt lat="44.9534795" lon="7.196062"><ele>615.25</ele><time>2026-04-26T09:57:57.745Z</time></trkpt><trkpt lat="44.9534217" lon="7.1958828"><ele>618.0</ele><time>2026-04-26T09:57:58.745Z</time></trkpt><trkpt lat="44.9533757" lon="7.1956923"><ele>614.75</ele><time>2026-04-26T09:57:59.746Z</time></trkpt><trkpt lat="44.9533362" lon="7.1955002"><ele>611.5</ele><time>2026-04-26T09:58:00.746Z</time></trkpt><trkpt lat="44.9533043" lon="7.1953144"><ele>608.25</ele><time>2026-04-26T09:58:01.746Z</time></trkpt><trkpt lat="44.9532792" lon="7.1951438"><ele>605.0</ele><time>2026-04-26T09:58:02.746Z</time></trkpt><trkpt lat="44.953279" lon="7.1949942"><ele>605.0</ele><time>2026-04-26T09:58:03.746Z</time></trkpt><trkpt lat="44.9533008" lon="7.1948533"><ele>605.0</ele><time>2026-04-26T09:58:04.746Z</time></trkpt><trkpt lat="44.9533521" lon="7.194724"><ele>605.0</ele><time>2026-04-26T09:58:05.746Z</time></trkpt><trkpt lat="44.9534295" lon="7.1946231"><ele>605.0</ele><time>2026-04-26T09:58:06.746Z</time></trkpt><trkpt lat="44.9535287" lon="7.1945411"><ele>605.0</ele><time>2026-04-26T09:58:07.746Z</time></trkpt><trkpt lat="44.9536476" lon="7.1944877"><ele>605.25</ele><time>2026-04-26T09:58:08.746Z</time></trkpt><trkpt lat="44.9537719" lon="7.1944909"><ele>605.5</ele><time>2026-04-26T09:58:09.746Z</time></trkpt><trkpt lat="44.9538885" lon="7.1945372"><ele>605.75</ele><time>2026-04-26T09:58:10.746Z</time></trkpt><trkpt lat="44.9540093" lon="7.1945952"><ele>606.0</ele><time>2026-04-26T09:58:11.746Z</time></trkpt><trkpt lat="44.9541416" lon="7.1946381"><ele>607.25</ele><time>2026-04-26T09:58:12.746Z</time></trkpt><trkpt lat="44.954282" lon="7.1946587"><ele>608.5</ele><time>2026-04-26T09:58:13.746Z</time></trkpt><trkpt lat="44.9544059" lon="7.1946436"><ele>609.75</ele><time>2026-04-26T09:58:14.746Z</time></trkpt><trkpt lat="44.9545324" lon="7.1946145"><ele>611.0</ele><time>2026-04-26T09:58:15.746Z</time></trkpt><trkpt lat="44.9546496" lon="7.1945678"><ele>611.0</ele><time>2026-04-26T09:58:16.746Z</time></trkpt><trkpt lat="44.9547664" lon="7.1945124"><ele>611.0</ele><time>2026-04-26T09:58:17.746Z</time></trkpt><trkpt lat="44.954883" lon="7.1944538"><ele>611.0</ele><time>2026-04-26T09:58:18.745Z</time></trkpt><trkpt lat="44.954996" lon="7.1943987"><ele>611.0</ele><time>2026-04-26T09:58:19.746Z</time></trkpt><trkpt lat="44.9551059" lon="7.1943419"><ele>613.75</ele><time>2026-04-26T09:58:20.746Z</time></trkpt><trkpt lat="44.9552136" lon="7.1942868"><ele>616.5</ele><time>2026-04-26T09:58:21.746Z</time></trkpt><trkpt lat="44.9553177" lon="7.194218"><ele>619.25</ele><time>2026-04-26T09:58:22.746Z</time></trkpt><trkpt lat="44.9554197" lon="7.194143"><ele>622.0</ele><time>2026-04-26T09:58:23.746Z</time></trkpt><trkpt lat="44.9555156" lon="7.1940629"><ele>620.4</ele><time>2026-04-26T09:58:24.746Z</time></trkpt><trkpt lat="44.9555967" lon="7.1939768"><ele>618.8000000000001</ele><time>2026-04-26T09:58:25.746Z</time></trkpt><trkpt lat="44.9556704" lon="7.1938783"><ele>617.2</ele><time>2026-04-26T09:58:26.745Z</time></trkpt><trkpt lat="44.9557348" lon="7.1937669"><ele>615.6</ele><time>2026-04-26T09:58:27.746Z</time></trkpt><trkpt lat="44.955794" lon="7.1936466"><ele>614.0</ele><time>2026-04-26T09:58:28.746Z</time></trkpt><trkpt lat="44.9558533" lon="7.1935207"><ele>615.4</ele><time>2026-04-26T09:58:29.746Z</time></trkpt><trkpt lat="44.9559074" lon="7.1933942"><ele>616.8</ele><time>2026-04-26T09:58:30.746Z</time></trkpt><trkpt lat="44.9559579" lon="7.1932744"><ele>618.2</ele><time>2026-04-26T09:58:31.746Z</time></trkpt><trkpt lat="44.9560036" lon="7.1931645"><ele>619.6</ele><time>2026-04-26T09:58:32.746Z</time></trkpt><trkpt lat="44.956046" lon="7.1930601"><ele>621.0</ele><time>2026-04-26T09:58:33.746Z</time></trkpt><trkpt lat="44.9560895" lon="7.1929534"><ele>621.0</ele><time>2026-04-26T09:58:34.746Z</time></trkpt><trkpt lat="44.9561456" lon="7.1928439"><ele>621.0</ele><time>2026-04-26T09:58:35.746Z</time></trkpt><trkpt lat="44.9561961" lon="7.1927012"><ele>621.0</ele><time>2026-04-26T09:58:36.746Z</time></trkpt><trkpt lat="44.9562916" lon="7.1925872"><ele>621.0</ele><time>2026-04-26T09:58:37.746Z</time></trkpt><trkpt lat="44.9563725" lon="7.1924846"><ele>621.0</ele><time>2026-04-26T09:58:38.746Z</time></trkpt><trkpt lat="44.9564499" lon="7.1923839"><ele>621.0</ele><time>2026-04-26T09:58:39.746Z</time></trkpt><trkpt lat="44.9565289" lon="7.1922905"><ele>621.0</ele><time>2026-04-26T09:58:40.746Z</time></trkpt><trkpt lat="44.9566003" lon="7.1922129"><ele>621.0</ele><time>2026-04-26T09:58:41.746Z</time></trkpt><trkpt lat="44.9566681" lon="7.1921389"><ele>621.0</ele><time>2026-04-26T09:58:42.746Z</time></trkpt><trkpt lat="44.9567254" lon="7.1920725"><ele>621.0</ele><time>2026-04-26T09:58:43.746Z</time></trkpt><trkpt lat="44.9567772" lon="7.1920065"><ele>621.0</ele><time>2026-04-26T09:58:44.746Z</time></trkpt><trkpt lat="44.9568348" lon="7.1918717"><ele>621.8</ele><time>2026-04-26T09:58:46.746Z</time></trkpt><trkpt lat="44.9568135" lon="7.1917354"><ele>622.6</ele><time>2026-04-26T09:58:48.746Z</time></trkpt><trkpt lat="44.9567688" lon="7.1916116"><ele>623.4</ele><time>2026-04-26T09:58:50.746Z</time></trkpt><trkpt lat="44.9567484" lon="7.1914843"><ele>624.2</ele><time>2026-04-26T09:58:52.746Z</time></trkpt><trkpt lat="44.9567393" lon="7.1913433"><ele>625.0</ele><time>2026-04-26T09:58:54.746Z</time></trkpt><trkpt lat="44.9567114" lon="7.1912023"><ele>624.2</ele><time>2026-04-26T09:58:56.746Z</time></trkpt><trkpt lat="44.9567021" lon="7.1911097"><ele>623.4</ele><time>2026-04-26T09:58:57.746Z</time></trkpt><trkpt lat="44.9566758" lon="7.1909883"><ele>622.6</ele><time>2026-04-26T09:58:58.746Z</time></trkpt><trkpt lat="44.9566486" lon="7.1908441"><ele>621.8</ele><time>2026-04-26T09:58:59.746Z</time></trkpt><trkpt lat="44.9566275" lon="7.190682"><ele>621.0</ele><time>2026-04-26T09:59:00.746Z</time></trkpt><trkpt lat="44.9566161" lon="7.190534"><ele>620.4</ele><time>2026-04-26T09:59:01.746Z</time></trkpt><trkpt lat="44.9566077" lon="7.1903974"><ele>619.8</ele><time>2026-04-26T09:59:02.746Z</time></trkpt><trkpt lat="44.9565989" lon="7.1902571"><ele>619.1999999999999</ele><time>2026-04-26T09:59:03.746Z</time></trkpt><trkpt lat="44.9566026" lon="7.1901151"><ele>618.6</ele><time>2026-04-26T09:59:04.745Z</time></trkpt><trkpt lat="44.9566087" lon="7.1899752"><ele>618.0</ele><time>2026-04-26T09:59:05.745Z</time></trkpt><trkpt lat="44.9566152" lon="7.1898439"><ele>617.8</ele><time>2026-04-26T09:59:06.745Z</time></trkpt><trkpt lat="44.9566255" lon="7.189715"><ele>617.5999999999999</ele><time>2026-04-26T09:59:07.746Z</time></trkpt><trkpt lat="44.9566414" lon="7.1895864"><ele>617.4000000000001</ele><time>2026-04-26T09:59:08.746Z</time></trkpt><trkpt lat="44.9566647" lon="7.1894618"><ele>617.2</ele><time>2026-04-26T09:59:09.746Z</time></trkpt><trkpt lat="44.9566987" lon="7.1893375"><ele>617.0</ele><time>2026-04-26T09:59:10.746Z</time></trkpt><trkpt lat="44.956747" lon="7.1892129"><ele>617.0</ele><time>2026-04-26T09:59:11.746Z</time></trkpt><trkpt lat="44.9567966" lon="7.1890851"><ele>617.0</ele><time>2026-04-26T09:59:12.746Z</time></trkpt><trkpt lat="44.9568432" lon="7.1889608"><ele>617.0</ele><time>2026-04-26T09:59:13.746Z</time></trkpt><trkpt lat="44.9568884" lon="7.1888419"><ele>617.0</ele><time>2026-04-26T09:59:14.746Z</time></trkpt><trkpt lat="44.9569309" lon="7.1887331"><ele>617.0</ele><time>2026-04-26T09:59:15.746Z</time></trkpt><trkpt lat="44.9569681" lon="7.1886285"><ele>616.3333333333333</ele><time>2026-04-26T09:59:16.746Z</time></trkpt><trkpt lat="44.9570056" lon="7.1885313"><ele>615.6666666666666</ele><time>2026-04-26T09:59:17.746Z</time></trkpt><trkpt lat="44.9570383" lon="7.1884491"><ele>615.0</ele><time>2026-04-26T09:59:18.746Z</time></trkpt><trkpt lat="44.9570722" lon="7.1883628"><ele>614.3333333333334</ele><time>2026-04-26T09:59:20.746Z</time></trkpt><trkpt lat="44.9571191" lon="7.1882651"><ele>613.6666666666667</ele><time>2026-04-26T09:59:24.746Z</time></trkpt><trkpt lat="44.9571738" lon="7.1881125"><ele>613.0</ele><time>2026-04-26T09:59:26.746Z</time></trkpt><trkpt lat="44.9572009" lon="7.1880115"><ele>613.0</ele><time>2026-04-26T09:59:27.745Z</time></trkpt><trkpt lat="44.9572315" lon="7.1879119"><ele>613.0</ele><time>2026-04-26T09:59:28.746Z</time></trkpt><trkpt lat="44.9572623" lon="7.1878107"><ele>613.0</ele><time>2026-04-26T09:59:29.746Z</time></trkpt><trkpt lat="44.9572893" lon="7.1876819"><ele>613.0</ele><time>2026-04-26T09:59:30.746Z</time></trkpt><trkpt lat="44.9573096" lon="7.1875456"><ele>613.0</ele><time>2026-04-26T09:59:31.746Z</time></trkpt><trkpt lat="44.9573031" lon="7.1874069"><ele>613.0</ele><time>2026-04-26T09:59:32.746Z</time></trkpt><trkpt lat="44.9572714" lon="7.1872791"><ele>612.4</ele><time>2026-04-26T09:59:33.746Z</time></trkpt><trkpt lat="44.9572231" lon="7.1871676"><ele>611.8</ele><time>2026-04-26T09:59:34.746Z</time></trkpt><trkpt lat="44.9571644" lon="7.187066"><ele>611.2</ele><time>2026-04-26T09:59:35.746Z</time></trkpt><trkpt lat="44.9571071" lon="7.1869729"><ele>610.6</ele><time>2026-04-26T09:59:36.745Z</time></trkpt><trkpt lat="44.957046" lon="7.1868739"><ele>610.0</ele><time>2026-04-26T09:59:37.746Z</time></trkpt><trkpt lat="44.9569756" lon="7.1867761"><ele>610.0</ele><time>2026-04-26T09:59:38.746Z</time></trkpt><trkpt lat="44.956902" lon="7.1866766"><ele>610.0</ele><time>2026-04-26T09:59:39.746Z</time></trkpt><trkpt lat="44.9568245" lon="7.1865641"><ele>610.0</ele><time>2026-04-26T09:59:40.746Z</time></trkpt><trkpt lat="44.956743" lon="7.1864487"><ele>610.0</ele><time>2026-04-26T09:59:41.746Z</time></trkpt><trkpt lat="44.9566621" lon="7.1863302"><ele>610.0</ele><time>2026-04-26T09:59:42.746Z</time></trkpt><trkpt lat="44.9565911" lon="7.1862104"><ele>610.2</ele><time>2026-04-26T09:59:43.746Z</time></trkpt><trkpt lat="44.9565234" lon="7.1860896"><ele>610.4</ele><time>2026-04-26T09:59:44.746Z</time></trkpt><trkpt lat="44.956457" lon="7.1859684"><ele>610.6</ele><time>2026-04-26T09:59:45.746Z</time></trkpt><trkpt lat="44.956399" lon="7.1858402"><ele>610.8</ele><time>2026-04-26T09:59:46.746Z</time></trkpt><trkpt lat="44.9563459" lon="7.1857095"><ele>611.0</ele><time>2026-04-26T09:59:47.746Z</time></trkpt><trkpt lat="44.9563015" lon="7.185574"><ele>611.8</ele><time>2026-04-26T09:59:48.746Z</time></trkpt><trkpt lat="44.9562592" lon="7.185439"><ele>612.6</ele><time>2026-04-26T09:59:49.746Z</time></trkpt><trkpt lat="44.9562184" lon="7.1853029"><ele>613.4</ele><time>2026-04-26T09:59:50.746Z</time></trkpt><trkpt lat="44.9561827" lon="7.1851624"><ele>614.2</ele><time>2026-04-26T09:59:51.746Z</time></trkpt><trkpt lat="44.9561504" lon="7.1850169"><ele>615.0</ele><time>2026-04-26T09:59:52.746Z</time></trkpt><trkpt lat="44.9561243" lon="7.1848722"><ele>615.5</ele><time>2026-04-26T09:59:53.746Z</time></trkpt><trkpt lat="44.9561065" lon="7.1847138"><ele>616.0</ele><time>2026-04-26T09:59:54.746Z</time></trkpt><trkpt lat="44.9560902" lon="7.1845412"><ele>616.5</ele><time>2026-04-26T09:59:55.746Z</time></trkpt><trkpt lat="44.9560789" lon="7.1843635"><ele>617.0</ele><time>2026-04-26T09:59:56.746Z</time></trkpt><trkpt lat="44.9560673" lon="7.1841871"><ele>617.5</ele><time>2026-04-26T09:59:57.746Z</time></trkpt><trkpt lat="44.9560583" lon="7.1840034"><ele>618.0</ele><time>2026-04-26T09:59:58.745Z</time></trkpt><trkpt lat="44.9560494" lon="7.1838096"><ele>618.5</ele><time>2026-04-26T09:59:59.746Z</time></trkpt><trkpt lat="44.95604" lon="7.1836173"><ele>619.0</ele><time>2026-04-26T10:00:00.746Z</time></trkpt><trkpt lat="44.9560281" lon="7.1834456"><ele>619.0</ele><time>2026-04-26T10:00:01.746Z</time></trkpt><trkpt lat="44.9560173" lon="7.1832743"><ele>619.0</ele><time>2026-04-26T10:00:02.746Z</time></trkpt><trkpt lat="44.9559994" lon="7.1831014"><ele>619.0</ele><time>2026-04-26T10:00:03.746Z</time></trkpt><trkpt lat="44.9559777" lon="7.182944"><ele>619.0</ele><time>2026-04-26T10:00:04.746Z</time></trkpt><trkpt lat="44.9559511" lon="7.1828016"><ele>618.8</ele><time>2026-04-26T10:00:05.746Z</time></trkpt><trkpt lat="44.9559193" lon="7.1826631"><ele>618.5999999999999</ele><time>2026-04-26T10:00:06.746Z</time></trkpt><trkpt lat="44.9558842" lon="7.1825274"><ele>618.4</ele><time>2026-04-26T10:00:07.746Z</time></trkpt><trkpt lat="44.9558517" lon="7.1823876"><ele>618.1999999999999</ele><time>2026-04-26T10:00:08.746Z</time></trkpt><trkpt lat="44.9558078" lon="7.1822562"><ele>618.0</ele><time>2026-04-26T10:00:09.746Z</time></trkpt><trkpt lat="44.9557599" lon="7.1821328"><ele>618.6</ele><time>2026-04-26T10:00:10.746Z</time></trkpt><trkpt lat="44.9557039" lon="7.1819986"><ele>619.1999999999999</ele><time>2026-04-26T10:00:11.746Z</time></trkpt><trkpt lat="44.9556503" lon="7.1818749"><ele>619.8</ele><time>2026-04-26T10:00:12.746Z</time></trkpt><trkpt lat="44.9555952" lon="7.1817509"><ele>620.4</ele><time>2026-04-26T10:00:13.746Z</time></trkpt><trkpt lat="44.955535" lon="7.1816206"><ele>621.0</ele><time>2026-04-26T10:00:14.746Z</time></trkpt><trkpt lat="44.9554793" lon="7.1814904"><ele>622.8</ele><time>2026-04-26T10:00:15.746Z</time></trkpt><trkpt lat="44.955425" lon="7.1813673"><ele>624.6</ele><time>2026-04-26T10:00:16.746Z</time></trkpt><trkpt lat="44.9553707" lon="7.1812422"><ele>626.4</ele><time>2026-04-26T10:00:17.745Z</time></trkpt><trkpt lat="44.9553171" lon="7.1811225"><ele>628.2</ele><time>2026-04-26T10:00:18.746Z</time></trkpt><trkpt lat="44.9552652" lon="7.1810047"><ele>630.0</ele><time>2026-04-26T10:00:19.746Z</time></trkpt><trkpt lat="44.9552129" lon="7.1808876"><ele>630.0</ele><time>2026-04-26T10:00:20.746Z</time></trkpt><trkpt lat="44.9551618" lon="7.1807713"><ele>630.0</ele><time>2026-04-26T10:00:21.746Z</time></trkpt><trkpt lat="44.955109" lon="7.1806548"><ele>630.0</ele><time>2026-04-26T10:00:22.746Z</time></trkpt><trkpt lat="44.9550573" lon="7.1805344"><ele>630.0</ele><time>2026-04-26T10:00:23.746Z</time></trkpt><trkpt lat="44.9550053" lon="7.1804135"><ele>630.0</ele><time>2026-04-26T10:00:24.746Z</time></trkpt><trkpt lat="44.954951" lon="7.1802924"><ele>630.6</ele><time>2026-04-26T10:00:25.746Z</time></trkpt><trkpt lat="44.954899" lon="7.1801722"><ele>631.2</ele><time>2026-04-26T10:00:26.746Z</time></trkpt><trkpt lat="44.9548444" lon="7.1800509"><ele>631.8</ele><time>2026-04-26T10:00:27.746Z</time></trkpt><trkpt lat="44.9547867" lon="7.1799251"><ele>632.4</ele><time>2026-04-26T10:00:28.746Z</time></trkpt><trkpt lat="44.9547292" lon="7.1797926"><ele>633.0</ele><time>2026-04-26T10:00:29.746Z</time></trkpt><trkpt lat="44.9546718" lon="7.1796513"><ele>633.0</ele><time>2026-04-26T10:00:30.746Z</time></trkpt><trkpt lat="44.9546126" lon="7.1795115"><ele>633.0</ele><time>2026-04-26T10:00:31.746Z</time></trkpt><trkpt lat="44.9545487" lon="7.1793727"><ele>633.0</ele><time>2026-04-26T10:00:32.746Z</time></trkpt><trkpt lat="44.9544855" lon="7.1792292"><ele>633.0</ele><time>2026-04-26T10:00:33.746Z</time></trkpt><trkpt lat="44.9544266" lon="7.1790889"><ele>638.0</ele><time>2026-04-26T10:00:34.746Z</time></trkpt><trkpt lat="44.9543691" lon="7.1789543"><ele>643.0</ele><time>2026-04-26T10:00:35.746Z</time></trkpt><trkpt lat="44.9543217" lon="7.1788192"><ele>648.0</ele><time>2026-04-26T10:00:36.746Z</time></trkpt><trkpt lat="44.954283" lon="7.178691"><ele>653.0</ele><time>2026-04-26T10:00:37.746Z</time></trkpt><trkpt lat="44.9542527" lon="7.1785694"><ele>658.0</ele><time>2026-04-26T10:00:38.746Z</time></trkpt><trkpt lat="44.9542284" lon="7.1784457"><ele>658.0</ele><time>2026-04-26T10:00:39.746Z</time></trkpt><trkpt lat="44.9542111" lon="7.1783119"><ele>658.0</ele><time>2026-04-26T10:00:40.746Z</time></trkpt><trkpt lat="44.9541992" lon="7.1781686"><ele>658.0</ele><time>2026-04-26T10:00:41.746Z</time></trkpt><trkpt lat="44.9541935" lon="7.1780251"><ele>658.0</ele><time>2026-04-26T10:00:42.746Z</time></trkpt><trkpt lat="44.9541862" lon="7.1778642"><ele>658.0</ele><time>2026-04-26T10:00:43.746Z</time></trkpt><trkpt lat="44.9541786" lon="7.1776988"><ele>651.75</ele><time>2026-04-26T10:00:44.746Z</time></trkpt><trkpt lat="44.9541702" lon="7.1775272"><ele>645.5</ele><time>2026-04-26T10:00:45.746Z</time></trkpt><trkpt lat="44.9541605" lon="7.1773596"><ele>639.25</ele><time>2026-04-26T10:00:46.746Z</time></trkpt><trkpt lat="44.9541558" lon="7.1772054"><ele>633.0</ele><time>2026-04-26T10:00:47.746Z</time></trkpt><trkpt lat="44.9541547" lon="7.1770483"><ele>633.0</ele><time>2026-04-26T10:00:48.746Z</time></trkpt><trkpt lat="44.9541584" lon="7.1768944"><ele>633.0</ele><time>2026-04-26T10:00:49.746Z</time></trkpt><trkpt lat="44.9541666" lon="7.1767432"><ele>633.0</ele><time>2026-04-26T10:00:50.746Z</time></trkpt><trkpt lat="44.9541746" lon="7.1766031"><ele>633.0</ele><time>2026-04-26T10:00:51.746Z</time></trkpt><trkpt lat="44.9541828" lon="7.1764549"><ele>633.0</ele><time>2026-04-26T10:00:52.746Z</time></trkpt><trkpt lat="44.9541977" lon="7.1762941"><ele>645.75</ele><time>2026-04-26T10:00:53.746Z</time></trkpt><trkpt lat="44.9542336" lon="7.1761168"><ele>658.5</ele><time>2026-04-26T10:00:54.746Z</time></trkpt><trkpt lat="44.9542761" lon="7.1759409"><ele>671.25</ele><time>2026-04-26T10:00:55.746Z</time></trkpt><trkpt lat="44.9543275" lon="7.1757608"><ele>684.0</ele><time>2026-04-26T10:00:56.746Z</time></trkpt><trkpt lat="44.9543735" lon="7.1755884"><ele>684.5</ele><time>2026-04-26T10:00:57.746Z</time></trkpt><trkpt lat="44.954405" lon="7.1754074"><ele>685.0</ele><time>2026-04-26T10:00:58.746Z</time></trkpt><trkpt lat="44.9544175" lon="7.17522"><ele>685.5</ele><time>2026-04-26T10:00:59.746Z</time></trkpt><trkpt lat="44.9544165" lon="7.1750421"><ele>686.0</ele><time>2026-04-26T10:01:00.746Z</time></trkpt><trkpt lat="44.9543992" lon="7.1748711"><ele>688.5999999999999</ele><time>2026-04-26T10:01:01.746Z</time></trkpt><trkpt lat="44.9543709" lon="7.174719"><ele>691.2</ele><time>2026-04-26T10:01:02.746Z</time></trkpt><trkpt lat="44.9543369" lon="7.1745773"><ele>693.8</ele><time>2026-04-26T10:01:03.746Z</time></trkpt><trkpt lat="44.9542945" lon="7.1744445"><ele>696.4000000000001</ele><time>2026-04-26T10:01:04.745Z</time></trkpt><trkpt lat="44.9542425" lon="7.1743163"><ele>699.0</ele><time>2026-04-26T10:01:05.746Z</time></trkpt><trkpt lat="44.9541768" lon="7.1742028"><ele>692.75</ele><time>2026-04-26T10:01:06.746Z</time></trkpt><trkpt lat="44.9540925" lon="7.1741123"><ele>686.5</ele><time>2026-04-26T10:01:07.746Z</time></trkpt><trkpt lat="44.9539945" lon="7.1740403"><ele>680.25</ele><time>2026-04-26T10:01:08.746Z</time></trkpt><trkpt lat="44.9538817" lon="7.1739875"><ele>674.0</ele><time>2026-04-26T10:01:09.746Z</time></trkpt><trkpt lat="44.9537558" lon="7.1739356"><ele>674.0</ele><time>2026-04-26T10:01:10.746Z</time></trkpt><trkpt lat="44.9536183" lon="7.1738856"><ele>674.0</ele><time>2026-04-26T10:01:11.746Z</time></trkpt><trkpt lat="44.9534692" lon="7.1738307"><ele>674.0</ele><time>2026-04-26T10:01:12.746Z</time></trkpt><trkpt lat="44.9533165" lon="7.1737785"><ele>662.3333333333333</ele><time>2026-04-26T10:01:13.746Z</time></trkpt><trkpt lat="44.9531654" lon="7.1737294"><ele>650.6666666666666</ele><time>2026-04-26T10:01:14.746Z</time></trkpt><trkpt lat="44.9530136" lon="7.1736766"><ele>639.0</ele><time>2026-04-26T10:01:15.746Z</time></trkpt><trkpt lat="44.9528619" lon="7.1736203"><ele>639.0</ele><time>2026-04-26T10:01:16.746Z</time></trkpt><trkpt lat="44.9527101" lon="7.1735665"><ele>639.0</ele><time>2026-04-26T10:01:17.746Z</time></trkpt><trkpt lat="44.9525679" lon="7.1735168"><ele>639.0</ele><time>2026-04-26T10:01:18.746Z</time></trkpt><trkpt lat="44.9524375" lon="7.1734725"><ele>639.0</ele><time>2026-04-26T10:01:19.746Z</time></trkpt><trkpt lat="44.9523035" lon="7.1734193"><ele>637.25</ele><time>2026-04-26T10:01:20.746Z</time></trkpt><trkpt lat="44.9521701" lon="7.1733538"><ele>635.5</ele><time>2026-04-26T10:01:21.746Z</time></trkpt><trkpt lat="44.9520397" lon="7.1732727"><ele>633.75</ele><time>2026-04-26T10:01:22.746Z</time></trkpt><trkpt lat="44.951914" lon="7.1731738"><ele>632.0</ele><time>2026-04-26T10:01:23.746Z</time></trkpt><trkpt lat="44.951794" lon="7.1730671"><ele>633.5</ele><time>2026-04-26T10:01:24.746Z</time></trkpt><trkpt lat="44.9516826" lon="7.1729412"><ele>635.0</ele><time>2026-04-26T10:01:25.745Z</time></trkpt><trkpt lat="44.951579" lon="7.1728014"><ele>636.5</ele><time>2026-04-26T10:01:26.746Z</time></trkpt><trkpt lat="44.9514849" lon="7.1726472"><ele>638.0</ele><time>2026-04-26T10:01:27.746Z</time></trkpt><trkpt lat="44.9514008" lon="7.1724797"><ele>640.25</ele><time>2026-04-26T10:01:28.746Z</time></trkpt><trkpt lat="44.9513262" lon="7.1722983"><ele>642.5</ele><time>2026-04-26T10:01:29.746Z</time></trkpt><trkpt lat="44.9512694" lon="7.1721097"><ele>644.75</ele><time>2026-04-26T10:01:30.746Z</time></trkpt><trkpt lat="44.9512202" lon="7.1719152"><ele>647.0</ele><time>2026-04-26T10:01:31.746Z</time></trkpt><trkpt lat="44.9511853" lon="7.1717071"><ele>649.0</ele><time>2026-04-26T10:01:32.746Z</time></trkpt><trkpt lat="44.9511687" lon="7.1714939"><ele>651.0</ele><time>2026-04-26T10:01:33.746Z</time></trkpt><trkpt lat="44.9511666" lon="7.1712536"><ele>653.0</ele><time>2026-04-26T10:01:34.746Z</time></trkpt><trkpt lat="44.9511743" lon="7.1709969"><ele>653.0</ele><time>2026-04-26T10:01:35.746Z</time></trkpt><trkpt lat="44.9511866" lon="7.170731"><ele>653.0</ele><time>2026-04-26T10:01:36.745Z</time></trkpt><trkpt lat="44.9512053" lon="7.1704586"><ele>653.0</ele><time>2026-04-26T10:01:37.746Z</time></trkpt><trkpt lat="44.9512236" lon="7.1701989"><ele>655.6666666666666</ele><time>2026-04-26T10:01:38.746Z</time></trkpt><trkpt lat="44.9512429" lon="7.1699554"><ele>658.3333333333334</ele><time>2026-04-26T10:01:39.746Z</time></trkpt><trkpt lat="44.9512633" lon="7.1697145"><ele>661.0</ele><time>2026-04-26T10:01:40.746Z</time></trkpt><trkpt lat="44.951283" lon="7.1694615"><ele>662.0</ele><time>2026-04-26T10:01:41.746Z</time></trkpt><trkpt lat="44.9513" lon="7.1691977"><ele>663.0</ele><time>2026-04-26T10:01:42.746Z</time></trkpt><trkpt lat="44.9513149" lon="7.1689327"><ele>664.0</ele><time>2026-04-26T10:01:43.746Z</time></trkpt><trkpt lat="44.9513173" lon="7.168681"><ele>665.3333333333334</ele><time>2026-04-26T10:01:44.746Z</time></trkpt><trkpt lat="44.9513123" lon="7.1684358"><ele>666.6666666666666</ele><time>2026-04-26T10:01:45.745Z</time></trkpt><trkpt lat="44.9513037" lon="7.1681905"><ele>668.0</ele><time>2026-04-26T10:01:46.746Z</time></trkpt><trkpt lat="44.9512827" lon="7.1679473"><ele>668.3333333333333</ele><time>2026-04-26T10:01:47.746Z</time></trkpt><trkpt lat="44.9512556" lon="7.1677001"><ele>668.6666666666666</ele><time>2026-04-26T10:01:48.746Z</time></trkpt><trkpt lat="44.9512263" lon="7.1674565"><ele>669.0</ele><time>2026-04-26T10:01:49.746Z</time></trkpt><trkpt lat="44.951195" lon="7.1672199"><ele>669.5</ele><time>2026-04-26T10:01:50.746Z</time></trkpt><trkpt lat="44.9511702" lon="7.1669952"><ele>670.0</ele><time>2026-04-26T10:01:51.745Z</time></trkpt><trkpt lat="44.9511471" lon="7.1667863"><ele>670.5</ele><time>2026-04-26T10:01:52.746Z</time></trkpt><trkpt lat="44.9511245" lon="7.1665942"><ele>671.0</ele><time>2026-04-26T10:01:53.746Z</time></trkpt><trkpt lat="44.9511017" lon="7.1664145"><ele>674.1999999999999</ele><time>2026-04-26T10:01:54.746Z</time></trkpt><trkpt lat="44.9510782" lon="7.1662472"><ele>677.4</ele><time>2026-04-26T10:01:55.746Z</time></trkpt><trkpt lat="44.9510541" lon="7.1660912"><ele>680.6</ele><time>2026-04-26T10:01:56.746Z</time></trkpt><trkpt lat="44.9510171" lon="7.1659536"><ele>683.8</ele><time>2026-04-26T10:01:57.746Z</time></trkpt><trkpt lat="44.9509536" lon="7.1658405"><ele>687.0</ele><time>2026-04-26T10:01:58.745Z</time></trkpt><trkpt lat="44.950867" lon="7.1657726"><ele>682.0</ele><time>2026-04-26T10:01:59.746Z</time></trkpt><trkpt lat="44.9507714" lon="7.1657564"><ele>677.0</ele><time>2026-04-26T10:02:00.746Z</time></trkpt><trkpt lat="44.9506868" lon="7.1657492"><ele>672.0</ele><time>2026-04-26T10:02:01.746Z</time></trkpt><trkpt lat="44.9506106" lon="7.1657246"><ele>667.0</ele><time>2026-04-26T10:02:02.746Z</time></trkpt><trkpt lat="44.9505409" lon="7.165662"><ele>662.0</ele><time>2026-04-26T10:02:03.746Z</time></trkpt><trkpt lat="44.9504888" lon="7.1655504"><ele>657.0</ele><time>2026-04-26T10:02:04.746Z</time></trkpt><trkpt lat="44.950457" lon="7.1654019"><ele>657.0</ele><time>2026-04-26T10:02:05.746Z</time></trkpt><trkpt lat="44.9504167" lon="7.1652239"><ele>657.0</ele><time>2026-04-26T10:02:06.746Z</time></trkpt><trkpt lat="44.9503621" lon="7.1650173"><ele>657.0</ele><time>2026-04-26T10:02:07.746Z</time></trkpt><trkpt lat="44.9502997" lon="7.1648181"><ele>657.0</ele><time>2026-04-26T10:02:08.746Z</time></trkpt><trkpt lat="44.9502281" lon="7.1646234"><ele>658.0</ele><time>2026-04-26T10:02:09.745Z</time></trkpt><trkpt lat="44.9501554" lon="7.1644237"><ele>659.0</ele><time>2026-04-26T10:02:10.746Z</time></trkpt><trkpt lat="44.9500804" lon="7.1642398"><ele>660.0</ele><time>2026-04-26T10:02:11.746Z</time></trkpt><trkpt lat="44.9500096" lon="7.1640673"><ele>662.5</ele><time>2026-04-26T10:02:12.746Z</time></trkpt><trkpt lat="44.9499371" lon="7.1639082"><ele>665.0</ele><time>2026-04-26T10:02:13.746Z</time></trkpt><trkpt lat="44.949853" lon="7.1637443"><ele>667.5</ele><time>2026-04-26T10:02:14.746Z</time></trkpt><trkpt lat="44.9497507" lon="7.1635831"><ele>670.0</ele><time>2026-04-26T10:02:15.746Z</time></trkpt><trkpt lat="44.9496385" lon="7.1634296"><ele>670.0</ele><time>2026-04-26T10:02:16.746Z</time></trkpt><trkpt lat="44.9495397" lon="7.1632921"><ele>670.0</ele><time>2026-04-26T10:02:17.746Z</time></trkpt><trkpt lat="44.9494516" lon="7.1631617"><ele>670.0</ele><time>2026-04-26T10:02:18.746Z</time></trkpt><trkpt lat="44.949372" lon="7.1630522"><ele>670.0</ele><time>2026-04-26T10:02:19.746Z</time></trkpt><trkpt lat="44.9492914" lon="7.1629652"><ele>674.0</ele><time>2026-04-26T10:02:20.746Z</time></trkpt><trkpt lat="44.949204" lon="7.1629064"><ele>678.0</ele><time>2026-04-26T10:02:21.746Z</time></trkpt><trkpt lat="44.9491063" lon="7.1628826"><ele>682.0</ele><time>2026-04-26T10:02:22.746Z</time></trkpt><trkpt lat="44.9490053" lon="7.1628958"><ele>686.0</ele><time>2026-04-26T10:02:23.746Z</time></trkpt><trkpt lat="44.9489034" lon="7.1629586"><ele>690.0</ele><time>2026-04-26T10:02:24.746Z</time></trkpt><trkpt lat="44.9488045" lon="7.1630524"><ele>690.0</ele><time>2026-04-26T10:02:25.746Z</time></trkpt><trkpt lat="44.9486996" lon="7.1631572"><ele>690.0</ele><time>2026-04-26T10:02:26.746Z</time></trkpt><trkpt lat="44.9485779" lon="7.1632761"><ele>690.0</ele><time>2026-04-26T10:02:27.746Z</time></trkpt><trkpt lat="44.9484491" lon="7.1634054"><ele>690.0</ele><time>2026-04-26T10:02:28.746Z</time></trkpt><trkpt lat="44.9483064" lon="7.1635325"><ele>687.3333333333334</ele><time>2026-04-26T10:02:29.746Z</time></trkpt><trkpt lat="44.9481489" lon="7.1636598"><ele>684.6666666666667</ele><time>2026-04-26T10:02:30.746Z</time></trkpt><trkpt lat="44.9479791" lon="7.163761"><ele>682.0</ele><time>2026-04-26T10:02:31.745Z</time></trkpt><trkpt lat="44.9478192" lon="7.1638297"><ele>682.0</ele><time>2026-04-26T10:02:32.746Z</time></trkpt><trkpt lat="44.9476595" lon="7.1638811"><ele>682.0</ele><time>2026-04-26T10:02:33.746Z</time></trkpt><trkpt lat="44.9475028" lon="7.1639187"><ele>682.0</ele><time>2026-04-26T10:02:34.746Z</time></trkpt><trkpt lat="44.9473485" lon="7.1639349"><ele>679.25</ele><time>2026-04-26T10:02:35.746Z</time></trkpt><trkpt lat="44.9472066" lon="7.1639289"><ele>676.5</ele><time>2026-04-26T10:02:36.746Z</time></trkpt><trkpt lat="44.9470708" lon="7.163909"><ele>673.75</ele><time>2026-04-26T10:02:37.746Z</time></trkpt><trkpt lat="44.9469384" lon="7.1638566"><ele>671.0</ele><time>2026-04-26T10:02:38.745Z</time></trkpt><trkpt lat="44.9468129" lon="7.1637618"><ele>671.0</ele><time>2026-04-26T10:02:39.746Z</time></trkpt><trkpt lat="44.946693" lon="7.1636346"><ele>671.0</ele><time>2026-04-26T10:02:40.746Z</time></trkpt><trkpt lat="44.9465741" lon="7.1634629"><ele>671.0</ele><time>2026-04-26T10:02:41.746Z</time></trkpt><trkpt lat="44.9464583" lon="7.1632695"><ele>671.6666666666666</ele><time>2026-04-26T10:02:42.746Z</time></trkpt><trkpt lat="44.946333" lon="7.1630726"><ele>672.3333333333334</ele><time>2026-04-26T10:02:43.746Z</time></trkpt><trkpt lat="44.9462165" lon="7.1628884"><ele>673.0</ele><time>2026-04-26T10:02:44.745Z</time></trkpt><trkpt lat="44.946098" lon="7.162696"><ele>673.0</ele><time>2026-04-26T10:02:45.746Z</time></trkpt><trkpt lat="44.94598" lon="7.1624944"><ele>673.0</ele><time>2026-04-26T10:02:46.746Z</time></trkpt><trkpt lat="44.945865" lon="7.1622964"><ele>673.0</ele><time>2026-04-26T10:02:47.746Z</time></trkpt><trkpt lat="44.9457556" lon="7.1620956"><ele>670.3333333333334</ele><time>2026-04-26T10:02:48.746Z</time></trkpt><trkpt lat="44.9456502" lon="7.1619026"><ele>667.6666666666666</ele><time>2026-04-26T10:02:49.746Z</time></trkpt><trkpt lat="44.9455344" lon="7.1617371"><ele>665.0</ele><time>2026-04-26T10:02:50.746Z</time></trkpt><trkpt lat="44.9454017" lon="7.1615983"><ele>665.6666666666666</ele><time>2026-04-26T10:02:51.746Z</time></trkpt><trkpt lat="44.9452469" lon="7.1614834"><ele>666.3333333333334</ele><time>2026-04-26T10:02:52.745Z</time></trkpt><trkpt lat="44.9450778" lon="7.161386"><ele>667.0</ele><time>2026-04-26T10:02:53.745Z</time></trkpt><trkpt lat="44.9449095" lon="7.1612787"><ele>667.0</ele><time>2026-04-26T10:02:54.746Z</time></trkpt><trkpt lat="44.944746" lon="7.1611593"><ele>667.0</ele><time>2026-04-26T10:02:55.746Z</time></trkpt><trkpt lat="44.9446009" lon="7.1610266"><ele>667.0</ele><time>2026-04-26T10:02:56.746Z</time></trkpt><trkpt lat="44.9444645" lon="7.1608774"><ele>667.0</ele><time>2026-04-26T10:02:57.746Z</time></trkpt><trkpt lat="44.9443406" lon="7.160715"><ele>667.0</ele><time>2026-04-26T10:02:58.746Z</time></trkpt><trkpt lat="44.9442172" lon="7.1605376"><ele>667.0</ele><time>2026-04-26T10:02:59.746Z</time></trkpt><trkpt lat="44.9440928" lon="7.1603483"><ele>668.0</ele><time>2026-04-26T10:03:00.746Z</time></trkpt><trkpt lat="44.943977" lon="7.1601589"><ele>669.0</ele><time>2026-04-26T10:03:01.746Z</time></trkpt><trkpt lat="44.9438617" lon="7.1599679"><ele>670.0</ele><time>2026-04-26T10:03:02.746Z</time></trkpt><trkpt lat="44.9437532" lon="7.1597891"><ele>670.0</ele><time>2026-04-26T10:03:03.746Z</time></trkpt><trkpt lat="44.9436393" lon="7.1596279"><ele>670.0</ele><time>2026-04-26T10:03:04.746Z</time></trkpt><trkpt lat="44.9435142" lon="7.1594953"><ele>670.0</ele><time>2026-04-26T10:03:05.746Z</time></trkpt><trkpt lat="44.9433644" lon="7.1593958"><ele>673.0</ele><time>2026-04-26T10:03:06.746Z</time></trkpt><trkpt lat="44.9431942" lon="7.1593094"><ele>676.0</ele><time>2026-04-26T10:03:07.746Z</time></trkpt><trkpt lat="44.9430256" lon="7.1592195"><ele>679.0</ele><time>2026-04-26T10:03:08.746Z</time></trkpt><trkpt lat="44.9428568" lon="7.1591391"><ele>679.0</ele><time>2026-04-26T10:03:09.746Z</time></trkpt><trkpt lat="44.9426969" lon="7.1590581"><ele>679.0</ele><time>2026-04-26T10:03:10.746Z</time></trkpt><trkpt lat="44.9425501" lon="7.1589745"><ele>679.0</ele><time>2026-04-26T10:03:11.745Z</time></trkpt><trkpt lat="44.9424082" lon="7.1588804"><ele>678.6666666666667</ele><time>2026-04-26T10:03:12.746Z</time></trkpt><trkpt lat="44.9422753" lon="7.1587661"><ele>678.3333333333334</ele><time>2026-04-26T10:03:13.746Z</time></trkpt><trkpt lat="44.9421527" lon="7.1586175"><ele>678.0</ele><time>2026-04-26T10:03:14.746Z</time></trkpt><trkpt lat="44.942045" lon="7.1584388"><ele>678.0</ele><time>2026-04-26T10:03:15.746Z</time></trkpt><trkpt lat="44.9419476" lon="7.1582358"><ele>678.0</ele><time>2026-04-26T10:03:16.745Z</time></trkpt><trkpt lat="44.941859" lon="7.1580287"><ele>678.0</ele><time>2026-04-26T10:03:17.746Z</time></trkpt><trkpt lat="44.9417774" lon="7.1578275"><ele>682.0</ele><time>2026-04-26T10:03:18.746Z</time></trkpt><trkpt lat="44.9417097" lon="7.1576175"><ele>686.0</ele><time>2026-04-26T10:03:19.746Z</time></trkpt><trkpt lat="44.9416612" lon="7.1573853"><ele>690.0</ele><time>2026-04-26T10:03:20.746Z</time></trkpt><trkpt lat="44.9416308" lon="7.1571473"><ele>690.0</ele><time>2026-04-26T10:03:21.746Z</time></trkpt><trkpt lat="44.9416066" lon="7.156923"><ele>690.0</ele><time>2026-04-26T10:03:22.746Z</time></trkpt><trkpt lat="44.9415819" lon="7.1567107"><ele>690.0</ele><time>2026-04-26T10:03:23.746Z</time></trkpt><trkpt lat="44.9415449" lon="7.1565054"><ele>689.25</ele><time>2026-04-26T10:03:24.746Z</time></trkpt><trkpt lat="44.9414887" lon="7.1563107"><ele>688.5</ele><time>2026-04-26T10:03:25.746Z</time></trkpt><trkpt lat="44.941422" lon="7.156137"><ele>687.75</ele><time>2026-04-26T10:03:26.746Z</time></trkpt><trkpt lat="44.9413588" lon="7.1559705"><ele>687.0</ele><time>2026-04-26T10:03:27.746Z</time></trkpt><trkpt lat="44.9412816" lon="7.1558137"><ele>686.25</ele><time>2026-04-26T10:03:28.746Z</time></trkpt><trkpt lat="44.9411734" lon="7.1556775"><ele>685.5</ele><time>2026-04-26T10:03:29.746Z</time></trkpt><trkpt lat="44.94105" lon="7.1555631"><ele>684.75</ele><time>2026-04-26T10:03:30.746Z</time></trkpt><trkpt lat="44.9409331" lon="7.1554633"><ele>684.0</ele><time>2026-04-26T10:03:31.746Z</time></trkpt><trkpt lat="44.9408161" lon="7.1553762"><ele>684.0</ele><time>2026-04-26T10:03:32.745Z</time></trkpt><trkpt lat="44.9407051" lon="7.1552963"><ele>684.0</ele><time>2026-04-26T10:03:33.745Z</time></trkpt><trkpt lat="44.9406066" lon="7.1552001"><ele>684.0</ele><time>2026-04-26T10:03:34.746Z</time></trkpt><trkpt lat="44.9405223" lon="7.1550849"><ele>684.0</ele><time>2026-04-26T10:03:35.746Z</time></trkpt><trkpt lat="44.9404585" lon="7.1549499"><ele>690.75</ele><time>2026-04-26T10:03:36.746Z</time></trkpt><trkpt lat="44.9403987" lon="7.1548173"><ele>697.5</ele><time>2026-04-26T10:03:37.746Z</time></trkpt><trkpt lat="44.9403259" lon="7.1547127"><ele>704.25</ele><time>2026-04-26T10:03:38.746Z</time></trkpt><trkpt lat="44.9402243" lon="7.1546489"><ele>711.0</ele><time>2026-04-26T10:03:39.746Z</time></trkpt><trkpt lat="44.9400993" lon="7.1546218"><ele>709.0</ele><time>2026-04-26T10:03:40.746Z</time></trkpt><trkpt lat="44.9399576" lon="7.1545975"><ele>707.0</ele><time>2026-04-26T10:03:41.746Z</time></trkpt><trkpt lat="44.939801" lon="7.1545405"><ele>705.0</ele><time>2026-04-26T10:03:42.745Z</time></trkpt><trkpt lat="44.9396456" lon="7.1544661"><ele>705.0</ele><time>2026-04-26T10:03:43.746Z</time></trkpt><trkpt lat="44.9394907" lon="7.1543574"><ele>705.0</ele><time>2026-04-26T10:03:44.746Z</time></trkpt><trkpt lat="44.9393447" lon="7.1542251"><ele>705.0</ele><time>2026-04-26T10:03:45.746Z</time></trkpt><trkpt lat="44.9392156" lon="7.1540754"><ele>709.6666666666666</ele><time>2026-04-26T10:03:46.746Z</time></trkpt><trkpt lat="44.939098" lon="7.1539159"><ele>714.3333333333333</ele><time>2026-04-26T10:03:47.746Z</time></trkpt><trkpt lat="44.9389979" lon="7.1537611"><ele>719.0</ele><time>2026-04-26T10:03:48.746Z</time></trkpt><trkpt lat="44.9389092" lon="7.1535958"><ele>719.0</ele><time>2026-04-26T10:03:49.746Z</time></trkpt><trkpt lat="44.9388388" lon="7.1534068"><ele>719.0</ele><time>2026-04-26T10:03:50.746Z</time></trkpt><trkpt lat="44.9387863" lon="7.1531905"><ele>719.0</ele><time>2026-04-26T10:03:51.746Z</time></trkpt><trkpt lat="44.9387506" lon="7.1529555"><ele>722.3333333333333</ele><time>2026-04-26T10:03:52.746Z</time></trkpt><trkpt lat="44.9387331" lon="7.1527161"><ele>725.6666666666666</ele><time>2026-04-26T10:03:53.746Z</time></trkpt><trkpt lat="44.9387404" lon="7.1524917"><ele>729.0</ele><time>2026-04-26T10:03:54.746Z</time></trkpt><trkpt lat="44.9387676" lon="7.152287"><ele>729.0</ele><time>2026-04-26T10:03:55.746Z</time></trkpt><trkpt lat="44.9388196" lon="7.1520858"><ele>729.0</ele><time>2026-04-26T10:03:56.745Z</time></trkpt><trkpt lat="44.9388765" lon="7.151892"><ele>729.0</ele><time>2026-04-26T10:03:57.746Z</time></trkpt><trkpt lat="44.9389261" lon="7.1517096"><ele>729.0</ele><time>2026-04-26T10:03:58.746Z</time></trkpt><trkpt lat="44.9389625" lon="7.1515227"><ele>730.3333333333334</ele><time>2026-04-26T10:03:59.746Z</time></trkpt><trkpt lat="44.9389752" lon="7.1513202"><ele>731.6666666666667</ele><time>2026-04-26T10:04:00.746Z</time></trkpt><trkpt lat="44.9389536" lon="7.1511033"><ele>733.0</ele><time>2026-04-26T10:04:01.746Z</time></trkpt><trkpt lat="44.9389136" lon="7.1508802"><ele>735.6666666666667</ele><time>2026-04-26T10:04:02.745Z</time></trkpt><trkpt lat="44.9388653" lon="7.1506452"><ele>738.3333333333334</ele><time>2026-04-26T10:04:03.746Z</time></trkpt><trkpt lat="44.9388191" lon="7.1504274"><ele>741.0</ele><time>2026-04-26T10:04:04.746Z</time></trkpt><trkpt lat="44.9387641" lon="7.1502168"><ele>741.0</ele><time>2026-04-26T10:04:05.746Z</time></trkpt><trkpt lat="44.9387013" lon="7.1500148"><ele>741.0</ele><time>2026-04-26T10:04:06.746Z</time></trkpt><trkpt lat="44.9386227" lon="7.1498213"><ele>741.0</ele><time>2026-04-26T10:04:07.746Z</time></trkpt><trkpt lat="44.9385276" lon="7.1496217"><ele>746.3333333333334</ele><time>2026-04-26T10:04:08.746Z</time></trkpt><trkpt lat="44.9384262" lon="7.1494413"><ele>751.6666666666667</ele><time>2026-04-26T10:04:09.746Z</time></trkpt><trkpt lat="44.9383248" lon="7.1492725"><ele>757.0</ele><time>2026-04-26T10:04:10.746Z</time></trkpt><trkpt lat="44.9382247" lon="7.1491062"><ele>747.6666666666667</ele><time>2026-04-26T10:04:11.746Z</time></trkpt><trkpt lat="44.9381299" lon="7.1489349"><ele>738.3333333333334</ele><time>2026-04-26T10:04:12.746Z</time></trkpt><trkpt lat="44.938038" lon="7.1487658"><ele>729.0</ele><time>2026-04-26T10:04:13.746Z</time></trkpt><trkpt lat="44.9379472" lon="7.1485997"><ele>729.0</ele><time>2026-04-26T10:04:14.746Z</time></trkpt><trkpt lat="44.9378644" lon="7.1484294"><ele>729.0</ele><time>2026-04-26T10:04:15.746Z</time></trkpt><trkpt lat="44.9377917" lon="7.1482419"><ele>729.0</ele><time>2026-04-26T10:04:16.745Z</time></trkpt><trkpt lat="44.9377273" lon="7.1480513"><ele>729.0</ele><time>2026-04-26T10:04:17.745Z</time></trkpt><trkpt lat="44.9376592" lon="7.1478665"><ele>729.5</ele><time>2026-04-26T10:04:18.746Z</time></trkpt><trkpt lat="44.9376022" lon="7.1476783"><ele>730.0</ele><time>2026-04-26T10:04:19.746Z</time></trkpt><trkpt lat="44.9375516" lon="7.1474985"><ele>730.5</ele><time>2026-04-26T10:04:20.746Z</time></trkpt><trkpt lat="44.9375013" lon="7.1473368"><ele>731.0</ele><time>2026-04-26T10:04:21.746Z</time></trkpt><trkpt lat="44.9374631" lon="7.1471736"><ele>731.0</ele><time>2026-04-26T10:04:22.746Z</time></trkpt><trkpt lat="44.9374491" lon="7.1469993"><ele>731.0</ele><time>2026-04-26T10:04:23.746Z</time></trkpt><trkpt lat="44.9374616" lon="7.1468223"><ele>731.0</ele><time>2026-04-26T10:04:24.746Z</time></trkpt><trkpt lat="44.9374979" lon="7.1466428"><ele>731.0</ele><time>2026-04-26T10:04:25.746Z</time></trkpt><trkpt lat="44.9375453" lon="7.1464454"><ele>738.25</ele><time>2026-04-26T10:04:26.746Z</time></trkpt><trkpt lat="44.9375903" lon="7.1462433"><ele>745.5</ele><time>2026-04-26T10:04:27.746Z</time></trkpt><trkpt lat="44.9376384" lon="7.1460471"><ele>752.75</ele><time>2026-04-26T10:04:28.746Z</time></trkpt><trkpt lat="44.937687" lon="7.1458485"><ele>760.0</ele><time>2026-04-26T10:04:29.746Z</time></trkpt><trkpt lat="44.9377333" lon="7.1456461"><ele>760.0</ele><time>2026-04-26T10:04:30.746Z</time></trkpt><trkpt lat="44.937779" lon="7.1454349"><ele>760.0</ele><time>2026-04-26T10:04:31.746Z</time></trkpt><trkpt lat="44.9378286" lon="7.1452262"><ele>760.0</ele><time>2026-04-26T10:04:32.746Z</time></trkpt><trkpt lat="44.9378829" lon="7.145026"><ele>758.0</ele><time>2026-04-26T10:04:33.746Z</time></trkpt><trkpt lat="44.9379343" lon="7.1448247"><ele>756.0</ele><time>2026-04-26T10:04:34.746Z</time></trkpt><trkpt lat="44.937981" lon="7.1446072"><ele>754.0</ele><time>2026-04-26T10:04:35.746Z</time></trkpt><trkpt lat="44.9380256" lon="7.1444058"><ele>754.0</ele><time>2026-04-26T10:04:36.746Z</time></trkpt><trkpt lat="44.9380624" lon="7.1442055"><ele>754.0</ele><time>2026-04-26T10:04:37.746Z</time></trkpt><trkpt lat="44.9380945" lon="7.144005"><ele>754.0</ele><time>2026-04-26T10:04:38.746Z</time></trkpt><trkpt lat="44.9381146" lon="7.1438036"><ele>754.0</ele><time>2026-04-26T10:04:39.746Z</time></trkpt><trkpt lat="44.9381238" lon="7.1436063"><ele>753.5</ele><time>2026-04-26T10:04:40.746Z</time></trkpt><trkpt lat="44.9381253" lon="7.1434095"><ele>753.0</ele><time>2026-04-26T10:04:41.746Z</time></trkpt><trkpt lat="44.9381211" lon="7.1432116"><ele>752.5</ele><time>2026-04-26T10:04:42.746Z</time></trkpt><trkpt lat="44.9381058" lon="7.1430193"><ele>752.0</ele><time>2026-04-26T10:04:43.746Z</time></trkpt><trkpt lat="44.9380876" lon="7.1428427"><ele>752.0</ele><time>2026-04-26T10:04:44.746Z</time></trkpt><trkpt lat="44.9380656" lon="7.1426691"><ele>752.0</ele><time>2026-04-26T10:04:45.746Z</time></trkpt><trkpt lat="44.9380286" lon="7.1425068"><ele>752.0</ele><time>2026-04-26T10:04:46.746Z</time></trkpt><trkpt lat="44.9379783" lon="7.1423396"><ele>752.0</ele><time>2026-04-26T10:04:47.746Z</time></trkpt><trkpt lat="44.9379368" lon="7.1421697"><ele>754.5</ele><time>2026-04-26T10:04:48.746Z</time></trkpt><trkpt lat="44.9379082" lon="7.1419957"><ele>757.0</ele><time>2026-04-26T10:04:49.746Z</time></trkpt><trkpt lat="44.9378798" lon="7.141829"><ele>759.5</ele><time>2026-04-26T10:04:50.746Z</time></trkpt><trkpt lat="44.9378533" lon="7.1416683"><ele>762.0</ele><time>2026-04-26T10:04:51.746Z</time></trkpt><trkpt lat="44.9378068" lon="7.1415129"><ele>766.5</ele><time>2026-04-26T10:04:52.746Z</time></trkpt><trkpt lat="44.9377483" lon="7.1413719"><ele>771.0</ele><time>2026-04-26T10:04:53.746Z</time></trkpt><trkpt lat="44.9376893" lon="7.1412336"><ele>775.5</ele><time>2026-04-26T10:04:54.746Z</time></trkpt><trkpt lat="44.9376285" lon="7.1410914"><ele>780.0</ele><time>2026-04-26T10:04:55.746Z</time></trkpt><trkpt lat="44.9375699" lon="7.1409567"><ele>775.25</ele><time>2026-04-26T10:04:56.746Z</time></trkpt><trkpt lat="44.9375105" lon="7.1408238"><ele>770.5</ele><time>2026-04-26T10:04:57.746Z</time></trkpt><trkpt lat="44.9374476" lon="7.1406877"><ele>765.75</ele><time>2026-04-26T10:04:58.746Z</time></trkpt><trkpt lat="44.9373803" lon="7.1405529"><ele>761.0</ele><time>2026-04-26T10:04:59.746Z</time></trkpt><trkpt lat="44.9373008" lon="7.1404214"><ele>761.0</ele><time>2026-04-26T10:05:00.746Z</time></trkpt><trkpt lat="44.9372171" lon="7.1402939"><ele>761.0</ele><time>2026-04-26T10:05:01.746Z</time></trkpt><trkpt lat="44.9371282" lon="7.1401669"><ele>761.0</ele><time>2026-04-26T10:05:02.746Z</time></trkpt><trkpt lat="44.9370323" lon="7.140043"><ele>761.0</ele><time>2026-04-26T10:05:03.746Z</time></trkpt><trkpt lat="44.9369354" lon="7.1399305"><ele>758.75</ele><time>2026-04-26T10:05:04.746Z</time></trkpt><trkpt lat="44.9368443" lon="7.1398251"><ele>756.5</ele><time>2026-04-26T10:05:05.746Z</time></trkpt><trkpt lat="44.9367471" lon="7.1397222"><ele>754.25</ele><time>2026-04-26T10:05:06.746Z</time></trkpt><trkpt lat="44.9366404" lon="7.1396232"><ele>752.0</ele><time>2026-04-26T10:05:07.746Z</time></trkpt><trkpt lat="44.9365364" lon="7.1395396"><ele>752.0</ele><time>2026-04-26T10:05:08.745Z</time></trkpt><trkpt lat="44.9364424" lon="7.1394453"><ele>752.0</ele><time>2026-04-26T10:05:09.746Z</time></trkpt><trkpt lat="44.9363554" lon="7.1393559"><ele>752.0</ele><time>2026-04-26T10:05:10.746Z</time></trkpt><trkpt lat="44.936286" lon="7.1392687"><ele>752.0</ele><time>2026-04-26T10:05:11.746Z</time></trkpt><trkpt lat="44.9362237" lon="7.1391841"><ele>752.0</ele><time>2026-04-26T10:05:12.746Z</time></trkpt><trkpt lat="44.9361675" lon="7.1391124"><ele>752.0</ele><time>2026-04-26T10:05:13.746Z</time></trkpt><trkpt lat="44.9361179" lon="7.139044"><ele>752.0</ele><time>2026-04-26T10:05:14.746Z</time></trkpt><trkpt lat="44.9360066" lon="7.1389989"><ele>752.0</ele><time>2026-04-26T10:05:16.746Z</time></trkpt><trkpt lat="44.9358945" lon="7.1391065"><ele>752.0</ele><time>2026-04-26T10:05:18.746Z</time></trkpt><trkpt lat="44.9358402" lon="7.1391941"><ele>752.0</ele><time>2026-04-26T10:05:19.746Z</time></trkpt><trkpt lat="44.9357894" lon="7.1392899"><ele>748.6666666666666</ele><time>2026-04-26T10:05:20.746Z</time></trkpt><trkpt lat="44.9357521" lon="7.139391"><ele>745.3333333333333</ele><time>2026-04-26T10:05:21.746Z</time></trkpt><trkpt lat="44.9357265" lon="7.1394983"><ele>742.0</ele><time>2026-04-26T10:05:22.746Z</time></trkpt><trkpt lat="44.9357175" lon="7.1396036"><ele>738.6666666666666</ele><time>2026-04-26T10:05:23.746Z</time></trkpt><trkpt lat="44.9357338" lon="7.1397133"><ele>735.3333333333334</ele><time>2026-04-26T10:05:24.746Z</time></trkpt><trkpt lat="44.9357607" lon="7.1398346"><ele>732.0</ele><time>2026-04-26T10:05:25.745Z</time></trkpt><trkpt lat="44.9357932" lon="7.1399563"><ele>732.0</ele><time>2026-04-26T10:05:26.746Z</time></trkpt><trkpt lat="44.935828" lon="7.1400938"><ele>732.0</ele><time>2026-04-26T10:05:27.746Z</time></trkpt><trkpt lat="44.9358579" lon="7.1402543"><ele>732.0</ele><time>2026-04-26T10:05:28.746Z</time></trkpt><trkpt lat="44.9358748" lon="7.1404063"><ele>732.0</ele><time>2026-04-26T10:05:29.746Z</time></trkpt><trkpt lat="44.9358851" lon="7.1405615"><ele>732.0</ele><time>2026-04-26T10:05:30.746Z</time></trkpt><trkpt lat="44.9358832" lon="7.1407128"><ele>732.5</ele><time>2026-04-26T10:05:31.746Z</time></trkpt><trkpt lat="44.9358737" lon="7.1408443"><ele>733.0</ele><time>2026-04-26T10:05:32.746Z</time></trkpt><trkpt lat="44.9358621" lon="7.1409628"><ele>733.5</ele><time>2026-04-26T10:05:33.746Z</time></trkpt><trkpt lat="44.9358312" lon="7.1410736"><ele>734.0</ele><time>2026-04-26T10:05:34.746Z</time></trkpt><trkpt lat="44.9357725" lon="7.1411602"><ele>734.5</ele><time>2026-04-26T10:05:35.746Z</time></trkpt><trkpt lat="44.9356913" lon="7.1412145"><ele>735.0</ele><time>2026-04-26T10:05:36.746Z</time></trkpt><trkpt lat="44.9355839" lon="7.141254"><ele>735.0</ele><time>2026-04-26T10:05:37.746Z</time></trkpt><trkpt lat="44.935456" lon="7.1412856"><ele>735.0</ele><time>2026-04-26T10:05:38.746Z</time></trkpt><trkpt lat="44.9353083" lon="7.1413136"><ele>735.0</ele><time>2026-04-26T10:05:39.746Z</time></trkpt><trkpt lat="44.935144" lon="7.141325"><ele>735.0</ele><time>2026-04-26T10:05:40.746Z</time></trkpt><trkpt lat="44.9349793" lon="7.1413402"><ele>740.0</ele><time>2026-04-26T10:05:41.746Z</time></trkpt><trkpt lat="44.9348103" lon="7.1413547"><ele>745.0</ele><time>2026-04-26T10:05:42.746Z</time></trkpt><trkpt lat="44.9346317" lon="7.1413586"><ele>750.0</ele><time>2026-04-26T10:05:43.746Z</time></trkpt><trkpt lat="44.9344714" lon="7.1413623"><ele>750.0</ele><time>2026-04-26T10:05:44.746Z</time></trkpt><trkpt lat="44.9343248" lon="7.1413692"><ele>750.0</ele><time>2026-04-26T10:05:45.746Z</time></trkpt><trkpt lat="44.9341784" lon="7.1413805"><ele>750.0</ele><time>2026-04-26T10:05:46.746Z</time></trkpt><trkpt lat="44.9340454" lon="7.1413947"><ele>750.0</ele><time>2026-04-26T10:05:47.746Z</time></trkpt><trkpt lat="44.9339311" lon="7.1414111"><ele>752.2</ele><time>2026-04-26T10:05:48.746Z</time></trkpt><trkpt lat="44.9338374" lon="7.1414456"><ele>754.4</ele><time>2026-04-26T10:05:49.746Z</time></trkpt><trkpt lat="44.933739" lon="7.14154"><ele>756.5999999999999</ele><time>2026-04-26T10:05:51.746Z</time></trkpt><trkpt lat="44.9337598" lon="7.1416763"><ele>758.8</ele><time>2026-04-26T10:05:53.746Z</time></trkpt><trkpt lat="44.9338223" lon="7.141697"><ele>761.0</ele><time>2026-04-26T10:05:54.746Z</time></trkpt><trkpt lat="44.9339014" lon="7.1416792"><ele>762.25</ele><time>2026-04-26T10:05:55.746Z</time></trkpt><trkpt lat="44.9340039" lon="7.1416454"><ele>763.5</ele><time>2026-04-26T10:05:56.746Z</time></trkpt><trkpt lat="44.9341201" lon="7.1416207"><ele>764.75</ele><time>2026-04-26T10:05:57.746Z</time></trkpt><trkpt lat="44.9342765" lon="7.141634"><ele>766.0</ele><time>2026-04-26T10:05:58.746Z</time></trkpt><trkpt lat="44.9344316" lon="7.1416372"><ele>766.0</ele><time>2026-04-26T10:05:59.745Z</time></trkpt><trkpt lat="44.9345862" lon="7.1416524"><ele>766.0</ele><time>2026-04-26T10:06:00.746Z</time></trkpt><trkpt lat="44.9347388" lon="7.1416741"><ele>766.0</ele><time>2026-04-26T10:06:01.746Z</time></trkpt><trkpt lat="44.9348875" lon="7.1417048"><ele>766.0</ele><time>2026-04-26T10:06:02.746Z</time></trkpt><trkpt lat="44.9350292" lon="7.1417562"><ele>766.0</ele><time>2026-04-26T10:06:03.746Z</time></trkpt><trkpt lat="44.9351654" lon="7.1418188"><ele>766.0</ele><time>2026-04-26T10:06:04.746Z</time></trkpt><trkpt lat="44.9352942" lon="7.1418785"><ele>766.0</ele><time>2026-04-26T10:06:05.746Z</time></trkpt><trkpt lat="44.9354172" lon="7.1419477"><ele>763.75</ele><time>2026-04-26T10:06:06.746Z</time></trkpt><trkpt lat="44.9355445" lon="7.1420156"><ele>761.5</ele><time>2026-04-26T10:06:07.746Z</time></trkpt><trkpt lat="44.9356651" lon="7.1420638"><ele>759.25</ele><time>2026-04-26T10:06:08.746Z</time></trkpt><trkpt lat="44.9357731" lon="7.1421148"><ele>757.0</ele><time>2026-04-26T10:06:09.745Z</time></trkpt><trkpt lat="44.9358719" lon="7.1421571"><ele>757.0</ele><time>2026-04-26T10:06:10.746Z</time></trkpt><trkpt lat="44.9359476" lon="7.1421905"><ele>757.0</ele><time>2026-04-26T10:06:11.746Z</time></trkpt><trkpt lat="44.9360406" lon="7.142278"><ele>757.0</ele><time>2026-04-26T10:06:13.746Z</time></trkpt><trkpt lat="44.9360039" lon="7.142372"><ele>757.0</ele><time>2026-04-26T10:06:15.746Z</time></trkpt><trkpt lat="44.9358914" lon="7.1423204"><ele>757.0</ele><time>2026-04-26T10:06:17.746Z</time></trkpt><trkpt lat="44.9358022" lon="7.142254"><ele>757.0</ele><time>2026-04-26T10:06:18.746Z</time></trkpt><trkpt lat="44.9356811" lon="7.1422257"><ele>757.0</ele><time>2026-04-26T10:06:19.746Z</time></trkpt><trkpt lat="44.9355625" lon="7.1422081"><ele>757.0</ele><time>2026-04-26T10:06:20.746Z</time></trkpt><trkpt lat="44.9354294" lon="7.1421793"><ele>757.0</ele><time>2026-04-26T10:06:21.746Z</time></trkpt><trkpt lat="44.9352858" lon="7.142168"><ele>757.0</ele><time>2026-04-26T10:06:22.746Z</time></trkpt><trkpt lat="44.9351393" lon="7.1421774"><ele>757.0</ele><time>2026-04-26T10:06:23.746Z</time></trkpt><trkpt lat="44.9350082" lon="7.1421932"><ele>757.0</ele><time>2026-04-26T10:06:24.746Z</time></trkpt><trkpt lat="44.9348825" lon="7.1422074"><ele>757.0</ele><time>2026-04-26T10:06:25.745Z</time></trkpt><trkpt lat="44.9347615" lon="7.1422339"><ele>758.8</ele><time>2026-04-26T10:06:26.746Z</time></trkpt><trkpt lat="44.9346652" lon="7.142261"><ele>760.6</ele><time>2026-04-26T10:06:27.746Z</time></trkpt><trkpt lat="44.9345848" lon="7.142293"><ele>762.4</ele><time>2026-04-26T10:06:28.746Z</time></trkpt><trkpt lat="44.9345236" lon="7.1423284"><ele>764.1999999999999</ele><time>2026-04-26T10:06:29.746Z</time></trkpt><trkpt lat="44.9344542" lon="7.1424721"><ele>766.0</ele><time>2026-04-26T10:06:31.746Z</time></trkpt><trkpt lat="44.9345202" lon="7.1425436"><ele>772.1999999999999</ele><time>2026-04-26T10:06:32.746Z</time></trkpt><trkpt lat="44.9345839" lon="7.1425635"><ele>778.4</ele><time>2026-04-26T10:06:33.746Z</time></trkpt><trkpt lat="44.9346621" lon="7.1425191"><ele>784.6</ele><time>2026-04-26T10:06:34.746Z</time></trkpt><trkpt lat="44.93476" lon="7.1424635"><ele>790.8</ele><time>2026-04-26T10:06:35.746Z</time></trkpt><trkpt lat="44.934857" lon="7.1424344"><ele>797.0</ele><time>2026-04-26T10:06:36.746Z</time></trkpt><trkpt lat="44.934958" lon="7.1424185"><ele>797.0000000000001</ele><time>2026-04-26T10:06:37.746Z</time></trkpt><trkpt lat="44.9350555" lon="7.1423952"><ele>797.0</ele><time>2026-04-26T10:06:38.746Z</time></trkpt><trkpt lat="44.9351315" lon="7.1423898"><ele>797.0</ele><time>2026-04-26T10:06:39.746Z</time></trkpt><trkpt lat="44.9352082" lon="7.1424554"><ele>797.0</ele><time>2026-04-26T10:06:41.746Z</time></trkpt><trkpt lat="44.935147" lon="7.1425644"><ele>797.0000000000001</ele><time>2026-04-26T10:06:43.746Z</time></trkpt><trkpt lat="44.9350714" lon="7.1425828"><ele>797.0</ele><time>2026-04-26T10:06:44.746Z</time></trkpt><trkpt lat="44.9349906" lon="7.142595"><ele>797.0</ele><time>2026-04-26T10:06:45.746Z</time></trkpt><trkpt lat="44.9348749" lon="7.1426287"><ele>797.0</ele><time>2026-04-26T10:06:46.746Z</time></trkpt><trkpt lat="44.9347501" lon="7.1426971"><ele>797.0</ele><time>2026-04-26T10:06:47.746Z</time></trkpt><trkpt lat="44.9346226" lon="7.142779"><ele>797.0</ele><time>2026-04-26T10:06:48.746Z</time></trkpt><trkpt lat="44.9344763" lon="7.1428744"><ele>797.0</ele><time>2026-04-26T10:06:49.745Z</time></trkpt><trkpt lat="44.9343361" lon="7.1429642"><ele>797.0</ele><time>2026-04-26T10:06:50.746Z</time></trkpt><trkpt lat="44.9342069" lon="7.1430362"><ele>797.0</ele><time>2026-04-26T10:06:51.746Z</time></trkpt><trkpt lat="44.9340925" lon="7.143101"><ele>797.0</ele><time>2026-04-26T10:06:52.746Z</time></trkpt><trkpt lat="44.9339982" lon="7.1431537"><ele>796.2857142857142</ele><time>2026-04-26T10:06:53.746Z</time></trkpt><trkpt lat="44.9339207" lon="7.1431952"><ele>795.5714285714287</ele><time>2026-04-26T10:06:54.746Z</time></trkpt><trkpt lat="44.9338597" lon="7.143232"><ele>794.8571428571429</ele><time>2026-04-26T10:06:55.746Z</time></trkpt><trkpt lat="44.9338138" lon="7.1433038"><ele>794.1428571428571</ele><time>2026-04-26T10:06:56.745Z</time></trkpt><trkpt lat="44.9338216" lon="7.1434001"><ele>793.4285714285713</ele><time>2026-04-26T10:06:57.746Z</time></trkpt><trkpt lat="44.9338636" lon="7.1434843"><ele>792.7142857142858</ele><time>2026-04-26T10:06:58.746Z</time></trkpt><trkpt lat="44.9339191" lon="7.1435293"><ele>792.0</ele><time>2026-04-26T10:06:59.746Z</time></trkpt><trkpt lat="44.9340119" lon="7.1434955"><ele>797.5</ele><time>2026-04-26T10:07:00.746Z</time></trkpt><trkpt lat="44.9341163" lon="7.1434609"><ele>803.0</ele><time>2026-04-26T10:07:01.746Z</time></trkpt><trkpt lat="44.9342363" lon="7.1434579"><ele>808.5</ele><time>2026-04-26T10:07:02.746Z</time></trkpt><trkpt lat="44.93436" lon="7.1434591"><ele>814.0</ele><time>2026-04-26T10:07:03.746Z</time></trkpt><trkpt lat="44.934497" lon="7.143465"><ele>816.0</ele><time>2026-04-26T10:07:04.746Z</time></trkpt><trkpt lat="44.9346516" lon="7.1434722"><ele>818.0</ele><time>2026-04-26T10:07:05.746Z</time></trkpt><trkpt lat="44.9348227" lon="7.1434799"><ele>820.0</ele><time>2026-04-26T10:07:06.746Z</time></trkpt><trkpt lat="44.9349692" lon="7.1434949"><ele>816.3333333333333</ele><time>2026-04-26T10:07:07.746Z</time></trkpt><trkpt lat="44.935088" lon="7.1435071"><ele>812.6666666666666</ele><time>2026-04-26T10:07:08.746Z</time></trkpt><trkpt lat="44.9351784" lon="7.1435225"><ele>809.0</ele><time>2026-04-26T10:07:09.746Z</time></trkpt><trkpt lat="44.9352392" lon="7.1435591"><ele>805.3333333333333</ele><time>2026-04-26T10:07:10.746Z</time></trkpt><trkpt lat="44.93524" lon="7.1436862"><ele>801.6666666666666</ele><time>2026-04-26T10:07:12.746Z</time></trkpt><trkpt lat="44.9351812" lon="7.1437466"><ele>798.0</ele><time>2026-04-26T10:07:13.746Z</time></trkpt><trkpt lat="44.9350938" lon="7.1438141"><ele>803.5</ele><time>2026-04-26T10:07:14.746Z</time></trkpt><trkpt lat="44.9349871" lon="7.1438923"><ele>809.0</ele><time>2026-04-26T10:07:15.746Z</time></trkpt><trkpt lat="44.934886" lon="7.1439744"><ele>814.5</ele><time>2026-04-26T10:07:16.746Z</time></trkpt><trkpt lat="44.9347657" lon="7.1440682"><ele>820.0</ele><time>2026-04-26T10:07:17.746Z</time></trkpt><trkpt lat="44.9346516" lon="7.1441748"><ele>823.0</ele><time>2026-04-26T10:07:18.746Z</time></trkpt><trkpt lat="44.9345444" lon="7.1442958"><ele>826.0</ele><time>2026-04-26T10:07:19.746Z</time></trkpt><trkpt lat="44.9344416" lon="7.1444336"><ele>829.0</ele><time>2026-04-26T10:07:20.746Z</time></trkpt><trkpt lat="44.9343515" lon="7.1445537"><ele>832.0</ele><time>2026-04-26T10:07:21.746Z</time></trkpt><trkpt lat="44.9342627" lon="7.1446729"><ele>832.0</ele><time>2026-04-26T10:07:22.746Z</time></trkpt><trkpt lat="44.9341768" lon="7.1447976"><ele>832.0</ele><time>2026-04-26T10:07:23.746Z</time></trkpt><trkpt lat="44.9341007" lon="7.144936"><ele>832.0</ele><time>2026-04-26T10:07:24.746Z</time></trkpt><trkpt lat="44.9340345" lon="7.145087"><ele>832.0</ele><time>2026-04-26T10:07:25.746Z</time></trkpt><trkpt lat="44.933983" lon="7.1452689"><ele>835.75</ele><time>2026-04-26T10:07:26.746Z</time></trkpt><trkpt lat="44.933939" lon="7.1454607"><ele>839.5</ele><time>2026-04-26T10:07:27.746Z</time></trkpt><trkpt lat="44.9338916" lon="7.1456448"><ele>843.25</ele><time>2026-04-26T10:07:28.746Z</time></trkpt><trkpt lat="44.9338425" lon="7.1458338"><ele>847.0</ele><time>2026-04-26T10:07:29.746Z</time></trkpt><trkpt lat="44.9337907" lon="7.1460137"><ele>851.0</ele><time>2026-04-26T10:07:30.746Z</time></trkpt><trkpt lat="44.9337259" lon="7.1461934"><ele>855.0</ele><time>2026-04-26T10:07:31.746Z</time></trkpt><trkpt lat="44.9336538" lon="7.1463746"><ele>859.0</ele><time>2026-04-26T10:07:32.746Z</time></trkpt><trkpt lat="44.9335793" lon="7.146523"><ele>863.0</ele><time>2026-04-26T10:07:33.746Z</time></trkpt><trkpt lat="44.9334836" lon="7.1466689"><ele>861.75</ele><time>2026-04-26T10:07:34.746Z</time></trkpt><trkpt lat="44.9333789" lon="7.1468032"><ele>860.5</ele><time>2026-04-26T10:07:35.746Z</time></trkpt><trkpt lat="44.9332638" lon="7.1469221"><ele>859.25</ele><time>2026-04-26T10:07:36.746Z</time></trkpt><trkpt lat="44.9331295" lon="7.1470263"><ele>858.0</ele><time>2026-04-26T10:07:37.746Z</time></trkpt><trkpt lat="44.9329944" lon="7.1471269"><ele>858.0</ele><time>2026-04-26T10:07:38.746Z</time></trkpt><trkpt lat="44.9328581" lon="7.1472257"><ele>858.0</ele><time>2026-04-26T10:07:39.745Z</time></trkpt><trkpt lat="44.9327238" lon="7.1473211"><ele>858.0</ele><time>2026-04-26T10:07:40.746Z</time></trkpt><trkpt lat="44.9325859" lon="7.1474158"><ele>861.5</ele><time>2026-04-26T10:07:41.746Z</time></trkpt><trkpt lat="44.9324593" lon="7.1474969"><ele>865.0</ele><time>2026-04-26T10:07:42.746Z</time></trkpt><trkpt lat="44.932336" lon="7.1475553"><ele>868.5</ele><time>2026-04-26T10:07:43.746Z</time></trkpt><trkpt lat="44.9322038" lon="7.147582"><ele>872.0</ele><time>2026-04-26T10:07:44.746Z</time></trkpt><trkpt lat="44.932067" lon="7.1476005"><ele>872.0</ele><time>2026-04-26T10:07:45.746Z</time></trkpt><trkpt lat="44.9319268" lon="7.1476301"><ele>872.0</ele><time>2026-04-26T10:07:46.746Z</time></trkpt><trkpt lat="44.9317959" lon="7.1476645"><ele>872.0</ele><time>2026-04-26T10:07:47.746Z</time></trkpt><trkpt lat="44.9316611" lon="7.1477004"><ele>872.0</ele><time>2026-04-26T10:07:48.746Z</time></trkpt><trkpt lat="44.9315341" lon="7.1477301"><ele>873.75</ele><time>2026-04-26T10:07:49.745Z</time></trkpt><trkpt lat="44.9314058" lon="7.1477344"><ele>875.5</ele><time>2026-04-26T10:07:50.746Z</time></trkpt><trkpt lat="44.9312931" lon="7.1476172"><ele>877.25</ele><time>2026-04-26T10:07:51.746Z</time></trkpt><trkpt lat="44.9311822" lon="7.1475727"><ele>879.0</ele><time>2026-04-26T10:07:52.746Z</time></trkpt><trkpt lat="44.9310755" lon="7.1475399"><ele>879.0</ele><time>2026-04-26T10:07:53.746Z</time></trkpt><trkpt lat="44.9309728" lon="7.1475462"><ele>879.0</ele><time>2026-04-26T10:07:54.746Z</time></trkpt><trkpt lat="44.9308757" lon="7.1476317"><ele>879.0</ele><time>2026-04-26T10:07:55.745Z</time></trkpt><trkpt lat="44.9307646" lon="7.1476965"><ele>879.0</ele><time>2026-04-26T10:07:56.746Z</time></trkpt><trkpt lat="44.9306506" lon="7.1477511"><ele>879.6</ele><time>2026-04-26T10:07:57.746Z</time></trkpt><trkpt lat="44.9305561" lon="7.1478069"><ele>880.2</ele><time>2026-04-26T10:07:58.746Z</time></trkpt><trkpt lat="44.9304787" lon="7.1478863"><ele>880.8000000000001</ele><time>2026-04-26T10:07:59.746Z</time></trkpt><trkpt lat="44.9304269" lon="7.1479876"><ele>881.4000000000001</ele><time>2026-04-26T10:08:00.746Z</time></trkpt><trkpt lat="44.9304017" lon="7.1481156"><ele>882.0</ele><time>2026-04-26T10:08:01.746Z</time></trkpt><trkpt lat="44.9304083" lon="7.1482708"><ele>888.0</ele><time>2026-04-26T10:08:02.746Z</time></trkpt><trkpt lat="44.9303837" lon="7.1484227"><ele>894.0</ele><time>2026-04-26T10:08:03.746Z</time></trkpt><trkpt lat="44.9303611" lon="7.1486006"><ele>900.0</ele><time>2026-04-26T10:08:04.746Z</time></trkpt><trkpt lat="44.9303169" lon="7.1487772"><ele>906.0</ele><time>2026-04-26T10:08:05.746Z</time></trkpt><trkpt lat="44.9302807" lon="7.148944"><ele>906.0</ele><time>2026-04-26T10:08:06.746Z</time></trkpt><trkpt lat="44.9302355" lon="7.1490975"><ele>906.0</ele><time>2026-04-26T10:08:07.746Z</time></trkpt><trkpt lat="44.9301627" lon="7.1492475"><ele>906.0</ele><time>2026-04-26T10:08:08.746Z</time></trkpt><trkpt lat="44.93007" lon="7.1493895"><ele>906.0</ele><time>2026-04-26T10:08:09.746Z</time></trkpt><trkpt lat="44.9299546" lon="7.1495258"><ele>906.0</ele><time>2026-04-26T10:08:10.746Z</time></trkpt><trkpt lat="44.9298452" lon="7.149652"><ele>906.0</ele><time>2026-04-26T10:08:11.746Z</time></trkpt><trkpt lat="44.9297352" lon="7.1497649"><ele>906.0</ele><time>2026-04-26T10:08:12.746Z</time></trkpt><trkpt lat="44.9296281" lon="7.1498303"><ele>906.0</ele><time>2026-04-26T10:08:13.746Z</time></trkpt><trkpt lat="44.9295265" lon="7.1498922"><ele>906.0</ele><time>2026-04-26T10:08:14.746Z</time></trkpt><trkpt lat="44.9294044" lon="7.1498692"><ele>906.0</ele><time>2026-04-26T10:08:15.746Z</time></trkpt><trkpt lat="44.9292888" lon="7.149839"><ele>906.0</ele><time>2026-04-26T10:08:16.746Z</time></trkpt><trkpt lat="44.9291694" lon="7.1498551"><ele>906.0</ele><time>2026-04-26T10:08:17.746Z</time></trkpt><trkpt lat="44.9290532" lon="7.1499427"><ele>910.25</ele><time>2026-04-26T10:08:18.746Z</time></trkpt><trkpt lat="44.9289161" lon="7.1500242"><ele>914.5</ele><time>2026-04-26T10:08:19.746Z</time></trkpt><trkpt lat="44.9287744" lon="7.150109"><ele>918.75</ele><time>2026-04-26T10:08:20.746Z</time></trkpt><trkpt lat="44.9286435" lon="7.1501838"><ele>923.0</ele><time>2026-04-26T10:08:21.746Z</time></trkpt><trkpt lat="44.9285028" lon="7.1502563"><ele>923.0</ele><time>2026-04-26T10:08:22.746Z</time></trkpt><trkpt lat="44.9283549" lon="7.1502996"><ele>923.0</ele><time>2026-04-26T10:08:23.746Z</time></trkpt><trkpt lat="44.9282006" lon="7.1503271"><ele>923.0</ele><time>2026-04-26T10:08:24.746Z</time></trkpt><trkpt lat="44.9280555" lon="7.1503453"><ele>923.0</ele><time>2026-04-26T10:08:25.745Z</time></trkpt><trkpt lat="44.9279101" lon="7.1503562"><ele>923.0</ele><time>2026-04-26T10:08:26.746Z</time></trkpt><trkpt lat="44.9277717" lon="7.1503797"><ele>923.0</ele><time>2026-04-26T10:08:27.746Z</time></trkpt><trkpt lat="44.9276512" lon="7.1504764"><ele>923.0</ele><time>2026-04-26T10:08:28.746Z</time></trkpt><trkpt lat="44.9275169" lon="7.1505618"><ele>922.75</ele><time>2026-04-26T10:08:29.745Z</time></trkpt><trkpt lat="44.9274001" lon="7.1506771"><ele>922.5</ele><time>2026-04-26T10:08:30.746Z</time></trkpt><trkpt lat="44.9272706" lon="7.1507665"><ele>922.25</ele><time>2026-04-26T10:08:31.746Z</time></trkpt><trkpt lat="44.9271433" lon="7.1508419"><ele>922.0</ele><time>2026-04-26T10:08:32.746Z</time></trkpt><trkpt lat="44.9270254" lon="7.15091"><ele>924.6666666666666</ele><time>2026-04-26T10:08:33.746Z</time></trkpt><trkpt lat="44.9269172" lon="7.1509622"><ele>927.3333333333333</ele><time>2026-04-26T10:08:34.746Z</time></trkpt><trkpt lat="44.9268249" lon="7.1509961"><ele>930.0</ele><time>2026-04-26T10:08:35.746Z</time></trkpt><trkpt lat="44.9267411" lon="7.1510196"><ele>932.6666666666667</ele><time>2026-04-26T10:08:36.746Z</time></trkpt><trkpt lat="44.9266691" lon="7.1510521"><ele>935.3333333333334</ele><time>2026-04-26T10:08:37.746Z</time></trkpt><trkpt lat="44.9266118" lon="7.1511034"><ele>938.0</ele><time>2026-04-26T10:08:38.746Z</time></trkpt><trkpt lat="44.926607" lon="7.1512547"><ele>939.75</ele><time>2026-04-26T10:08:40.746Z</time></trkpt><trkpt lat="44.9267346" lon="7.1513205"><ele>941.5</ele><time>2026-04-26T10:08:42.746Z</time></trkpt><trkpt lat="44.9268155" lon="7.1512801"><ele>943.25</ele><time>2026-04-26T10:08:43.746Z</time></trkpt><trkpt lat="44.9269281" lon="7.1512497"><ele>945.0</ele><time>2026-04-26T10:08:44.746Z</time></trkpt><trkpt lat="44.927056" lon="7.1512339"><ele>945.0</ele><time>2026-04-26T10:08:45.746Z</time></trkpt><trkpt lat="44.9272098" lon="7.1512483"><ele>945.0</ele><time>2026-04-26T10:08:46.746Z</time></trkpt><trkpt lat="44.927374" lon="7.1512517"><ele>945.0</ele><time>2026-04-26T10:08:47.746Z</time></trkpt><trkpt lat="44.9275354" lon="7.1512503"><ele>946.0</ele><time>2026-04-26T10:08:48.746Z</time></trkpt><trkpt lat="44.9277149" lon="7.1512515"><ele>947.0</ele><time>2026-04-26T10:08:49.746Z</time></trkpt><trkpt lat="44.9279004" lon="7.1512591"><ele>948.0</ele><time>2026-04-26T10:08:50.746Z</time></trkpt><trkpt lat="44.9280922" lon="7.151285"><ele>948.0</ele><time>2026-04-26T10:08:51.746Z</time></trkpt><trkpt lat="44.9282712" lon="7.1513131"><ele>948.0</ele><time>2026-04-26T10:08:52.745Z</time></trkpt><trkpt lat="44.9284519" lon="7.1513496"><ele>948.0</ele><time>2026-04-26T10:08:53.746Z</time></trkpt><trkpt lat="44.9286234" lon="7.1513846"><ele>947.6666666666667</ele><time>2026-04-26T10:08:54.746Z</time></trkpt><trkpt lat="44.9287921" lon="7.1513816"><ele>947.3333333333334</ele><time>2026-04-26T10:08:55.746Z</time></trkpt><trkpt lat="44.928955" lon="7.1513599"><ele>947.0</ele><time>2026-04-26T10:08:56.746Z</time></trkpt><trkpt lat="44.9290962" lon="7.1513391"><ele>947.0</ele><time>2026-04-26T10:08:57.746Z</time></trkpt><trkpt lat="44.9292152" lon="7.1513223"><ele>947.0</ele><time>2026-04-26T10:08:58.746Z</time></trkpt><trkpt lat="44.9293302" lon="7.1513345"><ele>947.0</ele><time>2026-04-26T10:08:59.746Z</time></trkpt><trkpt lat="44.9294423" lon="7.1513945"><ele>947.0</ele><time>2026-04-26T10:09:00.746Z</time></trkpt><trkpt lat="44.9295548" lon="7.1514749"><ele>953.0</ele><time>2026-04-26T10:09:01.746Z</time></trkpt><trkpt lat="44.9296572" lon="7.1515581"><ele>959.0</ele><time>2026-04-26T10:09:02.746Z</time></trkpt><trkpt lat="44.9297569" lon="7.1516601"><ele>965.0</ele><time>2026-04-26T10:09:03.746Z</time></trkpt><trkpt lat="44.9298604" lon="7.1517629"><ele>971.0</ele><time>2026-04-26T10:09:04.745Z</time></trkpt><trkpt lat="44.9299863" lon="7.1518493"><ele>974.25</ele><time>2026-04-26T10:09:05.746Z</time></trkpt><trkpt lat="44.9301112" lon="7.1519368"><ele>977.5</ele><time>2026-04-26T10:09:06.746Z</time></trkpt><trkpt lat="44.9302259" lon="7.1519815"><ele>980.75</ele><time>2026-04-26T10:09:07.746Z</time></trkpt><trkpt lat="44.9303401" lon="7.1520356"><ele>984.0</ele><time>2026-04-26T10:09:08.746Z</time></trkpt><trkpt lat="44.9304397" lon="7.1520614"><ele>984.0</ele><time>2026-04-26T10:09:09.746Z</time></trkpt><trkpt lat="44.9305142" lon="7.152082"><ele>984.0</ele><time>2026-04-26T10:09:10.746Z</time></trkpt><trkpt lat="44.9305819" lon="7.1520946"><ele>984.0</ele><time>2026-04-26T10:09:11.746Z</time></trkpt><trkpt lat="44.9306472" lon="7.1521089"><ele>984.0</ele><time>2026-04-26T10:09:12.746Z</time></trkpt><trkpt lat="44.9306862" lon="7.1522287"><ele>984.0</ele><time>2026-04-26T10:09:14.746Z</time></trkpt><trkpt lat="44.9305831" lon="7.1523219"><ele>984.0</ele><time>2026-04-26T10:09:16.746Z</time></trkpt><trkpt lat="44.9304799" lon="7.1523349"><ele>984.0</ele><time>2026-04-26T10:09:17.746Z</time></trkpt><trkpt lat="44.9303541" lon="7.1523317"><ele>984.0</ele><time>2026-04-26T10:09:18.746Z</time></trkpt><trkpt lat="44.9302254" lon="7.1523259"><ele>984.0</ele><time>2026-04-26T10:09:19.746Z</time></trkpt><trkpt lat="44.9300786" lon="7.1522946"><ele>984.0</ele><time>2026-04-26T10:09:20.746Z</time></trkpt><trkpt lat="44.9299391" lon="7.1522534"><ele>980.75</ele><time>2026-04-26T10:09:21.746Z</time></trkpt><trkpt lat="44.9298065" lon="7.1522112"><ele>977.5</ele><time>2026-04-26T10:09:22.746Z</time></trkpt><trkpt lat="44.9296731" lon="7.1521779"><ele>974.25</ele><time>2026-04-26T10:09:23.746Z</time></trkpt><trkpt lat="44.9295537" lon="7.1521541"><ele>971.0</ele><time>2026-04-26T10:09:24.746Z</time></trkpt><trkpt lat="44.9294302" lon="7.1521382"><ele>971.0</ele><time>2026-04-26T10:09:25.745Z</time></trkpt><trkpt lat="44.9293065" lon="7.1521585"><ele>971.0</ele><time>2026-04-26T10:09:26.745Z</time></trkpt><trkpt lat="44.9291704" lon="7.1522241"><ele>971.0</ele><time>2026-04-26T10:09:27.745Z</time></trkpt><trkpt lat="44.9290393" lon="7.1522913"><ele>971.0</ele><time>2026-04-26T10:09:28.746Z</time></trkpt><trkpt lat="44.9289064" lon="7.152353"><ele>976.5999999999999</ele><time>2026-04-26T10:09:29.746Z</time></trkpt><trkpt lat="44.9287922" lon="7.152404"><ele>982.1999999999999</ele><time>2026-04-26T10:09:30.746Z</time></trkpt><trkpt lat="44.9286963" lon="7.1524633"><ele>987.8000000000001</ele><time>2026-04-26T10:09:31.746Z</time></trkpt><trkpt lat="44.9286052" lon="7.1525235"><ele>993.4000000000001</ele><time>2026-04-26T10:09:32.745Z</time></trkpt><trkpt lat="44.9285531" lon="7.1526516"><ele>999.0</ele><time>2026-04-26T10:09:33.746Z</time></trkpt><trkpt lat="44.9284832" lon="7.1527771"><ele>999.0</ele><time>2026-04-26T10:09:34.746Z</time></trkpt><trkpt lat="44.9284129" lon="7.1529043"><ele>999.0</ele><time>2026-04-26T10:09:35.746Z</time></trkpt><trkpt lat="44.9283343" lon="7.1530194"><ele>999.0</ele><time>2026-04-26T10:09:36.746Z</time></trkpt><trkpt lat="44.9282352" lon="7.1531265"><ele>999.0</ele><time>2026-04-26T10:09:37.746Z</time></trkpt><trkpt lat="44.9281311" lon="7.1532314"><ele>1000.8000000000001</ele><time>2026-04-26T10:09:38.746Z</time></trkpt><trkpt lat="44.9280424" lon="7.1533189"><ele>1002.6000000000001</ele><time>2026-04-26T10:09:39.746Z</time></trkpt><trkpt lat="44.9279405" lon="7.1534039"><ele>1004.4</ele><time>2026-04-26T10:09:40.746Z</time></trkpt><trkpt lat="44.9278402" lon="7.1534799"><ele>1006.2</ele><time>2026-04-26T10:09:41.746Z</time></trkpt><trkpt lat="44.9277411" lon="7.1535284"><ele>1008.0</ele><time>2026-04-26T10:09:42.746Z</time></trkpt><trkpt lat="44.9276534" lon="7.153559"><ele>1008.0</ele><time>2026-04-26T10:09:43.746Z</time></trkpt><trkpt lat="44.9275863" lon="7.1535794"><ele>1008.0</ele><time>2026-04-26T10:09:44.746Z</time></trkpt><trkpt lat="44.9274754" lon="7.153609"><ele>1008.0</ele><time>2026-04-26T10:09:46.746Z</time></trkpt><trkpt lat="44.9274475" lon="7.1537433"><ele>1008.0</ele><time>2026-04-26T10:09:48.746Z</time></trkpt><trkpt lat="44.9275499" lon="7.1538376"><ele>1008.0</ele><time>2026-04-26T10:09:50.746Z</time></trkpt><trkpt lat="44.9276402" lon="7.1538551"><ele>1008.0</ele><time>2026-04-26T10:09:51.746Z</time></trkpt><trkpt lat="44.9277472" lon="7.1538534"><ele>1008.0</ele><time>2026-04-26T10:09:52.746Z</time></trkpt><trkpt lat="44.9278655" lon="7.1538239"><ele>1008.0</ele><time>2026-04-26T10:09:53.746Z</time></trkpt><trkpt lat="44.9279878" lon="7.1538012"><ele>1008.0</ele><time>2026-04-26T10:09:54.746Z</time></trkpt><trkpt lat="44.9281283" lon="7.1537816"><ele>1008.0</ele><time>2026-04-26T10:09:55.746Z</time></trkpt><trkpt lat="44.9282834" lon="7.1537564"><ele>1008.0</ele><time>2026-04-26T10:09:56.746Z</time></trkpt><trkpt lat="44.9284438" lon="7.1537392"><ele>1008.0</ele><time>2026-04-26T10:09:57.746Z</time></trkpt><trkpt lat="44.9285967" lon="7.1537096"><ele>1013.0</ele><time>2026-04-26T10:09:58.746Z</time></trkpt><trkpt lat="44.9287682" lon="7.1536668"><ele>1018.0</ele><time>2026-04-26T10:09:59.746Z</time></trkpt><trkpt lat="44.9289127" lon="7.15362"><ele>1023.0</ele><time>2026-04-26T10:10:00.746Z</time></trkpt><trkpt lat="44.9290479" lon="7.1535706"><ele>1023.0</ele><time>2026-04-26T10:10:01.746Z</time></trkpt><trkpt lat="44.9291838" lon="7.1535177"><ele>1023.0</ele><time>2026-04-26T10:10:02.746Z</time></trkpt><trkpt lat="44.9293139" lon="7.153475"><ele>1023.0</ele><time>2026-04-26T10:10:03.746Z</time></trkpt><trkpt lat="44.929434" lon="7.1534458"><ele>1023.0</ele><time>2026-04-26T10:10:04.746Z</time></trkpt><trkpt lat="44.9295301" lon="7.153406"><ele>1023.8333333333334</ele><time>2026-04-26T10:10:05.746Z</time></trkpt><trkpt lat="44.9296026" lon="7.1533714"><ele>1024.6666666666667</ele><time>2026-04-26T10:10:06.746Z</time></trkpt><trkpt lat="44.92967" lon="7.1533492"><ele>1025.5</ele><time>2026-04-26T10:10:07.746Z</time></trkpt><trkpt lat="44.9297559" lon="7.1534253"><ele>1026.3333333333335</ele><time>2026-04-26T10:10:09.746Z</time></trkpt><trkpt lat="44.9297083" lon="7.1535625"><ele>1027.1666666666667</ele><time>2026-04-26T10:10:11.746Z</time></trkpt><trkpt lat="44.9296328" lon="7.1536138"><ele>1028.0</ele><time>2026-04-26T10:10:12.746Z</time></trkpt><trkpt lat="44.9295456" lon="7.153672"><ele>1028.0</ele><time>2026-04-26T10:10:13.746Z</time></trkpt><trkpt lat="44.9294492" lon="7.153747"><ele>1028.0</ele><time>2026-04-26T10:10:14.746Z</time></trkpt><trkpt lat="44.9293372" lon="7.1538329"><ele>1028.0</ele><time>2026-04-26T10:10:15.746Z</time></trkpt><trkpt lat="44.9292301" lon="7.1539081"><ele>1028.0</ele><time>2026-04-26T10:10:16.746Z</time></trkpt><trkpt lat="44.9291445" lon="7.1539688"><ele>1027.0</ele><time>2026-04-26T10:10:17.746Z</time></trkpt><trkpt lat="44.9290722" lon="7.1540288"><ele>1026.0</ele><time>2026-04-26T10:10:18.746Z</time></trkpt><trkpt lat="44.9290121" lon="7.1541028"><ele>1025.0</ele><time>2026-04-26T10:10:19.746Z</time></trkpt><trkpt lat="44.9289573" lon="7.1541735"><ele>1024.0</ele><time>2026-04-26T10:10:20.745Z</time></trkpt><trkpt lat="44.9290194" lon="7.1543156"><ele>1023.0</ele><time>2026-04-26T10:10:22.746Z</time></trkpt><trkpt lat="44.9291403" lon="7.1543346"><ele>1029.0</ele><time>2026-04-26T10:10:24.746Z</time></trkpt><trkpt lat="44.9292292" lon="7.1543054"><ele>1035.0</ele><time>2026-04-26T10:10:25.746Z</time></trkpt><trkpt lat="44.9293398" lon="7.1542658"><ele>1041.0</ele><time>2026-04-26T10:10:26.746Z</time></trkpt><trkpt lat="44.9294624" lon="7.1542285"><ele>1047.0</ele><time>2026-04-26T10:10:27.746Z</time></trkpt><trkpt lat="44.9295772" lon="7.1541976"><ele>1053.0</ele><time>2026-04-26T10:10:28.746Z</time></trkpt><trkpt lat="44.9296984" lon="7.15418"><ele>1053.0</ele><time>2026-04-26T10:10:29.746Z</time></trkpt><trkpt lat="44.9298169" lon="7.1541799"><ele>1053.0</ele><time>2026-04-26T10:10:30.746Z</time></trkpt><trkpt lat="44.9299355" lon="7.1542016"><ele>1053.0</ele><time>2026-04-26T10:10:31.746Z</time></trkpt><trkpt lat="44.9300631" lon="7.1542458"><ele>1053.0</ele><time>2026-04-26T10:10:32.745Z</time></trkpt><trkpt lat="44.9301757" lon="7.1543112"><ele>1052.5</ele><time>2026-04-26T10:10:33.746Z</time></trkpt><trkpt lat="44.9302762" lon="7.1543735"><ele>1052.0</ele><time>2026-04-26T10:10:34.746Z</time></trkpt><trkpt lat="44.9303792" lon="7.1544508"><ele>1051.5</ele><time>2026-04-26T10:10:35.746Z</time></trkpt><trkpt lat="44.9304791" lon="7.1545603"><ele>1051.0</ele><time>2026-04-26T10:10:36.746Z</time></trkpt><trkpt lat="44.9305761" lon="7.1546813"><ele>1051.0</ele><time>2026-04-26T10:10:37.746Z</time></trkpt><trkpt lat="44.9306758" lon="7.1548062"><ele>1051.0</ele><time>2026-04-26T10:10:38.746Z</time></trkpt><trkpt lat="44.9307607" lon="7.1549209"><ele>1051.0</ele><time>2026-04-26T10:10:39.746Z</time></trkpt><trkpt lat="44.9308385" lon="7.1550215"><ele>1051.0</ele><time>2026-04-26T10:10:40.746Z</time></trkpt><trkpt lat="44.9309217" lon="7.1551177"><ele>1052.6666666666665</ele><time>2026-04-26T10:10:41.746Z</time></trkpt><trkpt lat="44.9310033" lon="7.1551846"><ele>1054.3333333333333</ele><time>2026-04-26T10:10:42.746Z</time></trkpt><trkpt lat="44.9310764" lon="7.1552268"><ele>1056.0</ele><time>2026-04-26T10:10:43.746Z</time></trkpt><trkpt lat="44.9311386" lon="7.1552582"><ele>1057.6666666666667</ele><time>2026-04-26T10:10:44.746Z</time></trkpt><trkpt lat="44.931233" lon="7.1552832"><ele>1059.3333333333335</ele><time>2026-04-26T10:10:46.746Z</time></trkpt><trkpt lat="44.9312863" lon="7.1553551"><ele>1061.0</ele><time>2026-04-26T10:10:48.746Z</time></trkpt><trkpt lat="44.9312484" lon="7.1554269"><ele>1061.0</ele><time>2026-04-26T10:10:50.746Z</time></trkpt><trkpt lat="44.9311187" lon="7.1554242"><ele>1061.0</ele><time>2026-04-26T10:10:52.746Z</time></trkpt><trkpt lat="44.9310191" lon="7.1554173"><ele>1061.0</ele><time>2026-04-26T10:10:53.746Z</time></trkpt><trkpt lat="44.9309054" lon="7.1554001"><ele>1061.0</ele><time>2026-04-26T10:10:54.746Z</time></trkpt><trkpt lat="44.9308077" lon="7.1553643"><ele>1061.0</ele><time>2026-04-26T10:10:55.746Z</time></trkpt><trkpt lat="44.9307185" lon="7.1553227"><ele>1062.8</ele><time>2026-04-26T10:10:56.746Z</time></trkpt><trkpt lat="44.9306362" lon="7.1552876"><ele>1064.6</ele><time>2026-04-26T10:10:57.746Z</time></trkpt><trkpt lat="44.9305374" lon="7.1552886"><ele>1066.4</ele><time>2026-04-26T10:10:58.746Z</time></trkpt><trkpt lat="44.9304245" lon="7.1552951"><ele>1068.2</ele><time>2026-04-26T10:10:59.746Z</time></trkpt><trkpt lat="44.9303034" lon="7.1552989"><ele>1070.0</ele><time>2026-04-26T10:11:00.746Z</time></trkpt><trkpt lat="44.9302011" lon="7.1553075"><ele>1070.0</ele><time>2026-04-26T10:11:01.746Z</time></trkpt><trkpt lat="44.9300998" lon="7.1553228"><ele>1070.0</ele><time>2026-04-26T10:11:02.746Z</time></trkpt><trkpt lat="44.9300089" lon="7.1553591"><ele>1070.0</ele><time>2026-04-26T10:11:03.746Z</time></trkpt><trkpt lat="44.9299273" lon="7.1554149"><ele>1070.0</ele><time>2026-04-26T10:11:04.746Z</time></trkpt><trkpt lat="44.929853" lon="7.1554769"><ele>1070.0</ele><time>2026-04-26T10:11:05.746Z</time></trkpt><trkpt lat="44.9297794" lon="7.1555406"><ele>1071.5</ele><time>2026-04-26T10:11:06.746Z</time></trkpt><trkpt lat="44.9297048" lon="7.1556192"><ele>1073.0</ele><time>2026-04-26T10:11:07.746Z</time></trkpt><trkpt lat="44.9296294" lon="7.1557284"><ele>1074.5</ele><time>2026-04-26T10:11:08.746Z</time></trkpt><trkpt lat="44.929553" lon="7.1558559"><ele>1076.0</ele><time>2026-04-26T10:11:09.746Z</time></trkpt><trkpt lat="44.9294714" lon="7.1560063"><ele>1079.3333333333335</ele><time>2026-04-26T10:11:10.746Z</time></trkpt><trkpt lat="44.9293853" lon="7.1561637"><ele>1082.6666666666667</ele><time>2026-04-26T10:11:11.745Z</time></trkpt><trkpt lat="44.9292841" lon="7.1563282"><ele>1086.0</ele><time>2026-04-26T10:11:12.746Z</time></trkpt><trkpt lat="44.9291654" lon="7.1564983"><ele>1091.5</ele><time>2026-04-26T10:11:13.746Z</time></trkpt><trkpt lat="44.9290531" lon="7.1566508"><ele>1097.0</ele><time>2026-04-26T10:11:14.746Z</time></trkpt><trkpt lat="44.9289403" lon="7.1567907"><ele>1102.5</ele><time>2026-04-26T10:11:15.746Z</time></trkpt><trkpt lat="44.9288422" lon="7.1568987"><ele>1108.0</ele><time>2026-04-26T10:11:16.746Z</time></trkpt><trkpt lat="44.9287487" lon="7.1569968"><ele>1108.0</ele><time>2026-04-26T10:11:17.746Z</time></trkpt><trkpt lat="44.9286572" lon="7.157095"><ele>1108.0</ele><time>2026-04-26T10:11:18.746Z</time></trkpt><trkpt lat="44.9285762" lon="7.1571688"><ele>1108.0</ele><time>2026-04-26T10:11:19.746Z</time></trkpt><trkpt lat="44.9284937" lon="7.1572303"><ele>1108.0</ele><time>2026-04-26T10:11:20.746Z</time></trkpt><trkpt lat="44.9284069" lon="7.1572534"><ele>1108.0</ele><time>2026-04-26T10:11:21.746Z</time></trkpt><trkpt lat="44.9283211" lon="7.1572418"><ele>1109.4</ele><time>2026-04-26T10:11:22.745Z</time></trkpt><trkpt lat="44.9282346" lon="7.1572342"><ele>1110.8</ele><time>2026-04-26T10:11:23.746Z</time></trkpt><trkpt lat="44.9281564" lon="7.1572393"><ele>1112.2</ele><time>2026-04-26T10:11:24.746Z</time></trkpt><trkpt lat="44.9280437" lon="7.1572902"><ele>1113.6</ele><time>2026-04-26T10:11:26.746Z</time></trkpt><trkpt lat="44.9280585" lon="7.1574"><ele>1115.0</ele><time>2026-04-26T10:11:28.746Z</time></trkpt><trkpt lat="44.9281813" lon="7.15743"><ele>1115.0</ele><time>2026-04-26T10:11:30.746Z</time></trkpt><trkpt lat="44.9282419" lon="7.1574555"><ele>1115.0</ele><time>2026-04-26T10:11:31.746Z</time></trkpt><trkpt lat="44.9283053" lon="7.1574896"><ele>1115.0</ele><time>2026-04-26T10:11:32.746Z</time></trkpt><trkpt lat="44.9283658" lon="7.1575392"><ele>1115.0</ele><time>2026-04-26T10:11:33.746Z</time></trkpt><trkpt lat="44.92843" lon="7.1575922"><ele>1115.0</ele><time>2026-04-26T10:11:34.746Z</time></trkpt><trkpt lat="44.9285019" lon="7.1576215"><ele>1115.0</ele><time>2026-04-26T10:11:35.746Z</time></trkpt><trkpt lat="44.9285741" lon="7.1576238"><ele>1115.0</ele><time>2026-04-26T10:11:36.746Z</time></trkpt><trkpt lat="44.9286462" lon="7.1575986"><ele>1113.8333333333335</ele><time>2026-04-26T10:11:37.746Z</time></trkpt><trkpt lat="44.9287126" lon="7.1575432"><ele>1112.6666666666667</ele><time>2026-04-26T10:11:38.746Z</time></trkpt><trkpt lat="44.9287772" lon="7.1574997"><ele>1111.5</ele><time>2026-04-26T10:11:39.745Z</time></trkpt><trkpt lat="44.928843" lon="7.1574462"><ele>1110.3333333333333</ele><time>2026-04-26T10:11:40.746Z</time></trkpt><trkpt lat="44.9289128" lon="7.1573903"><ele>1109.1666666666665</ele><time>2026-04-26T10:11:41.746Z</time></trkpt><trkpt lat="44.9289849" lon="7.1573379"><ele>1108.0</ele><time>2026-04-26T10:11:42.746Z</time></trkpt><trkpt lat="44.9290707" lon="7.1572853"><ele>1108.0</ele><time>2026-04-26T10:11:43.746Z</time></trkpt><trkpt lat="44.9291509" lon="7.1572402"><ele>1108.0</ele><time>2026-04-26T10:11:44.746Z</time></trkpt><trkpt lat="44.9292267" lon="7.1572042"><ele>1108.0</ele><time>2026-04-26T10:11:45.745Z</time></trkpt><trkpt lat="44.9292938" lon="7.157168"><ele>1108.0</ele><time>2026-04-26T10:11:46.746Z</time></trkpt><trkpt lat="44.9293604" lon="7.1571241"><ele>1108.0</ele><time>2026-04-26T10:11:47.746Z</time></trkpt><trkpt lat="44.929426" lon="7.1570804"><ele>1108.0</ele><time>2026-04-26T10:11:48.746Z</time></trkpt><trkpt lat="44.9294967" lon="7.1570306"><ele>1109.1666666666665</ele><time>2026-04-26T10:11:49.746Z</time></trkpt><trkpt lat="44.929552" lon="7.1569527"><ele>1110.3333333333333</ele><time>2026-04-26T10:11:50.746Z</time></trkpt><trkpt lat="44.9296061" lon="7.1568956"><ele>1111.5</ele><time>2026-04-26T10:11:51.746Z</time></trkpt><trkpt lat="44.9296596" lon="7.1568397"><ele>1112.6666666666667</ele><time>2026-04-26T10:11:52.746Z</time></trkpt><trkpt lat="44.9297598" lon="7.1567333"><ele>1113.8333333333335</ele><time>2026-04-26T10:11:54.746Z</time></trkpt><trkpt lat="44.9298547" lon="7.1566514"><ele>1115.0</ele><time>2026-04-26T10:11:56.746Z</time></trkpt><trkpt lat="44.9299469" lon="7.1566203"><ele>1115.0</ele><time>2026-04-26T10:11:58.746Z</time></trkpt><trkpt lat="44.9300281" lon="7.1566701"><ele>1115.0</ele><time>2026-04-26T10:12:00.746Z</time></trkpt><trkpt lat="44.93007" lon="7.1568209"><ele>1115.0</ele><time>2026-04-26T10:12:02.746Z</time></trkpt><trkpt lat="44.9300731" lon="7.1569286"><ele>1115.0</ele><time>2026-04-26T10:12:03.746Z</time></trkpt><trkpt lat="44.930056" lon="7.1570427"><ele>1115.0</ele><time>2026-04-26T10:12:04.746Z</time></trkpt><trkpt lat="44.9300329" lon="7.1571668"><ele>1115.0</ele><time>2026-04-26T10:12:05.746Z</time></trkpt><trkpt lat="44.930014" lon="7.1572996"><ele>1115.0</ele><time>2026-04-26T10:12:06.746Z</time></trkpt><trkpt lat="44.9300016" lon="7.1574214"><ele>1115.0</ele><time>2026-04-26T10:12:07.746Z</time></trkpt><trkpt lat="44.9299928" lon="7.157549"><ele>1115.0</ele><time>2026-04-26T10:12:08.746Z</time></trkpt><trkpt lat="44.9299949" lon="7.1576804"><ele>1115.0</ele><time>2026-04-26T10:12:09.746Z</time></trkpt><trkpt lat="44.9299914" lon="7.1578112"><ele>1117.2</ele><time>2026-04-26T10:12:10.746Z</time></trkpt><trkpt lat="44.929999" lon="7.1579504"><ele>1119.4</ele><time>2026-04-26T10:12:11.746Z</time></trkpt><trkpt lat="44.9300069" lon="7.1580792"><ele>1121.6</ele><time>2026-04-26T10:12:12.746Z</time></trkpt><trkpt lat="44.9300206" lon="7.1582273"><ele>1123.8</ele><time>2026-04-26T10:12:13.746Z</time></trkpt><trkpt lat="44.9300248" lon="7.1583665"><ele>1126.0</ele><time>2026-04-26T10:12:14.746Z</time></trkpt><trkpt lat="44.9300236" lon="7.1585087"><ele>1128.0</ele><time>2026-04-26T10:12:15.746Z</time></trkpt><trkpt lat="44.930013" lon="7.158643"><ele>1130.0</ele><time>2026-04-26T10:12:16.746Z</time></trkpt><trkpt lat="44.9299794" lon="7.1587874"><ele>1132.0</ele><time>2026-04-26T10:12:17.746Z</time></trkpt><trkpt lat="44.9299384" lon="7.1589331"><ele>1134.0</ele><time>2026-04-26T10:12:18.746Z</time></trkpt><trkpt lat="44.9298977" lon="7.1590773"><ele>1136.0</ele><time>2026-04-26T10:12:19.746Z</time></trkpt><trkpt lat="44.9298829" lon="7.1592277"><ele>1137.2</ele><time>2026-04-26T10:12:20.746Z</time></trkpt><trkpt lat="44.9298553" lon="7.1593629"><ele>1138.3999999999999</ele><time>2026-04-26T10:12:21.746Z</time></trkpt><trkpt lat="44.9298268" lon="7.1594831"><ele>1139.6</ele><time>2026-04-26T10:12:22.746Z</time></trkpt><trkpt lat="44.929805" lon="7.1596091"><ele>1140.8</ele><time>2026-04-26T10:12:23.746Z</time></trkpt><trkpt lat="44.9297816" lon="7.1597115"><ele>1142.0</ele><time>2026-04-26T10:12:24.746Z</time></trkpt><trkpt lat="44.9297462" lon="7.1598612"><ele>1142.0</ele><time>2026-04-26T10:12:26.746Z</time></trkpt><trkpt lat="44.9296739" lon="7.1599365"><ele>1142.0</ele><time>2026-04-26T10:12:29.746Z</time></trkpt><trkpt lat="44.9296346" lon="7.1598292"><ele>1142.0</ele><time>2026-04-26T10:12:31.746Z</time></trkpt><trkpt lat="44.929633" lon="7.1597321"><ele>1142.0</ele><time>2026-04-26T10:12:32.746Z</time></trkpt><trkpt lat="44.9296368" lon="7.1596335"><ele>1142.0</ele><time>2026-04-26T10:12:33.746Z</time></trkpt><trkpt lat="44.9296296" lon="7.1595194"><ele>1142.0</ele><time>2026-04-26T10:12:34.746Z</time></trkpt><trkpt lat="44.9296127" lon="7.1593792"><ele>1142.0</ele><time>2026-04-26T10:12:35.746Z</time></trkpt><trkpt lat="44.9296006" lon="7.1592674"><ele>1142.0</ele><time>2026-04-26T10:12:36.746Z</time></trkpt><trkpt lat="44.9295893" lon="7.1591682"><ele>1142.0</ele><time>2026-04-26T10:12:37.746Z</time></trkpt><trkpt lat="44.9295716" lon="7.1590653"><ele>1142.0</ele><time>2026-04-26T10:12:38.746Z</time></trkpt><trkpt lat="44.9295353" lon="7.158981"><ele>1142.0</ele><time>2026-04-26T10:12:39.746Z</time></trkpt><trkpt lat="44.9294846" lon="7.1589104"><ele>1142.0</ele><time>2026-04-26T10:12:40.746Z</time></trkpt><trkpt lat="44.9294186" lon="7.1588585"><ele>1142.0</ele><time>2026-04-26T10:12:41.746Z</time></trkpt><trkpt lat="44.9293583" lon="7.1588279"><ele>1142.0</ele><time>2026-04-26T10:12:42.746Z</time></trkpt><trkpt lat="44.9292608" lon="7.1588693"><ele>1142.0</ele><time>2026-04-26T10:12:44.746Z</time></trkpt><trkpt lat="44.9292618" lon="7.1589909"><ele>1142.0</ele><time>2026-04-26T10:12:46.746Z</time></trkpt><trkpt lat="44.9293337" lon="7.1591342"><ele>1142.0</ele><time>2026-04-26T10:12:48.746Z</time></trkpt><trkpt lat="44.9293638" lon="7.1592183"><ele>1142.0</ele><time>2026-04-26T10:12:49.746Z</time></trkpt><trkpt lat="44.9293797" lon="7.1593114"><ele>1142.0</ele><time>2026-04-26T10:12:50.746Z</time></trkpt><trkpt lat="44.9293839" lon="7.1594115"><ele>1142.0</ele><time>2026-04-26T10:12:51.746Z</time></trkpt><trkpt lat="44.9293808" lon="7.1595143"><ele>1142.0</ele><time>2026-04-26T10:12:52.746Z</time></trkpt><trkpt lat="44.9293622" lon="7.1596133"><ele>1142.0</ele><time>2026-04-26T10:12:53.746Z</time></trkpt><trkpt lat="44.9293393" lon="7.1597106"><ele>1142.0</ele><time>2026-04-26T10:12:54.746Z</time></trkpt><trkpt lat="44.9293195" lon="7.1598084"><ele>1142.0</ele><time>2026-04-26T10:12:55.746Z</time></trkpt><trkpt lat="44.9292946" lon="7.1598961"><ele>1142.0</ele><time>2026-04-26T10:12:56.746Z</time></trkpt><trkpt lat="44.9292577" lon="7.1599859"><ele>1142.0</ele><time>2026-04-26T10:12:57.746Z</time></trkpt><trkpt lat="44.9292129" lon="7.1600578"><ele>1145.4285714285716</ele><time>2026-04-26T10:12:58.746Z</time></trkpt><trkpt lat="44.9291614" lon="7.1601178"><ele>1148.857142857143</ele><time>2026-04-26T10:12:59.746Z</time></trkpt><trkpt lat="44.9290987" lon="7.1601565"><ele>1152.2857142857142</ele><time>2026-04-26T10:13:00.745Z</time></trkpt><trkpt lat="44.9290323" lon="7.1601951"><ele>1155.7142857142858</ele><time>2026-04-26T10:13:01.746Z</time></trkpt><trkpt lat="44.9289779" lon="7.1602572"><ele>1159.142857142857</ele><time>2026-04-26T10:13:02.746Z</time></trkpt><trkpt lat="44.9289277" lon="7.160329"><ele>1162.5714285714287</ele><time>2026-04-26T10:13:03.746Z</time></trkpt><trkpt lat="44.9289352" lon="7.1604261"><ele>1166.0</ele><time>2026-04-26T10:13:04.746Z</time></trkpt><trkpt lat="44.9289237" lon="7.1605268"><ele>1166.0</ele><time>2026-04-26T10:13:05.746Z</time></trkpt><trkpt lat="44.9289204" lon="7.1606516"><ele>1166.0</ele><time>2026-04-26T10:13:06.746Z</time></trkpt><trkpt lat="44.9289185" lon="7.1607669"><ele>1166.0</ele><time>2026-04-26T10:13:07.746Z</time></trkpt><trkpt lat="44.928927" lon="7.1609074"><ele>1166.0</ele><time>2026-04-26T10:13:08.746Z</time></trkpt><trkpt lat="44.9289336" lon="7.1610328"><ele>1166.0</ele><time>2026-04-26T10:13:09.746Z</time></trkpt><trkpt lat="44.9289516" lon="7.1611532"><ele>1166.0</ele><time>2026-04-26T10:13:10.746Z</time></trkpt><trkpt lat="44.9289762" lon="7.1612611"><ele>1166.6666666666667</ele><time>2026-04-26T10:13:11.746Z</time></trkpt><trkpt lat="44.9289856" lon="7.1613694"><ele>1167.3333333333335</ele><time>2026-04-26T10:13:12.746Z</time></trkpt><trkpt lat="44.9289878" lon="7.1614913"><ele>1168.0</ele><time>2026-04-26T10:13:13.746Z</time></trkpt><trkpt lat="44.92898" lon="7.1615972"><ele>1168.6666666666667</ele><time>2026-04-26T10:13:14.746Z</time></trkpt><trkpt lat="44.9289656" lon="7.1617133"><ele>1169.3333333333333</ele><time>2026-04-26T10:13:15.746Z</time></trkpt><trkpt lat="44.9289532" lon="7.1618304"><ele>1170.0</ele><time>2026-04-26T10:13:16.746Z</time></trkpt><trkpt lat="44.9289311" lon="7.1619507"><ele>1171.0</ele><time>2026-04-26T10:13:17.746Z</time></trkpt><trkpt lat="44.9289057" lon="7.1620688"><ele>1172.0</ele><time>2026-04-26T10:13:18.746Z</time></trkpt><trkpt lat="44.9288865" lon="7.1621828"><ele>1173.0</ele><time>2026-04-26T10:13:19.746Z</time></trkpt><trkpt lat="44.9288746" lon="7.1623226"><ele>1174.0</ele><time>2026-04-26T10:13:20.746Z</time></trkpt><trkpt lat="44.9288498" lon="7.1624297"><ele>1175.0</ele><time>2026-04-26T10:13:21.746Z</time></trkpt><trkpt lat="44.9288166" lon="7.1625231"><ele>1176.0</ele><time>2026-04-26T10:13:22.746Z</time></trkpt><trkpt lat="44.9287936" lon="7.1626071"><ele>1176.0</ele><time>2026-04-26T10:13:23.746Z</time></trkpt><trkpt lat="44.9287529" lon="7.1627261"><ele>1176.0</ele><time>2026-04-26T10:13:25.746Z</time></trkpt><trkpt lat="44.9286633" lon="7.1626895"><ele>1176.0</ele><time>2026-04-26T10:13:28.746Z</time></trkpt><trkpt lat="44.9286629" lon="7.1625555"><ele>1176.0</ele><time>2026-04-26T10:13:30.746Z</time></trkpt><trkpt lat="44.9286571" lon="7.1623753"><ele>1176.0</ele><time>2026-04-26T10:13:32.746Z</time></trkpt><trkpt lat="44.9286404" lon="7.1622873"><ele>1176.0</ele><time>2026-04-26T10:13:33.746Z</time></trkpt><trkpt lat="44.9286161" lon="7.1622031"><ele>1176.0</ele><time>2026-04-26T10:13:34.746Z</time></trkpt><trkpt lat="44.9285939" lon="7.1621181"><ele>1176.0</ele><time>2026-04-26T10:13:35.746Z</time></trkpt><trkpt lat="44.9285616" lon="7.1620063"><ele>1176.0</ele><time>2026-04-26T10:13:36.746Z</time></trkpt><trkpt lat="44.9285214" lon="7.161906"><ele>1176.0</ele><time>2026-04-26T10:13:37.746Z</time></trkpt><trkpt lat="44.9284791" lon="7.1617905"><ele>1176.0</ele><time>2026-04-26T10:13:38.746Z</time></trkpt><trkpt lat="44.9284259" lon="7.1616635"><ele>1178.3999999999999</ele><time>2026-04-26T10:13:39.746Z</time></trkpt><trkpt lat="44.9283681" lon="7.1615137"><ele>1180.8</ele><time>2026-04-26T10:13:40.746Z</time></trkpt><trkpt lat="44.9283177" lon="7.1613818"><ele>1183.1999999999998</ele><time>2026-04-26T10:13:41.746Z</time></trkpt><trkpt lat="44.9282647" lon="7.1612694"><ele>1185.6</ele><time>2026-04-26T10:13:42.746Z</time></trkpt><trkpt lat="44.9282137" lon="7.16117"><ele>1188.0</ele><time>2026-04-26T10:13:43.745Z</time></trkpt><trkpt lat="44.928156" lon="7.1610923"><ele>1188.0</ele><time>2026-04-26T10:13:44.745Z</time></trkpt><trkpt lat="44.9280876" lon="7.161024"><ele>1188.0</ele><time>2026-04-26T10:13:45.746Z</time></trkpt><trkpt lat="44.9280103" lon="7.1609591"><ele>1188.0</ele><time>2026-04-26T10:13:46.746Z</time></trkpt><trkpt lat="44.9279358" lon="7.1609033"><ele>1188.0</ele><time>2026-04-26T10:13:47.746Z</time></trkpt><trkpt lat="44.9278717" lon="7.1608538"><ele>1188.0</ele><time>2026-04-26T10:13:48.746Z</time></trkpt><trkpt lat="44.9277835" lon="7.1607782"><ele>1188.0</ele><time>2026-04-26T10:13:50.746Z</time></trkpt><trkpt lat="44.9277205" lon="7.1607816"><ele>1188.0</ele><time>2026-04-26T10:13:52.746Z</time></trkpt><trkpt lat="44.9277132" lon="7.1608725"><ele>1188.0</ele><time>2026-04-26T10:13:54.746Z</time></trkpt><trkpt lat="44.9277739" lon="7.160942"><ele>1188.0</ele><time>2026-04-26T10:13:56.746Z</time></trkpt><trkpt lat="44.9278433" lon="7.1610258"><ele>1188.0</ele><time>2026-04-26T10:13:58.746Z</time></trkpt><trkpt lat="44.9279018" lon="7.1611503"><ele>1188.0</ele><time>2026-04-26T10:14:00.746Z</time></trkpt><trkpt lat="44.9279448" lon="7.1612925"><ele>1188.0</ele><time>2026-04-26T10:14:02.746Z</time></trkpt><trkpt lat="44.927977" lon="7.1614421"><ele>1191.0</ele><time>2026-04-26T10:14:04.746Z</time></trkpt><trkpt lat="44.928003" lon="7.1615927"><ele>1194.0</ele><time>2026-04-26T10:14:06.746Z</time></trkpt><trkpt lat="44.9280187" lon="7.1617622"><ele>1197.0</ele><time>2026-04-26T10:14:08.746Z</time></trkpt><trkpt lat="44.9280234" lon="7.1618587"><ele>1200.0</ele><time>2026-04-26T10:14:09.746Z</time></trkpt><trkpt lat="44.9280345" lon="7.1620329"><ele>1203.0</ele><time>2026-04-26T10:14:11.746Z</time></trkpt><trkpt lat="44.928043" lon="7.1621212"><ele>1203.0</ele><time>2026-04-26T10:14:12.746Z</time></trkpt><trkpt lat="44.9280448" lon="7.1622956"><ele>1203.0</ele><time>2026-04-26T10:14:14.746Z</time></trkpt><trkpt lat="44.9280357" lon="7.1623893"><ele>1203.0</ele><time>2026-04-26T10:14:15.746Z</time></trkpt><trkpt lat="44.9280194" lon="7.1624813"><ele>1203.0</ele><time>2026-04-26T10:14:16.746Z</time></trkpt><trkpt lat="44.927997" lon="7.1625868"><ele>1203.0</ele><time>2026-04-26T10:14:17.746Z</time></trkpt><trkpt lat="44.9279749" lon="7.1626962"><ele>1203.0</ele><time>2026-04-26T10:14:18.746Z</time></trkpt><trkpt lat="44.92796" lon="7.1628026"><ele>1204.0</ele><time>2026-04-26T10:14:19.746Z</time></trkpt><trkpt lat="44.9279364" lon="7.1629065"><ele>1205.0</ele><time>2026-04-26T10:14:20.746Z</time></trkpt><trkpt lat="44.9279068" lon="7.1629901"><ele>1206.0</ele><time>2026-04-26T10:14:21.746Z</time></trkpt><trkpt lat="44.9278864" lon="7.1630812"><ele>1207.0</ele><time>2026-04-26T10:14:22.745Z</time></trkpt><trkpt lat="44.9278635" lon="7.1631647"><ele>1208.0</ele><time>2026-04-26T10:14:23.746Z</time></trkpt><trkpt lat="44.9278205" lon="7.1633024"><ele>1209.0</ele><time>2026-04-26T10:14:25.746Z</time></trkpt><trkpt lat="44.9277528" lon="7.1632897"><ele>1210.0</ele><time>2026-04-26T10:14:28.746Z</time></trkpt><trkpt lat="44.9277542" lon="7.1631672"><ele>1210.0</ele><time>2026-04-26T10:14:30.746Z</time></trkpt><trkpt lat="44.9277532" lon="7.1629912"><ele>1210.0</ele><time>2026-04-26T10:14:32.746Z</time></trkpt><trkpt lat="44.9277178" lon="7.1628305"><ele>1210.0</ele><time>2026-04-26T10:14:34.745Z</time></trkpt><trkpt lat="44.9276792" lon="7.1627497"><ele>1210.0</ele><time>2026-04-26T10:14:35.746Z</time></trkpt><trkpt lat="44.9276265" lon="7.1626742"><ele>1210.0</ele><time>2026-04-26T10:14:36.746Z</time></trkpt><trkpt lat="44.927566" lon="7.1625661"><ele>1212.5714285714284</ele><time>2026-04-26T10:14:37.746Z</time></trkpt><trkpt lat="44.9275257" lon="7.162487"><ele>1215.142857142857</ele><time>2026-04-26T10:14:38.746Z</time></trkpt><trkpt lat="44.9274816" lon="7.1624224"><ele>1217.7142857142858</ele><time>2026-04-26T10:14:39.746Z</time></trkpt><trkpt lat="44.9274343" lon="7.1623459"><ele>1220.2857142857142</ele><time>2026-04-26T10:14:40.746Z</time></trkpt><trkpt lat="44.9273842" lon="7.1622915"><ele>1222.857142857143</ele><time>2026-04-26T10:14:41.746Z</time></trkpt><trkpt lat="44.9273014" lon="7.1622319"><ele>1225.4285714285713</ele><time>2026-04-26T10:14:42.746Z</time></trkpt><trkpt lat="44.9272252" lon="7.1621689"><ele>1228.0</ele><time>2026-04-26T10:14:43.746Z</time></trkpt><trkpt lat="44.9271613" lon="7.1621114"><ele>1228.0</ele><time>2026-04-26T10:14:44.746Z</time></trkpt><trkpt lat="44.9270933" lon="7.162061"><ele>1228.0</ele><time>2026-04-26T10:14:45.746Z</time></trkpt><trkpt lat="44.9270252" lon="7.1620079"><ele>1228.0</ele><time>2026-04-26T10:14:46.746Z</time></trkpt><trkpt lat="44.9269604" lon="7.1619643"><ele>1228.0</ele><time>2026-04-26T10:14:47.746Z</time></trkpt><trkpt lat="44.9268976" lon="7.1619175"><ele>1228.0</ele><time>2026-04-26T10:14:48.746Z</time></trkpt><trkpt lat="44.9268259" lon="7.1618698"><ele>1228.0</ele><time>2026-04-26T10:14:49.746Z</time></trkpt><trkpt lat="44.9267552" lon="7.161823"><ele>1228.6</ele><time>2026-04-26T10:14:50.746Z</time></trkpt><trkpt lat="44.9266742" lon="7.1617633"><ele>1229.1999999999998</ele><time>2026-04-26T10:14:51.746Z</time></trkpt><trkpt lat="44.9265904" lon="7.1617095"><ele>1229.8</ele><time>2026-04-26T10:14:52.746Z</time></trkpt><trkpt lat="44.9265134" lon="7.1616444"><ele>1230.3999999999999</ele><time>2026-04-26T10:14:53.746Z</time></trkpt><trkpt lat="44.9264414" lon="7.1615635"><ele>1231.0</ele><time>2026-04-26T10:14:54.746Z</time></trkpt><trkpt lat="44.9263761" lon="7.1614799"><ele>1231.0</ele><time>2026-04-26T10:14:55.746Z</time></trkpt><trkpt lat="44.9263038" lon="7.1613942"><ele>1231.0</ele><time>2026-04-26T10:14:56.746Z</time></trkpt><trkpt lat="44.9262548" lon="7.1613144"><ele>1231.0</ele><time>2026-04-26T10:14:57.745Z</time></trkpt><trkpt lat="44.9262103" lon="7.1612497"><ele>1231.0</ele><time>2026-04-26T10:14:58.746Z</time></trkpt><trkpt lat="44.9261572" lon="7.1611605"><ele>1231.0</ele><time>2026-04-26T10:15:00.746Z</time></trkpt><trkpt lat="44.9260858" lon="7.1611727"><ele>1231.0</ele><time>2026-04-26T10:15:02.746Z</time></trkpt><trkpt lat="44.9260879" lon="7.161283"><ele>1231.0</ele><time>2026-04-26T10:15:04.746Z</time></trkpt><trkpt lat="44.9261324" lon="7.1614396"><ele>1231.0</ele><time>2026-04-26T10:15:06.746Z</time></trkpt><trkpt lat="44.9261616" lon="7.1616091"><ele>1231.0</ele><time>2026-04-26T10:15:08.746Z</time></trkpt><trkpt lat="44.926173" lon="7.1617294"><ele>1231.0</ele><time>2026-04-26T10:15:09.746Z</time></trkpt><trkpt lat="44.9261915" lon="7.1618304"><ele>1231.0</ele><time>2026-04-26T10:15:10.746Z</time></trkpt><trkpt lat="44.9262072" lon="7.1619433"><ele>1234.0</ele><time>2026-04-26T10:15:11.746Z</time></trkpt><trkpt lat="44.9262321" lon="7.1620655"><ele>1237.0</ele><time>2026-04-26T10:15:12.746Z</time></trkpt><trkpt lat="44.9262631" lon="7.1621808"><ele>1240.0</ele><time>2026-04-26T10:15:13.746Z</time></trkpt><trkpt lat="44.926313" lon="7.1622848"><ele>1243.0</ele><time>2026-04-26T10:15:14.746Z</time></trkpt><trkpt lat="44.9263532" lon="7.1623922"><ele>1246.0</ele><time>2026-04-26T10:15:15.746Z</time></trkpt><trkpt lat="44.9263911" lon="7.1625052"><ele>1249.0</ele><time>2026-04-26T10:15:16.746Z</time></trkpt><trkpt lat="44.926421" lon="7.1626193"><ele>1251.8333333333333</ele><time>2026-04-26T10:15:17.746Z</time></trkpt><trkpt lat="44.9264539" lon="7.1627254"><ele>1254.6666666666665</ele><time>2026-04-26T10:15:18.745Z</time></trkpt><trkpt lat="44.9264785" lon="7.1628265"><ele>1257.5</ele><time>2026-04-26T10:15:19.746Z</time></trkpt><trkpt lat="44.9265094" lon="7.1629222"><ele>1260.3333333333333</ele><time>2026-04-26T10:15:20.746Z</time></trkpt><trkpt lat="44.9265377" lon="7.1630397"><ele>1263.1666666666667</ele><time>2026-04-26T10:15:21.746Z</time></trkpt><trkpt lat="44.9265499" lon="7.1631419"><ele>1266.0</ele><time>2026-04-26T10:15:22.746Z</time></trkpt><trkpt lat="44.9265614" lon="7.1632546"><ele>1268.1666666666667</ele><time>2026-04-26T10:15:23.746Z</time></trkpt><trkpt lat="44.9265491" lon="7.1633581"><ele>1270.3333333333333</ele><time>2026-04-26T10:15:24.746Z</time></trkpt><trkpt lat="44.9265315" lon="7.1634633"><ele>1272.5</ele><time>2026-04-26T10:15:25.746Z</time></trkpt><trkpt lat="44.9265187" lon="7.163589"><ele>1274.6666666666665</ele><time>2026-04-26T10:15:26.746Z</time></trkpt><trkpt lat="44.9265025" lon="7.1637262"><ele>1276.8333333333333</ele><time>2026-04-26T10:15:27.746Z</time></trkpt><trkpt lat="44.9264957" lon="7.1638667"><ele>1279.0</ele><time>2026-04-26T10:15:28.746Z</time></trkpt><trkpt lat="44.9264753" lon="7.1639965"><ele>1280.6</ele><time>2026-04-26T10:15:29.746Z</time></trkpt><trkpt lat="44.9264558" lon="7.1641433"><ele>1282.2</ele><time>2026-04-26T10:15:30.746Z</time></trkpt><trkpt lat="44.9264325" lon="7.1642772"><ele>1283.8</ele><time>2026-04-26T10:15:31.746Z</time></trkpt><trkpt lat="44.9264107" lon="7.1644053"><ele>1285.3999999999999</ele><time>2026-04-26T10:15:32.746Z</time></trkpt><trkpt lat="44.9264003" lon="7.1645143"><ele>1287.0</ele><time>2026-04-26T10:15:33.746Z</time></trkpt><trkpt lat="44.9263809" lon="7.1646218"><ele>1287.0</ele><time>2026-04-26T10:15:34.746Z</time></trkpt><trkpt lat="44.9263561" lon="7.1647516"><ele>1287.0</ele><time>2026-04-26T10:15:35.746Z</time></trkpt><trkpt lat="44.9263348" lon="7.1648948"><ele>1287.0</ele><time>2026-04-26T10:15:36.746Z</time></trkpt><trkpt lat="44.9263187" lon="7.1650509"><ele>1287.0</ele><time>2026-04-26T10:15:37.746Z</time></trkpt><trkpt lat="44.9262937" lon="7.1651874"><ele>1287.0</ele><time>2026-04-26T10:15:38.745Z</time></trkpt><trkpt lat="44.9262674" lon="7.1653021"><ele>1287.6</ele><time>2026-04-26T10:15:39.746Z</time></trkpt><trkpt lat="44.9262261" lon="7.1654139"><ele>1288.1999999999998</ele><time>2026-04-26T10:15:40.746Z</time></trkpt><trkpt lat="44.9261987" lon="7.1655461"><ele>1288.8</ele><time>2026-04-26T10:15:41.745Z</time></trkpt><trkpt lat="44.9261736" lon="7.1656779"><ele>1289.4</ele><time>2026-04-26T10:15:42.746Z</time></trkpt><trkpt lat="44.9261704" lon="7.1658204"><ele>1290.0</ele><time>2026-04-26T10:15:43.746Z</time></trkpt><trkpt lat="44.9261677" lon="7.1659718"><ele>1290.0</ele><time>2026-04-26T10:15:44.746Z</time></trkpt><trkpt lat="44.9261604" lon="7.1661153"><ele>1290.0</ele><time>2026-04-26T10:15:45.746Z</time></trkpt><trkpt lat="44.9261461" lon="7.1662565"><ele>1290.0</ele><time>2026-04-26T10:15:46.746Z</time></trkpt><trkpt lat="44.9261237" lon="7.1663942"><ele>1290.0</ele><time>2026-04-26T10:15:47.746Z</time></trkpt><trkpt lat="44.9260951" lon="7.1665174"><ele>1290.0</ele><time>2026-04-26T10:15:48.746Z</time></trkpt><trkpt lat="44.9260924" lon="7.1666579"><ele>1290.4</ele><time>2026-04-26T10:15:49.746Z</time></trkpt><trkpt lat="44.9260847" lon="7.1667897"><ele>1290.8</ele><time>2026-04-26T10:15:50.746Z</time></trkpt><trkpt lat="44.9260778" lon="7.1669197"><ele>1291.1999999999998</ele><time>2026-04-26T10:15:51.746Z</time></trkpt><trkpt lat="44.9260658" lon="7.1670488"><ele>1291.6</ele><time>2026-04-26T10:15:52.745Z</time></trkpt><trkpt lat="44.9260491" lon="7.1671749"><ele>1292.0</ele><time>2026-04-26T10:15:53.746Z</time></trkpt><trkpt lat="44.9260215" lon="7.1673143"><ele>1293.5</ele><time>2026-04-26T10:15:54.746Z</time></trkpt><trkpt lat="44.9260031" lon="7.1674371"><ele>1295.0</ele><time>2026-04-26T10:15:55.746Z</time></trkpt><trkpt lat="44.9260001" lon="7.1675564"><ele>1296.5</ele><time>2026-04-26T10:15:56.746Z</time></trkpt><trkpt lat="44.9259973" lon="7.1676781"><ele>1298.0</ele><time>2026-04-26T10:15:57.746Z</time></trkpt><trkpt lat="44.9260416" lon="7.1677928"><ele>1299.5</ele><time>2026-04-26T10:15:58.745Z</time></trkpt><trkpt lat="44.9260813" lon="7.1679089"><ele>1301.0</ele><time>2026-04-26T10:15:59.746Z</time></trkpt><trkpt lat="44.9261155" lon="7.1680178"><ele>1301.0</ele><time>2026-04-26T10:16:00.746Z</time></trkpt><trkpt lat="44.9261364" lon="7.1681288"><ele>1301.0</ele><time>2026-04-26T10:16:01.746Z</time></trkpt><trkpt lat="44.9261675" lon="7.1682581"><ele>1301.0</ele><time>2026-04-26T10:16:02.745Z</time></trkpt><trkpt lat="44.9261921" lon="7.1683918"><ele>1301.0</ele><time>2026-04-26T10:16:03.746Z</time></trkpt><trkpt lat="44.9262372" lon="7.1685372"><ele>1301.0</ele><time>2026-04-26T10:16:04.746Z</time></trkpt><trkpt lat="44.9262718" lon="7.1686679"><ele>1303.1666666666667</ele><time>2026-04-26T10:16:05.746Z</time></trkpt><trkpt lat="44.9262971" lon="7.1687858"><ele>1305.3333333333335</ele><time>2026-04-26T10:16:06.746Z</time></trkpt><trkpt lat="44.9263173" lon="7.1688972"><ele>1307.5</ele><time>2026-04-26T10:16:07.746Z</time></trkpt><trkpt lat="44.9263253" lon="7.1690099"><ele>1309.6666666666667</ele><time>2026-04-26T10:16:08.746Z</time></trkpt><trkpt lat="44.9263531" lon="7.1691252"><ele>1311.8333333333333</ele><time>2026-04-26T10:16:09.746Z</time></trkpt><trkpt lat="44.9263878" lon="7.1692408"><ele>1314.0</ele><time>2026-04-26T10:16:10.746Z</time></trkpt><trkpt lat="44.9264179" lon="7.1693581"><ele>1316.3333333333333</ele><time>2026-04-26T10:16:11.746Z</time></trkpt><trkpt lat="44.9264375" lon="7.1694812"><ele>1318.6666666666667</ele><time>2026-04-26T10:16:12.746Z</time></trkpt><trkpt lat="44.926451" lon="7.1696052"><ele>1321.0</ele><time>2026-04-26T10:16:13.746Z</time></trkpt><trkpt lat="44.9264674" lon="7.1696985"><ele>1323.3333333333335</ele><time>2026-04-26T10:16:14.746Z</time></trkpt><trkpt lat="44.9264962" lon="7.1698049"><ele>1325.6666666666667</ele><time>2026-04-26T10:16:15.746Z</time></trkpt><trkpt lat="44.9265622" lon="7.169918"><ele>1328.0</ele><time>2026-04-26T10:16:16.745Z</time></trkpt><trkpt lat="44.9266217" lon="7.1700439"><ele>1328.5</ele><time>2026-04-26T10:16:17.745Z</time></trkpt><trkpt lat="44.9266791" lon="7.1701673"><ele>1329.0</ele><time>2026-04-26T10:16:18.746Z</time></trkpt><trkpt lat="44.9267607" lon="7.1702725"><ele>1329.5</ele><time>2026-04-26T10:16:19.745Z</time></trkpt><trkpt lat="44.9268516" lon="7.1703925"><ele>1330.0</ele><time>2026-04-26T10:16:20.746Z</time></trkpt><trkpt lat="44.9269312" lon="7.1705162"><ele>1330.0</ele><time>2026-04-26T10:16:21.746Z</time></trkpt><trkpt lat="44.9270128" lon="7.1706381"><ele>1330.0</ele><time>2026-04-26T10:16:22.746Z</time></trkpt><trkpt lat="44.9270795" lon="7.1707571"><ele>1330.0</ele><time>2026-04-26T10:16:23.746Z</time></trkpt><trkpt lat="44.927151" lon="7.1708526"><ele>1330.0</ele><time>2026-04-26T10:16:24.746Z</time></trkpt><trkpt lat="44.9272183" lon="7.1709167"><ele>1330.0</ele><time>2026-04-26T10:16:25.746Z</time></trkpt><trkpt lat="44.9272599" lon="7.1710014"><ele>1332.142857142857</ele><time>2026-04-26T10:16:26.746Z</time></trkpt><trkpt lat="44.9273005" lon="7.1710954"><ele>1334.2857142857142</ele><time>2026-04-26T10:16:27.746Z</time></trkpt><trkpt lat="44.927339" lon="7.1711938"><ele>1336.4285714285716</ele><time>2026-04-26T10:16:28.746Z</time></trkpt><trkpt lat="44.9273773" lon="7.1712915"><ele>1338.5714285714284</ele><time>2026-04-26T10:16:29.746Z</time></trkpt><trkpt lat="44.9273916" lon="7.1713828"><ele>1340.7142857142858</ele><time>2026-04-26T10:16:30.746Z</time></trkpt><trkpt lat="44.9274224" lon="7.1714788"><ele>1342.857142857143</ele><time>2026-04-26T10:16:31.746Z</time></trkpt><trkpt lat="44.9274322" lon="7.1715732"><ele>1345.0</ele><time>2026-04-26T10:16:32.746Z</time></trkpt><trkpt lat="44.9274558" lon="7.1716644"><ele>1344.6666666666665</ele><time>2026-04-26T10:16:33.746Z</time></trkpt><trkpt lat="44.9274718" lon="7.1717618"><ele>1344.3333333333333</ele><time>2026-04-26T10:16:34.746Z</time></trkpt><trkpt lat="44.9275147" lon="7.1718783"><ele>1344.0</ele><time>2026-04-26T10:16:35.746Z</time></trkpt><trkpt lat="44.9275699" lon="7.1719652"><ele>1343.6666666666667</ele><time>2026-04-26T10:16:36.746Z</time></trkpt><trkpt lat="44.9276035" lon="7.1720695"><ele>1343.3333333333335</ele><time>2026-04-26T10:16:37.746Z</time></trkpt><trkpt lat="44.9276444" lon="7.1721666"><ele>1343.0</ele><time>2026-04-26T10:16:38.745Z</time></trkpt><trkpt lat="44.9276973" lon="7.1722565"><ele>1343.0</ele><time>2026-04-26T10:16:39.746Z</time></trkpt><trkpt lat="44.9277449" lon="7.1723401"><ele>1343.0</ele><time>2026-04-26T10:16:40.746Z</time></trkpt><trkpt lat="44.9277861" lon="7.1724209"><ele>1343.0</ele><time>2026-04-26T10:16:41.746Z</time></trkpt><trkpt lat="44.9278293" lon="7.1725211"><ele>1343.0</ele><time>2026-04-26T10:16:42.746Z</time></trkpt><trkpt lat="44.9278916" lon="7.1726306"><ele>1343.0</ele><time>2026-04-26T10:16:43.746Z</time></trkpt><trkpt lat="44.9279245" lon="7.1727276"><ele>1343.0</ele><time>2026-04-26T10:16:44.746Z</time></trkpt><trkpt lat="44.9279668" lon="7.1728323"><ele>1345.6666666666667</ele><time>2026-04-26T10:16:45.746Z</time></trkpt><trkpt lat="44.9279875" lon="7.1729534"><ele>1348.3333333333335</ele><time>2026-04-26T10:16:46.746Z</time></trkpt><trkpt lat="44.9280334" lon="7.1730657"><ele>1351.0</ele><time>2026-04-26T10:16:47.746Z</time></trkpt><trkpt lat="44.9280847" lon="7.1731496"><ele>1353.6666666666667</ele><time>2026-04-26T10:16:48.746Z</time></trkpt><trkpt lat="44.9281362" lon="7.1732198"><ele>1356.3333333333333</ele><time>2026-04-26T10:16:49.745Z</time></trkpt><trkpt lat="44.9281925" lon="7.173276"><ele>1359.0</ele><time>2026-04-26T10:16:50.746Z</time></trkpt><trkpt lat="44.9282786" lon="7.1733314"><ele>1359.3333333333333</ele><time>2026-04-26T10:16:51.746Z</time></trkpt><trkpt lat="44.928347" lon="7.1733839"><ele>1359.6666666666667</ele><time>2026-04-26T10:16:52.746Z</time></trkpt><trkpt lat="44.9284238" lon="7.1734345"><ele>1360.0</ele><time>2026-04-26T10:16:53.746Z</time></trkpt><trkpt lat="44.9285071" lon="7.1734705"><ele>1360.3333333333335</ele><time>2026-04-26T10:16:54.746Z</time></trkpt><trkpt lat="44.9285856" lon="7.173519"><ele>1360.6666666666667</ele><time>2026-04-26T10:16:55.746Z</time></trkpt><trkpt lat="44.9286535" lon="7.1735787"><ele>1361.0</ele><time>2026-04-26T10:16:56.746Z</time></trkpt><trkpt lat="44.9287177" lon="7.1736546"><ele>1361.0</ele><time>2026-04-26T10:16:57.746Z</time></trkpt><trkpt lat="44.9287753" lon="7.1737447"><ele>1361.0</ele><time>2026-04-26T10:16:58.746Z</time></trkpt><trkpt lat="44.9288296" lon="7.1738513"><ele>1361.0</ele><time>2026-04-26T10:16:59.746Z</time></trkpt><trkpt lat="44.9288756" lon="7.1739672"><ele>1361.0</ele><time>2026-04-26T10:17:00.746Z</time></trkpt><trkpt lat="44.9289429" lon="7.1740634"><ele>1361.0</ele><time>2026-04-26T10:17:01.746Z</time></trkpt><trkpt lat="44.929019" lon="7.1741522"><ele>1362.1999999999998</ele><time>2026-04-26T10:17:02.746Z</time></trkpt><trkpt lat="44.9291132" lon="7.1742234"><ele>1363.3999999999999</ele><time>2026-04-26T10:17:03.746Z</time></trkpt><trkpt lat="44.9291825" lon="7.1742985"><ele>1364.6</ele><time>2026-04-26T10:17:04.746Z</time></trkpt><trkpt lat="44.9292553" lon="7.1743868"><ele>1365.8</ele><time>2026-04-26T10:17:05.746Z</time></trkpt><trkpt lat="44.9293166" lon="7.1744783"><ele>1367.0</ele><time>2026-04-26T10:17:06.746Z</time></trkpt><trkpt lat="44.9293816" lon="7.1745716"><ele>1367.0</ele><time>2026-04-26T10:17:07.746Z</time></trkpt><trkpt lat="44.9294511" lon="7.1746761"><ele>1367.0</ele><time>2026-04-26T10:17:08.745Z</time></trkpt><trkpt lat="44.9295198" lon="7.1747677"><ele>1367.0</ele><time>2026-04-26T10:17:09.745Z</time></trkpt><trkpt lat="44.9295878" lon="7.1748681"><ele>1367.0</ele><time>2026-04-26T10:17:10.746Z</time></trkpt><trkpt lat="44.9296517" lon="7.1749595"><ele>1367.0</ele><time>2026-04-26T10:17:11.746Z</time></trkpt><trkpt lat="44.9297171" lon="7.1750488"><ele>1371.0</ele><time>2026-04-26T10:17:12.746Z</time></trkpt><trkpt lat="44.9297764" lon="7.1751491"><ele>1375.0</ele><time>2026-04-26T10:17:13.746Z</time></trkpt><trkpt lat="44.9298119" lon="7.1752525"><ele>1379.0</ele><time>2026-04-26T10:17:14.746Z</time></trkpt><trkpt lat="44.9298576" lon="7.1753769"><ele>1383.0</ele><time>2026-04-26T10:17:15.746Z</time></trkpt><trkpt lat="44.9298982" lon="7.1754974"><ele>1387.0</ele><time>2026-04-26T10:17:16.746Z</time></trkpt><trkpt lat="44.9299375" lon="7.1756094"><ele>1387.5</ele><time>2026-04-26T10:17:17.746Z</time></trkpt><trkpt lat="44.929974" lon="7.1757117"><ele>1388.0</ele><time>2026-04-26T10:17:18.746Z</time></trkpt><trkpt lat="44.9300162" lon="7.1757833"><ele>1388.5</ele><time>2026-04-26T10:17:19.746Z</time></trkpt><trkpt lat="44.9300638" lon="7.175856"><ele>1389.0</ele><time>2026-04-26T10:17:20.746Z</time></trkpt><trkpt lat="44.9301124" lon="7.1759315"><ele>1389.5</ele><time>2026-04-26T10:17:21.746Z</time></trkpt><trkpt lat="44.9301491" lon="7.1760218"><ele>1390.0</ele><time>2026-04-26T10:17:22.746Z</time></trkpt><trkpt lat="44.9302129" lon="7.17611"><ele>1390.0</ele><time>2026-04-26T10:17:23.746Z</time></trkpt><trkpt lat="44.9302893" lon="7.1761968"><ele>1390.0</ele><time>2026-04-26T10:17:24.746Z</time></trkpt><trkpt lat="44.9303601" lon="7.1762875"><ele>1390.0</ele><time>2026-04-26T10:17:25.746Z</time></trkpt><trkpt lat="44.9304278" lon="7.1763702"><ele>1390.0</ele><time>2026-04-26T10:17:26.746Z</time></trkpt><trkpt lat="44.9305065" lon="7.1764647"><ele>1390.0</ele><time>2026-04-26T10:17:27.746Z</time></trkpt><trkpt lat="44.9305812" lon="7.1765277"><ele>1391.8333333333333</ele><time>2026-04-26T10:17:28.746Z</time></trkpt><trkpt lat="44.9306527" lon="7.1765878"><ele>1393.6666666666665</ele><time>2026-04-26T10:17:29.746Z</time></trkpt><trkpt lat="44.9307118" lon="7.1766387"><ele>1395.5</ele><time>2026-04-26T10:17:30.746Z</time></trkpt><trkpt lat="44.9307754" lon="7.1766898"><ele>1397.3333333333333</ele><time>2026-04-26T10:17:31.746Z</time></trkpt><trkpt lat="44.9308406" lon="7.1767475"><ele>1399.1666666666667</ele><time>2026-04-26T10:17:32.746Z</time></trkpt><trkpt lat="44.9308947" lon="7.176821"><ele>1401.0</ele><time>2026-04-26T10:17:33.746Z</time></trkpt><trkpt lat="44.9309444" lon="7.1769033"><ele>1401.0</ele><time>2026-04-26T10:17:34.746Z</time></trkpt><trkpt lat="44.9309662" lon="7.177001"><ele>1401.0</ele><time>2026-04-26T10:17:35.746Z</time></trkpt><trkpt lat="44.9309808" lon="7.1770943"><ele>1401.0</ele><time>2026-04-26T10:17:36.746Z</time></trkpt><trkpt lat="44.931005" lon="7.1771807"><ele>1401.0</ele><time>2026-04-26T10:17:37.746Z</time></trkpt><trkpt lat="44.9311029" lon="7.1772669"><ele>1401.0</ele><time>2026-04-26T10:17:39.746Z</time></trkpt><trkpt lat="44.9311674" lon="7.1772939"><ele>1401.0</ele><time>2026-04-26T10:17:40.746Z</time></trkpt><trkpt lat="44.9312304" lon="7.1773013"><ele>1404.75</ele><time>2026-04-26T10:17:41.746Z</time></trkpt><trkpt lat="44.9313543" lon="7.1773589"><ele>1408.5</ele><time>2026-04-26T10:17:43.746Z</time></trkpt><trkpt lat="44.9313168" lon="7.1774777"><ele>1412.25</ele><time>2026-04-26T10:17:45.746Z</time></trkpt><trkpt lat="44.9312338" lon="7.1775159"><ele>1416.0</ele><time>2026-04-26T10:17:47.746Z</time></trkpt><trkpt lat="44.931075" lon="7.1775318"><ele>1416.0</ele><time>2026-04-26T10:17:49.746Z</time></trkpt><trkpt lat="44.9310156" lon="7.177486"><ele>1416.0</ele><time>2026-04-26T10:17:50.746Z</time></trkpt><trkpt lat="44.9309532" lon="7.1774343"><ele>1416.0</ele><time>2026-04-26T10:17:51.746Z</time></trkpt><trkpt lat="44.9308134" lon="7.177392"><ele>1416.0</ele><time>2026-04-26T10:17:53.746Z</time></trkpt><trkpt lat="44.9307336" lon="7.1773827"><ele>1416.0</ele><time>2026-04-26T10:17:54.746Z</time></trkpt><trkpt lat="44.930645" lon="7.1773961"><ele>1417.6</ele><time>2026-04-26T10:17:55.746Z</time></trkpt><trkpt lat="44.9305506" lon="7.1774164"><ele>1419.1999999999998</ele><time>2026-04-26T10:17:56.746Z</time></trkpt><trkpt lat="44.930468" lon="7.1774332"><ele>1420.8000000000002</ele><time>2026-04-26T10:17:57.746Z</time></trkpt><trkpt lat="44.9303764" lon="7.177431"><ele>1422.4</ele><time>2026-04-26T10:17:58.746Z</time></trkpt><trkpt lat="44.9302748" lon="7.1774279"><ele>1424.0</ele><time>2026-04-26T10:17:59.746Z</time></trkpt><trkpt lat="44.9301888" lon="7.1774148"><ele>1424.0</ele><time>2026-04-26T10:18:00.746Z</time></trkpt><trkpt lat="44.9301033" lon="7.1774081"><ele>1424.0</ele><time>2026-04-26T10:18:01.746Z</time></trkpt><trkpt lat="44.9300019" lon="7.1773921"><ele>1424.0</ele><time>2026-04-26T10:18:02.746Z</time></trkpt><trkpt lat="44.929899" lon="7.1773804"><ele>1424.0</ele><time>2026-04-26T10:18:03.746Z</time></trkpt><trkpt lat="44.929803" lon="7.1773762"><ele>1424.0</ele><time>2026-04-26T10:18:04.746Z</time></trkpt><trkpt lat="44.9297032" lon="7.1773601"><ele>1422.8333333333335</ele><time>2026-04-26T10:18:05.746Z</time></trkpt><trkpt lat="44.929614" lon="7.1773238"><ele>1421.6666666666667</ele><time>2026-04-26T10:18:06.746Z</time></trkpt><trkpt lat="44.9295272" lon="7.1772748"><ele>1420.5</ele><time>2026-04-26T10:18:07.746Z</time></trkpt><trkpt lat="44.9294459" lon="7.1772215"><ele>1419.3333333333333</ele><time>2026-04-26T10:18:08.745Z</time></trkpt><trkpt lat="44.9293566" lon="7.1771695"><ele>1418.1666666666665</ele><time>2026-04-26T10:18:09.746Z</time></trkpt><trkpt lat="44.9292837" lon="7.1771393"><ele>1417.0</ele><time>2026-04-26T10:18:10.746Z</time></trkpt><trkpt lat="44.9291972" lon="7.1771001"><ele>1420.6</ele><time>2026-04-26T10:18:11.746Z</time></trkpt><trkpt lat="44.9290993" lon="7.1770768"><ele>1424.1999999999998</ele><time>2026-04-26T10:18:12.746Z</time></trkpt><trkpt lat="44.9290079" lon="7.1770689"><ele>1427.8</ele><time>2026-04-26T10:18:13.746Z</time></trkpt><trkpt lat="44.9289228" lon="7.1770353"><ele>1431.4</ele><time>2026-04-26T10:18:14.746Z</time></trkpt><trkpt lat="44.9288406" lon="7.1770035"><ele>1435.0</ele><time>2026-04-26T10:18:15.746Z</time></trkpt><trkpt lat="44.9287528" lon="7.1769691"><ele>1435.0</ele><time>2026-04-26T10:18:16.746Z</time></trkpt><trkpt lat="44.9286733" lon="7.1769505"><ele>1435.0</ele><time>2026-04-26T10:18:17.746Z</time></trkpt><trkpt lat="44.9285946" lon="7.1769413"><ele>1435.0</ele><time>2026-04-26T10:18:18.746Z</time></trkpt><trkpt lat="44.9285242" lon="7.176949"><ele>1435.0</ele><time>2026-04-26T10:18:19.746Z</time></trkpt><trkpt lat="44.928437" lon="7.176967"><ele>1435.0</ele><time>2026-04-26T10:18:21.746Z</time></trkpt><trkpt lat="44.9283947" lon="7.1770492"><ele>1435.0</ele><time>2026-04-26T10:18:23.746Z</time></trkpt><trkpt lat="44.9284573" lon="7.1771514"><ele>1435.0</ele><time>2026-04-26T10:18:26.746Z</time></trkpt><trkpt lat="44.9285658" lon="7.1772156"><ele>1435.0</ele><time>2026-04-26T10:18:28.746Z</time></trkpt><trkpt lat="44.9286584" lon="7.1773016"><ele>1435.0</ele><time>2026-04-26T10:18:30.746Z</time></trkpt><trkpt lat="44.9287198" lon="7.1773615"><ele>1435.0</ele><time>2026-04-26T10:18:31.746Z</time></trkpt><trkpt lat="44.9287609" lon="7.1774475"><ele>1435.0</ele><time>2026-04-26T10:18:32.746Z</time></trkpt><trkpt lat="44.9288035" lon="7.1775266"><ele>1435.0</ele><time>2026-04-26T10:18:33.746Z</time></trkpt><trkpt lat="44.9288754" lon="7.1775864"><ele>1435.1666666666665</ele><time>2026-04-26T10:18:34.746Z</time></trkpt><trkpt lat="44.9289486" lon="7.1776633"><ele>1435.3333333333333</ele><time>2026-04-26T10:18:35.746Z</time></trkpt><trkpt lat="44.9290088" lon="7.1777397"><ele>1435.5</ele><time>2026-04-26T10:18:36.745Z</time></trkpt><trkpt lat="44.9290748" lon="7.1778108"><ele>1435.6666666666667</ele><time>2026-04-26T10:18:37.746Z</time></trkpt><trkpt lat="44.9291275" lon="7.1778804"><ele>1435.8333333333335</ele><time>2026-04-26T10:18:38.745Z</time></trkpt><trkpt lat="44.9291861" lon="7.1779733"><ele>1436.0</ele><time>2026-04-26T10:18:39.746Z</time></trkpt><trkpt lat="44.9292316" lon="7.1780803"><ele>1440.4</ele><time>2026-04-26T10:18:40.746Z</time></trkpt><trkpt lat="44.9292927" lon="7.1781878"><ele>1444.8</ele><time>2026-04-26T10:18:41.746Z</time></trkpt><trkpt lat="44.9293698" lon="7.1782969"><ele>1449.2</ele><time>2026-04-26T10:18:42.746Z</time></trkpt><trkpt lat="44.9294111" lon="7.1784075"><ele>1453.6000000000001</ele><time>2026-04-26T10:18:43.746Z</time></trkpt><trkpt lat="44.9294725" lon="7.178513"><ele>1458.0</ele><time>2026-04-26T10:18:44.746Z</time></trkpt><trkpt lat="44.9295142" lon="7.1786065"><ele>1458.0</ele><time>2026-04-26T10:18:45.746Z</time></trkpt><trkpt lat="44.9295651" lon="7.1786665"><ele>1458.0</ele><time>2026-04-26T10:18:46.746Z</time></trkpt><trkpt lat="44.9296099" lon="7.1787322"><ele>1458.0</ele><time>2026-04-26T10:18:47.746Z</time></trkpt><trkpt lat="44.9296533" lon="7.1788362"><ele>1458.0</ele><time>2026-04-26T10:18:49.746Z</time></trkpt><trkpt lat="44.9295665" lon="7.1788886"><ele>1458.0</ele><time>2026-04-26T10:18:52.746Z</time></trkpt><trkpt lat="44.9294575" lon="7.1788336"><ele>1458.0</ele><time>2026-04-26T10:18:54.746Z</time></trkpt><trkpt lat="44.9293914" lon="7.1787955"><ele>1458.0</ele><time>2026-04-26T10:18:55.746Z</time></trkpt><trkpt lat="44.9293168" lon="7.1787439"><ele>1458.0</ele><time>2026-04-26T10:18:56.746Z</time></trkpt><trkpt lat="44.9292329" lon="7.178717"><ele>1458.0</ele><time>2026-04-26T10:18:57.746Z</time></trkpt><trkpt lat="44.9291481" lon="7.1786928"><ele>1458.0</ele><time>2026-04-26T10:18:58.746Z</time></trkpt><trkpt lat="44.9290591" lon="7.1786801"><ele>1458.0</ele><time>2026-04-26T10:18:59.746Z</time></trkpt><trkpt lat="44.9289837" lon="7.1786788"><ele>1458.0</ele><time>2026-04-26T10:19:00.746Z</time></trkpt><trkpt lat="44.9288876" lon="7.1787183"><ele>1460.6666666666667</ele><time>2026-04-26T10:19:01.746Z</time></trkpt><trkpt lat="44.9287987" lon="7.1787367"><ele>1463.3333333333333</ele><time>2026-04-26T10:19:02.746Z</time></trkpt><trkpt lat="44.9287268" lon="7.1787596"><ele>1466.0</ele><time>2026-04-26T10:19:03.746Z</time></trkpt><trkpt lat="44.9286616" lon="7.1787609"><ele>1468.6666666666665</ele><time>2026-04-26T10:19:04.746Z</time></trkpt><trkpt lat="44.9285854" lon="7.1787437"><ele>1471.3333333333333</ele><time>2026-04-26T10:19:05.746Z</time></trkpt><trkpt lat="44.9285079" lon="7.1786961"><ele>1474.0</ele><time>2026-04-26T10:19:06.746Z</time></trkpt><trkpt lat="44.9284381" lon="7.178667"><ele>1475.8333333333333</ele><time>2026-04-26T10:19:07.746Z</time></trkpt><trkpt lat="44.9283666" lon="7.1786041"><ele>1477.6666666666665</ele><time>2026-04-26T10:19:08.746Z</time></trkpt><trkpt lat="44.9283028" lon="7.1785605"><ele>1479.5</ele><time>2026-04-26T10:19:09.746Z</time></trkpt><trkpt lat="44.9282356" lon="7.1785148"><ele>1481.3333333333333</ele><time>2026-04-26T10:19:10.746Z</time></trkpt><trkpt lat="44.928166" lon="7.1784821"><ele>1483.1666666666667</ele><time>2026-04-26T10:19:11.746Z</time></trkpt><trkpt lat="44.9280915" lon="7.1784591"><ele>1485.0</ele><time>2026-04-26T10:19:12.746Z</time></trkpt><trkpt lat="44.9280214" lon="7.1784441"><ele>1485.0</ele><time>2026-04-26T10:19:13.746Z</time></trkpt><trkpt lat="44.9279427" lon="7.1784137"><ele>1485.0</ele><time>2026-04-26T10:19:14.746Z</time></trkpt><trkpt lat="44.9278713" lon="7.1783844"><ele>1485.0</ele><time>2026-04-26T10:19:15.746Z</time></trkpt><trkpt lat="44.9277795" lon="7.178339"><ele>1485.0</ele><time>2026-04-26T10:19:16.746Z</time></trkpt><trkpt lat="44.9277003" lon="7.1782824"><ele>1485.0</ele><time>2026-04-26T10:19:17.746Z</time></trkpt><trkpt lat="44.9276233" lon="7.1782392"><ele>1485.0</ele><time>2026-04-26T10:19:18.746Z</time></trkpt><trkpt lat="44.9275479" lon="7.1781906"><ele>1484.5</ele><time>2026-04-26T10:19:19.746Z</time></trkpt><trkpt lat="44.9274762" lon="7.1781504"><ele>1484.0</ele><time>2026-04-26T10:19:20.745Z</time></trkpt><trkpt lat="44.9273977" lon="7.178109"><ele>1483.5</ele><time>2026-04-26T10:19:21.746Z</time></trkpt><trkpt lat="44.9273168" lon="7.1780721"><ele>1483.0</ele><time>2026-04-26T10:19:22.746Z</time></trkpt><trkpt lat="44.9272246" lon="7.1780444"><ele>1482.5</ele><time>2026-04-26T10:19:23.746Z</time></trkpt><trkpt lat="44.927132" lon="7.178011"><ele>1482.0</ele><time>2026-04-26T10:19:24.746Z</time></trkpt><trkpt lat="44.9270338" lon="7.1779645"><ele>1482.0</ele><time>2026-04-26T10:19:25.746Z</time></trkpt><trkpt lat="44.9269277" lon="7.1779097"><ele>1482.0</ele><time>2026-04-26T10:19:26.746Z</time></trkpt><trkpt lat="44.9268204" lon="7.1778481"><ele>1482.0</ele><time>2026-04-26T10:19:27.746Z</time></trkpt><trkpt lat="44.9267222" lon="7.1777726"><ele>1482.0</ele><time>2026-04-26T10:19:28.746Z</time></trkpt><trkpt lat="44.9266282" lon="7.1776906"><ele>1487.3999999999999</ele><time>2026-04-26T10:19:29.746Z</time></trkpt><trkpt lat="44.9265385" lon="7.1776222"><ele>1492.8</ele><time>2026-04-26T10:19:30.746Z</time></trkpt><trkpt lat="44.9264361" lon="7.1775656"><ele>1498.2</ele><time>2026-04-26T10:19:31.746Z</time></trkpt><trkpt lat="44.9263486" lon="7.1775001"><ele>1503.6</ele><time>2026-04-26T10:19:32.746Z</time></trkpt><trkpt lat="44.9262593" lon="7.1774315"><ele>1509.0</ele><time>2026-04-26T10:19:33.745Z</time></trkpt><trkpt lat="44.9261847" lon="7.1773642"><ele>1509.5</ele><time>2026-04-26T10:19:34.746Z</time></trkpt><trkpt lat="44.9261089" lon="7.1772919"><ele>1510.0</ele><time>2026-04-26T10:19:35.745Z</time></trkpt><trkpt lat="44.9260274" lon="7.1772312"><ele>1510.5</ele><time>2026-04-26T10:19:36.746Z</time></trkpt><trkpt lat="44.9259549" lon="7.1771679"><ele>1511.0</ele><time>2026-04-26T10:19:37.746Z</time></trkpt><trkpt lat="44.9258769" lon="7.1771242"><ele>1511.5</ele><time>2026-04-26T10:19:38.746Z</time></trkpt><trkpt lat="44.9258006" lon="7.1770855"><ele>1512.0</ele><time>2026-04-26T10:19:39.746Z</time></trkpt><trkpt lat="44.9257198" lon="7.1770494"><ele>1512.0</ele><time>2026-04-26T10:19:40.746Z</time></trkpt><trkpt lat="44.9256406" lon="7.1770231"><ele>1512.0</ele><time>2026-04-26T10:19:41.746Z</time></trkpt><trkpt lat="44.9255712" lon="7.1769718"><ele>1512.0</ele><time>2026-04-26T10:19:42.746Z</time></trkpt><trkpt lat="44.9255029" lon="7.1769176"><ele>1512.0</ele><time>2026-04-26T10:19:43.746Z</time></trkpt><trkpt lat="44.9254298" lon="7.1768565"><ele>1512.0</ele><time>2026-04-26T10:19:44.745Z</time></trkpt><trkpt lat="44.9253668" lon="7.1767894"><ele>1512.0</ele><time>2026-04-26T10:19:45.746Z</time></trkpt><trkpt lat="44.9252942" lon="7.1767333"><ele>1512.0</ele><time>2026-04-26T10:19:46.745Z</time></trkpt><trkpt lat="44.9252112" lon="7.1766709"><ele>1512.0</ele><time>2026-04-26T10:19:47.746Z</time></trkpt><trkpt lat="44.9251402" lon="7.1766027"><ele>1512.0</ele><time>2026-04-26T10:19:48.746Z</time></trkpt><trkpt lat="44.9250766" lon="7.176553"><ele>1512.0</ele><time>2026-04-26T10:19:49.746Z</time></trkpt><trkpt lat="44.9250196" lon="7.176509"><ele>1512.0</ele><time>2026-04-26T10:19:50.746Z</time></trkpt><trkpt lat="44.9249615" lon="7.1764656"><ele>1512.0</ele><time>2026-04-26T10:19:51.746Z</time></trkpt><trkpt lat="44.9248899" lon="7.1764464"><ele>1511.7142857142858</ele><time>2026-04-26T10:19:52.746Z</time></trkpt><trkpt lat="44.9248172" lon="7.1764195"><ele>1511.4285714285716</ele><time>2026-04-26T10:19:53.746Z</time></trkpt><trkpt lat="44.9247514" lon="7.1764043"><ele>1511.142857142857</ele><time>2026-04-26T10:19:54.746Z</time></trkpt><trkpt lat="44.9246857" lon="7.1763979"><ele>1510.857142857143</ele><time>2026-04-26T10:19:55.746Z</time></trkpt><trkpt lat="44.9246211" lon="7.1763976"><ele>1510.5714285714287</ele><time>2026-04-26T10:19:56.746Z</time></trkpt><trkpt lat="44.9245502" lon="7.1763971"><ele>1510.2857142857142</ele><time>2026-04-26T10:19:57.746Z</time></trkpt><trkpt lat="44.9244835" lon="7.1763623"><ele>1510.0</ele><time>2026-04-26T10:19:58.745Z</time></trkpt><trkpt lat="44.9244092" lon="7.1763219"><ele>1510.0</ele><time>2026-04-26T10:19:59.746Z</time></trkpt><trkpt lat="44.9243382" lon="7.1762729"><ele>1510.0</ele><time>2026-04-26T10:20:00.746Z</time></trkpt><trkpt lat="44.9242679" lon="7.1762117"><ele>1510.0</ele><time>2026-04-26T10:20:01.746Z</time></trkpt><trkpt lat="44.9241985" lon="7.1761456"><ele>1510.0</ele><time>2026-04-26T10:20:02.745Z</time></trkpt><trkpt lat="44.9241144" lon="7.1760779"><ele>1510.0</ele><time>2026-04-26T10:20:03.746Z</time></trkpt><trkpt lat="44.9240273" lon="7.1760034"><ele>1510.0</ele><time>2026-04-26T10:20:04.746Z</time></trkpt><trkpt lat="44.9239532" lon="7.1759336"><ele>1509.8333333333333</ele><time>2026-04-26T10:20:05.746Z</time></trkpt><trkpt lat="44.9238817" lon="7.1758508"><ele>1509.6666666666665</ele><time>2026-04-26T10:20:06.746Z</time></trkpt><trkpt lat="44.9238182" lon="7.1757717"><ele>1509.5</ele><time>2026-04-26T10:20:07.746Z</time></trkpt><trkpt lat="44.9237581" lon="7.1757027"><ele>1509.3333333333333</ele><time>2026-04-26T10:20:08.746Z</time></trkpt><trkpt lat="44.9236901" lon="7.1756367"><ele>1509.1666666666667</ele><time>2026-04-26T10:20:09.746Z</time></trkpt><trkpt lat="44.92362" lon="7.1755729"><ele>1509.0</ele><time>2026-04-26T10:20:10.745Z</time></trkpt><trkpt lat="44.9235469" lon="7.1755211"><ele>1509.0</ele><time>2026-04-26T10:20:11.746Z</time></trkpt><trkpt lat="44.923473" lon="7.1754768"><ele>1509.0</ele><time>2026-04-26T10:20:12.746Z</time></trkpt><trkpt lat="44.9233972" lon="7.1754348"><ele>1509.0</ele><time>2026-04-26T10:20:13.745Z</time></trkpt><trkpt lat="44.9233301" lon="7.1753959"><ele>1509.0</ele><time>2026-04-26T10:20:14.746Z</time></trkpt><trkpt lat="44.9232617" lon="7.1753426"><ele>1509.0</ele><time>2026-04-26T10:20:15.746Z</time></trkpt><trkpt lat="44.9231644" lon="7.1752496"><ele>1509.0</ele><time>2026-04-26T10:20:17.746Z</time></trkpt><trkpt lat="44.9230898" lon="7.1751418"><ele>1514.6666666666667</ele><time>2026-04-26T10:20:19.746Z</time></trkpt><trkpt lat="44.9230274" lon="7.1751214"><ele>1520.3333333333335</ele><time>2026-04-26T10:20:21.746Z</time></trkpt><trkpt lat="44.9230067" lon="7.1752103"><ele>1526.0</ele><time>2026-04-26T10:20:23.746Z</time></trkpt><trkpt lat="44.923062" lon="7.1752948"><ele>1531.6666666666667</ele><time>2026-04-26T10:20:25.746Z</time></trkpt><trkpt lat="44.9231404" lon="7.1753935"><ele>1537.3333333333335</ele><time>2026-04-26T10:20:27.746Z</time></trkpt><trkpt lat="44.9232262" lon="7.1755228"><ele>1543.0</ele><time>2026-04-26T10:20:29.746Z</time></trkpt><trkpt lat="44.9232976" lon="7.175627"><ele>1541.0</ele><time>2026-04-26T10:20:31.746Z</time></trkpt><trkpt lat="44.9233825" lon="7.1757401"><ele>1539.0</ele><time>2026-04-26T10:20:33.746Z</time></trkpt><trkpt lat="44.9234713" lon="7.1758794"><ele>1537.0</ele><time>2026-04-26T10:20:35.746Z</time></trkpt><trkpt lat="44.9235066" lon="7.1759626"><ele>1535.0</ele><time>2026-04-26T10:20:36.746Z</time></trkpt><trkpt lat="44.9235319" lon="7.1760558"><ele>1533.0</ele><time>2026-04-26T10:20:37.746Z</time></trkpt><trkpt lat="44.9235629" lon="7.1761702"><ele>1533.0</ele><time>2026-04-26T10:20:38.746Z</time></trkpt><trkpt lat="44.9235852" lon="7.1763013"><ele>1533.0</ele><time>2026-04-26T10:20:39.746Z</time></trkpt><trkpt lat="44.923607" lon="7.1764233"><ele>1533.0</ele><time>2026-04-26T10:20:40.746Z</time></trkpt><trkpt lat="44.9236443" lon="7.1765319"><ele>1533.0</ele><time>2026-04-26T10:20:41.746Z</time></trkpt><trkpt lat="44.9236872" lon="7.1766268"><ele>1533.0</ele><time>2026-04-26T10:20:42.746Z</time></trkpt><trkpt lat="44.9237467" lon="7.1767138"><ele>1533.0</ele><time>2026-04-26T10:20:43.746Z</time></trkpt><trkpt lat="44.9238084" lon="7.1768096"><ele>1536.8333333333333</ele><time>2026-04-26T10:20:44.746Z</time></trkpt><trkpt lat="44.9238651" lon="7.1768952"><ele>1540.6666666666665</ele><time>2026-04-26T10:20:45.746Z</time></trkpt><trkpt lat="44.9239117" lon="7.1769678"><ele>1544.5</ele><time>2026-04-26T10:20:46.746Z</time></trkpt><trkpt lat="44.9239847" lon="7.1770745"><ele>1548.3333333333333</ele><time>2026-04-26T10:20:48.746Z</time></trkpt><trkpt lat="44.9240478" lon="7.1771547"><ele>1552.1666666666665</ele><time>2026-04-26T10:20:50.746Z</time></trkpt><trkpt lat="44.92404" lon="7.1772433"><ele>1556.0</ele><time>2026-04-26T10:20:52.746Z</time></trkpt><trkpt lat="44.9239584" lon="7.1772484"><ele>1555.9999999999998</ele><time>2026-04-26T10:20:55.746Z</time></trkpt><trkpt lat="44.9238705" lon="7.1771694"><ele>1556.0</ele><time>2026-04-26T10:20:57.746Z</time></trkpt><trkpt lat="44.9238081" lon="7.1771264"><ele>1556.0</ele><time>2026-04-26T10:20:58.746Z</time></trkpt><trkpt lat="44.9237515" lon="7.1770872"><ele>1556.0</ele><time>2026-04-26T10:20:59.746Z</time></trkpt><trkpt lat="44.9236849" lon="7.1770414"><ele>1555.9999999999998</ele><time>2026-04-26T10:21:00.746Z</time></trkpt><trkpt lat="44.9236049" lon="7.1769837"><ele>1556.0</ele><time>2026-04-26T10:21:01.746Z</time></trkpt><trkpt lat="44.9235207" lon="7.1769213"><ele>1555.9999999999998</ele><time>2026-04-26T10:21:02.746Z</time></trkpt><trkpt lat="44.9234361" lon="7.1768568"><ele>1556.0</ele><time>2026-04-26T10:21:03.746Z</time></trkpt><trkpt lat="44.9233609" lon="7.176793"><ele>1556.0</ele><time>2026-04-26T10:21:04.746Z</time></trkpt><trkpt lat="44.9232874" lon="7.1767343"><ele>1556.0</ele><time>2026-04-26T10:21:05.746Z</time></trkpt><trkpt lat="44.9232158" lon="7.1766844"><ele>1555.9999999999998</ele><time>2026-04-26T10:21:06.746Z</time></trkpt><trkpt lat="44.923136" lon="7.1766459"><ele>1556.0</ele><time>2026-04-26T10:21:07.746Z</time></trkpt><trkpt lat="44.9230403" lon="7.1766207"><ele>1557.4</ele><time>2026-04-26T10:21:08.746Z</time></trkpt><trkpt lat="44.9229418" lon="7.1765911"><ele>1558.8</ele><time>2026-04-26T10:21:09.746Z</time></trkpt><trkpt lat="44.9228429" lon="7.1765644"><ele>1560.2</ele><time>2026-04-26T10:21:10.746Z</time></trkpt><trkpt lat="44.9227444" lon="7.1765377"><ele>1561.6000000000001</ele><time>2026-04-26T10:21:11.746Z</time></trkpt><trkpt lat="44.9226438" lon="7.176514"><ele>1563.0</ele><time>2026-04-26T10:21:12.746Z</time></trkpt><trkpt lat="44.9225373" lon="7.1764963"><ele>1566.0</ele><time>2026-04-26T10:21:13.746Z</time></trkpt><trkpt lat="44.922439" lon="7.1764835"><ele>1569.0</ele><time>2026-04-26T10:21:14.746Z</time></trkpt><trkpt lat="44.9223605" lon="7.1764777"><ele>1572.0</ele><time>2026-04-26T10:21:15.746Z</time></trkpt><trkpt lat="44.9222923" lon="7.1764679"><ele>1575.0</ele><time>2026-04-26T10:21:16.746Z</time></trkpt><trkpt lat="44.9221801" lon="7.1764573"><ele>1578.0</ele><time>2026-04-26T10:21:18.746Z</time></trkpt><trkpt lat="44.9221005" lon="7.176461"><ele>1581.0</ele><time>2026-04-26T10:21:20.746Z</time></trkpt><trkpt lat="44.922038" lon="7.1764921"><ele>1581.0</ele><time>2026-04-26T10:21:23.746Z</time></trkpt><trkpt lat="44.9219834" lon="7.176434"><ele>1581.0</ele><time>2026-04-26T10:21:34.746Z</time></trkpt><trkpt lat="44.92192" lon="7.1764058"><ele>1581.0</ele><time>2026-04-26T10:21:39.746Z</time></trkpt><trkpt lat="44.9218419" lon="7.1763691"><ele>1581.0</ele><time>2026-04-26T10:27:07.746Z</time></trkpt><trkpt lat="44.9217735" lon="7.1763304"><ele>1581.0</ele><time>2026-04-26T10:27:09.746Z</time></trkpt><trkpt lat="44.9217017" lon="7.1762719"><ele>1581.0</ele><time>2026-04-26T10:27:11.746Z</time></trkpt><trkpt lat="44.9216364" lon="7.1762067"><ele>1583.1666666666667</ele><time>2026-04-26T10:27:13.746Z</time></trkpt><trkpt lat="44.921568" lon="7.1761366"><ele>1585.3333333333335</ele><time>2026-04-26T10:27:15.746Z</time></trkpt><trkpt lat="44.9215041" lon="7.1760613"><ele>1587.5</ele><time>2026-04-26T10:27:17.746Z</time></trkpt><trkpt lat="44.9214385" lon="7.1759928"><ele>1589.6666666666667</ele><time>2026-04-26T10:27:19.746Z</time></trkpt><trkpt lat="44.9213709" lon="7.1759326"><ele>1591.8333333333335</ele><time>2026-04-26T10:27:21.745Z</time></trkpt><trkpt lat="44.9212972" lon="7.1758691"><ele>1594.0</ele><time>2026-04-26T10:27:23.746Z</time></trkpt><trkpt lat="44.9212233" lon="7.1758074"><ele>1594.0</ele><time>2026-04-26T10:27:25.746Z</time></trkpt><trkpt lat="44.9211457" lon="7.1757406"><ele>1594.0</ele><time>2026-04-26T10:27:27.746Z</time></trkpt><trkpt lat="44.9210638" lon="7.1756515"><ele>1594.0</ele><time>2026-04-26T10:27:29.746Z</time></trkpt><trkpt lat="44.9209867" lon="7.1755554"><ele>1594.0</ele><time>2026-04-26T10:27:31.746Z</time></trkpt><trkpt lat="44.9208992" lon="7.1754591"><ele>1594.0</ele><time>2026-04-26T10:27:33.746Z</time></trkpt><trkpt lat="44.9208158" lon="7.1753744"><ele>1594.1666666666667</ele><time>2026-04-26T10:27:35.746Z</time></trkpt><trkpt lat="44.9207437" lon="7.1752938"><ele>1594.3333333333335</ele><time>2026-04-26T10:27:37.746Z</time></trkpt><trkpt lat="44.9206807" lon="7.1752323"><ele>1594.5</ele><time>2026-04-26T10:27:39.746Z</time></trkpt><trkpt lat="44.9206203" lon="7.1753053"><ele>1594.6666666666665</ele><time>2026-04-26T10:27:42.746Z</time></trkpt><trkpt lat="44.9206601" lon="7.175407"><ele>1594.8333333333333</ele><time>2026-04-26T10:27:44.746Z</time></trkpt><trkpt lat="44.920734" lon="7.1755286"><ele>1595.0</ele><time>2026-04-26T10:27:46.746Z</time></trkpt><trkpt lat="44.9208044" lon="7.1756707"><ele>1594.857142857143</ele><time>2026-04-26T10:27:48.746Z</time></trkpt><trkpt lat="44.9208357" lon="7.1757512"><ele>1594.7142857142858</ele><time>2026-04-26T10:27:49.746Z</time></trkpt><trkpt lat="44.9208699" lon="7.1758332"><ele>1594.5714285714284</ele><time>2026-04-26T10:27:50.746Z</time></trkpt><trkpt lat="44.9209058" lon="7.1759069"><ele>1594.4285714285716</ele><time>2026-04-26T10:27:51.746Z</time></trkpt><trkpt lat="44.9209835" lon="7.176046"><ele>1594.2857142857144</ele><time>2026-04-26T10:27:53.746Z</time></trkpt><trkpt lat="44.921023" lon="7.1761154"><ele>1594.142857142857</ele><time>2026-04-26T10:27:54.746Z</time></trkpt><trkpt lat="44.9210573" lon="7.1761915"><ele>1594.0</ele><time>2026-04-26T10:27:55.746Z</time></trkpt><trkpt lat="44.9211144" lon="7.176353"><ele>1594.0</ele><time>2026-04-26T10:27:57.746Z</time></trkpt><trkpt lat="44.9211462" lon="7.1764398"><ele>1594.0</ele><time>2026-04-26T10:27:58.745Z</time></trkpt><trkpt lat="44.9211829" lon="7.1765283"><ele>1594.0</ele><time>2026-04-26T10:27:59.746Z</time></trkpt><trkpt lat="44.9212123" lon="7.1766101"><ele>1594.0</ele><time>2026-04-26T10:28:00.746Z</time></trkpt><trkpt lat="44.9212851" lon="7.1767404"><ele>1594.0</ele><time>2026-04-26T10:28:02.746Z</time></trkpt><trkpt lat="44.9213651" lon="7.1768867"><ele>1592.0000000000002</ele><time>2026-04-26T10:28:04.746Z</time></trkpt><trkpt lat="44.9214131" lon="7.1770467"><ele>1590.0</ele><time>2026-04-26T10:28:06.746Z</time></trkpt><trkpt lat="44.9214454" lon="7.1771287"><ele>1588.0</ele><time>2026-04-26T10:28:07.746Z</time></trkpt><trkpt lat="44.9214676" lon="7.1772217"><ele>1586.0</ele><time>2026-04-26T10:28:08.746Z</time></trkpt><trkpt lat="44.9214868" lon="7.1773089"><ele>1584.0000000000002</ele><time>2026-04-26T10:28:09.746Z</time></trkpt><trkpt lat="44.9215029" lon="7.1773997"><ele>1582.0</ele><time>2026-04-26T10:28:10.746Z</time></trkpt><trkpt lat="44.921515" lon="7.1774933"><ele>1579.7142857142858</ele><time>2026-04-26T10:28:11.746Z</time></trkpt><trkpt lat="44.9215199" lon="7.1775868"><ele>1577.4285714285716</ele><time>2026-04-26T10:28:12.746Z</time></trkpt><trkpt lat="44.9215239" lon="7.1776832"><ele>1575.142857142857</ele><time>2026-04-26T10:28:13.746Z</time></trkpt><trkpt lat="44.921535" lon="7.1777837"><ele>1572.857142857143</ele><time>2026-04-26T10:28:14.746Z</time></trkpt><trkpt lat="44.9215553" lon="7.1778883"><ele>1570.5714285714287</ele><time>2026-04-26T10:28:15.746Z</time></trkpt><trkpt lat="44.9215826" lon="7.1779807"><ele>1568.2857142857142</ele><time>2026-04-26T10:28:16.746Z</time></trkpt><trkpt lat="44.9216101" lon="7.1780722"><ele>1566.0</ele><time>2026-04-26T10:28:17.746Z</time></trkpt><trkpt lat="44.9216736" lon="7.1781997"><ele>1563.8</ele><time>2026-04-26T10:28:19.746Z</time></trkpt><trkpt lat="44.9217108" lon="7.178311"><ele>1561.6</ele><time>2026-04-26T10:28:21.746Z</time></trkpt><trkpt lat="44.9217204" lon="7.1784337"><ele>1559.4</ele><time>2026-04-26T10:28:23.745Z</time></trkpt><trkpt lat="44.9217278" lon="7.178563"><ele>1557.2</ele><time>2026-04-26T10:28:25.746Z</time></trkpt><trkpt lat="44.9217418" lon="7.1786969"><ele>1555.0</ele><time>2026-04-26T10:28:27.746Z</time></trkpt><trkpt lat="44.921786" lon="7.1788586"><ele>1556.857142857143</ele><time>2026-04-26T10:28:29.746Z</time></trkpt><trkpt lat="44.9218119" lon="7.1789399"><ele>1558.7142857142858</ele><time>2026-04-26T10:28:30.746Z</time></trkpt><trkpt lat="44.9218408" lon="7.179028"><ele>1560.5714285714284</ele><time>2026-04-26T10:28:31.746Z</time></trkpt><trkpt lat="44.9218642" lon="7.1791239"><ele>1562.4285714285716</ele><time>2026-04-26T10:28:32.746Z</time></trkpt><trkpt lat="44.9218881" lon="7.1792204"><ele>1564.2857142857142</ele><time>2026-04-26T10:28:33.746Z</time></trkpt><trkpt lat="44.9219035" lon="7.1793232"><ele>1566.142857142857</ele><time>2026-04-26T10:28:34.746Z</time></trkpt><trkpt lat="44.9219182" lon="7.1794249"><ele>1568.0</ele><time>2026-04-26T10:28:35.746Z</time></trkpt><trkpt lat="44.9219363" lon="7.1795324"><ele>1567.9999999999998</ele><time>2026-04-26T10:28:36.746Z</time></trkpt><trkpt lat="44.9219539" lon="7.1796415"><ele>1568.0</ele><time>2026-04-26T10:28:37.746Z</time></trkpt><trkpt lat="44.9219565" lon="7.1797456"><ele>1568.0</ele><time>2026-04-26T10:28:38.746Z</time></trkpt><trkpt lat="44.9219525" lon="7.179852"><ele>1568.0</ele><time>2026-04-26T10:28:39.746Z</time></trkpt><trkpt lat="44.9219394" lon="7.1799681"><ele>1567.9999999999998</ele><time>2026-04-26T10:28:40.746Z</time></trkpt><trkpt lat="44.9219199" lon="7.1800825"><ele>1568.0</ele><time>2026-04-26T10:28:41.746Z</time></trkpt><trkpt lat="44.9218916" lon="7.1801972"><ele>1566.3333333333333</ele><time>2026-04-26T10:28:42.746Z</time></trkpt><trkpt lat="44.9218601" lon="7.1803057"><ele>1564.6666666666665</ele><time>2026-04-26T10:28:43.746Z</time></trkpt><trkpt lat="44.9218389" lon="7.1804158"><ele>1563.0</ele><time>2026-04-26T10:28:44.746Z</time></trkpt><trkpt lat="44.9218245" lon="7.1805275"><ele>1561.3333333333335</ele><time>2026-04-26T10:28:45.746Z</time></trkpt><trkpt lat="44.9218192" lon="7.1806349"><ele>1559.6666666666667</ele><time>2026-04-26T10:28:46.746Z</time></trkpt><trkpt lat="44.9218083" lon="7.1807451"><ele>1558.0</ele><time>2026-04-26T10:28:47.746Z</time></trkpt><trkpt lat="44.9217893" lon="7.1808654"><ele>1556.8333333333335</ele><time>2026-04-26T10:28:48.746Z</time></trkpt><trkpt lat="44.9217721" lon="7.1809893"><ele>1555.6666666666667</ele><time>2026-04-26T10:28:49.746Z</time></trkpt><trkpt lat="44.9217605" lon="7.1811056"><ele>1554.5</ele><time>2026-04-26T10:28:50.746Z</time></trkpt><trkpt lat="44.9217545" lon="7.1812292"><ele>1553.3333333333335</ele><time>2026-04-26T10:28:51.746Z</time></trkpt><trkpt lat="44.9217487" lon="7.1813507"><ele>1552.1666666666667</ele><time>2026-04-26T10:28:52.746Z</time></trkpt><trkpt lat="44.9217445" lon="7.1814774"><ele>1551.0</ele><time>2026-04-26T10:28:53.746Z</time></trkpt><trkpt lat="44.9217453" lon="7.1815989"><ele>1550.3333333333333</ele><time>2026-04-26T10:28:54.746Z</time></trkpt><trkpt lat="44.9217482" lon="7.1817098"><ele>1549.6666666666665</ele><time>2026-04-26T10:28:55.746Z</time></trkpt><trkpt lat="44.9217577" lon="7.1818173"><ele>1549.0</ele><time>2026-04-26T10:28:56.746Z</time></trkpt><trkpt lat="44.9217649" lon="7.1819265"><ele>1548.3333333333333</ele><time>2026-04-26T10:28:57.746Z</time></trkpt><trkpt lat="44.9217793" lon="7.1820279"><ele>1547.6666666666665</ele><time>2026-04-26T10:28:58.745Z</time></trkpt><trkpt lat="44.9218026" lon="7.1821264"><ele>1547.0</ele><time>2026-04-26T10:28:59.746Z</time></trkpt><trkpt lat="44.9218307" lon="7.1822266"><ele>1546.9999999999998</ele><time>2026-04-26T10:29:00.746Z</time></trkpt><trkpt lat="44.9218645" lon="7.182325"><ele>1547.0</ele><time>2026-04-26T10:29:01.746Z</time></trkpt><trkpt lat="44.9218994" lon="7.1824373"><ele>1547.0</ele><time>2026-04-26T10:29:02.746Z</time></trkpt><trkpt lat="44.9219334" lon="7.1825425"><ele>1547.0</ele><time>2026-04-26T10:29:03.746Z</time></trkpt><trkpt lat="44.9219654" lon="7.1826466"><ele>1546.9999999999998</ele><time>2026-04-26T10:29:04.746Z</time></trkpt><trkpt lat="44.9219932" lon="7.182757"><ele>1547.0</ele><time>2026-04-26T10:29:05.746Z</time></trkpt><trkpt lat="44.922016" lon="7.1828674"><ele>1545.6666666666665</ele><time>2026-04-26T10:29:06.746Z</time></trkpt><trkpt lat="44.9220287" lon="7.1829775"><ele>1544.3333333333333</ele><time>2026-04-26T10:29:07.746Z</time></trkpt><trkpt lat="44.9220398" lon="7.1830921"><ele>1543.0</ele><time>2026-04-26T10:29:08.745Z</time></trkpt><trkpt lat="44.92205" lon="7.1832049"><ele>1541.6666666666665</ele><time>2026-04-26T10:29:09.746Z</time></trkpt><trkpt lat="44.9220598" lon="7.1833108"><ele>1540.3333333333333</ele><time>2026-04-26T10:29:10.746Z</time></trkpt><trkpt lat="44.9220736" lon="7.1834101"><ele>1539.0</ele><time>2026-04-26T10:29:11.746Z</time></trkpt><trkpt lat="44.9220912" lon="7.1835041"><ele>1537.5</ele><time>2026-04-26T10:29:12.746Z</time></trkpt><trkpt lat="44.9221155" lon="7.1836055"><ele>1536.0</ele><time>2026-04-26T10:29:13.746Z</time></trkpt><trkpt lat="44.9221515" lon="7.183716"><ele>1534.5</ele><time>2026-04-26T10:29:14.746Z</time></trkpt><trkpt lat="44.9221957" lon="7.1838181"><ele>1533.0</ele><time>2026-04-26T10:29:15.746Z</time></trkpt><trkpt lat="44.922245" lon="7.1839302"><ele>1531.5</ele><time>2026-04-26T10:29:16.746Z</time></trkpt><trkpt lat="44.9222902" lon="7.1840296"><ele>1530.0</ele><time>2026-04-26T10:29:17.746Z</time></trkpt><trkpt lat="44.9223322" lon="7.1841281"><ele>1531.1666666666667</ele><time>2026-04-26T10:29:18.746Z</time></trkpt><trkpt lat="44.9223756" lon="7.1842258"><ele>1532.3333333333335</ele><time>2026-04-26T10:29:19.746Z</time></trkpt><trkpt lat="44.9224267" lon="7.184306"><ele>1533.5</ele><time>2026-04-26T10:29:20.746Z</time></trkpt><trkpt lat="44.9224861" lon="7.1843833"><ele>1534.6666666666667</ele><time>2026-04-26T10:29:21.746Z</time></trkpt><trkpt lat="44.922551" lon="7.1844599"><ele>1535.8333333333335</ele><time>2026-04-26T10:29:22.746Z</time></trkpt><trkpt lat="44.922612" lon="7.1845477"><ele>1537.0</ele><time>2026-04-26T10:29:23.746Z</time></trkpt><trkpt lat="44.9226638" lon="7.1846335"><ele>1537.0000000000002</ele><time>2026-04-26T10:29:24.746Z</time></trkpt><trkpt lat="44.9227018" lon="7.1847202"><ele>1537.0</ele><time>2026-04-26T10:29:25.746Z</time></trkpt><trkpt lat="44.9227345" lon="7.1848184"><ele>1537.0</ele><time>2026-04-26T10:29:26.746Z</time></trkpt><trkpt lat="44.9227603" lon="7.1849149"><ele>1537.0</ele><time>2026-04-26T10:29:27.746Z</time></trkpt><trkpt lat="44.9227791" lon="7.185009"><ele>1537.0000000000002</ele><time>2026-04-26T10:29:28.746Z</time></trkpt><trkpt lat="44.9227921" lon="7.1851033"><ele>1537.0</ele><time>2026-04-26T10:29:29.746Z</time></trkpt><trkpt lat="44.9227889" lon="7.1852843"><ele>1536.1666666666667</ele><time>2026-04-26T10:29:31.746Z</time></trkpt><trkpt lat="44.9227786" lon="7.1853946"><ele>1535.3333333333335</ele><time>2026-04-26T10:29:32.746Z</time></trkpt><trkpt lat="44.9227663" lon="7.1855163"><ele>1534.5</ele><time>2026-04-26T10:29:33.746Z</time></trkpt><trkpt lat="44.9227526" lon="7.1856422"><ele>1533.6666666666667</ele><time>2026-04-26T10:29:34.746Z</time></trkpt><trkpt lat="44.9227429" lon="7.1857516"><ele>1532.8333333333335</ele><time>2026-04-26T10:29:35.746Z</time></trkpt><trkpt lat="44.9227275" lon="7.1858581"><ele>1532.0</ele><time>2026-04-26T10:29:36.746Z</time></trkpt><trkpt lat="44.9226983" lon="7.1859514"><ele>1531.6666666666667</ele><time>2026-04-26T10:29:37.746Z</time></trkpt><trkpt lat="44.9226632" lon="7.1860449"><ele>1531.3333333333335</ele><time>2026-04-26T10:29:38.746Z</time></trkpt><trkpt lat="44.922641" lon="7.1861288"><ele>1531.0</ele><time>2026-04-26T10:29:39.746Z</time></trkpt><trkpt lat="44.9225937" lon="7.1862866"><ele>1530.6666666666667</ele><time>2026-04-26T10:29:41.746Z</time></trkpt><trkpt lat="44.9225707" lon="7.186372"><ele>1530.3333333333333</ele><time>2026-04-26T10:29:42.746Z</time></trkpt><trkpt lat="44.92254" lon="7.1864605"><ele>1530.0</ele><time>2026-04-26T10:29:43.746Z</time></trkpt><trkpt lat="44.9225088" lon="7.1865523"><ele>1525.5</ele><time>2026-04-26T10:29:44.746Z</time></trkpt><trkpt lat="44.9224834" lon="7.1866472"><ele>1521.0</ele><time>2026-04-26T10:29:45.746Z</time></trkpt><trkpt lat="44.922454" lon="7.1867592"><ele>1516.5</ele><time>2026-04-26T10:29:46.746Z</time></trkpt><trkpt lat="44.9224361" lon="7.1868514"><ele>1512.0</ele><time>2026-04-26T10:29:47.746Z</time></trkpt><trkpt lat="44.9224139" lon="7.1869463"><ele>1507.5</ele><time>2026-04-26T10:29:48.746Z</time></trkpt><trkpt lat="44.9223788" lon="7.1870315"><ele>1503.0</ele><time>2026-04-26T10:29:49.746Z</time></trkpt><trkpt lat="44.9223005" lon="7.1871684"><ele>1503.0</ele><time>2026-04-26T10:29:51.746Z</time></trkpt><trkpt lat="44.9222531" lon="7.1872282"><ele>1503.0</ele><time>2026-04-26T10:29:52.746Z</time></trkpt><trkpt lat="44.9222077" lon="7.1872974"><ele>1503.0</ele><time>2026-04-26T10:29:53.746Z</time></trkpt><trkpt lat="44.9221584" lon="7.1873653"><ele>1503.0</ele><time>2026-04-26T10:29:54.746Z</time></trkpt><trkpt lat="44.9221103" lon="7.1874423"><ele>1503.0</ele><time>2026-04-26T10:29:55.746Z</time></trkpt><trkpt lat="44.9220777" lon="7.1875192"><ele>1503.0</ele><time>2026-04-26T10:29:56.746Z</time></trkpt><trkpt lat="44.9220556" lon="7.1876098"><ele>1503.0</ele><time>2026-04-26T10:29:57.746Z</time></trkpt><trkpt lat="44.9220328" lon="7.1877012"><ele>1502.8000000000002</ele><time>2026-04-26T10:29:58.746Z</time></trkpt><trkpt lat="44.9220227" lon="7.1877999"><ele>1502.6</ele><time>2026-04-26T10:29:59.746Z</time></trkpt><trkpt lat="44.9220197" lon="7.1879772"><ele>1502.4</ele><time>2026-04-26T10:30:01.746Z</time></trkpt><trkpt lat="44.9220995" lon="7.1881067"><ele>1502.1999999999998</ele><time>2026-04-26T10:30:03.746Z</time></trkpt><trkpt lat="44.9221477" lon="7.188174"><ele>1502.0</ele><time>2026-04-26T10:30:04.746Z</time></trkpt><trkpt lat="44.922196" lon="7.1882418"><ele>1499.3999999999999</ele><time>2026-04-26T10:30:05.746Z</time></trkpt><trkpt lat="44.9222614" lon="7.1883847"><ele>1496.8</ele><time>2026-04-26T10:30:07.745Z</time></trkpt><trkpt lat="44.9222583" lon="7.1885451"><ele>1494.2</ele><time>2026-04-26T10:30:09.746Z</time></trkpt><trkpt lat="44.9222187" lon="7.1886329"><ele>1491.6</ele><time>2026-04-26T10:30:10.746Z</time></trkpt><trkpt lat="44.922171" lon="7.188725"><ele>1489.0</ele><time>2026-04-26T10:30:11.746Z</time></trkpt><trkpt lat="44.9221283" lon="7.1888235"><ele>1489.0</ele><time>2026-04-26T10:30:12.746Z</time></trkpt><trkpt lat="44.9220879" lon="7.1889208"><ele>1489.0</ele><time>2026-04-26T10:30:13.746Z</time></trkpt><trkpt lat="44.9220561" lon="7.1890135"><ele>1489.0</ele><time>2026-04-26T10:30:14.745Z</time></trkpt><trkpt lat="44.9220366" lon="7.1890984"><ele>1489.0</ele><time>2026-04-26T10:30:15.746Z</time></trkpt><trkpt lat="44.9220391" lon="7.1892462"><ele>1489.0</ele><time>2026-04-26T10:30:17.746Z</time></trkpt><trkpt lat="44.9220929" lon="7.1893854"><ele>1489.0</ele><time>2026-04-26T10:30:19.746Z</time></trkpt><trkpt lat="44.9221529" lon="7.1894918"><ele>1488.2</ele><time>2026-04-26T10:30:21.746Z</time></trkpt><trkpt lat="44.9222008" lon="7.1896011"><ele>1487.4</ele><time>2026-04-26T10:30:23.746Z</time></trkpt><trkpt lat="44.9222164" lon="7.1897608"><ele>1486.6</ele><time>2026-04-26T10:30:25.746Z</time></trkpt><trkpt lat="44.9221889" lon="7.1899268"><ele>1485.8</ele><time>2026-04-26T10:30:27.746Z</time></trkpt><trkpt lat="44.9221702" lon="7.1900117"><ele>1485.0</ele><time>2026-04-26T10:30:28.746Z</time></trkpt><trkpt lat="44.9221326" lon="7.190159"><ele>1484.5</ele><time>2026-04-26T10:30:30.746Z</time></trkpt><trkpt lat="44.9220627" lon="7.1902438"><ele>1484.0</ele><time>2026-04-26T10:30:32.746Z</time></trkpt><trkpt lat="44.9219906" lon="7.1902285"><ele>1483.5</ele><time>2026-04-26T10:30:34.746Z</time></trkpt><trkpt lat="44.9219281" lon="7.1901543"><ele>1483.0</ele><time>2026-04-26T10:30:36.746Z</time></trkpt><trkpt lat="44.9218362" lon="7.1900612"><ele>1482.5</ele><time>2026-04-26T10:30:38.746Z</time></trkpt><trkpt lat="44.9217895" lon="7.1899996"><ele>1482.0</ele><time>2026-04-26T10:30:39.746Z</time></trkpt><trkpt lat="44.9217312" lon="7.189949"><ele>1478.6</ele><time>2026-04-26T10:30:40.746Z</time></trkpt><trkpt lat="44.9216213" lon="7.1898761"><ele>1475.1999999999998</ele><time>2026-04-26T10:30:42.745Z</time></trkpt><trkpt lat="44.9215546" lon="7.1898487"><ele>1471.8</ele><time>2026-04-26T10:30:43.746Z</time></trkpt><trkpt lat="44.921447" lon="7.1897953"><ele>1468.4</ele><time>2026-04-26T10:30:45.746Z</time></trkpt><trkpt lat="44.9213816" lon="7.1897141"><ele>1465.0</ele><time>2026-04-26T10:30:47.746Z</time></trkpt><trkpt lat="44.9213451" lon="7.1896111"><ele>1465.0</ele><time>2026-04-26T10:30:49.746Z</time></trkpt><trkpt lat="44.9213034" lon="7.1894862"><ele>1465.0</ele><time>2026-04-26T10:30:51.746Z</time></trkpt><trkpt lat="44.9212483" lon="7.189333"><ele>1465.0</ele><time>2026-04-26T10:30:53.746Z</time></trkpt><trkpt lat="44.9211977" lon="7.1892544"><ele>1465.0</ele><time>2026-04-26T10:30:54.746Z</time></trkpt><trkpt lat="44.9211437" lon="7.1891833"><ele>1465.0</ele><time>2026-04-26T10:30:55.746Z</time></trkpt><trkpt lat="44.9210877" lon="7.1891164"><ele>1465.0</ele><time>2026-04-26T10:30:56.746Z</time></trkpt><trkpt lat="44.9210353" lon="7.1890414"><ele>1465.5</ele><time>2026-04-26T10:30:57.746Z</time></trkpt><trkpt lat="44.9209908" lon="7.1889508"><ele>1466.0</ele><time>2026-04-26T10:30:58.746Z</time></trkpt><trkpt lat="44.9209477" lon="7.1888602"><ele>1466.5</ele><time>2026-04-26T10:30:59.746Z</time></trkpt><trkpt lat="44.9208993" lon="7.1887713"><ele>1467.0</ele><time>2026-04-26T10:31:00.745Z</time></trkpt><trkpt lat="44.9208477" lon="7.1887005"><ele>1467.5</ele><time>2026-04-26T10:31:01.746Z</time></trkpt><trkpt lat="44.9207882" lon="7.1886476"><ele>1468.0</ele><time>2026-04-26T10:31:02.746Z</time></trkpt><trkpt lat="44.9207271" lon="7.1885905"><ele>1464.8333333333333</ele><time>2026-04-26T10:31:03.746Z</time></trkpt><trkpt lat="44.9206569" lon="7.1885303"><ele>1461.6666666666665</ele><time>2026-04-26T10:31:04.746Z</time></trkpt><trkpt lat="44.9205935" lon="7.1884689"><ele>1458.5</ele><time>2026-04-26T10:31:05.746Z</time></trkpt><trkpt lat="44.920537" lon="7.1883969"><ele>1455.3333333333333</ele><time>2026-04-26T10:31:06.746Z</time></trkpt><trkpt lat="44.9204817" lon="7.1883093"><ele>1452.1666666666667</ele><time>2026-04-26T10:31:07.746Z</time></trkpt><trkpt lat="44.9204322" lon="7.1882199"><ele>1449.0</ele><time>2026-04-26T10:31:08.746Z</time></trkpt><trkpt lat="44.920394" lon="7.1881228"><ele>1449.0</ele><time>2026-04-26T10:31:09.746Z</time></trkpt><trkpt lat="44.9203592" lon="7.1880167"><ele>1449.0</ele><time>2026-04-26T10:31:10.746Z</time></trkpt><trkpt lat="44.9203371" lon="7.1879053"><ele>1449.0</ele><time>2026-04-26T10:31:11.746Z</time></trkpt><trkpt lat="44.9203285" lon="7.1877517"><ele>1449.0</ele><time>2026-04-26T10:31:13.746Z</time></trkpt><trkpt lat="44.9202752" lon="7.1876594"><ele>1449.0</ele><time>2026-04-26T10:31:15.746Z</time></trkpt><trkpt lat="44.9202217" lon="7.187721"><ele>1449.0</ele><time>2026-04-26T10:31:17.746Z</time></trkpt><trkpt lat="44.920198" lon="7.1878899"><ele>1449.0</ele><time>2026-04-26T10:31:19.746Z</time></trkpt><trkpt lat="44.9201765" lon="7.1879924"><ele>1449.0</ele><time>2026-04-26T10:31:20.746Z</time></trkpt><trkpt lat="44.9201529" lon="7.188104"><ele>1449.0</ele><time>2026-04-26T10:31:21.746Z</time></trkpt><trkpt lat="44.9201226" lon="7.1882156"><ele>1449.0</ele><time>2026-04-26T10:31:22.746Z</time></trkpt><trkpt lat="44.9200981" lon="7.1883184"><ele>1449.0</ele><time>2026-04-26T10:31:23.746Z</time></trkpt><trkpt lat="44.9200724" lon="7.1884193"><ele>1449.0</ele><time>2026-04-26T10:31:24.746Z</time></trkpt><trkpt lat="44.9200491" lon="7.1885221"><ele>1446.0</ele><time>2026-04-26T10:31:25.746Z</time></trkpt><trkpt lat="44.9200237" lon="7.1886235"><ele>1443.0</ele><time>2026-04-26T10:31:26.746Z</time></trkpt><trkpt lat="44.9200013" lon="7.1887122"><ele>1440.0</ele><time>2026-04-26T10:31:27.746Z</time></trkpt><trkpt lat="44.9199674" lon="7.1887948"><ele>1437.0</ele><time>2026-04-26T10:31:28.746Z</time></trkpt><trkpt lat="44.9199213" lon="7.1888557"><ele>1434.0</ele><time>2026-04-26T10:31:29.746Z</time></trkpt><trkpt lat="44.9198298" lon="7.188966"><ele>1431.0</ele><time>2026-04-26T10:31:31.746Z</time></trkpt><trkpt lat="44.9198081" lon="7.1890897"><ele>1431.0</ele><time>2026-04-26T10:31:33.746Z</time></trkpt><trkpt lat="44.9198082" lon="7.189193"><ele>1431.0</ele><time>2026-04-26T10:31:35.746Z</time></trkpt><trkpt lat="44.9197611" lon="7.1892529"><ele>1431.0</ele><time>2026-04-26T10:31:37.746Z</time></trkpt><trkpt lat="44.9196882" lon="7.1892061"><ele>1431.0</ele><time>2026-04-26T10:31:39.746Z</time></trkpt><trkpt lat="44.9195937" lon="7.1890611"><ele>1431.0</ele><time>2026-04-26T10:31:41.746Z</time></trkpt><trkpt lat="44.9195483" lon="7.1889845"><ele>1431.0</ele><time>2026-04-26T10:31:42.746Z</time></trkpt><trkpt lat="44.9195062" lon="7.1889034"><ele>1431.0</ele><time>2026-04-26T10:31:43.746Z</time></trkpt><trkpt lat="44.9194643" lon="7.1888267"><ele>1431.0</ele><time>2026-04-26T10:31:44.746Z</time></trkpt><trkpt lat="44.9194209" lon="7.1887583"><ele>1431.0</ele><time>2026-04-26T10:31:45.746Z</time></trkpt><trkpt lat="44.9193764" lon="7.1886924"><ele>1431.0</ele><time>2026-04-26T10:31:46.746Z</time></trkpt><trkpt lat="44.9193261" lon="7.1886316"><ele>1431.0</ele><time>2026-04-26T10:31:47.746Z</time></trkpt><trkpt lat="44.9192268" lon="7.1885574"><ele>1431.0</ele><time>2026-04-26T10:31:49.746Z</time></trkpt><trkpt lat="44.919123" lon="7.1885631"><ele>1427.8</ele><time>2026-04-26T10:31:51.746Z</time></trkpt><trkpt lat="44.9190105" lon="7.1886207"><ele>1424.6</ele><time>2026-04-26T10:31:53.746Z</time></trkpt><trkpt lat="44.9189505" lon="7.1886552"><ele>1421.4</ele><time>2026-04-26T10:31:54.746Z</time></trkpt><trkpt lat="44.918854" lon="7.1887344"><ele>1418.2</ele><time>2026-04-26T10:31:56.746Z</time></trkpt><trkpt lat="44.9187804" lon="7.1888183"><ele>1415.0</ele><time>2026-04-26T10:31:58.746Z</time></trkpt><trkpt lat="44.9187307" lon="7.1888782"><ele>1415.0</ele><time>2026-04-26T10:32:01.745Z</time></trkpt><trkpt lat="44.9187112" lon="7.1889677"><ele>1415.0</ele><time>2026-04-26T10:32:16.746Z</time></trkpt><trkpt lat="44.9186896" lon="7.1890843"><ele>1415.0</ele><time>2026-04-26T10:32:18.745Z</time></trkpt><trkpt lat="44.9186807" lon="7.1892367"><ele>1415.0</ele><time>2026-04-26T10:32:20.746Z</time></trkpt><trkpt lat="44.918684" lon="7.1893414"><ele>1415.0</ele><time>2026-04-26T10:32:21.746Z</time></trkpt><trkpt lat="44.9186926" lon="7.189437"><ele>1415.0</ele><time>2026-04-26T10:32:22.746Z</time></trkpt><trkpt lat="44.9186964" lon="7.1895449"><ele>1415.0</ele><time>2026-04-26T10:32:23.746Z</time></trkpt><trkpt lat="44.918694" lon="7.189647"><ele>1415.0</ele><time>2026-04-26T10:32:24.746Z</time></trkpt><trkpt lat="44.9186902" lon="7.1897459"><ele>1415.0</ele><time>2026-04-26T10:32:25.746Z</time></trkpt><trkpt lat="44.9186829" lon="7.1899147"><ele>1415.0</ele><time>2026-04-26T10:32:27.746Z</time></trkpt><trkpt lat="44.9187105" lon="7.1900382"><ele>1415.0</ele><time>2026-04-26T10:32:29.746Z</time></trkpt><trkpt lat="44.9187924" lon="7.1901239"><ele>1413.0</ele><time>2026-04-26T10:32:31.746Z</time></trkpt><trkpt lat="44.9188572" lon="7.1901513"><ele>1411.0</ele><time>2026-04-26T10:32:32.746Z</time></trkpt><trkpt lat="44.9189267" lon="7.1901628"><ele>1409.0</ele><time>2026-04-26T10:32:33.746Z</time></trkpt><trkpt lat="44.9189955" lon="7.1901851"><ele>1407.0</ele><time>2026-04-26T10:32:34.746Z</time></trkpt><trkpt lat="44.9190619" lon="7.1902093"><ele>1405.0</ele><time>2026-04-26T10:32:35.746Z</time></trkpt><trkpt lat="44.9191248" lon="7.1902428"><ele>1403.0</ele><time>2026-04-26T10:32:36.746Z</time></trkpt><trkpt lat="44.9192168" lon="7.1903484"><ele>1403.2</ele><time>2026-04-26T10:32:38.746Z</time></trkpt><trkpt lat="44.9192784" lon="7.1904655"><ele>1403.4</ele><time>2026-04-26T10:32:40.746Z</time></trkpt><trkpt lat="44.9193292" lon="7.190578"><ele>1403.6000000000001</ele><time>2026-04-26T10:32:42.746Z</time></trkpt><trkpt lat="44.919404" lon="7.1906628"><ele>1403.8000000000002</ele><time>2026-04-26T10:32:44.746Z</time></trkpt><trkpt lat="44.9194711" lon="7.1907546"><ele>1404.0</ele><time>2026-04-26T10:32:46.746Z</time></trkpt><trkpt lat="44.9195414" lon="7.1908194"><ele>1404.0</ele><time>2026-04-26T10:32:48.746Z</time></trkpt><trkpt lat="44.9196331" lon="7.1908947"><ele>1404.0</ele><time>2026-04-26T10:32:50.746Z</time></trkpt><trkpt lat="44.9196932" lon="7.1910084"><ele>1404.0</ele><time>2026-04-26T10:32:52.746Z</time></trkpt><trkpt lat="44.9196956" lon="7.1911053"><ele>1404.0</ele><time>2026-04-26T10:32:53.746Z</time></trkpt><trkpt lat="44.9196487" lon="7.1912603"><ele>1404.0</ele><time>2026-04-26T10:32:55.746Z</time></trkpt><trkpt lat="44.9196219" lon="7.1913853"><ele>1401.2</ele><time>2026-04-26T10:32:57.746Z</time></trkpt><trkpt lat="44.919649" lon="7.1915275"><ele>1398.4</ele><time>2026-04-26T10:32:59.746Z</time></trkpt><trkpt lat="44.9196808" lon="7.1916211"><ele>1395.6</ele><time>2026-04-26T10:33:00.746Z</time></trkpt><trkpt lat="44.9197266" lon="7.1917695"><ele>1392.8</ele><time>2026-04-26T10:33:02.746Z</time></trkpt><trkpt lat="44.9196774" lon="7.1919467"><ele>1390.0</ele><time>2026-04-26T10:33:04.746Z</time></trkpt><trkpt lat="44.9196409" lon="7.1920415"><ele>1390.0</ele><time>2026-04-26T10:33:05.746Z</time></trkpt><trkpt lat="44.919617" lon="7.1921345"><ele>1390.0</ele><time>2026-04-26T10:33:06.746Z</time></trkpt><trkpt lat="44.9195827" lon="7.1922931"><ele>1390.0</ele><time>2026-04-26T10:33:08.746Z</time></trkpt><trkpt lat="44.919583" lon="7.1923887"><ele>1390.0</ele><time>2026-04-26T10:33:09.746Z</time></trkpt><trkpt lat="44.9196098" lon="7.1924933"><ele>1390.0</ele><time>2026-04-26T10:33:10.746Z</time></trkpt><trkpt lat="44.919659" lon="7.192666"><ele>1388.6666666666665</ele><time>2026-04-26T10:33:12.746Z</time></trkpt><trkpt lat="44.9196837" lon="7.1927584"><ele>1387.3333333333333</ele><time>2026-04-26T10:33:13.745Z</time></trkpt><trkpt lat="44.9197118" lon="7.1928503"><ele>1386.0</ele><time>2026-04-26T10:33:14.745Z</time></trkpt><trkpt lat="44.9197292" lon="7.1929547"><ele>1384.6666666666667</ele><time>2026-04-26T10:33:15.746Z</time></trkpt><trkpt lat="44.9197341" lon="7.1930666"><ele>1383.3333333333335</ele><time>2026-04-26T10:33:16.746Z</time></trkpt><trkpt lat="44.9197326" lon="7.1931837"><ele>1382.0</ele><time>2026-04-26T10:33:17.746Z</time></trkpt><trkpt lat="44.919724" lon="7.1932937"><ele>1380.5714285714284</ele><time>2026-04-26T10:33:18.746Z</time></trkpt><trkpt lat="44.9197018" lon="7.1933927"><ele>1379.142857142857</ele><time>2026-04-26T10:33:19.746Z</time></trkpt><trkpt lat="44.9196692" lon="7.1934832"><ele>1377.7142857142858</ele><time>2026-04-26T10:33:20.745Z</time></trkpt><trkpt lat="44.9196308" lon="7.1935653"><ele>1376.2857142857142</ele><time>2026-04-26T10:33:21.746Z</time></trkpt><trkpt lat="44.9195811" lon="7.1936363"><ele>1374.857142857143</ele><time>2026-04-26T10:33:22.746Z</time></trkpt><trkpt lat="44.9195315" lon="7.1937104"><ele>1373.4285714285713</ele><time>2026-04-26T10:33:23.746Z</time></trkpt><trkpt lat="44.9194786" lon="7.1937865"><ele>1372.0</ele><time>2026-04-26T10:33:24.746Z</time></trkpt><trkpt lat="44.9194297" lon="7.1938603"><ele>1372.0</ele><time>2026-04-26T10:33:25.746Z</time></trkpt><trkpt lat="44.9193785" lon="7.1939291"><ele>1372.0</ele><time>2026-04-26T10:33:26.746Z</time></trkpt><trkpt lat="44.9193297" lon="7.1939943"><ele>1372.0</ele><time>2026-04-26T10:33:27.745Z</time></trkpt><trkpt lat="44.9192751" lon="7.1940423"><ele>1372.0</ele><time>2026-04-26T10:33:28.746Z</time></trkpt><trkpt lat="44.9191625" lon="7.1940643"><ele>1372.0</ele><time>2026-04-26T10:33:30.746Z</time></trkpt><trkpt lat="44.919054" lon="7.1940752"><ele>1372.0</ele><time>2026-04-26T10:33:32.746Z</time></trkpt><trkpt lat="44.918933" lon="7.194081"><ele>1367.5</ele><time>2026-04-26T10:33:34.746Z</time></trkpt><trkpt lat="44.9188083" lon="7.1940962"><ele>1363.0</ele><time>2026-04-26T10:33:36.746Z</time></trkpt><trkpt lat="44.9186891" lon="7.1941209"><ele>1358.5</ele><time>2026-04-26T10:33:38.746Z</time></trkpt><trkpt lat="44.918581" lon="7.1941378"><ele>1354.0</ele><time>2026-04-26T10:33:40.745Z</time></trkpt><trkpt lat="44.9184567" lon="7.1941276"><ele>1353.6</ele><time>2026-04-26T10:33:42.746Z</time></trkpt><trkpt lat="44.9183532" lon="7.1940465"><ele>1353.2</ele><time>2026-04-26T10:33:44.746Z</time></trkpt><trkpt lat="44.9183245" lon="7.1939075"><ele>1352.8</ele><time>2026-04-26T10:33:46.746Z</time></trkpt><trkpt lat="44.9183562" lon="7.1937384"><ele>1352.3999999999999</ele><time>2026-04-26T10:33:48.746Z</time></trkpt><trkpt lat="44.9183957" lon="7.1936556"><ele>1352.0</ele><time>2026-04-26T10:33:49.746Z</time></trkpt><trkpt lat="44.9184499" lon="7.193518"><ele>1352.0</ele><time>2026-04-26T10:33:51.746Z</time></trkpt><trkpt lat="44.9184353" lon="7.1934072"><ele>1352.0</ele><time>2026-04-26T10:33:53.745Z</time></trkpt><trkpt lat="44.9183537" lon="7.1933304"><ele>1352.0</ele><time>2026-04-26T10:33:55.746Z</time></trkpt><trkpt lat="44.9182928" lon="7.1933006"><ele>1352.0</ele><time>2026-04-26T10:33:56.746Z</time></trkpt><trkpt lat="44.9181841" lon="7.1932505"><ele>1352.0</ele><time>2026-04-26T10:33:58.746Z</time></trkpt><trkpt lat="44.9180592" lon="7.1932003"><ele>1350.1666666666667</ele><time>2026-04-26T10:34:00.746Z</time></trkpt><trkpt lat="44.9179858" lon="7.19319"><ele>1348.3333333333335</ele><time>2026-04-26T10:34:01.746Z</time></trkpt><trkpt lat="44.9179221" lon="7.1932013"><ele>1346.5</ele><time>2026-04-26T10:34:02.745Z</time></trkpt><trkpt lat="44.9178293" lon="7.1933119"><ele>1344.6666666666667</ele><time>2026-04-26T10:34:04.746Z</time></trkpt><trkpt lat="44.9177854" lon="7.1933983"><ele>1342.8333333333333</ele><time>2026-04-26T10:34:05.746Z</time></trkpt><trkpt lat="44.9177714" lon="7.1935393"><ele>1341.0</ele><time>2026-04-26T10:34:06.746Z</time></trkpt><trkpt lat="44.9177377" lon="7.1936558"><ele>1341.0</ele><time>2026-04-26T10:34:07.746Z</time></trkpt><trkpt lat="44.9177086" lon="7.1937721"><ele>1341.0</ele><time>2026-04-26T10:34:08.746Z</time></trkpt><trkpt lat="44.9176764" lon="7.1938695"><ele>1341.0</ele><time>2026-04-26T10:34:09.746Z</time></trkpt><trkpt lat="44.9176324" lon="7.193959"><ele>1341.0</ele><time>2026-04-26T10:34:10.746Z</time></trkpt><trkpt lat="44.9175803" lon="7.1940523"><ele>1341.0</ele><time>2026-04-26T10:34:11.746Z</time></trkpt><trkpt lat="44.91753" lon="7.1941397"><ele>1341.0</ele><time>2026-04-26T10:34:12.746Z</time></trkpt><trkpt lat="44.9174916" lon="7.194229"><ele>1338.3333333333333</ele><time>2026-04-26T10:34:13.746Z</time></trkpt><trkpt lat="44.9174592" lon="7.1943689"><ele>1335.6666666666667</ele><time>2026-04-26T10:34:15.746Z</time></trkpt><trkpt lat="44.9173926" lon="7.1944046"><ele>1333.0</ele><time>2026-04-26T10:34:17.746Z</time></trkpt><trkpt lat="44.9173252" lon="7.1942821"><ele>1330.3333333333335</ele><time>2026-04-26T10:34:19.746Z</time></trkpt><trkpt lat="44.9173084" lon="7.1941886"><ele>1327.6666666666667</ele><time>2026-04-26T10:34:20.746Z</time></trkpt><trkpt lat="44.9173032" lon="7.1940834"><ele>1325.0</ele><time>2026-04-26T10:34:21.746Z</time></trkpt><trkpt lat="44.9172779" lon="7.1939842"><ele>1324.4285714285716</ele><time>2026-04-26T10:34:22.746Z</time></trkpt><trkpt lat="44.9172382" lon="7.1938874"><ele>1323.8571428571427</ele><time>2026-04-26T10:34:23.746Z</time></trkpt><trkpt lat="44.9171871" lon="7.1938025"><ele>1323.2857142857142</ele><time>2026-04-26T10:34:24.746Z</time></trkpt><trkpt lat="44.9171337" lon="7.1937332"><ele>1322.7142857142858</ele><time>2026-04-26T10:34:25.746Z</time></trkpt><trkpt lat="44.9170839" lon="7.1936527"><ele>1322.1428571428573</ele><time>2026-04-26T10:34:26.746Z</time></trkpt><trkpt lat="44.9170524" lon="7.193568"><ele>1321.5714285714284</ele><time>2026-04-26T10:34:27.746Z</time></trkpt><trkpt lat="44.9170314" lon="7.1934684"><ele>1321.0</ele><time>2026-04-26T10:34:28.746Z</time></trkpt><trkpt lat="44.9170155" lon="7.1933588"><ele>1321.0</ele><time>2026-04-26T10:34:29.746Z</time></trkpt><trkpt lat="44.9170016" lon="7.1932482"><ele>1321.0</ele><time>2026-04-26T10:34:30.746Z</time></trkpt><trkpt lat="44.9169998" lon="7.1931528"><ele>1321.0</ele><time>2026-04-26T10:34:31.746Z</time></trkpt><trkpt lat="44.9170157" lon="7.1930634"><ele>1321.0</ele><time>2026-04-26T10:34:32.746Z</time></trkpt><trkpt lat="44.9170759" lon="7.1929739"><ele>1321.0</ele><time>2026-04-26T10:34:34.745Z</time></trkpt><trkpt lat="44.9170724" lon="7.1928724"><ele>1321.0</ele><time>2026-04-26T10:34:36.746Z</time></trkpt><trkpt lat="44.916953" lon="7.1928856"><ele>1319.6</ele><time>2026-04-26T10:34:38.746Z</time></trkpt><trkpt lat="44.9168905" lon="7.1929495"><ele>1318.1999999999998</ele><time>2026-04-26T10:34:39.746Z</time></trkpt><trkpt lat="44.9168364" lon="7.193033"><ele>1316.8000000000002</ele><time>2026-04-26T10:34:40.746Z</time></trkpt><trkpt lat="44.9167803" lon="7.1931295"><ele>1315.4</ele><time>2026-04-26T10:34:41.746Z</time></trkpt><trkpt lat="44.9167247" lon="7.1932552"><ele>1314.0</ele><time>2026-04-26T10:34:42.746Z</time></trkpt><trkpt lat="44.9166493" lon="7.193383"><ele>1309.0</ele><time>2026-04-26T10:34:43.746Z</time></trkpt><trkpt lat="44.9165665" lon="7.1935218"><ele>1304.0</ele><time>2026-04-26T10:34:44.746Z</time></trkpt><trkpt lat="44.9164847" lon="7.1936591"><ele>1299.0</ele><time>2026-04-26T10:34:45.746Z</time></trkpt><trkpt lat="44.9163983" lon="7.1937963"><ele>1294.0</ele><time>2026-04-26T10:34:46.746Z</time></trkpt><trkpt lat="44.9163236" lon="7.1939204"><ele>1294.8000000000002</ele><time>2026-04-26T10:34:47.746Z</time></trkpt><trkpt lat="44.9162535" lon="7.194039"><ele>1295.6000000000001</ele><time>2026-04-26T10:34:48.746Z</time></trkpt><trkpt lat="44.9161978" lon="7.1941365"><ele>1296.4</ele><time>2026-04-26T10:34:49.746Z</time></trkpt><trkpt lat="44.9161546" lon="7.1942351"><ele>1297.2</ele><time>2026-04-26T10:34:50.746Z</time></trkpt><trkpt lat="44.9161307" lon="7.1943512"><ele>1298.0</ele><time>2026-04-26T10:34:51.746Z</time></trkpt><trkpt lat="44.9161157" lon="7.1944681"><ele>1297.9999999999998</ele><time>2026-04-26T10:34:52.746Z</time></trkpt><trkpt lat="44.9161088" lon="7.1945813"><ele>1298.0</ele><time>2026-04-26T10:34:53.746Z</time></trkpt><trkpt lat="44.9161055" lon="7.1946902"><ele>1298.0</ele><time>2026-04-26T10:34:54.746Z</time></trkpt><trkpt lat="44.9161032" lon="7.1947939"><ele>1298.0</ele><time>2026-04-26T10:34:55.746Z</time></trkpt><trkpt lat="44.916094" lon="7.1948969"><ele>1298.0</ele><time>2026-04-26T10:34:56.746Z</time></trkpt><trkpt lat="44.91608" lon="7.1949919"><ele>1297.9999999999998</ele><time>2026-04-26T10:34:57.746Z</time></trkpt><trkpt lat="44.9160495" lon="7.1950752"><ele>1298.0</ele><time>2026-04-26T10:34:58.746Z</time></trkpt><trkpt lat="44.915998" lon="7.1951538"><ele>1297.1666666666667</ele><time>2026-04-26T10:34:59.746Z</time></trkpt><trkpt lat="44.9159234" lon="7.1952237"><ele>1296.3333333333335</ele><time>2026-04-26T10:35:00.746Z</time></trkpt><trkpt lat="44.9158385" lon="7.1952717"><ele>1295.5</ele><time>2026-04-26T10:35:01.746Z</time></trkpt><trkpt lat="44.9157627" lon="7.1953067"><ele>1294.6666666666667</ele><time>2026-04-26T10:35:02.746Z</time></trkpt><trkpt lat="44.9156926" lon="7.1953508"><ele>1293.8333333333333</ele><time>2026-04-26T10:35:03.746Z</time></trkpt><trkpt lat="44.9156361" lon="7.1954087"><ele>1293.0</ele><time>2026-04-26T10:35:04.746Z</time></trkpt><trkpt lat="44.9155925" lon="7.1955651"><ele>1289.0</ele><time>2026-04-26T10:35:06.746Z</time></trkpt><trkpt lat="44.9155237" lon="7.195628"><ele>1285.0</ele><time>2026-04-26T10:35:08.746Z</time></trkpt><trkpt lat="44.9154311" lon="7.1955298"><ele>1281.0</ele><time>2026-04-26T10:35:10.746Z</time></trkpt><trkpt lat="44.9153924" lon="7.1954375"><ele>1277.0</ele><time>2026-04-26T10:35:11.745Z</time></trkpt><trkpt lat="44.915369" lon="7.1953279"><ele>1273.0</ele><time>2026-04-26T10:35:12.746Z</time></trkpt><trkpt lat="44.9153598" lon="7.1952227"><ele>1269.0</ele><time>2026-04-26T10:35:13.746Z</time></trkpt><trkpt lat="44.9153381" lon="7.1950602"><ele>1269.0</ele><time>2026-04-26T10:35:15.746Z</time></trkpt><trkpt lat="44.915258" lon="7.1950526"><ele>1269.0</ele><time>2026-04-26T10:35:17.746Z</time></trkpt><trkpt lat="44.9151808" lon="7.1951643"><ele>1269.0</ele><time>2026-04-26T10:35:19.746Z</time></trkpt><trkpt lat="44.9151272" lon="7.195278"><ele>1269.0</ele><time>2026-04-26T10:35:20.746Z</time></trkpt><trkpt lat="44.9150754" lon="7.1953823"><ele>1269.0</ele><time>2026-04-26T10:35:21.746Z</time></trkpt><trkpt lat="44.9150273" lon="7.1954903"><ele>1264.6666666666667</ele><time>2026-04-26T10:35:22.746Z</time></trkpt><trkpt lat="44.9149836" lon="7.1955818"><ele>1260.3333333333333</ele><time>2026-04-26T10:35:23.746Z</time></trkpt><trkpt lat="44.9149417" lon="7.1956703"><ele>1256.0</ele><time>2026-04-26T10:35:24.746Z</time></trkpt><trkpt lat="44.9149013" lon="7.1957386"><ele>1251.6666666666665</ele><time>2026-04-26T10:35:25.746Z</time></trkpt><trkpt lat="44.9148242" lon="7.1958106"><ele>1247.3333333333333</ele><time>2026-04-26T10:35:27.746Z</time></trkpt><trkpt lat="44.9147563" lon="7.195756"><ele>1243.0</ele><time>2026-04-26T10:35:29.746Z</time></trkpt><trkpt lat="44.9147522" lon="7.1956074"><ele>1243.0</ele><time>2026-04-26T10:35:31.746Z</time></trkpt><trkpt lat="44.9147658" lon="7.195501"><ele>1243.0</ele><time>2026-04-26T10:35:32.746Z</time></trkpt><trkpt lat="44.9147851" lon="7.1953745"><ele>1243.0</ele><time>2026-04-26T10:35:33.746Z</time></trkpt><trkpt lat="44.914806" lon="7.1952416"><ele>1243.0</ele><time>2026-04-26T10:35:34.746Z</time></trkpt><trkpt lat="44.9148178" lon="7.195104"><ele>1243.0</ele><time>2026-04-26T10:35:35.745Z</time></trkpt><trkpt lat="44.9148165" lon="7.1949663"><ele>1242.5</ele><time>2026-04-26T10:35:36.746Z</time></trkpt><trkpt lat="44.9147928" lon="7.1948335"><ele>1242.0</ele><time>2026-04-26T10:35:37.746Z</time></trkpt><trkpt lat="44.9147579" lon="7.1947101"><ele>1241.5</ele><time>2026-04-26T10:35:38.746Z</time></trkpt><trkpt lat="44.9147164" lon="7.1945952"><ele>1241.0</ele><time>2026-04-26T10:35:39.746Z</time></trkpt><trkpt lat="44.9146849" lon="7.1944897"><ele>1240.5</ele><time>2026-04-26T10:35:40.746Z</time></trkpt><trkpt lat="44.9146646" lon="7.1943897"><ele>1240.0</ele><time>2026-04-26T10:35:41.746Z</time></trkpt><trkpt lat="44.9145996" lon="7.1943032"><ele>1240.0</ele><time>2026-04-26T10:35:43.746Z</time></trkpt><trkpt lat="44.9145396" lon="7.1943907"><ele>1240.0</ele><time>2026-04-26T10:35:45.745Z</time></trkpt><trkpt lat="44.914524" lon="7.1944827"><ele>1240.0</ele><time>2026-04-26T10:35:46.746Z</time></trkpt><trkpt lat="44.9145166" lon="7.1946213"><ele>1240.0</ele><time>2026-04-26T10:35:47.746Z</time></trkpt><trkpt lat="44.9145062" lon="7.1947999"><ele>1240.0</ele><time>2026-04-26T10:35:48.746Z</time></trkpt><trkpt lat="44.9144586" lon="7.1949992"><ele>1240.75</ele><time>2026-04-26T10:35:49.746Z</time></trkpt><trkpt lat="44.9143883" lon="7.1951889"><ele>1241.5</ele><time>2026-04-26T10:35:50.746Z</time></trkpt><trkpt lat="44.91434" lon="7.1953835"><ele>1242.25</ele><time>2026-04-26T10:35:51.746Z</time></trkpt><trkpt lat="44.9142711" lon="7.1955321"><ele>1243.0</ele><time>2026-04-26T10:35:52.746Z</time></trkpt><trkpt lat="44.914217" lon="7.195671"><ele>1243.0</ele><time>2026-04-26T10:35:53.745Z</time></trkpt><trkpt lat="44.9141768" lon="7.195788"><ele>1243.0</ele><time>2026-04-26T10:35:54.746Z</time></trkpt><trkpt lat="44.9141494" lon="7.1959004"><ele>1243.0</ele><time>2026-04-26T10:35:55.746Z</time></trkpt><trkpt lat="44.9141405" lon="7.1960156"><ele>1243.0</ele><time>2026-04-26T10:35:56.746Z</time></trkpt><trkpt lat="44.9141623" lon="7.1961233"><ele>1243.0</ele><time>2026-04-26T10:35:57.746Z</time></trkpt><trkpt lat="44.9142008" lon="7.1962216"><ele>1243.0</ele><time>2026-04-26T10:35:58.746Z</time></trkpt><trkpt lat="44.9142487" lon="7.1963151"><ele>1243.0</ele><time>2026-04-26T10:35:59.746Z</time></trkpt><trkpt lat="44.9143306" lon="7.1963679"><ele>1243.0</ele><time>2026-04-26T10:36:00.746Z</time></trkpt><trkpt lat="44.9144077" lon="7.1964147"><ele>1243.0</ele><time>2026-04-26T10:36:01.746Z</time></trkpt><trkpt lat="44.9144702" lon="7.1964563"><ele>1243.0</ele><time>2026-04-26T10:36:02.746Z</time></trkpt><trkpt lat="44.9145907" lon="7.1965129"><ele>1243.0</ele><time>2026-04-26T10:36:04.746Z</time></trkpt><trkpt lat="44.9146564" lon="7.1966214"><ele>1239.6666666666665</ele><time>2026-04-26T10:36:06.746Z</time></trkpt><trkpt lat="44.9146321" lon="7.1967098"><ele>1236.3333333333333</ele><time>2026-04-26T10:36:08.745Z</time></trkpt><trkpt lat="44.914524" lon="7.1967065"><ele>1233.0</ele><time>2026-04-26T10:36:10.746Z</time></trkpt><trkpt lat="44.91445" lon="7.1966956"><ele>1229.6666666666667</ele><time>2026-04-26T10:36:11.746Z</time></trkpt><trkpt lat="44.9143678" lon="7.1966935"><ele>1226.3333333333335</ele><time>2026-04-26T10:36:12.746Z</time></trkpt><trkpt lat="44.9142798" lon="7.1967168"><ele>1223.0</ele><time>2026-04-26T10:36:13.746Z</time></trkpt><trkpt lat="44.9141887" lon="7.1967433"><ele>1219.6666666666667</ele><time>2026-04-26T10:36:14.746Z</time></trkpt><trkpt lat="44.9141038" lon="7.1967662"><ele>1216.3333333333335</ele><time>2026-04-26T10:36:15.746Z</time></trkpt><trkpt lat="44.9140293" lon="7.1967768"><ele>1213.0</ele><time>2026-04-26T10:36:16.746Z</time></trkpt><trkpt lat="44.9139567" lon="7.1967692"><ele>1209.6666666666667</ele><time>2026-04-26T10:36:17.746Z</time></trkpt><trkpt lat="44.9138886" lon="7.1967288"><ele>1206.3333333333333</ele><time>2026-04-26T10:36:18.746Z</time></trkpt><trkpt lat="44.9138238" lon="7.1966532"><ele>1203.0</ele><time>2026-04-26T10:36:19.746Z</time></trkpt><trkpt lat="44.913771" lon="7.1965815"><ele>1203.0</ele><time>2026-04-26T10:36:20.746Z</time></trkpt><trkpt lat="44.913733" lon="7.1965028"><ele>1203.0</ele><time>2026-04-26T10:36:21.746Z</time></trkpt><trkpt lat="44.9136725" lon="7.1963751"><ele>1203.0</ele><time>2026-04-26T10:36:23.746Z</time></trkpt><trkpt lat="44.913603" lon="7.1963675"><ele>1203.0</ele><time>2026-04-26T10:36:25.745Z</time></trkpt><trkpt lat="44.9136046" lon="7.1964807"><ele>1203.0</ele><time>2026-04-26T10:36:27.746Z</time></trkpt><trkpt lat="44.9136231" lon="7.1965685"><ele>1203.0</ele><time>2026-04-26T10:36:28.746Z</time></trkpt><trkpt lat="44.9136473" lon="7.1966943"><ele>1203.0</ele><time>2026-04-26T10:36:29.746Z</time></trkpt><trkpt lat="44.9136635" lon="7.1968273"><ele>1203.0</ele><time>2026-04-26T10:36:30.746Z</time></trkpt><trkpt lat="44.9136785" lon="7.1969719"><ele>1203.0</ele><time>2026-04-26T10:36:31.746Z</time></trkpt><trkpt lat="44.9136938" lon="7.1971141"><ele>1203.0</ele><time>2026-04-26T10:36:32.746Z</time></trkpt><trkpt lat="44.9137112" lon="7.1972526"><ele>1203.0</ele><time>2026-04-26T10:36:33.746Z</time></trkpt><trkpt lat="44.9137273" lon="7.1973871"><ele>1199.5</ele><time>2026-04-26T10:36:34.746Z</time></trkpt><trkpt lat="44.9137323" lon="7.1975054"><ele>1196.0</ele><time>2026-04-26T10:36:35.746Z</time></trkpt><trkpt lat="44.913717" lon="7.1976061"><ele>1192.5</ele><time>2026-04-26T10:36:36.746Z</time></trkpt><trkpt lat="44.9136638" lon="7.1976795"><ele>1189.0</ele><time>2026-04-26T10:36:37.746Z</time></trkpt><trkpt lat="44.9135821" lon="7.1977102"><ele>1185.5</ele><time>2026-04-26T10:36:38.746Z</time></trkpt><trkpt lat="44.9134663" lon="7.1977175"><ele>1182.0</ele><time>2026-04-26T10:36:39.746Z</time></trkpt><trkpt lat="44.9133284" lon="7.1977133"><ele>1178.4</ele><time>2026-04-26T10:36:40.746Z</time></trkpt><trkpt lat="44.9132055" lon="7.1977088"><ele>1174.8000000000002</ele><time>2026-04-26T10:36:41.746Z</time></trkpt><trkpt lat="44.9130996" lon="7.197708"><ele>1171.2</ele><time>2026-04-26T10:36:42.746Z</time></trkpt><trkpt lat="44.9130106" lon="7.1976958"><ele>1167.6000000000001</ele><time>2026-04-26T10:36:43.745Z</time></trkpt><trkpt lat="44.9129372" lon="7.197661"><ele>1164.0</ele><time>2026-04-26T10:36:44.746Z</time></trkpt><trkpt lat="44.9128772" lon="7.1976116"><ele>1164.0</ele><time>2026-04-26T10:36:45.746Z</time></trkpt><trkpt lat="44.9127764" lon="7.1975836"><ele>1164.0</ele><time>2026-04-26T10:36:47.746Z</time></trkpt><trkpt lat="44.912744" lon="7.1977034"><ele>1164.0</ele><time>2026-04-26T10:36:49.746Z</time></trkpt><trkpt lat="44.9127571" lon="7.1977915"><ele>1164.0</ele><time>2026-04-26T10:36:50.746Z</time></trkpt><trkpt lat="44.9127808" lon="7.1979049"><ele>1164.0</ele><time>2026-04-26T10:36:51.746Z</time></trkpt><trkpt lat="44.9128145" lon="7.1980119"><ele>1164.0</ele><time>2026-04-26T10:36:52.746Z</time></trkpt><trkpt lat="44.9128633" lon="7.1980878"><ele>1164.0</ele><time>2026-04-26T10:36:53.746Z</time></trkpt><trkpt lat="44.9129152" lon="7.1981414"><ele>1164.0</ele><time>2026-04-26T10:36:54.746Z</time></trkpt><trkpt lat="44.9129413" lon="7.1982756"><ele>1164.0</ele><time>2026-04-26T10:36:56.746Z</time></trkpt><trkpt lat="44.9128453" lon="7.1983451"><ele>1164.0</ele><time>2026-04-26T10:36:58.746Z</time></trkpt><trkpt lat="44.9127825" lon="7.1983241"><ele>1164.0</ele><time>2026-04-26T10:36:59.746Z</time></trkpt><trkpt lat="44.912716" lon="7.1982549"><ele>1164.0</ele><time>2026-04-26T10:37:00.746Z</time></trkpt><trkpt lat="44.9126385" lon="7.1981722"><ele>1160.2</ele><time>2026-04-26T10:37:01.746Z</time></trkpt><trkpt lat="44.9125601" lon="7.1981031"><ele>1156.4</ele><time>2026-04-26T10:37:02.746Z</time></trkpt><trkpt lat="44.9124732" lon="7.1980503"><ele>1152.6</ele><time>2026-04-26T10:37:03.746Z</time></trkpt><trkpt lat="44.9123929" lon="7.1979874"><ele>1148.8</ele><time>2026-04-26T10:37:04.745Z</time></trkpt><trkpt lat="44.9123239" lon="7.1979135"><ele>1145.0</ele><time>2026-04-26T10:37:05.746Z</time></trkpt><trkpt lat="44.9122712" lon="7.197814"><ele>1145.0</ele><time>2026-04-26T10:37:06.746Z</time></trkpt><trkpt lat="44.9122391" lon="7.1976988"><ele>1145.0</ele><time>2026-04-26T10:37:07.745Z</time></trkpt><trkpt lat="44.9122087" lon="7.1975798"><ele>1145.0</ele><time>2026-04-26T10:37:08.746Z</time></trkpt><trkpt lat="44.9121924" lon="7.1974658"><ele>1145.0</ele><time>2026-04-26T10:37:09.746Z</time></trkpt><trkpt lat="44.912187" lon="7.197357"><ele>1145.0</ele><time>2026-04-26T10:37:10.746Z</time></trkpt><trkpt lat="44.9121741" lon="7.1972593"><ele>1145.0</ele><time>2026-04-26T10:37:11.746Z</time></trkpt><trkpt lat="44.9121458" lon="7.1971727"><ele>1146.0000000000002</ele><time>2026-04-26T10:37:12.746Z</time></trkpt><trkpt lat="44.9120942" lon="7.1971082"><ele>1147.0</ele><time>2026-04-26T10:37:13.746Z</time></trkpt><trkpt lat="44.9120384" lon="7.197044"><ele>1148.0</ele><time>2026-04-26T10:37:14.746Z</time></trkpt><trkpt lat="44.911988" lon="7.1969679"><ele>1149.0</ele><time>2026-04-26T10:37:15.745Z</time></trkpt><trkpt lat="44.9119456" lon="7.1968884"><ele>1150.0</ele><time>2026-04-26T10:37:16.746Z</time></trkpt><trkpt lat="44.9118966" lon="7.1968206"><ele>1151.0000000000002</ele><time>2026-04-26T10:37:17.745Z</time></trkpt><trkpt lat="44.9118312" lon="7.196778"><ele>1152.0</ele><time>2026-04-26T10:37:18.746Z</time></trkpt><trkpt lat="44.9117675" lon="7.1967505"><ele>1148.4</ele><time>2026-04-26T10:37:19.746Z</time></trkpt><trkpt lat="44.9116991" lon="7.1966053"><ele>1144.8000000000002</ele><time>2026-04-26T10:37:21.746Z</time></trkpt><trkpt lat="44.9116873" lon="7.1965127"><ele>1141.2</ele><time>2026-04-26T10:37:22.746Z</time></trkpt><trkpt lat="44.9116218" lon="7.1963734"><ele>1137.6000000000001</ele><time>2026-04-26T10:37:24.745Z</time></trkpt><trkpt lat="44.9115569" lon="7.1963525"><ele>1134.0</ele><time>2026-04-26T10:37:25.746Z</time></trkpt><trkpt lat="44.9114813" lon="7.1963459"><ele>1134.0</ele><time>2026-04-26T10:37:26.746Z</time></trkpt><trkpt lat="44.9114023" lon="7.1963444"><ele>1134.0</ele><time>2026-04-26T10:37:27.745Z</time></trkpt><trkpt lat="44.9113189" lon="7.1963542"><ele>1134.0</ele><time>2026-04-26T10:37:28.745Z</time></trkpt><trkpt lat="44.9112383" lon="7.1963608"><ele>1134.0</ele><time>2026-04-26T10:37:29.746Z</time></trkpt><trkpt lat="44.9111645" lon="7.1963476"><ele>1134.0</ele><time>2026-04-26T10:37:30.746Z</time></trkpt><trkpt lat="44.9110992" lon="7.1963299"><ele>1134.0</ele><time>2026-04-26T10:37:31.746Z</time></trkpt><trkpt lat="44.911036" lon="7.1962903"><ele>1134.0</ele><time>2026-04-26T10:37:32.746Z</time></trkpt><trkpt lat="44.9109892" lon="7.1962248"><ele>1134.0</ele><time>2026-04-26T10:37:33.746Z</time></trkpt><trkpt lat="44.9109658" lon="7.1961358"><ele>1134.0</ele><time>2026-04-26T10:37:34.746Z</time></trkpt><trkpt lat="44.9109626" lon="7.1960219"><ele>1134.0</ele><time>2026-04-26T10:37:35.746Z</time></trkpt><trkpt lat="44.9109617" lon="7.1958938"><ele>1134.0</ele><time>2026-04-26T10:37:36.746Z</time></trkpt><trkpt lat="44.9109575" lon="7.1957653"><ele>1134.0</ele><time>2026-04-26T10:37:37.745Z</time></trkpt><trkpt lat="44.9109569" lon="7.1956336"><ele>1134.4</ele><time>2026-04-26T10:37:38.746Z</time></trkpt><trkpt lat="44.9109608" lon="7.1954971"><ele>1134.8000000000002</ele><time>2026-04-26T10:37:39.746Z</time></trkpt><trkpt lat="44.9109715" lon="7.1953659"><ele>1135.1999999999998</ele><time>2026-04-26T10:37:40.746Z</time></trkpt><trkpt lat="44.9109959" lon="7.1952382"><ele>1135.6</ele><time>2026-04-26T10:37:41.746Z</time></trkpt><trkpt lat="44.9110319" lon="7.1951095"><ele>1136.0</ele><time>2026-04-26T10:37:42.746Z</time></trkpt><trkpt lat="44.9110741" lon="7.1949779"><ele>1136.0</ele><time>2026-04-26T10:37:43.745Z</time></trkpt><trkpt lat="44.9111244" lon="7.1948609"><ele>1136.0</ele><time>2026-04-26T10:37:44.746Z</time></trkpt><trkpt lat="44.9111882" lon="7.1947648"><ele>1136.0</ele><time>2026-04-26T10:37:45.746Z</time></trkpt><trkpt lat="44.9112539" lon="7.1946785"><ele>1136.0</ele><time>2026-04-26T10:37:46.746Z</time></trkpt><trkpt lat="44.911311" lon="7.1945672"><ele>1136.0</ele><time>2026-04-26T10:37:47.746Z</time></trkpt><trkpt lat="44.9113456" lon="7.1944111"><ele>1136.25</ele><time>2026-04-26T10:37:48.746Z</time></trkpt><trkpt lat="44.911367" lon="7.1942603"><ele>1136.5</ele><time>2026-04-26T10:37:49.745Z</time></trkpt><trkpt lat="44.9113946" lon="7.1940978"><ele>1136.75</ele><time>2026-04-26T10:37:50.746Z</time></trkpt><trkpt lat="44.9114155" lon="7.193931"><ele>1137.0</ele><time>2026-04-26T10:37:51.746Z</time></trkpt><trkpt lat="44.9114301" lon="7.1937566"><ele>1137.6</ele><time>2026-04-26T10:37:52.746Z</time></trkpt><trkpt lat="44.9114504" lon="7.1936112"><ele>1138.2</ele><time>2026-04-26T10:37:53.746Z</time></trkpt><trkpt lat="44.9114774" lon="7.1934904"><ele>1138.8</ele><time>2026-04-26T10:37:54.746Z</time></trkpt><trkpt lat="44.9114991" lon="7.1933865"><ele>1139.4</ele><time>2026-04-26T10:37:55.746Z</time></trkpt><trkpt lat="44.9114794" lon="7.1932737"><ele>1140.0</ele><time>2026-04-26T10:37:56.746Z</time></trkpt><trkpt lat="44.9114201" lon="7.1931576"><ele>1143.25</ele><time>2026-04-26T10:37:57.746Z</time></trkpt><trkpt lat="44.9113335" lon="7.1930295"><ele>1146.5</ele><time>2026-04-26T10:37:58.746Z</time></trkpt><trkpt lat="44.9112528" lon="7.1929011"><ele>1149.75</ele><time>2026-04-26T10:37:59.745Z</time></trkpt><trkpt lat="44.9111617" lon="7.1927804"><ele>1153.0</ele><time>2026-04-26T10:38:00.746Z</time></trkpt><trkpt lat="44.9110702" lon="7.1926636"><ele>1153.0</ele><time>2026-04-26T10:38:01.746Z</time></trkpt><trkpt lat="44.9109761" lon="7.1925366"><ele>1153.0</ele><time>2026-04-26T10:38:02.746Z</time></trkpt><trkpt lat="44.9108631" lon="7.1924208"><ele>1153.0</ele><time>2026-04-26T10:38:03.746Z</time></trkpt><trkpt lat="44.9107578" lon="7.1923168"><ele>1153.0</ele><time>2026-04-26T10:38:04.746Z</time></trkpt><trkpt lat="44.9106522" lon="7.1922155"><ele>1149.25</ele><time>2026-04-26T10:38:05.746Z</time></trkpt><trkpt lat="44.9105401" lon="7.1921182"><ele>1145.5</ele><time>2026-04-26T10:38:06.746Z</time></trkpt><trkpt lat="44.9104225" lon="7.1920212"><ele>1141.75</ele><time>2026-04-26T10:38:07.746Z</time></trkpt><trkpt lat="44.9103087" lon="7.1919242"><ele>1138.0</ele><time>2026-04-26T10:38:08.746Z</time></trkpt><trkpt lat="44.9101928" lon="7.1918322"><ele>1138.0</ele><time>2026-04-26T10:38:09.746Z</time></trkpt><trkpt lat="44.9100829" lon="7.1917437"><ele>1138.0</ele><time>2026-04-26T10:38:10.746Z</time></trkpt><trkpt lat="44.9099758" lon="7.1916593"><ele>1138.0</ele><time>2026-04-26T10:38:11.746Z</time></trkpt><trkpt lat="44.9098674" lon="7.1915781"><ele>1138.0</ele><time>2026-04-26T10:38:12.746Z</time></trkpt><trkpt lat="44.9097591" lon="7.1915002"><ele>1131.75</ele><time>2026-04-26T10:38:13.745Z</time></trkpt><trkpt lat="44.9096522" lon="7.1914165"><ele>1125.5</ele><time>2026-04-26T10:38:14.746Z</time></trkpt><trkpt lat="44.9095466" lon="7.19134"><ele>1119.25</ele><time>2026-04-26T10:38:15.746Z</time></trkpt><trkpt lat="44.9094484" lon="7.1912618"><ele>1113.0</ele><time>2026-04-26T10:38:16.746Z</time></trkpt><trkpt lat="44.9093594" lon="7.1911602"><ele>1113.0</ele><time>2026-04-26T10:38:17.746Z</time></trkpt><trkpt lat="44.9092928" lon="7.1910491"><ele>1113.0</ele><time>2026-04-26T10:38:18.746Z</time></trkpt><trkpt lat="44.9092502" lon="7.1909141"><ele>1113.0</ele><time>2026-04-26T10:38:19.746Z</time></trkpt><trkpt lat="44.9092279" lon="7.1907571"><ele>1113.0</ele><time>2026-04-26T10:38:20.746Z</time></trkpt><trkpt lat="44.909225" lon="7.1905891"><ele>1113.0</ele><time>2026-04-26T10:38:21.746Z</time></trkpt><trkpt lat="44.9092269" lon="7.1904234"><ele>1109.0</ele><time>2026-04-26T10:38:22.746Z</time></trkpt><trkpt lat="44.9092187" lon="7.1902678"><ele>1105.0</ele><time>2026-04-26T10:38:23.746Z</time></trkpt><trkpt lat="44.9092024" lon="7.190114"><ele>1101.0</ele><time>2026-04-26T10:38:24.746Z</time></trkpt><trkpt lat="44.9091741" lon="7.1899661"><ele>1097.0</ele><time>2026-04-26T10:38:25.746Z</time></trkpt><trkpt lat="44.9091532" lon="7.1898266"><ele>1093.0</ele><time>2026-04-26T10:38:26.746Z</time></trkpt><trkpt lat="44.9091354" lon="7.189691"><ele>1093.0</ele><time>2026-04-26T10:38:27.746Z</time></trkpt><trkpt lat="44.9091219" lon="7.1895508"><ele>1093.0</ele><time>2026-04-26T10:38:28.746Z</time></trkpt><trkpt lat="44.9091201" lon="7.1893982"><ele>1093.0</ele><time>2026-04-26T10:38:29.746Z</time></trkpt><trkpt lat="44.9091299" lon="7.1892386"><ele>1093.0</ele><time>2026-04-26T10:38:30.746Z</time></trkpt><trkpt lat="44.9091393" lon="7.1890675"><ele>1093.0</ele><time>2026-04-26T10:38:31.746Z</time></trkpt><trkpt lat="44.9091476" lon="7.1888831"><ele>1091.75</ele><time>2026-04-26T10:38:32.746Z</time></trkpt><trkpt lat="44.9091472" lon="7.188701"><ele>1090.5</ele><time>2026-04-26T10:38:33.746Z</time></trkpt><trkpt lat="44.9091402" lon="7.1885276"><ele>1089.25</ele><time>2026-04-26T10:38:34.746Z</time></trkpt><trkpt lat="44.9091298" lon="7.1883574"><ele>1088.0</ele><time>2026-04-26T10:38:35.746Z</time></trkpt><trkpt lat="44.9091246" lon="7.1881921"><ele>1087.5</ele><time>2026-04-26T10:38:36.746Z</time></trkpt><trkpt lat="44.9091298" lon="7.1880203"><ele>1087.0</ele><time>2026-04-26T10:38:37.746Z</time></trkpt><trkpt lat="44.9091286" lon="7.1878451"><ele>1086.5</ele><time>2026-04-26T10:38:38.746Z</time></trkpt><trkpt lat="44.9091125" lon="7.1876692"><ele>1086.0</ele><time>2026-04-26T10:38:39.746Z</time></trkpt><trkpt lat="44.9090957" lon="7.1874989"><ele>1085.3999999999999</ele><time>2026-04-26T10:38:40.746Z</time></trkpt><trkpt lat="44.9090854" lon="7.1873309"><ele>1084.8</ele><time>2026-04-26T10:38:41.746Z</time></trkpt><trkpt lat="44.9090833" lon="7.1871794"><ele>1084.1999999999998</ele><time>2026-04-26T10:38:42.746Z</time></trkpt><trkpt lat="44.9090855" lon="7.1870542"><ele>1083.6</ele><time>2026-04-26T10:38:43.746Z</time></trkpt><trkpt lat="44.9090857" lon="7.1869488"><ele>1083.0</ele><time>2026-04-26T10:38:44.746Z</time></trkpt><trkpt lat="44.909012" lon="7.1868349"><ele>1083.0</ele><time>2026-04-26T10:38:46.746Z</time></trkpt><trkpt lat="44.9089135" lon="7.1868969"><ele>1083.0</ele><time>2026-04-26T10:38:48.746Z</time></trkpt><trkpt lat="44.9088818" lon="7.187002"><ele>1083.0</ele><time>2026-04-26T10:38:49.745Z</time></trkpt><trkpt lat="44.9088538" lon="7.1871231"><ele>1083.0</ele><time>2026-04-26T10:38:50.746Z</time></trkpt><trkpt lat="44.9088608" lon="7.1872928"><ele>1083.0</ele><time>2026-04-26T10:38:51.746Z</time></trkpt><trkpt lat="44.9088911" lon="7.1874483"><ele>1083.75</ele><time>2026-04-26T10:38:52.746Z</time></trkpt><trkpt lat="44.9089179" lon="7.1876088"><ele>1084.5</ele><time>2026-04-26T10:38:53.746Z</time></trkpt><trkpt lat="44.9089144" lon="7.187765"><ele>1085.25</ele><time>2026-04-26T10:38:54.746Z</time></trkpt><trkpt lat="44.908889" lon="7.1879214"><ele>1086.0</ele><time>2026-04-26T10:38:55.746Z</time></trkpt><trkpt lat="44.9088344" lon="7.1880721"><ele>1086.5</ele><time>2026-04-26T10:38:56.746Z</time></trkpt><trkpt lat="44.9087696" lon="7.1882135"><ele>1087.0</ele><time>2026-04-26T10:38:57.746Z</time></trkpt><trkpt lat="44.9086924" lon="7.188343"><ele>1087.5</ele><time>2026-04-26T10:38:58.746Z</time></trkpt><trkpt lat="44.9086137" lon="7.1884658"><ele>1088.0</ele><time>2026-04-26T10:38:59.746Z</time></trkpt><trkpt lat="44.9085202" lon="7.1885831"><ele>1088.0</ele><time>2026-04-26T10:39:00.746Z</time></trkpt><trkpt lat="44.908447" lon="7.1886981"><ele>1088.0</ele><time>2026-04-26T10:39:01.746Z</time></trkpt><trkpt lat="44.9083787" lon="7.1888357"><ele>1088.0</ele><time>2026-04-26T10:39:02.746Z</time></trkpt><trkpt lat="44.9083233" lon="7.18898"><ele>1088.0</ele><time>2026-04-26T10:39:03.746Z</time></trkpt><trkpt lat="44.9082709" lon="7.1891429"><ele>1083.0</ele><time>2026-04-26T10:39:04.746Z</time></trkpt><trkpt lat="44.9082087" lon="7.1893151"><ele>1078.0</ele><time>2026-04-26T10:39:05.746Z</time></trkpt><trkpt lat="44.9081473" lon="7.1894914"><ele>1073.0</ele><time>2026-04-26T10:39:06.746Z</time></trkpt><trkpt lat="44.9080896" lon="7.1896745"><ele>1068.0</ele><time>2026-04-26T10:39:07.746Z</time></trkpt><trkpt lat="44.9080309" lon="7.1898517"><ele>1068.0</ele><time>2026-04-26T10:39:08.746Z</time></trkpt><trkpt lat="44.9079736" lon="7.1900255"><ele>1068.0</ele><time>2026-04-26T10:39:09.746Z</time></trkpt><trkpt lat="44.9079124" lon="7.1901995"><ele>1068.0</ele><time>2026-04-26T10:39:10.746Z</time></trkpt><trkpt lat="44.9078533" lon="7.1903692"><ele>1068.0</ele><time>2026-04-26T10:39:11.746Z</time></trkpt><trkpt lat="44.9077897" lon="7.1905271"><ele>1068.75</ele><time>2026-04-26T10:39:12.746Z</time></trkpt><trkpt lat="44.9077264" lon="7.1906788"><ele>1069.5</ele><time>2026-04-26T10:39:13.746Z</time></trkpt><trkpt lat="44.9076622" lon="7.1908261"><ele>1070.25</ele><time>2026-04-26T10:39:14.746Z</time></trkpt><trkpt lat="44.9076126" lon="7.1909832"><ele>1071.0</ele><time>2026-04-26T10:39:15.746Z</time></trkpt><trkpt lat="44.9075583" lon="7.1911553"><ele>1063.75</ele><time>2026-04-26T10:39:16.746Z</time></trkpt><trkpt lat="44.9075148" lon="7.1913227"><ele>1056.5</ele><time>2026-04-26T10:39:17.746Z</time></trkpt><trkpt lat="44.9074661" lon="7.1914862"><ele>1049.25</ele><time>2026-04-26T10:39:18.746Z</time></trkpt><trkpt lat="44.9074254" lon="7.1916368"><ele>1042.0</ele><time>2026-04-26T10:39:19.746Z</time></trkpt><trkpt lat="44.9073929" lon="7.1917656"><ele>1042.0</ele><time>2026-04-26T10:39:20.745Z</time></trkpt><trkpt lat="44.907362" lon="7.1918671"><ele>1042.0</ele><time>2026-04-26T10:39:21.746Z</time></trkpt><trkpt lat="44.9073555" lon="7.1919705"><ele>1042.0</ele><time>2026-04-26T10:39:22.746Z</time></trkpt><trkpt lat="44.9073797" lon="7.1920647"><ele>1042.0</ele><time>2026-04-26T10:39:23.746Z</time></trkpt><trkpt lat="44.9074374" lon="7.1921553"><ele>1042.0</ele><time>2026-04-26T10:39:24.746Z</time></trkpt><trkpt lat="44.9075208" lon="7.1922567"><ele>1042.0</ele><time>2026-04-26T10:39:25.746Z</time></trkpt><trkpt lat="44.9076231" lon="7.1923491"><ele>1043.0</ele><time>2026-04-26T10:39:26.746Z</time></trkpt><trkpt lat="44.9077417" lon="7.1924161"><ele>1044.0</ele><time>2026-04-26T10:39:27.746Z</time></trkpt><trkpt lat="44.9078735" lon="7.1924745"><ele>1045.0</ele><time>2026-04-26T10:39:28.746Z</time></trkpt><trkpt lat="44.9079935" lon="7.1925306"><ele>1046.0</ele><time>2026-04-26T10:39:29.746Z</time></trkpt><trkpt lat="44.9081173" lon="7.1925854"><ele>1046.0</ele><time>2026-04-26T10:39:30.746Z</time></trkpt><trkpt lat="44.9082388" lon="7.1926622"><ele>1046.0</ele><time>2026-04-26T10:39:31.746Z</time></trkpt><trkpt lat="44.9083584" lon="7.1927357"><ele>1046.0</ele><time>2026-04-26T10:39:32.746Z</time></trkpt><trkpt lat="44.9084798" lon="7.1928149"><ele>1046.0</ele><time>2026-04-26T10:39:33.746Z</time></trkpt><trkpt lat="44.9085924" lon="7.1928985"><ele>1044.25</ele><time>2026-04-26T10:39:34.746Z</time></trkpt><trkpt lat="44.908701" lon="7.1929951"><ele>1042.5</ele><time>2026-04-26T10:39:35.746Z</time></trkpt><trkpt lat="44.9088064" lon="7.1930886"><ele>1040.75</ele><time>2026-04-26T10:39:36.746Z</time></trkpt><trkpt lat="44.9089068" lon="7.1931998"><ele>1039.0</ele><time>2026-04-26T10:39:37.746Z</time></trkpt><trkpt lat="44.909009" lon="7.1933087"><ele>1039.0</ele><time>2026-04-26T10:39:38.746Z</time></trkpt><trkpt lat="44.9090966" lon="7.1934196"><ele>1039.0</ele><time>2026-04-26T10:39:39.746Z</time></trkpt><trkpt lat="44.9091828" lon="7.1935181"><ele>1039.0</ele><time>2026-04-26T10:39:40.746Z</time></trkpt><trkpt lat="44.9092656" lon="7.1936094"><ele>1039.0</ele><time>2026-04-26T10:39:41.746Z</time></trkpt><trkpt lat="44.9093404" lon="7.1937067"><ele>1039.0</ele><time>2026-04-26T10:39:42.746Z</time></trkpt><trkpt lat="44.9094004" lon="7.1938206"><ele>1043.8</ele><time>2026-04-26T10:39:43.746Z</time></trkpt><trkpt lat="44.909441" lon="7.1939605"><ele>1048.6000000000001</ele><time>2026-04-26T10:39:44.746Z</time></trkpt><trkpt lat="44.9094681" lon="7.1940979"><ele>1053.4</ele><time>2026-04-26T10:39:45.745Z</time></trkpt><trkpt lat="44.9094839" lon="7.1942319"><ele>1058.2</ele><time>2026-04-26T10:39:46.746Z</time></trkpt><trkpt lat="44.9094779" lon="7.1943531"><ele>1063.0</ele><time>2026-04-26T10:39:47.746Z</time></trkpt><trkpt lat="44.9094308" lon="7.1944582"><ele>1063.0</ele><time>2026-04-26T10:39:48.746Z</time></trkpt><trkpt lat="44.9093472" lon="7.1945204"><ele>1063.0</ele><time>2026-04-26T10:39:49.746Z</time></trkpt><trkpt lat="44.9092379" lon="7.1945759"><ele>1063.0</ele><time>2026-04-26T10:39:50.746Z</time></trkpt><trkpt lat="44.9091112" lon="7.1946469"><ele>1063.0</ele><time>2026-04-26T10:39:51.745Z</time></trkpt><trkpt lat="44.9089802" lon="7.1947405"><ele>1053.5</ele><time>2026-04-26T10:39:52.746Z</time></trkpt><trkpt lat="44.9088508" lon="7.1948303"><ele>1044.0</ele><time>2026-04-26T10:39:53.746Z</time></trkpt><trkpt lat="44.9087332" lon="7.1949338"><ele>1034.5</ele><time>2026-04-26T10:39:54.746Z</time></trkpt><trkpt lat="44.9086074" lon="7.195023"><ele>1025.0</ele><time>2026-04-26T10:39:55.746Z</time></trkpt><trkpt lat="44.908491" lon="7.1950951"><ele>1018.2</ele><time>2026-04-26T10:39:56.746Z</time></trkpt><trkpt lat="44.9083847" lon="7.1951587"><ele>1011.4</ele><time>2026-04-26T10:39:57.746Z</time></trkpt><trkpt lat="44.9082836" lon="7.1952286"><ele>1004.5999999999999</ele><time>2026-04-26T10:39:58.746Z</time></trkpt><trkpt lat="44.9082226" lon="7.1953381"><ele>997.8</ele><time>2026-04-26T10:39:59.746Z</time></trkpt><trkpt lat="44.908182" lon="7.1954809"><ele>991.0</ele><time>2026-04-26T10:40:00.746Z</time></trkpt><trkpt lat="44.9081703" lon="7.1956431"><ele>993.5</ele><time>2026-04-26T10:40:01.746Z</time></trkpt><trkpt lat="44.9081757" lon="7.1958116"><ele>996.0</ele><time>2026-04-26T10:40:02.746Z</time></trkpt><trkpt lat="44.9081735" lon="7.1959944"><ele>998.5</ele><time>2026-04-26T10:40:03.746Z</time></trkpt><trkpt lat="44.9081708" lon="7.1962007"><ele>1001.0</ele><time>2026-04-26T10:40:04.746Z</time></trkpt><trkpt lat="44.908172" lon="7.196403"><ele>1000.25</ele><time>2026-04-26T10:40:05.746Z</time></trkpt><trkpt lat="44.9081859" lon="7.1966035"><ele>999.5</ele><time>2026-04-26T10:40:06.746Z</time></trkpt><trkpt lat="44.9082112" lon="7.1968092"><ele>998.75</ele><time>2026-04-26T10:40:07.746Z</time></trkpt><trkpt lat="44.9082461" lon="7.1970262"><ele>998.0</ele><time>2026-04-26T10:40:08.746Z</time></trkpt><trkpt lat="44.9082873" lon="7.1972379"><ele>994.0</ele><time>2026-04-26T10:40:09.746Z</time></trkpt><trkpt lat="44.9083262" lon="7.1974492"><ele>990.0</ele><time>2026-04-26T10:40:10.746Z</time></trkpt><trkpt lat="44.908358" lon="7.1976574"><ele>986.0</ele><time>2026-04-26T10:40:11.746Z</time></trkpt><trkpt lat="44.9083746" lon="7.1978749"><ele>986.0</ele><time>2026-04-26T10:40:12.746Z</time></trkpt><trkpt lat="44.9083818" lon="7.1980865"><ele>986.0</ele><time>2026-04-26T10:40:13.746Z</time></trkpt><trkpt lat="44.9083946" lon="7.1982888"><ele>986.0</ele><time>2026-04-26T10:40:14.746Z</time></trkpt><trkpt lat="44.9084058" lon="7.1984515"><ele>986.0</ele><time>2026-04-26T10:40:15.746Z</time></trkpt><trkpt lat="44.9084098" lon="7.198597"><ele>984.4</ele><time>2026-04-26T10:40:16.746Z</time></trkpt><trkpt lat="44.9083998" lon="7.1987206"><ele>982.8</ele><time>2026-04-26T10:40:17.746Z</time></trkpt><trkpt lat="44.9083417" lon="7.1988217"><ele>981.1999999999999</ele><time>2026-04-26T10:40:18.746Z</time></trkpt><trkpt lat="44.9082667" lon="7.1988955"><ele>979.5999999999999</ele><time>2026-04-26T10:40:19.746Z</time></trkpt><trkpt lat="44.9081708" lon="7.1989273"><ele>978.0</ele><time>2026-04-26T10:40:20.746Z</time></trkpt><trkpt lat="44.9080502" lon="7.1989156"><ele>978.0</ele><time>2026-04-26T10:40:21.746Z</time></trkpt><trkpt lat="44.9079356" lon="7.1988914"><ele>978.0</ele><time>2026-04-26T10:40:22.746Z</time></trkpt><trkpt lat="44.9078261" lon="7.1988774"><ele>978.0</ele><time>2026-04-26T10:40:23.746Z</time></trkpt><trkpt lat="44.9077161" lon="7.1988846"><ele>978.0</ele><time>2026-04-26T10:40:24.746Z</time></trkpt><trkpt lat="44.9076049" lon="7.198915"><ele>978.0</ele><time>2026-04-26T10:40:25.746Z</time></trkpt><trkpt lat="44.9074799" lon="7.1989653"><ele>977.25</ele><time>2026-04-26T10:40:26.746Z</time></trkpt><trkpt lat="44.9073592" lon="7.1990091"><ele>976.5</ele><time>2026-04-26T10:40:27.746Z</time></trkpt><trkpt lat="44.9072454" lon="7.199054"><ele>975.75</ele><time>2026-04-26T10:40:28.746Z</time></trkpt><trkpt lat="44.9071461" lon="7.1991067"><ele>975.0</ele><time>2026-04-26T10:40:29.746Z</time></trkpt><trkpt lat="44.9070604" lon="7.1991896"><ele>975.0</ele><time>2026-04-26T10:40:30.746Z</time></trkpt><trkpt lat="44.9069941" lon="7.1992866"><ele>975.0</ele><time>2026-04-26T10:40:31.746Z</time></trkpt><trkpt lat="44.9069396" lon="7.1994155"><ele>975.0</ele><time>2026-04-26T10:40:32.746Z</time></trkpt><trkpt lat="44.9069077" lon="7.1995797"><ele>975.0</ele><time>2026-04-26T10:40:33.746Z</time></trkpt><trkpt lat="44.906877" lon="7.1997523"><ele>975.0</ele><time>2026-04-26T10:40:34.746Z</time></trkpt><trkpt lat="44.9068403" lon="7.1999249"><ele>982.0</ele><time>2026-04-26T10:40:35.746Z</time></trkpt><trkpt lat="44.9067834" lon="7.2000877"><ele>989.0</ele><time>2026-04-26T10:40:36.746Z</time></trkpt><trkpt lat="44.9067082" lon="7.200263"><ele>996.0</ele><time>2026-04-26T10:40:37.746Z</time></trkpt><trkpt lat="44.9066238" lon="7.2004458"><ele>1003.0</ele><time>2026-04-26T10:40:38.745Z</time></trkpt><trkpt lat="44.9065371" lon="7.200612"><ele>994.0</ele><time>2026-04-26T10:40:39.746Z</time></trkpt><trkpt lat="44.9064465" lon="7.200777"><ele>985.0</ele><time>2026-04-26T10:40:40.746Z</time></trkpt><trkpt lat="44.9063599" lon="7.2009304"><ele>976.0</ele><time>2026-04-26T10:40:41.746Z</time></trkpt><trkpt lat="44.9062813" lon="7.2010882"><ele>967.0</ele><time>2026-04-26T10:40:42.746Z</time></trkpt><trkpt lat="44.9062071" lon="7.2012532"><ele>967.0</ele><time>2026-04-26T10:40:43.746Z</time></trkpt><trkpt lat="44.9061283" lon="7.20141"><ele>967.0</ele><time>2026-04-26T10:40:44.746Z</time></trkpt><trkpt lat="44.9060642" lon="7.2015904"><ele>967.0</ele><time>2026-04-26T10:40:45.746Z</time></trkpt><trkpt lat="44.9059677" lon="7.2017632"><ele>967.0</ele><time>2026-04-26T10:40:46.746Z</time></trkpt><trkpt lat="44.905868" lon="7.2019479"><ele>960.6666666666666</ele><time>2026-04-26T10:40:47.745Z</time></trkpt><trkpt lat="44.9057567" lon="7.2021288"><ele>954.3333333333333</ele><time>2026-04-26T10:40:48.746Z</time></trkpt><trkpt lat="44.9056637" lon="7.2023163"><ele>948.0</ele><time>2026-04-26T10:40:49.746Z</time></trkpt><trkpt lat="44.9055727" lon="7.2024836"><ele>948.0</ele><time>2026-04-26T10:40:50.746Z</time></trkpt><trkpt lat="44.9054767" lon="7.2026377"><ele>948.0</ele><time>2026-04-26T10:40:51.746Z</time></trkpt><trkpt lat="44.9053797" lon="7.2027758"><ele>948.0</ele><time>2026-04-26T10:40:52.746Z</time></trkpt><trkpt lat="44.9052732" lon="7.2028828"><ele>948.0</ele><time>2026-04-26T10:40:53.746Z</time></trkpt><trkpt lat="44.9051738" lon="7.2029536"><ele>948.0</ele><time>2026-04-26T10:40:54.746Z</time></trkpt><trkpt lat="44.9050907" lon="7.2030348"><ele>948.0</ele><time>2026-04-26T10:40:55.746Z</time></trkpt><trkpt lat="44.9050276" lon="7.2031381"><ele>948.0</ele><time>2026-04-26T10:40:56.746Z</time></trkpt><trkpt lat="44.9049845" lon="7.2032655"><ele>948.0</ele><time>2026-04-26T10:40:57.746Z</time></trkpt><trkpt lat="44.9049699" lon="7.2034112"><ele>948.0</ele><time>2026-04-26T10:40:58.746Z</time></trkpt><trkpt lat="44.9049801" lon="7.2035624"><ele>949.0</ele><time>2026-04-26T10:40:59.746Z</time></trkpt><trkpt lat="44.9050269" lon="7.2037206"><ele>950.0</ele><time>2026-04-26T10:41:00.746Z</time></trkpt><trkpt lat="44.9050751" lon="7.2038762"><ele>951.0</ele><time>2026-04-26T10:41:01.746Z</time></trkpt><trkpt lat="44.9051293" lon="7.2040385"><ele>952.0</ele><time>2026-04-26T10:41:02.746Z</time></trkpt><trkpt lat="44.9051747" lon="7.2041738"><ele>952.0</ele><time>2026-04-26T10:41:03.746Z</time></trkpt><trkpt lat="44.9052335" lon="7.2042919"><ele>952.0</ele><time>2026-04-26T10:41:04.746Z</time></trkpt><trkpt lat="44.9053089" lon="7.2043948"><ele>952.0</ele><time>2026-04-26T10:41:05.746Z</time></trkpt><trkpt lat="44.9053981" lon="7.2044906"><ele>952.0</ele><time>2026-04-26T10:41:06.746Z</time></trkpt><trkpt lat="44.9055048" lon="7.2045762"><ele>952.0</ele><time>2026-04-26T10:41:07.746Z</time></trkpt><trkpt lat="44.9056011" lon="7.2046595"><ele>952.0</ele><time>2026-04-26T10:41:08.746Z</time></trkpt><trkpt lat="44.9056729" lon="7.2047595"><ele>952.0</ele><time>2026-04-26T10:41:09.746Z</time></trkpt><trkpt lat="44.9057429" lon="7.204844"><ele>952.0</ele><time>2026-04-26T10:41:10.746Z</time></trkpt><trkpt lat="44.9058041" lon="7.2049193"><ele>952.0</ele><time>2026-04-26T10:41:11.746Z</time></trkpt><trkpt lat="44.9058597" lon="7.2049772"><ele>952.0</ele><time>2026-04-26T10:41:12.746Z</time></trkpt><trkpt lat="44.9059133" lon="7.205119"><ele>952.0</ele><time>2026-04-26T10:41:14.746Z</time></trkpt><trkpt lat="44.9058402" lon="7.2051972"><ele>952.0</ele><time>2026-04-26T10:41:16.746Z</time></trkpt><trkpt lat="44.9057339" lon="7.2050797"><ele>952.0</ele><time>2026-04-26T10:41:18.746Z</time></trkpt><trkpt lat="44.9056903" lon="7.2049761"><ele>952.0</ele><time>2026-04-26T10:41:19.746Z</time></trkpt><trkpt lat="44.9056352" lon="7.2048861"><ele>952.0</ele><time>2026-04-26T10:41:20.746Z</time></trkpt><trkpt lat="44.9055625" lon="7.2048135"><ele>952.0</ele><time>2026-04-26T10:41:21.746Z</time></trkpt><trkpt lat="44.905485" lon="7.2047399"><ele>952.0</ele><time>2026-04-26T10:41:22.746Z</time></trkpt><trkpt lat="44.9053837" lon="7.2047091"><ele>952.0</ele><time>2026-04-26T10:41:23.746Z</time></trkpt><trkpt lat="44.9052927" lon="7.2046471"><ele>952.0</ele><time>2026-04-26T10:41:24.746Z</time></trkpt><trkpt lat="44.9051949" lon="7.204565"><ele>952.0</ele><time>2026-04-26T10:41:25.746Z</time></trkpt><trkpt lat="44.9050881" lon="7.2044555"><ele>942.5</ele><time>2026-04-26T10:41:26.746Z</time></trkpt><trkpt lat="44.9049881" lon="7.2042977"><ele>933.0</ele><time>2026-04-26T10:41:27.745Z</time></trkpt><trkpt lat="44.9048815" lon="7.2041515"><ele>923.5</ele><time>2026-04-26T10:41:28.746Z</time></trkpt><trkpt lat="44.9047699" lon="7.2040101"><ele>914.0</ele><time>2026-04-26T10:41:29.746Z</time></trkpt><trkpt lat="44.9046678" lon="7.2038781"><ele>914.0</ele><time>2026-04-26T10:41:30.745Z</time></trkpt><trkpt lat="44.9045807" lon="7.2037574"><ele>914.0</ele><time>2026-04-26T10:41:31.745Z</time></trkpt><trkpt lat="44.904509" lon="7.2036418"><ele>914.0</ele><time>2026-04-26T10:41:32.746Z</time></trkpt><trkpt lat="44.9044502" lon="7.2035158"><ele>914.0</ele><time>2026-04-26T10:41:33.746Z</time></trkpt><trkpt lat="44.9044159" lon="7.2033626"><ele>914.0</ele><time>2026-04-26T10:41:34.745Z</time></trkpt><trkpt lat="44.9044104" lon="7.2032131"><ele>914.0</ele><time>2026-04-26T10:41:35.746Z</time></trkpt><trkpt lat="44.9044335" lon="7.2030633"><ele>914.0</ele><time>2026-04-26T10:41:36.746Z</time></trkpt><trkpt lat="44.9044819" lon="7.2029194"><ele>914.0</ele><time>2026-04-26T10:41:37.745Z</time></trkpt><trkpt lat="44.9045541" lon="7.2027661"><ele>910.25</ele><time>2026-04-26T10:41:38.746Z</time></trkpt><trkpt lat="44.9046419" lon="7.2026178"><ele>906.5</ele><time>2026-04-26T10:41:39.746Z</time></trkpt><trkpt lat="44.9047404" lon="7.2024822"><ele>902.75</ele><time>2026-04-26T10:41:40.746Z</time></trkpt><trkpt lat="44.9048323" lon="7.2023313"><ele>899.0</ele><time>2026-04-26T10:41:41.745Z</time></trkpt><trkpt lat="44.9049119" lon="7.2021536"><ele>900.5</ele><time>2026-04-26T10:41:42.746Z</time></trkpt><trkpt lat="44.9049818" lon="7.2019845"><ele>902.0</ele><time>2026-04-26T10:41:43.746Z</time></trkpt><trkpt lat="44.9050469" lon="7.2018129"><ele>903.5</ele><time>2026-04-26T10:41:44.746Z</time></trkpt><trkpt lat="44.9050991" lon="7.2016299"><ele>905.0</ele><time>2026-04-26T10:41:45.746Z</time></trkpt><trkpt lat="44.9051335" lon="7.2014212"><ele>905.0</ele><time>2026-04-26T10:41:46.745Z</time></trkpt><trkpt lat="44.9051543" lon="7.2012002"><ele>905.0</ele><time>2026-04-26T10:41:47.746Z</time></trkpt><trkpt lat="44.9051708" lon="7.2009883"><ele>905.0</ele><time>2026-04-26T10:41:48.746Z</time></trkpt><trkpt lat="44.9051905" lon="7.2007813"><ele>900.5</ele><time>2026-04-26T10:41:49.746Z</time></trkpt><trkpt lat="44.9052049" lon="7.2005759"><ele>896.0</ele><time>2026-04-26T10:41:50.746Z</time></trkpt><trkpt lat="44.9052143" lon="7.2003992"><ele>891.5</ele><time>2026-04-26T10:41:51.746Z</time></trkpt><trkpt lat="44.9052314" lon="7.2002537"><ele>887.0</ele><time>2026-04-26T10:41:52.746Z</time></trkpt><trkpt lat="44.9052721" lon="7.2001245"><ele>887.0</ele><time>2026-04-26T10:41:53.746Z</time></trkpt><trkpt lat="44.9053364" lon="7.2000131"><ele>887.0</ele><time>2026-04-26T10:41:54.746Z</time></trkpt><trkpt lat="44.9054235" lon="7.1999176"><ele>887.0</ele><time>2026-04-26T10:41:55.746Z</time></trkpt><trkpt lat="44.9055164" lon="7.1998104"><ele>887.0</ele><time>2026-04-26T10:41:56.746Z</time></trkpt><trkpt lat="44.9055956" lon="7.1996946"><ele>887.0</ele><time>2026-04-26T10:41:57.746Z</time></trkpt><trkpt lat="44.9056601" lon="7.1995632"><ele>880.25</ele><time>2026-04-26T10:41:58.746Z</time></trkpt><trkpt lat="44.9057012" lon="7.1994039"><ele>873.5</ele><time>2026-04-26T10:41:59.746Z</time></trkpt><trkpt lat="44.9057104" lon="7.1992306"><ele>866.75</ele><time>2026-04-26T10:42:00.746Z</time></trkpt><trkpt lat="44.9057216" lon="7.1990697"><ele>860.0</ele><time>2026-04-26T10:42:01.746Z</time></trkpt><trkpt lat="44.9057484" lon="7.1989292"><ele>855.8</ele><time>2026-04-26T10:42:02.746Z</time></trkpt><trkpt lat="44.9057928" lon="7.1987981"><ele>851.6</ele><time>2026-04-26T10:42:03.746Z</time></trkpt><trkpt lat="44.9058571" lon="7.1986853"><ele>847.4000000000001</ele><time>2026-04-26T10:42:04.746Z</time></trkpt><trkpt lat="44.905944" lon="7.1985926"><ele>843.2</ele><time>2026-04-26T10:42:05.746Z</time></trkpt><trkpt lat="44.9060222" lon="7.1985034"><ele>839.0</ele><time>2026-04-26T10:42:06.746Z</time></trkpt><trkpt lat="44.906067" lon="7.1983853"><ele>850.25</ele><time>2026-04-26T10:42:07.746Z</time></trkpt><trkpt lat="44.9060861" lon="7.1982505"><ele>861.5</ele><time>2026-04-26T10:42:08.746Z</time></trkpt><trkpt lat="44.9060705" lon="7.1981094"><ele>872.75</ele><time>2026-04-26T10:42:09.746Z</time></trkpt><trkpt lat="44.9060253" lon="7.1979521"><ele>884.0</ele><time>2026-04-26T10:42:10.746Z</time></trkpt><trkpt lat="44.905967" lon="7.1977816"><ele>878.0</ele><time>2026-04-26T10:42:11.746Z</time></trkpt><trkpt lat="44.9059037" lon="7.1975986"><ele>872.0</ele><time>2026-04-26T10:42:12.746Z</time></trkpt><trkpt lat="44.9058374" lon="7.1974314"><ele>866.0</ele><time>2026-04-26T10:42:13.746Z</time></trkpt><trkpt lat="44.9057645" lon="7.1972758"><ele>860.0</ele><time>2026-04-26T10:42:14.746Z</time></trkpt><trkpt lat="44.9056923" lon="7.197121"><ele>860.0</ele><time>2026-04-26T10:42:15.746Z</time></trkpt><trkpt lat="44.9056236" lon="7.1969577"><ele>860.0</ele><time>2026-04-26T10:42:16.746Z</time></trkpt><trkpt lat="44.9055574" lon="7.1967995"><ele>860.0</ele><time>2026-04-26T10:42:17.746Z</time></trkpt><trkpt lat="44.9054956" lon="7.1966409"><ele>860.0</ele><time>2026-04-26T10:42:18.746Z</time></trkpt><trkpt lat="44.9054311" lon="7.1964765"><ele>866.75</ele><time>2026-04-26T10:42:19.746Z</time></trkpt><trkpt lat="44.9053705" lon="7.1963087"><ele>873.5</ele><time>2026-04-26T10:42:20.746Z</time></trkpt><trkpt lat="44.9053078" lon="7.1961329"><ele>880.25</ele><time>2026-04-26T10:42:21.746Z</time></trkpt><trkpt lat="44.9052519" lon="7.1959625"><ele>887.0</ele><time>2026-04-26T10:42:22.746Z</time></trkpt><trkpt lat="44.9052112" lon="7.1958122"><ele>887.0</ele><time>2026-04-26T10:42:23.746Z</time></trkpt><trkpt lat="44.9051879" lon="7.1956766"><ele>887.0</ele><time>2026-04-26T10:42:24.746Z</time></trkpt><trkpt lat="44.9051718" lon="7.195567"><ele>887.0</ele><time>2026-04-26T10:42:25.746Z</time></trkpt><trkpt lat="44.9051443" lon="7.1954792"><ele>887.0</ele><time>2026-04-26T10:42:26.746Z</time></trkpt><trkpt lat="44.9050437" lon="7.1954636"><ele>887.0</ele><time>2026-04-26T10:42:28.746Z</time></trkpt><trkpt lat="44.905025" lon="7.1956127"><ele>887.0</ele><time>2026-04-26T10:42:30.746Z</time></trkpt><trkpt lat="44.9050979" lon="7.1957541"><ele>887.0</ele><time>2026-04-26T10:42:31.746Z</time></trkpt><trkpt lat="44.9051392" lon="7.1959173"><ele>887.0</ele><time>2026-04-26T10:42:32.746Z</time></trkpt><trkpt lat="44.9051896" lon="7.1960687"><ele>887.0</ele><time>2026-04-26T10:42:33.746Z</time></trkpt><trkpt lat="44.9052362" lon="7.1962336"><ele>887.0</ele><time>2026-04-26T10:42:34.746Z</time></trkpt><trkpt lat="44.905278" lon="7.1964041"><ele>887.0</ele><time>2026-04-26T10:42:35.746Z</time></trkpt><trkpt lat="44.9053088" lon="7.1965812"><ele>887.0</ele><time>2026-04-26T10:42:36.746Z</time></trkpt><trkpt lat="44.9053355" lon="7.1967674"><ele>887.0</ele><time>2026-04-26T10:42:37.746Z</time></trkpt><trkpt lat="44.9053575" lon="7.1969632"><ele>880.25</ele><time>2026-04-26T10:42:38.746Z</time></trkpt><trkpt lat="44.9053782" lon="7.1971512"><ele>873.5</ele><time>2026-04-26T10:42:39.746Z</time></trkpt><trkpt lat="44.9053942" lon="7.1973342"><ele>866.75</ele><time>2026-04-26T10:42:40.746Z</time></trkpt><trkpt lat="44.9054073" lon="7.1975078"><ele>860.0</ele><time>2026-04-26T10:42:41.746Z</time></trkpt><trkpt lat="44.9054201" lon="7.1976816"><ele>856.0</ele><time>2026-04-26T10:42:42.746Z</time></trkpt><trkpt lat="44.9054345" lon="7.1978421"><ele>852.0</ele><time>2026-04-26T10:42:43.745Z</time></trkpt><trkpt lat="44.9054404" lon="7.198001"><ele>848.0</ele><time>2026-04-26T10:42:44.746Z</time></trkpt><trkpt lat="44.9054286" lon="7.198154"><ele>844.0</ele><time>2026-04-26T10:42:45.746Z</time></trkpt><trkpt lat="44.9053953" lon="7.198302"><ele>840.0</ele><time>2026-04-26T10:42:46.745Z</time></trkpt><trkpt lat="44.9053394" lon="7.1984393"><ele>839.75</ele><time>2026-04-26T10:42:47.746Z</time></trkpt><trkpt lat="44.9052654" lon="7.1985545"><ele>839.5</ele><time>2026-04-26T10:42:48.745Z</time></trkpt><trkpt lat="44.9051868" lon="7.1986783"><ele>839.25</ele><time>2026-04-26T10:42:49.746Z</time></trkpt><trkpt lat="44.9050758" lon="7.1988297"><ele>839.0</ele><time>2026-04-26T10:42:50.746Z</time></trkpt><trkpt lat="44.9049751" lon="7.1989621"><ele>832.75</ele><time>2026-04-26T10:42:51.746Z</time></trkpt><trkpt lat="44.9048846" lon="7.1990977"><ele>826.5</ele><time>2026-04-26T10:42:52.746Z</time></trkpt><trkpt lat="44.9047878" lon="7.1992318"><ele>820.25</ele><time>2026-04-26T10:42:53.746Z</time></trkpt><trkpt lat="44.9047092" lon="7.1993627"><ele>814.0</ele><time>2026-04-26T10:42:54.746Z</time></trkpt><trkpt lat="44.9046396" lon="7.1995134"><ele>814.0</ele><time>2026-04-26T10:42:55.746Z</time></trkpt><trkpt lat="44.9045678" lon="7.1996589"><ele>814.0</ele><time>2026-04-26T10:42:56.746Z</time></trkpt><trkpt lat="44.9044912" lon="7.1998225"><ele>814.0</ele><time>2026-04-26T10:42:57.746Z</time></trkpt><trkpt lat="44.9044051" lon="7.199944"><ele>814.0</ele><time>2026-04-26T10:42:58.746Z</time></trkpt><trkpt lat="44.9043211" lon="7.2000666"><ele>805.0</ele><time>2026-04-26T10:42:59.746Z</time></trkpt><trkpt lat="44.9042365" lon="7.2001763"><ele>796.0</ele><time>2026-04-26T10:43:00.746Z</time></trkpt><trkpt lat="44.9041713" lon="7.2003225"><ele>787.0</ele><time>2026-04-26T10:43:01.746Z</time></trkpt><trkpt lat="44.9040988" lon="7.2004678"><ele>778.0</ele><time>2026-04-26T10:43:02.746Z</time></trkpt><trkpt lat="44.9040746" lon="7.2006303"><ele>784.0</ele><time>2026-04-26T10:43:03.746Z</time></trkpt><trkpt lat="44.9040101" lon="7.2007751"><ele>790.0</ele><time>2026-04-26T10:43:04.746Z</time></trkpt><trkpt lat="44.9039197" lon="7.2008925"><ele>796.0</ele><time>2026-04-26T10:43:05.746Z</time></trkpt><trkpt lat="44.9038227" lon="7.2010178"><ele>802.0</ele><time>2026-04-26T10:43:06.746Z</time></trkpt><trkpt lat="44.9037218" lon="7.2011534"><ele>802.0</ele><time>2026-04-26T10:43:07.746Z</time></trkpt><trkpt lat="44.9036205" lon="7.2013307"><ele>802.0</ele><time>2026-04-26T10:43:08.746Z</time></trkpt><trkpt lat="44.9035207" lon="7.2014964"><ele>802.0</ele><time>2026-04-26T10:43:09.746Z</time></trkpt><trkpt lat="44.9034244" lon="7.2016529"><ele>795.5</ele><time>2026-04-26T10:43:10.746Z</time></trkpt><trkpt lat="44.9033293" lon="7.2018051"><ele>789.0</ele><time>2026-04-26T10:43:11.746Z</time></trkpt><trkpt lat="44.9032329" lon="7.2019391"><ele>782.5</ele><time>2026-04-26T10:43:12.746Z</time></trkpt><trkpt lat="44.9031277" lon="7.2020619"><ele>776.0</ele><time>2026-04-26T10:43:13.746Z</time></trkpt><trkpt lat="44.9030372" lon="7.2021724"><ele>776.0</ele><time>2026-04-26T10:43:14.746Z</time></trkpt><trkpt lat="44.902943" lon="7.2022792"><ele>776.0</ele><time>2026-04-26T10:43:15.746Z</time></trkpt><trkpt lat="44.9028638" lon="7.2023866"><ele>776.0</ele><time>2026-04-26T10:43:16.746Z</time></trkpt><trkpt lat="44.9027955" lon="7.2024904"><ele>776.0</ele><time>2026-04-26T10:43:17.746Z</time></trkpt><trkpt lat="44.9027412" lon="7.202606"><ele>776.0</ele><time>2026-04-26T10:43:18.745Z</time></trkpt><trkpt lat="44.9027014" lon="7.2027326"><ele>782.0</ele><time>2026-04-26T10:43:19.746Z</time></trkpt><trkpt lat="44.9026805" lon="7.2028624"><ele>788.0</ele><time>2026-04-26T10:43:20.746Z</time></trkpt><trkpt lat="44.9026825" lon="7.2030073"><ele>794.0</ele><time>2026-04-26T10:43:21.746Z</time></trkpt><trkpt lat="44.9027151" lon="7.2031851"><ele>800.0</ele><time>2026-04-26T10:43:22.746Z</time></trkpt><trkpt lat="44.9027162" lon="7.2033541"><ele>806.0</ele><time>2026-04-26T10:43:23.746Z</time></trkpt><trkpt lat="44.9027084" lon="7.2035248"><ele>807.0</ele><time>2026-04-26T10:43:24.746Z</time></trkpt><trkpt lat="44.9027067" lon="7.203698"><ele>808.0</ele><time>2026-04-26T10:43:25.746Z</time></trkpt><trkpt lat="44.9027143" lon="7.2038621"><ele>809.0</ele><time>2026-04-26T10:43:26.746Z</time></trkpt><trkpt lat="44.9027455" lon="7.2040253"><ele>810.0</ele><time>2026-04-26T10:43:27.746Z</time></trkpt><trkpt lat="44.9027843" lon="7.2041568"><ele>810.0</ele><time>2026-04-26T10:43:28.746Z</time></trkpt><trkpt lat="44.9028393" lon="7.2043026"><ele>810.0</ele><time>2026-04-26T10:43:29.746Z</time></trkpt><trkpt lat="44.9029147" lon="7.2044419"><ele>810.0</ele><time>2026-04-26T10:43:30.746Z</time></trkpt><trkpt lat="44.9030106" lon="7.2045806"><ele>810.0</ele><time>2026-04-26T10:43:31.746Z</time></trkpt><trkpt lat="44.9031035" lon="7.2047214"><ele>814.0</ele><time>2026-04-26T10:43:32.746Z</time></trkpt><trkpt lat="44.9032052" lon="7.2048296"><ele>818.0</ele><time>2026-04-26T10:43:33.746Z</time></trkpt><trkpt lat="44.9033142" lon="7.2049283"><ele>822.0</ele><time>2026-04-26T10:43:34.746Z</time></trkpt><trkpt lat="44.9034112" lon="7.2050205"><ele>826.0</ele><time>2026-04-26T10:43:35.746Z</time></trkpt><trkpt lat="44.9034905" lon="7.2051478"><ele>826.0</ele><time>2026-04-26T10:43:36.746Z</time></trkpt><trkpt lat="44.9035447" lon="7.2053028"><ele>826.0</ele><time>2026-04-26T10:43:37.746Z</time></trkpt><trkpt lat="44.9035837" lon="7.205477"><ele>826.0</ele><time>2026-04-26T10:43:38.746Z</time></trkpt><trkpt lat="44.9036184" lon="7.2056401"><ele>826.0</ele><time>2026-04-26T10:43:39.746Z</time></trkpt><trkpt lat="44.903649" lon="7.2057813"><ele>820.0</ele><time>2026-04-26T10:43:40.746Z</time></trkpt><trkpt lat="44.9036813" lon="7.2058992"><ele>814.0</ele><time>2026-04-26T10:43:41.746Z</time></trkpt><trkpt lat="44.9037222" lon="7.2060073"><ele>808.0</ele><time>2026-04-26T10:43:42.746Z</time></trkpt><trkpt lat="44.9037825" lon="7.206088"><ele>802.0</ele><time>2026-04-26T10:43:43.746Z</time></trkpt><trkpt lat="44.9038583" lon="7.2061667"><ele>796.0</ele><time>2026-04-26T10:43:44.746Z</time></trkpt><trkpt lat="44.9039253" lon="7.2062653"><ele>796.0</ele><time>2026-04-26T10:43:45.746Z</time></trkpt><trkpt lat="44.9039727" lon="7.206418"><ele>796.0</ele><time>2026-04-26T10:43:46.746Z</time></trkpt><trkpt lat="44.9039932" lon="7.2065897"><ele>796.0</ele><time>2026-04-26T10:43:47.746Z</time></trkpt><trkpt lat="44.9040343" lon="7.2067434"><ele>796.0</ele><time>2026-04-26T10:43:48.746Z</time></trkpt><trkpt lat="44.9040863" lon="7.2069067"><ele>796.5</ele><time>2026-04-26T10:43:49.746Z</time></trkpt><trkpt lat="44.9041385" lon="7.207059"><ele>797.0</ele><time>2026-04-26T10:43:50.746Z</time></trkpt><trkpt lat="44.9042035" lon="7.2072198"><ele>797.5</ele><time>2026-04-26T10:43:51.746Z</time></trkpt><trkpt lat="44.9042447" lon="7.207386"><ele>798.0</ele><time>2026-04-26T10:43:52.745Z</time></trkpt><trkpt lat="44.9042734" lon="7.2075593"><ele>798.0</ele><time>2026-04-26T10:43:53.746Z</time></trkpt><trkpt lat="44.9042939" lon="7.2077254"><ele>798.0</ele><time>2026-04-26T10:43:54.745Z</time></trkpt><trkpt lat="44.9043119" lon="7.2078863"><ele>798.0</ele><time>2026-04-26T10:43:55.746Z</time></trkpt><trkpt lat="44.9043319" lon="7.2080386"><ele>798.0</ele><time>2026-04-26T10:43:56.746Z</time></trkpt><trkpt lat="44.9043576" lon="7.2081866"><ele>789.25</ele><time>2026-04-26T10:43:57.746Z</time></trkpt><trkpt lat="44.9044024" lon="7.208339"><ele>780.5</ele><time>2026-04-26T10:43:58.746Z</time></trkpt><trkpt lat="44.9044662" lon="7.208482"><ele>771.75</ele><time>2026-04-26T10:43:59.746Z</time></trkpt><trkpt lat="44.9045611" lon="7.2086145"><ele>763.0</ele><time>2026-04-26T10:44:00.746Z</time></trkpt><trkpt lat="44.9046673" lon="7.2087233"><ele>763.0</ele><time>2026-04-26T10:44:01.746Z</time></trkpt><trkpt lat="44.904776" lon="7.2088271"><ele>763.0</ele><time>2026-04-26T10:44:02.746Z</time></trkpt><trkpt lat="44.9048827" lon="7.2089285"><ele>763.0</ele><time>2026-04-26T10:44:03.746Z</time></trkpt><trkpt lat="44.9049845" lon="7.2090171"><ele>763.0</ele><time>2026-04-26T10:44:04.746Z</time></trkpt><trkpt lat="44.9050909" lon="7.2090968"><ele>755.75</ele><time>2026-04-26T10:44:05.746Z</time></trkpt><trkpt lat="44.9052151" lon="7.2091518"><ele>748.5</ele><time>2026-04-26T10:44:06.745Z</time></trkpt><trkpt lat="44.9053501" lon="7.2091878"><ele>741.25</ele><time>2026-04-26T10:44:07.746Z</time></trkpt><trkpt lat="44.9054794" lon="7.2092535"><ele>734.0</ele><time>2026-04-26T10:44:08.745Z</time></trkpt><trkpt lat="44.9055949" lon="7.2093165"><ele>734.0</ele><time>2026-04-26T10:44:09.746Z</time></trkpt><trkpt lat="44.9057026" lon="7.2093604"><ele>734.0</ele><time>2026-04-26T10:44:10.746Z</time></trkpt><trkpt lat="44.9057897" lon="7.2093866"><ele>734.0</ele><time>2026-04-26T10:44:11.746Z</time></trkpt><trkpt lat="44.9058609" lon="7.2094112"><ele>734.0</ele><time>2026-04-26T10:44:12.746Z</time></trkpt><trkpt lat="44.9059245" lon="7.2095167"><ele>734.0</ele><time>2026-04-26T10:44:14.746Z</time></trkpt><trkpt lat="44.9058641" lon="7.2096063"><ele>734.0</ele><time>2026-04-26T10:44:16.746Z</time></trkpt><trkpt lat="44.9057328" lon="7.2095336"><ele>734.0</ele><time>2026-04-26T10:44:18.746Z</time></trkpt><trkpt lat="44.9056319" lon="7.2094766"><ele>734.0</ele><time>2026-04-26T10:44:19.746Z</time></trkpt><trkpt lat="44.9055056" lon="7.2094305"><ele>734.0</ele><time>2026-04-26T10:44:20.745Z</time></trkpt><trkpt lat="44.9053757" lon="7.2094226"><ele>734.0</ele><time>2026-04-26T10:44:21.746Z</time></trkpt><trkpt lat="44.9052485" lon="7.2094227"><ele>734.0</ele><time>2026-04-26T10:44:22.746Z</time></trkpt><trkpt lat="44.9051183" lon="7.2094058"><ele>734.0</ele><time>2026-04-26T10:44:23.746Z</time></trkpt><trkpt lat="44.9049841" lon="7.2093902"><ele>734.0</ele><time>2026-04-26T10:44:24.746Z</time></trkpt><trkpt lat="44.9048575" lon="7.209355"><ele>731.5</ele><time>2026-04-26T10:44:25.746Z</time></trkpt><trkpt lat="44.9047286" lon="7.2093099"><ele>729.0</ele><time>2026-04-26T10:44:26.746Z</time></trkpt><trkpt lat="44.9046062" lon="7.209261"><ele>726.5</ele><time>2026-04-26T10:44:27.746Z</time></trkpt><trkpt lat="44.9044859" lon="7.209222"><ele>724.0</ele><time>2026-04-26T10:44:28.746Z</time></trkpt><trkpt lat="44.904365" lon="7.2091892"><ele>724.0</ele><time>2026-04-26T10:44:29.746Z</time></trkpt><trkpt lat="44.9042533" lon="7.2091344"><ele>724.0</ele><time>2026-04-26T10:44:30.746Z</time></trkpt><trkpt lat="44.9041566" lon="7.2090446"><ele>724.0</ele><time>2026-04-26T10:44:31.745Z</time></trkpt><trkpt lat="44.9040831" lon="7.2089211"><ele>724.0</ele><time>2026-04-26T10:44:32.746Z</time></trkpt><trkpt lat="44.9040351" lon="7.2087672"><ele>722.5</ele><time>2026-04-26T10:44:33.746Z</time></trkpt><trkpt lat="44.9039975" lon="7.2085888"><ele>721.0</ele><time>2026-04-26T10:44:34.746Z</time></trkpt><trkpt lat="44.9039581" lon="7.2083886"><ele>719.5</ele><time>2026-04-26T10:44:35.746Z</time></trkpt><trkpt lat="44.9039182" lon="7.2082013"><ele>718.0</ele><time>2026-04-26T10:44:36.746Z</time></trkpt><trkpt lat="44.9038737" lon="7.2080151"><ele>723.75</ele><time>2026-04-26T10:44:37.746Z</time></trkpt><trkpt lat="44.9038215" lon="7.2078347"><ele>729.5</ele><time>2026-04-26T10:44:38.746Z</time></trkpt><trkpt lat="44.9037568" lon="7.2076585"><ele>735.25</ele><time>2026-04-26T10:44:39.746Z</time></trkpt><trkpt lat="44.9036762" lon="7.2074813"><ele>741.0</ele><time>2026-04-26T10:44:40.746Z</time></trkpt><trkpt lat="44.9035776" lon="7.2073156"><ele>749.3333333333334</ele><time>2026-04-26T10:44:41.746Z</time></trkpt><trkpt lat="44.9034739" lon="7.2071479"><ele>757.6666666666667</ele><time>2026-04-26T10:44:42.746Z</time></trkpt><trkpt lat="44.9033673" lon="7.2069861"><ele>766.0</ele><time>2026-04-26T10:44:43.746Z</time></trkpt><trkpt lat="44.9032594" lon="7.20683"><ele>759.75</ele><time>2026-04-26T10:44:44.746Z</time></trkpt><trkpt lat="44.9031516" lon="7.2066857"><ele>753.5</ele><time>2026-04-26T10:44:45.746Z</time></trkpt><trkpt lat="44.9030474" lon="7.2065386"><ele>747.25</ele><time>2026-04-26T10:44:46.746Z</time></trkpt><trkpt lat="44.9029433" lon="7.2063937"><ele>741.0</ele><time>2026-04-26T10:44:47.746Z</time></trkpt><trkpt lat="44.9028506" lon="7.2062747"><ele>741.0</ele><time>2026-04-26T10:44:48.746Z</time></trkpt><trkpt lat="44.9027595" lon="7.2061809"><ele>741.0</ele><time>2026-04-26T10:44:49.745Z</time></trkpt><trkpt lat="44.9026705" lon="7.2061006"><ele>741.0</ele><time>2026-04-26T10:44:50.745Z</time></trkpt><trkpt lat="44.902591" lon="7.2060424"><ele>741.0</ele><time>2026-04-26T10:44:51.746Z</time></trkpt><trkpt lat="44.9025085" lon="7.206015"><ele>741.0</ele><time>2026-04-26T10:44:52.746Z</time></trkpt><trkpt lat="44.9024337" lon="7.2060451"><ele>732.8333333333334</ele><time>2026-04-26T10:44:53.746Z</time></trkpt><trkpt lat="44.9023832" lon="7.2061131"><ele>724.6666666666666</ele><time>2026-04-26T10:44:54.746Z</time></trkpt><trkpt lat="44.9023644" lon="7.2062671"><ele>716.5</ele><time>2026-04-26T10:44:56.746Z</time></trkpt><trkpt lat="44.9023894" lon="7.2063571"><ele>708.3333333333333</ele><time>2026-04-26T10:44:58.746Z</time></trkpt><trkpt lat="44.9024327" lon="7.2064401"><ele>700.1666666666666</ele><time>2026-04-26T10:45:15.746Z</time></trkpt><trkpt lat="44.9024905" lon="7.2065236"><ele>692.0</ele><time>2026-04-26T10:45:17.746Z</time></trkpt><trkpt lat="44.9025459" lon="7.2066104"><ele>695.5</ele><time>2026-04-26T10:45:18.746Z</time></trkpt><trkpt lat="44.9026115" lon="7.2067297"><ele>699.0</ele><time>2026-04-26T10:45:19.745Z</time></trkpt><trkpt lat="44.9026771" lon="7.2068583"><ele>702.5</ele><time>2026-04-26T10:45:20.746Z</time></trkpt><trkpt lat="44.9027464" lon="7.207006"><ele>706.0</ele><time>2026-04-26T10:45:21.746Z</time></trkpt><trkpt lat="44.9028155" lon="7.2071796"><ele>698.6666666666667</ele><time>2026-04-26T10:45:22.746Z</time></trkpt><trkpt lat="44.9028694" lon="7.2073978"><ele>691.3333333333334</ele><time>2026-04-26T10:45:23.746Z</time></trkpt><trkpt lat="44.9028953" lon="7.2076478"><ele>684.0</ele><time>2026-04-26T10:45:24.746Z</time></trkpt><trkpt lat="44.9029148" lon="7.2079045"><ele>681.6666666666666</ele><time>2026-04-26T10:45:25.746Z</time></trkpt><trkpt lat="44.9029306" lon="7.2081902"><ele>679.3333333333333</ele><time>2026-04-26T10:45:26.746Z</time></trkpt><trkpt lat="44.9029429" lon="7.2084918"><ele>677.0</ele><time>2026-04-26T10:45:27.746Z</time></trkpt><trkpt lat="44.9029529" lon="7.2087815"><ele>673.0</ele><time>2026-04-26T10:45:28.746Z</time></trkpt><trkpt lat="44.9029678" lon="7.2090807"><ele>669.0</ele><time>2026-04-26T10:45:29.746Z</time></trkpt><trkpt lat="44.9029808" lon="7.2093687"><ele>665.0</ele><time>2026-04-26T10:45:30.746Z</time></trkpt><trkpt lat="44.902995" lon="7.2096447"><ele>661.6666666666666</ele><time>2026-04-26T10:45:31.746Z</time></trkpt><trkpt lat="44.9030048" lon="7.2098965"><ele>658.3333333333334</ele><time>2026-04-26T10:45:32.746Z</time></trkpt><trkpt lat="44.903013" lon="7.2101264"><ele>655.0</ele><time>2026-04-26T10:45:33.746Z</time></trkpt><trkpt lat="44.9030234" lon="7.2103468"><ele>655.0</ele><time>2026-04-26T10:45:34.746Z</time></trkpt><trkpt lat="44.9030297" lon="7.210559"><ele>655.0</ele><time>2026-04-26T10:45:35.746Z</time></trkpt><trkpt lat="44.9030448" lon="7.2107553"><ele>655.0</ele><time>2026-04-26T10:45:36.746Z</time></trkpt><trkpt lat="44.9030533" lon="7.2109532"><ele>655.0</ele><time>2026-04-26T10:45:37.746Z</time></trkpt><trkpt lat="44.903062" lon="7.2111427"><ele>654.25</ele><time>2026-04-26T10:45:38.746Z</time></trkpt><trkpt lat="44.9030702" lon="7.211331"><ele>653.5</ele><time>2026-04-26T10:45:39.746Z</time></trkpt><trkpt lat="44.9030768" lon="7.2115223"><ele>652.75</ele><time>2026-04-26T10:45:40.746Z</time></trkpt><trkpt lat="44.9030835" lon="7.211713"><ele>652.0</ele><time>2026-04-26T10:45:41.746Z</time></trkpt><trkpt lat="44.9030929" lon="7.2119103"><ele>651.75</ele><time>2026-04-26T10:45:42.746Z</time></trkpt><trkpt lat="44.9031019" lon="7.2121103"><ele>651.5</ele><time>2026-04-26T10:45:43.746Z</time></trkpt><trkpt lat="44.9031054" lon="7.2123097"><ele>651.25</ele><time>2026-04-26T10:45:44.746Z</time></trkpt><trkpt lat="44.9031136" lon="7.2125198"><ele>651.0</ele><time>2026-04-26T10:45:45.746Z</time></trkpt><trkpt lat="44.9031161" lon="7.2127262"><ele>651.0</ele><time>2026-04-26T10:45:46.746Z</time></trkpt><trkpt lat="44.903107" lon="7.2129504"><ele>651.0</ele><time>2026-04-26T10:45:47.746Z</time></trkpt><trkpt lat="44.9030909" lon="7.2131718"><ele>651.0</ele><time>2026-04-26T10:45:48.746Z</time></trkpt><trkpt lat="44.9030552" lon="7.2134126"><ele>651.6666666666666</ele><time>2026-04-26T10:45:49.746Z</time></trkpt><trkpt lat="44.9030094" lon="7.2136475"><ele>652.3333333333333</ele><time>2026-04-26T10:45:50.746Z</time></trkpt><trkpt lat="44.9029542" lon="7.2138712"><ele>653.0</ele><time>2026-04-26T10:45:51.746Z</time></trkpt><trkpt lat="44.9029037" lon="7.2140883"><ele>654.6666666666666</ele><time>2026-04-26T10:45:52.746Z</time></trkpt><trkpt lat="44.9028509" lon="7.2143004"><ele>656.3333333333334</ele><time>2026-04-26T10:45:53.746Z</time></trkpt><trkpt lat="44.9028066" lon="7.2145311"><ele>658.0</ele><time>2026-04-26T10:45:54.746Z</time></trkpt><trkpt lat="44.9027704" lon="7.2147723"><ele>659.3333333333334</ele><time>2026-04-26T10:45:55.746Z</time></trkpt><trkpt lat="44.9027361" lon="7.2150188"><ele>660.6666666666666</ele><time>2026-04-26T10:45:56.746Z</time></trkpt><trkpt lat="44.902708" lon="7.2152458"><ele>662.0</ele><time>2026-04-26T10:45:57.745Z</time></trkpt><trkpt lat="44.9026852" lon="7.2154588"><ele>662.0</ele><time>2026-04-26T10:45:58.746Z</time></trkpt><trkpt lat="44.90266" lon="7.2156751"><ele>662.0</ele><time>2026-04-26T10:45:59.745Z</time></trkpt><trkpt lat="44.9026447" lon="7.2158898"><ele>662.0</ele><time>2026-04-26T10:46:00.746Z</time></trkpt><trkpt lat="44.9026498" lon="7.2160976"><ele>662.0</ele><time>2026-04-26T10:46:01.746Z</time></trkpt><trkpt lat="44.9026666" lon="7.2163101"><ele>662.0</ele><time>2026-04-26T10:46:02.746Z</time></trkpt><trkpt lat="44.9027032" lon="7.2165333"><ele>662.0</ele><time>2026-04-26T10:46:03.746Z</time></trkpt><trkpt lat="44.9027361" lon="7.2167492"><ele>662.0</ele><time>2026-04-26T10:46:04.746Z</time></trkpt><trkpt lat="44.9027443" lon="7.2169555"><ele>662.0</ele><time>2026-04-26T10:46:05.746Z</time></trkpt><trkpt lat="44.9027332" lon="7.2171778"><ele>662.0</ele><time>2026-04-26T10:46:06.746Z</time></trkpt><trkpt lat="44.9027115" lon="7.2174068"><ele>660.6666666666666</ele><time>2026-04-26T10:46:07.745Z</time></trkpt><trkpt lat="44.9026857" lon="7.2176372"><ele>659.3333333333334</ele><time>2026-04-26T10:46:08.746Z</time></trkpt><trkpt lat="44.9026578" lon="7.2178582"><ele>658.0</ele><time>2026-04-26T10:46:09.746Z</time></trkpt><trkpt lat="44.9026285" lon="7.2180825"><ele>657.3333333333334</ele><time>2026-04-26T10:46:10.746Z</time></trkpt><trkpt lat="44.9025965" lon="7.2183206"><ele>656.6666666666666</ele><time>2026-04-26T10:46:11.746Z</time></trkpt><trkpt lat="44.9025603" lon="7.2185521"><ele>656.0</ele><time>2026-04-26T10:46:12.746Z</time></trkpt><trkpt lat="44.9025187" lon="7.218798"><ele>642.3333333333333</ele><time>2026-04-26T10:46:13.746Z</time></trkpt><trkpt lat="44.9024657" lon="7.2190507"><ele>628.6666666666666</ele><time>2026-04-26T10:46:14.746Z</time></trkpt><trkpt lat="44.9024085" lon="7.2192863"><ele>615.0</ele><time>2026-04-26T10:46:15.746Z</time></trkpt><trkpt lat="44.9023421" lon="7.2195079"><ele>615.0</ele><time>2026-04-26T10:46:16.746Z</time></trkpt><trkpt lat="44.902264" lon="7.2197086"><ele>615.0</ele><time>2026-04-26T10:46:17.746Z</time></trkpt><trkpt lat="44.9021761" lon="7.2198893"><ele>615.0</ele><time>2026-04-26T10:46:18.746Z</time></trkpt><trkpt lat="44.9020783" lon="7.220074"><ele>617.6666666666666</ele><time>2026-04-26T10:46:19.746Z</time></trkpt><trkpt lat="44.9019595" lon="7.2202604"><ele>620.3333333333333</ele><time>2026-04-26T10:46:20.746Z</time></trkpt><trkpt lat="44.9018429" lon="7.2204331"><ele>623.0</ele><time>2026-04-26T10:46:21.746Z</time></trkpt><trkpt lat="44.9017334" lon="7.2206306"><ele>616.6666666666666</ele><time>2026-04-26T10:46:22.746Z</time></trkpt><trkpt lat="44.9016299" lon="7.2208387"><ele>610.3333333333334</ele><time>2026-04-26T10:46:23.745Z</time></trkpt><trkpt lat="44.9015453" lon="7.2210428"><ele>604.0</ele><time>2026-04-26T10:46:24.745Z</time></trkpt><trkpt lat="44.9014701" lon="7.2212363"><ele>604.0</ele><time>2026-04-26T10:46:25.746Z</time></trkpt><trkpt lat="44.9014149" lon="7.2214329"><ele>604.0</ele><time>2026-04-26T10:46:26.746Z</time></trkpt><trkpt lat="44.901375" lon="7.2216269"><ele>604.0</ele><time>2026-04-26T10:46:27.746Z</time></trkpt><trkpt lat="44.9013484" lon="7.221827"><ele>604.0</ele><time>2026-04-26T10:46:28.746Z</time></trkpt><trkpt lat="44.9013412" lon="7.2220324"><ele>604.5</ele><time>2026-04-26T10:46:29.746Z</time></trkpt><trkpt lat="44.901343" lon="7.2222428"><ele>605.0</ele><time>2026-04-26T10:46:30.746Z</time></trkpt><trkpt lat="44.901349" lon="7.2224256"><ele>605.5</ele><time>2026-04-26T10:46:31.746Z</time></trkpt><trkpt lat="44.9013536" lon="7.2225878"><ele>606.0</ele><time>2026-04-26T10:46:32.746Z</time></trkpt><trkpt lat="44.9013579" lon="7.2227262"><ele>605.8</ele><time>2026-04-26T10:46:33.746Z</time></trkpt><trkpt lat="44.9013669" lon="7.2228646"><ele>605.6</ele><time>2026-04-26T10:46:34.745Z</time></trkpt><trkpt lat="44.9013885" lon="7.2230011"><ele>605.4</ele><time>2026-04-26T10:46:35.746Z</time></trkpt><trkpt lat="44.9014257" lon="7.2231372"><ele>605.2</ele><time>2026-04-26T10:46:36.746Z</time></trkpt><trkpt lat="44.9014721" lon="7.2232753"><ele>605.0</ele><time>2026-04-26T10:46:37.746Z</time></trkpt><trkpt lat="44.9015262" lon="7.2234163"><ele>605.0</ele><time>2026-04-26T10:46:38.746Z</time></trkpt><trkpt lat="44.9015819" lon="7.2235566"><ele>605.0</ele><time>2026-04-26T10:46:39.746Z</time></trkpt><trkpt lat="44.9016299" lon="7.2236966"><ele>605.0</ele><time>2026-04-26T10:46:40.746Z</time></trkpt><trkpt lat="44.9016624" lon="7.2238423"><ele>605.0</ele><time>2026-04-26T10:46:41.746Z</time></trkpt><trkpt lat="44.9016784" lon="7.2240093"><ele>602.75</ele><time>2026-04-26T10:46:42.746Z</time></trkpt><trkpt lat="44.9016858" lon="7.224194"><ele>600.5</ele><time>2026-04-26T10:46:43.746Z</time></trkpt><trkpt lat="44.9016972" lon="7.2243924"><ele>598.25</ele><time>2026-04-26T10:46:44.746Z</time></trkpt><trkpt lat="44.9017007" lon="7.2246116"><ele>596.0</ele><time>2026-04-26T10:46:45.746Z</time></trkpt><trkpt lat="44.9017069" lon="7.2248113"><ele>595.5</ele><time>2026-04-26T10:46:46.746Z</time></trkpt><trkpt lat="44.9017092" lon="7.2249989"><ele>595.0</ele><time>2026-04-26T10:46:47.746Z</time></trkpt><trkpt lat="44.9017082" lon="7.2251786"><ele>594.5</ele><time>2026-04-26T10:46:48.746Z</time></trkpt><trkpt lat="44.9016889" lon="7.2253471"><ele>594.0</ele><time>2026-04-26T10:46:49.746Z</time></trkpt><trkpt lat="44.9016565" lon="7.2255193"><ele>593.0</ele><time>2026-04-26T10:46:50.746Z</time></trkpt><trkpt lat="44.9016218" lon="7.2256757"><ele>592.0</ele><time>2026-04-26T10:46:51.746Z</time></trkpt><trkpt lat="44.9016034" lon="7.2258342"><ele>591.0</ele><time>2026-04-26T10:46:52.746Z</time></trkpt><trkpt lat="44.9016233" lon="7.2260023"><ele>590.0</ele><time>2026-04-26T10:46:53.746Z</time></trkpt><trkpt lat="44.9016781" lon="7.2261808"><ele>590.0</ele><time>2026-04-26T10:46:54.746Z</time></trkpt><trkpt lat="44.9017398" lon="7.2263768"><ele>590.0</ele><time>2026-04-26T10:46:55.746Z</time></trkpt><trkpt lat="44.9018017" lon="7.226593"><ele>590.0</ele><time>2026-04-26T10:46:56.746Z</time></trkpt><trkpt lat="44.9018477" lon="7.2267979"><ele>598.0</ele><time>2026-04-26T10:46:57.746Z</time></trkpt><trkpt lat="44.9018861" lon="7.2269988"><ele>606.0</ele><time>2026-04-26T10:46:58.746Z</time></trkpt><trkpt lat="44.9019179" lon="7.2271887"><ele>614.0</ele><time>2026-04-26T10:46:59.746Z</time></trkpt><trkpt lat="44.9019455" lon="7.2273667"><ele>622.0</ele><time>2026-04-26T10:47:00.746Z</time></trkpt><trkpt lat="44.9019676" lon="7.2275302"><ele>622.5</ele><time>2026-04-26T10:47:01.746Z</time></trkpt><trkpt lat="44.901984" lon="7.2276981"><ele>623.0</ele><time>2026-04-26T10:47:02.746Z</time></trkpt><trkpt lat="44.901995" lon="7.2278608"><ele>623.5</ele><time>2026-04-26T10:47:03.746Z</time></trkpt><trkpt lat="44.9019963" lon="7.2280291"><ele>624.0</ele><time>2026-04-26T10:47:04.746Z</time></trkpt><trkpt lat="44.9019939" lon="7.2282059"><ele>624.5</ele><time>2026-04-26T10:47:05.746Z</time></trkpt><trkpt lat="44.9019825" lon="7.2283812"><ele>625.0</ele><time>2026-04-26T10:47:06.746Z</time></trkpt><trkpt lat="44.9019699" lon="7.2285509"><ele>625.5</ele><time>2026-04-26T10:47:07.746Z</time></trkpt><trkpt lat="44.9019515" lon="7.228714"><ele>626.0</ele><time>2026-04-26T10:47:08.746Z</time></trkpt><trkpt lat="44.901938" lon="7.2288717"><ele>623.6</ele><time>2026-04-26T10:47:09.746Z</time></trkpt><trkpt lat="44.901929" lon="7.229021"><ele>621.2</ele><time>2026-04-26T10:47:10.746Z</time></trkpt><trkpt lat="44.9019411" lon="7.229158"><ele>618.8</ele><time>2026-04-26T10:47:11.746Z</time></trkpt><trkpt lat="44.9019831" lon="7.2292847"><ele>616.4</ele><time>2026-04-26T10:47:12.746Z</time></trkpt><trkpt lat="44.9020567" lon="7.2293832"><ele>614.0</ele><time>2026-04-26T10:47:13.746Z</time></trkpt><trkpt lat="44.9021449" lon="7.22945"><ele>614.0</ele><time>2026-04-26T10:47:14.746Z</time></trkpt><trkpt lat="44.9022215" lon="7.229515"><ele>614.0</ele><time>2026-04-26T10:47:15.746Z</time></trkpt><trkpt lat="44.9022697" lon="7.2296053"><ele>614.0</ele><time>2026-04-26T10:47:16.746Z</time></trkpt><trkpt lat="44.9022848" lon="7.2297175"><ele>614.0</ele><time>2026-04-26T10:47:17.746Z</time></trkpt><trkpt lat="44.9022599" lon="7.2298302"><ele>614.0</ele><time>2026-04-26T10:47:18.746Z</time></trkpt><trkpt lat="44.9021968" lon="7.2299162"><ele>614.0</ele><time>2026-04-26T10:47:19.746Z</time></trkpt><trkpt lat="44.902125" lon="7.2299829"><ele>612.0</ele><time>2026-04-26T10:47:20.746Z</time></trkpt><trkpt lat="44.9020546" lon="7.2300672"><ele>610.0</ele><time>2026-04-26T10:47:21.746Z</time></trkpt><trkpt lat="44.9020275" lon="7.2302177"><ele>608.0</ele><time>2026-04-26T10:47:22.745Z</time></trkpt><trkpt lat="44.9020214" lon="7.23038"><ele>606.0</ele><time>2026-04-26T10:47:23.746Z</time></trkpt><trkpt lat="44.9020305" lon="7.2305793"><ele>605.25</ele><time>2026-04-26T10:47:24.746Z</time></trkpt><trkpt lat="44.9020456" lon="7.2307773"><ele>604.5</ele><time>2026-04-26T10:47:25.746Z</time></trkpt><trkpt lat="44.9020617" lon="7.2309608"><ele>603.75</ele><time>2026-04-26T10:47:26.746Z</time></trkpt><trkpt lat="44.9020643" lon="7.2311297"><ele>603.0</ele><time>2026-04-26T10:47:27.746Z</time></trkpt><trkpt lat="44.90204" lon="7.2312752"><ele>603.0</ele><time>2026-04-26T10:47:28.746Z</time></trkpt><trkpt lat="44.9019919" lon="7.2314102"><ele>603.0</ele><time>2026-04-26T10:47:29.746Z</time></trkpt><trkpt lat="44.9019159" lon="7.2315132"><ele>603.0</ele><time>2026-04-26T10:47:30.746Z</time></trkpt><trkpt lat="44.9018291" lon="7.2315724"><ele>603.0</ele><time>2026-04-26T10:47:31.746Z</time></trkpt><trkpt lat="44.9017621" lon="7.2316401"><ele>603.0</ele><time>2026-04-26T10:47:32.746Z</time></trkpt><trkpt lat="44.9017099" lon="7.2317444"><ele>595.0</ele><time>2026-04-26T10:47:33.746Z</time></trkpt><trkpt lat="44.9016838" lon="7.2318967"><ele>587.0</ele><time>2026-04-26T10:47:34.746Z</time></trkpt><trkpt lat="44.901678" lon="7.2320832"><ele>579.0</ele><time>2026-04-26T10:47:35.746Z</time></trkpt><trkpt lat="44.9016587" lon="7.2322636"><ele>571.0</ele><time>2026-04-26T10:47:36.746Z</time></trkpt><trkpt lat="44.9016207" lon="7.2324237"><ele>571.0</ele><time>2026-04-26T10:47:37.746Z</time></trkpt><trkpt lat="44.9015658" lon="7.2325912"><ele>571.0</ele><time>2026-04-26T10:47:38.746Z</time></trkpt><trkpt lat="44.9015091" lon="7.2327461"><ele>571.0</ele><time>2026-04-26T10:47:39.746Z</time></trkpt><trkpt lat="44.9014595" lon="7.2328943"><ele>571.0</ele><time>2026-04-26T10:47:40.746Z</time></trkpt><trkpt lat="44.9014284" lon="7.2330439"><ele>570.75</ele><time>2026-04-26T10:47:41.746Z</time></trkpt><trkpt lat="44.9014231" lon="7.2331914"><ele>570.5</ele><time>2026-04-26T10:47:42.746Z</time></trkpt><trkpt lat="44.9014421" lon="7.2333498"><ele>570.25</ele><time>2026-04-26T10:47:43.746Z</time></trkpt><trkpt lat="44.9014928" lon="7.2335267"><ele>570.0</ele><time>2026-04-26T10:47:44.746Z</time></trkpt><trkpt lat="44.9015598" lon="7.2337365"><ele>570.0</ele><time>2026-04-26T10:47:45.746Z</time></trkpt><trkpt lat="44.9016223" lon="7.2339492"><ele>570.0</ele><time>2026-04-26T10:47:46.746Z</time></trkpt><trkpt lat="44.9016847" lon="7.234157"><ele>570.0</ele><time>2026-04-26T10:47:47.746Z</time></trkpt><trkpt lat="44.9017471" lon="7.2343594"><ele>567.3333333333334</ele><time>2026-04-26T10:47:48.746Z</time></trkpt><trkpt lat="44.901814" lon="7.2345592"><ele>564.6666666666667</ele><time>2026-04-26T10:47:49.746Z</time></trkpt><trkpt lat="44.9018852" lon="7.2347553"><ele>562.0</ele><time>2026-04-26T10:47:50.746Z</time></trkpt><trkpt lat="44.90196" lon="7.2349441"><ele>562.0</ele><time>2026-04-26T10:47:51.746Z</time></trkpt><trkpt lat="44.9020297" lon="7.2351298"><ele>562.0</ele><time>2026-04-26T10:47:52.746Z</time></trkpt><trkpt lat="44.9021019" lon="7.2353094"><ele>562.0</ele><time>2026-04-26T10:47:53.746Z</time></trkpt><trkpt lat="44.9021725" lon="7.2354875"><ele>562.0</ele><time>2026-04-26T10:47:54.746Z</time></trkpt><trkpt lat="44.9022451" lon="7.2356679"><ele>559.25</ele><time>2026-04-26T10:47:55.746Z</time></trkpt><trkpt lat="44.9023204" lon="7.2358457"><ele>556.5</ele><time>2026-04-26T10:47:56.746Z</time></trkpt><trkpt lat="44.9023904" lon="7.2360173"><ele>553.75</ele><time>2026-04-26T10:47:57.746Z</time></trkpt><trkpt lat="44.9024581" lon="7.2361832"><ele>551.0</ele><time>2026-04-26T10:47:58.746Z</time></trkpt><trkpt lat="44.9025301" lon="7.2363435"><ele>551.25</ele><time>2026-04-26T10:47:59.746Z</time></trkpt><trkpt lat="44.9026172" lon="7.2364971"><ele>551.5</ele><time>2026-04-26T10:48:00.746Z</time></trkpt><trkpt lat="44.9027167" lon="7.2366453"><ele>551.75</ele><time>2026-04-26T10:48:01.746Z</time></trkpt><trkpt lat="44.9028194" lon="7.2368031"><ele>552.0</ele><time>2026-04-26T10:48:02.746Z</time></trkpt><trkpt lat="44.9029316" lon="7.2369652"><ele>552.0</ele><time>2026-04-26T10:48:03.746Z</time></trkpt><trkpt lat="44.9030435" lon="7.2371234"><ele>552.0</ele><time>2026-04-26T10:48:04.746Z</time></trkpt><trkpt lat="44.9031526" lon="7.2372811"><ele>552.0</ele><time>2026-04-26T10:48:05.746Z</time></trkpt><trkpt lat="44.9032628" lon="7.2374342"><ele>549.25</ele><time>2026-04-26T10:48:06.746Z</time></trkpt><trkpt lat="44.9033622" lon="7.2375823"><ele>546.5</ele><time>2026-04-26T10:48:07.746Z</time></trkpt><trkpt lat="44.903463" lon="7.237726"><ele>543.75</ele><time>2026-04-26T10:48:08.746Z</time></trkpt><trkpt lat="44.9035665" lon="7.2378594"><ele>541.0</ele><time>2026-04-26T10:48:09.746Z</time></trkpt><trkpt lat="44.9036755" lon="7.237974"><ele>541.0</ele><time>2026-04-26T10:48:10.746Z</time></trkpt><trkpt lat="44.9037957" lon="7.2380841"><ele>541.0</ele><time>2026-04-26T10:48:11.746Z</time></trkpt><trkpt lat="44.9039327" lon="7.2381746"><ele>541.0</ele><time>2026-04-26T10:48:12.746Z</time></trkpt><trkpt lat="44.9040804" lon="7.2382403"><ele>541.0</ele><time>2026-04-26T10:48:13.746Z</time></trkpt><trkpt lat="44.9042338" lon="7.2382917"><ele>537.0</ele><time>2026-04-26T10:48:14.746Z</time></trkpt><trkpt lat="44.9043816" lon="7.2383412"><ele>533.0</ele><time>2026-04-26T10:48:15.746Z</time></trkpt><trkpt lat="44.9045274" lon="7.2383906"><ele>529.0</ele><time>2026-04-26T10:48:16.746Z</time></trkpt><trkpt lat="44.9046655" lon="7.2384431"><ele>525.0</ele><time>2026-04-26T10:48:17.746Z</time></trkpt><trkpt lat="44.9047987" lon="7.2384849"><ele>525.0</ele><time>2026-04-26T10:48:18.746Z</time></trkpt><trkpt lat="44.9049173" lon="7.2385228"><ele>525.0</ele><time>2026-04-26T10:48:19.746Z</time></trkpt><trkpt lat="44.9050225" lon="7.2385569"><ele>525.0</ele><time>2026-04-26T10:48:20.746Z</time></trkpt><trkpt lat="44.9051081" lon="7.2385877"><ele>525.0</ele><time>2026-04-26T10:48:21.746Z</time></trkpt><trkpt lat="44.9051811" lon="7.2386307"><ele>525.0</ele><time>2026-04-26T10:48:22.746Z</time></trkpt><trkpt lat="44.9052362" lon="7.2386994"><ele>525.0</ele><time>2026-04-26T10:48:23.746Z</time></trkpt><trkpt lat="44.9052656" lon="7.2387936"><ele>525.0</ele><time>2026-04-26T10:48:24.746Z</time></trkpt><trkpt lat="44.9052622" lon="7.2388955"><ele>525.0</ele><time>2026-04-26T10:48:25.746Z</time></trkpt><trkpt lat="44.905228" lon="7.2389765"><ele>525.0</ele><time>2026-04-26T10:48:26.746Z</time></trkpt><trkpt lat="44.9051677" lon="7.2390166"><ele>525.0</ele><time>2026-04-26T10:48:27.746Z</time></trkpt><trkpt lat="44.9050939" lon="7.2390166"><ele>525.0</ele><time>2026-04-26T10:48:28.746Z</time></trkpt><trkpt lat="44.9050112" lon="7.2389857"><ele>525.0</ele><time>2026-04-26T10:48:29.746Z</time></trkpt><trkpt lat="44.9049259" lon="7.2389545"><ele>525.0</ele><time>2026-04-26T10:48:30.746Z</time></trkpt><trkpt lat="44.9048444" lon="7.2389341"><ele>525.0</ele><time>2026-04-26T10:48:31.746Z</time></trkpt><trkpt lat="44.9047557" lon="7.2389183"><ele>525.0</ele><time>2026-04-26T10:48:32.746Z</time></trkpt><trkpt lat="44.9046587" lon="7.2389048"><ele>525.0</ele><time>2026-04-26T10:48:33.746Z</time></trkpt><trkpt lat="44.9045495" lon="7.2388896"><ele>525.0</ele><time>2026-04-26T10:48:34.746Z</time></trkpt><trkpt lat="44.904434" lon="7.238872"><ele>525.0</ele><time>2026-04-26T10:48:35.746Z</time></trkpt><trkpt lat="44.9043144" lon="7.2388662"><ele>525.0</ele><time>2026-04-26T10:48:36.746Z</time></trkpt><trkpt lat="44.9041985" lon="7.2388725"><ele>525.0</ele><time>2026-04-26T10:48:37.745Z</time></trkpt><trkpt lat="44.9040819" lon="7.2388802"><ele>525.0</ele><time>2026-04-26T10:48:38.746Z</time></trkpt><trkpt lat="44.9039553" lon="7.2388907"><ele>524.0</ele><time>2026-04-26T10:48:39.746Z</time></trkpt><trkpt lat="44.9038233" lon="7.2389038"><ele>523.0</ele><time>2026-04-26T10:48:40.746Z</time></trkpt><trkpt lat="44.9036855" lon="7.2389163"><ele>522.0</ele><time>2026-04-26T10:48:41.746Z</time></trkpt><trkpt lat="44.9035471" lon="7.2389318"><ele>521.0</ele><time>2026-04-26T10:48:42.746Z</time></trkpt><trkpt lat="44.9034154" lon="7.2389483"><ele>520.25</ele><time>2026-04-26T10:48:43.746Z</time></trkpt><trkpt lat="44.9032835" lon="7.2389622"><ele>519.5</ele><time>2026-04-26T10:48:44.746Z</time></trkpt><trkpt lat="44.9031524" lon="7.2389806"><ele>518.75</ele><time>2026-04-26T10:48:45.746Z</time></trkpt><trkpt lat="44.903029" lon="7.2390003"><ele>518.0</ele><time>2026-04-26T10:48:46.746Z</time></trkpt><trkpt lat="44.9029089" lon="7.2390144"><ele>517.25</ele><time>2026-04-26T10:48:47.746Z</time></trkpt><trkpt lat="44.9027839" lon="7.2390136"><ele>516.5</ele><time>2026-04-26T10:48:48.746Z</time></trkpt><trkpt lat="44.9026644" lon="7.2389926"><ele>515.75</ele><time>2026-04-26T10:48:49.746Z</time></trkpt><trkpt lat="44.9025506" lon="7.2389544"><ele>515.0</ele><time>2026-04-26T10:48:50.746Z</time></trkpt><trkpt lat="44.9024384" lon="7.2389262"><ele>515.0</ele><time>2026-04-26T10:48:51.746Z</time></trkpt><trkpt lat="44.902323" lon="7.2388887"><ele>515.0</ele><time>2026-04-26T10:48:52.746Z</time></trkpt><trkpt lat="44.9022029" lon="7.2388432"><ele>515.0</ele><time>2026-04-26T10:48:53.746Z</time></trkpt><trkpt lat="44.9020816" lon="7.2387941"><ele>515.0</ele><time>2026-04-26T10:48:54.746Z</time></trkpt><trkpt lat="44.9019431" lon="7.2387893"><ele>515.0</ele><time>2026-04-26T10:48:55.746Z</time></trkpt><trkpt lat="44.9018212" lon="7.2387787"><ele>515.0</ele><time>2026-04-26T10:48:56.746Z</time></trkpt><trkpt lat="44.9016943" lon="7.2387956"><ele>515.0</ele><time>2026-04-26T10:48:57.745Z</time></trkpt><trkpt lat="44.9015601" lon="7.2388294"><ele>515.0</ele><time>2026-04-26T10:48:58.746Z</time></trkpt><trkpt lat="44.9014265" lon="7.238866"><ele>515.25</ele><time>2026-04-26T10:48:59.746Z</time></trkpt><trkpt lat="44.901299" lon="7.2388981"><ele>515.5</ele><time>2026-04-26T10:49:00.746Z</time></trkpt><trkpt lat="44.90118" lon="7.2389362"><ele>515.75</ele><time>2026-04-26T10:49:01.746Z</time></trkpt><trkpt lat="44.9010587" lon="7.2389692"><ele>516.0</ele><time>2026-04-26T10:49:02.746Z</time></trkpt><trkpt lat="44.9009453" lon="7.238999"><ele>512.4</ele><time>2026-04-26T10:49:03.746Z</time></trkpt><trkpt lat="44.9008404" lon="7.2390219"><ele>508.8</ele><time>2026-04-26T10:49:04.746Z</time></trkpt><trkpt lat="44.9007366" lon="7.239041"><ele>505.19999999999993</ele><time>2026-04-26T10:49:05.745Z</time></trkpt><trkpt lat="44.9006342" lon="7.2390709"><ele>501.59999999999997</ele><time>2026-04-26T10:49:06.746Z</time></trkpt><trkpt lat="44.9005303" lon="7.2390936"><ele>498.0</ele><time>2026-04-26T10:49:07.745Z</time></trkpt><trkpt lat="44.9004296" lon="7.2391105"><ele>498.0</ele><time>2026-04-26T10:49:08.746Z</time></trkpt><trkpt lat="44.9003307" lon="7.2391224"><ele>497.99999999999994</ele><time>2026-04-26T10:49:09.746Z</time></trkpt><trkpt lat="44.9002319" lon="7.23914"><ele>497.99999999999994</ele><time>2026-04-26T10:49:10.746Z</time></trkpt><trkpt lat="44.9001447" lon="7.2391441"><ele>498.0</ele><time>2026-04-26T10:49:11.746Z</time></trkpt><trkpt lat="44.9000547" lon="7.2391565"><ele>498.0</ele><time>2026-04-26T10:49:12.746Z</time></trkpt><trkpt lat="44.8999769" lon="7.2391884"><ele>497.0</ele><time>2026-04-26T10:49:13.746Z</time></trkpt><trkpt lat="44.8999115" lon="7.2392231"><ele>495.99999999999994</ele><time>2026-04-26T10:49:14.746Z</time></trkpt><trkpt lat="44.8998473" lon="7.2392392"><ele>494.99999999999994</ele><time>2026-04-26T10:49:15.746Z</time></trkpt><trkpt lat="44.8997229" lon="7.2392313"><ele>494.0</ele><time>2026-04-26T10:49:17.746Z</time></trkpt><trkpt lat="44.8996136" lon="7.2392084"><ele>493.0</ele><time>2026-04-26T10:49:19.746Z</time></trkpt><trkpt lat="44.899516" lon="7.2391945"><ele>493.0</ele><time>2026-04-26T10:49:21.746Z</time></trkpt><trkpt lat="44.8994304" lon="7.2391766"><ele>492.99999999999994</ele><time>2026-04-26T10:49:23.746Z</time></trkpt><trkpt lat="44.8993399" lon="7.2391607"><ele>492.99999999999994</ele><time>2026-04-26T10:49:25.746Z</time></trkpt><trkpt lat="44.8992407" lon="7.2391852"><ele>493.0</ele><time>2026-04-26T10:49:27.746Z</time></trkpt><trkpt lat="44.8991192" lon="7.2392457"><ele>493.0</ele><time>2026-04-26T10:49:29.746Z</time></trkpt><trkpt lat="44.8989868" lon="7.2393136"><ele>492.59999999999997</ele><time>2026-04-26T10:49:31.745Z</time></trkpt><trkpt lat="44.8988982" lon="7.2393933"><ele>492.19999999999993</ele><time>2026-04-26T10:49:32.746Z</time></trkpt><trkpt lat="44.8988" lon="7.2394479"><ele>491.8</ele><time>2026-04-26T10:49:33.746Z</time></trkpt><trkpt lat="44.8987092" lon="7.2394851"><ele>491.4</ele><time>2026-04-26T10:49:34.746Z</time></trkpt><trkpt lat="44.8986193" lon="7.2395202"><ele>491.0</ele><time>2026-04-26T10:49:35.746Z</time></trkpt><trkpt lat="44.8985391" lon="7.2395397"><ele>490.99999999999994</ele><time>2026-04-26T10:49:36.746Z</time></trkpt><trkpt lat="44.8984575" lon="7.2395537"><ele>491.0</ele><time>2026-04-26T10:49:37.745Z</time></trkpt><trkpt lat="44.8983743" lon="7.2395625"><ele>491.0</ele><time>2026-04-26T10:49:38.746Z</time></trkpt><trkpt lat="44.898289" lon="7.2395632"><ele>491.0</ele><time>2026-04-26T10:49:39.746Z</time></trkpt><trkpt lat="44.8982084" lon="7.2395977"><ele>490.99999999999994</ele><time>2026-04-26T10:49:40.745Z</time></trkpt><trkpt lat="44.898142" lon="7.2396739"><ele>491.0</ele><time>2026-04-26T10:49:41.746Z</time></trkpt><trkpt lat="44.8980787" lon="7.2397842"><ele>489.6</ele><time>2026-04-26T10:49:42.746Z</time></trkpt><trkpt lat="44.8980178" lon="7.2399069"><ele>488.20000000000005</ele><time>2026-04-26T10:49:43.746Z</time></trkpt><trkpt lat="44.8979609" lon="7.2400346"><ele>486.79999999999995</ele><time>2026-04-26T10:49:44.746Z</time></trkpt><trkpt lat="44.8979057" lon="7.2401605"><ele>485.4</ele><time>2026-04-26T10:49:45.746Z</time></trkpt><trkpt lat="44.8978561" lon="7.2402878"><ele>484.0</ele><time>2026-04-26T10:49:46.745Z</time></trkpt><trkpt lat="44.8978035" lon="7.2404136"><ele>484.0</ele><time>2026-04-26T10:49:47.746Z</time></trkpt><trkpt lat="44.8977527" lon="7.240552"><ele>484.0</ele><time>2026-04-26T10:49:48.746Z</time></trkpt><trkpt lat="44.8977091" lon="7.2406872"><ele>484.0</ele><time>2026-04-26T10:49:49.746Z</time></trkpt><trkpt lat="44.8976753" lon="7.2408347"><ele>484.0</ele><time>2026-04-26T10:49:50.746Z</time></trkpt><trkpt lat="44.8976482" lon="7.240991"><ele>484.0</ele><time>2026-04-26T10:49:51.746Z</time></trkpt><trkpt lat="44.897629" lon="7.2411541"><ele>483.79999999999995</ele><time>2026-04-26T10:49:52.746Z</time></trkpt><trkpt lat="44.8976129" lon="7.2413172"><ele>483.59999999999997</ele><time>2026-04-26T10:49:53.746Z</time></trkpt><trkpt lat="44.8975986" lon="7.2414739"><ele>483.4</ele><time>2026-04-26T10:49:54.746Z</time></trkpt><trkpt lat="44.8975877" lon="7.2416258"><ele>483.2</ele><time>2026-04-26T10:49:55.746Z</time></trkpt><trkpt lat="44.8975771" lon="7.2417787"><ele>483.0</ele><time>2026-04-26T10:49:56.746Z</time></trkpt><trkpt lat="44.8975526" lon="7.2419298"><ele>480.4</ele><time>2026-04-26T10:49:57.745Z</time></trkpt><trkpt lat="44.8975477" lon="7.2420737"><ele>477.79999999999995</ele><time>2026-04-26T10:49:58.746Z</time></trkpt><trkpt lat="44.8975385" lon="7.2422242"><ele>475.2</ele><time>2026-04-26T10:49:59.746Z</time></trkpt><trkpt lat="44.8975254" lon="7.2423738"><ele>472.6</ele><time>2026-04-26T10:50:00.746Z</time></trkpt><trkpt lat="44.8975142" lon="7.2425108"><ele>470.0</ele><time>2026-04-26T10:50:01.746Z</time></trkpt><trkpt lat="44.8974922" lon="7.2426372"><ele>469.6</ele><time>2026-04-26T10:50:02.746Z</time></trkpt><trkpt lat="44.8974556" lon="7.2427619"><ele>469.2</ele><time>2026-04-26T10:50:03.746Z</time></trkpt><trkpt lat="44.8974024" lon="7.2428791"><ele>468.79999999999995</ele><time>2026-04-26T10:50:04.745Z</time></trkpt><trkpt lat="44.8973494" lon="7.2430086"><ele>468.4</ele><time>2026-04-26T10:50:05.746Z</time></trkpt><trkpt lat="44.897288" lon="7.2431372"><ele>468.0</ele><time>2026-04-26T10:50:06.746Z</time></trkpt><trkpt lat="44.8972246" lon="7.2432784"><ele>466.75</ele><time>2026-04-26T10:50:07.745Z</time></trkpt><trkpt lat="44.897155" lon="7.2434248"><ele>465.5</ele><time>2026-04-26T10:50:08.745Z</time></trkpt><trkpt lat="44.8970849" lon="7.2435711"><ele>464.25</ele><time>2026-04-26T10:50:09.746Z</time></trkpt><trkpt lat="44.8970142" lon="7.243727"><ele>463.0</ele><time>2026-04-26T10:50:10.746Z</time></trkpt><trkpt lat="44.8969462" lon="7.2438728"><ele>462.5</ele><time>2026-04-26T10:50:11.745Z</time></trkpt><trkpt lat="44.896883" lon="7.2440123"><ele>462.0</ele><time>2026-04-26T10:50:12.746Z</time></trkpt><trkpt lat="44.896823" lon="7.2441562"><ele>461.5</ele><time>2026-04-26T10:50:13.746Z</time></trkpt><trkpt lat="44.8967711" lon="7.2442968"><ele>461.0</ele><time>2026-04-26T10:50:14.746Z</time></trkpt><trkpt lat="44.8967324" lon="7.2444321"><ele>460.99999999999994</ele><time>2026-04-26T10:50:15.746Z</time></trkpt><trkpt lat="44.8966919" lon="7.2445533"><ele>461.0</ele><time>2026-04-26T10:50:16.745Z</time></trkpt><trkpt lat="44.8966605" lon="7.2446618"><ele>461.0</ele><time>2026-04-26T10:50:17.746Z</time></trkpt><trkpt lat="44.8966261" lon="7.2447448"><ele>461.0</ele><time>2026-04-26T10:50:18.746Z</time></trkpt><trkpt lat="44.8965723" lon="7.244809"><ele>460.99999999999994</ele><time>2026-04-26T10:50:19.746Z</time></trkpt><trkpt lat="44.8964966" lon="7.2448371"><ele>461.0</ele><time>2026-04-26T10:50:20.746Z</time></trkpt><trkpt lat="44.8964057" lon="7.244821"><ele>461.0</ele><time>2026-04-26T10:50:21.745Z</time></trkpt><trkpt lat="44.8962939" lon="7.2447778"><ele>461.0</ele><time>2026-04-26T10:50:22.746Z</time></trkpt><trkpt lat="44.8961537" lon="7.2447334"><ele>461.0</ele><time>2026-04-26T10:50:23.746Z</time></trkpt><trkpt lat="44.8959918" lon="7.2446893"><ele>461.0</ele><time>2026-04-26T10:50:24.746Z</time></trkpt><trkpt lat="44.8958279" lon="7.2446482"><ele>460.66666666666663</ele><time>2026-04-26T10:50:25.746Z</time></trkpt><trkpt lat="44.8956397" lon="7.2446053"><ele>460.33333333333337</ele><time>2026-04-26T10:50:26.746Z</time></trkpt><trkpt lat="44.8954322" lon="7.2445645"><ele>460.0</ele><time>2026-04-26T10:50:27.746Z</time></trkpt><trkpt lat="44.8952168" lon="7.2445172"><ele>460.5</ele><time>2026-04-26T10:50:28.746Z</time></trkpt><trkpt lat="44.8949981" lon="7.2444806"><ele>461.0</ele><time>2026-04-26T10:50:29.746Z</time></trkpt><trkpt lat="44.8947692" lon="7.2444388"><ele>461.0</ele><time>2026-04-26T10:50:30.746Z</time></trkpt><trkpt lat="44.8945582" lon="7.2443963"><ele>461.0</ele><time>2026-04-26T10:50:31.746Z</time></trkpt><trkpt lat="44.8943538" lon="7.2443595"><ele>461.0</ele><time>2026-04-26T10:50:32.746Z</time></trkpt><trkpt lat="44.8941605" lon="7.2443269"><ele>461.66666666666663</ele><time>2026-04-26T10:50:33.746Z</time></trkpt><trkpt lat="44.8939773" lon="7.244292"><ele>462.33333333333337</ele><time>2026-04-26T10:50:34.746Z</time></trkpt><trkpt lat="44.8938058" lon="7.2442561"><ele>463.0</ele><time>2026-04-26T10:50:35.746Z</time></trkpt><trkpt lat="44.8936341" lon="7.2442296"><ele>463.0</ele><time>2026-04-26T10:50:36.746Z</time></trkpt><trkpt lat="44.8934667" lon="7.2441981"><ele>463.0</ele><time>2026-04-26T10:50:37.746Z</time></trkpt><trkpt lat="44.8933025" lon="7.2441688"><ele>463.0</ele><time>2026-04-26T10:50:38.746Z</time></trkpt><trkpt lat="44.8931397" lon="7.2441643"><ele>462.5</ele><time>2026-04-26T10:50:39.746Z</time></trkpt><trkpt lat="44.8929845" lon="7.2441771"><ele>462.0</ele><time>2026-04-26T10:50:40.746Z</time></trkpt><trkpt lat="44.8928441" lon="7.2441931"><ele>461.5</ele><time>2026-04-26T10:50:41.746Z</time></trkpt><trkpt lat="44.8927155" lon="7.2442111"><ele>461.0</ele><time>2026-04-26T10:50:42.746Z</time></trkpt><trkpt lat="44.892592" lon="7.2442335"><ele>459.8</ele><time>2026-04-26T10:50:43.746Z</time></trkpt><trkpt lat="44.8924831" lon="7.2442454"><ele>458.6</ele><time>2026-04-26T10:50:44.746Z</time></trkpt><trkpt lat="44.8923755" lon="7.2442567"><ele>457.4</ele><time>2026-04-26T10:50:45.746Z</time></trkpt><trkpt lat="44.892266" lon="7.2442557"><ele>456.2</ele><time>2026-04-26T10:50:46.746Z</time></trkpt><trkpt lat="44.8921518" lon="7.2442454"><ele>455.0</ele><time>2026-04-26T10:50:47.746Z</time></trkpt><trkpt lat="44.8920487" lon="7.2442614"><ele>455.0</ele><time>2026-04-26T10:50:48.746Z</time></trkpt><trkpt lat="44.8919608" lon="7.2443221"><ele>455.0</ele><time>2026-04-26T10:50:49.746Z</time></trkpt><trkpt lat="44.8918994" lon="7.24442"><ele>455.0</ele><time>2026-04-26T10:50:50.746Z</time></trkpt><trkpt lat="44.8918713" lon="7.2445435"><ele>455.0</ele><time>2026-04-26T10:50:51.746Z</time></trkpt><trkpt lat="44.8918818" lon="7.2446789"><ele>455.0</ele><time>2026-04-26T10:50:52.745Z</time></trkpt><trkpt lat="44.8919016" lon="7.2448172"><ele>455.0</ele><time>2026-04-26T10:50:53.746Z</time></trkpt><trkpt lat="44.8918943" lon="7.2449572"><ele>455.0</ele><time>2026-04-26T10:50:54.746Z</time></trkpt><trkpt lat="44.8918519" lon="7.2450796"><ele>455.0</ele><time>2026-04-26T10:50:55.746Z</time></trkpt><trkpt lat="44.8917767" lon="7.2451895"><ele>455.0</ele><time>2026-04-26T10:50:56.746Z</time></trkpt><trkpt lat="44.8916885" lon="7.2453066"><ele>455.0</ele><time>2026-04-26T10:50:57.746Z</time></trkpt><trkpt lat="44.8915999" lon="7.2454383"><ele>455.0</ele><time>2026-04-26T10:50:58.746Z</time></trkpt><trkpt lat="44.891506" lon="7.2455822"><ele>455.0</ele><time>2026-04-26T10:50:59.746Z</time></trkpt><trkpt lat="44.891413" lon="7.2457401"><ele>455.0</ele><time>2026-04-26T10:51:00.746Z</time></trkpt><trkpt lat="44.8913208" lon="7.2459108"><ele>455.0</ele><time>2026-04-26T10:51:01.746Z</time></trkpt><trkpt lat="44.8912339" lon="7.2460791"><ele>454.5</ele><time>2026-04-26T10:51:02.746Z</time></trkpt><trkpt lat="44.8911491" lon="7.2462329"><ele>454.0</ele><time>2026-04-26T10:51:03.746Z</time></trkpt><trkpt lat="44.891068" lon="7.2463913"><ele>453.5</ele><time>2026-04-26T10:51:04.746Z</time></trkpt><trkpt lat="44.890988" lon="7.2465577"><ele>453.0</ele><time>2026-04-26T10:51:05.746Z</time></trkpt><trkpt lat="44.8909085" lon="7.246724"><ele>452.75</ele><time>2026-04-26T10:51:06.746Z</time></trkpt><trkpt lat="44.8908356" lon="7.2469031"><ele>452.5</ele><time>2026-04-26T10:51:07.746Z</time></trkpt><trkpt lat="44.8907707" lon="7.2470926"><ele>452.25</ele><time>2026-04-26T10:51:08.746Z</time></trkpt><trkpt lat="44.8907077" lon="7.2472788"><ele>452.0</ele><time>2026-04-26T10:51:09.746Z</time></trkpt><trkpt lat="44.890655" lon="7.2474609"><ele>452.0</ele><time>2026-04-26T10:51:10.746Z</time></trkpt><trkpt lat="44.8906116" lon="7.247642"><ele>452.0</ele><time>2026-04-26T10:51:11.746Z</time></trkpt><trkpt lat="44.8905812" lon="7.2478293"><ele>452.0</ele><time>2026-04-26T10:51:12.746Z</time></trkpt><trkpt lat="44.8905607" lon="7.2480184"><ele>452.0</ele><time>2026-04-26T10:51:13.746Z</time></trkpt><trkpt lat="44.8905529" lon="7.2482138"><ele>452.0</ele><time>2026-04-26T10:51:14.746Z</time></trkpt><trkpt lat="44.8905501" lon="7.2484112"><ele>452.0</ele><time>2026-04-26T10:51:15.746Z</time></trkpt><trkpt lat="44.8905557" lon="7.2486091"><ele>452.0</ele><time>2026-04-26T10:51:16.746Z</time></trkpt><trkpt lat="44.8905638" lon="7.2488112"><ele>452.0</ele><time>2026-04-26T10:51:17.746Z</time></trkpt><trkpt lat="44.8905859" lon="7.2490126"><ele>452.0</ele><time>2026-04-26T10:51:18.746Z</time></trkpt><trkpt lat="44.8906077" lon="7.2492178"><ele>452.0</ele><time>2026-04-26T10:51:19.746Z</time></trkpt><trkpt lat="44.8906315" lon="7.2494282"><ele>452.0</ele><time>2026-04-26T10:51:20.746Z</time></trkpt><trkpt lat="44.8906565" lon="7.2496396"><ele>452.75</ele><time>2026-04-26T10:51:21.746Z</time></trkpt><trkpt lat="44.8906793" lon="7.2498519"><ele>453.5</ele><time>2026-04-26T10:51:22.746Z</time></trkpt><trkpt lat="44.8907046" lon="7.2500577"><ele>454.25</ele><time>2026-04-26T10:51:23.746Z</time></trkpt><trkpt lat="44.8907274" lon="7.2502585"><ele>455.0</ele><time>2026-04-26T10:51:24.746Z</time></trkpt><trkpt lat="44.8907501" lon="7.250455"><ele>454.75</ele><time>2026-04-26T10:51:25.746Z</time></trkpt><trkpt lat="44.8907706" lon="7.2506478"><ele>454.5</ele><time>2026-04-26T10:51:26.746Z</time></trkpt><trkpt lat="44.8907921" lon="7.2508358"><ele>454.25</ele><time>2026-04-26T10:51:27.746Z</time></trkpt><trkpt lat="44.8908162" lon="7.2510237"><ele>454.0</ele><time>2026-04-26T10:51:28.746Z</time></trkpt><trkpt lat="44.8908415" lon="7.2512184"><ele>454.0</ele><time>2026-04-26T10:51:29.746Z</time></trkpt><trkpt lat="44.8908672" lon="7.251419"><ele>454.0</ele><time>2026-04-26T10:51:30.746Z</time></trkpt><trkpt lat="44.890892" lon="7.2516286"><ele>454.0</ele><time>2026-04-26T10:51:31.746Z</time></trkpt><trkpt lat="44.8909168" lon="7.2518429"><ele>454.0</ele><time>2026-04-26T10:51:32.746Z</time></trkpt><trkpt lat="44.8909422" lon="7.2520557"><ele>466.6666666666667</ele><time>2026-04-26T10:51:33.746Z</time></trkpt><trkpt lat="44.8909665" lon="7.2522696"><ele>479.33333333333337</ele><time>2026-04-26T10:51:34.746Z</time></trkpt><trkpt lat="44.890988" lon="7.2524836"><ele>492.0</ele><time>2026-04-26T10:51:35.746Z</time></trkpt><trkpt lat="44.891003" lon="7.2527029"><ele>492.0</ele><time>2026-04-26T10:51:36.746Z</time></trkpt><trkpt lat="44.891015" lon="7.2529208"><ele>492.0</ele><time>2026-04-26T10:51:37.746Z</time></trkpt><trkpt lat="44.8910251" lon="7.2531381"><ele>492.0</ele><time>2026-04-26T10:51:38.746Z</time></trkpt><trkpt lat="44.8910344" lon="7.2533641"><ele>489.0</ele><time>2026-04-26T10:51:39.746Z</time></trkpt><trkpt lat="44.8910452" lon="7.2535888"><ele>486.0</ele><time>2026-04-26T10:51:40.746Z</time></trkpt><trkpt lat="44.8910552" lon="7.2538181"><ele>483.0</ele><time>2026-04-26T10:51:41.746Z</time></trkpt><trkpt lat="44.8910692" lon="7.2540357"><ele>483.0</ele><time>2026-04-26T10:51:42.745Z</time></trkpt><trkpt lat="44.8910785" lon="7.2542448"><ele>483.0</ele><time>2026-04-26T10:51:43.746Z</time></trkpt><trkpt lat="44.8910826" lon="7.254442"><ele>483.0</ele><time>2026-04-26T10:51:44.746Z</time></trkpt><trkpt lat="44.8910868" lon="7.2546356"><ele>483.0</ele><time>2026-04-26T10:51:45.746Z</time></trkpt><trkpt lat="44.8910905" lon="7.2548298"><ele>483.0</ele><time>2026-04-26T10:51:46.746Z</time></trkpt><trkpt lat="44.8910932" lon="7.2550352"><ele>483.0</ele><time>2026-04-26T10:51:47.746Z</time></trkpt><trkpt lat="44.89109" lon="7.255248"><ele>483.0</ele><time>2026-04-26T10:51:48.746Z</time></trkpt><trkpt lat="44.8910731" lon="7.2554643"><ele>485.33333333333337</ele><time>2026-04-26T10:51:49.746Z</time></trkpt><trkpt lat="44.8910422" lon="7.2556814"><ele>487.6666666666667</ele><time>2026-04-26T10:51:50.746Z</time></trkpt><trkpt lat="44.8910093" lon="7.2559033"><ele>490.0</ele><time>2026-04-26T10:51:51.746Z</time></trkpt><trkpt lat="44.890979" lon="7.2561426"><ele>490.0</ele><time>2026-04-26T10:51:52.746Z</time></trkpt><trkpt lat="44.8909484" lon="7.2563919"><ele>490.0</ele><time>2026-04-26T10:51:53.746Z</time></trkpt><trkpt lat="44.8909177" lon="7.2566446"><ele>490.0</ele><time>2026-04-26T10:51:54.746Z</time></trkpt><trkpt lat="44.8908832" lon="7.2569176"><ele>475.33333333333337</ele><time>2026-04-26T10:51:55.746Z</time></trkpt><trkpt lat="44.8908515" lon="7.2572128"><ele>460.66666666666663</ele><time>2026-04-26T10:51:56.746Z</time></trkpt><trkpt lat="44.890812" lon="7.2575243"><ele>446.0</ele><time>2026-04-26T10:51:57.746Z</time></trkpt><trkpt lat="44.8907661" lon="7.2578482"><ele>445.66666666666663</ele><time>2026-04-26T10:51:58.746Z</time></trkpt><trkpt lat="44.8907116" lon="7.2581473"><ele>445.33333333333337</ele><time>2026-04-26T10:51:59.746Z</time></trkpt><trkpt lat="44.8906664" lon="7.2584316"><ele>445.0</ele><time>2026-04-26T10:52:00.746Z</time></trkpt><trkpt lat="44.8906317" lon="7.2586907"><ele>445.0</ele><time>2026-04-26T10:52:01.746Z</time></trkpt><trkpt lat="44.8905856" lon="7.2589349"><ele>445.0</ele><time>2026-04-26T10:52:02.746Z</time></trkpt><trkpt lat="44.8905284" lon="7.259166"><ele>445.0</ele><time>2026-04-26T10:52:03.746Z</time></trkpt><trkpt lat="44.8904506" lon="7.2593789"><ele>446.0</ele><time>2026-04-26T10:52:04.746Z</time></trkpt><trkpt lat="44.8903636" lon="7.2595748"><ele>447.0</ele><time>2026-04-26T10:52:05.746Z</time></trkpt><trkpt lat="44.8902815" lon="7.2597617"><ele>448.0</ele><time>2026-04-26T10:52:06.746Z</time></trkpt><trkpt lat="44.8902018" lon="7.259942"><ele>447.5</ele><time>2026-04-26T10:52:07.746Z</time></trkpt><trkpt lat="44.8901244" lon="7.260111"><ele>447.0</ele><time>2026-04-26T10:52:08.746Z</time></trkpt><trkpt lat="44.8900434" lon="7.260286"><ele>446.5</ele><time>2026-04-26T10:52:09.746Z</time></trkpt><trkpt lat="44.8899593" lon="7.2604698"><ele>446.0</ele><time>2026-04-26T10:52:10.746Z</time></trkpt><trkpt lat="44.8898733" lon="7.2606576"><ele>446.0</ele><time>2026-04-26T10:52:11.746Z</time></trkpt><trkpt lat="44.8897835" lon="7.2608484"><ele>446.0</ele><time>2026-04-26T10:52:12.746Z</time></trkpt><trkpt lat="44.889697" lon="7.2610375"><ele>446.0</ele><time>2026-04-26T10:52:13.746Z</time></trkpt><trkpt lat="44.8896122" lon="7.2612292"><ele>446.0</ele><time>2026-04-26T10:52:14.746Z</time></trkpt><trkpt lat="44.8895292" lon="7.2614187"><ele>446.0</ele><time>2026-04-26T10:52:15.746Z</time></trkpt><trkpt lat="44.8894457" lon="7.2615985"><ele>446.0</ele><time>2026-04-26T10:52:16.746Z</time></trkpt><trkpt lat="44.8893631" lon="7.261782"><ele>445.0</ele><time>2026-04-26T10:52:17.746Z</time></trkpt><trkpt lat="44.8892794" lon="7.2619692"><ele>444.0</ele><time>2026-04-26T10:52:18.746Z</time></trkpt><trkpt lat="44.8891977" lon="7.2621584"><ele>443.0</ele><time>2026-04-26T10:52:19.746Z</time></trkpt><trkpt lat="44.8891137" lon="7.2623478"><ele>443.0</ele><time>2026-04-26T10:52:20.746Z</time></trkpt><trkpt lat="44.8890266" lon="7.2625376"><ele>443.0</ele><time>2026-04-26T10:52:21.745Z</time></trkpt><trkpt lat="44.8889432" lon="7.2627205"><ele>443.0</ele><time>2026-04-26T10:52:22.745Z</time></trkpt><trkpt lat="44.8888623" lon="7.2628938"><ele>443.0</ele><time>2026-04-26T10:52:23.746Z</time></trkpt><trkpt lat="44.8887831" lon="7.2630634"><ele>443.0</ele><time>2026-04-26T10:52:24.746Z</time></trkpt><trkpt lat="44.8887051" lon="7.263238"><ele>443.0</ele><time>2026-04-26T10:52:25.746Z</time></trkpt><trkpt lat="44.8886278" lon="7.2634064"><ele>443.0</ele><time>2026-04-26T10:52:26.746Z</time></trkpt><trkpt lat="44.8885503" lon="7.2635624"><ele>441.75</ele><time>2026-04-26T10:52:27.746Z</time></trkpt><trkpt lat="44.888474" lon="7.2637109"><ele>440.5</ele><time>2026-04-26T10:52:28.746Z</time></trkpt><trkpt lat="44.8884025" lon="7.2638498"><ele>439.25</ele><time>2026-04-26T10:52:29.746Z</time></trkpt><trkpt lat="44.8883288" lon="7.2639819"><ele>438.0</ele><time>2026-04-26T10:52:30.746Z</time></trkpt><trkpt lat="44.8882562" lon="7.2641132"><ele>438.0</ele><time>2026-04-26T10:52:31.746Z</time></trkpt><trkpt lat="44.8881828" lon="7.2642435"><ele>438.0</ele><time>2026-04-26T10:52:32.746Z</time></trkpt><trkpt lat="44.8881133" lon="7.2643836"><ele>438.0</ele><time>2026-04-26T10:52:33.746Z</time></trkpt><trkpt lat="44.8880481" lon="7.2645267"><ele>438.0</ele><time>2026-04-26T10:52:34.746Z</time></trkpt><trkpt lat="44.8879921" lon="7.2646679"><ele>440.0</ele><time>2026-04-26T10:52:35.746Z</time></trkpt><trkpt lat="44.8879398" lon="7.2648008"><ele>441.99999999999994</ele><time>2026-04-26T10:52:36.746Z</time></trkpt><trkpt lat="44.8878909" lon="7.26493"><ele>443.99999999999994</ele><time>2026-04-26T10:52:37.746Z</time></trkpt><trkpt lat="44.8878436" lon="7.2650544"><ele>446.0</ele><time>2026-04-26T10:52:38.746Z</time></trkpt><trkpt lat="44.8877962" lon="7.2651751"><ele>448.0</ele><time>2026-04-26T10:52:39.746Z</time></trkpt><trkpt lat="44.8877528" lon="7.2652947"><ele>448.0</ele><time>2026-04-26T10:52:40.746Z</time></trkpt><trkpt lat="44.8877076" lon="7.2654226"><ele>447.99999999999994</ele><time>2026-04-26T10:52:41.746Z</time></trkpt><trkpt lat="44.8876601" lon="7.2655503"><ele>447.99999999999994</ele><time>2026-04-26T10:52:42.746Z</time></trkpt><trkpt lat="44.8876172" lon="7.2656786"><ele>448.0</ele><time>2026-04-26T10:52:43.746Z</time></trkpt><trkpt lat="44.88757" lon="7.2658021"><ele>448.0</ele><time>2026-04-26T10:52:44.746Z</time></trkpt><trkpt lat="44.8875296" lon="7.265922"><ele>445.2</ele><time>2026-04-26T10:52:45.746Z</time></trkpt><trkpt lat="44.8874884" lon="7.2660374"><ele>442.4</ele><time>2026-04-26T10:52:46.746Z</time></trkpt><trkpt lat="44.8874478" lon="7.2661503"><ele>439.59999999999997</ele><time>2026-04-26T10:52:47.746Z</time></trkpt><trkpt lat="44.8874042" lon="7.266273"><ele>436.79999999999995</ele><time>2026-04-26T10:52:48.746Z</time></trkpt><trkpt lat="44.8873611" lon="7.2663956"><ele>434.0</ele><time>2026-04-26T10:52:49.746Z</time></trkpt><trkpt lat="44.8873173" lon="7.2665199"><ele>434.0</ele><time>2026-04-26T10:52:50.746Z</time></trkpt><trkpt lat="44.8872716" lon="7.2666482"><ele>434.0</ele><time>2026-04-26T10:52:51.746Z</time></trkpt><trkpt lat="44.8872292" lon="7.2667801"><ele>434.0</ele><time>2026-04-26T10:52:52.746Z</time></trkpt><trkpt lat="44.8871907" lon="7.2669072"><ele>434.0</ele><time>2026-04-26T10:52:53.746Z</time></trkpt><trkpt lat="44.887153" lon="7.2670402"><ele>434.0</ele><time>2026-04-26T10:52:54.746Z</time></trkpt><trkpt lat="44.8871237" lon="7.2671816"><ele>434.4</ele><time>2026-04-26T10:52:55.746Z</time></trkpt><trkpt lat="44.8871023" lon="7.267322"><ele>434.79999999999995</ele><time>2026-04-26T10:52:56.746Z</time></trkpt><trkpt lat="44.8870839" lon="7.2674629"><ele>435.20000000000005</ele><time>2026-04-26T10:52:57.746Z</time></trkpt><trkpt lat="44.8870671" lon="7.2676078"><ele>435.6</ele><time>2026-04-26T10:52:58.746Z</time></trkpt><trkpt lat="44.8870508" lon="7.267746"><ele>436.0</ele><time>2026-04-26T10:52:59.746Z</time></trkpt><trkpt lat="44.887033" lon="7.2678961"><ele>436.0</ele><time>2026-04-26T10:53:00.746Z</time></trkpt><trkpt lat="44.8870177" lon="7.2680493"><ele>436.0</ele><time>2026-04-26T10:53:01.746Z</time></trkpt><trkpt lat="44.8870052" lon="7.2682304"><ele>436.0</ele><time>2026-04-26T10:53:02.746Z</time></trkpt><trkpt lat="44.886986" lon="7.2684293"><ele>436.0</ele><time>2026-04-26T10:53:03.745Z</time></trkpt><trkpt lat="44.8869604" lon="7.2686174"><ele>436.25</ele><time>2026-04-26T10:53:04.746Z</time></trkpt><trkpt lat="44.886937" lon="7.2688019"><ele>436.5</ele><time>2026-04-26T10:53:05.746Z</time></trkpt><trkpt lat="44.8869122" lon="7.2689919"><ele>436.75</ele><time>2026-04-26T10:53:06.746Z</time></trkpt><trkpt lat="44.8868843" lon="7.2691819"><ele>437.0</ele><time>2026-04-26T10:53:07.746Z</time></trkpt><trkpt lat="44.886863" lon="7.269373"><ele>437.75</ele><time>2026-04-26T10:53:08.746Z</time></trkpt><trkpt lat="44.8868431" lon="7.2695639"><ele>438.5</ele><time>2026-04-26T10:53:09.746Z</time></trkpt><trkpt lat="44.8868212" lon="7.2697608"><ele>439.25</ele><time>2026-04-26T10:53:10.746Z</time></trkpt><trkpt lat="44.8868009" lon="7.2699639"><ele>440.0</ele><time>2026-04-26T10:53:11.746Z</time></trkpt><trkpt lat="44.8867765" lon="7.2701673"><ele>436.3333333333333</ele><time>2026-04-26T10:53:12.746Z</time></trkpt><trkpt lat="44.8867528" lon="7.2703784"><ele>432.66666666666663</ele><time>2026-04-26T10:53:13.746Z</time></trkpt><trkpt lat="44.886724" lon="7.2705893"><ele>429.0</ele><time>2026-04-26T10:53:14.746Z</time></trkpt><trkpt lat="44.886694" lon="7.2708031"><ele>428.0</ele><time>2026-04-26T10:53:15.746Z</time></trkpt><trkpt lat="44.886662" lon="7.2710175"><ele>427.0</ele><time>2026-04-26T10:53:16.746Z</time></trkpt><trkpt lat="44.8866361" lon="7.2712341"><ele>426.0</ele><time>2026-04-26T10:53:17.746Z</time></trkpt><trkpt lat="44.8866153" lon="7.2714499"><ele>426.0</ele><time>2026-04-26T10:53:18.746Z</time></trkpt><trkpt lat="44.8865988" lon="7.2716675"><ele>426.0</ele><time>2026-04-26T10:53:19.746Z</time></trkpt><trkpt lat="44.8866018" lon="7.2718938"><ele>426.0</ele><time>2026-04-26T10:53:20.746Z</time></trkpt><trkpt lat="44.8866124" lon="7.2721263"><ele>426.33333333333337</ele><time>2026-04-26T10:53:21.746Z</time></trkpt><trkpt lat="44.8866312" lon="7.2723659"><ele>426.6666666666667</ele><time>2026-04-26T10:53:22.746Z</time></trkpt><trkpt lat="44.8866469" lon="7.2726052"><ele>427.0</ele><time>2026-04-26T10:53:23.745Z</time></trkpt><trkpt lat="44.8866678" lon="7.2728472"><ele>427.0</ele><time>2026-04-26T10:53:24.746Z</time></trkpt><trkpt lat="44.886696" lon="7.2730837"><ele>427.0</ele><time>2026-04-26T10:53:25.746Z</time></trkpt><trkpt lat="44.8867198" lon="7.2733141"><ele>427.0</ele><time>2026-04-26T10:53:26.746Z</time></trkpt><trkpt lat="44.8867386" lon="7.2735321"><ele>426.0</ele><time>2026-04-26T10:53:27.746Z</time></trkpt><trkpt lat="44.8867555" lon="7.2737488"><ele>425.0</ele><time>2026-04-26T10:53:28.746Z</time></trkpt><trkpt lat="44.8867745" lon="7.2739635"><ele>424.0</ele><time>2026-04-26T10:53:29.746Z</time></trkpt><trkpt lat="44.8867924" lon="7.2741795"><ele>431.33333333333337</ele><time>2026-04-26T10:53:30.746Z</time></trkpt><trkpt lat="44.886809" lon="7.274398"><ele>438.66666666666663</ele><time>2026-04-26T10:53:31.746Z</time></trkpt><trkpt lat="44.8868207" lon="7.2746191"><ele>446.0</ele><time>2026-04-26T10:53:32.746Z</time></trkpt><trkpt lat="44.8868253" lon="7.2748451"><ele>446.0</ele><time>2026-04-26T10:53:33.746Z</time></trkpt><trkpt lat="44.8868069" lon="7.2750781"><ele>446.0</ele><time>2026-04-26T10:53:34.746Z</time></trkpt><trkpt lat="44.8867793" lon="7.2753166"><ele>446.0</ele><time>2026-04-26T10:53:35.745Z</time></trkpt><trkpt lat="44.88675" lon="7.2755362"><ele>436.66666666666663</ele><time>2026-04-26T10:53:36.746Z</time></trkpt><trkpt lat="44.8867213" lon="7.2757611"><ele>427.33333333333337</ele><time>2026-04-26T10:53:37.746Z</time></trkpt><trkpt lat="44.886688" lon="7.2759838"><ele>418.0</ele><time>2026-04-26T10:53:38.746Z</time></trkpt><trkpt lat="44.8866532" lon="7.2762071"><ele>418.6666666666667</ele><time>2026-04-26T10:53:39.746Z</time></trkpt><trkpt lat="44.8866173" lon="7.2764365"><ele>419.33333333333337</ele><time>2026-04-26T10:53:40.746Z</time></trkpt><trkpt lat="44.8865836" lon="7.2766685"><ele>420.0</ele><time>2026-04-26T10:53:41.745Z</time></trkpt><trkpt lat="44.8865499" lon="7.2769053"><ele>420.0</ele><time>2026-04-26T10:53:42.746Z</time></trkpt><trkpt lat="44.8865167" lon="7.2771412"><ele>420.0</ele><time>2026-04-26T10:53:43.746Z</time></trkpt><trkpt lat="44.8864821" lon="7.2773824"><ele>420.0</ele><time>2026-04-26T10:53:44.746Z</time></trkpt><trkpt lat="44.8864475" lon="7.2776257"><ele>420.66666666666663</ele><time>2026-04-26T10:53:45.746Z</time></trkpt><trkpt lat="44.886413" lon="7.2778719"><ele>421.3333333333333</ele><time>2026-04-26T10:53:46.746Z</time></trkpt><trkpt lat="44.8863764" lon="7.2781218"><ele>422.0</ele><time>2026-04-26T10:53:47.746Z</time></trkpt><trkpt lat="44.886334" lon="7.2783929"><ele>422.0</ele><time>2026-04-26T10:53:48.746Z</time></trkpt><trkpt lat="44.886295" lon="7.2786635"><ele>422.0</ele><time>2026-04-26T10:53:49.746Z</time></trkpt><trkpt lat="44.8862574" lon="7.2789157"><ele>422.0</ele><time>2026-04-26T10:53:50.746Z</time></trkpt><trkpt lat="44.8862215" lon="7.2791692"><ele>422.0</ele><time>2026-04-26T10:53:51.746Z</time></trkpt><trkpt lat="44.8861852" lon="7.279418"><ele>422.0</ele><time>2026-04-26T10:53:52.746Z</time></trkpt><trkpt lat="44.8861492" lon="7.2796638"><ele>422.0</ele><time>2026-04-26T10:53:53.746Z</time></trkpt><trkpt lat="44.8861115" lon="7.2799027"><ele>422.0</ele><time>2026-04-26T10:53:54.746Z</time></trkpt><trkpt lat="44.8860696" lon="7.2801346"><ele>422.0</ele><time>2026-04-26T10:53:55.746Z</time></trkpt><trkpt lat="44.8860151" lon="7.2803644"><ele>422.0</ele><time>2026-04-26T10:53:56.746Z</time></trkpt><trkpt lat="44.885961" lon="7.280592"><ele>418.3333333333333</ele><time>2026-04-26T10:53:57.746Z</time></trkpt><trkpt lat="44.8859049" lon="7.2808177"><ele>414.66666666666663</ele><time>2026-04-26T10:53:58.746Z</time></trkpt><trkpt lat="44.8858447" lon="7.2810424"><ele>411.0</ele><time>2026-04-26T10:53:59.746Z</time></trkpt><trkpt lat="44.8857837" lon="7.2812569"><ele>411.0</ele><time>2026-04-26T10:54:00.746Z</time></trkpt><trkpt lat="44.885731" lon="7.2814596"><ele>411.0</ele><time>2026-04-26T10:54:01.746Z</time></trkpt><trkpt lat="44.8856801" lon="7.2816521"><ele>411.0</ele><time>2026-04-26T10:54:02.746Z</time></trkpt><trkpt lat="44.8856332" lon="7.2818467"><ele>411.0</ele><time>2026-04-26T10:54:03.746Z</time></trkpt><trkpt lat="44.885587" lon="7.2820372"><ele>411.0</ele><time>2026-04-26T10:54:04.746Z</time></trkpt><trkpt lat="44.8855464" lon="7.2822253"><ele>411.0</ele><time>2026-04-26T10:54:05.746Z</time></trkpt><trkpt lat="44.8855113" lon="7.2824113"><ele>411.0</ele><time>2026-04-26T10:54:06.746Z</time></trkpt><trkpt lat="44.885484" lon="7.2825988"><ele>411.0</ele><time>2026-04-26T10:54:07.746Z</time></trkpt><trkpt lat="44.8854666" lon="7.2827896"><ele>411.0</ele><time>2026-04-26T10:54:08.745Z</time></trkpt><trkpt lat="44.8854545" lon="7.2829856"><ele>411.0</ele><time>2026-04-26T10:54:09.746Z</time></trkpt><trkpt lat="44.8854403" lon="7.2831778"><ele>411.0</ele><time>2026-04-26T10:54:10.745Z</time></trkpt><trkpt lat="44.8854262" lon="7.2833601"><ele>411.0</ele><time>2026-04-26T10:54:11.746Z</time></trkpt><trkpt lat="44.8854109" lon="7.2835441"><ele>411.0</ele><time>2026-04-26T10:54:12.746Z</time></trkpt><trkpt lat="44.8854022" lon="7.2837249"><ele>411.0</ele><time>2026-04-26T10:54:13.746Z</time></trkpt><trkpt lat="44.8853921" lon="7.2839107"><ele>411.0</ele><time>2026-04-26T10:54:14.746Z</time></trkpt><trkpt lat="44.8853795" lon="7.2840984"><ele>411.0</ele><time>2026-04-26T10:54:15.746Z</time></trkpt><trkpt lat="44.8853696" lon="7.2842892"><ele>411.25</ele><time>2026-04-26T10:54:16.746Z</time></trkpt><trkpt lat="44.8853598" lon="7.2844838"><ele>411.5</ele><time>2026-04-26T10:54:17.746Z</time></trkpt><trkpt lat="44.8853451" lon="7.2846776"><ele>411.75</ele><time>2026-04-26T10:54:18.745Z</time></trkpt><trkpt lat="44.8853341" lon="7.284875"><ele>412.0</ele><time>2026-04-26T10:54:19.746Z</time></trkpt><trkpt lat="44.8853192" lon="7.2850627"><ele>411.5</ele><time>2026-04-26T10:54:20.746Z</time></trkpt><trkpt lat="44.8853086" lon="7.2852384"><ele>411.0</ele><time>2026-04-26T10:54:21.746Z</time></trkpt><trkpt lat="44.8853001" lon="7.2854085"><ele>410.5</ele><time>2026-04-26T10:54:22.746Z</time></trkpt><trkpt lat="44.8852923" lon="7.2855675"><ele>410.0</ele><time>2026-04-26T10:54:23.746Z</time></trkpt><trkpt lat="44.8852864" lon="7.2857273"><ele>410.0</ele><time>2026-04-26T10:54:24.746Z</time></trkpt><trkpt lat="44.8852817" lon="7.2858831"><ele>410.0</ele><time>2026-04-26T10:54:25.746Z</time></trkpt><trkpt lat="44.8852819" lon="7.2860336"><ele>410.0</ele><time>2026-04-26T10:54:26.746Z</time></trkpt><trkpt lat="44.8852893" lon="7.2861797"><ele>410.0</ele><time>2026-04-26T10:54:27.746Z</time></trkpt><trkpt lat="44.8853021" lon="7.2863208"><ele>410.0</ele><time>2026-04-26T10:54:28.746Z</time></trkpt><trkpt lat="44.8853147" lon="7.2864656"><ele>410.4</ele><time>2026-04-26T10:54:29.746Z</time></trkpt><trkpt lat="44.8853229" lon="7.2866099"><ele>410.8</ele><time>2026-04-26T10:54:30.746Z</time></trkpt><trkpt lat="44.8853339" lon="7.2867551"><ele>411.20000000000005</ele><time>2026-04-26T10:54:31.746Z</time></trkpt><trkpt lat="44.8853482" lon="7.2868979"><ele>411.6</ele><time>2026-04-26T10:54:32.746Z</time></trkpt><trkpt lat="44.8853625" lon="7.287042"><ele>412.0</ele><time>2026-04-26T10:54:33.746Z</time></trkpt><trkpt lat="44.8853801" lon="7.2871892"><ele>412.20000000000005</ele><time>2026-04-26T10:54:34.746Z</time></trkpt><trkpt lat="44.8853988" lon="7.2873374"><ele>412.4</ele><time>2026-04-26T10:54:35.746Z</time></trkpt><trkpt lat="44.8854146" lon="7.2874738"><ele>412.6</ele><time>2026-04-26T10:54:36.746Z</time></trkpt><trkpt lat="44.8854316" lon="7.2876029"><ele>412.79999999999995</ele><time>2026-04-26T10:54:37.746Z</time></trkpt><trkpt lat="44.8854438" lon="7.2877209"><ele>413.0</ele><time>2026-04-26T10:54:38.746Z</time></trkpt><trkpt lat="44.8854454" lon="7.2878179"><ele>413.0</ele><time>2026-04-26T10:54:39.746Z</time></trkpt><trkpt lat="44.8854122" lon="7.2879775"><ele>413.0</ele><time>2026-04-26T10:54:41.746Z</time></trkpt><trkpt lat="44.8853602" lon="7.2881041"><ele>413.0</ele><time>2026-04-26T10:54:43.746Z</time></trkpt><trkpt lat="44.8853726" lon="7.2882758"><ele>413.0</ele><time>2026-04-26T10:54:45.746Z</time></trkpt><trkpt lat="44.8853938" lon="7.2883784"><ele>413.0</ele><time>2026-04-26T10:54:46.746Z</time></trkpt><trkpt lat="44.8854094" lon="7.2885081"><ele>412.75</ele><time>2026-04-26T10:54:47.746Z</time></trkpt><trkpt lat="44.8854189" lon="7.2886562"><ele>412.5</ele><time>2026-04-26T10:54:48.745Z</time></trkpt><trkpt lat="44.8854231" lon="7.2888192"><ele>412.25</ele><time>2026-04-26T10:54:49.746Z</time></trkpt><trkpt lat="44.8854178" lon="7.2889889"><ele>412.0</ele><time>2026-04-26T10:54:50.746Z</time></trkpt><trkpt lat="44.8854094" lon="7.2891631"><ele>411.5</ele><time>2026-04-26T10:54:51.746Z</time></trkpt><trkpt lat="44.8854012" lon="7.2893497"><ele>411.0</ele><time>2026-04-26T10:54:52.746Z</time></trkpt><trkpt lat="44.8853912" lon="7.2895497"><ele>410.5</ele><time>2026-04-26T10:54:53.746Z</time></trkpt><trkpt lat="44.8853815" lon="7.2897433"><ele>410.0</ele><time>2026-04-26T10:54:54.746Z</time></trkpt><trkpt lat="44.8853718" lon="7.2899438"><ele>410.0</ele><time>2026-04-26T10:54:55.746Z</time></trkpt><trkpt lat="44.8853596" lon="7.290149"><ele>410.0</ele><time>2026-04-26T10:54:56.746Z</time></trkpt><trkpt lat="44.8853477" lon="7.2903571"><ele>410.0</ele><time>2026-04-26T10:54:57.746Z</time></trkpt><trkpt lat="44.8853307" lon="7.2905686"><ele>410.0</ele><time>2026-04-26T10:54:58.746Z</time></trkpt><trkpt lat="44.8853183" lon="7.2907963"><ele>409.5</ele><time>2026-04-26T10:54:59.746Z</time></trkpt><trkpt lat="44.885303" lon="7.2910113"><ele>409.0</ele><time>2026-04-26T10:55:00.746Z</time></trkpt><trkpt lat="44.8852933" lon="7.2912158"><ele>408.5</ele><time>2026-04-26T10:55:01.746Z</time></trkpt><trkpt lat="44.8852794" lon="7.2914225"><ele>408.0</ele><time>2026-04-26T10:55:02.746Z</time></trkpt><trkpt lat="44.885268" lon="7.2916302"><ele>407.66666666666663</ele><time>2026-04-26T10:55:03.746Z</time></trkpt><trkpt lat="44.8852536" lon="7.2918482"><ele>407.3333333333333</ele><time>2026-04-26T10:55:04.746Z</time></trkpt><trkpt lat="44.8852425" lon="7.2920786"><ele>407.0</ele><time>2026-04-26T10:55:05.746Z</time></trkpt><trkpt lat="44.8852385" lon="7.2923087"><ele>407.0</ele><time>2026-04-26T10:55:06.746Z</time></trkpt><trkpt lat="44.8852558" lon="7.2925433"><ele>407.0</ele><time>2026-04-26T10:55:07.746Z</time></trkpt><trkpt lat="44.8852849" lon="7.2927864"><ele>407.0</ele><time>2026-04-26T10:55:08.746Z</time></trkpt><trkpt lat="44.8853181" lon="7.2930385"><ele>407.3333333333333</ele><time>2026-04-26T10:55:09.746Z</time></trkpt><trkpt lat="44.8853607" lon="7.2932928"><ele>407.66666666666663</ele><time>2026-04-26T10:55:10.746Z</time></trkpt><trkpt lat="44.8854055" lon="7.2935368"><ele>408.0</ele><time>2026-04-26T10:55:11.746Z</time></trkpt><trkpt lat="44.8854494" lon="7.2937656"><ele>408.33333333333337</ele><time>2026-04-26T10:55:12.746Z</time></trkpt><trkpt lat="44.8854932" lon="7.2939866"><ele>408.6666666666667</ele><time>2026-04-26T10:55:13.746Z</time></trkpt><trkpt lat="44.8855335" lon="7.2941882"><ele>409.0</ele><time>2026-04-26T10:55:14.746Z</time></trkpt><trkpt lat="44.8855662" lon="7.2943814"><ele>409.0</ele><time>2026-04-26T10:55:15.746Z</time></trkpt><trkpt lat="44.8855953" lon="7.2945754"><ele>409.0</ele><time>2026-04-26T10:55:16.746Z</time></trkpt><trkpt lat="44.8856172" lon="7.2947695"><ele>409.0</ele><time>2026-04-26T10:55:17.746Z</time></trkpt><trkpt lat="44.8856267" lon="7.2949549"><ele>409.0</ele><time>2026-04-26T10:55:18.746Z</time></trkpt><trkpt lat="44.8856323" lon="7.2951289"><ele>408.4</ele><time>2026-04-26T10:55:19.746Z</time></trkpt><trkpt lat="44.8856311" lon="7.2952902"><ele>407.79999999999995</ele><time>2026-04-26T10:55:20.746Z</time></trkpt><trkpt lat="44.8856292" lon="7.295438"><ele>407.20000000000005</ele><time>2026-04-26T10:55:21.746Z</time></trkpt><trkpt lat="44.8856231" lon="7.2955883"><ele>406.6</ele><time>2026-04-26T10:55:22.746Z</time></trkpt><trkpt lat="44.8856008" lon="7.2957333"><ele>406.0</ele><time>2026-04-26T10:55:23.746Z</time></trkpt><trkpt lat="44.8855652" lon="7.2958762"><ele>406.0</ele><time>2026-04-26T10:55:24.746Z</time></trkpt><trkpt lat="44.885518" lon="7.2960198"><ele>406.0</ele><time>2026-04-26T10:55:25.746Z</time></trkpt><trkpt lat="44.8854612" lon="7.2961601"><ele>406.0</ele><time>2026-04-26T10:55:26.746Z</time></trkpt><trkpt lat="44.8853976" lon="7.2963043"><ele>406.0</ele><time>2026-04-26T10:55:27.746Z</time></trkpt><trkpt lat="44.8853246" lon="7.2964463"><ele>406.5</ele><time>2026-04-26T10:55:28.746Z</time></trkpt><trkpt lat="44.8852446" lon="7.2965984"><ele>407.0</ele><time>2026-04-26T10:55:29.746Z</time></trkpt><trkpt lat="44.8851551" lon="7.2967636"><ele>407.5</ele><time>2026-04-26T10:55:30.746Z</time></trkpt><trkpt lat="44.885064" lon="7.2969457"><ele>408.0</ele><time>2026-04-26T10:55:31.746Z</time></trkpt><trkpt lat="44.8849701" lon="7.2971286"><ele>407.0</ele><time>2026-04-26T10:55:32.746Z</time></trkpt><trkpt lat="44.8848842" lon="7.2972962"><ele>406.0</ele><time>2026-04-26T10:55:33.746Z</time></trkpt><trkpt lat="44.8848064" lon="7.2974583"><ele>405.0</ele><time>2026-04-26T10:55:34.746Z</time></trkpt><trkpt lat="44.8847324" lon="7.2976074"><ele>404.0</ele><time>2026-04-26T10:55:35.746Z</time></trkpt><trkpt lat="44.8846632" lon="7.297749"><ele>404.0</ele><time>2026-04-26T10:55:36.745Z</time></trkpt><trkpt lat="44.8846083" lon="7.2979006"><ele>404.0</ele><time>2026-04-26T10:55:37.746Z</time></trkpt><trkpt lat="44.884588" lon="7.2980657"><ele>404.0</ele><time>2026-04-26T10:55:38.746Z</time></trkpt><trkpt lat="44.8845796" lon="7.2982413"><ele>404.0</ele><time>2026-04-26T10:55:39.746Z</time></trkpt><trkpt lat="44.8845687" lon="7.2984341"><ele>404.0</ele><time>2026-04-26T10:55:40.746Z</time></trkpt><trkpt lat="44.8845608" lon="7.2986339"><ele>404.0</ele><time>2026-04-26T10:55:41.746Z</time></trkpt><trkpt lat="44.8845477" lon="7.298846"><ele>404.0</ele><time>2026-04-26T10:55:42.746Z</time></trkpt><trkpt lat="44.8845332" lon="7.2990612"><ele>404.0</ele><time>2026-04-26T10:55:43.746Z</time></trkpt><trkpt lat="44.8845212" lon="7.299265"><ele>404.0</ele><time>2026-04-26T10:55:44.746Z</time></trkpt><trkpt lat="44.8845051" lon="7.2994715"><ele>404.0</ele><time>2026-04-26T10:55:45.746Z</time></trkpt><trkpt lat="44.8844896" lon="7.2996764"><ele>404.0</ele><time>2026-04-26T10:55:46.746Z</time></trkpt><trkpt lat="44.8844754" lon="7.2998884"><ele>404.0</ele><time>2026-04-26T10:55:47.746Z</time></trkpt><trkpt lat="44.8844638" lon="7.3001054"><ele>404.0</ele><time>2026-04-26T10:55:48.746Z</time></trkpt><trkpt lat="44.8844505" lon="7.3003247"><ele>404.0</ele><time>2026-04-26T10:55:49.746Z</time></trkpt><trkpt lat="44.8844365" lon="7.3005358"><ele>404.0</ele><time>2026-04-26T10:55:50.746Z</time></trkpt><trkpt lat="44.8844213" lon="7.3007315"><ele>404.0</ele><time>2026-04-26T10:55:51.746Z</time></trkpt><trkpt lat="44.8844069" lon="7.3009185"><ele>404.0</ele><time>2026-04-26T10:55:52.746Z</time></trkpt><trkpt lat="44.8843925" lon="7.3010963"><ele>404.0</ele><time>2026-04-26T10:55:53.746Z</time></trkpt><trkpt lat="44.8843789" lon="7.3012721"><ele>404.0</ele><time>2026-04-26T10:55:54.746Z</time></trkpt><trkpt lat="44.8843605" lon="7.3014359"><ele>404.0</ele><time>2026-04-26T10:55:55.746Z</time></trkpt><trkpt lat="44.8843455" lon="7.3015832"><ele>403.66666666666663</ele><time>2026-04-26T10:55:56.746Z</time></trkpt><trkpt lat="44.8843323" lon="7.3017203"><ele>403.3333333333333</ele><time>2026-04-26T10:55:57.746Z</time></trkpt><trkpt lat="44.8843151" lon="7.3018565"><ele>403.0</ele><time>2026-04-26T10:55:58.746Z</time></trkpt><trkpt lat="44.8843005" lon="7.3019798"><ele>402.66666666666663</ele><time>2026-04-26T10:55:59.746Z</time></trkpt><trkpt lat="44.8842834" lon="7.3020891"><ele>402.3333333333333</ele><time>2026-04-26T10:56:00.746Z</time></trkpt><trkpt lat="44.8842652" lon="7.302181"><ele>402.0</ele><time>2026-04-26T10:56:01.746Z</time></trkpt><trkpt lat="44.8842453" lon="7.3022655"><ele>401.3333333333333</ele><time>2026-04-26T10:56:02.746Z</time></trkpt><trkpt lat="44.8842236" lon="7.302376"><ele>400.66666666666663</ele><time>2026-04-26T10:56:04.746Z</time></trkpt><trkpt lat="44.8841989" lon="7.302462"><ele>400.0</ele><time>2026-04-26T10:57:04.746Z</time></trkpt><trkpt lat="44.8841742" lon="7.3026099"><ele>399.3333333333333</ele><time>2026-04-26T10:57:06.746Z</time></trkpt><trkpt lat="44.8841593" lon="7.30271"><ele>398.66666666666663</ele><time>2026-04-26T10:57:07.746Z</time></trkpt><trkpt lat="44.8841399" lon="7.3028247"><ele>398.0</ele><time>2026-04-26T10:57:08.746Z</time></trkpt><trkpt lat="44.8841298" lon="7.3029612"><ele>397.75</ele><time>2026-04-26T10:57:09.746Z</time></trkpt><trkpt lat="44.8841291" lon="7.3031481"><ele>397.5</ele><time>2026-04-26T10:57:10.746Z</time></trkpt><trkpt lat="44.8841256" lon="7.303328"><ele>397.25</ele><time>2026-04-26T10:57:11.746Z</time></trkpt><trkpt lat="44.8841234" lon="7.3035246"><ele>397.0</ele><time>2026-04-26T10:57:12.746Z</time></trkpt><trkpt lat="44.8841159" lon="7.3037225"><ele>396.75</ele><time>2026-04-26T10:57:13.746Z</time></trkpt><trkpt lat="44.8841102" lon="7.3039251"><ele>396.5</ele><time>2026-04-26T10:57:14.746Z</time></trkpt><trkpt lat="44.8841028" lon="7.3041216"><ele>396.25</ele><time>2026-04-26T10:57:15.746Z</time></trkpt><trkpt lat="44.8840997" lon="7.3043335"><ele>396.0</ele><time>2026-04-26T10:57:16.745Z</time></trkpt><trkpt lat="44.8840994" lon="7.3045102"><ele>396.0</ele><time>2026-04-26T10:57:17.746Z</time></trkpt><trkpt lat="44.8841005" lon="7.3046488"><ele>396.0</ele><time>2026-04-26T10:57:18.746Z</time></trkpt><trkpt lat="44.8841068" lon="7.3047701"><ele>396.0</ele><time>2026-04-26T10:57:19.746Z</time></trkpt><trkpt lat="44.8841316" lon="7.304864"><ele>396.0</ele><time>2026-04-26T10:57:20.746Z</time></trkpt><trkpt lat="44.8841826" lon="7.3049351"><ele>396.0</ele><time>2026-04-26T10:57:21.746Z</time></trkpt><trkpt lat="44.8842595" lon="7.3049723"><ele>396.0</ele><time>2026-04-26T10:57:22.746Z</time></trkpt><trkpt lat="44.8843648" lon="7.3049795"><ele>396.20000000000005</ele><time>2026-04-26T10:57:23.746Z</time></trkpt><trkpt lat="44.8844777" lon="7.3049922"><ele>396.40000000000003</ele><time>2026-04-26T10:57:24.746Z</time></trkpt><trkpt lat="44.8845863" lon="7.3050011"><ele>396.6</ele><time>2026-04-26T10:57:25.746Z</time></trkpt><trkpt lat="44.8846953" lon="7.3050025"><ele>396.8</ele><time>2026-04-26T10:57:26.745Z</time></trkpt><trkpt lat="44.8847964" lon="7.3050005"><ele>397.0</ele><time>2026-04-26T10:57:27.746Z</time></trkpt><trkpt lat="44.8848781" lon="7.3049887"><ele>397.0</ele><time>2026-04-26T10:57:28.746Z</time></trkpt><trkpt lat="44.8849902" lon="7.3050053"><ele>397.0</ele><time>2026-04-26T10:57:30.746Z</time></trkpt><trkpt lat="44.8850305" lon="7.3051384"><ele>397.0</ele><time>2026-04-26T10:57:32.746Z</time></trkpt><trkpt lat="44.8850317" lon="7.3052557"><ele>397.0</ele><time>2026-04-26T10:57:33.746Z</time></trkpt><trkpt lat="44.8850344" lon="7.3054106"><ele>397.0</ele><time>2026-04-26T10:57:34.746Z</time></trkpt><trkpt lat="44.8850373" lon="7.3056045"><ele>397.0</ele><time>2026-04-26T10:57:35.746Z</time></trkpt><trkpt lat="44.8850456" lon="7.3058159"><ele>397.0</ele><time>2026-04-26T10:57:36.746Z</time></trkpt><trkpt lat="44.885057" lon="7.306009"><ele>397.0</ele><time>2026-04-26T10:57:37.746Z</time></trkpt><trkpt lat="44.8850678" lon="7.3061893"><ele>397.0</ele><time>2026-04-26T10:57:38.746Z</time></trkpt><trkpt lat="44.8850757" lon="7.3063555"><ele>397.0</ele><time>2026-04-26T10:57:39.746Z</time></trkpt><trkpt lat="44.8850846" lon="7.3065067"><ele>397.0</ele><time>2026-04-26T10:57:40.746Z</time></trkpt><trkpt lat="44.8850955" lon="7.3066561"><ele>397.0</ele><time>2026-04-26T10:57:41.746Z</time></trkpt><trkpt lat="44.8851035" lon="7.3068053"><ele>397.0</ele><time>2026-04-26T10:57:42.746Z</time></trkpt><trkpt lat="44.8851099" lon="7.3069408"><ele>397.0</ele><time>2026-04-26T10:57:43.746Z</time></trkpt><trkpt lat="44.8851124" lon="7.3070445"><ele>397.0</ele><time>2026-04-26T10:57:44.746Z</time></trkpt><trkpt lat="44.8851262" lon="7.3071909"><ele>397.0</ele><time>2026-04-26T10:57:46.746Z</time></trkpt><trkpt lat="44.8852101" lon="7.307245"><ele>397.0</ele><time>2026-04-26T10:57:48.746Z</time></trkpt><trkpt lat="44.8852882" lon="7.3072328"><ele>397.0</ele><time>2026-04-26T10:57:49.746Z</time></trkpt><trkpt lat="44.8853855" lon="7.3072163"><ele>397.0</ele><time>2026-04-26T10:57:50.746Z</time></trkpt><trkpt lat="44.8854788" lon="7.3072086"><ele>397.00000000000006</ele><time>2026-04-26T10:57:51.746Z</time></trkpt><trkpt lat="44.8855606" lon="7.3071902"><ele>397.0</ele><time>2026-04-26T10:57:52.746Z</time></trkpt><trkpt lat="44.8856342" lon="7.3071534"><ele>397.0</ele><time>2026-04-26T10:57:53.746Z</time></trkpt><trkpt lat="44.8857036" lon="7.3070955"><ele>397.0</ele><time>2026-04-26T10:57:54.746Z</time></trkpt><trkpt lat="44.8857636" lon="7.3070283"><ele>397.00000000000006</ele><time>2026-04-26T10:57:55.746Z</time></trkpt><trkpt lat="44.8858148" lon="7.3069684"><ele>397.0</ele><time>2026-04-26T10:57:56.745Z</time></trkpt><trkpt lat="44.8858788" lon="7.3069247"><ele>397.6666666666667</ele><time>2026-04-26T10:57:57.746Z</time></trkpt><trkpt lat="44.8859459" lon="7.306903"><ele>398.33333333333337</ele><time>2026-04-26T10:57:58.746Z</time></trkpt><trkpt lat="44.8860465" lon="7.3069125"><ele>399.0</ele><time>2026-04-26T10:58:00.746Z</time></trkpt><trkpt lat="44.8861101" lon="7.3069739"><ele>399.66666666666663</ele><time>2026-04-26T10:58:03.746Z</time></trkpt><trkpt lat="44.8860921" lon="7.3070975"><ele>400.3333333333333</ele><time>2026-04-26T10:58:05.746Z</time></trkpt><trkpt lat="44.8860798" lon="7.3071896"><ele>401.0</ele><time>2026-04-26T10:58:06.746Z</time></trkpt><trkpt lat="44.8860717" lon="7.30729"><ele>401.3333333333333</ele><time>2026-04-26T10:58:07.746Z</time></trkpt><trkpt lat="44.8860622" lon="7.3074033"><ele>401.66666666666663</ele><time>2026-04-26T10:58:08.746Z</time></trkpt><trkpt lat="44.8860495" lon="7.3075213"><ele>402.0</ele><time>2026-04-26T10:58:09.746Z</time></trkpt><trkpt lat="44.8860416" lon="7.3076306"><ele>402.33333333333337</ele><time>2026-04-26T10:58:10.746Z</time></trkpt><trkpt lat="44.8860354" lon="7.3077269"><ele>402.6666666666667</ele><time>2026-04-26T10:58:11.746Z</time></trkpt><trkpt lat="44.8860291" lon="7.3078827"><ele>403.0</ele><time>2026-04-26T10:58:13.746Z</time></trkpt><trkpt lat="44.886111" lon="7.3079494"><ele>403.0</ele><time>2026-04-26T10:58:16.746Z</time></trkpt><trkpt lat="44.8861906" lon="7.3079634"><ele>403.0</ele><time>2026-04-26T10:58:18.746Z</time></trkpt><trkpt lat="44.8862828" lon="7.3079964"><ele>403.0</ele><time>2026-04-26T10:58:20.746Z</time></trkpt><trkpt lat="44.8863835" lon="7.3080215"><ele>403.0</ele><time>2026-04-26T10:58:22.746Z</time></trkpt><trkpt lat="44.8864867" lon="7.3080494"><ele>403.0</ele><time>2026-04-26T10:58:24.746Z</time></trkpt><trkpt lat="44.8865851" lon="7.308087"><ele>402.6666666666667</ele><time>2026-04-26T10:58:26.746Z</time></trkpt><trkpt lat="44.8866649" lon="7.3081241"><ele>402.33333333333337</ele><time>2026-04-26T10:58:28.746Z</time></trkpt><trkpt lat="44.8867389" lon="7.3081583"><ele>402.0</ele><time>2026-04-26T10:58:30.746Z</time></trkpt><trkpt lat="44.8868144" lon="7.3081796"><ele>401.66666666666663</ele><time>2026-04-26T10:58:32.746Z</time></trkpt><trkpt lat="44.8868943" lon="7.3082066"><ele>401.3333333333333</ele><time>2026-04-26T10:58:34.745Z</time></trkpt><trkpt lat="44.8869603" lon="7.3082381"><ele>401.0</ele><time>2026-04-26T10:58:36.746Z</time></trkpt><trkpt lat="44.886994" lon="7.3083246"><ele>400.99999999999994</ele><time>2026-04-26T10:58:38.746Z</time></trkpt><trkpt lat="44.8870449" lon="7.3084069"><ele>401.0</ele><time>2026-04-26T10:58:40.746Z</time></trkpt><trkpt lat="44.8871014" lon="7.3084712"><ele>401.0</ele><time>2026-04-26T10:58:42.746Z</time></trkpt><trkpt lat="44.8871074" lon="7.3085753"><ele>401.0</ele><time>2026-04-26T10:58:44.746Z</time></trkpt><trkpt lat="44.8870806" lon="7.3087041"><ele>400.99999999999994</ele><time>2026-04-26T10:58:46.746Z</time></trkpt><trkpt lat="44.8870682" lon="7.3088367"><ele>401.0</ele><time>2026-04-26T10:58:48.746Z</time></trkpt><trkpt lat="44.887049" lon="7.3089583"><ele>400.49999999999994</ele><time>2026-04-26T10:58:50.746Z</time></trkpt><trkpt lat="44.8870248" lon="7.3090942"><ele>400.0</ele><time>2026-04-26T10:58:52.746Z</time></trkpt><trkpt lat="44.8870101" lon="7.309185"><ele>399.5</ele><time>2026-04-26T10:58:53.746Z</time></trkpt><trkpt lat="44.886997" lon="7.3092917"><ele>399.0</ele><time>2026-04-26T10:58:54.746Z</time></trkpt><trkpt lat="44.8869808" lon="7.3094171"><ele>398.49999999999994</ele><time>2026-04-26T10:58:55.746Z</time></trkpt><trkpt lat="44.8869663" lon="7.3095398"><ele>398.0</ele><time>2026-04-26T10:58:56.746Z</time></trkpt><trkpt lat="44.886951" lon="7.309656"><ele>397.59999999999997</ele><time>2026-04-26T10:58:57.746Z</time></trkpt><trkpt lat="44.8869319" lon="7.309781"><ele>397.2</ele><time>2026-04-26T10:58:58.746Z</time></trkpt><trkpt lat="44.8869111" lon="7.3099137"><ele>396.8</ele><time>2026-04-26T10:58:59.746Z</time></trkpt><trkpt lat="44.8868922" lon="7.3100553"><ele>396.4</ele><time>2026-04-26T10:59:00.746Z</time></trkpt><trkpt lat="44.886878" lon="7.3102138"><ele>396.0</ele><time>2026-04-26T10:59:01.746Z</time></trkpt><trkpt lat="44.8868596" lon="7.3103774"><ele>396.0</ele><time>2026-04-26T10:59:02.746Z</time></trkpt><trkpt lat="44.8868386" lon="7.3105506"><ele>396.0</ele><time>2026-04-26T10:59:03.746Z</time></trkpt><trkpt lat="44.8868201" lon="7.3107169"><ele>396.0</ele><time>2026-04-26T10:59:04.746Z</time></trkpt><trkpt lat="44.8868032" lon="7.3108714"><ele>396.0</ele><time>2026-04-26T10:59:05.746Z</time></trkpt><trkpt lat="44.8867835" lon="7.3110269"><ele>395.5</ele><time>2026-04-26T10:59:06.745Z</time></trkpt><trkpt lat="44.8867592" lon="7.311183"><ele>395.0</ele><time>2026-04-26T10:59:07.746Z</time></trkpt><trkpt lat="44.8867369" lon="7.3113425"><ele>394.5</ele><time>2026-04-26T10:59:08.746Z</time></trkpt><trkpt lat="44.8867118" lon="7.3114974"><ele>394.0</ele><time>2026-04-26T10:59:09.746Z</time></trkpt><trkpt lat="44.8866952" lon="7.3116488"><ele>394.0</ele><time>2026-04-26T10:59:10.746Z</time></trkpt><trkpt lat="44.8866811" lon="7.3117937"><ele>394.0</ele><time>2026-04-26T10:59:11.746Z</time></trkpt><trkpt lat="44.8866743" lon="7.311933"><ele>394.0</ele><time>2026-04-26T10:59:12.746Z</time></trkpt><trkpt lat="44.8866742" lon="7.3120743"><ele>394.0</ele><time>2026-04-26T10:59:13.746Z</time></trkpt><trkpt lat="44.8866741" lon="7.312207"><ele>394.0</ele><time>2026-04-26T10:59:14.746Z</time></trkpt><trkpt lat="44.8866633" lon="7.3123227"><ele>393.6</ele><time>2026-04-26T10:59:15.746Z</time></trkpt><trkpt lat="44.8866471" lon="7.3124264"><ele>393.2</ele><time>2026-04-26T10:59:16.746Z</time></trkpt><trkpt lat="44.8865834" lon="7.3125471"><ele>392.8</ele><time>2026-04-26T10:59:18.746Z</time></trkpt><trkpt lat="44.8864915" lon="7.3125189"><ele>392.40000000000003</ele><time>2026-04-26T10:59:20.746Z</time></trkpt><trkpt lat="44.8863918" lon="7.3124067"><ele>392.0</ele><time>2026-04-26T10:59:22.746Z</time></trkpt><trkpt lat="44.8863263" lon="7.3123399"><ele>391.99999999999994</ele><time>2026-04-26T10:59:23.745Z</time></trkpt><trkpt lat="44.8862543" lon="7.3122613"><ele>392.0</ele><time>2026-04-26T10:59:24.746Z</time></trkpt><trkpt lat="44.8861782" lon="7.312176"><ele>392.0</ele><time>2026-04-26T10:59:25.746Z</time></trkpt><trkpt lat="44.8861084" lon="7.3121006"><ele>392.0</ele><time>2026-04-26T10:59:26.746Z</time></trkpt><trkpt lat="44.8860465" lon="7.3120404"><ele>391.99999999999994</ele><time>2026-04-26T10:59:27.746Z</time></trkpt><trkpt lat="44.8859859" lon="7.3119812"><ele>392.0</ele><time>2026-04-26T10:59:28.746Z</time></trkpt><trkpt lat="44.8859308" lon="7.3119248"><ele>392.0</ele><time>2026-04-26T10:59:29.746Z</time></trkpt><trkpt lat="44.885842" lon="7.3118018"><ele>392.0</ele><time>2026-04-26T10:59:31.746Z</time></trkpt><trkpt lat="44.8857904" lon="7.3117426"><ele>392.0</ele><time>2026-04-26T10:59:32.745Z</time></trkpt><trkpt lat="44.885678" lon="7.3117403"><ele>392.0</ele><time>2026-04-26T10:59:34.746Z</time></trkpt><trkpt lat="44.8856194" lon="7.3118806"><ele>392.0</ele><time>2026-04-26T10:59:36.746Z</time></trkpt><trkpt lat="44.8856346" lon="7.3119711"><ele>392.0</ele><time>2026-04-26T10:59:37.746Z</time></trkpt><trkpt lat="44.8856667" lon="7.3120852"><ele>392.0</ele><time>2026-04-26T10:59:38.746Z</time></trkpt><trkpt lat="44.8856851" lon="7.3122309"><ele>392.0</ele><time>2026-04-26T10:59:39.746Z</time></trkpt><trkpt lat="44.885689" lon="7.3123937"><ele>392.0</ele><time>2026-04-26T10:59:40.746Z</time></trkpt><trkpt lat="44.8856839" lon="7.312603"><ele>391.3333333333333</ele><time>2026-04-26T10:59:41.746Z</time></trkpt><trkpt lat="44.8856766" lon="7.3128254"><ele>390.66666666666663</ele><time>2026-04-26T10:59:42.746Z</time></trkpt><trkpt lat="44.8856716" lon="7.3130652"><ele>390.0</ele><time>2026-04-26T10:59:43.746Z</time></trkpt><trkpt lat="44.8856647" lon="7.3132834"><ele>390.0</ele><time>2026-04-26T10:59:44.746Z</time></trkpt><trkpt lat="44.8856589" lon="7.3134888"><ele>390.0</ele><time>2026-04-26T10:59:45.746Z</time></trkpt><trkpt lat="44.8856555" lon="7.3136772"><ele>390.0</ele><time>2026-04-26T10:59:46.746Z</time></trkpt><trkpt lat="44.8856524" lon="7.3138361"><ele>390.0</ele><time>2026-04-26T10:59:47.745Z</time></trkpt><trkpt lat="44.8856474" lon="7.313962"><ele>389.8333333333333</ele><time>2026-04-26T10:59:48.746Z</time></trkpt><trkpt lat="44.8856453" lon="7.3140805"><ele>389.66666666666663</ele><time>2026-04-26T10:59:49.746Z</time></trkpt><trkpt lat="44.885637" lon="7.3141815"><ele>389.5</ele><time>2026-04-26T10:59:50.746Z</time></trkpt><trkpt lat="44.8856318" lon="7.3142724"><ele>389.3333333333333</ele><time>2026-04-26T10:59:51.746Z</time></trkpt><trkpt lat="44.8856298" lon="7.3144119"><ele>389.16666666666663</ele><time>2026-04-26T10:59:53.746Z</time></trkpt><trkpt lat="44.885632" lon="7.3145556"><ele>389.0</ele><time>2026-04-26T11:00:07.746Z</time></trkpt><trkpt lat="44.8856281" lon="7.3146539"><ele>388.79999999999995</ele><time>2026-04-26T11:00:08.746Z</time></trkpt><trkpt lat="44.8856288" lon="7.3147503"><ele>388.59999999999997</ele><time>2026-04-26T11:00:09.746Z</time></trkpt><trkpt lat="44.8856337" lon="7.3148647"><ele>388.4</ele><time>2026-04-26T11:00:10.746Z</time></trkpt><trkpt lat="44.8856347" lon="7.3150002"><ele>388.2</ele><time>2026-04-26T11:00:11.746Z</time></trkpt><trkpt lat="44.8856331" lon="7.3151457"><ele>388.0</ele><time>2026-04-26T11:00:12.746Z</time></trkpt><trkpt lat="44.8856285" lon="7.3152918"><ele>388.0</ele><time>2026-04-26T11:00:13.745Z</time></trkpt><trkpt lat="44.8856255" lon="7.3154494"><ele>388.0</ele><time>2026-04-26T11:00:14.746Z</time></trkpt><trkpt lat="44.8856243" lon="7.3156135"><ele>388.0</ele><time>2026-04-26T11:00:15.746Z</time></trkpt><trkpt lat="44.8856212" lon="7.3157821"><ele>388.0</ele><time>2026-04-26T11:00:16.746Z</time></trkpt><trkpt lat="44.885621" lon="7.3159745"><ele>388.0</ele><time>2026-04-26T11:00:17.746Z</time></trkpt><trkpt lat="44.8856205" lon="7.3161862"><ele>388.0</ele><time>2026-04-26T11:00:18.746Z</time></trkpt><trkpt lat="44.8856167" lon="7.3164008"><ele>388.0</ele><time>2026-04-26T11:00:19.746Z</time></trkpt><trkpt lat="44.8856122" lon="7.3166079"><ele>388.0</ele><time>2026-04-26T11:00:20.746Z</time></trkpt><trkpt lat="44.8856091" lon="7.3168145"><ele>388.0</ele><time>2026-04-26T11:00:21.745Z</time></trkpt><trkpt lat="44.885604" lon="7.3170193"><ele>388.0</ele><time>2026-04-26T11:00:22.746Z</time></trkpt><trkpt lat="44.885598" lon="7.31723"><ele>388.0</ele><time>2026-04-26T11:00:23.746Z</time></trkpt><trkpt lat="44.8855892" lon="7.3174294"><ele>388.0</ele><time>2026-04-26T11:00:24.746Z</time></trkpt><trkpt lat="44.8855822" lon="7.3176227"><ele>387.25</ele><time>2026-04-26T11:00:25.746Z</time></trkpt><trkpt lat="44.8855751" lon="7.3178157"><ele>386.5</ele><time>2026-04-26T11:00:26.746Z</time></trkpt><trkpt lat="44.88557" lon="7.317994"><ele>385.75</ele><time>2026-04-26T11:00:27.746Z</time></trkpt><trkpt lat="44.8855628" lon="7.3181646"><ele>385.0</ele><time>2026-04-26T11:00:28.745Z</time></trkpt><trkpt lat="44.885555" lon="7.3183156"><ele>385.0</ele><time>2026-04-26T11:00:29.746Z</time></trkpt><trkpt lat="44.8855518" lon="7.3184439"><ele>385.0</ele><time>2026-04-26T11:00:30.746Z</time></trkpt><trkpt lat="44.8854995" lon="7.318595"><ele>385.0</ele><time>2026-04-26T11:00:32.746Z</time></trkpt><trkpt lat="44.8854283" lon="7.3186213"><ele>385.0</ele><time>2026-04-26T11:00:33.746Z</time></trkpt><trkpt lat="44.8853365" lon="7.3186242"><ele>385.0</ele><time>2026-04-26T11:00:34.746Z</time></trkpt><trkpt lat="44.8852153" lon="7.3186174"><ele>384.6666666666667</ele><time>2026-04-26T11:00:35.745Z</time></trkpt><trkpt lat="44.8850436" lon="7.3186066"><ele>384.33333333333337</ele><time>2026-04-26T11:00:36.746Z</time></trkpt><trkpt lat="44.8848905" lon="7.3185894"><ele>384.0</ele><time>2026-04-26T11:00:37.746Z</time></trkpt><trkpt lat="44.8847478" lon="7.318561"><ele>384.0</ele><time>2026-04-26T11:00:38.746Z</time></trkpt><trkpt lat="44.8846245" lon="7.3185117"><ele>384.0</ele><time>2026-04-26T11:00:39.746Z</time></trkpt><trkpt lat="44.8845216" lon="7.3184452"><ele>384.0</ele><time>2026-04-26T11:00:40.746Z</time></trkpt><trkpt lat="44.8844476" lon="7.3183857"><ele>384.0</ele><time>2026-04-26T11:00:41.746Z</time></trkpt><trkpt lat="44.8843904" lon="7.3183374"><ele>384.0</ele><time>2026-04-26T11:00:42.746Z</time></trkpt><trkpt lat="44.8842905" lon="7.3183779"><ele>383.5</ele><time>2026-04-26T11:00:44.746Z</time></trkpt><trkpt lat="44.8842222" lon="7.3184722"><ele>383.0</ele><time>2026-04-26T11:00:45.746Z</time></trkpt><trkpt lat="44.8841404" lon="7.3186"><ele>382.5</ele><time>2026-04-26T11:00:46.746Z</time></trkpt><trkpt lat="44.8840509" lon="7.3187463"><ele>382.0</ele><time>2026-04-26T11:00:47.746Z</time></trkpt><trkpt lat="44.8839481" lon="7.3189115"><ele>381.75</ele><time>2026-04-26T11:00:48.746Z</time></trkpt><trkpt lat="44.8838447" lon="7.3190603"><ele>381.5</ele><time>2026-04-26T11:00:49.746Z</time></trkpt><trkpt lat="44.8837481" lon="7.319199"><ele>381.25</ele><time>2026-04-26T11:00:50.746Z</time></trkpt><trkpt lat="44.8836586" lon="7.3193174"><ele>381.0</ele><time>2026-04-26T11:00:51.746Z</time></trkpt><trkpt lat="44.8835817" lon="7.3194308"><ele>381.0</ele><time>2026-04-26T11:00:52.746Z</time></trkpt><trkpt lat="44.8835069" lon="7.3195234"><ele>381.0</ele><time>2026-04-26T11:00:53.746Z</time></trkpt><trkpt lat="44.8834405" lon="7.3196152"><ele>381.0</ele><time>2026-04-26T11:00:54.746Z</time></trkpt><trkpt lat="44.8833563" lon="7.3197106"><ele>381.0</ele><time>2026-04-26T11:00:55.746Z</time></trkpt><trkpt lat="44.8832582" lon="7.3198115"><ele>381.0</ele><time>2026-04-26T11:00:56.746Z</time></trkpt><trkpt lat="44.8831548" lon="7.3199443"><ele>381.3333333333333</ele><time>2026-04-26T11:00:57.746Z</time></trkpt><trkpt lat="44.8830487" lon="7.3201086"><ele>381.66666666666663</ele><time>2026-04-26T11:00:58.746Z</time></trkpt><trkpt lat="44.882936" lon="7.3202883"><ele>382.0</ele><time>2026-04-26T11:00:59.746Z</time></trkpt><trkpt lat="44.8828365" lon="7.3204589"><ele>381.3333333333333</ele><time>2026-04-26T11:01:00.746Z</time></trkpt><trkpt lat="44.8827368" lon="7.3206218"><ele>380.6666666666667</ele><time>2026-04-26T11:01:01.746Z</time></trkpt><trkpt lat="44.8826376" lon="7.3207907"><ele>380.0</ele><time>2026-04-26T11:01:02.746Z</time></trkpt><trkpt lat="44.8825411" lon="7.3209625"><ele>380.0</ele><time>2026-04-26T11:01:03.746Z</time></trkpt><trkpt lat="44.8824521" lon="7.3211421"><ele>380.0</ele><time>2026-04-26T11:01:04.746Z</time></trkpt><trkpt lat="44.8823693" lon="7.3213254"><ele>380.0</ele><time>2026-04-26T11:01:05.745Z</time></trkpt><trkpt lat="44.8822975" lon="7.3215167"><ele>379.6666666666667</ele><time>2026-04-26T11:01:06.746Z</time></trkpt><trkpt lat="44.8822324" lon="7.3217188"><ele>379.3333333333333</ele><time>2026-04-26T11:01:07.746Z</time></trkpt><trkpt lat="44.8821632" lon="7.3219201"><ele>379.0</ele><time>2026-04-26T11:01:08.746Z</time></trkpt><trkpt lat="44.8820959" lon="7.3221271"><ele>378.66666666666663</ele><time>2026-04-26T11:01:09.746Z</time></trkpt><trkpt lat="44.8820287" lon="7.3223279"><ele>378.3333333333333</ele><time>2026-04-26T11:01:10.746Z</time></trkpt><trkpt lat="44.8819644" lon="7.3225337"><ele>378.0</ele><time>2026-04-26T11:01:11.746Z</time></trkpt><trkpt lat="44.8819009" lon="7.3227308"><ele>378.0</ele><time>2026-04-26T11:01:12.746Z</time></trkpt><trkpt lat="44.8818421" lon="7.322917"><ele>378.0</ele><time>2026-04-26T11:01:13.746Z</time></trkpt><trkpt lat="44.8817838" lon="7.3231145"><ele>378.0</ele><time>2026-04-26T11:01:14.746Z</time></trkpt><trkpt lat="44.8817298" lon="7.3233197"><ele>377.75</ele><time>2026-04-26T11:01:15.746Z</time></trkpt><trkpt lat="44.8816714" lon="7.3235175"><ele>377.5</ele><time>2026-04-26T11:01:16.746Z</time></trkpt><trkpt lat="44.8816309" lon="7.323679"><ele>377.25</ele><time>2026-04-26T11:01:17.746Z</time></trkpt><trkpt lat="44.8815943" lon="7.3238062"><ele>377.0</ele><time>2026-04-26T11:01:18.746Z</time></trkpt><trkpt lat="44.8815644" lon="7.3239292"><ele>377.0</ele><time>2026-04-26T11:01:19.746Z</time></trkpt><trkpt lat="44.8815371" lon="7.324047"><ele>377.0</ele><time>2026-04-26T11:01:20.746Z</time></trkpt><trkpt lat="44.8815154" lon="7.3241549"><ele>377.0</ele><time>2026-04-26T11:01:21.746Z</time></trkpt><trkpt lat="44.8814896" lon="7.3242485"><ele>377.0</ele><time>2026-04-26T11:01:22.746Z</time></trkpt><trkpt lat="44.881458" lon="7.3243635"><ele>377.0</ele><time>2026-04-26T11:01:24.746Z</time></trkpt><trkpt lat="44.881425" lon="7.324448"><ele>377.0</ele><time>2026-04-26T11:01:40.746Z</time></trkpt><trkpt lat="44.8814844" lon="7.3245386"><ele>377.0</ele><time>2026-04-26T11:01:44.746Z</time></trkpt><trkpt lat="44.8815485" lon="7.3245721"><ele>377.0</ele><time>2026-04-26T11:01:47.746Z</time></trkpt><trkpt lat="44.8816236" lon="7.3246082"><ele>377.0</ele><time>2026-04-26T11:02:23.746Z</time></trkpt><trkpt lat="44.8816723" lon="7.3246782"><ele>377.0</ele><time>2026-04-26T11:02:25.746Z</time></trkpt><trkpt lat="44.881676" lon="7.3248447"><ele>377.0</ele><time>2026-04-26T11:02:27.746Z</time></trkpt><trkpt lat="44.8816742" lon="7.3249556"><ele>377.0</ele><time>2026-04-26T11:02:28.746Z</time></trkpt><trkpt lat="44.8816721" lon="7.3250992"><ele>376.75</ele><time>2026-04-26T11:02:29.746Z</time></trkpt><trkpt lat="44.8816615" lon="7.3252717"><ele>376.5</ele><time>2026-04-26T11:02:30.745Z</time></trkpt><trkpt lat="44.8816502" lon="7.3254456"><ele>376.25</ele><time>2026-04-26T11:02:31.746Z</time></trkpt><trkpt lat="44.8816424" lon="7.3256346"><ele>376.0</ele><time>2026-04-26T11:02:32.746Z</time></trkpt><trkpt lat="44.8816396" lon="7.3258311"><ele>376.0</ele><time>2026-04-26T11:02:33.746Z</time></trkpt><trkpt lat="44.8816379" lon="7.3260435"><ele>376.0</ele><time>2026-04-26T11:02:34.746Z</time></trkpt><trkpt lat="44.8816326" lon="7.3262742"><ele>376.0</ele><time>2026-04-26T11:02:35.746Z</time></trkpt><trkpt lat="44.8816226" lon="7.3264978"><ele>376.0</ele><time>2026-04-26T11:02:36.746Z</time></trkpt><trkpt lat="44.8816031" lon="7.3267272"><ele>376.0</ele><time>2026-04-26T11:02:37.746Z</time></trkpt><trkpt lat="44.8815879" lon="7.3269461"><ele>376.0</ele><time>2026-04-26T11:02:38.746Z</time></trkpt><trkpt lat="44.8815774" lon="7.3271756"><ele>376.20000000000005</ele><time>2026-04-26T11:02:39.746Z</time></trkpt><trkpt lat="44.8815741" lon="7.3273696"><ele>376.40000000000003</ele><time>2026-04-26T11:02:40.746Z</time></trkpt><trkpt lat="44.8815755" lon="7.3275255"><ele>376.6</ele><time>2026-04-26T11:02:41.746Z</time></trkpt><trkpt lat="44.8815705" lon="7.3276404"><ele>376.8</ele><time>2026-04-26T11:02:42.746Z</time></trkpt><trkpt lat="44.8815743" lon="7.3277922"><ele>377.0</ele><time>2026-04-26T11:02:44.746Z</time></trkpt><trkpt lat="44.8816711" lon="7.3278565"><ele>377.0</ele><time>2026-04-26T11:02:46.746Z</time></trkpt><trkpt lat="44.8817516" lon="7.3278695"><ele>377.0</ele><time>2026-04-26T11:02:47.746Z</time></trkpt><trkpt lat="44.8818539" lon="7.3278915"><ele>377.0</ele><time>2026-04-26T11:02:48.746Z</time></trkpt><trkpt lat="44.881947" lon="7.3279169"><ele>377.0</ele><time>2026-04-26T11:02:49.746Z</time></trkpt><trkpt lat="44.8820231" lon="7.3279335"><ele>377.0</ele><time>2026-04-26T11:02:50.746Z</time></trkpt><trkpt lat="44.8821011" lon="7.3279592"><ele>377.0</ele><time>2026-04-26T11:02:51.746Z</time></trkpt><trkpt lat="44.8821832" lon="7.3279803"><ele>378.0</ele><time>2026-04-26T11:02:52.746Z</time></trkpt><trkpt lat="44.8822762" lon="7.3280089"><ele>378.0</ele><time>2026-04-26T11:02:53.746Z</time></trkpt><trkpt lat="44.8823544" lon="7.3280233"><ele>378.0</ele><time>2026-04-26T11:02:54.746Z</time></trkpt><trkpt lat="44.8824293" lon="7.3280461"><ele>378.0</ele><time>2026-04-26T11:02:55.746Z</time></trkpt><trkpt lat="44.8825276" lon="7.3280663"><ele>377.0</ele><time>2026-04-26T11:02:57.746Z</time></trkpt></trkseg></trk></gpx>